<?xml version="1.0" encoding="UTF-8" standalone="no" ?>
<gpx xmlns="http://www.topografix.com/GPX/1/1" xmlns:xsi="http://www.w3.org/2001/XMLSchema-instance" xsi:schemaLocation="http://www.topografix.com/GPX/1/1 http://www.topografix.com/GPX/1/1/gpx.xsd" version="1.1" creator="VisuGPX - https://www.visugpx.com">
  <metadata>
    <name>chaurionde</name>
  </metadata>
  <trk>
    <name><![CDATA[chaurionde_1]]></name>
    <trkseg>
      <trkpt lat="45.71342" lon="6.27475">
        <ele>1118.8</ele>
        <time>2022-01-13T04:52:55Z</time>
      </trkpt>
      <trkpt lat="45.71342" lon="6.27475">
        <ele>1119.7</ele>
        <time>2022-01-13T04:52:56Z</time>
      </trkpt>
      <trkpt lat="45.71342" lon="6.27475">
        <ele>1119.7</ele>
        <time>2022-01-13T04:52:57Z</time>
      </trkpt>
      <trkpt lat="45.71342" lon="6.27475">
        <ele>1157.8</ele>
        <time>2022-01-13T04:55:06Z</time>
      </trkpt>
      <trkpt lat="45.71342" lon="6.27475">
        <ele>1157.8</ele>
        <time>2022-01-13T04:55:07Z</time>
      </trkpt>
      <trkpt lat="45.71342" lon="6.27475">
        <ele>1157.8</ele>
        <time>2022-01-13T04:55:08Z</time>
      </trkpt>
      <trkpt lat="45.71342" lon="6.27475">
        <ele>1157.8</ele>
        <time>2022-01-13T04:55:09Z</time>
      </trkpt>
      <trkpt lat="45.71342" lon="6.27476">
        <ele>1157.8</ele>
        <time>2022-01-13T04:55:10Z</time>
      </trkpt>
      <trkpt lat="45.7134" lon="6.27477">
        <ele>1157.8</ele>
        <time>2022-01-13T04:55:11Z</time>
      </trkpt>
      <trkpt lat="45.71338" lon="6.27477">
        <ele>1157.8</ele>
        <time>2022-01-13T04:55:12Z</time>
      </trkpt>
      <trkpt lat="45.71336" lon="6.27477">
        <ele>1157.8</ele>
        <time>2022-01-13T04:55:13Z</time>
      </trkpt>
      <trkpt lat="45.71334" lon="6.27478">
        <ele>1157.8</ele>
        <time>2022-01-13T04:55:14Z</time>
      </trkpt>
      <trkpt lat="45.71333" lon="6.27478">
        <ele>1157.8</ele>
        <time>2022-01-13T04:55:15Z</time>
      </trkpt>
      <trkpt lat="45.71331" lon="6.27477">
        <ele>1157.8</ele>
        <time>2022-01-13T04:55:16Z</time>
      </trkpt>
      <trkpt lat="45.71329" lon="6.27476">
        <ele>1157.8</ele>
        <time>2022-01-13T04:55:17Z</time>
      </trkpt>
      <trkpt lat="45.71328" lon="6.27475">
        <ele>1157.8</ele>
        <time>2022-01-13T04:55:18Z</time>
      </trkpt>
      <trkpt lat="45.71326" lon="6.27473">
        <ele>1156.7</ele>
        <time>2022-01-13T04:55:19Z</time>
      </trkpt>
      <trkpt lat="45.71326" lon="6.27472">
        <ele>1156.7</ele>
        <time>2022-01-13T04:55:20Z</time>
      </trkpt>
      <trkpt lat="45.71326" lon="6.2747">
        <ele>1156.7</ele>
        <time>2022-01-13T04:55:21Z</time>
      </trkpt>
      <trkpt lat="45.71326" lon="6.27468">
        <ele>1156.7</ele>
        <time>2022-01-13T04:55:22Z</time>
      </trkpt>
      <trkpt lat="45.71325" lon="6.27466">
        <ele>1156.7</ele>
        <time>2022-01-13T04:55:23Z</time>
      </trkpt>
      <trkpt lat="45.71325" lon="6.27464">
        <ele>1156.7</ele>
        <time>2022-01-13T04:55:24Z</time>
      </trkpt>
      <trkpt lat="45.71325" lon="6.27462">
        <ele>1156.7</ele>
        <time>2022-01-13T04:55:25Z</time>
      </trkpt>
      <trkpt lat="45.71325" lon="6.27461">
        <ele>1156.7</ele>
        <time>2022-01-13T04:55:26Z</time>
      </trkpt>
      <trkpt lat="45.71325" lon="6.27458">
        <ele>1156.7</ele>
        <time>2022-01-13T04:55:27Z</time>
      </trkpt>
      <trkpt lat="45.71325" lon="6.27456">
        <ele>1156.7</ele>
        <time>2022-01-13T04:55:28Z</time>
      </trkpt>
      <trkpt lat="45.71325" lon="6.27454">
        <ele>1156.7</ele>
        <time>2022-01-13T04:55:29Z</time>
      </trkpt>
      <trkpt lat="45.71325" lon="6.27452">
        <ele>1156.7</ele>
        <time>2022-01-13T04:55:30Z</time>
      </trkpt>
      <trkpt lat="45.71324" lon="6.2745">
        <ele>1156.7</ele>
        <time>2022-01-13T04:55:31Z</time>
      </trkpt>
      <trkpt lat="45.71324" lon="6.27448">
        <ele>1156.7</ele>
        <time>2022-01-13T04:55:32Z</time>
      </trkpt>
      <trkpt lat="45.71325" lon="6.27446">
        <ele>1156.7</ele>
        <time>2022-01-13T04:55:33Z</time>
      </trkpt>
      <trkpt lat="45.71325" lon="6.27445">
        <ele>1156.7</ele>
        <time>2022-01-13T04:55:34Z</time>
      </trkpt>
      <trkpt lat="45.71325" lon="6.27443">
        <ele>1156.7</ele>
        <time>2022-01-13T04:55:35Z</time>
      </trkpt>
      <trkpt lat="45.71325" lon="6.27441">
        <ele>1156.7</ele>
        <time>2022-01-13T04:55:36Z</time>
      </trkpt>
      <trkpt lat="45.71326" lon="6.27439">
        <ele>1156.7</ele>
        <time>2022-01-13T04:55:37Z</time>
      </trkpt>
      <trkpt lat="45.71327" lon="6.27437">
        <ele>1156.7</ele>
        <time>2022-01-13T04:55:38Z</time>
      </trkpt>
      <trkpt lat="45.71327" lon="6.27434">
        <ele>1156.7</ele>
        <time>2022-01-13T04:55:39Z</time>
      </trkpt>
      <trkpt lat="45.71327" lon="6.27433">
        <ele>1156.7</ele>
        <time>2022-01-13T04:55:40Z</time>
      </trkpt>
      <trkpt lat="45.71328" lon="6.27431">
        <ele>1156.7</ele>
        <time>2022-01-13T04:55:41Z</time>
      </trkpt>
      <trkpt lat="45.71328" lon="6.27429">
        <ele>1156.7</ele>
        <time>2022-01-13T04:55:42Z</time>
      </trkpt>
      <trkpt lat="45.71329" lon="6.27427">
        <ele>1156.7</ele>
        <time>2022-01-13T04:55:43Z</time>
      </trkpt>
      <trkpt lat="45.71329" lon="6.27424">
        <ele>1156.7</ele>
        <time>2022-01-13T04:55:44Z</time>
      </trkpt>
      <trkpt lat="45.71329" lon="6.27423">
        <ele>1156.7</ele>
        <time>2022-01-13T04:55:45Z</time>
      </trkpt>
      <trkpt lat="45.71329" lon="6.27421">
        <ele>1156.7</ele>
        <time>2022-01-13T04:55:46Z</time>
      </trkpt>
      <trkpt lat="45.7133" lon="6.27419">
        <ele>1156.7</ele>
        <time>2022-01-13T04:55:47Z</time>
      </trkpt>
      <trkpt lat="45.7133" lon="6.27417">
        <ele>1156.7</ele>
        <time>2022-01-13T04:55:48Z</time>
      </trkpt>
      <trkpt lat="45.7133" lon="6.27415">
        <ele>1157.8</ele>
        <time>2022-01-13T04:55:49Z</time>
      </trkpt>
      <trkpt lat="45.7133" lon="6.27414">
        <ele>1157.8</ele>
        <time>2022-01-13T04:55:50Z</time>
      </trkpt>
      <trkpt lat="45.7133" lon="6.27412">
        <ele>1157.8</ele>
        <time>2022-01-13T04:55:51Z</time>
      </trkpt>
      <trkpt lat="45.7133" lon="6.2741">
        <ele>1157.8</ele>
        <time>2022-01-13T04:55:52Z</time>
      </trkpt>
      <trkpt lat="45.7133" lon="6.27408">
        <ele>1157.8</ele>
        <time>2022-01-13T04:55:53Z</time>
      </trkpt>
      <trkpt lat="45.71331" lon="6.27406">
        <ele>1157.8</ele>
        <time>2022-01-13T04:55:54Z</time>
      </trkpt>
      <trkpt lat="45.71331" lon="6.27404">
        <ele>1157.8</ele>
        <time>2022-01-13T04:55:55Z</time>
      </trkpt>
      <trkpt lat="45.71331" lon="6.27403">
        <ele>1157.8</ele>
        <time>2022-01-13T04:55:56Z</time>
      </trkpt>
      <trkpt lat="45.71331" lon="6.27401">
        <ele>1157.8</ele>
        <time>2022-01-13T04:55:57Z</time>
      </trkpt>
      <trkpt lat="45.71332" lon="6.27399">
        <ele>1157.8</ele>
        <time>2022-01-13T04:55:58Z</time>
      </trkpt>
      <trkpt lat="45.71332" lon="6.27397">
        <ele>1157.8</ele>
        <time>2022-01-13T04:55:59Z</time>
      </trkpt>
      <trkpt lat="45.71332" lon="6.27395">
        <ele>1157.8</ele>
        <time>2022-01-13T04:56:00Z</time>
      </trkpt>
      <trkpt lat="45.71332" lon="6.27393">
        <ele>1157.8</ele>
        <time>2022-01-13T04:56:01Z</time>
      </trkpt>
      <trkpt lat="45.71333" lon="6.27391">
        <ele>1157.8</ele>
        <time>2022-01-13T04:56:02Z</time>
      </trkpt>
      <trkpt lat="45.71333" lon="6.27389">
        <ele>1157.8</ele>
        <time>2022-01-13T04:56:03Z</time>
      </trkpt>
      <trkpt lat="45.71333" lon="6.27388">
        <ele>1157.8</ele>
        <time>2022-01-13T04:56:04Z</time>
      </trkpt>
      <trkpt lat="45.71333" lon="6.27385">
        <ele>1157.8</ele>
        <time>2022-01-13T04:56:05Z</time>
      </trkpt>
      <trkpt lat="45.71333" lon="6.27384">
        <ele>1157.8</ele>
        <time>2022-01-13T04:56:06Z</time>
      </trkpt>
      <trkpt lat="45.71333" lon="6.27382">
        <ele>1157.8</ele>
        <time>2022-01-13T04:56:07Z</time>
      </trkpt>
      <trkpt lat="45.71333" lon="6.27381">
        <ele>1157.8</ele>
        <time>2022-01-13T04:56:08Z</time>
      </trkpt>
      <trkpt lat="45.71334" lon="6.27379">
        <ele>1157.8</ele>
        <time>2022-01-13T04:56:09Z</time>
      </trkpt>
      <trkpt lat="45.71334" lon="6.27376">
        <ele>1157.8</ele>
        <time>2022-01-13T04:56:10Z</time>
      </trkpt>
      <trkpt lat="45.71335" lon="6.27374">
        <ele>1157.8</ele>
        <time>2022-01-13T04:56:11Z</time>
      </trkpt>
      <trkpt lat="45.71334" lon="6.27373">
        <ele>1157.8</ele>
        <time>2022-01-13T04:56:12Z</time>
      </trkpt>
      <trkpt lat="45.71335" lon="6.27371">
        <ele>1159.8</ele>
        <time>2022-01-13T04:56:13Z</time>
      </trkpt>
      <trkpt lat="45.71335" lon="6.27368">
        <ele>1159.8</ele>
        <time>2022-01-13T04:56:14Z</time>
      </trkpt>
      <trkpt lat="45.71335" lon="6.27366">
        <ele>1160.8</ele>
        <time>2022-01-13T04:56:15Z</time>
      </trkpt>
      <trkpt lat="45.71335" lon="6.27364">
        <ele>1160.8</ele>
        <time>2022-01-13T04:56:16Z</time>
      </trkpt>
      <trkpt lat="45.71336" lon="6.27362">
        <ele>1160.8</ele>
        <time>2022-01-13T04:56:17Z</time>
      </trkpt>
      <trkpt lat="45.71336" lon="6.2736">
        <ele>1160.8</ele>
        <time>2022-01-13T04:56:18Z</time>
      </trkpt>
      <trkpt lat="45.71337" lon="6.27358">
        <ele>1160.8</ele>
        <time>2022-01-13T04:56:19Z</time>
      </trkpt>
      <trkpt lat="45.71337" lon="6.27356">
        <ele>1160.8</ele>
        <time>2022-01-13T04:56:20Z</time>
      </trkpt>
      <trkpt lat="45.71337" lon="6.27354">
        <ele>1161.8</ele>
        <time>2022-01-13T04:56:21Z</time>
      </trkpt>
      <trkpt lat="45.71337" lon="6.27352">
        <ele>1161.8</ele>
        <time>2022-01-13T04:56:22Z</time>
      </trkpt>
      <trkpt lat="45.71339" lon="6.27349">
        <ele>1161.8</ele>
        <time>2022-01-13T04:56:23Z</time>
      </trkpt>
      <trkpt lat="45.71339" lon="6.27346">
        <ele>1161.8</ele>
        <time>2022-01-13T04:56:24Z</time>
      </trkpt>
      <trkpt lat="45.7134" lon="6.27344">
        <ele>1161.8</ele>
        <time>2022-01-13T04:56:25Z</time>
      </trkpt>
      <trkpt lat="45.7134" lon="6.27342">
        <ele>1161.8</ele>
        <time>2022-01-13T04:56:26Z</time>
      </trkpt>
      <trkpt lat="45.7134" lon="6.2734">
        <ele>1161.8</ele>
        <time>2022-01-13T04:56:27Z</time>
      </trkpt>
      <trkpt lat="45.71339" lon="6.27339">
        <ele>1161.8</ele>
        <time>2022-01-13T04:56:28Z</time>
      </trkpt>
      <trkpt lat="45.71339" lon="6.27337">
        <ele>1162.8</ele>
        <time>2022-01-13T04:56:29Z</time>
      </trkpt>
      <trkpt lat="45.71339" lon="6.27335">
        <ele>1162.8</ele>
        <time>2022-01-13T04:56:30Z</time>
      </trkpt>
      <trkpt lat="45.71339" lon="6.27333">
        <ele>1162.8</ele>
        <time>2022-01-13T04:56:31Z</time>
      </trkpt>
      <trkpt lat="45.71338" lon="6.27331">
        <ele>1162.8</ele>
        <time>2022-01-13T04:56:32Z</time>
      </trkpt>
      <trkpt lat="45.71338" lon="6.2733">
        <ele>1162.8</ele>
        <time>2022-01-13T04:56:33Z</time>
      </trkpt>
      <trkpt lat="45.71338" lon="6.27328">
        <ele>1162.8</ele>
        <time>2022-01-13T04:56:34Z</time>
      </trkpt>
      <trkpt lat="45.71338" lon="6.27326">
        <ele>1163.7</ele>
        <time>2022-01-13T04:56:35Z</time>
      </trkpt>
      <trkpt lat="45.71337" lon="6.27324">
        <ele>1163.7</ele>
        <time>2022-01-13T04:56:36Z</time>
      </trkpt>
      <trkpt lat="45.71337" lon="6.27322">
        <ele>1163.7</ele>
        <time>2022-01-13T04:56:37Z</time>
      </trkpt>
      <trkpt lat="45.71337" lon="6.27319">
        <ele>1163.7</ele>
        <time>2022-01-13T04:56:38Z</time>
      </trkpt>
      <trkpt lat="45.71336" lon="6.27317">
        <ele>1164.8</ele>
        <time>2022-01-13T04:56:39Z</time>
      </trkpt>
      <trkpt lat="45.71336" lon="6.27315">
        <ele>1164.8</ele>
        <time>2022-01-13T04:56:40Z</time>
      </trkpt>
      <trkpt lat="45.71336" lon="6.27313">
        <ele>1164.8</ele>
        <time>2022-01-13T04:56:41Z</time>
      </trkpt>
      <trkpt lat="45.71336" lon="6.27311">
        <ele>1164.8</ele>
        <time>2022-01-13T04:56:42Z</time>
      </trkpt>
      <trkpt lat="45.71336" lon="6.27309">
        <ele>1165.7</ele>
        <time>2022-01-13T04:56:43Z</time>
      </trkpt>
      <trkpt lat="45.71336" lon="6.27307">
        <ele>1165.7</ele>
        <time>2022-01-13T04:56:44Z</time>
      </trkpt>
      <trkpt lat="45.71335" lon="6.27305">
        <ele>1165.7</ele>
        <time>2022-01-13T04:56:45Z</time>
      </trkpt>
      <trkpt lat="45.71335" lon="6.27303">
        <ele>1165.7</ele>
        <time>2022-01-13T04:56:46Z</time>
      </trkpt>
      <trkpt lat="45.71335" lon="6.27301">
        <ele>1166.8</ele>
        <time>2022-01-13T04:56:47Z</time>
      </trkpt>
      <trkpt lat="45.71335" lon="6.27299">
        <ele>1166.8</ele>
        <time>2022-01-13T04:56:48Z</time>
      </trkpt>
      <trkpt lat="45.71334" lon="6.27297">
        <ele>1166.8</ele>
        <time>2022-01-13T04:56:49Z</time>
      </trkpt>
      <trkpt lat="45.71334" lon="6.27295">
        <ele>1166.8</ele>
        <time>2022-01-13T04:56:50Z</time>
      </trkpt>
      <trkpt lat="45.71333" lon="6.27293">
        <ele>1166.8</ele>
        <time>2022-01-13T04:56:51Z</time>
      </trkpt>
      <trkpt lat="45.71333" lon="6.27291">
        <ele>1166.8</ele>
        <time>2022-01-13T04:56:52Z</time>
      </trkpt>
      <trkpt lat="45.71333" lon="6.27289">
        <ele>1167.7</ele>
        <time>2022-01-13T04:56:53Z</time>
      </trkpt>
      <trkpt lat="45.71332" lon="6.27287">
        <ele>1167.7</ele>
        <time>2022-01-13T04:56:54Z</time>
      </trkpt>
      <trkpt lat="45.71332" lon="6.27285">
        <ele>1167.7</ele>
        <time>2022-01-13T04:56:55Z</time>
      </trkpt>
      <trkpt lat="45.71331" lon="6.27283">
        <ele>1167.7</ele>
        <time>2022-01-13T04:56:56Z</time>
      </trkpt>
      <trkpt lat="45.71331" lon="6.27281">
        <ele>1168.8</ele>
        <time>2022-01-13T04:56:57Z</time>
      </trkpt>
      <trkpt lat="45.71331" lon="6.27279">
        <ele>1168.8</ele>
        <time>2022-01-13T04:56:58Z</time>
      </trkpt>
      <trkpt lat="45.71331" lon="6.27277">
        <ele>1168.8</ele>
        <time>2022-01-13T04:56:59Z</time>
      </trkpt>
      <trkpt lat="45.7133" lon="6.27275">
        <ele>1168.8</ele>
        <time>2022-01-13T04:57:00Z</time>
      </trkpt>
      <trkpt lat="45.71329" lon="6.27273">
        <ele>1169.8</ele>
        <time>2022-01-13T04:57:01Z</time>
      </trkpt>
      <trkpt lat="45.71329" lon="6.27271">
        <ele>1169.8</ele>
        <time>2022-01-13T04:57:02Z</time>
      </trkpt>
      <trkpt lat="45.71329" lon="6.27269">
        <ele>1169.8</ele>
        <time>2022-01-13T04:57:03Z</time>
      </trkpt>
      <trkpt lat="45.71328" lon="6.27267">
        <ele>1169.8</ele>
        <time>2022-01-13T04:57:04Z</time>
      </trkpt>
      <trkpt lat="45.71328" lon="6.27265">
        <ele>1170.8</ele>
        <time>2022-01-13T04:57:05Z</time>
      </trkpt>
      <trkpt lat="45.71326" lon="6.27264">
        <ele>1170.8</ele>
        <time>2022-01-13T04:57:06Z</time>
      </trkpt>
      <trkpt lat="45.71325" lon="6.27263">
        <ele>1170.8</ele>
        <time>2022-01-13T04:57:07Z</time>
      </trkpt>
      <trkpt lat="45.71324" lon="6.27261">
        <ele>1170.8</ele>
        <time>2022-01-13T04:57:08Z</time>
      </trkpt>
      <trkpt lat="45.71324" lon="6.2726">
        <ele>1170.8</ele>
        <time>2022-01-13T04:57:09Z</time>
      </trkpt>
      <trkpt lat="45.71323" lon="6.27258">
        <ele>1170.8</ele>
        <time>2022-01-13T04:57:10Z</time>
      </trkpt>
      <trkpt lat="45.71322" lon="6.27256">
        <ele>1170.8</ele>
        <time>2022-01-13T04:57:11Z</time>
      </trkpt>
      <trkpt lat="45.71321" lon="6.27254">
        <ele>1170.8</ele>
        <time>2022-01-13T04:57:12Z</time>
      </trkpt>
      <trkpt lat="45.7132" lon="6.27252">
        <ele>1170.8</ele>
        <time>2022-01-13T04:57:13Z</time>
      </trkpt>
      <trkpt lat="45.71319" lon="6.2725">
        <ele>1170.8</ele>
        <time>2022-01-13T04:57:14Z</time>
      </trkpt>
      <trkpt lat="45.71318" lon="6.27249">
        <ele>1173.8</ele>
        <time>2022-01-13T04:57:15Z</time>
      </trkpt>
      <trkpt lat="45.71318" lon="6.27246">
        <ele>1173.8</ele>
        <time>2022-01-13T04:57:16Z</time>
      </trkpt>
      <trkpt lat="45.71317" lon="6.27245">
        <ele>1173.8</ele>
        <time>2022-01-13T04:57:17Z</time>
      </trkpt>
      <trkpt lat="45.71316" lon="6.27243">
        <ele>1173.8</ele>
        <time>2022-01-13T04:57:18Z</time>
      </trkpt>
      <trkpt lat="45.71315" lon="6.27241">
        <ele>1173.8</ele>
        <time>2022-01-13T04:57:19Z</time>
      </trkpt>
      <trkpt lat="45.71313" lon="6.2724">
        <ele>1173.8</ele>
        <time>2022-01-13T04:57:20Z</time>
      </trkpt>
      <trkpt lat="45.71313" lon="6.27239">
        <ele>1173.8</ele>
        <time>2022-01-13T04:57:21Z</time>
      </trkpt>
      <trkpt lat="45.71313" lon="6.27237">
        <ele>1173.8</ele>
        <time>2022-01-13T04:57:22Z</time>
      </trkpt>
      <trkpt lat="45.71312" lon="6.27235">
        <ele>1173.8</ele>
        <time>2022-01-13T04:57:23Z</time>
      </trkpt>
      <trkpt lat="45.71311" lon="6.27233">
        <ele>1173.8</ele>
        <time>2022-01-13T04:57:24Z</time>
      </trkpt>
      <trkpt lat="45.7131" lon="6.27232">
        <ele>1175.8</ele>
        <time>2022-01-13T04:57:25Z</time>
      </trkpt>
      <trkpt lat="45.71309" lon="6.2723">
        <ele>1175.8</ele>
        <time>2022-01-13T04:57:26Z</time>
      </trkpt>
      <trkpt lat="45.71308" lon="6.27229">
        <ele>1175.8</ele>
        <time>2022-01-13T04:57:27Z</time>
      </trkpt>
      <trkpt lat="45.71307" lon="6.27228">
        <ele>1175.8</ele>
        <time>2022-01-13T04:57:28Z</time>
      </trkpt>
      <trkpt lat="45.71306" lon="6.27226">
        <ele>1177.8</ele>
        <time>2022-01-13T04:57:29Z</time>
      </trkpt>
      <trkpt lat="45.71305" lon="6.27225">
        <ele>1177.8</ele>
        <time>2022-01-13T04:57:30Z</time>
      </trkpt>
      <trkpt lat="45.71303" lon="6.27223">
        <ele>1178.8</ele>
        <time>2022-01-13T04:57:31Z</time>
      </trkpt>
      <trkpt lat="45.71302" lon="6.27221">
        <ele>1178.8</ele>
        <time>2022-01-13T04:57:32Z</time>
      </trkpt>
      <trkpt lat="45.71302" lon="6.2722">
        <ele>1179.7</ele>
        <time>2022-01-13T04:57:33Z</time>
      </trkpt>
      <trkpt lat="45.71301" lon="6.27218">
        <ele>1179.7</ele>
        <time>2022-01-13T04:57:34Z</time>
      </trkpt>
      <trkpt lat="45.713" lon="6.27217">
        <ele>1179.7</ele>
        <time>2022-01-13T04:57:35Z</time>
      </trkpt>
      <trkpt lat="45.71299" lon="6.27215">
        <ele>1179.7</ele>
        <time>2022-01-13T04:57:36Z</time>
      </trkpt>
      <trkpt lat="45.71298" lon="6.27214">
        <ele>1180.8</ele>
        <time>2022-01-13T04:57:37Z</time>
      </trkpt>
      <trkpt lat="45.71297" lon="6.27212">
        <ele>1180.8</ele>
        <time>2022-01-13T04:57:38Z</time>
      </trkpt>
      <trkpt lat="45.71295" lon="6.27211">
        <ele>1181.7</ele>
        <time>2022-01-13T04:57:39Z</time>
      </trkpt>
      <trkpt lat="45.71295" lon="6.27209">
        <ele>1181.7</ele>
        <time>2022-01-13T04:57:40Z</time>
      </trkpt>
      <trkpt lat="45.71294" lon="6.27208">
        <ele>1181.7</ele>
        <time>2022-01-13T04:57:41Z</time>
      </trkpt>
      <trkpt lat="45.71292" lon="6.27206">
        <ele>1181.7</ele>
        <time>2022-01-13T04:57:42Z</time>
      </trkpt>
      <trkpt lat="45.71291" lon="6.27205">
        <ele>1182.8</ele>
        <time>2022-01-13T04:57:43Z</time>
      </trkpt>
      <trkpt lat="45.71289" lon="6.27204">
        <ele>1182.8</ele>
        <time>2022-01-13T04:57:44Z</time>
      </trkpt>
      <trkpt lat="45.71288" lon="6.27203">
        <ele>1182.8</ele>
        <time>2022-01-13T04:57:45Z</time>
      </trkpt>
      <trkpt lat="45.71288" lon="6.27201">
        <ele>1182.8</ele>
        <time>2022-01-13T04:57:46Z</time>
      </trkpt>
      <trkpt lat="45.71287" lon="6.27199">
        <ele>1183.7</ele>
        <time>2022-01-13T04:57:47Z</time>
      </trkpt>
      <trkpt lat="45.71286" lon="6.27198">
        <ele>1183.7</ele>
        <time>2022-01-13T04:57:48Z</time>
      </trkpt>
      <trkpt lat="45.71285" lon="6.27196">
        <ele>1183.7</ele>
        <time>2022-01-13T04:57:49Z</time>
      </trkpt>
      <trkpt lat="45.71284" lon="6.27195">
        <ele>1183.7</ele>
        <time>2022-01-13T04:57:50Z</time>
      </trkpt>
      <trkpt lat="45.71283" lon="6.27194">
        <ele>1184.8</ele>
        <time>2022-01-13T04:57:51Z</time>
      </trkpt>
      <trkpt lat="45.71282" lon="6.27193">
        <ele>1184.8</ele>
        <time>2022-01-13T04:57:52Z</time>
      </trkpt>
      <trkpt lat="45.71281" lon="6.27191">
        <ele>1184.8</ele>
        <time>2022-01-13T04:57:53Z</time>
      </trkpt>
      <trkpt lat="45.7128" lon="6.2719">
        <ele>1184.8</ele>
        <time>2022-01-13T04:57:54Z</time>
      </trkpt>
      <trkpt lat="45.71279" lon="6.27189">
        <ele>1185.8</ele>
        <time>2022-01-13T04:57:55Z</time>
      </trkpt>
      <trkpt lat="45.71277" lon="6.27187">
        <ele>1185.8</ele>
        <time>2022-01-13T04:57:56Z</time>
      </trkpt>
      <trkpt lat="45.71276" lon="6.27186">
        <ele>1186.8</ele>
        <time>2022-01-13T04:57:57Z</time>
      </trkpt>
      <trkpt lat="45.71275" lon="6.27185">
        <ele>1186.8</ele>
        <time>2022-01-13T04:57:58Z</time>
      </trkpt>
      <trkpt lat="45.71274" lon="6.27184">
        <ele>1186.8</ele>
        <time>2022-01-13T04:57:59Z</time>
      </trkpt>
      <trkpt lat="45.71272" lon="6.27183">
        <ele>1186.8</ele>
        <time>2022-01-13T04:58:00Z</time>
      </trkpt>
      <trkpt lat="45.71271" lon="6.27182">
        <ele>1187.8</ele>
        <time>2022-01-13T04:58:01Z</time>
      </trkpt>
      <trkpt lat="45.71269" lon="6.2718">
        <ele>1187.8</ele>
        <time>2022-01-13T04:58:02Z</time>
      </trkpt>
      <trkpt lat="45.71268" lon="6.27179">
        <ele>1187.8</ele>
        <time>2022-01-13T04:58:03Z</time>
      </trkpt>
      <trkpt lat="45.71266" lon="6.27178">
        <ele>1187.8</ele>
        <time>2022-01-13T04:58:04Z</time>
      </trkpt>
      <trkpt lat="45.71265" lon="6.27177">
        <ele>1188.7</ele>
        <time>2022-01-13T04:58:05Z</time>
      </trkpt>
      <trkpt lat="45.71264" lon="6.27177">
        <ele>1188.7</ele>
        <time>2022-01-13T04:58:06Z</time>
      </trkpt>
      <trkpt lat="45.71262" lon="6.27176">
        <ele>1188.7</ele>
        <time>2022-01-13T04:58:07Z</time>
      </trkpt>
      <trkpt lat="45.71261" lon="6.27174">
        <ele>1188.7</ele>
        <time>2022-01-13T04:58:08Z</time>
      </trkpt>
      <trkpt lat="45.7126" lon="6.27173">
        <ele>1188.7</ele>
        <time>2022-01-13T04:58:09Z</time>
      </trkpt>
      <trkpt lat="45.71259" lon="6.27172">
        <ele>1188.7</ele>
        <time>2022-01-13T04:58:10Z</time>
      </trkpt>
      <trkpt lat="45.71257" lon="6.27171">
        <ele>1189.8</ele>
        <time>2022-01-13T04:58:11Z</time>
      </trkpt>
      <trkpt lat="45.71256" lon="6.2717">
        <ele>1189.8</ele>
        <time>2022-01-13T04:58:12Z</time>
      </trkpt>
      <trkpt lat="45.71255" lon="6.27169">
        <ele>1189.8</ele>
        <time>2022-01-13T04:58:13Z</time>
      </trkpt>
      <trkpt lat="45.71253" lon="6.27168">
        <ele>1189.8</ele>
        <time>2022-01-13T04:58:14Z</time>
      </trkpt>
      <trkpt lat="45.71252" lon="6.27167">
        <ele>1189.8</ele>
        <time>2022-01-13T04:58:15Z</time>
      </trkpt>
      <trkpt lat="45.7125" lon="6.27166">
        <ele>1189.8</ele>
        <time>2022-01-13T04:58:16Z</time>
      </trkpt>
      <trkpt lat="45.71249" lon="6.27164">
        <ele>1192.7</ele>
        <time>2022-01-13T04:58:17Z</time>
      </trkpt>
      <trkpt lat="45.71248" lon="6.27163">
        <ele>1192.7</ele>
        <time>2022-01-13T04:58:18Z</time>
      </trkpt>
      <trkpt lat="45.71247" lon="6.27162">
        <ele>1192.7</ele>
        <time>2022-01-13T04:58:19Z</time>
      </trkpt>
      <trkpt lat="45.71246" lon="6.27161">
        <ele>1192.7</ele>
        <time>2022-01-13T04:58:20Z</time>
      </trkpt>
      <trkpt lat="45.71244" lon="6.2716">
        <ele>1192.7</ele>
        <time>2022-01-13T04:58:21Z</time>
      </trkpt>
      <trkpt lat="45.71243" lon="6.27159">
        <ele>1192.7</ele>
        <time>2022-01-13T04:58:22Z</time>
      </trkpt>
      <trkpt lat="45.71242" lon="6.27157">
        <ele>1193.8</ele>
        <time>2022-01-13T04:58:23Z</time>
      </trkpt>
      <trkpt lat="45.71241" lon="6.27156">
        <ele>1193.8</ele>
        <time>2022-01-13T04:58:24Z</time>
      </trkpt>
      <trkpt lat="45.7124" lon="6.27155">
        <ele>1193.8</ele>
        <time>2022-01-13T04:58:25Z</time>
      </trkpt>
      <trkpt lat="45.71239" lon="6.27154">
        <ele>1193.8</ele>
        <time>2022-01-13T04:58:26Z</time>
      </trkpt>
      <trkpt lat="45.71238" lon="6.27154">
        <ele>1194.8</ele>
        <time>2022-01-13T04:58:27Z</time>
      </trkpt>
      <trkpt lat="45.71236" lon="6.27153">
        <ele>1194.8</ele>
        <time>2022-01-13T04:58:28Z</time>
      </trkpt>
      <trkpt lat="45.71235" lon="6.27152">
        <ele>1195.7</ele>
        <time>2022-01-13T04:58:29Z</time>
      </trkpt>
      <trkpt lat="45.71233" lon="6.27151">
        <ele>1195.7</ele>
        <time>2022-01-13T04:58:30Z</time>
      </trkpt>
      <trkpt lat="45.71232" lon="6.27151">
        <ele>1195.7</ele>
        <time>2022-01-13T04:58:31Z</time>
      </trkpt>
      <trkpt lat="45.7123" lon="6.2715">
        <ele>1195.7</ele>
        <time>2022-01-13T04:58:32Z</time>
      </trkpt>
      <trkpt lat="45.71229" lon="6.27149">
        <ele>1196.8</ele>
        <time>2022-01-13T04:58:33Z</time>
      </trkpt>
      <trkpt lat="45.71228" lon="6.27149">
        <ele>1196.8</ele>
        <time>2022-01-13T04:58:34Z</time>
      </trkpt>
      <trkpt lat="45.71227" lon="6.27148">
        <ele>1196.8</ele>
        <time>2022-01-13T04:58:35Z</time>
      </trkpt>
      <trkpt lat="45.71226" lon="6.27147">
        <ele>1196.8</ele>
        <time>2022-01-13T04:58:36Z</time>
      </trkpt>
      <trkpt lat="45.71225" lon="6.27146">
        <ele>1197.7</ele>
        <time>2022-01-13T04:58:37Z</time>
      </trkpt>
      <trkpt lat="45.71224" lon="6.27146">
        <ele>1197.7</ele>
        <time>2022-01-13T04:58:38Z</time>
      </trkpt>
      <trkpt lat="45.71223" lon="6.27145">
        <ele>1197.7</ele>
        <time>2022-01-13T04:58:39Z</time>
      </trkpt>
      <trkpt lat="45.71222" lon="6.27145">
        <ele>1197.7</ele>
        <time>2022-01-13T04:58:40Z</time>
      </trkpt>
      <trkpt lat="45.7122" lon="6.27145">
        <ele>1197.7</ele>
        <time>2022-01-13T04:58:41Z</time>
      </trkpt>
      <trkpt lat="45.71219" lon="6.27145">
        <ele>1197.7</ele>
        <time>2022-01-13T04:58:42Z</time>
      </trkpt>
      <trkpt lat="45.71217" lon="6.27145">
        <ele>1198.8</ele>
        <time>2022-01-13T04:58:43Z</time>
      </trkpt>
      <trkpt lat="45.71216" lon="6.27144">
        <ele>1198.8</ele>
        <time>2022-01-13T04:58:44Z</time>
      </trkpt>
      <trkpt lat="45.71215" lon="6.27144">
        <ele>1198.8</ele>
        <time>2022-01-13T04:58:45Z</time>
      </trkpt>
      <trkpt lat="45.71213" lon="6.27145">
        <ele>1198.8</ele>
        <time>2022-01-13T04:58:46Z</time>
      </trkpt>
      <trkpt lat="45.71212" lon="6.27145">
        <ele>1198.8</ele>
        <time>2022-01-13T04:58:47Z</time>
      </trkpt>
      <trkpt lat="45.7121" lon="6.27146">
        <ele>1198.8</ele>
        <time>2022-01-13T04:58:48Z</time>
      </trkpt>
      <trkpt lat="45.71208" lon="6.27146">
        <ele>1198.8</ele>
        <time>2022-01-13T04:58:49Z</time>
      </trkpt>
      <trkpt lat="45.71207" lon="6.27146">
        <ele>1198.8</ele>
        <time>2022-01-13T04:58:50Z</time>
      </trkpt>
      <trkpt lat="45.71206" lon="6.27146">
        <ele>1201.8</ele>
        <time>2022-01-13T04:58:51Z</time>
      </trkpt>
      <trkpt lat="45.71204" lon="6.27146">
        <ele>1201.8</ele>
        <time>2022-01-13T04:58:52Z</time>
      </trkpt>
      <trkpt lat="45.71202" lon="6.27146">
        <ele>1201.8</ele>
        <time>2022-01-13T04:58:53Z</time>
      </trkpt>
      <trkpt lat="45.71201" lon="6.27146">
        <ele>1201.8</ele>
        <time>2022-01-13T04:58:54Z</time>
      </trkpt>
      <trkpt lat="45.712" lon="6.27146">
        <ele>1202.8</ele>
        <time>2022-01-13T04:58:55Z</time>
      </trkpt>
      <trkpt lat="45.71199" lon="6.27145">
        <ele>1202.8</ele>
        <time>2022-01-13T04:58:56Z</time>
      </trkpt>
      <trkpt lat="45.71197" lon="6.27145">
        <ele>1203.8</ele>
        <time>2022-01-13T04:58:57Z</time>
      </trkpt>
      <trkpt lat="45.71195" lon="6.27144">
        <ele>1203.8</ele>
        <time>2022-01-13T04:58:58Z</time>
      </trkpt>
      <trkpt lat="45.71194" lon="6.27143">
        <ele>1203.8</ele>
        <time>2022-01-13T04:58:59Z</time>
      </trkpt>
      <trkpt lat="45.71193" lon="6.27142">
        <ele>1203.8</ele>
        <time>2022-01-13T04:59:00Z</time>
      </trkpt>
      <trkpt lat="45.71192" lon="6.27141">
        <ele>1204.7</ele>
        <time>2022-01-13T04:59:01Z</time>
      </trkpt>
      <trkpt lat="45.71191" lon="6.2714">
        <ele>1204.7</ele>
        <time>2022-01-13T04:59:02Z</time>
      </trkpt>
      <trkpt lat="45.7119" lon="6.27139">
        <ele>1204.7</ele>
        <time>2022-01-13T04:59:03Z</time>
      </trkpt>
      <trkpt lat="45.71189" lon="6.27138">
        <ele>1204.7</ele>
        <time>2022-01-13T04:59:04Z</time>
      </trkpt>
      <trkpt lat="45.71188" lon="6.27137">
        <ele>1204.7</ele>
        <time>2022-01-13T04:59:05Z</time>
      </trkpt>
      <trkpt lat="45.71187" lon="6.27137">
        <ele>1204.7</ele>
        <time>2022-01-13T04:59:06Z</time>
      </trkpt>
      <trkpt lat="45.71186" lon="6.27136">
        <ele>1205.8</ele>
        <time>2022-01-13T04:59:07Z</time>
      </trkpt>
      <trkpt lat="45.71184" lon="6.27136">
        <ele>1205.8</ele>
        <time>2022-01-13T04:59:08Z</time>
      </trkpt>
      <trkpt lat="45.71182" lon="6.27135">
        <ele>1205.8</ele>
        <time>2022-01-13T04:59:09Z</time>
      </trkpt>
      <trkpt lat="45.71181" lon="6.27135">
        <ele>1205.8</ele>
        <time>2022-01-13T04:59:10Z</time>
      </trkpt>
      <trkpt lat="45.7118" lon="6.27134">
        <ele>1206.7</ele>
        <time>2022-01-13T04:59:11Z</time>
      </trkpt>
      <trkpt lat="45.71177" lon="6.27134">
        <ele>1206.7</ele>
        <time>2022-01-13T04:59:12Z</time>
      </trkpt>
      <trkpt lat="45.71176" lon="6.27134">
        <ele>1206.7</ele>
        <time>2022-01-13T04:59:13Z</time>
      </trkpt>
      <trkpt lat="45.71175" lon="6.27134">
        <ele>1206.7</ele>
        <time>2022-01-13T04:59:14Z</time>
      </trkpt>
      <trkpt lat="45.71173" lon="6.27133">
        <ele>1206.7</ele>
        <time>2022-01-13T04:59:15Z</time>
      </trkpt>
      <trkpt lat="45.71172" lon="6.27132">
        <ele>1206.7</ele>
        <time>2022-01-13T04:59:16Z</time>
      </trkpt>
      <trkpt lat="45.7117" lon="6.27132">
        <ele>1206.7</ele>
        <time>2022-01-13T04:59:17Z</time>
      </trkpt>
      <trkpt lat="45.71169" lon="6.27132">
        <ele>1206.7</ele>
        <time>2022-01-13T04:59:18Z</time>
      </trkpt>
      <trkpt lat="45.71167" lon="6.27131">
        <ele>1207.8</ele>
        <time>2022-01-13T04:59:19Z</time>
      </trkpt>
      <trkpt lat="45.71166" lon="6.27131">
        <ele>1207.8</ele>
        <time>2022-01-13T04:59:20Z</time>
      </trkpt>
      <trkpt lat="45.71165" lon="6.2713">
        <ele>1208.7</ele>
        <time>2022-01-13T04:59:21Z</time>
      </trkpt>
      <trkpt lat="45.71163" lon="6.27129">
        <ele>1208.7</ele>
        <time>2022-01-13T04:59:22Z</time>
      </trkpt>
      <trkpt lat="45.71161" lon="6.27129">
        <ele>1208.7</ele>
        <time>2022-01-13T04:59:23Z</time>
      </trkpt>
      <trkpt lat="45.7116" lon="6.27128">
        <ele>1208.7</ele>
        <time>2022-01-13T04:59:24Z</time>
      </trkpt>
      <trkpt lat="45.71159" lon="6.27128">
        <ele>1208.7</ele>
        <time>2022-01-13T04:59:25Z</time>
      </trkpt>
      <trkpt lat="45.71159" lon="6.27126">
        <ele>1208.7</ele>
        <time>2022-01-13T04:59:26Z</time>
      </trkpt>
      <trkpt lat="45.71157" lon="6.27126">
        <ele>1209.8</ele>
        <time>2022-01-13T04:59:27Z</time>
      </trkpt>
      <trkpt lat="45.71156" lon="6.27125">
        <ele>1209.8</ele>
        <time>2022-01-13T04:59:28Z</time>
      </trkpt>
      <trkpt lat="45.71155" lon="6.27125">
        <ele>1209.8</ele>
        <time>2022-01-13T04:59:29Z</time>
      </trkpt>
      <trkpt lat="45.71153" lon="6.27124">
        <ele>1209.8</ele>
        <time>2022-01-13T04:59:30Z</time>
      </trkpt>
      <trkpt lat="45.71152" lon="6.27123">
        <ele>1210.8</ele>
        <time>2022-01-13T04:59:31Z</time>
      </trkpt>
      <trkpt lat="45.71151" lon="6.27123">
        <ele>1210.8</ele>
        <time>2022-01-13T04:59:32Z</time>
      </trkpt>
      <trkpt lat="45.71151" lon="6.27122">
        <ele>1210.8</ele>
        <time>2022-01-13T04:59:33Z</time>
      </trkpt>
      <trkpt lat="45.7115" lon="6.27121">
        <ele>1210.8</ele>
        <time>2022-01-13T04:59:34Z</time>
      </trkpt>
      <trkpt lat="45.71149" lon="6.2712">
        <ele>1211.7</ele>
        <time>2022-01-13T04:59:35Z</time>
      </trkpt>
      <trkpt lat="45.71147" lon="6.2712">
        <ele>1211.7</ele>
        <time>2022-01-13T04:59:36Z</time>
      </trkpt>
      <trkpt lat="45.71145" lon="6.2712">
        <ele>1211.7</ele>
        <time>2022-01-13T04:59:37Z</time>
      </trkpt>
      <trkpt lat="45.71144" lon="6.2712">
        <ele>1211.7</ele>
        <time>2022-01-13T04:59:38Z</time>
      </trkpt>
      <trkpt lat="45.71143" lon="6.27119">
        <ele>1212.8</ele>
        <time>2022-01-13T04:59:39Z</time>
      </trkpt>
      <trkpt lat="45.71141" lon="6.27119">
        <ele>1212.8</ele>
        <time>2022-01-13T04:59:40Z</time>
      </trkpt>
      <trkpt lat="45.7114" lon="6.27119">
        <ele>1212.8</ele>
        <time>2022-01-13T04:59:41Z</time>
      </trkpt>
      <trkpt lat="45.71139" lon="6.27118">
        <ele>1212.8</ele>
        <time>2022-01-13T04:59:42Z</time>
      </trkpt>
      <trkpt lat="45.71138" lon="6.27118">
        <ele>1212.8</ele>
        <time>2022-01-13T04:59:43Z</time>
      </trkpt>
      <trkpt lat="45.71137" lon="6.27118">
        <ele>1212.8</ele>
        <time>2022-01-13T04:59:44Z</time>
      </trkpt>
      <trkpt lat="45.71135" lon="6.27117">
        <ele>1212.8</ele>
        <time>2022-01-13T04:59:45Z</time>
      </trkpt>
      <trkpt lat="45.71134" lon="6.27117">
        <ele>1212.8</ele>
        <time>2022-01-13T04:59:46Z</time>
      </trkpt>
      <trkpt lat="45.71133" lon="6.27117">
        <ele>1215.7</ele>
        <time>2022-01-13T04:59:47Z</time>
      </trkpt>
      <trkpt lat="45.71132" lon="6.27116">
        <ele>1215.7</ele>
        <time>2022-01-13T04:59:48Z</time>
      </trkpt>
      <trkpt lat="45.7113" lon="6.27116">
        <ele>1215.7</ele>
        <time>2022-01-13T04:59:49Z</time>
      </trkpt>
      <trkpt lat="45.71129" lon="6.27116">
        <ele>1215.7</ele>
        <time>2022-01-13T04:59:50Z</time>
      </trkpt>
      <trkpt lat="45.71128" lon="6.27116">
        <ele>1215.7</ele>
        <time>2022-01-13T04:59:51Z</time>
      </trkpt>
      <trkpt lat="45.71126" lon="6.27116">
        <ele>1215.7</ele>
        <time>2022-01-13T04:59:52Z</time>
      </trkpt>
      <trkpt lat="45.71125" lon="6.27115">
        <ele>1216.8</ele>
        <time>2022-01-13T04:59:53Z</time>
      </trkpt>
      <trkpt lat="45.71123" lon="6.27115">
        <ele>1216.8</ele>
        <time>2022-01-13T04:59:54Z</time>
      </trkpt>
      <trkpt lat="45.71122" lon="6.27114">
        <ele>1216.8</ele>
        <time>2022-01-13T04:59:55Z</time>
      </trkpt>
      <trkpt lat="45.71121" lon="6.27114">
        <ele>1216.8</ele>
        <time>2022-01-13T04:59:56Z</time>
      </trkpt>
      <trkpt lat="45.7112" lon="6.27114">
        <ele>1217.8</ele>
        <time>2022-01-13T04:59:57Z</time>
      </trkpt>
      <trkpt lat="45.71119" lon="6.27113">
        <ele>1217.8</ele>
        <time>2022-01-13T04:59:58Z</time>
      </trkpt>
      <trkpt lat="45.71118" lon="6.27113">
        <ele>1217.8</ele>
        <time>2022-01-13T04:59:59Z</time>
      </trkpt>
      <trkpt lat="45.71116" lon="6.27112">
        <ele>1217.8</ele>
        <time>2022-01-13T05:00:00Z</time>
      </trkpt>
      <trkpt lat="45.71114" lon="6.27111">
        <ele>1217.8</ele>
        <time>2022-01-13T05:00:01Z</time>
      </trkpt>
      <trkpt lat="45.71113" lon="6.2711">
        <ele>1217.8</ele>
        <time>2022-01-13T05:00:02Z</time>
      </trkpt>
      <trkpt lat="45.71112" lon="6.2711">
        <ele>1218.8</ele>
        <time>2022-01-13T05:00:03Z</time>
      </trkpt>
      <trkpt lat="45.71111" lon="6.27109">
        <ele>1218.8</ele>
        <time>2022-01-13T05:00:04Z</time>
      </trkpt>
      <trkpt lat="45.71109" lon="6.27109">
        <ele>1218.8</ele>
        <time>2022-01-13T05:00:05Z</time>
      </trkpt>
      <trkpt lat="45.71108" lon="6.27108">
        <ele>1218.8</ele>
        <time>2022-01-13T05:00:06Z</time>
      </trkpt>
      <trkpt lat="45.71106" lon="6.27107">
        <ele>1219.8</ele>
        <time>2022-01-13T05:00:07Z</time>
      </trkpt>
      <trkpt lat="45.71105" lon="6.27107">
        <ele>1219.8</ele>
        <time>2022-01-13T05:00:08Z</time>
      </trkpt>
      <trkpt lat="45.71103" lon="6.27106">
        <ele>1219.8</ele>
        <time>2022-01-13T05:00:09Z</time>
      </trkpt>
      <trkpt lat="45.71102" lon="6.27105">
        <ele>1219.8</ele>
        <time>2022-01-13T05:00:10Z</time>
      </trkpt>
      <trkpt lat="45.711" lon="6.27104">
        <ele>1220.7</ele>
        <time>2022-01-13T05:00:11Z</time>
      </trkpt>
      <trkpt lat="45.71099" lon="6.27103">
        <ele>1220.7</ele>
        <time>2022-01-13T05:00:12Z</time>
      </trkpt>
      <trkpt lat="45.71099" lon="6.27102">
        <ele>1220.7</ele>
        <time>2022-01-13T05:00:13Z</time>
      </trkpt>
      <trkpt lat="45.71098" lon="6.27101">
        <ele>1220.7</ele>
        <time>2022-01-13T05:00:14Z</time>
      </trkpt>
      <trkpt lat="45.71097" lon="6.271">
        <ele>1220.7</ele>
        <time>2022-01-13T05:00:15Z</time>
      </trkpt>
      <trkpt lat="45.71095" lon="6.27099">
        <ele>1220.7</ele>
        <time>2022-01-13T05:00:16Z</time>
      </trkpt>
      <trkpt lat="45.71094" lon="6.27098">
        <ele>1221.8</ele>
        <time>2022-01-13T05:00:17Z</time>
      </trkpt>
      <trkpt lat="45.71093" lon="6.27098">
        <ele>1221.8</ele>
        <time>2022-01-13T05:00:18Z</time>
      </trkpt>
      <trkpt lat="45.71091" lon="6.27097">
        <ele>1221.8</ele>
        <time>2022-01-13T05:00:19Z</time>
      </trkpt>
      <trkpt lat="45.71091" lon="6.27097">
        <ele>1221.8</ele>
        <time>2022-01-13T05:00:20Z</time>
      </trkpt>
      <trkpt lat="45.7109" lon="6.27096">
        <ele>1221.8</ele>
        <time>2022-01-13T05:00:21Z</time>
      </trkpt>
      <trkpt lat="45.71089" lon="6.27095">
        <ele>1221.8</ele>
        <time>2022-01-13T05:00:22Z</time>
      </trkpt>
      <trkpt lat="45.71088" lon="6.27094">
        <ele>1221.8</ele>
        <time>2022-01-13T05:00:23Z</time>
      </trkpt>
      <trkpt lat="45.71087" lon="6.27094">
        <ele>1221.8</ele>
        <time>2022-01-13T05:00:24Z</time>
      </trkpt>
      <trkpt lat="45.71085" lon="6.27093">
        <ele>1223.8</ele>
        <time>2022-01-13T05:00:25Z</time>
      </trkpt>
      <trkpt lat="45.71084" lon="6.27093">
        <ele>1223.8</ele>
        <time>2022-01-13T05:00:26Z</time>
      </trkpt>
      <trkpt lat="45.71082" lon="6.27092">
        <ele>1224.7</ele>
        <time>2022-01-13T05:00:27Z</time>
      </trkpt>
      <trkpt lat="45.71081" lon="6.27091">
        <ele>1224.7</ele>
        <time>2022-01-13T05:00:28Z</time>
      </trkpt>
      <trkpt lat="45.7108" lon="6.27091">
        <ele>1224.7</ele>
        <time>2022-01-13T05:00:29Z</time>
      </trkpt>
      <trkpt lat="45.71078" lon="6.2709">
        <ele>1224.7</ele>
        <time>2022-01-13T05:00:30Z</time>
      </trkpt>
      <trkpt lat="45.71077" lon="6.27089">
        <ele>1225.8</ele>
        <time>2022-01-13T05:00:31Z</time>
      </trkpt>
      <trkpt lat="45.71076" lon="6.27088">
        <ele>1225.8</ele>
        <time>2022-01-13T05:00:32Z</time>
      </trkpt>
      <trkpt lat="45.71075" lon="6.27087">
        <ele>1225.8</ele>
        <time>2022-01-13T05:00:33Z</time>
      </trkpt>
      <trkpt lat="45.71074" lon="6.27086">
        <ele>1225.8</ele>
        <time>2022-01-13T05:00:34Z</time>
      </trkpt>
      <trkpt lat="45.71072" lon="6.27085">
        <ele>1225.8</ele>
        <time>2022-01-13T05:00:35Z</time>
      </trkpt>
      <trkpt lat="45.71071" lon="6.27085">
        <ele>1225.8</ele>
        <time>2022-01-13T05:00:36Z</time>
      </trkpt>
      <trkpt lat="45.71069" lon="6.27084">
        <ele>1226.8</ele>
        <time>2022-01-13T05:00:37Z</time>
      </trkpt>
      <trkpt lat="45.71068" lon="6.27084">
        <ele>1226.8</ele>
        <time>2022-01-13T05:00:38Z</time>
      </trkpt>
      <trkpt lat="45.71067" lon="6.27083">
        <ele>1226.8</ele>
        <time>2022-01-13T05:00:39Z</time>
      </trkpt>
      <trkpt lat="45.71066" lon="6.27082">
        <ele>1226.8</ele>
        <time>2022-01-13T05:00:40Z</time>
      </trkpt>
      <trkpt lat="45.71064" lon="6.27082">
        <ele>1226.8</ele>
        <time>2022-01-13T05:00:41Z</time>
      </trkpt>
      <trkpt lat="45.71063" lon="6.27081">
        <ele>1226.8</ele>
        <time>2022-01-13T05:00:42Z</time>
      </trkpt>
      <trkpt lat="45.71062" lon="6.27081">
        <ele>1228.8</ele>
        <time>2022-01-13T05:00:43Z</time>
      </trkpt>
      <trkpt lat="45.7106" lon="6.2708">
        <ele>1228.8</ele>
        <time>2022-01-13T05:00:44Z</time>
      </trkpt>
      <trkpt lat="45.7106" lon="6.27079">
        <ele>1228.8</ele>
        <time>2022-01-13T05:00:45Z</time>
      </trkpt>
      <trkpt lat="45.71058" lon="6.27078">
        <ele>1228.8</ele>
        <time>2022-01-13T05:00:46Z</time>
      </trkpt>
      <trkpt lat="45.71056" lon="6.27078">
        <ele>1229.7</ele>
        <time>2022-01-13T05:00:47Z</time>
      </trkpt>
      <trkpt lat="45.71055" lon="6.27077">
        <ele>1229.7</ele>
        <time>2022-01-13T05:00:48Z</time>
      </trkpt>
      <trkpt lat="45.71054" lon="6.27077">
        <ele>1229.7</ele>
        <time>2022-01-13T05:00:49Z</time>
      </trkpt>
      <trkpt lat="45.71053" lon="6.27076">
        <ele>1229.7</ele>
        <time>2022-01-13T05:00:50Z</time>
      </trkpt>
      <trkpt lat="45.71052" lon="6.27075">
        <ele>1229.7</ele>
        <time>2022-01-13T05:00:51Z</time>
      </trkpt>
      <trkpt lat="45.7105" lon="6.27075">
        <ele>1229.7</ele>
        <time>2022-01-13T05:00:52Z</time>
      </trkpt>
      <trkpt lat="45.71048" lon="6.27074">
        <ele>1230.8</ele>
        <time>2022-01-13T05:00:53Z</time>
      </trkpt>
      <trkpt lat="45.71047" lon="6.27073">
        <ele>1230.8</ele>
        <time>2022-01-13T05:00:54Z</time>
      </trkpt>
      <trkpt lat="45.71046" lon="6.27073">
        <ele>1230.8</ele>
        <time>2022-01-13T05:00:55Z</time>
      </trkpt>
      <trkpt lat="45.71045" lon="6.27072">
        <ele>1230.8</ele>
        <time>2022-01-13T05:00:56Z</time>
      </trkpt>
      <trkpt lat="45.71043" lon="6.27071">
        <ele>1231.7</ele>
        <time>2022-01-13T05:00:57Z</time>
      </trkpt>
      <trkpt lat="45.71042" lon="6.2707">
        <ele>1231.7</ele>
        <time>2022-01-13T05:00:58Z</time>
      </trkpt>
      <trkpt lat="45.7104" lon="6.2707">
        <ele>1231.7</ele>
        <time>2022-01-13T05:00:59Z</time>
      </trkpt>
      <trkpt lat="45.71039" lon="6.27069">
        <ele>1231.7</ele>
        <time>2022-01-13T05:01:00Z</time>
      </trkpt>
      <trkpt lat="45.71038" lon="6.27068">
        <ele>1232.8</ele>
        <time>2022-01-13T05:01:01Z</time>
      </trkpt>
      <trkpt lat="45.71036" lon="6.27068">
        <ele>1232.8</ele>
        <time>2022-01-13T05:01:02Z</time>
      </trkpt>
      <trkpt lat="45.71035" lon="6.27067">
        <ele>1233.8</ele>
        <time>2022-01-13T05:01:03Z</time>
      </trkpt>
      <trkpt lat="45.71033" lon="6.27066">
        <ele>1233.8</ele>
        <time>2022-01-13T05:01:04Z</time>
      </trkpt>
      <trkpt lat="45.71032" lon="6.27065">
        <ele>1233.8</ele>
        <time>2022-01-13T05:01:05Z</time>
      </trkpt>
      <trkpt lat="45.71031" lon="6.27065">
        <ele>1233.8</ele>
        <time>2022-01-13T05:01:06Z</time>
      </trkpt>
      <trkpt lat="45.71029" lon="6.27064">
        <ele>1234.8</ele>
        <time>2022-01-13T05:01:07Z</time>
      </trkpt>
      <trkpt lat="45.71028" lon="6.27063">
        <ele>1234.8</ele>
        <time>2022-01-13T05:01:08Z</time>
      </trkpt>
      <trkpt lat="45.71028" lon="6.27062">
        <ele>1234.8</ele>
        <time>2022-01-13T05:01:09Z</time>
      </trkpt>
      <trkpt lat="45.71026" lon="6.27061">
        <ele>1234.8</ele>
        <time>2022-01-13T05:01:10Z</time>
      </trkpt>
      <trkpt lat="45.71025" lon="6.2706">
        <ele>1234.8</ele>
        <time>2022-01-13T05:01:11Z</time>
      </trkpt>
      <trkpt lat="45.71024" lon="6.2706">
        <ele>1234.8</ele>
        <time>2022-01-13T05:01:12Z</time>
      </trkpt>
      <trkpt lat="45.71023" lon="6.27058">
        <ele>1235.8</ele>
        <time>2022-01-13T05:01:13Z</time>
      </trkpt>
      <trkpt lat="45.71021" lon="6.27058">
        <ele>1235.8</ele>
        <time>2022-01-13T05:01:14Z</time>
      </trkpt>
      <trkpt lat="45.7102" lon="6.27057">
        <ele>1236.7</ele>
        <time>2022-01-13T05:01:15Z</time>
      </trkpt>
      <trkpt lat="45.71019" lon="6.27056">
        <ele>1236.7</ele>
        <time>2022-01-13T05:01:16Z</time>
      </trkpt>
      <trkpt lat="45.71018" lon="6.27055">
        <ele>1236.7</ele>
        <time>2022-01-13T05:01:17Z</time>
      </trkpt>
      <trkpt lat="45.71017" lon="6.27054">
        <ele>1236.7</ele>
        <time>2022-01-13T05:01:18Z</time>
      </trkpt>
      <trkpt lat="45.71016" lon="6.27053">
        <ele>1236.7</ele>
        <time>2022-01-13T05:01:19Z</time>
      </trkpt>
      <trkpt lat="45.71014" lon="6.27053">
        <ele>1236.7</ele>
        <time>2022-01-13T05:01:20Z</time>
      </trkpt>
      <trkpt lat="45.71013" lon="6.27052">
        <ele>1237.8</ele>
        <time>2022-01-13T05:01:21Z</time>
      </trkpt>
      <trkpt lat="45.71012" lon="6.27051">
        <ele>1237.8</ele>
        <time>2022-01-13T05:01:22Z</time>
      </trkpt>
      <trkpt lat="45.7101" lon="6.2705">
        <ele>1237.8</ele>
        <time>2022-01-13T05:01:23Z</time>
      </trkpt>
      <trkpt lat="45.71009" lon="6.27049">
        <ele>1237.8</ele>
        <time>2022-01-13T05:01:24Z</time>
      </trkpt>
      <trkpt lat="45.71008" lon="6.27048">
        <ele>1238.7</ele>
        <time>2022-01-13T05:01:25Z</time>
      </trkpt>
      <trkpt lat="45.71006" lon="6.27047">
        <ele>1238.7</ele>
        <time>2022-01-13T05:01:26Z</time>
      </trkpt>
      <trkpt lat="45.71005" lon="6.27046">
        <ele>1238.7</ele>
        <time>2022-01-13T05:01:27Z</time>
      </trkpt>
      <trkpt lat="45.71004" lon="6.27045">
        <ele>1238.7</ele>
        <time>2022-01-13T05:01:28Z</time>
      </trkpt>
      <trkpt lat="45.71003" lon="6.27044">
        <ele>1239.8</ele>
        <time>2022-01-13T05:01:29Z</time>
      </trkpt>
      <trkpt lat="45.71002" lon="6.27043">
        <ele>1239.8</ele>
        <time>2022-01-13T05:01:30Z</time>
      </trkpt>
      <trkpt lat="45.71001" lon="6.27042">
        <ele>1239.8</ele>
        <time>2022-01-13T05:01:31Z</time>
      </trkpt>
      <trkpt lat="45.71" lon="6.27042">
        <ele>1239.8</ele>
        <time>2022-01-13T05:01:32Z</time>
      </trkpt>
      <trkpt lat="45.70998" lon="6.27041">
        <ele>1240.7</ele>
        <time>2022-01-13T05:01:33Z</time>
      </trkpt>
      <trkpt lat="45.70998" lon="6.27039">
        <ele>1240.7</ele>
        <time>2022-01-13T05:01:34Z</time>
      </trkpt>
      <trkpt lat="45.70996" lon="6.27039">
        <ele>1240.7</ele>
        <time>2022-01-13T05:01:35Z</time>
      </trkpt>
      <trkpt lat="45.70995" lon="6.27038">
        <ele>1240.7</ele>
        <time>2022-01-13T05:01:36Z</time>
      </trkpt>
      <trkpt lat="45.70994" lon="6.27037">
        <ele>1240.7</ele>
        <time>2022-01-13T05:01:37Z</time>
      </trkpt>
      <trkpt lat="45.70992" lon="6.27038">
        <ele>1240.7</ele>
        <time>2022-01-13T05:01:38Z</time>
      </trkpt>
      <trkpt lat="45.70991" lon="6.27037">
        <ele>1240.7</ele>
        <time>2022-01-13T05:01:39Z</time>
      </trkpt>
      <trkpt lat="45.70989" lon="6.27037">
        <ele>1240.7</ele>
        <time>2022-01-13T05:01:40Z</time>
      </trkpt>
      <trkpt lat="45.70988" lon="6.27037">
        <ele>1240.7</ele>
        <time>2022-01-13T05:01:41Z</time>
      </trkpt>
      <trkpt lat="45.70986" lon="6.27035">
        <ele>1240.7</ele>
        <time>2022-01-13T05:01:42Z</time>
      </trkpt>
      <trkpt lat="45.70986" lon="6.27033">
        <ele>1240.7</ele>
        <time>2022-01-13T05:01:43Z</time>
      </trkpt>
      <trkpt lat="45.70985" lon="6.27032">
        <ele>1240.7</ele>
        <time>2022-01-13T05:01:44Z</time>
      </trkpt>
      <trkpt lat="45.70983" lon="6.27031">
        <ele>1242.8</ele>
        <time>2022-01-13T05:01:45Z</time>
      </trkpt>
      <trkpt lat="45.70982" lon="6.2703">
        <ele>1242.8</ele>
        <time>2022-01-13T05:01:46Z</time>
      </trkpt>
      <trkpt lat="45.7098" lon="6.27029">
        <ele>1243.8</ele>
        <time>2022-01-13T05:01:47Z</time>
      </trkpt>
      <trkpt lat="45.70979" lon="6.27029">
        <ele>1243.8</ele>
        <time>2022-01-13T05:01:48Z</time>
      </trkpt>
      <trkpt lat="45.70978" lon="6.27028">
        <ele>1244.8</ele>
        <time>2022-01-13T05:01:49Z</time>
      </trkpt>
      <trkpt lat="45.70977" lon="6.27026">
        <ele>1244.8</ele>
        <time>2022-01-13T05:01:50Z</time>
      </trkpt>
      <trkpt lat="45.70976" lon="6.27025">
        <ele>1244.8</ele>
        <time>2022-01-13T05:01:51Z</time>
      </trkpt>
      <trkpt lat="45.70975" lon="6.27024">
        <ele>1244.8</ele>
        <time>2022-01-13T05:01:52Z</time>
      </trkpt>
      <trkpt lat="45.70974" lon="6.27023">
        <ele>1245.7</ele>
        <time>2022-01-13T05:01:53Z</time>
      </trkpt>
      <trkpt lat="45.70972" lon="6.27023">
        <ele>1245.7</ele>
        <time>2022-01-13T05:01:54Z</time>
      </trkpt>
      <trkpt lat="45.7097" lon="6.27022">
        <ele>1245.7</ele>
        <time>2022-01-13T05:01:55Z</time>
      </trkpt>
      <trkpt lat="45.70969" lon="6.27021">
        <ele>1245.7</ele>
        <time>2022-01-13T05:01:56Z</time>
      </trkpt>
      <trkpt lat="45.70968" lon="6.2702">
        <ele>1246.8</ele>
        <time>2022-01-13T05:01:57Z</time>
      </trkpt>
      <trkpt lat="45.70967" lon="6.27019">
        <ele>1246.8</ele>
        <time>2022-01-13T05:01:58Z</time>
      </trkpt>
      <trkpt lat="45.70965" lon="6.27018">
        <ele>1247.7</ele>
        <time>2022-01-13T05:01:59Z</time>
      </trkpt>
      <trkpt lat="45.70964" lon="6.27016">
        <ele>1247.7</ele>
        <time>2022-01-13T05:02:00Z</time>
      </trkpt>
      <trkpt lat="45.70963" lon="6.27015">
        <ele>1247.7</ele>
        <time>2022-01-13T05:02:01Z</time>
      </trkpt>
      <trkpt lat="45.70962" lon="6.27014">
        <ele>1247.7</ele>
        <time>2022-01-13T05:02:02Z</time>
      </trkpt>
      <trkpt lat="45.7096" lon="6.27013">
        <ele>1247.7</ele>
        <time>2022-01-13T05:02:03Z</time>
      </trkpt>
      <trkpt lat="45.70959" lon="6.27012">
        <ele>1247.7</ele>
        <time>2022-01-13T05:02:04Z</time>
      </trkpt>
      <trkpt lat="45.70957" lon="6.27012">
        <ele>1248.8</ele>
        <time>2022-01-13T05:02:05Z</time>
      </trkpt>
      <trkpt lat="45.70956" lon="6.27011">
        <ele>1248.8</ele>
        <time>2022-01-13T05:02:06Z</time>
      </trkpt>
      <trkpt lat="45.70955" lon="6.2701">
        <ele>1248.8</ele>
        <time>2022-01-13T05:02:07Z</time>
      </trkpt>
      <trkpt lat="45.70953" lon="6.27009">
        <ele>1248.8</ele>
        <time>2022-01-13T05:02:08Z</time>
      </trkpt>
      <trkpt lat="45.70952" lon="6.27008">
        <ele>1248.8</ele>
        <time>2022-01-13T05:02:09Z</time>
      </trkpt>
      <trkpt lat="45.70951" lon="6.27007">
        <ele>1248.8</ele>
        <time>2022-01-13T05:02:10Z</time>
      </trkpt>
      <trkpt lat="45.7095" lon="6.27005">
        <ele>1248.8</ele>
        <time>2022-01-13T05:02:11Z</time>
      </trkpt>
      <trkpt lat="45.70949" lon="6.27004">
        <ele>1248.8</ele>
        <time>2022-01-13T05:02:12Z</time>
      </trkpt>
      <trkpt lat="45.70947" lon="6.27002">
        <ele>1248.8</ele>
        <time>2022-01-13T05:02:13Z</time>
      </trkpt>
      <trkpt lat="45.70946" lon="6.27001">
        <ele>1248.8</ele>
        <time>2022-01-13T05:02:14Z</time>
      </trkpt>
      <trkpt lat="45.70945" lon="6.27">
        <ele>1251.8</ele>
        <time>2022-01-13T05:02:15Z</time>
      </trkpt>
      <trkpt lat="45.70944" lon="6.27">
        <ele>1251.8</ele>
        <time>2022-01-13T05:02:16Z</time>
      </trkpt>
      <trkpt lat="45.70943" lon="6.26998">
        <ele>1251.8</ele>
        <time>2022-01-13T05:02:17Z</time>
      </trkpt>
      <trkpt lat="45.70942" lon="6.26997">
        <ele>1251.8</ele>
        <time>2022-01-13T05:02:18Z</time>
      </trkpt>
      <trkpt lat="45.70941" lon="6.26996">
        <ele>1251.8</ele>
        <time>2022-01-13T05:02:19Z</time>
      </trkpt>
      <trkpt lat="45.7094" lon="6.26995">
        <ele>1251.8</ele>
        <time>2022-01-13T05:02:20Z</time>
      </trkpt>
      <trkpt lat="45.70938" lon="6.26994">
        <ele>1251.8</ele>
        <time>2022-01-13T05:02:21Z</time>
      </trkpt>
      <trkpt lat="45.70937" lon="6.26993">
        <ele>1251.8</ele>
        <time>2022-01-13T05:02:22Z</time>
      </trkpt>
      <trkpt lat="45.70936" lon="6.26992">
        <ele>1251.8</ele>
        <time>2022-01-13T05:02:23Z</time>
      </trkpt>
      <trkpt lat="45.70935" lon="6.2699">
        <ele>1251.8</ele>
        <time>2022-01-13T05:02:24Z</time>
      </trkpt>
      <trkpt lat="45.70933" lon="6.26989">
        <ele>1252.7</ele>
        <time>2022-01-13T05:02:25Z</time>
      </trkpt>
      <trkpt lat="45.70932" lon="6.26988">
        <ele>1252.7</ele>
        <time>2022-01-13T05:02:26Z</time>
      </trkpt>
      <trkpt lat="45.70931" lon="6.26987">
        <ele>1252.7</ele>
        <time>2022-01-13T05:02:27Z</time>
      </trkpt>
      <trkpt lat="45.7093" lon="6.26986">
        <ele>1252.7</ele>
        <time>2022-01-13T05:02:28Z</time>
      </trkpt>
      <trkpt lat="45.70929" lon="6.26984">
        <ele>1253.8</ele>
        <time>2022-01-13T05:02:29Z</time>
      </trkpt>
      <trkpt lat="45.70928" lon="6.26983">
        <ele>1253.8</ele>
        <time>2022-01-13T05:02:30Z</time>
      </trkpt>
      <trkpt lat="45.70927" lon="6.26983">
        <ele>1253.8</ele>
        <time>2022-01-13T05:02:31Z</time>
      </trkpt>
      <trkpt lat="45.70925" lon="6.26982">
        <ele>1253.8</ele>
        <time>2022-01-13T05:02:32Z</time>
      </trkpt>
      <trkpt lat="45.70923" lon="6.26981">
        <ele>1253.8</ele>
        <time>2022-01-13T05:02:33Z</time>
      </trkpt>
      <trkpt lat="45.70921" lon="6.2698">
        <ele>1254.7</ele>
        <time>2022-01-13T05:02:34Z</time>
      </trkpt>
      <trkpt lat="45.7092" lon="6.26979">
        <ele>1254.7</ele>
        <time>2022-01-13T05:02:35Z</time>
      </trkpt>
      <trkpt lat="45.70919" lon="6.26978">
        <ele>1254.7</ele>
        <time>2022-01-13T05:02:36Z</time>
      </trkpt>
      <trkpt lat="45.70918" lon="6.26977">
        <ele>1254.7</ele>
        <time>2022-01-13T05:02:37Z</time>
      </trkpt>
      <trkpt lat="45.70916" lon="6.26976">
        <ele>1254.7</ele>
        <time>2022-01-13T05:02:38Z</time>
      </trkpt>
      <trkpt lat="45.70915" lon="6.26975">
        <ele>1254.7</ele>
        <time>2022-01-13T05:02:39Z</time>
      </trkpt>
      <trkpt lat="45.70913" lon="6.26973">
        <ele>1255.8</ele>
        <time>2022-01-13T05:02:40Z</time>
      </trkpt>
      <trkpt lat="45.70912" lon="6.26972">
        <ele>1255.8</ele>
        <time>2022-01-13T05:02:41Z</time>
      </trkpt>
      <trkpt lat="45.70911" lon="6.26971">
        <ele>1255.8</ele>
        <time>2022-01-13T05:02:42Z</time>
      </trkpt>
      <trkpt lat="45.7091" lon="6.2697">
        <ele>1255.8</ele>
        <time>2022-01-13T05:02:43Z</time>
      </trkpt>
      <trkpt lat="45.70908" lon="6.26969">
        <ele>1255.8</ele>
        <time>2022-01-13T05:02:44Z</time>
      </trkpt>
      <trkpt lat="45.70907" lon="6.26969">
        <ele>1255.8</ele>
        <time>2022-01-13T05:02:45Z</time>
      </trkpt>
      <trkpt lat="45.70906" lon="6.26968">
        <ele>1256.7</ele>
        <time>2022-01-13T05:02:46Z</time>
      </trkpt>
      <trkpt lat="45.70905" lon="6.26967">
        <ele>1256.7</ele>
        <time>2022-01-13T05:02:47Z</time>
      </trkpt>
      <trkpt lat="45.70903" lon="6.26966">
        <ele>1256.7</ele>
        <time>2022-01-13T05:02:48Z</time>
      </trkpt>
      <trkpt lat="45.70901" lon="6.26965">
        <ele>1256.7</ele>
        <time>2022-01-13T05:02:49Z</time>
      </trkpt>
      <trkpt lat="45.70901" lon="6.26964">
        <ele>1257.8</ele>
        <time>2022-01-13T05:02:50Z</time>
      </trkpt>
      <trkpt lat="45.70899" lon="6.26963">
        <ele>1257.8</ele>
        <time>2022-01-13T05:02:51Z</time>
      </trkpt>
      <trkpt lat="45.70898" lon="6.26963">
        <ele>1257.8</ele>
        <time>2022-01-13T05:02:52Z</time>
      </trkpt>
      <trkpt lat="45.70897" lon="6.26962">
        <ele>1257.8</ele>
        <time>2022-01-13T05:02:53Z</time>
      </trkpt>
      <trkpt lat="45.70896" lon="6.26962">
        <ele>1257.8</ele>
        <time>2022-01-13T05:02:54Z</time>
      </trkpt>
      <trkpt lat="45.70895" lon="6.26961">
        <ele>1257.8</ele>
        <time>2022-01-13T05:02:55Z</time>
      </trkpt>
      <trkpt lat="45.70893" lon="6.26961">
        <ele>1257.8</ele>
        <time>2022-01-13T05:02:56Z</time>
      </trkpt>
      <trkpt lat="45.70892" lon="6.2696">
        <ele>1257.8</ele>
        <time>2022-01-13T05:02:57Z</time>
      </trkpt>
      <trkpt lat="45.7089" lon="6.26959">
        <ele>1258.8</ele>
        <time>2022-01-13T05:02:58Z</time>
      </trkpt>
      <trkpt lat="45.70889" lon="6.26958">
        <ele>1258.8</ele>
        <time>2022-01-13T05:02:59Z</time>
      </trkpt>
      <trkpt lat="45.70889" lon="6.26957">
        <ele>1258.8</ele>
        <time>2022-01-13T05:03:00Z</time>
      </trkpt>
      <trkpt lat="45.70888" lon="6.26956">
        <ele>1258.8</ele>
        <time>2022-01-13T05:03:01Z</time>
      </trkpt>
      <trkpt lat="45.70887" lon="6.26956">
        <ele>1258.8</ele>
        <time>2022-01-13T05:03:02Z</time>
      </trkpt>
      <trkpt lat="45.70885" lon="6.26956">
        <ele>1258.8</ele>
        <time>2022-01-13T05:03:03Z</time>
      </trkpt>
      <trkpt lat="45.70883" lon="6.26955">
        <ele>1258.8</ele>
        <time>2022-01-13T05:03:04Z</time>
      </trkpt>
      <trkpt lat="45.70881" lon="6.26954">
        <ele>1258.8</ele>
        <time>2022-01-13T05:03:05Z</time>
      </trkpt>
      <trkpt lat="45.70879" lon="6.26953">
        <ele>1258.8</ele>
        <time>2022-01-13T05:03:06Z</time>
      </trkpt>
      <trkpt lat="45.70877" lon="6.26953">
        <ele>1258.8</ele>
        <time>2022-01-13T05:03:07Z</time>
      </trkpt>
      <trkpt lat="45.70875" lon="6.26953">
        <ele>1258.8</ele>
        <time>2022-01-13T05:03:08Z</time>
      </trkpt>
      <trkpt lat="45.70873" lon="6.26952">
        <ele>1258.8</ele>
        <time>2022-01-13T05:03:09Z</time>
      </trkpt>
      <trkpt lat="45.7087" lon="6.26952">
        <ele>1258.8</ele>
        <time>2022-01-13T05:03:10Z</time>
      </trkpt>
      <trkpt lat="45.70869" lon="6.26952">
        <ele>1258.8</ele>
        <time>2022-01-13T05:03:11Z</time>
      </trkpt>
      <trkpt lat="45.70867" lon="6.26952">
        <ele>1258.8</ele>
        <time>2022-01-13T05:03:12Z</time>
      </trkpt>
      <trkpt lat="45.70865" lon="6.26952">
        <ele>1258.8</ele>
        <time>2022-01-13T05:03:13Z</time>
      </trkpt>
      <trkpt lat="45.70864" lon="6.26952">
        <ele>1258.8</ele>
        <time>2022-01-13T05:03:14Z</time>
      </trkpt>
      <trkpt lat="45.70863" lon="6.26951">
        <ele>1258.8</ele>
        <time>2022-01-13T05:03:15Z</time>
      </trkpt>
      <trkpt lat="45.70862" lon="6.26951">
        <ele>1260.8</ele>
        <time>2022-01-13T05:03:16Z</time>
      </trkpt>
      <trkpt lat="45.7086" lon="6.2695">
        <ele>1260.8</ele>
        <time>2022-01-13T05:03:17Z</time>
      </trkpt>
      <trkpt lat="45.70858" lon="6.26951">
        <ele>1261.7</ele>
        <time>2022-01-13T05:03:18Z</time>
      </trkpt>
      <trkpt lat="45.70856" lon="6.26951">
        <ele>1261.7</ele>
        <time>2022-01-13T05:03:19Z</time>
      </trkpt>
      <trkpt lat="45.70854" lon="6.26951">
        <ele>1261.7</ele>
        <time>2022-01-13T05:03:20Z</time>
      </trkpt>
      <trkpt lat="45.70852" lon="6.2695">
        <ele>1261.7</ele>
        <time>2022-01-13T05:03:21Z</time>
      </trkpt>
      <trkpt lat="45.70851" lon="6.2695">
        <ele>1261.7</ele>
        <time>2022-01-13T05:03:22Z</time>
      </trkpt>
      <trkpt lat="45.70848" lon="6.2695">
        <ele>1261.7</ele>
        <time>2022-01-13T05:03:23Z</time>
      </trkpt>
      <trkpt lat="45.70846" lon="6.26949">
        <ele>1261.7</ele>
        <time>2022-01-13T05:03:24Z</time>
      </trkpt>
      <trkpt lat="45.70845" lon="6.26948">
        <ele>1261.7</ele>
        <time>2022-01-13T05:03:25Z</time>
      </trkpt>
      <trkpt lat="45.70843" lon="6.26948">
        <ele>1262.8</ele>
        <time>2022-01-13T05:03:26Z</time>
      </trkpt>
      <trkpt lat="45.70841" lon="6.26947">
        <ele>1262.8</ele>
        <time>2022-01-13T05:03:27Z</time>
      </trkpt>
      <trkpt lat="45.7084" lon="6.26946">
        <ele>1262.8</ele>
        <time>2022-01-13T05:03:28Z</time>
      </trkpt>
      <trkpt lat="45.70839" lon="6.26945">
        <ele>1262.8</ele>
        <time>2022-01-13T05:03:29Z</time>
      </trkpt>
      <trkpt lat="45.70838" lon="6.26944">
        <ele>1262.8</ele>
        <time>2022-01-13T05:03:30Z</time>
      </trkpt>
      <trkpt lat="45.70836" lon="6.26943">
        <ele>1262.8</ele>
        <time>2022-01-13T05:03:31Z</time>
      </trkpt>
      <trkpt lat="45.70834" lon="6.26942">
        <ele>1263.7</ele>
        <time>2022-01-13T05:03:32Z</time>
      </trkpt>
      <trkpt lat="45.70833" lon="6.26941">
        <ele>1263.7</ele>
        <time>2022-01-13T05:03:33Z</time>
      </trkpt>
      <trkpt lat="45.70831" lon="6.2694">
        <ele>1263.7</ele>
        <time>2022-01-13T05:03:34Z</time>
      </trkpt>
      <trkpt lat="45.7083" lon="6.26938">
        <ele>1263.7</ele>
        <time>2022-01-13T05:03:35Z</time>
      </trkpt>
      <trkpt lat="45.70829" lon="6.26937">
        <ele>1264.8</ele>
        <time>2022-01-13T05:03:36Z</time>
      </trkpt>
      <trkpt lat="45.70828" lon="6.26935">
        <ele>1264.8</ele>
        <time>2022-01-13T05:03:37Z</time>
      </trkpt>
      <trkpt lat="45.70827" lon="6.26933">
        <ele>1264.8</ele>
        <time>2022-01-13T05:03:38Z</time>
      </trkpt>
      <trkpt lat="45.70826" lon="6.26931">
        <ele>1264.8</ele>
        <time>2022-01-13T05:03:39Z</time>
      </trkpt>
      <trkpt lat="45.70826" lon="6.26929">
        <ele>1265.7</ele>
        <time>2022-01-13T05:03:40Z</time>
      </trkpt>
      <trkpt lat="45.70825" lon="6.26929">
        <ele>1265.7</ele>
        <time>2022-01-13T05:03:41Z</time>
      </trkpt>
      <trkpt lat="45.70824" lon="6.26928">
        <ele>1265.7</ele>
        <time>2022-01-13T05:03:42Z</time>
      </trkpt>
      <trkpt lat="45.70823" lon="6.26926">
        <ele>1265.7</ele>
        <time>2022-01-13T05:03:43Z</time>
      </trkpt>
      <trkpt lat="45.70821" lon="6.26925">
        <ele>1265.7</ele>
        <time>2022-01-13T05:03:44Z</time>
      </trkpt>
      <trkpt lat="45.7082" lon="6.26923">
        <ele>1265.7</ele>
        <time>2022-01-13T05:03:45Z</time>
      </trkpt>
      <trkpt lat="45.70818" lon="6.26922">
        <ele>1266.8</ele>
        <time>2022-01-13T05:03:46Z</time>
      </trkpt>
      <trkpt lat="45.70818" lon="6.26921">
        <ele>1266.8</ele>
        <time>2022-01-13T05:03:47Z</time>
      </trkpt>
      <trkpt lat="45.70817" lon="6.2692">
        <ele>1266.8</ele>
        <time>2022-01-13T05:03:48Z</time>
      </trkpt>
      <trkpt lat="45.70816" lon="6.26918">
        <ele>1266.8</ele>
        <time>2022-01-13T05:03:49Z</time>
      </trkpt>
      <trkpt lat="45.70814" lon="6.26918">
        <ele>1266.8</ele>
        <time>2022-01-13T05:03:50Z</time>
      </trkpt>
      <trkpt lat="45.70813" lon="6.26916">
        <ele>1266.8</ele>
        <time>2022-01-13T05:03:51Z</time>
      </trkpt>
      <trkpt lat="45.70812" lon="6.26915">
        <ele>1266.8</ele>
        <time>2022-01-13T05:03:52Z</time>
      </trkpt>
      <trkpt lat="45.70811" lon="6.26914">
        <ele>1266.8</ele>
        <time>2022-01-13T05:03:53Z</time>
      </trkpt>
      <trkpt lat="45.7081" lon="6.26913">
        <ele>1267.8</ele>
        <time>2022-01-13T05:03:54Z</time>
      </trkpt>
      <trkpt lat="45.70808" lon="6.26911">
        <ele>1267.8</ele>
        <time>2022-01-13T05:03:55Z</time>
      </trkpt>
      <trkpt lat="45.70808" lon="6.2691">
        <ele>1268.7</ele>
        <time>2022-01-13T05:03:56Z</time>
      </trkpt>
      <trkpt lat="45.70807" lon="6.26909">
        <ele>1268.7</ele>
        <time>2022-01-13T05:03:57Z</time>
      </trkpt>
      <trkpt lat="45.70806" lon="6.26907">
        <ele>1268.7</ele>
        <time>2022-01-13T05:03:58Z</time>
      </trkpt>
      <trkpt lat="45.70805" lon="6.26905">
        <ele>1268.7</ele>
        <time>2022-01-13T05:03:59Z</time>
      </trkpt>
      <trkpt lat="45.70804" lon="6.26904">
        <ele>1268.7</ele>
        <time>2022-01-13T05:04:00Z</time>
      </trkpt>
      <trkpt lat="45.70803" lon="6.26902">
        <ele>1268.7</ele>
        <time>2022-01-13T05:04:01Z</time>
      </trkpt>
      <trkpt lat="45.70802" lon="6.26901">
        <ele>1269.8</ele>
        <time>2022-01-13T05:04:02Z</time>
      </trkpt>
      <trkpt lat="45.70801" lon="6.269">
        <ele>1269.8</ele>
        <time>2022-01-13T05:04:03Z</time>
      </trkpt>
      <trkpt lat="45.708" lon="6.26899">
        <ele>1269.8</ele>
        <time>2022-01-13T05:04:04Z</time>
      </trkpt>
      <trkpt lat="45.70799" lon="6.26897">
        <ele>1269.8</ele>
        <time>2022-01-13T05:04:05Z</time>
      </trkpt>
      <trkpt lat="45.70798" lon="6.26896">
        <ele>1270.7</ele>
        <time>2022-01-13T05:04:06Z</time>
      </trkpt>
      <trkpt lat="45.70797" lon="6.26895">
        <ele>1270.7</ele>
        <time>2022-01-13T05:04:07Z</time>
      </trkpt>
      <trkpt lat="45.70796" lon="6.26894">
        <ele>1271.8</ele>
        <time>2022-01-13T05:04:08Z</time>
      </trkpt>
      <trkpt lat="45.70794" lon="6.26893">
        <ele>1271.8</ele>
        <time>2022-01-13T05:04:09Z</time>
      </trkpt>
      <trkpt lat="45.70793" lon="6.26892">
        <ele>1271.8</ele>
        <time>2022-01-13T05:04:10Z</time>
      </trkpt>
      <trkpt lat="45.70792" lon="6.26891">
        <ele>1271.8</ele>
        <time>2022-01-13T05:04:11Z</time>
      </trkpt>
      <trkpt lat="45.70791" lon="6.26889">
        <ele>1271.8</ele>
        <time>2022-01-13T05:04:12Z</time>
      </trkpt>
      <trkpt lat="45.7079" lon="6.26888">
        <ele>1271.8</ele>
        <time>2022-01-13T05:04:13Z</time>
      </trkpt>
      <trkpt lat="45.70789" lon="6.26887">
        <ele>1271.8</ele>
        <time>2022-01-13T05:04:14Z</time>
      </trkpt>
      <trkpt lat="45.70788" lon="6.26886">
        <ele>1271.8</ele>
        <time>2022-01-13T05:04:15Z</time>
      </trkpt>
      <trkpt lat="45.70786" lon="6.26884">
        <ele>1272.7</ele>
        <time>2022-01-13T05:04:16Z</time>
      </trkpt>
      <trkpt lat="45.70785" lon="6.26883">
        <ele>1272.7</ele>
        <time>2022-01-13T05:04:17Z</time>
      </trkpt>
      <trkpt lat="45.70784" lon="6.26882">
        <ele>1272.7</ele>
        <time>2022-01-13T05:04:18Z</time>
      </trkpt>
      <trkpt lat="45.70783" lon="6.26881">
        <ele>1272.7</ele>
        <time>2022-01-13T05:04:19Z</time>
      </trkpt>
      <trkpt lat="45.70782" lon="6.26879">
        <ele>1273.8</ele>
        <time>2022-01-13T05:04:20Z</time>
      </trkpt>
      <trkpt lat="45.7078" lon="6.26877">
        <ele>1273.8</ele>
        <time>2022-01-13T05:04:21Z</time>
      </trkpt>
      <trkpt lat="45.70779" lon="6.26876">
        <ele>1273.8</ele>
        <time>2022-01-13T05:04:22Z</time>
      </trkpt>
      <trkpt lat="45.70779" lon="6.26874">
        <ele>1273.8</ele>
        <time>2022-01-13T05:04:23Z</time>
      </trkpt>
      <trkpt lat="45.70778" lon="6.26873">
        <ele>1273.8</ele>
        <time>2022-01-13T05:04:24Z</time>
      </trkpt>
      <trkpt lat="45.70777" lon="6.26872">
        <ele>1273.8</ele>
        <time>2022-01-13T05:04:25Z</time>
      </trkpt>
      <trkpt lat="45.70776" lon="6.2687">
        <ele>1273.8</ele>
        <time>2022-01-13T05:04:26Z</time>
      </trkpt>
      <trkpt lat="45.70775" lon="6.26868">
        <ele>1273.8</ele>
        <time>2022-01-13T05:04:27Z</time>
      </trkpt>
      <trkpt lat="45.70775" lon="6.26867">
        <ele>1274.8</ele>
        <time>2022-01-13T05:04:28Z</time>
      </trkpt>
      <trkpt lat="45.70775" lon="6.26865">
        <ele>1274.8</ele>
        <time>2022-01-13T05:04:29Z</time>
      </trkpt>
      <trkpt lat="45.70775" lon="6.26863">
        <ele>1274.8</ele>
        <time>2022-01-13T05:04:30Z</time>
      </trkpt>
      <trkpt lat="45.70774" lon="6.26861">
        <ele>1274.8</ele>
        <time>2022-01-13T05:04:31Z</time>
      </trkpt>
      <trkpt lat="45.70774" lon="6.26859">
        <ele>1274.8</ele>
        <time>2022-01-13T05:04:32Z</time>
      </trkpt>
      <trkpt lat="45.70774" lon="6.26857">
        <ele>1274.8</ele>
        <time>2022-01-13T05:04:33Z</time>
      </trkpt>
      <trkpt lat="45.70773" lon="6.26855">
        <ele>1275.8</ele>
        <time>2022-01-13T05:04:34Z</time>
      </trkpt>
      <trkpt lat="45.70772" lon="6.26853">
        <ele>1275.8</ele>
        <time>2022-01-13T05:04:35Z</time>
      </trkpt>
      <trkpt lat="45.70772" lon="6.26852">
        <ele>1275.8</ele>
        <time>2022-01-13T05:04:36Z</time>
      </trkpt>
      <trkpt lat="45.70771" lon="6.2685">
        <ele>1275.8</ele>
        <time>2022-01-13T05:04:37Z</time>
      </trkpt>
      <trkpt lat="45.7077" lon="6.26848">
        <ele>1276.8</ele>
        <time>2022-01-13T05:04:38Z</time>
      </trkpt>
      <trkpt lat="45.70769" lon="6.26846">
        <ele>1276.8</ele>
        <time>2022-01-13T05:04:39Z</time>
      </trkpt>
      <trkpt lat="45.70768" lon="6.26845">
        <ele>1276.8</ele>
        <time>2022-01-13T05:04:40Z</time>
      </trkpt>
      <trkpt lat="45.70766" lon="6.26843">
        <ele>1276.8</ele>
        <time>2022-01-13T05:04:41Z</time>
      </trkpt>
      <trkpt lat="45.70765" lon="6.26842">
        <ele>1276.8</ele>
        <time>2022-01-13T05:04:42Z</time>
      </trkpt>
      <trkpt lat="45.70764" lon="6.2684">
        <ele>1276.8</ele>
        <time>2022-01-13T05:04:43Z</time>
      </trkpt>
      <trkpt lat="45.70763" lon="6.26839">
        <ele>1276.8</ele>
        <time>2022-01-13T05:04:44Z</time>
      </trkpt>
      <trkpt lat="45.70762" lon="6.26837">
        <ele>1276.8</ele>
        <time>2022-01-13T05:04:45Z</time>
      </trkpt>
      <trkpt lat="45.70761" lon="6.26836">
        <ele>1276.8</ele>
        <time>2022-01-13T05:04:46Z</time>
      </trkpt>
      <trkpt lat="45.7076" lon="6.26835">
        <ele>1276.8</ele>
        <time>2022-01-13T05:04:47Z</time>
      </trkpt>
      <trkpt lat="45.70759" lon="6.26833">
        <ele>1276.8</ele>
        <time>2022-01-13T05:04:48Z</time>
      </trkpt>
      <trkpt lat="45.70758" lon="6.2683">
        <ele>1276.8</ele>
        <time>2022-01-13T05:04:49Z</time>
      </trkpt>
      <trkpt lat="45.70757" lon="6.26829">
        <ele>1276.8</ele>
        <time>2022-01-13T05:04:50Z</time>
      </trkpt>
      <trkpt lat="45.70756" lon="6.26827">
        <ele>1276.8</ele>
        <time>2022-01-13T05:04:51Z</time>
      </trkpt>
      <trkpt lat="45.70755" lon="6.26825">
        <ele>1276.8</ele>
        <time>2022-01-13T05:04:52Z</time>
      </trkpt>
      <trkpt lat="45.70754" lon="6.26823">
        <ele>1276.8</ele>
        <time>2022-01-13T05:04:53Z</time>
      </trkpt>
      <trkpt lat="45.70753" lon="6.26821">
        <ele>1275.8</ele>
        <time>2022-01-13T05:04:54Z</time>
      </trkpt>
      <trkpt lat="45.70752" lon="6.26819">
        <ele>1275.8</ele>
        <time>2022-01-13T05:04:55Z</time>
      </trkpt>
      <trkpt lat="45.70752" lon="6.26817">
        <ele>1275.8</ele>
        <time>2022-01-13T05:04:56Z</time>
      </trkpt>
      <trkpt lat="45.70751" lon="6.26815">
        <ele>1275.8</ele>
        <time>2022-01-13T05:04:57Z</time>
      </trkpt>
      <trkpt lat="45.7075" lon="6.26812">
        <ele>1275.8</ele>
        <time>2022-01-13T05:04:58Z</time>
      </trkpt>
      <trkpt lat="45.7075" lon="6.2681">
        <ele>1275.8</ele>
        <time>2022-01-13T05:04:59Z</time>
      </trkpt>
      <trkpt lat="45.70749" lon="6.26809">
        <ele>1275.8</ele>
        <time>2022-01-13T05:05:00Z</time>
      </trkpt>
      <trkpt lat="45.70748" lon="6.26808">
        <ele>1275.8</ele>
        <time>2022-01-13T05:05:01Z</time>
      </trkpt>
      <trkpt lat="45.70747" lon="6.26806">
        <ele>1275.8</ele>
        <time>2022-01-13T05:05:02Z</time>
      </trkpt>
      <trkpt lat="45.70746" lon="6.26805">
        <ele>1275.8</ele>
        <time>2022-01-13T05:05:03Z</time>
      </trkpt>
      <trkpt lat="45.70745" lon="6.26802">
        <ele>1276.8</ele>
        <time>2022-01-13T05:05:04Z</time>
      </trkpt>
      <trkpt lat="45.70744" lon="6.26801">
        <ele>1276.8</ele>
        <time>2022-01-13T05:05:05Z</time>
      </trkpt>
      <trkpt lat="45.70744" lon="6.268">
        <ele>1276.8</ele>
        <time>2022-01-13T05:05:06Z</time>
      </trkpt>
      <trkpt lat="45.70742" lon="6.26798">
        <ele>1276.8</ele>
        <time>2022-01-13T05:05:07Z</time>
      </trkpt>
      <trkpt lat="45.70742" lon="6.26796">
        <ele>1276.8</ele>
        <time>2022-01-13T05:05:08Z</time>
      </trkpt>
      <trkpt lat="45.70741" lon="6.26795">
        <ele>1276.8</ele>
        <time>2022-01-13T05:05:09Z</time>
      </trkpt>
      <trkpt lat="45.70741" lon="6.26793">
        <ele>1276.8</ele>
        <time>2022-01-13T05:05:10Z</time>
      </trkpt>
      <trkpt lat="45.7074" lon="6.26791">
        <ele>1276.8</ele>
        <time>2022-01-13T05:05:11Z</time>
      </trkpt>
      <trkpt lat="45.7074" lon="6.26789">
        <ele>1276.8</ele>
        <time>2022-01-13T05:05:12Z</time>
      </trkpt>
      <trkpt lat="45.70739" lon="6.26787">
        <ele>1276.8</ele>
        <time>2022-01-13T05:05:13Z</time>
      </trkpt>
      <trkpt lat="45.70739" lon="6.26785">
        <ele>1276.8</ele>
        <time>2022-01-13T05:05:14Z</time>
      </trkpt>
      <trkpt lat="45.70738" lon="6.26783">
        <ele>1276.8</ele>
        <time>2022-01-13T05:05:15Z</time>
      </trkpt>
      <trkpt lat="45.70737" lon="6.26782">
        <ele>1276.8</ele>
        <time>2022-01-13T05:05:16Z</time>
      </trkpt>
      <trkpt lat="45.70736" lon="6.2678">
        <ele>1276.8</ele>
        <time>2022-01-13T05:05:17Z</time>
      </trkpt>
      <trkpt lat="45.70736" lon="6.26779">
        <ele>1277.7</ele>
        <time>2022-01-13T05:05:18Z</time>
      </trkpt>
      <trkpt lat="45.70735" lon="6.26777">
        <ele>1277.7</ele>
        <time>2022-01-13T05:05:19Z</time>
      </trkpt>
      <trkpt lat="45.70734" lon="6.26775">
        <ele>1277.7</ele>
        <time>2022-01-13T05:05:20Z</time>
      </trkpt>
      <trkpt lat="45.70734" lon="6.26773">
        <ele>1277.7</ele>
        <time>2022-01-13T05:05:21Z</time>
      </trkpt>
      <trkpt lat="45.70733" lon="6.26772">
        <ele>1277.7</ele>
        <time>2022-01-13T05:05:22Z</time>
      </trkpt>
      <trkpt lat="45.70732" lon="6.2677">
        <ele>1277.7</ele>
        <time>2022-01-13T05:05:23Z</time>
      </trkpt>
      <trkpt lat="45.70731" lon="6.26769">
        <ele>1277.7</ele>
        <time>2022-01-13T05:05:24Z</time>
      </trkpt>
      <trkpt lat="45.70729" lon="6.26767">
        <ele>1277.7</ele>
        <time>2022-01-13T05:05:25Z</time>
      </trkpt>
      <trkpt lat="45.70728" lon="6.26767">
        <ele>1277.7</ele>
        <time>2022-01-13T05:05:26Z</time>
      </trkpt>
      <trkpt lat="45.70727" lon="6.26765">
        <ele>1277.7</ele>
        <time>2022-01-13T05:05:27Z</time>
      </trkpt>
      <trkpt lat="45.70726" lon="6.26765">
        <ele>1277.7</ele>
        <time>2022-01-13T05:05:28Z</time>
      </trkpt>
      <trkpt lat="45.70725" lon="6.26764">
        <ele>1277.7</ele>
        <time>2022-01-13T05:05:29Z</time>
      </trkpt>
      <trkpt lat="45.70724" lon="6.26763">
        <ele>1278.8</ele>
        <time>2022-01-13T05:05:30Z</time>
      </trkpt>
      <trkpt lat="45.70722" lon="6.26763">
        <ele>1278.8</ele>
        <time>2022-01-13T05:05:31Z</time>
      </trkpt>
      <trkpt lat="45.70721" lon="6.26762">
        <ele>1279.7</ele>
        <time>2022-01-13T05:05:32Z</time>
      </trkpt>
      <trkpt lat="45.7072" lon="6.26761">
        <ele>1279.7</ele>
        <time>2022-01-13T05:05:33Z</time>
      </trkpt>
      <trkpt lat="45.70719" lon="6.26759">
        <ele>1279.7</ele>
        <time>2022-01-13T05:05:34Z</time>
      </trkpt>
      <trkpt lat="45.70717" lon="6.26758">
        <ele>1279.7</ele>
        <time>2022-01-13T05:05:35Z</time>
      </trkpt>
      <trkpt lat="45.70716" lon="6.26757">
        <ele>1280.8</ele>
        <time>2022-01-13T05:05:36Z</time>
      </trkpt>
      <trkpt lat="45.70715" lon="6.26756">
        <ele>1280.8</ele>
        <time>2022-01-13T05:05:37Z</time>
      </trkpt>
      <trkpt lat="45.70714" lon="6.26754">
        <ele>1280.8</ele>
        <time>2022-01-13T05:05:38Z</time>
      </trkpt>
      <trkpt lat="45.70713" lon="6.26753">
        <ele>1280.8</ele>
        <time>2022-01-13T05:05:39Z</time>
      </trkpt>
      <trkpt lat="45.70712" lon="6.26752">
        <ele>1280.8</ele>
        <time>2022-01-13T05:05:40Z</time>
      </trkpt>
      <trkpt lat="45.7071" lon="6.26751">
        <ele>1280.8</ele>
        <time>2022-01-13T05:05:41Z</time>
      </trkpt>
      <trkpt lat="45.70709" lon="6.2675">
        <ele>1280.8</ele>
        <time>2022-01-13T05:05:42Z</time>
      </trkpt>
      <trkpt lat="45.70708" lon="6.26749">
        <ele>1280.8</ele>
        <time>2022-01-13T05:05:43Z</time>
      </trkpt>
      <trkpt lat="45.70707" lon="6.26748">
        <ele>1280.8</ele>
        <time>2022-01-13T05:05:44Z</time>
      </trkpt>
      <trkpt lat="45.70706" lon="6.26747">
        <ele>1280.8</ele>
        <time>2022-01-13T05:05:45Z</time>
      </trkpt>
      <trkpt lat="45.70705" lon="6.26746">
        <ele>1279.7</ele>
        <time>2022-01-13T05:05:46Z</time>
      </trkpt>
      <trkpt lat="45.70703" lon="6.26745">
        <ele>1279.7</ele>
        <time>2022-01-13T05:05:47Z</time>
      </trkpt>
      <trkpt lat="45.70702" lon="6.26744">
        <ele>1279.7</ele>
        <time>2022-01-13T05:05:48Z</time>
      </trkpt>
      <trkpt lat="45.70701" lon="6.26743">
        <ele>1279.7</ele>
        <time>2022-01-13T05:05:49Z</time>
      </trkpt>
      <trkpt lat="45.707" lon="6.26742">
        <ele>1278.8</ele>
        <time>2022-01-13T05:05:50Z</time>
      </trkpt>
      <trkpt lat="45.70699" lon="6.26741">
        <ele>1278.8</ele>
        <time>2022-01-13T05:05:51Z</time>
      </trkpt>
      <trkpt lat="45.70697" lon="6.2674">
        <ele>1278.8</ele>
        <time>2022-01-13T05:05:52Z</time>
      </trkpt>
      <trkpt lat="45.70696" lon="6.26739">
        <ele>1278.8</ele>
        <time>2022-01-13T05:05:53Z</time>
      </trkpt>
      <trkpt lat="45.70695" lon="6.26738">
        <ele>1277.7</ele>
        <time>2022-01-13T05:05:54Z</time>
      </trkpt>
      <trkpt lat="45.70694" lon="6.26737">
        <ele>1277.7</ele>
        <time>2022-01-13T05:05:55Z</time>
      </trkpt>
      <trkpt lat="45.70693" lon="6.26735">
        <ele>1277.7</ele>
        <time>2022-01-13T05:05:56Z</time>
      </trkpt>
      <trkpt lat="45.70692" lon="6.26734">
        <ele>1277.7</ele>
        <time>2022-01-13T05:05:57Z</time>
      </trkpt>
      <trkpt lat="45.70691" lon="6.26733">
        <ele>1276.8</ele>
        <time>2022-01-13T05:05:58Z</time>
      </trkpt>
      <trkpt lat="45.70689" lon="6.26732">
        <ele>1276.8</ele>
        <time>2022-01-13T05:05:59Z</time>
      </trkpt>
      <trkpt lat="45.70689" lon="6.2673">
        <ele>1276.8</ele>
        <time>2022-01-13T05:06:00Z</time>
      </trkpt>
      <trkpt lat="45.70687" lon="6.26729">
        <ele>1276.8</ele>
        <time>2022-01-13T05:06:01Z</time>
      </trkpt>
      <trkpt lat="45.70686" lon="6.26728">
        <ele>1276.8</ele>
        <time>2022-01-13T05:06:02Z</time>
      </trkpt>
      <trkpt lat="45.70685" lon="6.26726">
        <ele>1276.8</ele>
        <time>2022-01-13T05:06:03Z</time>
      </trkpt>
      <trkpt lat="45.70684" lon="6.26725">
        <ele>1276.8</ele>
        <time>2022-01-13T05:06:04Z</time>
      </trkpt>
      <trkpt lat="45.70683" lon="6.26724">
        <ele>1276.8</ele>
        <time>2022-01-13T05:06:05Z</time>
      </trkpt>
      <trkpt lat="45.70682" lon="6.26723">
        <ele>1276.8</ele>
        <time>2022-01-13T05:06:06Z</time>
      </trkpt>
      <trkpt lat="45.70682" lon="6.26721">
        <ele>1276.8</ele>
        <time>2022-01-13T05:06:07Z</time>
      </trkpt>
      <trkpt lat="45.70681" lon="6.26719">
        <ele>1276.8</ele>
        <time>2022-01-13T05:06:08Z</time>
      </trkpt>
      <trkpt lat="45.7068" lon="6.26717">
        <ele>1276.8</ele>
        <time>2022-01-13T05:06:09Z</time>
      </trkpt>
      <trkpt lat="45.70679" lon="6.26715">
        <ele>1271.8</ele>
        <time>2022-01-13T05:06:10Z</time>
      </trkpt>
      <trkpt lat="45.70678" lon="6.26714">
        <ele>1271.8</ele>
        <time>2022-01-13T05:06:11Z</time>
      </trkpt>
      <trkpt lat="45.70678" lon="6.26712">
        <ele>1271.8</ele>
        <time>2022-01-13T05:06:12Z</time>
      </trkpt>
      <trkpt lat="45.70677" lon="6.26711">
        <ele>1271.8</ele>
        <time>2022-01-13T05:06:13Z</time>
      </trkpt>
      <trkpt lat="45.70677" lon="6.26709">
        <ele>1270.7</ele>
        <time>2022-01-13T05:06:14Z</time>
      </trkpt>
      <trkpt lat="45.70676" lon="6.26707">
        <ele>1270.7</ele>
        <time>2022-01-13T05:06:15Z</time>
      </trkpt>
      <trkpt lat="45.70676" lon="6.26705">
        <ele>1269.8</ele>
        <time>2022-01-13T05:06:16Z</time>
      </trkpt>
      <trkpt lat="45.70675" lon="6.26704">
        <ele>1269.8</ele>
        <time>2022-01-13T05:06:17Z</time>
      </trkpt>
      <trkpt lat="45.70674" lon="6.26703">
        <ele>1268.7</ele>
        <time>2022-01-13T05:06:18Z</time>
      </trkpt>
      <trkpt lat="45.70674" lon="6.26701">
        <ele>1268.7</ele>
        <time>2022-01-13T05:06:19Z</time>
      </trkpt>
      <trkpt lat="45.70673" lon="6.26699">
        <ele>1267.8</ele>
        <time>2022-01-13T05:06:20Z</time>
      </trkpt>
      <trkpt lat="45.70673" lon="6.26698">
        <ele>1267.8</ele>
        <time>2022-01-13T05:06:21Z</time>
      </trkpt>
      <trkpt lat="45.70672" lon="6.26696">
        <ele>1267.8</ele>
        <time>2022-01-13T05:06:22Z</time>
      </trkpt>
      <trkpt lat="45.70671" lon="6.26694">
        <ele>1267.8</ele>
        <time>2022-01-13T05:06:23Z</time>
      </trkpt>
      <trkpt lat="45.7067" lon="6.26693">
        <ele>1267.8</ele>
        <time>2022-01-13T05:06:24Z</time>
      </trkpt>
      <trkpt lat="45.70669" lon="6.26691">
        <ele>1267.8</ele>
        <time>2022-01-13T05:06:25Z</time>
      </trkpt>
      <trkpt lat="45.70668" lon="6.26689">
        <ele>1267.8</ele>
        <time>2022-01-13T05:06:26Z</time>
      </trkpt>
      <trkpt lat="45.70667" lon="6.26687">
        <ele>1267.8</ele>
        <time>2022-01-13T05:06:27Z</time>
      </trkpt>
      <trkpt lat="45.70667" lon="6.26686">
        <ele>1263.7</ele>
        <time>2022-01-13T05:06:28Z</time>
      </trkpt>
      <trkpt lat="45.70666" lon="6.26684">
        <ele>1263.7</ele>
        <time>2022-01-13T05:06:29Z</time>
      </trkpt>
      <trkpt lat="45.70665" lon="6.26681">
        <ele>1263.7</ele>
        <time>2022-01-13T05:06:30Z</time>
      </trkpt>
      <trkpt lat="45.70665" lon="6.26679">
        <ele>1263.7</ele>
        <time>2022-01-13T05:06:31Z</time>
      </trkpt>
      <trkpt lat="45.70664" lon="6.26678">
        <ele>1262.8</ele>
        <time>2022-01-13T05:06:32Z</time>
      </trkpt>
      <trkpt lat="45.70663" lon="6.26676">
        <ele>1262.8</ele>
        <time>2022-01-13T05:06:33Z</time>
      </trkpt>
      <trkpt lat="45.70663" lon="6.26675">
        <ele>1260.8</ele>
        <time>2022-01-13T05:06:34Z</time>
      </trkpt>
      <trkpt lat="45.70662" lon="6.26673">
        <ele>1260.8</ele>
        <time>2022-01-13T05:06:35Z</time>
      </trkpt>
      <trkpt lat="45.70661" lon="6.26671">
        <ele>1259.8</ele>
        <time>2022-01-13T05:06:36Z</time>
      </trkpt>
      <trkpt lat="45.70661" lon="6.26669">
        <ele>1259.8</ele>
        <time>2022-01-13T05:06:37Z</time>
      </trkpt>
      <trkpt lat="45.7066" lon="6.26667">
        <ele>1258.8</ele>
        <time>2022-01-13T05:06:38Z</time>
      </trkpt>
      <trkpt lat="45.7066" lon="6.26666">
        <ele>1258.8</ele>
        <time>2022-01-13T05:06:39Z</time>
      </trkpt>
      <trkpt lat="45.70659" lon="6.26664">
        <ele>1258.8</ele>
        <time>2022-01-13T05:06:40Z</time>
      </trkpt>
      <trkpt lat="45.70658" lon="6.26662">
        <ele>1258.8</ele>
        <time>2022-01-13T05:06:41Z</time>
      </trkpt>
      <trkpt lat="45.70658" lon="6.26661">
        <ele>1257.8</ele>
        <time>2022-01-13T05:06:42Z</time>
      </trkpt>
      <trkpt lat="45.70657" lon="6.26659">
        <ele>1257.8</ele>
        <time>2022-01-13T05:06:43Z</time>
      </trkpt>
      <trkpt lat="45.70655" lon="6.26658">
        <ele>1257.8</ele>
        <time>2022-01-13T05:06:44Z</time>
      </trkpt>
      <trkpt lat="45.70655" lon="6.26657">
        <ele>1257.8</ele>
        <time>2022-01-13T05:06:45Z</time>
      </trkpt>
      <trkpt lat="45.70654" lon="6.26655">
        <ele>1256.7</ele>
        <time>2022-01-13T05:06:46Z</time>
      </trkpt>
      <trkpt lat="45.70653" lon="6.26654">
        <ele>1256.7</ele>
        <time>2022-01-13T05:06:47Z</time>
      </trkpt>
      <trkpt lat="45.70653" lon="6.26652">
        <ele>1255.8</ele>
        <time>2022-01-13T05:06:48Z</time>
      </trkpt>
      <trkpt lat="45.70652" lon="6.26651">
        <ele>1255.8</ele>
        <time>2022-01-13T05:06:49Z</time>
      </trkpt>
      <trkpt lat="45.70651" lon="6.26649">
        <ele>1254.7</ele>
        <time>2022-01-13T05:06:50Z</time>
      </trkpt>
      <trkpt lat="45.7065" lon="6.26648">
        <ele>1254.7</ele>
        <time>2022-01-13T05:06:51Z</time>
      </trkpt>
      <trkpt lat="45.7065" lon="6.26646">
        <ele>1254.7</ele>
        <time>2022-01-13T05:06:52Z</time>
      </trkpt>
      <trkpt lat="45.70649" lon="6.26645">
        <ele>1254.7</ele>
        <time>2022-01-13T05:06:53Z</time>
      </trkpt>
      <trkpt lat="45.70649" lon="6.26643">
        <ele>1253.8</ele>
        <time>2022-01-13T05:06:54Z</time>
      </trkpt>
      <trkpt lat="45.70648" lon="6.26642">
        <ele>1253.8</ele>
        <time>2022-01-13T05:06:55Z</time>
      </trkpt>
      <trkpt lat="45.70647" lon="6.26641">
        <ele>1253.8</ele>
        <time>2022-01-13T05:06:56Z</time>
      </trkpt>
      <trkpt lat="45.70646" lon="6.26639">
        <ele>1253.8</ele>
        <time>2022-01-13T05:06:57Z</time>
      </trkpt>
      <trkpt lat="45.70645" lon="6.26638">
        <ele>1252.7</ele>
        <time>2022-01-13T05:06:58Z</time>
      </trkpt>
      <trkpt lat="45.70644" lon="6.26636">
        <ele>1252.7</ele>
        <time>2022-01-13T05:06:59Z</time>
      </trkpt>
      <trkpt lat="45.70644" lon="6.26635">
        <ele>1252.7</ele>
        <time>2022-01-13T05:07:00Z</time>
      </trkpt>
      <trkpt lat="45.70644" lon="6.26633">
        <ele>1252.7</ele>
        <time>2022-01-13T05:07:01Z</time>
      </trkpt>
      <trkpt lat="45.70642" lon="6.26633">
        <ele>1251.8</ele>
        <time>2022-01-13T05:07:02Z</time>
      </trkpt>
      <trkpt lat="45.7064" lon="6.26632">
        <ele>1251.8</ele>
        <time>2022-01-13T05:07:03Z</time>
      </trkpt>
      <trkpt lat="45.70639" lon="6.26631">
        <ele>1250.8</ele>
        <time>2022-01-13T05:07:04Z</time>
      </trkpt>
      <trkpt lat="45.70638" lon="6.2663">
        <ele>1250.8</ele>
        <time>2022-01-13T05:07:05Z</time>
      </trkpt>
      <trkpt lat="45.70637" lon="6.26629">
        <ele>1249.8</ele>
        <time>2022-01-13T05:07:06Z</time>
      </trkpt>
      <trkpt lat="45.70636" lon="6.26628">
        <ele>1249.8</ele>
        <time>2022-01-13T05:07:07Z</time>
      </trkpt>
      <trkpt lat="45.70635" lon="6.26627">
        <ele>1248.8</ele>
        <time>2022-01-13T05:07:08Z</time>
      </trkpt>
      <trkpt lat="45.70634" lon="6.26626">
        <ele>1248.8</ele>
        <time>2022-01-13T05:07:09Z</time>
      </trkpt>
      <trkpt lat="45.70632" lon="6.26625">
        <ele>1247.7</ele>
        <time>2022-01-13T05:07:10Z</time>
      </trkpt>
      <trkpt lat="45.70631" lon="6.26625">
        <ele>1247.7</ele>
        <time>2022-01-13T05:07:11Z</time>
      </trkpt>
      <trkpt lat="45.7063" lon="6.26624">
        <ele>1247.7</ele>
        <time>2022-01-13T05:07:12Z</time>
      </trkpt>
      <trkpt lat="45.70628" lon="6.26623">
        <ele>1247.7</ele>
        <time>2022-01-13T05:07:13Z</time>
      </trkpt>
      <trkpt lat="45.70627" lon="6.26623">
        <ele>1246.8</ele>
        <time>2022-01-13T05:07:14Z</time>
      </trkpt>
      <trkpt lat="45.70626" lon="6.26622">
        <ele>1246.8</ele>
        <time>2022-01-13T05:07:15Z</time>
      </trkpt>
      <trkpt lat="45.70625" lon="6.26621">
        <ele>1246.8</ele>
        <time>2022-01-13T05:07:16Z</time>
      </trkpt>
      <trkpt lat="45.70624" lon="6.26621">
        <ele>1246.8</ele>
        <time>2022-01-13T05:07:17Z</time>
      </trkpt>
      <trkpt lat="45.70624" lon="6.2662">
        <ele>1246.8</ele>
        <time>2022-01-13T05:07:18Z</time>
      </trkpt>
      <trkpt lat="45.70622" lon="6.26619">
        <ele>1246.8</ele>
        <time>2022-01-13T05:07:19Z</time>
      </trkpt>
      <trkpt lat="45.70622" lon="6.26618">
        <ele>1245.7</ele>
        <time>2022-01-13T05:07:20Z</time>
      </trkpt>
      <trkpt lat="45.70622" lon="6.26616">
        <ele>1245.7</ele>
        <time>2022-01-13T05:07:21Z</time>
      </trkpt>
      <trkpt lat="45.70621" lon="6.26615">
        <ele>1245.7</ele>
        <time>2022-01-13T05:07:22Z</time>
      </trkpt>
      <trkpt lat="45.7062" lon="6.26614">
        <ele>1245.7</ele>
        <time>2022-01-13T05:07:23Z</time>
      </trkpt>
      <trkpt lat="45.7062" lon="6.26612">
        <ele>1245.7</ele>
        <time>2022-01-13T05:07:24Z</time>
      </trkpt>
      <trkpt lat="45.70619" lon="6.26611">
        <ele>1245.7</ele>
        <time>2022-01-13T05:07:25Z</time>
      </trkpt>
      <trkpt lat="45.70619" lon="6.26609">
        <ele>1245.7</ele>
        <time>2022-01-13T05:07:26Z</time>
      </trkpt>
      <trkpt lat="45.70618" lon="6.26608">
        <ele>1245.7</ele>
        <time>2022-01-13T05:07:27Z</time>
      </trkpt>
      <trkpt lat="45.70617" lon="6.26607">
        <ele>1245.7</ele>
        <time>2022-01-13T05:07:28Z</time>
      </trkpt>
      <trkpt lat="45.70616" lon="6.26605">
        <ele>1245.7</ele>
        <time>2022-01-13T05:07:29Z</time>
      </trkpt>
      <trkpt lat="45.70616" lon="6.26604">
        <ele>1246.8</ele>
        <time>2022-01-13T05:07:30Z</time>
      </trkpt>
      <trkpt lat="45.70615" lon="6.26603">
        <ele>1246.8</ele>
        <time>2022-01-13T05:07:31Z</time>
      </trkpt>
      <trkpt lat="45.70614" lon="6.26601">
        <ele>1247.7</ele>
        <time>2022-01-13T05:07:32Z</time>
      </trkpt>
      <trkpt lat="45.70612" lon="6.266">
        <ele>1247.7</ele>
        <time>2022-01-13T05:07:33Z</time>
      </trkpt>
      <trkpt lat="45.70611" lon="6.26599">
        <ele>1247.7</ele>
        <time>2022-01-13T05:07:34Z</time>
      </trkpt>
      <trkpt lat="45.7061" lon="6.26598">
        <ele>1247.7</ele>
        <time>2022-01-13T05:07:35Z</time>
      </trkpt>
      <trkpt lat="45.7061" lon="6.26597">
        <ele>1248.8</ele>
        <time>2022-01-13T05:07:36Z</time>
      </trkpt>
      <trkpt lat="45.70609" lon="6.26595">
        <ele>1248.8</ele>
        <time>2022-01-13T05:07:37Z</time>
      </trkpt>
      <trkpt lat="45.70609" lon="6.26593">
        <ele>1248.8</ele>
        <time>2022-01-13T05:07:38Z</time>
      </trkpt>
      <trkpt lat="45.70609" lon="6.26592">
        <ele>1248.8</ele>
        <time>2022-01-13T05:07:39Z</time>
      </trkpt>
      <trkpt lat="45.70609" lon="6.26591">
        <ele>1248.8</ele>
        <time>2022-01-13T05:07:40Z</time>
      </trkpt>
      <trkpt lat="45.70609" lon="6.26589">
        <ele>1248.8</ele>
        <time>2022-01-13T05:07:41Z</time>
      </trkpt>
      <trkpt lat="45.70609" lon="6.26588">
        <ele>1247.7</ele>
        <time>2022-01-13T05:07:42Z</time>
      </trkpt>
      <trkpt lat="45.70608" lon="6.26586">
        <ele>1247.7</ele>
        <time>2022-01-13T05:07:43Z</time>
      </trkpt>
      <trkpt lat="45.70608" lon="6.26585">
        <ele>1247.7</ele>
        <time>2022-01-13T05:07:44Z</time>
      </trkpt>
      <trkpt lat="45.70608" lon="6.26584">
        <ele>1247.7</ele>
        <time>2022-01-13T05:07:45Z</time>
      </trkpt>
      <trkpt lat="45.70607" lon="6.26582">
        <ele>1247.7</ele>
        <time>2022-01-13T05:07:46Z</time>
      </trkpt>
      <trkpt lat="45.70606" lon="6.26581">
        <ele>1247.7</ele>
        <time>2022-01-13T05:07:47Z</time>
      </trkpt>
      <trkpt lat="45.70606" lon="6.26579">
        <ele>1247.7</ele>
        <time>2022-01-13T05:07:48Z</time>
      </trkpt>
      <trkpt lat="45.70605" lon="6.26578">
        <ele>1247.7</ele>
        <time>2022-01-13T05:07:49Z</time>
      </trkpt>
      <trkpt lat="45.70605" lon="6.26576">
        <ele>1246.8</ele>
        <time>2022-01-13T05:07:50Z</time>
      </trkpt>
      <trkpt lat="45.70604" lon="6.26574">
        <ele>1246.8</ele>
        <time>2022-01-13T05:07:51Z</time>
      </trkpt>
      <trkpt lat="45.70604" lon="6.26571">
        <ele>1246.8</ele>
        <time>2022-01-13T05:07:52Z</time>
      </trkpt>
      <trkpt lat="45.70603" lon="6.2657">
        <ele>1246.8</ele>
        <time>2022-01-13T05:07:53Z</time>
      </trkpt>
      <trkpt lat="45.70603" lon="6.26568">
        <ele>1246.8</ele>
        <time>2022-01-13T05:07:54Z</time>
      </trkpt>
      <trkpt lat="45.70602" lon="6.26567">
        <ele>1246.8</ele>
        <time>2022-01-13T05:07:55Z</time>
      </trkpt>
      <trkpt lat="45.70601" lon="6.26565">
        <ele>1245.7</ele>
        <time>2022-01-13T05:07:56Z</time>
      </trkpt>
      <trkpt lat="45.70601" lon="6.26563">
        <ele>1245.7</ele>
        <time>2022-01-13T05:07:57Z</time>
      </trkpt>
      <trkpt lat="45.70601" lon="6.26561">
        <ele>1244.8</ele>
        <time>2022-01-13T05:07:58Z</time>
      </trkpt>
      <trkpt lat="45.70601" lon="6.26559">
        <ele>1244.8</ele>
        <time>2022-01-13T05:07:59Z</time>
      </trkpt>
      <trkpt lat="45.706" lon="6.26558">
        <ele>1243.8</ele>
        <time>2022-01-13T05:08:00Z</time>
      </trkpt>
      <trkpt lat="45.70599" lon="6.26557">
        <ele>1243.8</ele>
        <time>2022-01-13T05:08:01Z</time>
      </trkpt>
      <trkpt lat="45.70598" lon="6.26555">
        <ele>1243.8</ele>
        <time>2022-01-13T05:08:02Z</time>
      </trkpt>
      <trkpt lat="45.70597" lon="6.26554">
        <ele>1243.8</ele>
        <time>2022-01-13T05:08:03Z</time>
      </trkpt>
      <trkpt lat="45.70597" lon="6.26553">
        <ele>1243.8</ele>
        <time>2022-01-13T05:08:04Z</time>
      </trkpt>
      <trkpt lat="45.70597" lon="6.26551">
        <ele>1243.8</ele>
        <time>2022-01-13T05:08:05Z</time>
      </trkpt>
      <trkpt lat="45.70596" lon="6.26549">
        <ele>1243.8</ele>
        <time>2022-01-13T05:08:06Z</time>
      </trkpt>
      <trkpt lat="45.70595" lon="6.26548">
        <ele>1243.8</ele>
        <time>2022-01-13T05:08:07Z</time>
      </trkpt>
      <trkpt lat="45.70595" lon="6.26547">
        <ele>1242.8</ele>
        <time>2022-01-13T05:08:08Z</time>
      </trkpt>
      <trkpt lat="45.70595" lon="6.26545">
        <ele>1242.8</ele>
        <time>2022-01-13T05:08:09Z</time>
      </trkpt>
      <trkpt lat="45.70595" lon="6.26542">
        <ele>1242.8</ele>
        <time>2022-01-13T05:08:10Z</time>
      </trkpt>
      <trkpt lat="45.70595" lon="6.2654">
        <ele>1242.8</ele>
        <time>2022-01-13T05:08:11Z</time>
      </trkpt>
      <trkpt lat="45.70594" lon="6.26538">
        <ele>1242.8</ele>
        <time>2022-01-13T05:08:12Z</time>
      </trkpt>
      <trkpt lat="45.70594" lon="6.26537">
        <ele>1242.8</ele>
        <time>2022-01-13T05:08:13Z</time>
      </trkpt>
      <trkpt lat="45.70594" lon="6.26535">
        <ele>1242.8</ele>
        <time>2022-01-13T05:08:14Z</time>
      </trkpt>
      <trkpt lat="45.70595" lon="6.26533">
        <ele>1242.8</ele>
        <time>2022-01-13T05:08:15Z</time>
      </trkpt>
      <trkpt lat="45.70595" lon="6.26532">
        <ele>1242.8</ele>
        <time>2022-01-13T05:08:16Z</time>
      </trkpt>
      <trkpt lat="45.70594" lon="6.26531">
        <ele>1242.8</ele>
        <time>2022-01-13T05:08:17Z</time>
      </trkpt>
      <trkpt lat="45.70593" lon="6.2653">
        <ele>1242.8</ele>
        <time>2022-01-13T05:08:18Z</time>
      </trkpt>
      <trkpt lat="45.70593" lon="6.26528">
        <ele>1242.8</ele>
        <time>2022-01-13T05:08:19Z</time>
      </trkpt>
      <trkpt lat="45.70593" lon="6.26526">
        <ele>1242.8</ele>
        <time>2022-01-13T05:08:20Z</time>
      </trkpt>
      <trkpt lat="45.70592" lon="6.26524">
        <ele>1242.8</ele>
        <time>2022-01-13T05:08:21Z</time>
      </trkpt>
      <trkpt lat="45.70593" lon="6.26522">
        <ele>1242.8</ele>
        <time>2022-01-13T05:08:22Z</time>
      </trkpt>
      <trkpt lat="45.70593" lon="6.26521">
        <ele>1242.8</ele>
        <time>2022-01-13T05:08:23Z</time>
      </trkpt>
      <trkpt lat="45.70593" lon="6.2652">
        <ele>1242.8</ele>
        <time>2022-01-13T05:08:24Z</time>
      </trkpt>
      <trkpt lat="45.70592" lon="6.26518">
        <ele>1242.8</ele>
        <time>2022-01-13T05:08:25Z</time>
      </trkpt>
      <trkpt lat="45.70591" lon="6.26517">
        <ele>1242.8</ele>
        <time>2022-01-13T05:08:26Z</time>
      </trkpt>
      <trkpt lat="45.70591" lon="6.26515">
        <ele>1242.8</ele>
        <time>2022-01-13T05:08:27Z</time>
      </trkpt>
      <trkpt lat="45.7059" lon="6.26514">
        <ele>1242.8</ele>
        <time>2022-01-13T05:08:28Z</time>
      </trkpt>
      <trkpt lat="45.7059" lon="6.26513">
        <ele>1242.8</ele>
        <time>2022-01-13T05:08:29Z</time>
      </trkpt>
      <trkpt lat="45.7059" lon="6.26511">
        <ele>1242.8</ele>
        <time>2022-01-13T05:08:30Z</time>
      </trkpt>
      <trkpt lat="45.7059" lon="6.26509">
        <ele>1242.8</ele>
        <time>2022-01-13T05:08:31Z</time>
      </trkpt>
      <trkpt lat="45.7059" lon="6.26508">
        <ele>1242.8</ele>
        <time>2022-01-13T05:08:32Z</time>
      </trkpt>
      <trkpt lat="45.7059" lon="6.26506">
        <ele>1242.8</ele>
        <time>2022-01-13T05:08:33Z</time>
      </trkpt>
      <trkpt lat="45.7059" lon="6.26504">
        <ele>1242.8</ele>
        <time>2022-01-13T05:08:34Z</time>
      </trkpt>
      <trkpt lat="45.70589" lon="6.26502">
        <ele>1242.8</ele>
        <time>2022-01-13T05:08:35Z</time>
      </trkpt>
      <trkpt lat="45.70589" lon="6.26501">
        <ele>1242.8</ele>
        <time>2022-01-13T05:08:36Z</time>
      </trkpt>
      <trkpt lat="45.70589" lon="6.26499">
        <ele>1242.8</ele>
        <time>2022-01-13T05:08:37Z</time>
      </trkpt>
      <trkpt lat="45.70588" lon="6.26498">
        <ele>1242.8</ele>
        <time>2022-01-13T05:08:38Z</time>
      </trkpt>
      <trkpt lat="45.70587" lon="6.26497">
        <ele>1242.8</ele>
        <time>2022-01-13T05:08:39Z</time>
      </trkpt>
      <trkpt lat="45.70587" lon="6.26495">
        <ele>1242.8</ele>
        <time>2022-01-13T05:08:40Z</time>
      </trkpt>
      <trkpt lat="45.70586" lon="6.26493">
        <ele>1242.8</ele>
        <time>2022-01-13T05:08:41Z</time>
      </trkpt>
      <trkpt lat="45.70586" lon="6.26492">
        <ele>1242.8</ele>
        <time>2022-01-13T05:08:42Z</time>
      </trkpt>
      <trkpt lat="45.70586" lon="6.2649">
        <ele>1242.8</ele>
        <time>2022-01-13T05:08:43Z</time>
      </trkpt>
      <trkpt lat="45.70586" lon="6.26489">
        <ele>1242.8</ele>
        <time>2022-01-13T05:08:44Z</time>
      </trkpt>
      <trkpt lat="45.70586" lon="6.26487">
        <ele>1242.8</ele>
        <time>2022-01-13T05:08:45Z</time>
      </trkpt>
      <trkpt lat="45.70586" lon="6.26484">
        <ele>1242.8</ele>
        <time>2022-01-13T05:08:46Z</time>
      </trkpt>
      <trkpt lat="45.70586" lon="6.26483">
        <ele>1242.8</ele>
        <time>2022-01-13T05:08:47Z</time>
      </trkpt>
      <trkpt lat="45.70586" lon="6.26482">
        <ele>1242.8</ele>
        <time>2022-01-13T05:08:48Z</time>
      </trkpt>
      <trkpt lat="45.70585" lon="6.26481">
        <ele>1242.8</ele>
        <time>2022-01-13T05:08:49Z</time>
      </trkpt>
      <trkpt lat="45.70584" lon="6.26479">
        <ele>1242.8</ele>
        <time>2022-01-13T05:08:50Z</time>
      </trkpt>
      <trkpt lat="45.70584" lon="6.26477">
        <ele>1242.8</ele>
        <time>2022-01-13T05:08:51Z</time>
      </trkpt>
      <trkpt lat="45.70584" lon="6.26476">
        <ele>1242.8</ele>
        <time>2022-01-13T05:08:52Z</time>
      </trkpt>
      <trkpt lat="45.70584" lon="6.26475">
        <ele>1242.8</ele>
        <time>2022-01-13T05:08:53Z</time>
      </trkpt>
      <trkpt lat="45.70583" lon="6.26472">
        <ele>1242.8</ele>
        <time>2022-01-13T05:08:54Z</time>
      </trkpt>
      <trkpt lat="45.70582" lon="6.26471">
        <ele>1242.8</ele>
        <time>2022-01-13T05:08:55Z</time>
      </trkpt>
      <trkpt lat="45.70582" lon="6.26469">
        <ele>1242.8</ele>
        <time>2022-01-13T05:08:56Z</time>
      </trkpt>
      <trkpt lat="45.70582" lon="6.26467">
        <ele>1242.8</ele>
        <time>2022-01-13T05:08:57Z</time>
      </trkpt>
      <trkpt lat="45.70582" lon="6.26466">
        <ele>1242.8</ele>
        <time>2022-01-13T05:08:58Z</time>
      </trkpt>
      <trkpt lat="45.70581" lon="6.26464">
        <ele>1242.8</ele>
        <time>2022-01-13T05:08:59Z</time>
      </trkpt>
      <trkpt lat="45.70581" lon="6.26462">
        <ele>1242.8</ele>
        <time>2022-01-13T05:09:00Z</time>
      </trkpt>
      <trkpt lat="45.7058" lon="6.2646">
        <ele>1242.8</ele>
        <time>2022-01-13T05:09:01Z</time>
      </trkpt>
      <trkpt lat="45.70581" lon="6.26458">
        <ele>1242.8</ele>
        <time>2022-01-13T05:09:02Z</time>
      </trkpt>
      <trkpt lat="45.70581" lon="6.26456">
        <ele>1242.8</ele>
        <time>2022-01-13T05:09:03Z</time>
      </trkpt>
      <trkpt lat="45.70581" lon="6.26454">
        <ele>1242.8</ele>
        <time>2022-01-13T05:09:04Z</time>
      </trkpt>
      <trkpt lat="45.70581" lon="6.26453">
        <ele>1242.8</ele>
        <time>2022-01-13T05:09:05Z</time>
      </trkpt>
      <trkpt lat="45.70581" lon="6.26451">
        <ele>1242.8</ele>
        <time>2022-01-13T05:09:06Z</time>
      </trkpt>
      <trkpt lat="45.70581" lon="6.2645">
        <ele>1242.8</ele>
        <time>2022-01-13T05:09:07Z</time>
      </trkpt>
      <trkpt lat="45.70581" lon="6.26448">
        <ele>1242.8</ele>
        <time>2022-01-13T05:09:08Z</time>
      </trkpt>
      <trkpt lat="45.7058" lon="6.26446">
        <ele>1242.8</ele>
        <time>2022-01-13T05:09:09Z</time>
      </trkpt>
      <trkpt lat="45.7058" lon="6.26445">
        <ele>1242.8</ele>
        <time>2022-01-13T05:09:10Z</time>
      </trkpt>
      <trkpt lat="45.7058" lon="6.26443">
        <ele>1242.8</ele>
        <time>2022-01-13T05:09:11Z</time>
      </trkpt>
      <trkpt lat="45.70579" lon="6.26442">
        <ele>1242.8</ele>
        <time>2022-01-13T05:09:12Z</time>
      </trkpt>
      <trkpt lat="45.70579" lon="6.2644">
        <ele>1242.8</ele>
        <time>2022-01-13T05:09:13Z</time>
      </trkpt>
      <trkpt lat="45.70578" lon="6.26438">
        <ele>1242.8</ele>
        <time>2022-01-13T05:09:14Z</time>
      </trkpt>
      <trkpt lat="45.70578" lon="6.26437">
        <ele>1242.8</ele>
        <time>2022-01-13T05:09:15Z</time>
      </trkpt>
      <trkpt lat="45.70577" lon="6.26436">
        <ele>1242.8</ele>
        <time>2022-01-13T05:09:16Z</time>
      </trkpt>
      <trkpt lat="45.70577" lon="6.26434">
        <ele>1242.8</ele>
        <time>2022-01-13T05:09:17Z</time>
      </trkpt>
      <trkpt lat="45.70576" lon="6.26433">
        <ele>1242.8</ele>
        <time>2022-01-13T05:09:18Z</time>
      </trkpt>
      <trkpt lat="45.70576" lon="6.26431">
        <ele>1242.8</ele>
        <time>2022-01-13T05:09:19Z</time>
      </trkpt>
      <trkpt lat="45.70575" lon="6.26431">
        <ele>1242.8</ele>
        <time>2022-01-13T05:09:20Z</time>
      </trkpt>
      <trkpt lat="45.70574" lon="6.2643">
        <ele>1242.8</ele>
        <time>2022-01-13T05:09:21Z</time>
      </trkpt>
      <trkpt lat="45.70574" lon="6.26428">
        <ele>1242.8</ele>
        <time>2022-01-13T05:09:22Z</time>
      </trkpt>
      <trkpt lat="45.70573" lon="6.26427">
        <ele>1242.8</ele>
        <time>2022-01-13T05:09:23Z</time>
      </trkpt>
      <trkpt lat="45.70573" lon="6.26425">
        <ele>1242.8</ele>
        <time>2022-01-13T05:09:24Z</time>
      </trkpt>
      <trkpt lat="45.70573" lon="6.26424">
        <ele>1242.8</ele>
        <time>2022-01-13T05:09:25Z</time>
      </trkpt>
      <trkpt lat="45.70572" lon="6.26423">
        <ele>1242.8</ele>
        <time>2022-01-13T05:09:26Z</time>
      </trkpt>
      <trkpt lat="45.70572" lon="6.26421">
        <ele>1242.8</ele>
        <time>2022-01-13T05:09:27Z</time>
      </trkpt>
      <trkpt lat="45.70571" lon="6.2642">
        <ele>1242.8</ele>
        <time>2022-01-13T05:09:28Z</time>
      </trkpt>
      <trkpt lat="45.7057" lon="6.26419">
        <ele>1242.8</ele>
        <time>2022-01-13T05:09:29Z</time>
      </trkpt>
      <trkpt lat="45.70569" lon="6.26417">
        <ele>1242.8</ele>
        <time>2022-01-13T05:09:30Z</time>
      </trkpt>
      <trkpt lat="45.70569" lon="6.26416">
        <ele>1242.8</ele>
        <time>2022-01-13T05:09:31Z</time>
      </trkpt>
      <trkpt lat="45.70568" lon="6.26414">
        <ele>1242.8</ele>
        <time>2022-01-13T05:09:32Z</time>
      </trkpt>
      <trkpt lat="45.70567" lon="6.26414">
        <ele>1242.8</ele>
        <time>2022-01-13T05:09:33Z</time>
      </trkpt>
      <trkpt lat="45.70567" lon="6.26412">
        <ele>1242.8</ele>
        <time>2022-01-13T05:09:34Z</time>
      </trkpt>
      <trkpt lat="45.70566" lon="6.2641">
        <ele>1242.8</ele>
        <time>2022-01-13T05:09:35Z</time>
      </trkpt>
      <trkpt lat="45.70564" lon="6.26409">
        <ele>1242.8</ele>
        <time>2022-01-13T05:09:36Z</time>
      </trkpt>
      <trkpt lat="45.70563" lon="6.26409">
        <ele>1242.8</ele>
        <time>2022-01-13T05:09:37Z</time>
      </trkpt>
      <trkpt lat="45.70562" lon="6.26408">
        <ele>1242.8</ele>
        <time>2022-01-13T05:09:38Z</time>
      </trkpt>
      <trkpt lat="45.70561" lon="6.26406">
        <ele>1242.8</ele>
        <time>2022-01-13T05:09:39Z</time>
      </trkpt>
      <trkpt lat="45.70561" lon="6.26404">
        <ele>1243.8</ele>
        <time>2022-01-13T05:09:40Z</time>
      </trkpt>
      <trkpt lat="45.7056" lon="6.26403">
        <ele>1243.8</ele>
        <time>2022-01-13T05:09:41Z</time>
      </trkpt>
      <trkpt lat="45.70559" lon="6.26402">
        <ele>1243.8</ele>
        <time>2022-01-13T05:09:42Z</time>
      </trkpt>
      <trkpt lat="45.70559" lon="6.26401">
        <ele>1243.8</ele>
        <time>2022-01-13T05:09:43Z</time>
      </trkpt>
      <trkpt lat="45.70558" lon="6.264">
        <ele>1243.8</ele>
        <time>2022-01-13T05:09:44Z</time>
      </trkpt>
      <trkpt lat="45.70557" lon="6.26398">
        <ele>1243.8</ele>
        <time>2022-01-13T05:09:45Z</time>
      </trkpt>
      <trkpt lat="45.70556" lon="6.26397">
        <ele>1243.8</ele>
        <time>2022-01-13T05:09:46Z</time>
      </trkpt>
      <trkpt lat="45.70556" lon="6.26396">
        <ele>1243.8</ele>
        <time>2022-01-13T05:09:47Z</time>
      </trkpt>
      <trkpt lat="45.70555" lon="6.26395">
        <ele>1243.8</ele>
        <time>2022-01-13T05:09:48Z</time>
      </trkpt>
      <trkpt lat="45.70555" lon="6.26394">
        <ele>1243.8</ele>
        <time>2022-01-13T05:09:49Z</time>
      </trkpt>
      <trkpt lat="45.70555" lon="6.26392">
        <ele>1243.8</ele>
        <time>2022-01-13T05:09:50Z</time>
      </trkpt>
      <trkpt lat="45.70554" lon="6.2639">
        <ele>1243.8</ele>
        <time>2022-01-13T05:09:51Z</time>
      </trkpt>
      <trkpt lat="45.70554" lon="6.26389">
        <ele>1243.8</ele>
        <time>2022-01-13T05:09:52Z</time>
      </trkpt>
      <trkpt lat="45.70553" lon="6.26389">
        <ele>1243.8</ele>
        <time>2022-01-13T05:09:53Z</time>
      </trkpt>
      <trkpt lat="45.70553" lon="6.26388">
        <ele>1244.8</ele>
        <time>2022-01-13T05:09:54Z</time>
      </trkpt>
      <trkpt lat="45.70551" lon="6.26387">
        <ele>1244.8</ele>
        <time>2022-01-13T05:09:55Z</time>
      </trkpt>
      <trkpt lat="45.7055" lon="6.26386">
        <ele>1244.8</ele>
        <time>2022-01-13T05:09:56Z</time>
      </trkpt>
      <trkpt lat="45.70549" lon="6.26385">
        <ele>1244.8</ele>
        <time>2022-01-13T05:09:57Z</time>
      </trkpt>
      <trkpt lat="45.70548" lon="6.26384">
        <ele>1244.8</ele>
        <time>2022-01-13T05:09:58Z</time>
      </trkpt>
      <trkpt lat="45.70548" lon="6.26383">
        <ele>1244.8</ele>
        <time>2022-01-13T05:09:59Z</time>
      </trkpt>
      <trkpt lat="45.70546" lon="6.26382">
        <ele>1245.7</ele>
        <time>2022-01-13T05:10:00Z</time>
      </trkpt>
      <trkpt lat="45.70545" lon="6.2638">
        <ele>1245.7</ele>
        <time>2022-01-13T05:10:01Z</time>
      </trkpt>
      <trkpt lat="45.70545" lon="6.26379">
        <ele>1245.7</ele>
        <time>2022-01-13T05:10:02Z</time>
      </trkpt>
      <trkpt lat="45.70544" lon="6.26377">
        <ele>1245.7</ele>
        <time>2022-01-13T05:10:03Z</time>
      </trkpt>
      <trkpt lat="45.70544" lon="6.26376">
        <ele>1245.7</ele>
        <time>2022-01-13T05:10:04Z</time>
      </trkpt>
      <trkpt lat="45.70543" lon="6.26375">
        <ele>1245.7</ele>
        <time>2022-01-13T05:10:05Z</time>
      </trkpt>
      <trkpt lat="45.70542" lon="6.26374">
        <ele>1245.7</ele>
        <time>2022-01-13T05:10:06Z</time>
      </trkpt>
      <trkpt lat="45.70542" lon="6.26372">
        <ele>1245.7</ele>
        <time>2022-01-13T05:10:07Z</time>
      </trkpt>
      <trkpt lat="45.70541" lon="6.26371">
        <ele>1245.7</ele>
        <time>2022-01-13T05:10:08Z</time>
      </trkpt>
      <trkpt lat="45.70541" lon="6.26369">
        <ele>1245.7</ele>
        <time>2022-01-13T05:10:09Z</time>
      </trkpt>
      <trkpt lat="45.70541" lon="6.26367">
        <ele>1245.7</ele>
        <time>2022-01-13T05:10:10Z</time>
      </trkpt>
      <trkpt lat="45.70541" lon="6.26365">
        <ele>1245.7</ele>
        <time>2022-01-13T05:10:11Z</time>
      </trkpt>
      <trkpt lat="45.70541" lon="6.26363">
        <ele>1245.7</ele>
        <time>2022-01-13T05:10:12Z</time>
      </trkpt>
      <trkpt lat="45.7054" lon="6.26361">
        <ele>1245.7</ele>
        <time>2022-01-13T05:10:13Z</time>
      </trkpt>
      <trkpt lat="45.70539" lon="6.2636">
        <ele>1246.8</ele>
        <time>2022-01-13T05:10:14Z</time>
      </trkpt>
      <trkpt lat="45.70539" lon="6.26358">
        <ele>1246.8</ele>
        <time>2022-01-13T05:10:15Z</time>
      </trkpt>
      <trkpt lat="45.70539" lon="6.26356">
        <ele>1246.8</ele>
        <time>2022-01-13T05:10:16Z</time>
      </trkpt>
      <trkpt lat="45.70539" lon="6.26354">
        <ele>1246.8</ele>
        <time>2022-01-13T05:10:17Z</time>
      </trkpt>
      <trkpt lat="45.70538" lon="6.26353">
        <ele>1246.8</ele>
        <time>2022-01-13T05:10:18Z</time>
      </trkpt>
      <trkpt lat="45.70538" lon="6.26351">
        <ele>1246.8</ele>
        <time>2022-01-13T05:10:19Z</time>
      </trkpt>
      <trkpt lat="45.70537" lon="6.2635">
        <ele>1246.8</ele>
        <time>2022-01-13T05:10:20Z</time>
      </trkpt>
      <trkpt lat="45.70537" lon="6.26348">
        <ele>1246.8</ele>
        <time>2022-01-13T05:10:21Z</time>
      </trkpt>
      <trkpt lat="45.70536" lon="6.26347">
        <ele>1246.8</ele>
        <time>2022-01-13T05:10:22Z</time>
      </trkpt>
      <trkpt lat="45.70536" lon="6.26346">
        <ele>1246.8</ele>
        <time>2022-01-13T05:10:23Z</time>
      </trkpt>
      <trkpt lat="45.70535" lon="6.26344">
        <ele>1246.8</ele>
        <time>2022-01-13T05:10:24Z</time>
      </trkpt>
      <trkpt lat="45.70534" lon="6.26343">
        <ele>1246.8</ele>
        <time>2022-01-13T05:10:25Z</time>
      </trkpt>
      <trkpt lat="45.70534" lon="6.26342">
        <ele>1247.7</ele>
        <time>2022-01-13T05:10:26Z</time>
      </trkpt>
      <trkpt lat="45.70533" lon="6.2634">
        <ele>1247.7</ele>
        <time>2022-01-13T05:10:27Z</time>
      </trkpt>
      <trkpt lat="45.70533" lon="6.26339">
        <ele>1247.7</ele>
        <time>2022-01-13T05:10:28Z</time>
      </trkpt>
      <trkpt lat="45.70533" lon="6.26337">
        <ele>1247.7</ele>
        <time>2022-01-13T05:10:29Z</time>
      </trkpt>
      <trkpt lat="45.70533" lon="6.26335">
        <ele>1247.7</ele>
        <time>2022-01-13T05:10:30Z</time>
      </trkpt>
      <trkpt lat="45.70533" lon="6.26334">
        <ele>1247.7</ele>
        <time>2022-01-13T05:10:31Z</time>
      </trkpt>
      <trkpt lat="45.70533" lon="6.26332">
        <ele>1247.7</ele>
        <time>2022-01-13T05:10:32Z</time>
      </trkpt>
      <trkpt lat="45.70532" lon="6.2633">
        <ele>1247.7</ele>
        <time>2022-01-13T05:10:33Z</time>
      </trkpt>
      <trkpt lat="45.70531" lon="6.26329">
        <ele>1247.7</ele>
        <time>2022-01-13T05:10:34Z</time>
      </trkpt>
      <trkpt lat="45.70531" lon="6.26327">
        <ele>1247.7</ele>
        <time>2022-01-13T05:10:35Z</time>
      </trkpt>
      <trkpt lat="45.70532" lon="6.26326">
        <ele>1247.7</ele>
        <time>2022-01-13T05:10:36Z</time>
      </trkpt>
      <trkpt lat="45.70531" lon="6.26324">
        <ele>1247.7</ele>
        <time>2022-01-13T05:10:37Z</time>
      </trkpt>
      <trkpt lat="45.70531" lon="6.26322">
        <ele>1247.7</ele>
        <time>2022-01-13T05:10:38Z</time>
      </trkpt>
      <trkpt lat="45.7053" lon="6.26321">
        <ele>1247.7</ele>
        <time>2022-01-13T05:10:39Z</time>
      </trkpt>
      <trkpt lat="45.7053" lon="6.2632">
        <ele>1247.7</ele>
        <time>2022-01-13T05:10:40Z</time>
      </trkpt>
      <trkpt lat="45.70529" lon="6.26319">
        <ele>1247.7</ele>
        <time>2022-01-13T05:10:41Z</time>
      </trkpt>
      <trkpt lat="45.70529" lon="6.26318">
        <ele>1248.8</ele>
        <time>2022-01-13T05:10:42Z</time>
      </trkpt>
      <trkpt lat="45.70528" lon="6.26316">
        <ele>1248.8</ele>
        <time>2022-01-13T05:10:43Z</time>
      </trkpt>
      <trkpt lat="45.70527" lon="6.26315">
        <ele>1248.8</ele>
        <time>2022-01-13T05:10:44Z</time>
      </trkpt>
      <trkpt lat="45.70527" lon="6.26313">
        <ele>1248.8</ele>
        <time>2022-01-13T05:10:45Z</time>
      </trkpt>
      <trkpt lat="45.70526" lon="6.26311">
        <ele>1248.8</ele>
        <time>2022-01-13T05:10:46Z</time>
      </trkpt>
      <trkpt lat="45.70526" lon="6.2631">
        <ele>1248.8</ele>
        <time>2022-01-13T05:10:47Z</time>
      </trkpt>
      <trkpt lat="45.70526" lon="6.26308">
        <ele>1248.8</ele>
        <time>2022-01-13T05:10:48Z</time>
      </trkpt>
      <trkpt lat="45.70525" lon="6.26307">
        <ele>1248.8</ele>
        <time>2022-01-13T05:10:49Z</time>
      </trkpt>
      <trkpt lat="45.70524" lon="6.26305">
        <ele>1248.8</ele>
        <time>2022-01-13T05:10:50Z</time>
      </trkpt>
      <trkpt lat="45.70523" lon="6.26304">
        <ele>1248.8</ele>
        <time>2022-01-13T05:10:51Z</time>
      </trkpt>
      <trkpt lat="45.70522" lon="6.26302">
        <ele>1249.8</ele>
        <time>2022-01-13T05:10:52Z</time>
      </trkpt>
      <trkpt lat="45.70521" lon="6.26301">
        <ele>1249.8</ele>
        <time>2022-01-13T05:10:53Z</time>
      </trkpt>
      <trkpt lat="45.70521" lon="6.263">
        <ele>1249.8</ele>
        <time>2022-01-13T05:10:54Z</time>
      </trkpt>
      <trkpt lat="45.7052" lon="6.26298">
        <ele>1249.8</ele>
        <time>2022-01-13T05:10:55Z</time>
      </trkpt>
      <trkpt lat="45.70519" lon="6.26297">
        <ele>1249.8</ele>
        <time>2022-01-13T05:10:56Z</time>
      </trkpt>
      <trkpt lat="45.70519" lon="6.26296">
        <ele>1249.8</ele>
        <time>2022-01-13T05:10:57Z</time>
      </trkpt>
      <trkpt lat="45.70518" lon="6.26294">
        <ele>1249.8</ele>
        <time>2022-01-13T05:10:58Z</time>
      </trkpt>
      <trkpt lat="45.70517" lon="6.26293">
        <ele>1249.8</ele>
        <time>2022-01-13T05:10:59Z</time>
      </trkpt>
      <trkpt lat="45.70517" lon="6.26292">
        <ele>1250.8</ele>
        <time>2022-01-13T05:11:00Z</time>
      </trkpt>
      <trkpt lat="45.70516" lon="6.26291">
        <ele>1250.8</ele>
        <time>2022-01-13T05:11:01Z</time>
      </trkpt>
      <trkpt lat="45.70515" lon="6.2629">
        <ele>1251.8</ele>
        <time>2022-01-13T05:11:02Z</time>
      </trkpt>
      <trkpt lat="45.70514" lon="6.2629">
        <ele>1251.8</ele>
        <time>2022-01-13T05:11:03Z</time>
      </trkpt>
      <trkpt lat="45.70513" lon="6.26289">
        <ele>1251.8</ele>
        <time>2022-01-13T05:11:04Z</time>
      </trkpt>
      <trkpt lat="45.70512" lon="6.26288">
        <ele>1251.8</ele>
        <time>2022-01-13T05:11:05Z</time>
      </trkpt>
      <trkpt lat="45.7051" lon="6.26287">
        <ele>1251.8</ele>
        <time>2022-01-13T05:11:06Z</time>
      </trkpt>
      <trkpt lat="45.70509" lon="6.26286">
        <ele>1251.8</ele>
        <time>2022-01-13T05:11:07Z</time>
      </trkpt>
      <trkpt lat="45.70509" lon="6.26286">
        <ele>1251.8</ele>
        <time>2022-01-13T05:11:08Z</time>
      </trkpt>
      <trkpt lat="45.70508" lon="6.26284">
        <ele>1251.8</ele>
        <time>2022-01-13T05:11:09Z</time>
      </trkpt>
      <trkpt lat="45.70507" lon="6.26284">
        <ele>1251.8</ele>
        <time>2022-01-13T05:11:10Z</time>
      </trkpt>
      <trkpt lat="45.70506" lon="6.26283">
        <ele>1251.8</ele>
        <time>2022-01-13T05:11:11Z</time>
      </trkpt>
      <trkpt lat="45.70505" lon="6.26283">
        <ele>1252.7</ele>
        <time>2022-01-13T05:11:12Z</time>
      </trkpt>
      <trkpt lat="45.70505" lon="6.26282">
        <ele>1252.7</ele>
        <time>2022-01-13T05:11:13Z</time>
      </trkpt>
      <trkpt lat="45.70504" lon="6.26281">
        <ele>1252.7</ele>
        <time>2022-01-13T05:11:14Z</time>
      </trkpt>
      <trkpt lat="45.70503" lon="6.2628">
        <ele>1252.7</ele>
        <time>2022-01-13T05:11:15Z</time>
      </trkpt>
      <trkpt lat="45.70502" lon="6.26279">
        <ele>1252.7</ele>
        <time>2022-01-13T05:11:16Z</time>
      </trkpt>
      <trkpt lat="45.70501" lon="6.26278">
        <ele>1252.7</ele>
        <time>2022-01-13T05:11:17Z</time>
      </trkpt>
      <trkpt lat="45.70501" lon="6.26278">
        <ele>1253.8</ele>
        <time>2022-01-13T05:11:18Z</time>
      </trkpt>
      <trkpt lat="45.705" lon="6.26277">
        <ele>1253.8</ele>
        <time>2022-01-13T05:11:19Z</time>
      </trkpt>
      <trkpt lat="45.70498" lon="6.26276">
        <ele>1253.8</ele>
        <time>2022-01-13T05:11:20Z</time>
      </trkpt>
      <trkpt lat="45.70497" lon="6.26275">
        <ele>1253.8</ele>
        <time>2022-01-13T05:11:21Z</time>
      </trkpt>
      <trkpt lat="45.70496" lon="6.26275">
        <ele>1253.8</ele>
        <time>2022-01-13T05:11:22Z</time>
      </trkpt>
      <trkpt lat="45.70496" lon="6.26274">
        <ele>1253.8</ele>
        <time>2022-01-13T05:11:23Z</time>
      </trkpt>
      <trkpt lat="45.70495" lon="6.26273">
        <ele>1254.7</ele>
        <time>2022-01-13T05:11:24Z</time>
      </trkpt>
      <trkpt lat="45.70494" lon="6.26271">
        <ele>1254.7</ele>
        <time>2022-01-13T05:11:25Z</time>
      </trkpt>
      <trkpt lat="45.70493" lon="6.2627">
        <ele>1254.7</ele>
        <time>2022-01-13T05:11:26Z</time>
      </trkpt>
      <trkpt lat="45.70492" lon="6.26269">
        <ele>1254.7</ele>
        <time>2022-01-13T05:11:27Z</time>
      </trkpt>
      <trkpt lat="45.70492" lon="6.26268">
        <ele>1254.7</ele>
        <time>2022-01-13T05:11:28Z</time>
      </trkpt>
      <trkpt lat="45.70491" lon="6.26267">
        <ele>1254.7</ele>
        <time>2022-01-13T05:11:29Z</time>
      </trkpt>
      <trkpt lat="45.7049" lon="6.26265">
        <ele>1254.7</ele>
        <time>2022-01-13T05:11:30Z</time>
      </trkpt>
      <trkpt lat="45.7049" lon="6.26264">
        <ele>1254.7</ele>
        <time>2022-01-13T05:11:31Z</time>
      </trkpt>
      <trkpt lat="45.70489" lon="6.26264">
        <ele>1254.7</ele>
        <time>2022-01-13T05:11:32Z</time>
      </trkpt>
      <trkpt lat="45.70488" lon="6.26263">
        <ele>1254.7</ele>
        <time>2022-01-13T05:11:33Z</time>
      </trkpt>
      <trkpt lat="45.70486" lon="6.26262">
        <ele>1255.8</ele>
        <time>2022-01-13T05:11:34Z</time>
      </trkpt>
      <trkpt lat="45.70485" lon="6.26261">
        <ele>1255.8</ele>
        <time>2022-01-13T05:11:35Z</time>
      </trkpt>
      <trkpt lat="45.70485" lon="6.2626">
        <ele>1256.7</ele>
        <time>2022-01-13T05:11:36Z</time>
      </trkpt>
      <trkpt lat="45.70485" lon="6.26259">
        <ele>1256.7</ele>
        <time>2022-01-13T05:11:37Z</time>
      </trkpt>
      <trkpt lat="45.70483" lon="6.26258">
        <ele>1256.7</ele>
        <time>2022-01-13T05:11:38Z</time>
      </trkpt>
      <trkpt lat="45.70482" lon="6.26257">
        <ele>1256.7</ele>
        <time>2022-01-13T05:11:39Z</time>
      </trkpt>
      <trkpt lat="45.70481" lon="6.26256">
        <ele>1256.7</ele>
        <time>2022-01-13T05:11:40Z</time>
      </trkpt>
      <trkpt lat="45.7048" lon="6.26255">
        <ele>1256.7</ele>
        <time>2022-01-13T05:11:41Z</time>
      </trkpt>
      <trkpt lat="45.7048" lon="6.26254">
        <ele>1256.7</ele>
        <time>2022-01-13T05:11:42Z</time>
      </trkpt>
      <trkpt lat="45.70478" lon="6.26253">
        <ele>1256.7</ele>
        <time>2022-01-13T05:11:43Z</time>
      </trkpt>
      <trkpt lat="45.70478" lon="6.26253">
        <ele>1257.8</ele>
        <time>2022-01-13T05:11:44Z</time>
      </trkpt>
      <trkpt lat="45.70477" lon="6.26251">
        <ele>1257.8</ele>
        <time>2022-01-13T05:11:45Z</time>
      </trkpt>
      <trkpt lat="45.70476" lon="6.2625">
        <ele>1257.8</ele>
        <time>2022-01-13T05:11:46Z</time>
      </trkpt>
      <trkpt lat="45.70475" lon="6.26249">
        <ele>1257.8</ele>
        <time>2022-01-13T05:11:47Z</time>
      </trkpt>
      <trkpt lat="45.70475" lon="6.26248">
        <ele>1258.8</ele>
        <time>2022-01-13T05:11:48Z</time>
      </trkpt>
      <trkpt lat="45.70474" lon="6.26248">
        <ele>1258.8</ele>
        <time>2022-01-13T05:11:49Z</time>
      </trkpt>
      <trkpt lat="45.70473" lon="6.26247">
        <ele>1258.8</ele>
        <time>2022-01-13T05:11:50Z</time>
      </trkpt>
      <trkpt lat="45.70472" lon="6.26246">
        <ele>1258.8</ele>
        <time>2022-01-13T05:11:51Z</time>
      </trkpt>
      <trkpt lat="45.70471" lon="6.26245">
        <ele>1258.8</ele>
        <time>2022-01-13T05:11:52Z</time>
      </trkpt>
      <trkpt lat="45.7047" lon="6.26243">
        <ele>1258.8</ele>
        <time>2022-01-13T05:11:53Z</time>
      </trkpt>
      <trkpt lat="45.7047" lon="6.26242">
        <ele>1259.8</ele>
        <time>2022-01-13T05:11:54Z</time>
      </trkpt>
      <trkpt lat="45.70469" lon="6.26241">
        <ele>1259.8</ele>
        <time>2022-01-13T05:11:55Z</time>
      </trkpt>
      <trkpt lat="45.70468" lon="6.2624">
        <ele>1259.8</ele>
        <time>2022-01-13T05:11:56Z</time>
      </trkpt>
      <trkpt lat="45.70467" lon="6.2624">
        <ele>1259.8</ele>
        <time>2022-01-13T05:11:57Z</time>
      </trkpt>
      <trkpt lat="45.70466" lon="6.26239">
        <ele>1259.8</ele>
        <time>2022-01-13T05:11:58Z</time>
      </trkpt>
      <trkpt lat="45.70465" lon="6.26239">
        <ele>1259.8</ele>
        <time>2022-01-13T05:11:59Z</time>
      </trkpt>
      <trkpt lat="45.70464" lon="6.26238">
        <ele>1259.8</ele>
        <time>2022-01-13T05:12:00Z</time>
      </trkpt>
      <trkpt lat="45.70462" lon="6.26237">
        <ele>1259.8</ele>
        <time>2022-01-13T05:12:01Z</time>
      </trkpt>
      <trkpt lat="45.7046" lon="6.26237">
        <ele>1260.8</ele>
        <time>2022-01-13T05:12:02Z</time>
      </trkpt>
      <trkpt lat="45.70459" lon="6.26236">
        <ele>1260.8</ele>
        <time>2022-01-13T05:12:03Z</time>
      </trkpt>
      <trkpt lat="45.70458" lon="6.26236">
        <ele>1260.8</ele>
        <time>2022-01-13T05:12:04Z</time>
      </trkpt>
      <trkpt lat="45.70457" lon="6.26235">
        <ele>1260.8</ele>
        <time>2022-01-13T05:12:05Z</time>
      </trkpt>
      <trkpt lat="45.70456" lon="6.26235">
        <ele>1261.7</ele>
        <time>2022-01-13T05:12:06Z</time>
      </trkpt>
      <trkpt lat="45.70455" lon="6.26235">
        <ele>1261.7</ele>
        <time>2022-01-13T05:12:07Z</time>
      </trkpt>
      <trkpt lat="45.70453" lon="6.26234">
        <ele>1261.7</ele>
        <time>2022-01-13T05:12:08Z</time>
      </trkpt>
      <trkpt lat="45.70452" lon="6.26234">
        <ele>1261.7</ele>
        <time>2022-01-13T05:12:09Z</time>
      </trkpt>
      <trkpt lat="45.7045" lon="6.26233">
        <ele>1262.8</ele>
        <time>2022-01-13T05:12:10Z</time>
      </trkpt>
      <trkpt lat="45.70449" lon="6.26233">
        <ele>1262.8</ele>
        <time>2022-01-13T05:12:11Z</time>
      </trkpt>
      <trkpt lat="45.70449" lon="6.26232">
        <ele>1262.8</ele>
        <time>2022-01-13T05:12:12Z</time>
      </trkpt>
      <trkpt lat="45.70447" lon="6.26232">
        <ele>1262.8</ele>
        <time>2022-01-13T05:12:13Z</time>
      </trkpt>
      <trkpt lat="45.70446" lon="6.26231">
        <ele>1263.7</ele>
        <time>2022-01-13T05:12:14Z</time>
      </trkpt>
      <trkpt lat="45.70444" lon="6.26231">
        <ele>1263.7</ele>
        <time>2022-01-13T05:12:15Z</time>
      </trkpt>
      <trkpt lat="45.70443" lon="6.26231">
        <ele>1263.7</ele>
        <time>2022-01-13T05:12:16Z</time>
      </trkpt>
      <trkpt lat="45.70442" lon="6.26231">
        <ele>1263.7</ele>
        <time>2022-01-13T05:12:17Z</time>
      </trkpt>
      <trkpt lat="45.70441" lon="6.26231">
        <ele>1263.7</ele>
        <time>2022-01-13T05:12:18Z</time>
      </trkpt>
      <trkpt lat="45.7044" lon="6.26231">
        <ele>1263.7</ele>
        <time>2022-01-13T05:12:19Z</time>
      </trkpt>
      <trkpt lat="45.70439" lon="6.26231">
        <ele>1264.8</ele>
        <time>2022-01-13T05:12:20Z</time>
      </trkpt>
      <trkpt lat="45.70438" lon="6.26231">
        <ele>1264.8</ele>
        <time>2022-01-13T05:12:21Z</time>
      </trkpt>
      <trkpt lat="45.70437" lon="6.26231">
        <ele>1264.8</ele>
        <time>2022-01-13T05:12:22Z</time>
      </trkpt>
      <trkpt lat="45.70436" lon="6.26232">
        <ele>1264.8</ele>
        <time>2022-01-13T05:12:23Z</time>
      </trkpt>
      <trkpt lat="45.70434" lon="6.26232">
        <ele>1265.7</ele>
        <time>2022-01-13T05:12:24Z</time>
      </trkpt>
      <trkpt lat="45.70432" lon="6.26232">
        <ele>1265.7</ele>
        <time>2022-01-13T05:12:25Z</time>
      </trkpt>
      <trkpt lat="45.70431" lon="6.26233">
        <ele>1265.7</ele>
        <time>2022-01-13T05:12:26Z</time>
      </trkpt>
      <trkpt lat="45.70429" lon="6.26234">
        <ele>1265.7</ele>
        <time>2022-01-13T05:12:27Z</time>
      </trkpt>
      <trkpt lat="45.70428" lon="6.26234">
        <ele>1265.7</ele>
        <time>2022-01-13T05:12:28Z</time>
      </trkpt>
      <trkpt lat="45.70427" lon="6.26234">
        <ele>1265.7</ele>
        <time>2022-01-13T05:12:29Z</time>
      </trkpt>
      <trkpt lat="45.70425" lon="6.26235">
        <ele>1266.8</ele>
        <time>2022-01-13T05:12:30Z</time>
      </trkpt>
      <trkpt lat="45.70424" lon="6.26235">
        <ele>1266.8</ele>
        <time>2022-01-13T05:12:31Z</time>
      </trkpt>
      <trkpt lat="45.70423" lon="6.26235">
        <ele>1266.8</ele>
        <time>2022-01-13T05:12:32Z</time>
      </trkpt>
      <trkpt lat="45.70422" lon="6.26235">
        <ele>1266.8</ele>
        <time>2022-01-13T05:12:33Z</time>
      </trkpt>
      <trkpt lat="45.7042" lon="6.26235">
        <ele>1266.8</ele>
        <time>2022-01-13T05:12:34Z</time>
      </trkpt>
      <trkpt lat="45.70418" lon="6.26235">
        <ele>1266.8</ele>
        <time>2022-01-13T05:12:35Z</time>
      </trkpt>
      <trkpt lat="45.70417" lon="6.26234">
        <ele>1266.8</ele>
        <time>2022-01-13T05:12:36Z</time>
      </trkpt>
      <trkpt lat="45.70416" lon="6.26234">
        <ele>1266.8</ele>
        <time>2022-01-13T05:12:37Z</time>
      </trkpt>
      <trkpt lat="45.70415" lon="6.26233">
        <ele>1266.8</ele>
        <time>2022-01-13T05:12:38Z</time>
      </trkpt>
      <trkpt lat="45.70413" lon="6.26232">
        <ele>1266.8</ele>
        <time>2022-01-13T05:12:39Z</time>
      </trkpt>
      <trkpt lat="45.70412" lon="6.26231">
        <ele>1266.8</ele>
        <time>2022-01-13T05:12:40Z</time>
      </trkpt>
      <trkpt lat="45.70411" lon="6.2623">
        <ele>1266.8</ele>
        <time>2022-01-13T05:12:41Z</time>
      </trkpt>
      <trkpt lat="45.70411" lon="6.26228">
        <ele>1268.7</ele>
        <time>2022-01-13T05:12:42Z</time>
      </trkpt>
      <trkpt lat="45.7041" lon="6.26226">
        <ele>1268.7</ele>
        <time>2022-01-13T05:12:43Z</time>
      </trkpt>
      <trkpt lat="45.7041" lon="6.26224">
        <ele>1268.7</ele>
        <time>2022-01-13T05:12:44Z</time>
      </trkpt>
      <trkpt lat="45.7041" lon="6.26222">
        <ele>1268.7</ele>
        <time>2022-01-13T05:12:45Z</time>
      </trkpt>
      <trkpt lat="45.7041" lon="6.2622">
        <ele>1269.8</ele>
        <time>2022-01-13T05:12:46Z</time>
      </trkpt>
      <trkpt lat="45.70411" lon="6.26218">
        <ele>1269.8</ele>
        <time>2022-01-13T05:12:47Z</time>
      </trkpt>
      <trkpt lat="45.70412" lon="6.26216">
        <ele>1269.8</ele>
        <time>2022-01-13T05:12:48Z</time>
      </trkpt>
      <trkpt lat="45.70413" lon="6.26215">
        <ele>1269.8</ele>
        <time>2022-01-13T05:12:49Z</time>
      </trkpt>
      <trkpt lat="45.70413" lon="6.26213">
        <ele>1269.8</ele>
        <time>2022-01-13T05:12:50Z</time>
      </trkpt>
      <trkpt lat="45.70415" lon="6.26212">
        <ele>1269.8</ele>
        <time>2022-01-13T05:12:51Z</time>
      </trkpt>
      <trkpt lat="45.70417" lon="6.2621">
        <ele>1270.7</ele>
        <time>2022-01-13T05:12:52Z</time>
      </trkpt>
      <trkpt lat="45.70418" lon="6.26209">
        <ele>1270.7</ele>
        <time>2022-01-13T05:12:53Z</time>
      </trkpt>
      <trkpt lat="45.7042" lon="6.26208">
        <ele>1270.7</ele>
        <time>2022-01-13T05:12:54Z</time>
      </trkpt>
      <trkpt lat="45.70421" lon="6.26207">
        <ele>1270.7</ele>
        <time>2022-01-13T05:12:55Z</time>
      </trkpt>
      <trkpt lat="45.70422" lon="6.26206">
        <ele>1270.7</ele>
        <time>2022-01-13T05:12:56Z</time>
      </trkpt>
      <trkpt lat="45.70424" lon="6.26205">
        <ele>1270.7</ele>
        <time>2022-01-13T05:12:57Z</time>
      </trkpt>
      <trkpt lat="45.70425" lon="6.26204">
        <ele>1271.8</ele>
        <time>2022-01-13T05:12:58Z</time>
      </trkpt>
      <trkpt lat="45.70426" lon="6.26204">
        <ele>1271.8</ele>
        <time>2022-01-13T05:12:59Z</time>
      </trkpt>
      <trkpt lat="45.70427" lon="6.26203">
        <ele>1271.8</ele>
        <time>2022-01-13T05:13:00Z</time>
      </trkpt>
      <trkpt lat="45.70428" lon="6.26202">
        <ele>1271.8</ele>
        <time>2022-01-13T05:13:01Z</time>
      </trkpt>
      <trkpt lat="45.70429" lon="6.26201">
        <ele>1272.7</ele>
        <time>2022-01-13T05:13:02Z</time>
      </trkpt>
      <trkpt lat="45.7043" lon="6.262">
        <ele>1272.7</ele>
        <time>2022-01-13T05:13:03Z</time>
      </trkpt>
      <trkpt lat="45.70431" lon="6.26199">
        <ele>1272.7</ele>
        <time>2022-01-13T05:13:04Z</time>
      </trkpt>
      <trkpt lat="45.70432" lon="6.26198">
        <ele>1272.7</ele>
        <time>2022-01-13T05:13:05Z</time>
      </trkpt>
      <trkpt lat="45.70432" lon="6.26196">
        <ele>1273.8</ele>
        <time>2022-01-13T05:13:06Z</time>
      </trkpt>
      <trkpt lat="45.70433" lon="6.26195">
        <ele>1273.8</ele>
        <time>2022-01-13T05:13:07Z</time>
      </trkpt>
      <trkpt lat="45.70434" lon="6.26193">
        <ele>1273.8</ele>
        <time>2022-01-13T05:13:08Z</time>
      </trkpt>
      <trkpt lat="45.70435" lon="6.26192">
        <ele>1273.8</ele>
        <time>2022-01-13T05:13:09Z</time>
      </trkpt>
      <trkpt lat="45.70436" lon="6.2619">
        <ele>1273.8</ele>
        <time>2022-01-13T05:13:10Z</time>
      </trkpt>
      <trkpt lat="45.70437" lon="6.2619">
        <ele>1273.8</ele>
        <time>2022-01-13T05:13:11Z</time>
      </trkpt>
      <trkpt lat="45.70435" lon="6.26189">
        <ele>1273.8</ele>
        <time>2022-01-13T05:13:12Z</time>
      </trkpt>
      <trkpt lat="45.70435" lon="6.26188">
        <ele>1273.8</ele>
        <time>2022-01-13T05:13:13Z</time>
      </trkpt>
      <trkpt lat="45.70433" lon="6.26187">
        <ele>1274.8</ele>
        <time>2022-01-13T05:13:14Z</time>
      </trkpt>
      <trkpt lat="45.70434" lon="6.26185">
        <ele>1274.8</ele>
        <time>2022-01-13T05:13:15Z</time>
      </trkpt>
      <trkpt lat="45.70435" lon="6.26184">
        <ele>1275.8</ele>
        <time>2022-01-13T05:13:16Z</time>
      </trkpt>
      <trkpt lat="45.70437" lon="6.26182">
        <ele>1275.8</ele>
        <time>2022-01-13T05:13:17Z</time>
      </trkpt>
      <trkpt lat="45.70439" lon="6.26182">
        <ele>1276.8</ele>
        <time>2022-01-13T05:13:18Z</time>
      </trkpt>
      <trkpt lat="45.7044" lon="6.26182">
        <ele>1276.8</ele>
        <time>2022-01-13T05:13:19Z</time>
      </trkpt>
      <trkpt lat="45.70441" lon="6.26183">
        <ele>1276.8</ele>
        <time>2022-01-13T05:13:20Z</time>
      </trkpt>
      <trkpt lat="45.70442" lon="6.26183">
        <ele>1276.8</ele>
        <time>2022-01-13T05:13:21Z</time>
      </trkpt>
      <trkpt lat="45.70443" lon="6.26183">
        <ele>1277.7</ele>
        <time>2022-01-13T05:13:22Z</time>
      </trkpt>
      <trkpt lat="45.70444" lon="6.26183">
        <ele>1277.7</ele>
        <time>2022-01-13T05:13:23Z</time>
      </trkpt>
      <trkpt lat="45.70445" lon="6.26182">
        <ele>1277.7</ele>
        <time>2022-01-13T05:13:24Z</time>
      </trkpt>
      <trkpt lat="45.70446" lon="6.26182">
        <ele>1277.7</ele>
        <time>2022-01-13T05:13:25Z</time>
      </trkpt>
      <trkpt lat="45.70447" lon="6.26181">
        <ele>1277.7</ele>
        <time>2022-01-13T05:13:26Z</time>
      </trkpt>
      <trkpt lat="45.70449" lon="6.26181">
        <ele>1277.7</ele>
        <time>2022-01-13T05:13:27Z</time>
      </trkpt>
      <trkpt lat="45.7045" lon="6.26181">
        <ele>1278.8</ele>
        <time>2022-01-13T05:13:28Z</time>
      </trkpt>
      <trkpt lat="45.70452" lon="6.26181">
        <ele>1278.8</ele>
        <time>2022-01-13T05:13:29Z</time>
      </trkpt>
      <trkpt lat="45.70453" lon="6.26181">
        <ele>1278.8</ele>
        <time>2022-01-13T05:13:30Z</time>
      </trkpt>
      <trkpt lat="45.70454" lon="6.26181">
        <ele>1278.8</ele>
        <time>2022-01-13T05:13:31Z</time>
      </trkpt>
      <trkpt lat="45.70455" lon="6.2618">
        <ele>1279.7</ele>
        <time>2022-01-13T05:13:32Z</time>
      </trkpt>
      <trkpt lat="45.70456" lon="6.2618">
        <ele>1279.7</ele>
        <time>2022-01-13T05:13:33Z</time>
      </trkpt>
      <trkpt lat="45.70457" lon="6.26179">
        <ele>1280.8</ele>
        <time>2022-01-13T05:13:34Z</time>
      </trkpt>
      <trkpt lat="45.70458" lon="6.26178">
        <ele>1280.8</ele>
        <time>2022-01-13T05:13:35Z</time>
      </trkpt>
      <trkpt lat="45.70459" lon="6.26178">
        <ele>1280.8</ele>
        <time>2022-01-13T05:13:36Z</time>
      </trkpt>
      <trkpt lat="45.7046" lon="6.26177">
        <ele>1280.8</ele>
        <time>2022-01-13T05:13:37Z</time>
      </trkpt>
      <trkpt lat="45.70461" lon="6.26176">
        <ele>1280.8</ele>
        <time>2022-01-13T05:13:38Z</time>
      </trkpt>
      <trkpt lat="45.70462" lon="6.26175">
        <ele>1280.8</ele>
        <time>2022-01-13T05:13:39Z</time>
      </trkpt>
      <trkpt lat="45.70463" lon="6.26174">
        <ele>1281.7</ele>
        <time>2022-01-13T05:13:40Z</time>
      </trkpt>
      <trkpt lat="45.70463" lon="6.26173">
        <ele>1281.7</ele>
        <time>2022-01-13T05:13:41Z</time>
      </trkpt>
      <trkpt lat="45.70463" lon="6.26171">
        <ele>1281.7</ele>
        <time>2022-01-13T05:13:42Z</time>
      </trkpt>
      <trkpt lat="45.70462" lon="6.26171">
        <ele>1281.7</ele>
        <time>2022-01-13T05:13:43Z</time>
      </trkpt>
      <trkpt lat="45.70462" lon="6.2617">
        <ele>1281.7</ele>
        <time>2022-01-13T05:13:44Z</time>
      </trkpt>
      <trkpt lat="45.70461" lon="6.26169">
        <ele>1281.7</ele>
        <time>2022-01-13T05:13:45Z</time>
      </trkpt>
      <trkpt lat="45.70461" lon="6.26168">
        <ele>1282.8</ele>
        <time>2022-01-13T05:13:46Z</time>
      </trkpt>
      <trkpt lat="45.70459" lon="6.26167">
        <ele>1282.8</ele>
        <time>2022-01-13T05:13:47Z</time>
      </trkpt>
      <trkpt lat="45.70459" lon="6.26167">
        <ele>1282.8</ele>
        <time>2022-01-13T05:13:48Z</time>
      </trkpt>
      <trkpt lat="45.70458" lon="6.26167">
        <ele>1282.8</ele>
        <time>2022-01-13T05:13:49Z</time>
      </trkpt>
      <trkpt lat="45.70457" lon="6.26166">
        <ele>1283.8</ele>
        <time>2022-01-13T05:13:50Z</time>
      </trkpt>
      <trkpt lat="45.70456" lon="6.26166">
        <ele>1283.8</ele>
        <time>2022-01-13T05:13:51Z</time>
      </trkpt>
      <trkpt lat="45.70455" lon="6.26166">
        <ele>1284.7</ele>
        <time>2022-01-13T05:13:52Z</time>
      </trkpt>
      <trkpt lat="45.70454" lon="6.26165">
        <ele>1284.7</ele>
        <time>2022-01-13T05:13:53Z</time>
      </trkpt>
      <trkpt lat="45.70453" lon="6.26165">
        <ele>1284.7</ele>
        <time>2022-01-13T05:13:54Z</time>
      </trkpt>
      <trkpt lat="45.70452" lon="6.26165">
        <ele>1284.7</ele>
        <time>2022-01-13T05:13:55Z</time>
      </trkpt>
      <trkpt lat="45.70451" lon="6.26165">
        <ele>1284.7</ele>
        <time>2022-01-13T05:13:56Z</time>
      </trkpt>
      <trkpt lat="45.7045" lon="6.26165">
        <ele>1284.7</ele>
        <time>2022-01-13T05:13:57Z</time>
      </trkpt>
      <trkpt lat="45.70448" lon="6.26165">
        <ele>1285.8</ele>
        <time>2022-01-13T05:13:58Z</time>
      </trkpt>
      <trkpt lat="45.70447" lon="6.26165">
        <ele>1285.8</ele>
        <time>2022-01-13T05:13:59Z</time>
      </trkpt>
      <trkpt lat="45.70446" lon="6.26165">
        <ele>1285.8</ele>
        <time>2022-01-13T05:14:00Z</time>
      </trkpt>
      <trkpt lat="45.70444" lon="6.26165">
        <ele>1285.8</ele>
        <time>2022-01-13T05:14:01Z</time>
      </trkpt>
      <trkpt lat="45.70443" lon="6.26165">
        <ele>1286.7</ele>
        <time>2022-01-13T05:14:02Z</time>
      </trkpt>
      <trkpt lat="45.70442" lon="6.26164">
        <ele>1286.7</ele>
        <time>2022-01-13T05:14:03Z</time>
      </trkpt>
      <trkpt lat="45.70441" lon="6.26164">
        <ele>1286.7</ele>
        <time>2022-01-13T05:14:04Z</time>
      </trkpt>
      <trkpt lat="45.70439" lon="6.26164">
        <ele>1286.7</ele>
        <time>2022-01-13T05:14:05Z</time>
      </trkpt>
      <trkpt lat="45.70438" lon="6.26164">
        <ele>1287.8</ele>
        <time>2022-01-13T05:14:06Z</time>
      </trkpt>
      <trkpt lat="45.70436" lon="6.26164">
        <ele>1287.8</ele>
        <time>2022-01-13T05:14:07Z</time>
      </trkpt>
      <trkpt lat="45.70435" lon="6.26163">
        <ele>1288.7</ele>
        <time>2022-01-13T05:14:08Z</time>
      </trkpt>
      <trkpt lat="45.70434" lon="6.26163">
        <ele>1288.7</ele>
        <time>2022-01-13T05:14:09Z</time>
      </trkpt>
      <trkpt lat="45.70433" lon="6.26162">
        <ele>1288.7</ele>
        <time>2022-01-13T05:14:10Z</time>
      </trkpt>
      <trkpt lat="45.70432" lon="6.26162">
        <ele>1288.7</ele>
        <time>2022-01-13T05:14:11Z</time>
      </trkpt>
      <trkpt lat="45.70431" lon="6.26161">
        <ele>1288.7</ele>
        <time>2022-01-13T05:14:12Z</time>
      </trkpt>
      <trkpt lat="45.7043" lon="6.26161">
        <ele>1288.7</ele>
        <time>2022-01-13T05:14:13Z</time>
      </trkpt>
      <trkpt lat="45.70428" lon="6.26161">
        <ele>1288.7</ele>
        <time>2022-01-13T05:14:14Z</time>
      </trkpt>
      <trkpt lat="45.70428" lon="6.2616">
        <ele>1288.7</ele>
        <time>2022-01-13T05:14:15Z</time>
      </trkpt>
      <trkpt lat="45.70427" lon="6.2616">
        <ele>1288.7</ele>
        <time>2022-01-13T05:14:16Z</time>
      </trkpt>
      <trkpt lat="45.70425" lon="6.26159">
        <ele>1288.7</ele>
        <time>2022-01-13T05:14:17Z</time>
      </trkpt>
      <trkpt lat="45.70424" lon="6.26159">
        <ele>1289.8</ele>
        <time>2022-01-13T05:14:18Z</time>
      </trkpt>
      <trkpt lat="45.70422" lon="6.26158">
        <ele>1289.8</ele>
        <time>2022-01-13T05:14:19Z</time>
      </trkpt>
      <trkpt lat="45.70421" lon="6.26158">
        <ele>1289.8</ele>
        <time>2022-01-13T05:14:20Z</time>
      </trkpt>
      <trkpt lat="45.7042" lon="6.26158">
        <ele>1289.8</ele>
        <time>2022-01-13T05:14:21Z</time>
      </trkpt>
      <trkpt lat="45.70419" lon="6.26158">
        <ele>1289.8</ele>
        <time>2022-01-13T05:14:22Z</time>
      </trkpt>
      <trkpt lat="45.70417" lon="6.26158">
        <ele>1289.8</ele>
        <time>2022-01-13T05:14:23Z</time>
      </trkpt>
      <trkpt lat="45.70416" lon="6.26157">
        <ele>1290.8</ele>
        <time>2022-01-13T05:14:24Z</time>
      </trkpt>
      <trkpt lat="45.70414" lon="6.26157">
        <ele>1290.8</ele>
        <time>2022-01-13T05:14:25Z</time>
      </trkpt>
      <trkpt lat="45.70413" lon="6.26156">
        <ele>1291.8</ele>
        <time>2022-01-13T05:14:26Z</time>
      </trkpt>
      <trkpt lat="45.70412" lon="6.26155">
        <ele>1291.8</ele>
        <time>2022-01-13T05:14:27Z</time>
      </trkpt>
      <trkpt lat="45.70411" lon="6.26155">
        <ele>1291.8</ele>
        <time>2022-01-13T05:14:28Z</time>
      </trkpt>
      <trkpt lat="45.70409" lon="6.26155">
        <ele>1291.8</ele>
        <time>2022-01-13T05:14:29Z</time>
      </trkpt>
      <trkpt lat="45.70408" lon="6.26154">
        <ele>1291.8</ele>
        <time>2022-01-13T05:14:30Z</time>
      </trkpt>
      <trkpt lat="45.70408" lon="6.26153">
        <ele>1291.8</ele>
        <time>2022-01-13T05:14:31Z</time>
      </trkpt>
      <trkpt lat="45.70407" lon="6.26152">
        <ele>1291.8</ele>
        <time>2022-01-13T05:14:32Z</time>
      </trkpt>
      <trkpt lat="45.70406" lon="6.26152">
        <ele>1291.8</ele>
        <time>2022-01-13T05:14:33Z</time>
      </trkpt>
      <trkpt lat="45.70405" lon="6.26152">
        <ele>1292.8</ele>
        <time>2022-01-13T05:14:34Z</time>
      </trkpt>
      <trkpt lat="45.70404" lon="6.26151">
        <ele>1292.8</ele>
        <time>2022-01-13T05:14:35Z</time>
      </trkpt>
      <trkpt lat="45.70403" lon="6.26151">
        <ele>1292.8</ele>
        <time>2022-01-13T05:14:36Z</time>
      </trkpt>
      <trkpt lat="45.70402" lon="6.2615">
        <ele>1292.8</ele>
        <time>2022-01-13T05:14:37Z</time>
      </trkpt>
      <trkpt lat="45.70401" lon="6.2615">
        <ele>1293.7</ele>
        <time>2022-01-13T05:14:38Z</time>
      </trkpt>
      <trkpt lat="45.704" lon="6.26149">
        <ele>1293.7</ele>
        <time>2022-01-13T05:14:39Z</time>
      </trkpt>
      <trkpt lat="45.704" lon="6.26148">
        <ele>1293.7</ele>
        <time>2022-01-13T05:14:40Z</time>
      </trkpt>
      <trkpt lat="45.70399" lon="6.26147">
        <ele>1293.7</ele>
        <time>2022-01-13T05:14:41Z</time>
      </trkpt>
      <trkpt lat="45.70398" lon="6.26147">
        <ele>1294.8</ele>
        <time>2022-01-13T05:14:42Z</time>
      </trkpt>
      <trkpt lat="45.70397" lon="6.26146">
        <ele>1294.8</ele>
        <time>2022-01-13T05:14:43Z</time>
      </trkpt>
      <trkpt lat="45.70396" lon="6.26145">
        <ele>1294.8</ele>
        <time>2022-01-13T05:14:44Z</time>
      </trkpt>
      <trkpt lat="45.70395" lon="6.26145">
        <ele>1294.8</ele>
        <time>2022-01-13T05:14:45Z</time>
      </trkpt>
      <trkpt lat="45.70394" lon="6.26144">
        <ele>1295.7</ele>
        <time>2022-01-13T05:14:46Z</time>
      </trkpt>
      <trkpt lat="45.70393" lon="6.26144">
        <ele>1295.7</ele>
        <time>2022-01-13T05:14:47Z</time>
      </trkpt>
      <trkpt lat="45.70392" lon="6.26144">
        <ele>1296.8</ele>
        <time>2022-01-13T05:14:48Z</time>
      </trkpt>
      <trkpt lat="45.70391" lon="6.26144">
        <ele>1296.8</ele>
        <time>2022-01-13T05:14:49Z</time>
      </trkpt>
      <trkpt lat="45.7039" lon="6.26144">
        <ele>1296.8</ele>
        <time>2022-01-13T05:14:50Z</time>
      </trkpt>
      <trkpt lat="45.70389" lon="6.26144">
        <ele>1296.8</ele>
        <time>2022-01-13T05:14:51Z</time>
      </trkpt>
      <trkpt lat="45.70388" lon="6.26143">
        <ele>1296.8</ele>
        <time>2022-01-13T05:14:52Z</time>
      </trkpt>
      <trkpt lat="45.70387" lon="6.26143">
        <ele>1296.8</ele>
        <time>2022-01-13T05:14:53Z</time>
      </trkpt>
      <trkpt lat="45.70386" lon="6.26143">
        <ele>1296.8</ele>
        <time>2022-01-13T05:14:54Z</time>
      </trkpt>
      <trkpt lat="45.70385" lon="6.26142">
        <ele>1296.8</ele>
        <time>2022-01-13T05:14:55Z</time>
      </trkpt>
      <trkpt lat="45.70383" lon="6.26142">
        <ele>1297.7</ele>
        <time>2022-01-13T05:14:56Z</time>
      </trkpt>
      <trkpt lat="45.70382" lon="6.26142">
        <ele>1297.7</ele>
        <time>2022-01-13T05:14:57Z</time>
      </trkpt>
      <trkpt lat="45.70381" lon="6.26142">
        <ele>1298.8</ele>
        <time>2022-01-13T05:14:58Z</time>
      </trkpt>
      <trkpt lat="45.7038" lon="6.26142">
        <ele>1298.8</ele>
        <time>2022-01-13T05:14:59Z</time>
      </trkpt>
      <trkpt lat="45.70379" lon="6.26141">
        <ele>1298.8</ele>
        <time>2022-01-13T05:15:00Z</time>
      </trkpt>
      <trkpt lat="45.70378" lon="6.26141">
        <ele>1298.8</ele>
        <time>2022-01-13T05:15:01Z</time>
      </trkpt>
      <trkpt lat="45.70376" lon="6.26141">
        <ele>1298.8</ele>
        <time>2022-01-13T05:15:02Z</time>
      </trkpt>
      <trkpt lat="45.70375" lon="6.2614">
        <ele>1298.8</ele>
        <time>2022-01-13T05:15:03Z</time>
      </trkpt>
      <trkpt lat="45.70374" lon="6.26139">
        <ele>1298.8</ele>
        <time>2022-01-13T05:15:04Z</time>
      </trkpt>
      <trkpt lat="45.70373" lon="6.26139">
        <ele>1298.8</ele>
        <time>2022-01-13T05:15:05Z</time>
      </trkpt>
      <trkpt lat="45.70372" lon="6.26139">
        <ele>1298.8</ele>
        <time>2022-01-13T05:15:06Z</time>
      </trkpt>
      <trkpt lat="45.7037" lon="6.26139">
        <ele>1298.8</ele>
        <time>2022-01-13T05:15:07Z</time>
      </trkpt>
      <trkpt lat="45.70369" lon="6.26139">
        <ele>1300.8</ele>
        <time>2022-01-13T05:15:08Z</time>
      </trkpt>
      <trkpt lat="45.70368" lon="6.26137">
        <ele>1300.8</ele>
        <time>2022-01-13T05:15:09Z</time>
      </trkpt>
      <trkpt lat="45.70367" lon="6.26136">
        <ele>1300.8</ele>
        <time>2022-01-13T05:15:10Z</time>
      </trkpt>
      <trkpt lat="45.70366" lon="6.26136">
        <ele>1300.8</ele>
        <time>2022-01-13T05:15:11Z</time>
      </trkpt>
      <trkpt lat="45.70365" lon="6.26135">
        <ele>1300.8</ele>
        <time>2022-01-13T05:15:12Z</time>
      </trkpt>
      <trkpt lat="45.70364" lon="6.26134">
        <ele>1300.8</ele>
        <time>2022-01-13T05:15:13Z</time>
      </trkpt>
      <trkpt lat="45.70363" lon="6.26133">
        <ele>1301.8</ele>
        <time>2022-01-13T05:15:14Z</time>
      </trkpt>
      <trkpt lat="45.70361" lon="6.26132">
        <ele>1301.8</ele>
        <time>2022-01-13T05:15:15Z</time>
      </trkpt>
      <trkpt lat="45.7036" lon="6.26131">
        <ele>1301.8</ele>
        <time>2022-01-13T05:15:16Z</time>
      </trkpt>
      <trkpt lat="45.70359" lon="6.2613">
        <ele>1301.8</ele>
        <time>2022-01-13T05:15:17Z</time>
      </trkpt>
      <trkpt lat="45.70358" lon="6.26128">
        <ele>1301.8</ele>
        <time>2022-01-13T05:15:18Z</time>
      </trkpt>
      <trkpt lat="45.70358" lon="6.26126">
        <ele>1301.8</ele>
        <time>2022-01-13T05:15:19Z</time>
      </trkpt>
      <trkpt lat="45.70357" lon="6.26125">
        <ele>1302.7</ele>
        <time>2022-01-13T05:15:20Z</time>
      </trkpt>
      <trkpt lat="45.70357" lon="6.26123">
        <ele>1302.7</ele>
        <time>2022-01-13T05:15:21Z</time>
      </trkpt>
      <trkpt lat="45.70357" lon="6.26121">
        <ele>1303.8</ele>
        <time>2022-01-13T05:15:22Z</time>
      </trkpt>
      <trkpt lat="45.70356" lon="6.2612">
        <ele>1303.8</ele>
        <time>2022-01-13T05:15:23Z</time>
      </trkpt>
      <trkpt lat="45.70355" lon="6.2612">
        <ele>1303.8</ele>
        <time>2022-01-13T05:15:24Z</time>
      </trkpt>
      <trkpt lat="45.70355" lon="6.26119">
        <ele>1303.8</ele>
        <time>2022-01-13T05:15:25Z</time>
      </trkpt>
      <trkpt lat="45.70354" lon="6.26118">
        <ele>1304.7</ele>
        <time>2022-01-13T05:15:26Z</time>
      </trkpt>
      <trkpt lat="45.70353" lon="6.26118">
        <ele>1304.7</ele>
        <time>2022-01-13T05:15:27Z</time>
      </trkpt>
      <trkpt lat="45.70352" lon="6.26117">
        <ele>1304.7</ele>
        <time>2022-01-13T05:15:28Z</time>
      </trkpt>
      <trkpt lat="45.70351" lon="6.26115">
        <ele>1304.7</ele>
        <time>2022-01-13T05:15:29Z</time>
      </trkpt>
      <trkpt lat="45.70351" lon="6.26114">
        <ele>1304.7</ele>
        <time>2022-01-13T05:15:30Z</time>
      </trkpt>
      <trkpt lat="45.7035" lon="6.26113">
        <ele>1304.7</ele>
        <time>2022-01-13T05:15:31Z</time>
      </trkpt>
      <trkpt lat="45.70349" lon="6.26112">
        <ele>1304.7</ele>
        <time>2022-01-13T05:15:32Z</time>
      </trkpt>
      <trkpt lat="45.70348" lon="6.2611">
        <ele>1304.7</ele>
        <time>2022-01-13T05:15:33Z</time>
      </trkpt>
      <trkpt lat="45.70347" lon="6.26109">
        <ele>1306.8</ele>
        <time>2022-01-13T05:15:34Z</time>
      </trkpt>
      <trkpt lat="45.70346" lon="6.26108">
        <ele>1306.8</ele>
        <time>2022-01-13T05:15:35Z</time>
      </trkpt>
      <trkpt lat="45.70345" lon="6.26107">
        <ele>1306.8</ele>
        <time>2022-01-13T05:15:36Z</time>
      </trkpt>
      <trkpt lat="45.70345" lon="6.26106">
        <ele>1306.8</ele>
        <time>2022-01-13T05:15:37Z</time>
      </trkpt>
      <trkpt lat="45.70344" lon="6.26105">
        <ele>1306.8</ele>
        <time>2022-01-13T05:15:38Z</time>
      </trkpt>
      <trkpt lat="45.70343" lon="6.26103">
        <ele>1306.8</ele>
        <time>2022-01-13T05:15:39Z</time>
      </trkpt>
      <trkpt lat="45.70342" lon="6.26102">
        <ele>1307.8</ele>
        <time>2022-01-13T05:15:40Z</time>
      </trkpt>
      <trkpt lat="45.70341" lon="6.26102">
        <ele>1307.8</ele>
        <time>2022-01-13T05:15:41Z</time>
      </trkpt>
      <trkpt lat="45.7034" lon="6.26101">
        <ele>1308.8</ele>
        <time>2022-01-13T05:15:42Z</time>
      </trkpt>
      <trkpt lat="45.70339" lon="6.261">
        <ele>1308.8</ele>
        <time>2022-01-13T05:15:43Z</time>
      </trkpt>
      <trkpt lat="45.70338" lon="6.261">
        <ele>1308.8</ele>
        <time>2022-01-13T05:15:44Z</time>
      </trkpt>
      <trkpt lat="45.70337" lon="6.26099">
        <ele>1308.8</ele>
        <time>2022-01-13T05:15:45Z</time>
      </trkpt>
      <trkpt lat="45.70336" lon="6.26098">
        <ele>1309.7</ele>
        <time>2022-01-13T05:15:46Z</time>
      </trkpt>
      <trkpt lat="45.70335" lon="6.26098">
        <ele>1309.7</ele>
        <time>2022-01-13T05:15:47Z</time>
      </trkpt>
      <trkpt lat="45.70335" lon="6.26096">
        <ele>1309.7</ele>
        <time>2022-01-13T05:15:48Z</time>
      </trkpt>
      <trkpt lat="45.70334" lon="6.26096">
        <ele>1309.7</ele>
        <time>2022-01-13T05:15:49Z</time>
      </trkpt>
      <trkpt lat="45.70333" lon="6.26095">
        <ele>1310.8</ele>
        <time>2022-01-13T05:15:50Z</time>
      </trkpt>
      <trkpt lat="45.70332" lon="6.26095">
        <ele>1310.8</ele>
        <time>2022-01-13T05:15:51Z</time>
      </trkpt>
      <trkpt lat="45.70331" lon="6.26094">
        <ele>1310.8</ele>
        <time>2022-01-13T05:15:52Z</time>
      </trkpt>
      <trkpt lat="45.70329" lon="6.26093">
        <ele>1310.8</ele>
        <time>2022-01-13T05:15:53Z</time>
      </trkpt>
      <trkpt lat="45.70328" lon="6.26093">
        <ele>1310.8</ele>
        <time>2022-01-13T05:15:54Z</time>
      </trkpt>
      <trkpt lat="45.70327" lon="6.26092">
        <ele>1310.8</ele>
        <time>2022-01-13T05:15:55Z</time>
      </trkpt>
      <trkpt lat="45.70327" lon="6.26091">
        <ele>1310.8</ele>
        <time>2022-01-13T05:15:56Z</time>
      </trkpt>
      <trkpt lat="45.70326" lon="6.2609">
        <ele>1310.8</ele>
        <time>2022-01-13T05:15:57Z</time>
      </trkpt>
      <trkpt lat="45.70325" lon="6.26089">
        <ele>1311.7</ele>
        <time>2022-01-13T05:15:58Z</time>
      </trkpt>
      <trkpt lat="45.70323" lon="6.26088">
        <ele>1311.7</ele>
        <time>2022-01-13T05:15:59Z</time>
      </trkpt>
      <trkpt lat="45.70322" lon="6.26087">
        <ele>1311.7</ele>
        <time>2022-01-13T05:16:00Z</time>
      </trkpt>
      <trkpt lat="45.70322" lon="6.26087">
        <ele>1311.7</ele>
        <time>2022-01-13T05:16:01Z</time>
      </trkpt>
      <trkpt lat="45.7032" lon="6.26086">
        <ele>1313.7</ele>
        <time>2022-01-13T05:16:02Z</time>
      </trkpt>
      <trkpt lat="45.7032" lon="6.26085">
        <ele>1313.7</ele>
        <time>2022-01-13T05:16:03Z</time>
      </trkpt>
      <trkpt lat="45.70319" lon="6.26084">
        <ele>1313.7</ele>
        <time>2022-01-13T05:16:04Z</time>
      </trkpt>
      <trkpt lat="45.70318" lon="6.26083">
        <ele>1313.7</ele>
        <time>2022-01-13T05:16:05Z</time>
      </trkpt>
      <trkpt lat="45.70317" lon="6.26082">
        <ele>1313.7</ele>
        <time>2022-01-13T05:16:06Z</time>
      </trkpt>
      <trkpt lat="45.70316" lon="6.26081">
        <ele>1313.7</ele>
        <time>2022-01-13T05:16:07Z</time>
      </trkpt>
      <trkpt lat="45.70315" lon="6.2608">
        <ele>1313.7</ele>
        <time>2022-01-13T05:16:08Z</time>
      </trkpt>
      <trkpt lat="45.70314" lon="6.26079">
        <ele>1313.7</ele>
        <time>2022-01-13T05:16:09Z</time>
      </trkpt>
      <trkpt lat="45.70313" lon="6.26078">
        <ele>1313.7</ele>
        <time>2022-01-13T05:16:10Z</time>
      </trkpt>
      <trkpt lat="45.70312" lon="6.26077">
        <ele>1313.7</ele>
        <time>2022-01-13T05:16:11Z</time>
      </trkpt>
      <trkpt lat="45.70311" lon="6.26076">
        <ele>1313.7</ele>
        <time>2022-01-13T05:16:12Z</time>
      </trkpt>
      <trkpt lat="45.7031" lon="6.26075">
        <ele>1313.7</ele>
        <time>2022-01-13T05:16:13Z</time>
      </trkpt>
      <trkpt lat="45.70309" lon="6.26075">
        <ele>1316.8</ele>
        <time>2022-01-13T05:16:14Z</time>
      </trkpt>
      <trkpt lat="45.70308" lon="6.26074">
        <ele>1316.8</ele>
        <time>2022-01-13T05:16:15Z</time>
      </trkpt>
      <trkpt lat="45.70306" lon="6.26073">
        <ele>1316.8</ele>
        <time>2022-01-13T05:16:16Z</time>
      </trkpt>
      <trkpt lat="45.70305" lon="6.26072">
        <ele>1316.8</ele>
        <time>2022-01-13T05:16:17Z</time>
      </trkpt>
      <trkpt lat="45.70305" lon="6.26071">
        <ele>1316.8</ele>
        <time>2022-01-13T05:16:18Z</time>
      </trkpt>
      <trkpt lat="45.70304" lon="6.26071">
        <ele>1316.8</ele>
        <time>2022-01-13T05:16:19Z</time>
      </trkpt>
      <trkpt lat="45.70303" lon="6.2607">
        <ele>1316.8</ele>
        <time>2022-01-13T05:16:20Z</time>
      </trkpt>
      <trkpt lat="45.70302" lon="6.26068">
        <ele>1316.8</ele>
        <time>2022-01-13T05:16:21Z</time>
      </trkpt>
      <trkpt lat="45.70301" lon="6.26067">
        <ele>1318.7</ele>
        <time>2022-01-13T05:16:22Z</time>
      </trkpt>
      <trkpt lat="45.703" lon="6.26066">
        <ele>1318.7</ele>
        <time>2022-01-13T05:16:23Z</time>
      </trkpt>
      <trkpt lat="45.70299" lon="6.26065">
        <ele>1318.7</ele>
        <time>2022-01-13T05:16:24Z</time>
      </trkpt>
      <trkpt lat="45.70298" lon="6.26064">
        <ele>1318.7</ele>
        <time>2022-01-13T05:16:25Z</time>
      </trkpt>
      <trkpt lat="45.70297" lon="6.26063">
        <ele>1319.8</ele>
        <time>2022-01-13T05:16:26Z</time>
      </trkpt>
      <trkpt lat="45.70297" lon="6.26062">
        <ele>1319.8</ele>
        <time>2022-01-13T05:16:27Z</time>
      </trkpt>
      <trkpt lat="45.70295" lon="6.2606">
        <ele>1319.8</ele>
        <time>2022-01-13T05:16:28Z</time>
      </trkpt>
      <trkpt lat="45.70295" lon="6.2606">
        <ele>1319.8</ele>
        <time>2022-01-13T05:16:29Z</time>
      </trkpt>
      <trkpt lat="45.70293" lon="6.26058">
        <ele>1319.8</ele>
        <time>2022-01-13T05:16:30Z</time>
      </trkpt>
      <trkpt lat="45.70293" lon="6.26057">
        <ele>1319.8</ele>
        <time>2022-01-13T05:16:31Z</time>
      </trkpt>
      <trkpt lat="45.70292" lon="6.26057">
        <ele>1319.8</ele>
        <time>2022-01-13T05:16:32Z</time>
      </trkpt>
      <trkpt lat="45.70291" lon="6.26056">
        <ele>1319.8</ele>
        <time>2022-01-13T05:16:33Z</time>
      </trkpt>
      <trkpt lat="45.7029" lon="6.26055">
        <ele>1319.8</ele>
        <time>2022-01-13T05:16:34Z</time>
      </trkpt>
      <trkpt lat="45.70288" lon="6.26054">
        <ele>1319.8</ele>
        <time>2022-01-13T05:16:35Z</time>
      </trkpt>
      <trkpt lat="45.70287" lon="6.26054">
        <ele>1320.7</ele>
        <time>2022-01-13T05:16:36Z</time>
      </trkpt>
      <trkpt lat="45.70286" lon="6.26053">
        <ele>1320.7</ele>
        <time>2022-01-13T05:16:37Z</time>
      </trkpt>
      <trkpt lat="45.70285" lon="6.26052">
        <ele>1320.7</ele>
        <time>2022-01-13T05:16:38Z</time>
      </trkpt>
      <trkpt lat="45.70284" lon="6.26051">
        <ele>1320.7</ele>
        <time>2022-01-13T05:16:39Z</time>
      </trkpt>
      <trkpt lat="45.70283" lon="6.2605">
        <ele>1321.8</ele>
        <time>2022-01-13T05:16:40Z</time>
      </trkpt>
      <trkpt lat="45.70282" lon="6.2605">
        <ele>1321.8</ele>
        <time>2022-01-13T05:16:41Z</time>
      </trkpt>
      <trkpt lat="45.70281" lon="6.26049">
        <ele>1321.8</ele>
        <time>2022-01-13T05:16:42Z</time>
      </trkpt>
      <trkpt lat="45.7028" lon="6.26049">
        <ele>1321.8</ele>
        <time>2022-01-13T05:16:43Z</time>
      </trkpt>
      <trkpt lat="45.70279" lon="6.26048">
        <ele>1322.8</ele>
        <time>2022-01-13T05:16:44Z</time>
      </trkpt>
      <trkpt lat="45.70278" lon="6.26048">
        <ele>1322.8</ele>
        <time>2022-01-13T05:16:45Z</time>
      </trkpt>
      <trkpt lat="45.70276" lon="6.26048">
        <ele>1322.8</ele>
        <time>2022-01-13T05:16:46Z</time>
      </trkpt>
      <trkpt lat="45.70275" lon="6.26047">
        <ele>1322.8</ele>
        <time>2022-01-13T05:16:47Z</time>
      </trkpt>
      <trkpt lat="45.70274" lon="6.26046">
        <ele>1323.8</ele>
        <time>2022-01-13T05:16:48Z</time>
      </trkpt>
      <trkpt lat="45.70273" lon="6.26046">
        <ele>1323.8</ele>
        <time>2022-01-13T05:16:49Z</time>
      </trkpt>
      <trkpt lat="45.70272" lon="6.26046">
        <ele>1323.8</ele>
        <time>2022-01-13T05:16:50Z</time>
      </trkpt>
      <trkpt lat="45.7027" lon="6.26045">
        <ele>1323.8</ele>
        <time>2022-01-13T05:16:51Z</time>
      </trkpt>
      <trkpt lat="45.70269" lon="6.26044">
        <ele>1323.8</ele>
        <time>2022-01-13T05:16:52Z</time>
      </trkpt>
      <trkpt lat="45.70268" lon="6.26044">
        <ele>1323.8</ele>
        <time>2022-01-13T05:16:53Z</time>
      </trkpt>
      <trkpt lat="45.70267" lon="6.26043">
        <ele>1324.8</ele>
        <time>2022-01-13T05:16:54Z</time>
      </trkpt>
      <trkpt lat="45.70266" lon="6.26043">
        <ele>1324.8</ele>
        <time>2022-01-13T05:16:55Z</time>
      </trkpt>
      <trkpt lat="45.70265" lon="6.26042">
        <ele>1324.8</ele>
        <time>2022-01-13T05:16:56Z</time>
      </trkpt>
      <trkpt lat="45.70264" lon="6.26042">
        <ele>1324.8</ele>
        <time>2022-01-13T05:16:57Z</time>
      </trkpt>
      <trkpt lat="45.70263" lon="6.26041">
        <ele>1325.7</ele>
        <time>2022-01-13T05:16:58Z</time>
      </trkpt>
      <trkpt lat="45.70262" lon="6.26041">
        <ele>1325.7</ele>
        <time>2022-01-13T05:16:59Z</time>
      </trkpt>
      <trkpt lat="45.70261" lon="6.2604">
        <ele>1325.7</ele>
        <time>2022-01-13T05:17:00Z</time>
      </trkpt>
      <trkpt lat="45.7026" lon="6.2604">
        <ele>1325.7</ele>
        <time>2022-01-13T05:17:01Z</time>
      </trkpt>
      <trkpt lat="45.70258" lon="6.26039">
        <ele>1326.8</ele>
        <time>2022-01-13T05:17:02Z</time>
      </trkpt>
      <trkpt lat="45.70257" lon="6.26039">
        <ele>1326.8</ele>
        <time>2022-01-13T05:17:03Z</time>
      </trkpt>
      <trkpt lat="45.70256" lon="6.26038">
        <ele>1326.8</ele>
        <time>2022-01-13T05:17:04Z</time>
      </trkpt>
      <trkpt lat="45.70255" lon="6.26037">
        <ele>1326.8</ele>
        <time>2022-01-13T05:17:05Z</time>
      </trkpt>
      <trkpt lat="45.70254" lon="6.26037">
        <ele>1326.8</ele>
        <time>2022-01-13T05:17:06Z</time>
      </trkpt>
      <trkpt lat="45.70253" lon="6.26037">
        <ele>1326.8</ele>
        <time>2022-01-13T05:17:07Z</time>
      </trkpt>
      <trkpt lat="45.70252" lon="6.26037">
        <ele>1327.7</ele>
        <time>2022-01-13T05:17:08Z</time>
      </trkpt>
      <trkpt lat="45.7025" lon="6.26036">
        <ele>1327.7</ele>
        <time>2022-01-13T05:17:09Z</time>
      </trkpt>
      <trkpt lat="45.70249" lon="6.26035">
        <ele>1327.7</ele>
        <time>2022-01-13T05:17:10Z</time>
      </trkpt>
      <trkpt lat="45.70248" lon="6.26034">
        <ele>1327.7</ele>
        <time>2022-01-13T05:17:11Z</time>
      </trkpt>
      <trkpt lat="45.70247" lon="6.26033">
        <ele>1327.7</ele>
        <time>2022-01-13T05:17:12Z</time>
      </trkpt>
      <trkpt lat="45.70246" lon="6.26032">
        <ele>1327.7</ele>
        <time>2022-01-13T05:17:13Z</time>
      </trkpt>
      <trkpt lat="45.70244" lon="6.26031">
        <ele>1327.7</ele>
        <time>2022-01-13T05:17:14Z</time>
      </trkpt>
      <trkpt lat="45.70243" lon="6.26031">
        <ele>1327.7</ele>
        <time>2022-01-13T05:17:15Z</time>
      </trkpt>
      <trkpt lat="45.70242" lon="6.2603">
        <ele>1328.8</ele>
        <time>2022-01-13T05:17:16Z</time>
      </trkpt>
      <trkpt lat="45.70241" lon="6.26029">
        <ele>1328.8</ele>
        <time>2022-01-13T05:17:17Z</time>
      </trkpt>
      <trkpt lat="45.70241" lon="6.26028">
        <ele>1328.8</ele>
        <time>2022-01-13T05:17:18Z</time>
      </trkpt>
      <trkpt lat="45.7024" lon="6.26027">
        <ele>1328.8</ele>
        <time>2022-01-13T05:17:19Z</time>
      </trkpt>
      <trkpt lat="45.70239" lon="6.26027">
        <ele>1329.7</ele>
        <time>2022-01-13T05:17:20Z</time>
      </trkpt>
      <trkpt lat="45.70238" lon="6.26026">
        <ele>1329.7</ele>
        <time>2022-01-13T05:17:21Z</time>
      </trkpt>
      <trkpt lat="45.70237" lon="6.26025">
        <ele>1329.7</ele>
        <time>2022-01-13T05:17:22Z</time>
      </trkpt>
      <trkpt lat="45.70236" lon="6.26024">
        <ele>1329.7</ele>
        <time>2022-01-13T05:17:23Z</time>
      </trkpt>
      <trkpt lat="45.70236" lon="6.26023">
        <ele>1330.8</ele>
        <time>2022-01-13T05:17:24Z</time>
      </trkpt>
      <trkpt lat="45.70235" lon="6.26022">
        <ele>1330.8</ele>
        <time>2022-01-13T05:17:25Z</time>
      </trkpt>
      <trkpt lat="45.70234" lon="6.26021">
        <ele>1331.8</ele>
        <time>2022-01-13T05:17:26Z</time>
      </trkpt>
      <trkpt lat="45.70233" lon="6.26021">
        <ele>1331.8</ele>
        <time>2022-01-13T05:17:27Z</time>
      </trkpt>
      <trkpt lat="45.70233" lon="6.2602">
        <ele>1332.8</ele>
        <time>2022-01-13T05:17:28Z</time>
      </trkpt>
      <trkpt lat="45.70231" lon="6.26019">
        <ele>1332.8</ele>
        <time>2022-01-13T05:17:29Z</time>
      </trkpt>
      <trkpt lat="45.7023" lon="6.26019">
        <ele>1332.8</ele>
        <time>2022-01-13T05:17:30Z</time>
      </trkpt>
      <trkpt lat="45.70229" lon="6.26018">
        <ele>1332.8</ele>
        <time>2022-01-13T05:17:31Z</time>
      </trkpt>
      <trkpt lat="45.70229" lon="6.26017">
        <ele>1332.8</ele>
        <time>2022-01-13T05:17:32Z</time>
      </trkpt>
      <trkpt lat="45.70227" lon="6.26017">
        <ele>1332.8</ele>
        <time>2022-01-13T05:17:33Z</time>
      </trkpt>
      <trkpt lat="45.70226" lon="6.26017">
        <ele>1333.8</ele>
        <time>2022-01-13T05:17:34Z</time>
      </trkpt>
      <trkpt lat="45.70225" lon="6.26016">
        <ele>1333.8</ele>
        <time>2022-01-13T05:17:35Z</time>
      </trkpt>
      <trkpt lat="45.70224" lon="6.26015">
        <ele>1333.8</ele>
        <time>2022-01-13T05:17:36Z</time>
      </trkpt>
      <trkpt lat="45.70223" lon="6.26014">
        <ele>1333.8</ele>
        <time>2022-01-13T05:17:37Z</time>
      </trkpt>
      <trkpt lat="45.70222" lon="6.26014">
        <ele>1333.8</ele>
        <time>2022-01-13T05:17:38Z</time>
      </trkpt>
      <trkpt lat="45.70221" lon="6.26014">
        <ele>1333.8</ele>
        <time>2022-01-13T05:17:39Z</time>
      </trkpt>
      <trkpt lat="45.7022" lon="6.26014">
        <ele>1333.8</ele>
        <time>2022-01-13T05:17:40Z</time>
      </trkpt>
      <trkpt lat="45.70218" lon="6.26014">
        <ele>1333.8</ele>
        <time>2022-01-13T05:17:41Z</time>
      </trkpt>
      <trkpt lat="45.70216" lon="6.26013">
        <ele>1334.7</ele>
        <time>2022-01-13T05:17:42Z</time>
      </trkpt>
      <trkpt lat="45.70216" lon="6.26013">
        <ele>1334.7</ele>
        <time>2022-01-13T05:17:43Z</time>
      </trkpt>
      <trkpt lat="45.70215" lon="6.26013">
        <ele>1335.8</ele>
        <time>2022-01-13T05:17:44Z</time>
      </trkpt>
      <trkpt lat="45.70214" lon="6.26011">
        <ele>1335.8</ele>
        <time>2022-01-13T05:17:45Z</time>
      </trkpt>
      <trkpt lat="45.70213" lon="6.2601">
        <ele>1335.8</ele>
        <time>2022-01-13T05:17:46Z</time>
      </trkpt>
      <trkpt lat="45.70213" lon="6.26009">
        <ele>1335.8</ele>
        <time>2022-01-13T05:17:47Z</time>
      </trkpt>
      <trkpt lat="45.70212" lon="6.26008">
        <ele>1335.8</ele>
        <time>2022-01-13T05:17:48Z</time>
      </trkpt>
      <trkpt lat="45.70211" lon="6.26006">
        <ele>1335.8</ele>
        <time>2022-01-13T05:17:49Z</time>
      </trkpt>
      <trkpt lat="45.7021" lon="6.26005">
        <ele>1335.8</ele>
        <time>2022-01-13T05:17:50Z</time>
      </trkpt>
      <trkpt lat="45.70209" lon="6.26004">
        <ele>1335.8</ele>
        <time>2022-01-13T05:17:51Z</time>
      </trkpt>
      <trkpt lat="45.70208" lon="6.26003">
        <ele>1335.8</ele>
        <time>2022-01-13T05:17:52Z</time>
      </trkpt>
      <trkpt lat="45.70207" lon="6.26002">
        <ele>1335.8</ele>
        <time>2022-01-13T05:17:53Z</time>
      </trkpt>
      <trkpt lat="45.70206" lon="6.26001">
        <ele>1338.7</ele>
        <time>2022-01-13T05:17:54Z</time>
      </trkpt>
      <trkpt lat="45.70205" lon="6.26">
        <ele>1338.7</ele>
        <time>2022-01-13T05:17:55Z</time>
      </trkpt>
      <trkpt lat="45.70204" lon="6.25999">
        <ele>1338.7</ele>
        <time>2022-01-13T05:17:56Z</time>
      </trkpt>
      <trkpt lat="45.70203" lon="6.25998">
        <ele>1338.7</ele>
        <time>2022-01-13T05:17:57Z</time>
      </trkpt>
      <trkpt lat="45.70203" lon="6.25997">
        <ele>1339.8</ele>
        <time>2022-01-13T05:17:58Z</time>
      </trkpt>
      <trkpt lat="45.70203" lon="6.25996">
        <ele>1339.8</ele>
        <time>2022-01-13T05:17:59Z</time>
      </trkpt>
      <trkpt lat="45.70202" lon="6.25996">
        <ele>1339.8</ele>
        <time>2022-01-13T05:18:00Z</time>
      </trkpt>
      <trkpt lat="45.70201" lon="6.25995">
        <ele>1339.8</ele>
        <time>2022-01-13T05:18:01Z</time>
      </trkpt>
      <trkpt lat="45.702" lon="6.25994">
        <ele>1340.8</ele>
        <time>2022-01-13T05:18:02Z</time>
      </trkpt>
      <trkpt lat="45.70198" lon="6.25993">
        <ele>1340.8</ele>
        <time>2022-01-13T05:18:03Z</time>
      </trkpt>
      <trkpt lat="45.70198" lon="6.25992">
        <ele>1340.8</ele>
        <time>2022-01-13T05:18:04Z</time>
      </trkpt>
      <trkpt lat="45.70197" lon="6.25991">
        <ele>1340.8</ele>
        <time>2022-01-13T05:18:05Z</time>
      </trkpt>
      <trkpt lat="45.70197" lon="6.2599">
        <ele>1341.7</ele>
        <time>2022-01-13T05:18:06Z</time>
      </trkpt>
      <trkpt lat="45.70196" lon="6.25989">
        <ele>1341.7</ele>
        <time>2022-01-13T05:18:07Z</time>
      </trkpt>
      <trkpt lat="45.70196" lon="6.25988">
        <ele>1341.7</ele>
        <time>2022-01-13T05:18:08Z</time>
      </trkpt>
      <trkpt lat="45.70195" lon="6.25986">
        <ele>1341.7</ele>
        <time>2022-01-13T05:18:09Z</time>
      </trkpt>
      <trkpt lat="45.70194" lon="6.25985">
        <ele>1342.8</ele>
        <time>2022-01-13T05:18:10Z</time>
      </trkpt>
      <trkpt lat="45.70194" lon="6.25984">
        <ele>1342.8</ele>
        <time>2022-01-13T05:18:11Z</time>
      </trkpt>
      <trkpt lat="45.70193" lon="6.25983">
        <ele>1342.8</ele>
        <time>2022-01-13T05:18:12Z</time>
      </trkpt>
      <trkpt lat="45.70192" lon="6.25981">
        <ele>1342.8</ele>
        <time>2022-01-13T05:18:13Z</time>
      </trkpt>
      <trkpt lat="45.70192" lon="6.25979">
        <ele>1343.7</ele>
        <time>2022-01-13T05:18:14Z</time>
      </trkpt>
      <trkpt lat="45.70193" lon="6.25977">
        <ele>1343.7</ele>
        <time>2022-01-13T05:18:15Z</time>
      </trkpt>
      <trkpt lat="45.70192" lon="6.25976">
        <ele>1343.7</ele>
        <time>2022-01-13T05:18:16Z</time>
      </trkpt>
      <trkpt lat="45.70193" lon="6.25974">
        <ele>1343.7</ele>
        <time>2022-01-13T05:18:17Z</time>
      </trkpt>
      <trkpt lat="45.70193" lon="6.25973">
        <ele>1344.8</ele>
        <time>2022-01-13T05:18:18Z</time>
      </trkpt>
      <trkpt lat="45.70193" lon="6.25972">
        <ele>1344.8</ele>
        <time>2022-01-13T05:18:19Z</time>
      </trkpt>
      <trkpt lat="45.70193" lon="6.2597">
        <ele>1345.7</ele>
        <time>2022-01-13T05:18:20Z</time>
      </trkpt>
      <trkpt lat="45.70194" lon="6.25969">
        <ele>1345.7</ele>
        <time>2022-01-13T05:18:21Z</time>
      </trkpt>
      <trkpt lat="45.70195" lon="6.25968">
        <ele>1345.7</ele>
        <time>2022-01-13T05:18:22Z</time>
      </trkpt>
      <trkpt lat="45.70196" lon="6.25966">
        <ele>1345.7</ele>
        <time>2022-01-13T05:18:23Z</time>
      </trkpt>
      <trkpt lat="45.70197" lon="6.25966">
        <ele>1345.7</ele>
        <time>2022-01-13T05:18:24Z</time>
      </trkpt>
      <trkpt lat="45.70197" lon="6.25965">
        <ele>1345.7</ele>
        <time>2022-01-13T05:18:25Z</time>
      </trkpt>
      <trkpt lat="45.70198" lon="6.25964">
        <ele>1345.7</ele>
        <time>2022-01-13T05:18:26Z</time>
      </trkpt>
      <trkpt lat="45.70199" lon="6.25964">
        <ele>1345.7</ele>
        <time>2022-01-13T05:18:27Z</time>
      </trkpt>
      <trkpt lat="45.702" lon="6.25963">
        <ele>1345.7</ele>
        <time>2022-01-13T05:18:28Z</time>
      </trkpt>
      <trkpt lat="45.70201" lon="6.25963">
        <ele>1345.7</ele>
        <time>2022-01-13T05:18:29Z</time>
      </trkpt>
      <trkpt lat="45.70201" lon="6.25963">
        <ele>1345.7</ele>
        <time>2022-01-13T05:18:30Z</time>
      </trkpt>
      <trkpt lat="45.70202" lon="6.25963">
        <ele>1345.7</ele>
        <time>2022-01-13T05:18:31Z</time>
      </trkpt>
      <trkpt lat="45.70204" lon="6.25962">
        <ele>1347.8</ele>
        <time>2022-01-13T05:18:32Z</time>
      </trkpt>
      <trkpt lat="45.70204" lon="6.25962">
        <ele>1347.8</ele>
        <time>2022-01-13T05:18:33Z</time>
      </trkpt>
      <trkpt lat="45.70206" lon="6.25961">
        <ele>1348.8</ele>
        <time>2022-01-13T05:18:34Z</time>
      </trkpt>
      <trkpt lat="45.70208" lon="6.2596">
        <ele>1348.8</ele>
        <time>2022-01-13T05:18:35Z</time>
      </trkpt>
      <trkpt lat="45.70208" lon="6.2596">
        <ele>1348.8</ele>
        <time>2022-01-13T05:18:36Z</time>
      </trkpt>
      <trkpt lat="45.70209" lon="6.25959">
        <ele>1348.8</ele>
        <time>2022-01-13T05:18:37Z</time>
      </trkpt>
      <trkpt lat="45.7021" lon="6.25959">
        <ele>1349.8</ele>
        <time>2022-01-13T05:18:38Z</time>
      </trkpt>
      <trkpt lat="45.70212" lon="6.25958">
        <ele>1349.8</ele>
        <time>2022-01-13T05:18:39Z</time>
      </trkpt>
      <trkpt lat="45.70213" lon="6.25957">
        <ele>1349.8</ele>
        <time>2022-01-13T05:18:40Z</time>
      </trkpt>
      <trkpt lat="45.70213" lon="6.25956">
        <ele>1349.8</ele>
        <time>2022-01-13T05:18:41Z</time>
      </trkpt>
      <trkpt lat="45.70214" lon="6.25955">
        <ele>1351.8</ele>
        <time>2022-01-13T05:18:42Z</time>
      </trkpt>
      <trkpt lat="45.70215" lon="6.25955">
        <ele>1351.8</ele>
        <time>2022-01-13T05:18:43Z</time>
      </trkpt>
      <trkpt lat="45.70215" lon="6.25954">
        <ele>1351.8</ele>
        <time>2022-01-13T05:18:44Z</time>
      </trkpt>
      <trkpt lat="45.70217" lon="6.25954">
        <ele>1351.8</ele>
        <time>2022-01-13T05:18:45Z</time>
      </trkpt>
      <trkpt lat="45.70218" lon="6.25953">
        <ele>1351.8</ele>
        <time>2022-01-13T05:18:46Z</time>
      </trkpt>
      <trkpt lat="45.7022" lon="6.25952">
        <ele>1351.8</ele>
        <time>2022-01-13T05:18:47Z</time>
      </trkpt>
      <trkpt lat="45.70221" lon="6.25951">
        <ele>1352.7</ele>
        <time>2022-01-13T05:18:48Z</time>
      </trkpt>
      <trkpt lat="45.70221" lon="6.2595">
        <ele>1352.7</ele>
        <time>2022-01-13T05:18:49Z</time>
      </trkpt>
      <trkpt lat="45.70222" lon="6.25949">
        <ele>1352.7</ele>
        <time>2022-01-13T05:18:50Z</time>
      </trkpt>
      <trkpt lat="45.70223" lon="6.25948">
        <ele>1352.7</ele>
        <time>2022-01-13T05:18:51Z</time>
      </trkpt>
      <trkpt lat="45.70223" lon="6.25947">
        <ele>1353.8</ele>
        <time>2022-01-13T05:18:52Z</time>
      </trkpt>
      <trkpt lat="45.70223" lon="6.25945">
        <ele>1353.8</ele>
        <time>2022-01-13T05:18:53Z</time>
      </trkpt>
      <trkpt lat="45.70223" lon="6.25944">
        <ele>1353.8</ele>
        <time>2022-01-13T05:18:54Z</time>
      </trkpt>
      <trkpt lat="45.70223" lon="6.25943">
        <ele>1353.8</ele>
        <time>2022-01-13T05:18:55Z</time>
      </trkpt>
      <trkpt lat="45.70223" lon="6.25942">
        <ele>1353.8</ele>
        <time>2022-01-13T05:18:56Z</time>
      </trkpt>
      <trkpt lat="45.70222" lon="6.25941">
        <ele>1353.8</ele>
        <time>2022-01-13T05:18:57Z</time>
      </trkpt>
      <trkpt lat="45.70222" lon="6.25939">
        <ele>1354.7</ele>
        <time>2022-01-13T05:18:58Z</time>
      </trkpt>
      <trkpt lat="45.70221" lon="6.25938">
        <ele>1354.7</ele>
        <time>2022-01-13T05:18:59Z</time>
      </trkpt>
      <trkpt lat="45.7022" lon="6.25938">
        <ele>1354.7</ele>
        <time>2022-01-13T05:19:00Z</time>
      </trkpt>
      <trkpt lat="45.70219" lon="6.25937">
        <ele>1354.7</ele>
        <time>2022-01-13T05:19:01Z</time>
      </trkpt>
      <trkpt lat="45.70219" lon="6.25936">
        <ele>1354.7</ele>
        <time>2022-01-13T05:19:02Z</time>
      </trkpt>
      <trkpt lat="45.70217" lon="6.25935">
        <ele>1354.7</ele>
        <time>2022-01-13T05:19:03Z</time>
      </trkpt>
      <trkpt lat="45.70216" lon="6.25934">
        <ele>1354.7</ele>
        <time>2022-01-13T05:19:04Z</time>
      </trkpt>
      <trkpt lat="45.70215" lon="6.25934">
        <ele>1354.7</ele>
        <time>2022-01-13T05:19:05Z</time>
      </trkpt>
      <trkpt lat="45.70214" lon="6.25933">
        <ele>1354.7</ele>
        <time>2022-01-13T05:19:06Z</time>
      </trkpt>
      <trkpt lat="45.70212" lon="6.25932">
        <ele>1354.7</ele>
        <time>2022-01-13T05:19:07Z</time>
      </trkpt>
      <trkpt lat="45.70211" lon="6.25932">
        <ele>1356.8</ele>
        <time>2022-01-13T05:19:08Z</time>
      </trkpt>
      <trkpt lat="45.7021" lon="6.25932">
        <ele>1356.8</ele>
        <time>2022-01-13T05:19:09Z</time>
      </trkpt>
      <trkpt lat="45.70209" lon="6.25932">
        <ele>1356.8</ele>
        <time>2022-01-13T05:19:10Z</time>
      </trkpt>
      <trkpt lat="45.70208" lon="6.25931">
        <ele>1356.8</ele>
        <time>2022-01-13T05:19:11Z</time>
      </trkpt>
      <trkpt lat="45.70206" lon="6.2593">
        <ele>1357.7</ele>
        <time>2022-01-13T05:19:12Z</time>
      </trkpt>
      <trkpt lat="45.70205" lon="6.2593">
        <ele>1357.7</ele>
        <time>2022-01-13T05:19:13Z</time>
      </trkpt>
      <trkpt lat="45.70204" lon="6.25929">
        <ele>1359.7</ele>
        <time>2022-01-13T05:19:14Z</time>
      </trkpt>
      <trkpt lat="45.70203" lon="6.25929">
        <ele>1359.7</ele>
        <time>2022-01-13T05:19:15Z</time>
      </trkpt>
      <trkpt lat="45.70202" lon="6.25928">
        <ele>1359.7</ele>
        <time>2022-01-13T05:19:16Z</time>
      </trkpt>
      <trkpt lat="45.702" lon="6.25928">
        <ele>1359.7</ele>
        <time>2022-01-13T05:19:17Z</time>
      </trkpt>
      <trkpt lat="45.702" lon="6.25927">
        <ele>1359.7</ele>
        <time>2022-01-13T05:19:18Z</time>
      </trkpt>
      <trkpt lat="45.70198" lon="6.25927">
        <ele>1359.7</ele>
        <time>2022-01-13T05:19:19Z</time>
      </trkpt>
      <trkpt lat="45.70197" lon="6.25926">
        <ele>1359.7</ele>
        <time>2022-01-13T05:19:20Z</time>
      </trkpt>
      <trkpt lat="45.70196" lon="6.25926">
        <ele>1359.7</ele>
        <time>2022-01-13T05:19:21Z</time>
      </trkpt>
      <trkpt lat="45.70194" lon="6.25926">
        <ele>1359.7</ele>
        <time>2022-01-13T05:19:22Z</time>
      </trkpt>
      <trkpt lat="45.70193" lon="6.25926">
        <ele>1359.7</ele>
        <time>2022-01-13T05:19:23Z</time>
      </trkpt>
      <trkpt lat="45.70192" lon="6.25925">
        <ele>1359.7</ele>
        <time>2022-01-13T05:19:24Z</time>
      </trkpt>
      <trkpt lat="45.7019" lon="6.25925">
        <ele>1359.7</ele>
        <time>2022-01-13T05:19:25Z</time>
      </trkpt>
      <trkpt lat="45.70189" lon="6.25925">
        <ele>1360.8</ele>
        <time>2022-01-13T05:19:26Z</time>
      </trkpt>
      <trkpt lat="45.70188" lon="6.25924">
        <ele>1360.8</ele>
        <time>2022-01-13T05:19:27Z</time>
      </trkpt>
      <trkpt lat="45.70186" lon="6.25924">
        <ele>1360.8</ele>
        <time>2022-01-13T05:19:28Z</time>
      </trkpt>
      <trkpt lat="45.70185" lon="6.25924">
        <ele>1360.8</ele>
        <time>2022-01-13T05:19:29Z</time>
      </trkpt>
      <trkpt lat="45.70184" lon="6.25924">
        <ele>1361.7</ele>
        <time>2022-01-13T05:19:30Z</time>
      </trkpt>
      <trkpt lat="45.70183" lon="6.25924">
        <ele>1361.7</ele>
        <time>2022-01-13T05:19:31Z</time>
      </trkpt>
      <trkpt lat="45.70182" lon="6.25924">
        <ele>1361.7</ele>
        <time>2022-01-13T05:19:32Z</time>
      </trkpt>
      <trkpt lat="45.7018" lon="6.25924">
        <ele>1361.7</ele>
        <time>2022-01-13T05:19:33Z</time>
      </trkpt>
      <trkpt lat="45.70179" lon="6.25924">
        <ele>1361.7</ele>
        <time>2022-01-13T05:19:34Z</time>
      </trkpt>
      <trkpt lat="45.70178" lon="6.25924">
        <ele>1361.7</ele>
        <time>2022-01-13T05:19:35Z</time>
      </trkpt>
      <trkpt lat="45.70177" lon="6.25924">
        <ele>1361.7</ele>
        <time>2022-01-13T05:19:36Z</time>
      </trkpt>
      <trkpt lat="45.70176" lon="6.25924">
        <ele>1361.7</ele>
        <time>2022-01-13T05:19:37Z</time>
      </trkpt>
      <trkpt lat="45.70175" lon="6.25923">
        <ele>1361.7</ele>
        <time>2022-01-13T05:19:38Z</time>
      </trkpt>
      <trkpt lat="45.70174" lon="6.25923">
        <ele>1361.7</ele>
        <time>2022-01-13T05:19:39Z</time>
      </trkpt>
      <trkpt lat="45.70173" lon="6.25923">
        <ele>1364.8</ele>
        <time>2022-01-13T05:19:40Z</time>
      </trkpt>
      <trkpt lat="45.70172" lon="6.25923">
        <ele>1364.8</ele>
        <time>2022-01-13T05:19:41Z</time>
      </trkpt>
      <trkpt lat="45.70171" lon="6.25923">
        <ele>1364.8</ele>
        <time>2022-01-13T05:19:42Z</time>
      </trkpt>
      <trkpt lat="45.7017" lon="6.25922">
        <ele>1364.8</ele>
        <time>2022-01-13T05:19:43Z</time>
      </trkpt>
      <trkpt lat="45.70169" lon="6.25922">
        <ele>1364.8</ele>
        <time>2022-01-13T05:19:44Z</time>
      </trkpt>
      <trkpt lat="45.70167" lon="6.25922">
        <ele>1364.8</ele>
        <time>2022-01-13T05:19:45Z</time>
      </trkpt>
      <trkpt lat="45.70167" lon="6.25921">
        <ele>1365.8</ele>
        <time>2022-01-13T05:19:46Z</time>
      </trkpt>
      <trkpt lat="45.70166" lon="6.25921">
        <ele>1365.8</ele>
        <time>2022-01-13T05:19:47Z</time>
      </trkpt>
      <trkpt lat="45.70166" lon="6.2592">
        <ele>1365.8</ele>
        <time>2022-01-13T05:19:48Z</time>
      </trkpt>
      <trkpt lat="45.70165" lon="6.2592">
        <ele>1365.8</ele>
        <time>2022-01-13T05:19:49Z</time>
      </trkpt>
      <trkpt lat="45.70164" lon="6.2592">
        <ele>1366.7</ele>
        <time>2022-01-13T05:19:50Z</time>
      </trkpt>
      <trkpt lat="45.70163" lon="6.25919">
        <ele>1366.7</ele>
        <time>2022-01-13T05:19:51Z</time>
      </trkpt>
      <trkpt lat="45.70162" lon="6.25919">
        <ele>1366.7</ele>
        <time>2022-01-13T05:19:52Z</time>
      </trkpt>
      <trkpt lat="45.70161" lon="6.25918">
        <ele>1366.7</ele>
        <time>2022-01-13T05:19:53Z</time>
      </trkpt>
      <trkpt lat="45.7016" lon="6.25918">
        <ele>1366.7</ele>
        <time>2022-01-13T05:19:54Z</time>
      </trkpt>
      <trkpt lat="45.70159" lon="6.25918">
        <ele>1366.7</ele>
        <time>2022-01-13T05:19:55Z</time>
      </trkpt>
      <trkpt lat="45.70158" lon="6.25918">
        <ele>1366.7</ele>
        <time>2022-01-13T05:19:56Z</time>
      </trkpt>
      <trkpt lat="45.70157" lon="6.25917">
        <ele>1366.7</ele>
        <time>2022-01-13T05:19:57Z</time>
      </trkpt>
      <trkpt lat="45.70156" lon="6.25917">
        <ele>1367.8</ele>
        <time>2022-01-13T05:19:58Z</time>
      </trkpt>
      <trkpt lat="45.70154" lon="6.25917">
        <ele>1367.8</ele>
        <time>2022-01-13T05:19:59Z</time>
      </trkpt>
      <trkpt lat="45.70153" lon="6.25917">
        <ele>1368.7</ele>
        <time>2022-01-13T05:20:00Z</time>
      </trkpt>
      <trkpt lat="45.70152" lon="6.25917">
        <ele>1368.7</ele>
        <time>2022-01-13T05:20:01Z</time>
      </trkpt>
      <trkpt lat="45.70151" lon="6.25916">
        <ele>1368.7</ele>
        <time>2022-01-13T05:20:02Z</time>
      </trkpt>
      <trkpt lat="45.7015" lon="6.25915">
        <ele>1368.7</ele>
        <time>2022-01-13T05:20:03Z</time>
      </trkpt>
      <trkpt lat="45.70149" lon="6.25914">
        <ele>1369.8</ele>
        <time>2022-01-13T05:20:04Z</time>
      </trkpt>
      <trkpt lat="45.70148" lon="6.25914">
        <ele>1369.8</ele>
        <time>2022-01-13T05:20:05Z</time>
      </trkpt>
      <trkpt lat="45.70147" lon="6.25913">
        <ele>1369.8</ele>
        <time>2022-01-13T05:20:06Z</time>
      </trkpt>
      <trkpt lat="45.70146" lon="6.25913">
        <ele>1369.8</ele>
        <time>2022-01-13T05:20:07Z</time>
      </trkpt>
      <trkpt lat="45.70146" lon="6.25912">
        <ele>1370.7</ele>
        <time>2022-01-13T05:20:08Z</time>
      </trkpt>
      <trkpt lat="45.70145" lon="6.25912">
        <ele>1370.7</ele>
        <time>2022-01-13T05:20:09Z</time>
      </trkpt>
      <trkpt lat="45.70144" lon="6.25912">
        <ele>1370.7</ele>
        <time>2022-01-13T05:20:10Z</time>
      </trkpt>
      <trkpt lat="45.70143" lon="6.25911">
        <ele>1370.7</ele>
        <time>2022-01-13T05:20:11Z</time>
      </trkpt>
      <trkpt lat="45.70142" lon="6.25911">
        <ele>1371.8</ele>
        <time>2022-01-13T05:20:12Z</time>
      </trkpt>
      <trkpt lat="45.70141" lon="6.2591">
        <ele>1371.8</ele>
        <time>2022-01-13T05:20:13Z</time>
      </trkpt>
      <trkpt lat="45.70139" lon="6.2591">
        <ele>1371.8</ele>
        <time>2022-01-13T05:20:14Z</time>
      </trkpt>
      <trkpt lat="45.70138" lon="6.25908">
        <ele>1371.8</ele>
        <time>2022-01-13T05:20:15Z</time>
      </trkpt>
      <trkpt lat="45.70138" lon="6.25908">
        <ele>1372.8</ele>
        <time>2022-01-13T05:20:16Z</time>
      </trkpt>
      <trkpt lat="45.70137" lon="6.25908">
        <ele>1372.8</ele>
        <time>2022-01-13T05:20:17Z</time>
      </trkpt>
      <trkpt lat="45.70136" lon="6.25907">
        <ele>1372.8</ele>
        <time>2022-01-13T05:20:18Z</time>
      </trkpt>
      <trkpt lat="45.70135" lon="6.25907">
        <ele>1372.8</ele>
        <time>2022-01-13T05:20:19Z</time>
      </trkpt>
      <trkpt lat="45.70134" lon="6.25906">
        <ele>1372.8</ele>
        <time>2022-01-13T05:20:20Z</time>
      </trkpt>
      <trkpt lat="45.70133" lon="6.25905">
        <ele>1372.8</ele>
        <time>2022-01-13T05:20:21Z</time>
      </trkpt>
      <trkpt lat="45.70132" lon="6.25905">
        <ele>1372.8</ele>
        <time>2022-01-13T05:20:22Z</time>
      </trkpt>
      <trkpt lat="45.70131" lon="6.25905">
        <ele>1372.8</ele>
        <time>2022-01-13T05:20:23Z</time>
      </trkpt>
      <trkpt lat="45.7013" lon="6.25903">
        <ele>1374.8</ele>
        <time>2022-01-13T05:20:24Z</time>
      </trkpt>
      <trkpt lat="45.70129" lon="6.25903">
        <ele>1374.8</ele>
        <time>2022-01-13T05:20:25Z</time>
      </trkpt>
      <trkpt lat="45.70129" lon="6.25902">
        <ele>1374.8</ele>
        <time>2022-01-13T05:20:26Z</time>
      </trkpt>
      <trkpt lat="45.70127" lon="6.259">
        <ele>1374.8</ele>
        <time>2022-01-13T05:20:27Z</time>
      </trkpt>
      <trkpt lat="45.70126" lon="6.25899">
        <ele>1376.8</ele>
        <time>2022-01-13T05:20:28Z</time>
      </trkpt>
      <trkpt lat="45.70126" lon="6.25899">
        <ele>1376.8</ele>
        <time>2022-01-13T05:20:29Z</time>
      </trkpt>
      <trkpt lat="45.70125" lon="6.25897">
        <ele>1376.8</ele>
        <time>2022-01-13T05:20:30Z</time>
      </trkpt>
      <trkpt lat="45.70123" lon="6.25897">
        <ele>1376.8</ele>
        <time>2022-01-13T05:20:31Z</time>
      </trkpt>
      <trkpt lat="45.70122" lon="6.25897">
        <ele>1376.8</ele>
        <time>2022-01-13T05:20:32Z</time>
      </trkpt>
      <trkpt lat="45.70121" lon="6.25896">
        <ele>1376.8</ele>
        <time>2022-01-13T05:20:33Z</time>
      </trkpt>
      <trkpt lat="45.7012" lon="6.25895">
        <ele>1376.8</ele>
        <time>2022-01-13T05:20:34Z</time>
      </trkpt>
      <trkpt lat="45.70119" lon="6.25894">
        <ele>1376.8</ele>
        <time>2022-01-13T05:20:35Z</time>
      </trkpt>
      <trkpt lat="45.70118" lon="6.25893">
        <ele>1378.8</ele>
        <time>2022-01-13T05:20:36Z</time>
      </trkpt>
      <trkpt lat="45.70117" lon="6.25892">
        <ele>1378.8</ele>
        <time>2022-01-13T05:20:37Z</time>
      </trkpt>
      <trkpt lat="45.70116" lon="6.25891">
        <ele>1378.8</ele>
        <time>2022-01-13T05:20:38Z</time>
      </trkpt>
      <trkpt lat="45.70116" lon="6.2589">
        <ele>1378.8</ele>
        <time>2022-01-13T05:20:39Z</time>
      </trkpt>
      <trkpt lat="45.70116" lon="6.25889">
        <ele>1378.8</ele>
        <time>2022-01-13T05:20:40Z</time>
      </trkpt>
      <trkpt lat="45.70115" lon="6.25887">
        <ele>1378.8</ele>
        <time>2022-01-13T05:20:41Z</time>
      </trkpt>
      <trkpt lat="45.70114" lon="6.25886">
        <ele>1379.8</ele>
        <time>2022-01-13T05:20:42Z</time>
      </trkpt>
      <trkpt lat="45.70113" lon="6.25885">
        <ele>1379.8</ele>
        <time>2022-01-13T05:20:43Z</time>
      </trkpt>
      <trkpt lat="45.70112" lon="6.25884">
        <ele>1380.8</ele>
        <time>2022-01-13T05:20:44Z</time>
      </trkpt>
      <trkpt lat="45.70112" lon="6.25883">
        <ele>1380.8</ele>
        <time>2022-01-13T05:20:45Z</time>
      </trkpt>
      <trkpt lat="45.70111" lon="6.25881">
        <ele>1380.8</ele>
        <time>2022-01-13T05:20:46Z</time>
      </trkpt>
      <trkpt lat="45.7011" lon="6.2588">
        <ele>1380.8</ele>
        <time>2022-01-13T05:20:47Z</time>
      </trkpt>
      <trkpt lat="45.70109" lon="6.25879">
        <ele>1380.8</ele>
        <time>2022-01-13T05:20:48Z</time>
      </trkpt>
      <trkpt lat="45.70109" lon="6.25877">
        <ele>1380.8</ele>
        <time>2022-01-13T05:20:49Z</time>
      </trkpt>
      <trkpt lat="45.70108" lon="6.25876">
        <ele>1381.8</ele>
        <time>2022-01-13T05:20:50Z</time>
      </trkpt>
      <trkpt lat="45.70106" lon="6.25875">
        <ele>1381.8</ele>
        <time>2022-01-13T05:20:51Z</time>
      </trkpt>
      <trkpt lat="45.70105" lon="6.25874">
        <ele>1381.8</ele>
        <time>2022-01-13T05:20:52Z</time>
      </trkpt>
      <trkpt lat="45.70104" lon="6.25873">
        <ele>1381.8</ele>
        <time>2022-01-13T05:20:53Z</time>
      </trkpt>
      <trkpt lat="45.70103" lon="6.25872">
        <ele>1382.7</ele>
        <time>2022-01-13T05:20:54Z</time>
      </trkpt>
      <trkpt lat="45.70103" lon="6.25871">
        <ele>1382.7</ele>
        <time>2022-01-13T05:20:55Z</time>
      </trkpt>
      <trkpt lat="45.70102" lon="6.2587">
        <ele>1382.7</ele>
        <time>2022-01-13T05:20:56Z</time>
      </trkpt>
      <trkpt lat="45.70101" lon="6.25868">
        <ele>1382.7</ele>
        <time>2022-01-13T05:20:57Z</time>
      </trkpt>
      <trkpt lat="45.701" lon="6.25867">
        <ele>1382.7</ele>
        <time>2022-01-13T05:20:58Z</time>
      </trkpt>
      <trkpt lat="45.70099" lon="6.25866">
        <ele>1382.7</ele>
        <time>2022-01-13T05:20:59Z</time>
      </trkpt>
      <trkpt lat="45.70099" lon="6.25865">
        <ele>1382.7</ele>
        <time>2022-01-13T05:21:00Z</time>
      </trkpt>
      <trkpt lat="45.70098" lon="6.25863">
        <ele>1382.7</ele>
        <time>2022-01-13T05:21:01Z</time>
      </trkpt>
      <trkpt lat="45.70097" lon="6.25862">
        <ele>1383.8</ele>
        <time>2022-01-13T05:21:02Z</time>
      </trkpt>
      <trkpt lat="45.70096" lon="6.25861">
        <ele>1383.8</ele>
        <time>2022-01-13T05:21:03Z</time>
      </trkpt>
      <trkpt lat="45.70096" lon="6.2586">
        <ele>1383.8</ele>
        <time>2022-01-13T05:21:04Z</time>
      </trkpt>
      <trkpt lat="45.70095" lon="6.25859">
        <ele>1383.8</ele>
        <time>2022-01-13T05:21:05Z</time>
      </trkpt>
      <trkpt lat="45.70094" lon="6.25858">
        <ele>1383.8</ele>
        <time>2022-01-13T05:21:06Z</time>
      </trkpt>
      <trkpt lat="45.70093" lon="6.25857">
        <ele>1383.8</ele>
        <time>2022-01-13T05:21:07Z</time>
      </trkpt>
      <trkpt lat="45.70092" lon="6.25855">
        <ele>1383.8</ele>
        <time>2022-01-13T05:21:08Z</time>
      </trkpt>
      <trkpt lat="45.70092" lon="6.25854">
        <ele>1383.8</ele>
        <time>2022-01-13T05:21:09Z</time>
      </trkpt>
      <trkpt lat="45.70091" lon="6.25853">
        <ele>1384.7</ele>
        <time>2022-01-13T05:21:10Z</time>
      </trkpt>
      <trkpt lat="45.7009" lon="6.25852">
        <ele>1384.7</ele>
        <time>2022-01-13T05:21:11Z</time>
      </trkpt>
      <trkpt lat="45.70089" lon="6.2585">
        <ele>1384.7</ele>
        <time>2022-01-13T05:21:12Z</time>
      </trkpt>
      <trkpt lat="45.70089" lon="6.25849">
        <ele>1384.7</ele>
        <time>2022-01-13T05:21:13Z</time>
      </trkpt>
      <trkpt lat="45.70088" lon="6.25848">
        <ele>1384.7</ele>
        <time>2022-01-13T05:21:14Z</time>
      </trkpt>
      <trkpt lat="45.70087" lon="6.25847">
        <ele>1384.7</ele>
        <time>2022-01-13T05:21:15Z</time>
      </trkpt>
      <trkpt lat="45.70086" lon="6.25846">
        <ele>1385.8</ele>
        <time>2022-01-13T05:21:16Z</time>
      </trkpt>
      <trkpt lat="45.70085" lon="6.25845">
        <ele>1385.8</ele>
        <time>2022-01-13T05:21:17Z</time>
      </trkpt>
      <trkpt lat="45.70085" lon="6.25844">
        <ele>1385.8</ele>
        <time>2022-01-13T05:21:18Z</time>
      </trkpt>
      <trkpt lat="45.70085" lon="6.25842">
        <ele>1385.8</ele>
        <time>2022-01-13T05:21:19Z</time>
      </trkpt>
      <trkpt lat="45.70084" lon="6.25841">
        <ele>1385.8</ele>
        <time>2022-01-13T05:21:20Z</time>
      </trkpt>
      <trkpt lat="45.70084" lon="6.25839">
        <ele>1385.8</ele>
        <time>2022-01-13T05:21:21Z</time>
      </trkpt>
      <trkpt lat="45.70084" lon="6.25838">
        <ele>1385.8</ele>
        <time>2022-01-13T05:21:22Z</time>
      </trkpt>
      <trkpt lat="45.70083" lon="6.25837">
        <ele>1385.8</ele>
        <time>2022-01-13T05:21:23Z</time>
      </trkpt>
      <trkpt lat="45.70083" lon="6.25835">
        <ele>1388.8</ele>
        <time>2022-01-13T05:21:24Z</time>
      </trkpt>
      <trkpt lat="45.70082" lon="6.25834">
        <ele>1388.8</ele>
        <time>2022-01-13T05:21:25Z</time>
      </trkpt>
      <trkpt lat="45.70081" lon="6.25833">
        <ele>1389.8</ele>
        <time>2022-01-13T05:21:26Z</time>
      </trkpt>
      <trkpt lat="45.7008" lon="6.25832">
        <ele>1389.8</ele>
        <time>2022-01-13T05:21:27Z</time>
      </trkpt>
      <trkpt lat="45.7008" lon="6.2583">
        <ele>1389.8</ele>
        <time>2022-01-13T05:21:28Z</time>
      </trkpt>
      <trkpt lat="45.70079" lon="6.25829">
        <ele>1389.8</ele>
        <time>2022-01-13T05:21:29Z</time>
      </trkpt>
      <trkpt lat="45.70078" lon="6.25827">
        <ele>1389.8</ele>
        <time>2022-01-13T05:21:30Z</time>
      </trkpt>
      <trkpt lat="45.70078" lon="6.25826">
        <ele>1389.8</ele>
        <time>2022-01-13T05:21:31Z</time>
      </trkpt>
      <trkpt lat="45.70078" lon="6.25825">
        <ele>1390.8</ele>
        <time>2022-01-13T05:21:32Z</time>
      </trkpt>
      <trkpt lat="45.70077" lon="6.25823">
        <ele>1390.8</ele>
        <time>2022-01-13T05:21:33Z</time>
      </trkpt>
      <trkpt lat="45.70077" lon="6.25822">
        <ele>1390.8</ele>
        <time>2022-01-13T05:21:34Z</time>
      </trkpt>
      <trkpt lat="45.70076" lon="6.2582">
        <ele>1390.8</ele>
        <time>2022-01-13T05:21:35Z</time>
      </trkpt>
      <trkpt lat="45.70076" lon="6.25819">
        <ele>1391.7</ele>
        <time>2022-01-13T05:21:36Z</time>
      </trkpt>
      <trkpt lat="45.70075" lon="6.25818">
        <ele>1391.7</ele>
        <time>2022-01-13T05:21:37Z</time>
      </trkpt>
      <trkpt lat="45.70074" lon="6.25816">
        <ele>1392.8</ele>
        <time>2022-01-13T05:21:38Z</time>
      </trkpt>
      <trkpt lat="45.70073" lon="6.25815">
        <ele>1392.8</ele>
        <time>2022-01-13T05:21:39Z</time>
      </trkpt>
      <trkpt lat="45.70073" lon="6.25813">
        <ele>1392.8</ele>
        <time>2022-01-13T05:21:40Z</time>
      </trkpt>
      <trkpt lat="45.70072" lon="6.25812">
        <ele>1392.8</ele>
        <time>2022-01-13T05:21:41Z</time>
      </trkpt>
      <trkpt lat="45.70071" lon="6.25811">
        <ele>1393.7</ele>
        <time>2022-01-13T05:21:42Z</time>
      </trkpt>
      <trkpt lat="45.70071" lon="6.2581">
        <ele>1393.7</ele>
        <time>2022-01-13T05:21:43Z</time>
      </trkpt>
      <trkpt lat="45.7007" lon="6.25808">
        <ele>1393.7</ele>
        <time>2022-01-13T05:21:44Z</time>
      </trkpt>
      <trkpt lat="45.7007" lon="6.25807">
        <ele>1393.7</ele>
        <time>2022-01-13T05:21:45Z</time>
      </trkpt>
      <trkpt lat="45.70069" lon="6.25806">
        <ele>1393.7</ele>
        <time>2022-01-13T05:21:46Z</time>
      </trkpt>
      <trkpt lat="45.70068" lon="6.25805">
        <ele>1393.7</ele>
        <time>2022-01-13T05:21:47Z</time>
      </trkpt>
      <trkpt lat="45.70068" lon="6.25804">
        <ele>1394.8</ele>
        <time>2022-01-13T05:21:48Z</time>
      </trkpt>
      <trkpt lat="45.70067" lon="6.25802">
        <ele>1394.8</ele>
        <time>2022-01-13T05:21:49Z</time>
      </trkpt>
      <trkpt lat="45.70067" lon="6.25801">
        <ele>1395.8</ele>
        <time>2022-01-13T05:21:50Z</time>
      </trkpt>
      <trkpt lat="45.70066" lon="6.25799">
        <ele>1395.8</ele>
        <time>2022-01-13T05:21:51Z</time>
      </trkpt>
      <trkpt lat="45.70065" lon="6.25798">
        <ele>1395.8</ele>
        <time>2022-01-13T05:21:52Z</time>
      </trkpt>
      <trkpt lat="45.70065" lon="6.25797">
        <ele>1395.8</ele>
        <time>2022-01-13T05:21:53Z</time>
      </trkpt>
      <trkpt lat="45.70064" lon="6.25795">
        <ele>1396.8</ele>
        <time>2022-01-13T05:21:54Z</time>
      </trkpt>
      <trkpt lat="45.70063" lon="6.25794">
        <ele>1396.8</ele>
        <time>2022-01-13T05:21:55Z</time>
      </trkpt>
      <trkpt lat="45.70063" lon="6.25793">
        <ele>1396.8</ele>
        <time>2022-01-13T05:21:56Z</time>
      </trkpt>
      <trkpt lat="45.70062" lon="6.25792">
        <ele>1396.8</ele>
        <time>2022-01-13T05:21:57Z</time>
      </trkpt>
      <trkpt lat="45.70061" lon="6.2579">
        <ele>1397.8</ele>
        <time>2022-01-13T05:21:58Z</time>
      </trkpt>
      <trkpt lat="45.7006" lon="6.25789">
        <ele>1397.8</ele>
        <time>2022-01-13T05:21:59Z</time>
      </trkpt>
      <trkpt lat="45.7006" lon="6.25788">
        <ele>1398.7</ele>
        <time>2022-01-13T05:22:00Z</time>
      </trkpt>
      <trkpt lat="45.70059" lon="6.25787">
        <ele>1398.7</ele>
        <time>2022-01-13T05:22:01Z</time>
      </trkpt>
      <trkpt lat="45.70058" lon="6.25786">
        <ele>1398.7</ele>
        <time>2022-01-13T05:22:02Z</time>
      </trkpt>
      <trkpt lat="45.70058" lon="6.25785">
        <ele>1398.7</ele>
        <time>2022-01-13T05:22:03Z</time>
      </trkpt>
      <trkpt lat="45.70057" lon="6.25784">
        <ele>1398.7</ele>
        <time>2022-01-13T05:22:04Z</time>
      </trkpt>
      <trkpt lat="45.70056" lon="6.25783">
        <ele>1398.7</ele>
        <time>2022-01-13T05:22:05Z</time>
      </trkpt>
      <trkpt lat="45.70056" lon="6.25782">
        <ele>1399.8</ele>
        <time>2022-01-13T05:22:06Z</time>
      </trkpt>
      <trkpt lat="45.70055" lon="6.25782">
        <ele>1399.8</ele>
        <time>2022-01-13T05:22:07Z</time>
      </trkpt>
      <trkpt lat="45.70054" lon="6.25781">
        <ele>1399.8</ele>
        <time>2022-01-13T05:22:08Z</time>
      </trkpt>
      <trkpt lat="45.70054" lon="6.2578">
        <ele>1399.8</ele>
        <time>2022-01-13T05:22:09Z</time>
      </trkpt>
      <trkpt lat="45.70053" lon="6.25779">
        <ele>1400.7</ele>
        <time>2022-01-13T05:22:10Z</time>
      </trkpt>
      <trkpt lat="45.70052" lon="6.25778">
        <ele>1400.7</ele>
        <time>2022-01-13T05:22:11Z</time>
      </trkpt>
      <trkpt lat="45.70051" lon="6.25777">
        <ele>1400.7</ele>
        <time>2022-01-13T05:22:12Z</time>
      </trkpt>
      <trkpt lat="45.70051" lon="6.25776">
        <ele>1400.7</ele>
        <time>2022-01-13T05:22:13Z</time>
      </trkpt>
      <trkpt lat="45.7005" lon="6.25775">
        <ele>1401.8</ele>
        <time>2022-01-13T05:22:14Z</time>
      </trkpt>
      <trkpt lat="45.70049" lon="6.25774">
        <ele>1401.8</ele>
        <time>2022-01-13T05:22:15Z</time>
      </trkpt>
      <trkpt lat="45.70048" lon="6.25773">
        <ele>1402.7</ele>
        <time>2022-01-13T05:22:16Z</time>
      </trkpt>
      <trkpt lat="45.70047" lon="6.25772">
        <ele>1402.7</ele>
        <time>2022-01-13T05:22:17Z</time>
      </trkpt>
      <trkpt lat="45.70046" lon="6.25771">
        <ele>1402.7</ele>
        <time>2022-01-13T05:22:18Z</time>
      </trkpt>
      <trkpt lat="45.70046" lon="6.2577">
        <ele>1402.7</ele>
        <time>2022-01-13T05:22:19Z</time>
      </trkpt>
      <trkpt lat="45.70046" lon="6.25768">
        <ele>1403.8</ele>
        <time>2022-01-13T05:22:20Z</time>
      </trkpt>
      <trkpt lat="45.70045" lon="6.25767">
        <ele>1403.8</ele>
        <time>2022-01-13T05:22:21Z</time>
      </trkpt>
      <trkpt lat="45.70044" lon="6.25766">
        <ele>1403.8</ele>
        <time>2022-01-13T05:22:22Z</time>
      </trkpt>
      <trkpt lat="45.70043" lon="6.25765">
        <ele>1403.8</ele>
        <time>2022-01-13T05:22:23Z</time>
      </trkpt>
      <trkpt lat="45.70043" lon="6.25764">
        <ele>1403.8</ele>
        <time>2022-01-13T05:22:24Z</time>
      </trkpt>
      <trkpt lat="45.70042" lon="6.25763">
        <ele>1403.8</ele>
        <time>2022-01-13T05:22:25Z</time>
      </trkpt>
      <trkpt lat="45.70041" lon="6.25762">
        <ele>1404.8</ele>
        <time>2022-01-13T05:22:26Z</time>
      </trkpt>
      <trkpt lat="45.7004" lon="6.25761">
        <ele>1404.8</ele>
        <time>2022-01-13T05:22:27Z</time>
      </trkpt>
      <trkpt lat="45.70039" lon="6.2576">
        <ele>1404.8</ele>
        <time>2022-01-13T05:22:28Z</time>
      </trkpt>
      <trkpt lat="45.70039" lon="6.25759">
        <ele>1404.8</ele>
        <time>2022-01-13T05:22:29Z</time>
      </trkpt>
      <trkpt lat="45.70038" lon="6.25758">
        <ele>1404.8</ele>
        <time>2022-01-13T05:22:30Z</time>
      </trkpt>
      <trkpt lat="45.70038" lon="6.25757">
        <ele>1404.8</ele>
        <time>2022-01-13T05:22:31Z</time>
      </trkpt>
      <trkpt lat="45.70036" lon="6.25756">
        <ele>1405.8</ele>
        <time>2022-01-13T05:22:32Z</time>
      </trkpt>
      <trkpt lat="45.70035" lon="6.25755">
        <ele>1405.8</ele>
        <time>2022-01-13T05:22:33Z</time>
      </trkpt>
      <trkpt lat="45.70034" lon="6.25754">
        <ele>1405.8</ele>
        <time>2022-01-13T05:22:34Z</time>
      </trkpt>
      <trkpt lat="45.70034" lon="6.25753">
        <ele>1405.8</ele>
        <time>2022-01-13T05:22:35Z</time>
      </trkpt>
      <trkpt lat="45.70033" lon="6.25752">
        <ele>1405.8</ele>
        <time>2022-01-13T05:22:36Z</time>
      </trkpt>
      <trkpt lat="45.70032" lon="6.25751">
        <ele>1405.8</ele>
        <time>2022-01-13T05:22:37Z</time>
      </trkpt>
      <trkpt lat="45.70032" lon="6.2575">
        <ele>1405.8</ele>
        <time>2022-01-13T05:22:38Z</time>
      </trkpt>
      <trkpt lat="45.70031" lon="6.25749">
        <ele>1405.8</ele>
        <time>2022-01-13T05:22:39Z</time>
      </trkpt>
      <trkpt lat="45.70031" lon="6.25748">
        <ele>1405.8</ele>
        <time>2022-01-13T05:22:40Z</time>
      </trkpt>
      <trkpt lat="45.7003" lon="6.25747">
        <ele>1405.8</ele>
        <time>2022-01-13T05:22:41Z</time>
      </trkpt>
      <trkpt lat="45.70029" lon="6.25746">
        <ele>1408.8</ele>
        <time>2022-01-13T05:22:42Z</time>
      </trkpt>
      <trkpt lat="45.70028" lon="6.25745">
        <ele>1408.8</ele>
        <time>2022-01-13T05:22:43Z</time>
      </trkpt>
      <trkpt lat="45.70027" lon="6.25744">
        <ele>1408.8</ele>
        <time>2022-01-13T05:22:44Z</time>
      </trkpt>
      <trkpt lat="45.70026" lon="6.25743">
        <ele>1408.8</ele>
        <time>2022-01-13T05:22:45Z</time>
      </trkpt>
      <trkpt lat="45.70025" lon="6.25742">
        <ele>1409.7</ele>
        <time>2022-01-13T05:22:46Z</time>
      </trkpt>
      <trkpt lat="45.70024" lon="6.25742">
        <ele>1409.7</ele>
        <time>2022-01-13T05:22:47Z</time>
      </trkpt>
      <trkpt lat="45.70023" lon="6.25741">
        <ele>1409.7</ele>
        <time>2022-01-13T05:22:48Z</time>
      </trkpt>
      <trkpt lat="45.70022" lon="6.2574">
        <ele>1409.7</ele>
        <time>2022-01-13T05:22:49Z</time>
      </trkpt>
      <trkpt lat="45.70021" lon="6.2574">
        <ele>1410.8</ele>
        <time>2022-01-13T05:22:50Z</time>
      </trkpt>
      <trkpt lat="45.7002" lon="6.25739">
        <ele>1410.8</ele>
        <time>2022-01-13T05:22:51Z</time>
      </trkpt>
      <trkpt lat="45.70019" lon="6.25738">
        <ele>1410.8</ele>
        <time>2022-01-13T05:22:52Z</time>
      </trkpt>
      <trkpt lat="45.70018" lon="6.25737">
        <ele>1410.8</ele>
        <time>2022-01-13T05:22:53Z</time>
      </trkpt>
      <trkpt lat="45.70017" lon="6.25737">
        <ele>1410.8</ele>
        <time>2022-01-13T05:22:54Z</time>
      </trkpt>
      <trkpt lat="45.70016" lon="6.25736">
        <ele>1410.8</ele>
        <time>2022-01-13T05:22:55Z</time>
      </trkpt>
      <trkpt lat="45.70015" lon="6.25736">
        <ele>1411.7</ele>
        <time>2022-01-13T05:22:56Z</time>
      </trkpt>
      <trkpt lat="45.70014" lon="6.25735">
        <ele>1411.7</ele>
        <time>2022-01-13T05:22:57Z</time>
      </trkpt>
      <trkpt lat="45.70013" lon="6.25734">
        <ele>1411.7</ele>
        <time>2022-01-13T05:22:58Z</time>
      </trkpt>
      <trkpt lat="45.70012" lon="6.25733">
        <ele>1411.7</ele>
        <time>2022-01-13T05:22:59Z</time>
      </trkpt>
      <trkpt lat="45.70011" lon="6.25732">
        <ele>1412.8</ele>
        <time>2022-01-13T05:23:00Z</time>
      </trkpt>
      <trkpt lat="45.7001" lon="6.25731">
        <ele>1412.8</ele>
        <time>2022-01-13T05:23:01Z</time>
      </trkpt>
      <trkpt lat="45.7001" lon="6.25729">
        <ele>1412.8</ele>
        <time>2022-01-13T05:23:02Z</time>
      </trkpt>
      <trkpt lat="45.70009" lon="6.25728">
        <ele>1412.8</ele>
        <time>2022-01-13T05:23:03Z</time>
      </trkpt>
      <trkpt lat="45.70008" lon="6.25727">
        <ele>1413.8</ele>
        <time>2022-01-13T05:23:04Z</time>
      </trkpt>
      <trkpt lat="45.70008" lon="6.25726">
        <ele>1413.8</ele>
        <time>2022-01-13T05:23:05Z</time>
      </trkpt>
      <trkpt lat="45.70007" lon="6.25725">
        <ele>1413.8</ele>
        <time>2022-01-13T05:23:06Z</time>
      </trkpt>
      <trkpt lat="45.70006" lon="6.25724">
        <ele>1413.8</ele>
        <time>2022-01-13T05:23:07Z</time>
      </trkpt>
      <trkpt lat="45.70005" lon="6.25723">
        <ele>1414.7</ele>
        <time>2022-01-13T05:23:08Z</time>
      </trkpt>
      <trkpt lat="45.70004" lon="6.25723">
        <ele>1414.7</ele>
        <time>2022-01-13T05:23:09Z</time>
      </trkpt>
      <trkpt lat="45.70003" lon="6.25722">
        <ele>1415.8</ele>
        <time>2022-01-13T05:23:10Z</time>
      </trkpt>
      <trkpt lat="45.70002" lon="6.25721">
        <ele>1415.8</ele>
        <time>2022-01-13T05:23:11Z</time>
      </trkpt>
      <trkpt lat="45.70001" lon="6.2572">
        <ele>1415.8</ele>
        <time>2022-01-13T05:23:12Z</time>
      </trkpt>
      <trkpt lat="45.70001" lon="6.2572">
        <ele>1415.8</ele>
        <time>2022-01-13T05:23:13Z</time>
      </trkpt>
      <trkpt lat="45.7" lon="6.25719">
        <ele>1416.7</ele>
        <time>2022-01-13T05:23:14Z</time>
      </trkpt>
      <trkpt lat="45.69999" lon="6.25719">
        <ele>1416.7</ele>
        <time>2022-01-13T05:23:15Z</time>
      </trkpt>
      <trkpt lat="45.69998" lon="6.25718">
        <ele>1416.7</ele>
        <time>2022-01-13T05:23:16Z</time>
      </trkpt>
      <trkpt lat="45.69997" lon="6.25717">
        <ele>1416.7</ele>
        <time>2022-01-13T05:23:17Z</time>
      </trkpt>
      <trkpt lat="45.69996" lon="6.25717">
        <ele>1417.8</ele>
        <time>2022-01-13T05:23:18Z</time>
      </trkpt>
      <trkpt lat="45.69995" lon="6.25716">
        <ele>1417.8</ele>
        <time>2022-01-13T05:23:19Z</time>
      </trkpt>
      <trkpt lat="45.69994" lon="6.25715">
        <ele>1417.8</ele>
        <time>2022-01-13T05:23:20Z</time>
      </trkpt>
      <trkpt lat="45.69994" lon="6.25715">
        <ele>1417.8</ele>
        <time>2022-01-13T05:23:21Z</time>
      </trkpt>
      <trkpt lat="45.69993" lon="6.25714">
        <ele>1417.8</ele>
        <time>2022-01-13T05:23:22Z</time>
      </trkpt>
      <trkpt lat="45.69992" lon="6.25714">
        <ele>1417.8</ele>
        <time>2022-01-13T05:23:23Z</time>
      </trkpt>
      <trkpt lat="45.69991" lon="6.25713">
        <ele>1418.7</ele>
        <time>2022-01-13T05:23:24Z</time>
      </trkpt>
      <trkpt lat="45.69991" lon="6.25713">
        <ele>1418.7</ele>
        <time>2022-01-13T05:23:25Z</time>
      </trkpt>
      <trkpt lat="45.69991" lon="6.25712">
        <ele>1418.7</ele>
        <time>2022-01-13T05:23:26Z</time>
      </trkpt>
      <trkpt lat="45.6999" lon="6.25711">
        <ele>1418.7</ele>
        <time>2022-01-13T05:23:27Z</time>
      </trkpt>
      <trkpt lat="45.69989" lon="6.2571">
        <ele>1418.7</ele>
        <time>2022-01-13T05:23:28Z</time>
      </trkpt>
      <trkpt lat="45.69988" lon="6.2571">
        <ele>1418.7</ele>
        <time>2022-01-13T05:23:29Z</time>
      </trkpt>
      <trkpt lat="45.69987" lon="6.25709">
        <ele>1418.7</ele>
        <time>2022-01-13T05:23:30Z</time>
      </trkpt>
      <trkpt lat="45.69986" lon="6.25709">
        <ele>1418.7</ele>
        <time>2022-01-13T05:23:31Z</time>
      </trkpt>
      <trkpt lat="45.69984" lon="6.25708">
        <ele>1418.7</ele>
        <time>2022-01-13T05:23:32Z</time>
      </trkpt>
      <trkpt lat="45.69984" lon="6.25708">
        <ele>1418.7</ele>
        <time>2022-01-13T05:23:33Z</time>
      </trkpt>
      <trkpt lat="45.69983" lon="6.25708">
        <ele>1420.8</ele>
        <time>2022-01-13T05:23:34Z</time>
      </trkpt>
      <trkpt lat="45.69982" lon="6.25707">
        <ele>1420.8</ele>
        <time>2022-01-13T05:23:35Z</time>
      </trkpt>
      <trkpt lat="45.69981" lon="6.25707">
        <ele>1421.8</ele>
        <time>2022-01-13T05:23:36Z</time>
      </trkpt>
      <trkpt lat="45.6998" lon="6.25706">
        <ele>1421.8</ele>
        <time>2022-01-13T05:23:37Z</time>
      </trkpt>
      <trkpt lat="45.69979" lon="6.25705">
        <ele>1421.8</ele>
        <time>2022-01-13T05:23:38Z</time>
      </trkpt>
      <trkpt lat="45.69978" lon="6.25705">
        <ele>1421.8</ele>
        <time>2022-01-13T05:23:39Z</time>
      </trkpt>
      <trkpt lat="45.69977" lon="6.25704">
        <ele>1422.8</ele>
        <time>2022-01-13T05:23:40Z</time>
      </trkpt>
      <trkpt lat="45.69975" lon="6.25703">
        <ele>1422.8</ele>
        <time>2022-01-13T05:23:41Z</time>
      </trkpt>
      <trkpt lat="45.69974" lon="6.25703">
        <ele>1422.8</ele>
        <time>2022-01-13T05:23:42Z</time>
      </trkpt>
      <trkpt lat="45.69973" lon="6.25702">
        <ele>1422.8</ele>
        <time>2022-01-13T05:23:43Z</time>
      </trkpt>
      <trkpt lat="45.69972" lon="6.25701">
        <ele>1422.8</ele>
        <time>2022-01-13T05:23:44Z</time>
      </trkpt>
      <trkpt lat="45.69971" lon="6.257">
        <ele>1422.8</ele>
        <time>2022-01-13T05:23:45Z</time>
      </trkpt>
      <trkpt lat="45.6997" lon="6.257">
        <ele>1423.7</ele>
        <time>2022-01-13T05:23:46Z</time>
      </trkpt>
      <trkpt lat="45.69969" lon="6.25699">
        <ele>1423.7</ele>
        <time>2022-01-13T05:23:47Z</time>
      </trkpt>
      <trkpt lat="45.69968" lon="6.25698">
        <ele>1423.7</ele>
        <time>2022-01-13T05:23:48Z</time>
      </trkpt>
      <trkpt lat="45.69966" lon="6.25697">
        <ele>1423.7</ele>
        <time>2022-01-13T05:23:49Z</time>
      </trkpt>
      <trkpt lat="45.69965" lon="6.25697">
        <ele>1424.8</ele>
        <time>2022-01-13T05:23:50Z</time>
      </trkpt>
      <trkpt lat="45.69964" lon="6.25696">
        <ele>1424.8</ele>
        <time>2022-01-13T05:23:51Z</time>
      </trkpt>
      <trkpt lat="45.69963" lon="6.25696">
        <ele>1424.8</ele>
        <time>2022-01-13T05:23:52Z</time>
      </trkpt>
      <trkpt lat="45.69962" lon="6.25695">
        <ele>1424.8</ele>
        <time>2022-01-13T05:23:53Z</time>
      </trkpt>
      <trkpt lat="45.69961" lon="6.25695">
        <ele>1425.7</ele>
        <time>2022-01-13T05:23:54Z</time>
      </trkpt>
      <trkpt lat="45.6996" lon="6.25694">
        <ele>1425.7</ele>
        <time>2022-01-13T05:23:55Z</time>
      </trkpt>
      <trkpt lat="45.6996" lon="6.25693">
        <ele>1425.7</ele>
        <time>2022-01-13T05:23:56Z</time>
      </trkpt>
      <trkpt lat="45.69958" lon="6.25693">
        <ele>1425.7</ele>
        <time>2022-01-13T05:23:57Z</time>
      </trkpt>
      <trkpt lat="45.69957" lon="6.25692">
        <ele>1425.7</ele>
        <time>2022-01-13T05:23:58Z</time>
      </trkpt>
      <trkpt lat="45.69956" lon="6.25692">
        <ele>1425.7</ele>
        <time>2022-01-13T05:23:59Z</time>
      </trkpt>
      <trkpt lat="45.69955" lon="6.25692">
        <ele>1426.8</ele>
        <time>2022-01-13T05:24:00Z</time>
      </trkpt>
      <trkpt lat="45.69954" lon="6.25691">
        <ele>1426.8</ele>
        <time>2022-01-13T05:24:01Z</time>
      </trkpt>
      <trkpt lat="45.69953" lon="6.25691">
        <ele>1426.8</ele>
        <time>2022-01-13T05:24:02Z</time>
      </trkpt>
      <trkpt lat="45.69951" lon="6.2569">
        <ele>1426.8</ele>
        <time>2022-01-13T05:24:03Z</time>
      </trkpt>
      <trkpt lat="45.6995" lon="6.25689">
        <ele>1427.7</ele>
        <time>2022-01-13T05:24:04Z</time>
      </trkpt>
      <trkpt lat="45.69949" lon="6.25689">
        <ele>1427.7</ele>
        <time>2022-01-13T05:24:05Z</time>
      </trkpt>
      <trkpt lat="45.69948" lon="6.25688">
        <ele>1427.7</ele>
        <time>2022-01-13T05:24:06Z</time>
      </trkpt>
      <trkpt lat="45.69947" lon="6.25688">
        <ele>1427.7</ele>
        <time>2022-01-13T05:24:07Z</time>
      </trkpt>
      <trkpt lat="45.69946" lon="6.25687">
        <ele>1428.8</ele>
        <time>2022-01-13T05:24:08Z</time>
      </trkpt>
      <trkpt lat="45.69946" lon="6.25686">
        <ele>1428.8</ele>
        <time>2022-01-13T05:24:09Z</time>
      </trkpt>
      <trkpt lat="45.69944" lon="6.25685">
        <ele>1429.8</ele>
        <time>2022-01-13T05:24:10Z</time>
      </trkpt>
      <trkpt lat="45.69944" lon="6.25685">
        <ele>1429.8</ele>
        <time>2022-01-13T05:24:11Z</time>
      </trkpt>
      <trkpt lat="45.69943" lon="6.25684">
        <ele>1429.8</ele>
        <time>2022-01-13T05:24:12Z</time>
      </trkpt>
      <trkpt lat="45.69942" lon="6.25684">
        <ele>1429.8</ele>
        <time>2022-01-13T05:24:13Z</time>
      </trkpt>
      <trkpt lat="45.69941" lon="6.25683">
        <ele>1429.8</ele>
        <time>2022-01-13T05:24:14Z</time>
      </trkpt>
      <trkpt lat="45.6994" lon="6.25682">
        <ele>1429.8</ele>
        <time>2022-01-13T05:24:15Z</time>
      </trkpt>
      <trkpt lat="45.69939" lon="6.25681">
        <ele>1429.8</ele>
        <time>2022-01-13T05:24:16Z</time>
      </trkpt>
      <trkpt lat="45.69938" lon="6.2568">
        <ele>1429.8</ele>
        <time>2022-01-13T05:24:17Z</time>
      </trkpt>
      <trkpt lat="45.69937" lon="6.2568">
        <ele>1429.8</ele>
        <time>2022-01-13T05:24:18Z</time>
      </trkpt>
      <trkpt lat="45.69936" lon="6.25679">
        <ele>1429.8</ele>
        <time>2022-01-13T05:24:19Z</time>
      </trkpt>
      <trkpt lat="45.69935" lon="6.25678">
        <ele>1429.8</ele>
        <time>2022-01-13T05:24:20Z</time>
      </trkpt>
      <trkpt lat="45.69934" lon="6.25678">
        <ele>1429.8</ele>
        <time>2022-01-13T05:24:21Z</time>
      </trkpt>
      <trkpt lat="45.69933" lon="6.25677">
        <ele>1431.8</ele>
        <time>2022-01-13T05:24:22Z</time>
      </trkpt>
      <trkpt lat="45.69932" lon="6.25676">
        <ele>1431.8</ele>
        <time>2022-01-13T05:24:23Z</time>
      </trkpt>
      <trkpt lat="45.69931" lon="6.25676">
        <ele>1432.7</ele>
        <time>2022-01-13T05:24:24Z</time>
      </trkpt>
      <trkpt lat="45.6993" lon="6.25675">
        <ele>1432.7</ele>
        <time>2022-01-13T05:24:25Z</time>
      </trkpt>
      <trkpt lat="45.69929" lon="6.25675">
        <ele>1432.7</ele>
        <time>2022-01-13T05:24:26Z</time>
      </trkpt>
      <trkpt lat="45.69929" lon="6.25674">
        <ele>1432.7</ele>
        <time>2022-01-13T05:24:27Z</time>
      </trkpt>
      <trkpt lat="45.69928" lon="6.25673">
        <ele>1432.7</ele>
        <time>2022-01-13T05:24:28Z</time>
      </trkpt>
      <trkpt lat="45.69927" lon="6.25673">
        <ele>1432.7</ele>
        <time>2022-01-13T05:24:29Z</time>
      </trkpt>
      <trkpt lat="45.69926" lon="6.25673">
        <ele>1433.8</ele>
        <time>2022-01-13T05:24:30Z</time>
      </trkpt>
      <trkpt lat="45.69925" lon="6.25672">
        <ele>1433.8</ele>
        <time>2022-01-13T05:24:31Z</time>
      </trkpt>
      <trkpt lat="45.69924" lon="6.25672">
        <ele>1433.8</ele>
        <time>2022-01-13T05:24:32Z</time>
      </trkpt>
      <trkpt lat="45.69923" lon="6.25672">
        <ele>1433.8</ele>
        <time>2022-01-13T05:24:33Z</time>
      </trkpt>
      <trkpt lat="45.69922" lon="6.25671">
        <ele>1433.8</ele>
        <time>2022-01-13T05:24:34Z</time>
      </trkpt>
      <trkpt lat="45.69921" lon="6.25671">
        <ele>1433.8</ele>
        <time>2022-01-13T05:24:35Z</time>
      </trkpt>
      <trkpt lat="45.6992" lon="6.2567">
        <ele>1433.8</ele>
        <time>2022-01-13T05:24:36Z</time>
      </trkpt>
      <trkpt lat="45.69919" lon="6.25669">
        <ele>1433.8</ele>
        <time>2022-01-13T05:24:37Z</time>
      </trkpt>
      <trkpt lat="45.69918" lon="6.25669">
        <ele>1433.8</ele>
        <time>2022-01-13T05:24:38Z</time>
      </trkpt>
      <trkpt lat="45.69917" lon="6.25668">
        <ele>1433.8</ele>
        <time>2022-01-13T05:24:39Z</time>
      </trkpt>
      <trkpt lat="45.69916" lon="6.25668">
        <ele>1436.8</ele>
        <time>2022-01-13T05:24:40Z</time>
      </trkpt>
      <trkpt lat="45.69915" lon="6.25668">
        <ele>1436.8</ele>
        <time>2022-01-13T05:24:41Z</time>
      </trkpt>
      <trkpt lat="45.69914" lon="6.25667">
        <ele>1436.8</ele>
        <time>2022-01-13T05:24:42Z</time>
      </trkpt>
      <trkpt lat="45.69913" lon="6.25666">
        <ele>1436.8</ele>
        <time>2022-01-13T05:24:43Z</time>
      </trkpt>
      <trkpt lat="45.69912" lon="6.25665">
        <ele>1436.8</ele>
        <time>2022-01-13T05:24:44Z</time>
      </trkpt>
      <trkpt lat="45.69912" lon="6.25664">
        <ele>1436.8</ele>
        <time>2022-01-13T05:24:45Z</time>
      </trkpt>
      <trkpt lat="45.69911" lon="6.25663">
        <ele>1437.8</ele>
        <time>2022-01-13T05:24:46Z</time>
      </trkpt>
      <trkpt lat="45.6991" lon="6.25662">
        <ele>1437.8</ele>
        <time>2022-01-13T05:24:47Z</time>
      </trkpt>
      <trkpt lat="45.69909" lon="6.25661">
        <ele>1437.8</ele>
        <time>2022-01-13T05:24:48Z</time>
      </trkpt>
      <trkpt lat="45.69908" lon="6.25661">
        <ele>1437.8</ele>
        <time>2022-01-13T05:24:49Z</time>
      </trkpt>
      <trkpt lat="45.69907" lon="6.2566">
        <ele>1438.8</ele>
        <time>2022-01-13T05:24:50Z</time>
      </trkpt>
      <trkpt lat="45.69906" lon="6.25658">
        <ele>1438.8</ele>
        <time>2022-01-13T05:24:51Z</time>
      </trkpt>
      <trkpt lat="45.69905" lon="6.25657">
        <ele>1438.8</ele>
        <time>2022-01-13T05:24:52Z</time>
      </trkpt>
      <trkpt lat="45.69904" lon="6.25656">
        <ele>1438.8</ele>
        <time>2022-01-13T05:24:53Z</time>
      </trkpt>
      <trkpt lat="45.69903" lon="6.25655">
        <ele>1440.8</ele>
        <time>2022-01-13T05:24:54Z</time>
      </trkpt>
      <trkpt lat="45.69902" lon="6.25654">
        <ele>1440.8</ele>
        <time>2022-01-13T05:24:55Z</time>
      </trkpt>
      <trkpt lat="45.69902" lon="6.25654">
        <ele>1440.8</ele>
        <time>2022-01-13T05:24:56Z</time>
      </trkpt>
      <trkpt lat="45.69902" lon="6.25652">
        <ele>1440.8</ele>
        <time>2022-01-13T05:24:57Z</time>
      </trkpt>
      <trkpt lat="45.69901" lon="6.25652">
        <ele>1440.8</ele>
        <time>2022-01-13T05:24:58Z</time>
      </trkpt>
      <trkpt lat="45.699" lon="6.25651">
        <ele>1440.8</ele>
        <time>2022-01-13T05:24:59Z</time>
      </trkpt>
      <trkpt lat="45.69899" lon="6.2565">
        <ele>1440.8</ele>
        <time>2022-01-13T05:25:00Z</time>
      </trkpt>
      <trkpt lat="45.69898" lon="6.25649">
        <ele>1440.8</ele>
        <time>2022-01-13T05:25:01Z</time>
      </trkpt>
      <trkpt lat="45.69897" lon="6.25648">
        <ele>1440.8</ele>
        <time>2022-01-13T05:25:02Z</time>
      </trkpt>
      <trkpt lat="45.69896" lon="6.25647">
        <ele>1440.8</ele>
        <time>2022-01-13T05:25:03Z</time>
      </trkpt>
      <trkpt lat="45.69895" lon="6.25647">
        <ele>1440.8</ele>
        <time>2022-01-13T05:25:04Z</time>
      </trkpt>
      <trkpt lat="45.69894" lon="6.25646">
        <ele>1440.8</ele>
        <time>2022-01-13T05:25:05Z</time>
      </trkpt>
      <trkpt lat="45.69893" lon="6.25645">
        <ele>1440.8</ele>
        <time>2022-01-13T05:25:06Z</time>
      </trkpt>
      <trkpt lat="45.69892" lon="6.25644">
        <ele>1440.8</ele>
        <time>2022-01-13T05:25:07Z</time>
      </trkpt>
      <trkpt lat="45.69891" lon="6.25642">
        <ele>1442.8</ele>
        <time>2022-01-13T05:25:08Z</time>
      </trkpt>
      <trkpt lat="45.69891" lon="6.25641">
        <ele>1442.8</ele>
        <time>2022-01-13T05:25:09Z</time>
      </trkpt>
      <trkpt lat="45.6989" lon="6.2564">
        <ele>1443.7</ele>
        <time>2022-01-13T05:25:10Z</time>
      </trkpt>
      <trkpt lat="45.69889" lon="6.25639">
        <ele>1443.7</ele>
        <time>2022-01-13T05:25:11Z</time>
      </trkpt>
      <trkpt lat="45.69888" lon="6.25638">
        <ele>1444.8</ele>
        <time>2022-01-13T05:25:12Z</time>
      </trkpt>
      <trkpt lat="45.69888" lon="6.25637">
        <ele>1444.8</ele>
        <time>2022-01-13T05:25:13Z</time>
      </trkpt>
      <trkpt lat="45.69887" lon="6.25636">
        <ele>1444.8</ele>
        <time>2022-01-13T05:25:14Z</time>
      </trkpt>
      <trkpt lat="45.69886" lon="6.25635">
        <ele>1444.8</ele>
        <time>2022-01-13T05:25:15Z</time>
      </trkpt>
      <trkpt lat="45.69886" lon="6.25634">
        <ele>1444.8</ele>
        <time>2022-01-13T05:25:16Z</time>
      </trkpt>
      <trkpt lat="45.69885" lon="6.25633">
        <ele>1444.8</ele>
        <time>2022-01-13T05:25:17Z</time>
      </trkpt>
      <trkpt lat="45.69884" lon="6.25632">
        <ele>1445.8</ele>
        <time>2022-01-13T05:25:18Z</time>
      </trkpt>
      <trkpt lat="45.69883" lon="6.25631">
        <ele>1445.8</ele>
        <time>2022-01-13T05:25:19Z</time>
      </trkpt>
      <trkpt lat="45.69883" lon="6.2563">
        <ele>1445.8</ele>
        <time>2022-01-13T05:25:20Z</time>
      </trkpt>
      <trkpt lat="45.69882" lon="6.25628">
        <ele>1445.8</ele>
        <time>2022-01-13T05:25:21Z</time>
      </trkpt>
      <trkpt lat="45.69881" lon="6.25627">
        <ele>1445.8</ele>
        <time>2022-01-13T05:25:22Z</time>
      </trkpt>
      <trkpt lat="45.69881" lon="6.25626">
        <ele>1445.8</ele>
        <time>2022-01-13T05:25:23Z</time>
      </trkpt>
      <trkpt lat="45.6988" lon="6.25625">
        <ele>1445.8</ele>
        <time>2022-01-13T05:25:24Z</time>
      </trkpt>
      <trkpt lat="45.69879" lon="6.25623">
        <ele>1445.8</ele>
        <time>2022-01-13T05:25:25Z</time>
      </trkpt>
      <trkpt lat="45.69879" lon="6.25622">
        <ele>1446.8</ele>
        <time>2022-01-13T05:25:26Z</time>
      </trkpt>
      <trkpt lat="45.69878" lon="6.25621">
        <ele>1446.8</ele>
        <time>2022-01-13T05:25:27Z</time>
      </trkpt>
      <trkpt lat="45.69878" lon="6.2562">
        <ele>1446.8</ele>
        <time>2022-01-13T05:25:28Z</time>
      </trkpt>
      <trkpt lat="45.69877" lon="6.25618">
        <ele>1446.8</ele>
        <time>2022-01-13T05:25:29Z</time>
      </trkpt>
      <trkpt lat="45.69877" lon="6.25617">
        <ele>1446.8</ele>
        <time>2022-01-13T05:25:30Z</time>
      </trkpt>
      <trkpt lat="45.69876" lon="6.25616">
        <ele>1446.8</ele>
        <time>2022-01-13T05:25:31Z</time>
      </trkpt>
      <trkpt lat="45.69875" lon="6.25615">
        <ele>1446.8</ele>
        <time>2022-01-13T05:25:32Z</time>
      </trkpt>
      <trkpt lat="45.69875" lon="6.25614">
        <ele>1446.8</ele>
        <time>2022-01-13T05:25:33Z</time>
      </trkpt>
      <trkpt lat="45.69874" lon="6.25613">
        <ele>1446.8</ele>
        <time>2022-01-13T05:25:34Z</time>
      </trkpt>
      <trkpt lat="45.69873" lon="6.25612">
        <ele>1446.8</ele>
        <time>2022-01-13T05:25:35Z</time>
      </trkpt>
      <trkpt lat="45.69872" lon="6.25611">
        <ele>1449.8</ele>
        <time>2022-01-13T05:25:36Z</time>
      </trkpt>
      <trkpt lat="45.69871" lon="6.2561">
        <ele>1449.8</ele>
        <time>2022-01-13T05:25:37Z</time>
      </trkpt>
      <trkpt lat="45.6987" lon="6.25609">
        <ele>1449.8</ele>
        <time>2022-01-13T05:25:38Z</time>
      </trkpt>
      <trkpt lat="45.69869" lon="6.25607">
        <ele>1449.8</ele>
        <time>2022-01-13T05:25:39Z</time>
      </trkpt>
      <trkpt lat="45.69869" lon="6.25606">
        <ele>1449.8</ele>
        <time>2022-01-13T05:25:40Z</time>
      </trkpt>
      <trkpt lat="45.69868" lon="6.25605">
        <ele>1449.8</ele>
        <time>2022-01-13T05:25:41Z</time>
      </trkpt>
      <trkpt lat="45.69867" lon="6.25604">
        <ele>1450.7</ele>
        <time>2022-01-13T05:25:42Z</time>
      </trkpt>
      <trkpt lat="45.69867" lon="6.25603">
        <ele>1450.7</ele>
        <time>2022-01-13T05:25:43Z</time>
      </trkpt>
      <trkpt lat="45.69866" lon="6.25602">
        <ele>1450.7</ele>
        <time>2022-01-13T05:25:44Z</time>
      </trkpt>
      <trkpt lat="45.69865" lon="6.25601">
        <ele>1450.7</ele>
        <time>2022-01-13T05:25:45Z</time>
      </trkpt>
      <trkpt lat="45.69865" lon="6.256">
        <ele>1450.7</ele>
        <time>2022-01-13T05:25:46Z</time>
      </trkpt>
      <trkpt lat="45.69864" lon="6.25598">
        <ele>1450.7</ele>
        <time>2022-01-13T05:25:47Z</time>
      </trkpt>
      <trkpt lat="45.69864" lon="6.25597">
        <ele>1450.7</ele>
        <time>2022-01-13T05:25:48Z</time>
      </trkpt>
      <trkpt lat="45.69863" lon="6.25596">
        <ele>1450.7</ele>
        <time>2022-01-13T05:25:49Z</time>
      </trkpt>
      <trkpt lat="45.69862" lon="6.25595">
        <ele>1450.7</ele>
        <time>2022-01-13T05:25:50Z</time>
      </trkpt>
      <trkpt lat="45.69861" lon="6.25594">
        <ele>1450.7</ele>
        <time>2022-01-13T05:25:51Z</time>
      </trkpt>
      <trkpt lat="45.6986" lon="6.25592">
        <ele>1452.8</ele>
        <time>2022-01-13T05:25:52Z</time>
      </trkpt>
      <trkpt lat="45.6986" lon="6.25591">
        <ele>1452.8</ele>
        <time>2022-01-13T05:25:53Z</time>
      </trkpt>
      <trkpt lat="45.69859" lon="6.2559">
        <ele>1452.8</ele>
        <time>2022-01-13T05:25:54Z</time>
      </trkpt>
      <trkpt lat="45.69858" lon="6.25589">
        <ele>1452.8</ele>
        <time>2022-01-13T05:25:55Z</time>
      </trkpt>
      <trkpt lat="45.69858" lon="6.25588">
        <ele>1454.8</ele>
        <time>2022-01-13T05:25:56Z</time>
      </trkpt>
      <trkpt lat="45.69857" lon="6.25587">
        <ele>1454.8</ele>
        <time>2022-01-13T05:25:57Z</time>
      </trkpt>
      <trkpt lat="45.69856" lon="6.25586">
        <ele>1454.8</ele>
        <time>2022-01-13T05:25:58Z</time>
      </trkpt>
      <trkpt lat="45.69856" lon="6.25585">
        <ele>1454.8</ele>
        <time>2022-01-13T05:25:59Z</time>
      </trkpt>
      <trkpt lat="45.69855" lon="6.25583">
        <ele>1455.7</ele>
        <time>2022-01-13T05:26:00Z</time>
      </trkpt>
      <trkpt lat="45.69854" lon="6.25582">
        <ele>1455.7</ele>
        <time>2022-01-13T05:26:01Z</time>
      </trkpt>
      <trkpt lat="45.69853" lon="6.25581">
        <ele>1455.7</ele>
        <time>2022-01-13T05:26:02Z</time>
      </trkpt>
      <trkpt lat="45.69852" lon="6.2558">
        <ele>1455.7</ele>
        <time>2022-01-13T05:26:03Z</time>
      </trkpt>
      <trkpt lat="45.69852" lon="6.25579">
        <ele>1456.8</ele>
        <time>2022-01-13T05:26:04Z</time>
      </trkpt>
      <trkpt lat="45.69851" lon="6.25578">
        <ele>1456.8</ele>
        <time>2022-01-13T05:26:05Z</time>
      </trkpt>
      <trkpt lat="45.6985" lon="6.25577">
        <ele>1456.8</ele>
        <time>2022-01-13T05:26:06Z</time>
      </trkpt>
      <trkpt lat="45.6985" lon="6.25575">
        <ele>1456.8</ele>
        <time>2022-01-13T05:26:07Z</time>
      </trkpt>
      <trkpt lat="45.69849" lon="6.25574">
        <ele>1457.7</ele>
        <time>2022-01-13T05:26:08Z</time>
      </trkpt>
      <trkpt lat="45.69848" lon="6.25572">
        <ele>1457.7</ele>
        <time>2022-01-13T05:26:09Z</time>
      </trkpt>
      <trkpt lat="45.69848" lon="6.25571">
        <ele>1457.7</ele>
        <time>2022-01-13T05:26:10Z</time>
      </trkpt>
      <trkpt lat="45.69847" lon="6.2557">
        <ele>1457.7</ele>
        <time>2022-01-13T05:26:11Z</time>
      </trkpt>
      <trkpt lat="45.69846" lon="6.25569">
        <ele>1458.8</ele>
        <time>2022-01-13T05:26:12Z</time>
      </trkpt>
      <trkpt lat="45.69846" lon="6.25567">
        <ele>1458.8</ele>
        <time>2022-01-13T05:26:13Z</time>
      </trkpt>
      <trkpt lat="45.69845" lon="6.25565">
        <ele>1458.8</ele>
        <time>2022-01-13T05:26:14Z</time>
      </trkpt>
      <trkpt lat="45.69844" lon="6.25564">
        <ele>1458.8</ele>
        <time>2022-01-13T05:26:15Z</time>
      </trkpt>
      <trkpt lat="45.69843" lon="6.25563">
        <ele>1458.8</ele>
        <time>2022-01-13T05:26:16Z</time>
      </trkpt>
      <trkpt lat="45.69843" lon="6.25561">
        <ele>1458.8</ele>
        <time>2022-01-13T05:26:17Z</time>
      </trkpt>
      <trkpt lat="45.69842" lon="6.2556">
        <ele>1458.8</ele>
        <time>2022-01-13T05:26:18Z</time>
      </trkpt>
      <trkpt lat="45.69841" lon="6.25559">
        <ele>1458.8</ele>
        <time>2022-01-13T05:26:19Z</time>
      </trkpt>
      <trkpt lat="45.69841" lon="6.25558">
        <ele>1459.7</ele>
        <time>2022-01-13T05:26:20Z</time>
      </trkpt>
      <trkpt lat="45.69839" lon="6.25556">
        <ele>1459.7</ele>
        <time>2022-01-13T05:26:21Z</time>
      </trkpt>
      <trkpt lat="45.69838" lon="6.25555">
        <ele>1460.8</ele>
        <time>2022-01-13T05:26:22Z</time>
      </trkpt>
      <trkpt lat="45.69838" lon="6.25553">
        <ele>1460.8</ele>
        <time>2022-01-13T05:26:23Z</time>
      </trkpt>
      <trkpt lat="45.69837" lon="6.25552">
        <ele>1460.8</ele>
        <time>2022-01-13T05:26:24Z</time>
      </trkpt>
      <trkpt lat="45.69836" lon="6.25551">
        <ele>1460.8</ele>
        <time>2022-01-13T05:26:25Z</time>
      </trkpt>
      <trkpt lat="45.69836" lon="6.2555">
        <ele>1460.8</ele>
        <time>2022-01-13T05:26:26Z</time>
      </trkpt>
      <trkpt lat="45.69834" lon="6.25549">
        <ele>1460.8</ele>
        <time>2022-01-13T05:26:27Z</time>
      </trkpt>
      <trkpt lat="45.69833" lon="6.25549">
        <ele>1460.8</ele>
        <time>2022-01-13T05:26:28Z</time>
      </trkpt>
      <trkpt lat="45.69831" lon="6.25548">
        <ele>1460.8</ele>
        <time>2022-01-13T05:26:29Z</time>
      </trkpt>
      <trkpt lat="45.6983" lon="6.25547">
        <ele>1461.8</ele>
        <time>2022-01-13T05:26:30Z</time>
      </trkpt>
      <trkpt lat="45.69829" lon="6.25546">
        <ele>1461.8</ele>
        <time>2022-01-13T05:26:31Z</time>
      </trkpt>
      <trkpt lat="45.69828" lon="6.25545">
        <ele>1461.8</ele>
        <time>2022-01-13T05:26:32Z</time>
      </trkpt>
      <trkpt lat="45.69826" lon="6.25544">
        <ele>1461.8</ele>
        <time>2022-01-13T05:26:33Z</time>
      </trkpt>
      <trkpt lat="45.69826" lon="6.25543">
        <ele>1462.8</ele>
        <time>2022-01-13T05:26:34Z</time>
      </trkpt>
      <trkpt lat="45.69825" lon="6.25542">
        <ele>1462.8</ele>
        <time>2022-01-13T05:26:35Z</time>
      </trkpt>
      <trkpt lat="45.69824" lon="6.25541">
        <ele>1462.8</ele>
        <time>2022-01-13T05:26:36Z</time>
      </trkpt>
      <trkpt lat="45.69823" lon="6.2554">
        <ele>1462.8</ele>
        <time>2022-01-13T05:26:37Z</time>
      </trkpt>
      <trkpt lat="45.69822" lon="6.25539">
        <ele>1463.8</ele>
        <time>2022-01-13T05:26:38Z</time>
      </trkpt>
      <trkpt lat="45.69821" lon="6.25538">
        <ele>1463.8</ele>
        <time>2022-01-13T05:26:39Z</time>
      </trkpt>
      <trkpt lat="45.6982" lon="6.25537">
        <ele>1463.8</ele>
        <time>2022-01-13T05:26:40Z</time>
      </trkpt>
      <trkpt lat="45.69819" lon="6.25536">
        <ele>1463.8</ele>
        <time>2022-01-13T05:26:41Z</time>
      </trkpt>
      <trkpt lat="45.69818" lon="6.25536">
        <ele>1464.7</ele>
        <time>2022-01-13T05:26:42Z</time>
      </trkpt>
      <trkpt lat="45.69816" lon="6.25535">
        <ele>1464.7</ele>
        <time>2022-01-13T05:26:43Z</time>
      </trkpt>
      <trkpt lat="45.69815" lon="6.25534">
        <ele>1464.7</ele>
        <time>2022-01-13T05:26:44Z</time>
      </trkpt>
      <trkpt lat="45.69814" lon="6.25533">
        <ele>1464.7</ele>
        <time>2022-01-13T05:26:45Z</time>
      </trkpt>
      <trkpt lat="45.69813" lon="6.25532">
        <ele>1464.7</ele>
        <time>2022-01-13T05:26:46Z</time>
      </trkpt>
      <trkpt lat="45.69812" lon="6.25531">
        <ele>1464.7</ele>
        <time>2022-01-13T05:26:47Z</time>
      </trkpt>
      <trkpt lat="45.69811" lon="6.2553">
        <ele>1464.7</ele>
        <time>2022-01-13T05:26:48Z</time>
      </trkpt>
      <trkpt lat="45.6981" lon="6.2553">
        <ele>1464.7</ele>
        <time>2022-01-13T05:26:49Z</time>
      </trkpt>
      <trkpt lat="45.69808" lon="6.25529">
        <ele>1464.7</ele>
        <time>2022-01-13T05:26:50Z</time>
      </trkpt>
      <trkpt lat="45.69807" lon="6.25528">
        <ele>1464.7</ele>
        <time>2022-01-13T05:26:51Z</time>
      </trkpt>
      <trkpt lat="45.69806" lon="6.25528">
        <ele>1465.8</ele>
        <time>2022-01-13T05:26:52Z</time>
      </trkpt>
      <trkpt lat="45.69805" lon="6.25527">
        <ele>1465.8</ele>
        <time>2022-01-13T05:26:53Z</time>
      </trkpt>
      <trkpt lat="45.69804" lon="6.25526">
        <ele>1466.7</ele>
        <time>2022-01-13T05:26:54Z</time>
      </trkpt>
      <trkpt lat="45.69803" lon="6.25525">
        <ele>1466.7</ele>
        <time>2022-01-13T05:26:55Z</time>
      </trkpt>
      <trkpt lat="45.69802" lon="6.25524">
        <ele>1466.7</ele>
        <time>2022-01-13T05:26:56Z</time>
      </trkpt>
      <trkpt lat="45.69801" lon="6.25524">
        <ele>1466.7</ele>
        <time>2022-01-13T05:26:57Z</time>
      </trkpt>
      <trkpt lat="45.698" lon="6.25523">
        <ele>1466.7</ele>
        <time>2022-01-13T05:26:58Z</time>
      </trkpt>
      <trkpt lat="45.69799" lon="6.25522">
        <ele>1466.7</ele>
        <time>2022-01-13T05:26:59Z</time>
      </trkpt>
      <trkpt lat="45.69798" lon="6.25521">
        <ele>1467.8</ele>
        <time>2022-01-13T05:27:00Z</time>
      </trkpt>
      <trkpt lat="45.69797" lon="6.2552">
        <ele>1467.8</ele>
        <time>2022-01-13T05:27:01Z</time>
      </trkpt>
      <trkpt lat="45.69796" lon="6.25519">
        <ele>1467.8</ele>
        <time>2022-01-13T05:27:02Z</time>
      </trkpt>
      <trkpt lat="45.69795" lon="6.25518">
        <ele>1467.8</ele>
        <time>2022-01-13T05:27:03Z</time>
      </trkpt>
      <trkpt lat="45.69794" lon="6.25517">
        <ele>1467.8</ele>
        <time>2022-01-13T05:27:04Z</time>
      </trkpt>
      <trkpt lat="45.69793" lon="6.25515">
        <ele>1467.8</ele>
        <time>2022-01-13T05:27:05Z</time>
      </trkpt>
      <trkpt lat="45.69792" lon="6.25514">
        <ele>1468.8</ele>
        <time>2022-01-13T05:27:06Z</time>
      </trkpt>
      <trkpt lat="45.69791" lon="6.25513">
        <ele>1468.8</ele>
        <time>2022-01-13T05:27:07Z</time>
      </trkpt>
      <trkpt lat="45.6979" lon="6.25512">
        <ele>1469.8</ele>
        <time>2022-01-13T05:27:08Z</time>
      </trkpt>
      <trkpt lat="45.69789" lon="6.2551">
        <ele>1469.8</ele>
        <time>2022-01-13T05:27:09Z</time>
      </trkpt>
      <trkpt lat="45.69789" lon="6.25509">
        <ele>1469.8</ele>
        <time>2022-01-13T05:27:10Z</time>
      </trkpt>
      <trkpt lat="45.69788" lon="6.25508">
        <ele>1469.8</ele>
        <time>2022-01-13T05:27:11Z</time>
      </trkpt>
      <trkpt lat="45.69787" lon="6.25506">
        <ele>1469.8</ele>
        <time>2022-01-13T05:27:12Z</time>
      </trkpt>
      <trkpt lat="45.69786" lon="6.25505">
        <ele>1469.8</ele>
        <time>2022-01-13T05:27:13Z</time>
      </trkpt>
      <trkpt lat="45.69785" lon="6.25502">
        <ele>1469.8</ele>
        <time>2022-01-13T05:27:14Z</time>
      </trkpt>
      <trkpt lat="45.69784" lon="6.255">
        <ele>1469.8</ele>
        <time>2022-01-13T05:27:15Z</time>
      </trkpt>
      <trkpt lat="45.69783" lon="6.25499">
        <ele>1470.8</ele>
        <time>2022-01-13T05:27:16Z</time>
      </trkpt>
      <trkpt lat="45.69782" lon="6.25498">
        <ele>1470.8</ele>
        <time>2022-01-13T05:27:17Z</time>
      </trkpt>
      <trkpt lat="45.69781" lon="6.25497">
        <ele>1470.8</ele>
        <time>2022-01-13T05:27:18Z</time>
      </trkpt>
      <trkpt lat="45.6978" lon="6.25496">
        <ele>1470.8</ele>
        <time>2022-01-13T05:27:19Z</time>
      </trkpt>
      <trkpt lat="45.69778" lon="6.25496">
        <ele>1470.8</ele>
        <time>2022-01-13T05:27:20Z</time>
      </trkpt>
      <trkpt lat="45.69777" lon="6.25496">
        <ele>1470.8</ele>
        <time>2022-01-13T05:27:21Z</time>
      </trkpt>
      <trkpt lat="45.69776" lon="6.25496">
        <ele>1470.8</ele>
        <time>2022-01-13T05:27:22Z</time>
      </trkpt>
      <trkpt lat="45.69775" lon="6.25496">
        <ele>1470.8</ele>
        <time>2022-01-13T05:27:23Z</time>
      </trkpt>
      <trkpt lat="45.69775" lon="6.25498">
        <ele>1470.8</ele>
        <time>2022-01-13T05:27:24Z</time>
      </trkpt>
      <trkpt lat="45.69774" lon="6.25499">
        <ele>1470.8</ele>
        <time>2022-01-13T05:27:25Z</time>
      </trkpt>
      <trkpt lat="45.69773" lon="6.255">
        <ele>1471.7</ele>
        <time>2022-01-13T05:27:26Z</time>
      </trkpt>
      <trkpt lat="45.69772" lon="6.25501">
        <ele>1471.7</ele>
        <time>2022-01-13T05:27:27Z</time>
      </trkpt>
      <trkpt lat="45.69772" lon="6.25501">
        <ele>1471.7</ele>
        <time>2022-01-13T05:27:28Z</time>
      </trkpt>
      <trkpt lat="45.69771" lon="6.25501">
        <ele>1471.7</ele>
        <time>2022-01-13T05:27:29Z</time>
      </trkpt>
      <trkpt lat="45.6977" lon="6.255">
        <ele>1471.7</ele>
        <time>2022-01-13T05:27:30Z</time>
      </trkpt>
      <trkpt lat="45.69769" lon="6.255">
        <ele>1471.7</ele>
        <time>2022-01-13T05:27:31Z</time>
      </trkpt>
      <trkpt lat="45.69768" lon="6.25499">
        <ele>1471.7</ele>
        <time>2022-01-13T05:27:32Z</time>
      </trkpt>
      <trkpt lat="45.69766" lon="6.25499">
        <ele>1471.7</ele>
        <time>2022-01-13T05:27:33Z</time>
      </trkpt>
      <trkpt lat="45.69765" lon="6.25498">
        <ele>1471.7</ele>
        <time>2022-01-13T05:27:34Z</time>
      </trkpt>
      <trkpt lat="45.69764" lon="6.25498">
        <ele>1471.7</ele>
        <time>2022-01-13T05:27:35Z</time>
      </trkpt>
      <trkpt lat="45.69762" lon="6.25497">
        <ele>1471.7</ele>
        <time>2022-01-13T05:27:36Z</time>
      </trkpt>
      <trkpt lat="45.69761" lon="6.25497">
        <ele>1471.7</ele>
        <time>2022-01-13T05:27:37Z</time>
      </trkpt>
      <trkpt lat="45.6976" lon="6.25497">
        <ele>1471.7</ele>
        <time>2022-01-13T05:27:38Z</time>
      </trkpt>
      <trkpt lat="45.69759" lon="6.25497">
        <ele>1471.7</ele>
        <time>2022-01-13T05:27:39Z</time>
      </trkpt>
      <trkpt lat="45.69758" lon="6.25497">
        <ele>1471.7</ele>
        <time>2022-01-13T05:27:40Z</time>
      </trkpt>
      <trkpt lat="45.69757" lon="6.25497">
        <ele>1471.7</ele>
        <time>2022-01-13T05:27:41Z</time>
      </trkpt>
      <trkpt lat="45.69756" lon="6.25496">
        <ele>1474.8</ele>
        <time>2022-01-13T05:27:42Z</time>
      </trkpt>
      <trkpt lat="45.69754" lon="6.25497">
        <ele>1474.8</ele>
        <time>2022-01-13T05:27:43Z</time>
      </trkpt>
      <trkpt lat="45.69753" lon="6.25497">
        <ele>1474.8</ele>
        <time>2022-01-13T05:27:44Z</time>
      </trkpt>
      <trkpt lat="45.69752" lon="6.25497">
        <ele>1474.8</ele>
        <time>2022-01-13T05:27:45Z</time>
      </trkpt>
      <trkpt lat="45.69751" lon="6.25498">
        <ele>1474.8</ele>
        <time>2022-01-13T05:27:46Z</time>
      </trkpt>
      <trkpt lat="45.69749" lon="6.25499">
        <ele>1474.8</ele>
        <time>2022-01-13T05:27:47Z</time>
      </trkpt>
      <trkpt lat="45.69749" lon="6.255">
        <ele>1474.8</ele>
        <time>2022-01-13T05:27:48Z</time>
      </trkpt>
      <trkpt lat="45.69748" lon="6.25501">
        <ele>1474.8</ele>
        <time>2022-01-13T05:27:49Z</time>
      </trkpt>
      <trkpt lat="45.69747" lon="6.25501">
        <ele>1474.8</ele>
        <time>2022-01-13T05:27:50Z</time>
      </trkpt>
      <trkpt lat="45.69746" lon="6.25502">
        <ele>1474.8</ele>
        <time>2022-01-13T05:27:51Z</time>
      </trkpt>
      <trkpt lat="45.69745" lon="6.25502">
        <ele>1475.7</ele>
        <time>2022-01-13T05:27:52Z</time>
      </trkpt>
      <trkpt lat="45.69743" lon="6.25503">
        <ele>1475.7</ele>
        <time>2022-01-13T05:27:53Z</time>
      </trkpt>
      <trkpt lat="45.69743" lon="6.25502">
        <ele>1475.7</ele>
        <time>2022-01-13T05:27:54Z</time>
      </trkpt>
      <trkpt lat="45.69742" lon="6.25502">
        <ele>1475.7</ele>
        <time>2022-01-13T05:27:55Z</time>
      </trkpt>
      <trkpt lat="45.69741" lon="6.25502">
        <ele>1475.7</ele>
        <time>2022-01-13T05:27:56Z</time>
      </trkpt>
      <trkpt lat="45.69741" lon="6.25502">
        <ele>1475.7</ele>
        <time>2022-01-13T05:27:57Z</time>
      </trkpt>
      <trkpt lat="45.69739" lon="6.25502">
        <ele>1475.7</ele>
        <time>2022-01-13T05:27:58Z</time>
      </trkpt>
      <trkpt lat="45.69738" lon="6.25501">
        <ele>1475.7</ele>
        <time>2022-01-13T05:27:59Z</time>
      </trkpt>
      <trkpt lat="45.69737" lon="6.25501">
        <ele>1475.7</ele>
        <time>2022-01-13T05:28:00Z</time>
      </trkpt>
      <trkpt lat="45.69736" lon="6.25501">
        <ele>1475.7</ele>
        <time>2022-01-13T05:28:01Z</time>
      </trkpt>
      <trkpt lat="45.69735" lon="6.25502">
        <ele>1475.7</ele>
        <time>2022-01-13T05:28:02Z</time>
      </trkpt>
      <trkpt lat="45.69734" lon="6.25502">
        <ele>1475.7</ele>
        <time>2022-01-13T05:28:03Z</time>
      </trkpt>
      <trkpt lat="45.69733" lon="6.25503">
        <ele>1477.8</ele>
        <time>2022-01-13T05:28:04Z</time>
      </trkpt>
      <trkpt lat="45.69732" lon="6.25503">
        <ele>1477.8</ele>
        <time>2022-01-13T05:28:05Z</time>
      </trkpt>
      <trkpt lat="45.69731" lon="6.25503">
        <ele>1478.8</ele>
        <time>2022-01-13T05:28:06Z</time>
      </trkpt>
      <trkpt lat="45.6973" lon="6.25504">
        <ele>1478.8</ele>
        <time>2022-01-13T05:28:07Z</time>
      </trkpt>
      <trkpt lat="45.69729" lon="6.25504">
        <ele>1478.8</ele>
        <time>2022-01-13T05:28:08Z</time>
      </trkpt>
      <trkpt lat="45.69728" lon="6.25505">
        <ele>1478.8</ele>
        <time>2022-01-13T05:28:09Z</time>
      </trkpt>
      <trkpt lat="45.69727" lon="6.25506">
        <ele>1478.8</ele>
        <time>2022-01-13T05:28:10Z</time>
      </trkpt>
      <trkpt lat="45.69726" lon="6.25506">
        <ele>1478.8</ele>
        <time>2022-01-13T05:28:11Z</time>
      </trkpt>
      <trkpt lat="45.69725" lon="6.25507">
        <ele>1478.8</ele>
        <time>2022-01-13T05:28:12Z</time>
      </trkpt>
      <trkpt lat="45.69723" lon="6.25507">
        <ele>1478.8</ele>
        <time>2022-01-13T05:28:13Z</time>
      </trkpt>
      <trkpt lat="45.69721" lon="6.25507">
        <ele>1479.8</ele>
        <time>2022-01-13T05:28:14Z</time>
      </trkpt>
      <trkpt lat="45.6972" lon="6.25508">
        <ele>1479.8</ele>
        <time>2022-01-13T05:28:15Z</time>
      </trkpt>
      <trkpt lat="45.69718" lon="6.25508">
        <ele>1479.8</ele>
        <time>2022-01-13T05:28:16Z</time>
      </trkpt>
      <trkpt lat="45.69716" lon="6.25509">
        <ele>1479.8</ele>
        <time>2022-01-13T05:28:17Z</time>
      </trkpt>
      <trkpt lat="45.69715" lon="6.25509">
        <ele>1479.8</ele>
        <time>2022-01-13T05:28:18Z</time>
      </trkpt>
      <trkpt lat="45.69713" lon="6.25509">
        <ele>1479.8</ele>
        <time>2022-01-13T05:28:19Z</time>
      </trkpt>
      <trkpt lat="45.69711" lon="6.25509">
        <ele>1479.8</ele>
        <time>2022-01-13T05:28:20Z</time>
      </trkpt>
      <trkpt lat="45.6971" lon="6.25509">
        <ele>1479.8</ele>
        <time>2022-01-13T05:28:21Z</time>
      </trkpt>
      <trkpt lat="45.69708" lon="6.2551">
        <ele>1479.8</ele>
        <time>2022-01-13T05:28:22Z</time>
      </trkpt>
      <trkpt lat="45.69706" lon="6.2551">
        <ele>1479.8</ele>
        <time>2022-01-13T05:28:23Z</time>
      </trkpt>
      <trkpt lat="45.69704" lon="6.25511">
        <ele>1479.8</ele>
        <time>2022-01-13T05:28:24Z</time>
      </trkpt>
      <trkpt lat="45.69703" lon="6.25513">
        <ele>1479.8</ele>
        <time>2022-01-13T05:28:25Z</time>
      </trkpt>
      <trkpt lat="45.697" lon="6.25515">
        <ele>1478.8</ele>
        <time>2022-01-13T05:28:26Z</time>
      </trkpt>
      <trkpt lat="45.69699" lon="6.25517">
        <ele>1478.8</ele>
        <time>2022-01-13T05:28:27Z</time>
      </trkpt>
      <trkpt lat="45.69697" lon="6.25518">
        <ele>1477.8</ele>
        <time>2022-01-13T05:28:28Z</time>
      </trkpt>
      <trkpt lat="45.69695" lon="6.2552">
        <ele>1477.8</ele>
        <time>2022-01-13T05:28:29Z</time>
      </trkpt>
      <trkpt lat="45.69693" lon="6.25522">
        <ele>1476.8</ele>
        <time>2022-01-13T05:28:30Z</time>
      </trkpt>
      <trkpt lat="45.69691" lon="6.25524">
        <ele>1476.8</ele>
        <time>2022-01-13T05:28:31Z</time>
      </trkpt>
      <trkpt lat="45.6969" lon="6.25525">
        <ele>1476.8</ele>
        <time>2022-01-13T05:28:32Z</time>
      </trkpt>
      <trkpt lat="45.69689" lon="6.25526">
        <ele>1476.8</ele>
        <time>2022-01-13T05:28:33Z</time>
      </trkpt>
      <trkpt lat="45.69687" lon="6.25527">
        <ele>1476.8</ele>
        <time>2022-01-13T05:28:34Z</time>
      </trkpt>
      <trkpt lat="45.69686" lon="6.25529">
        <ele>1476.8</ele>
        <time>2022-01-13T05:28:35Z</time>
      </trkpt>
      <trkpt lat="45.69685" lon="6.2553">
        <ele>1476.8</ele>
        <time>2022-01-13T05:28:36Z</time>
      </trkpt>
      <trkpt lat="45.69684" lon="6.25531">
        <ele>1476.8</ele>
        <time>2022-01-13T05:28:37Z</time>
      </trkpt>
      <trkpt lat="45.69683" lon="6.25532">
        <ele>1476.8</ele>
        <time>2022-01-13T05:28:38Z</time>
      </trkpt>
      <trkpt lat="45.69681" lon="6.25533">
        <ele>1476.8</ele>
        <time>2022-01-13T05:28:39Z</time>
      </trkpt>
      <trkpt lat="45.6968" lon="6.25534">
        <ele>1476.8</ele>
        <time>2022-01-13T05:28:40Z</time>
      </trkpt>
      <trkpt lat="45.69679" lon="6.25535">
        <ele>1476.8</ele>
        <time>2022-01-13T05:28:41Z</time>
      </trkpt>
      <trkpt lat="45.69677" lon="6.25536">
        <ele>1476.8</ele>
        <time>2022-01-13T05:28:42Z</time>
      </trkpt>
      <trkpt lat="45.69676" lon="6.25537">
        <ele>1476.8</ele>
        <time>2022-01-13T05:28:43Z</time>
      </trkpt>
      <trkpt lat="45.69675" lon="6.25538">
        <ele>1476.8</ele>
        <time>2022-01-13T05:28:44Z</time>
      </trkpt>
      <trkpt lat="45.69675" lon="6.25539">
        <ele>1476.8</ele>
        <time>2022-01-13T05:28:45Z</time>
      </trkpt>
      <trkpt lat="45.69674" lon="6.25539">
        <ele>1476.8</ele>
        <time>2022-01-13T05:28:46Z</time>
      </trkpt>
      <trkpt lat="45.69674" lon="6.25539">
        <ele>1476.8</ele>
        <time>2022-01-13T05:28:47Z</time>
      </trkpt>
      <trkpt lat="45.69674" lon="6.25539">
        <ele>1476.8</ele>
        <time>2022-01-13T05:28:48Z</time>
      </trkpt>
      <trkpt lat="45.69675" lon="6.25539">
        <ele>1476.8</ele>
        <time>2022-01-13T05:28:49Z</time>
      </trkpt>
      <trkpt lat="45.69675" lon="6.2554">
        <ele>1476.8</ele>
        <time>2022-01-13T05:28:50Z</time>
      </trkpt>
      <trkpt lat="45.69675" lon="6.2554">
        <ele>1476.8</ele>
        <time>2022-01-13T05:28:51Z</time>
      </trkpt>
      <trkpt lat="45.69675" lon="6.2554">
        <ele>1475.7</ele>
        <time>2022-01-13T05:28:52Z</time>
      </trkpt>
      <trkpt lat="45.69676" lon="6.2554">
        <ele>1475.7</ele>
        <time>2022-01-13T05:28:53Z</time>
      </trkpt>
      <trkpt lat="45.69677" lon="6.25541">
        <ele>1475.7</ele>
        <time>2022-01-13T05:28:54Z</time>
      </trkpt>
      <trkpt lat="45.69677" lon="6.25541">
        <ele>1475.7</ele>
        <time>2022-01-13T05:28:55Z</time>
      </trkpt>
      <trkpt lat="45.69678" lon="6.25542">
        <ele>1475.7</ele>
        <time>2022-01-13T05:28:56Z</time>
      </trkpt>
      <trkpt lat="45.69679" lon="6.25543">
        <ele>1475.7</ele>
        <time>2022-01-13T05:28:57Z</time>
      </trkpt>
      <trkpt lat="45.69679" lon="6.25544">
        <ele>1476.8</ele>
        <time>2022-01-13T05:28:58Z</time>
      </trkpt>
      <trkpt lat="45.6968" lon="6.25545">
        <ele>1476.8</ele>
        <time>2022-01-13T05:28:59Z</time>
      </trkpt>
      <trkpt lat="45.69681" lon="6.25546">
        <ele>1476.8</ele>
        <time>2022-01-13T05:29:00Z</time>
      </trkpt>
      <trkpt lat="45.69682" lon="6.25548">
        <ele>1476.8</ele>
        <time>2022-01-13T05:29:01Z</time>
      </trkpt>
      <trkpt lat="45.69683" lon="6.25549">
        <ele>1477.8</ele>
        <time>2022-01-13T05:29:02Z</time>
      </trkpt>
      <trkpt lat="45.69683" lon="6.25551">
        <ele>1477.8</ele>
        <time>2022-01-13T05:29:03Z</time>
      </trkpt>
      <trkpt lat="45.69684" lon="6.25552">
        <ele>1478.8</ele>
        <time>2022-01-13T05:29:04Z</time>
      </trkpt>
      <trkpt lat="45.69685" lon="6.25554">
        <ele>1478.8</ele>
        <time>2022-01-13T05:29:05Z</time>
      </trkpt>
      <trkpt lat="45.69686" lon="6.25555">
        <ele>1478.8</ele>
        <time>2022-01-13T05:29:06Z</time>
      </trkpt>
      <trkpt lat="45.69686" lon="6.25557">
        <ele>1478.8</ele>
        <time>2022-01-13T05:29:07Z</time>
      </trkpt>
      <trkpt lat="45.69686" lon="6.25559">
        <ele>1478.8</ele>
        <time>2022-01-13T05:29:08Z</time>
      </trkpt>
      <trkpt lat="45.69687" lon="6.25561">
        <ele>1478.8</ele>
        <time>2022-01-13T05:29:09Z</time>
      </trkpt>
      <trkpt lat="45.69687" lon="6.25563">
        <ele>1478.8</ele>
        <time>2022-01-13T05:29:10Z</time>
      </trkpt>
      <trkpt lat="45.69687" lon="6.25564">
        <ele>1478.8</ele>
        <time>2022-01-13T05:29:11Z</time>
      </trkpt>
      <trkpt lat="45.69686" lon="6.25566">
        <ele>1479.8</ele>
        <time>2022-01-13T05:29:12Z</time>
      </trkpt>
      <trkpt lat="45.69686" lon="6.25568">
        <ele>1479.8</ele>
        <time>2022-01-13T05:29:13Z</time>
      </trkpt>
      <trkpt lat="45.69686" lon="6.2557">
        <ele>1479.8</ele>
        <time>2022-01-13T05:29:14Z</time>
      </trkpt>
      <trkpt lat="45.69685" lon="6.25572">
        <ele>1479.8</ele>
        <time>2022-01-13T05:29:15Z</time>
      </trkpt>
      <trkpt lat="45.69685" lon="6.25574">
        <ele>1479.8</ele>
        <time>2022-01-13T05:29:16Z</time>
      </trkpt>
      <trkpt lat="45.69684" lon="6.25575">
        <ele>1479.8</ele>
        <time>2022-01-13T05:29:17Z</time>
      </trkpt>
      <trkpt lat="45.69683" lon="6.25577">
        <ele>1480.7</ele>
        <time>2022-01-13T05:29:18Z</time>
      </trkpt>
      <trkpt lat="45.69682" lon="6.25579">
        <ele>1480.7</ele>
        <time>2022-01-13T05:29:19Z</time>
      </trkpt>
      <trkpt lat="45.69681" lon="6.25581">
        <ele>1480.7</ele>
        <time>2022-01-13T05:29:20Z</time>
      </trkpt>
      <trkpt lat="45.69681" lon="6.25582">
        <ele>1480.7</ele>
        <time>2022-01-13T05:29:21Z</time>
      </trkpt>
      <trkpt lat="45.6968" lon="6.25584">
        <ele>1480.7</ele>
        <time>2022-01-13T05:29:22Z</time>
      </trkpt>
      <trkpt lat="45.69679" lon="6.25586">
        <ele>1480.7</ele>
        <time>2022-01-13T05:29:23Z</time>
      </trkpt>
      <trkpt lat="45.69678" lon="6.25587">
        <ele>1481.8</ele>
        <time>2022-01-13T05:29:24Z</time>
      </trkpt>
      <trkpt lat="45.69678" lon="6.25589">
        <ele>1481.8</ele>
        <time>2022-01-13T05:29:25Z</time>
      </trkpt>
      <trkpt lat="45.69677" lon="6.2559">
        <ele>1481.8</ele>
        <time>2022-01-13T05:29:26Z</time>
      </trkpt>
      <trkpt lat="45.69676" lon="6.25591">
        <ele>1481.8</ele>
        <time>2022-01-13T05:29:27Z</time>
      </trkpt>
      <trkpt lat="45.69675" lon="6.25593">
        <ele>1481.8</ele>
        <time>2022-01-13T05:29:28Z</time>
      </trkpt>
      <trkpt lat="45.69674" lon="6.25594">
        <ele>1481.8</ele>
        <time>2022-01-13T05:29:29Z</time>
      </trkpt>
      <trkpt lat="45.69673" lon="6.25595">
        <ele>1482.7</ele>
        <time>2022-01-13T05:29:30Z</time>
      </trkpt>
      <trkpt lat="45.69672" lon="6.25596">
        <ele>1482.7</ele>
        <time>2022-01-13T05:29:31Z</time>
      </trkpt>
      <trkpt lat="45.69671" lon="6.25597">
        <ele>1482.7</ele>
        <time>2022-01-13T05:29:32Z</time>
      </trkpt>
      <trkpt lat="45.6967" lon="6.25598">
        <ele>1482.7</ele>
        <time>2022-01-13T05:29:33Z</time>
      </trkpt>
      <trkpt lat="45.69668" lon="6.25598">
        <ele>1483.8</ele>
        <time>2022-01-13T05:29:34Z</time>
      </trkpt>
      <trkpt lat="45.69667" lon="6.25599">
        <ele>1483.8</ele>
        <time>2022-01-13T05:29:35Z</time>
      </trkpt>
      <trkpt lat="45.69666" lon="6.25599">
        <ele>1483.8</ele>
        <time>2022-01-13T05:29:36Z</time>
      </trkpt>
      <trkpt lat="45.69665" lon="6.25599">
        <ele>1483.8</ele>
        <time>2022-01-13T05:29:37Z</time>
      </trkpt>
      <trkpt lat="45.69664" lon="6.25598">
        <ele>1483.8</ele>
        <time>2022-01-13T05:29:38Z</time>
      </trkpt>
      <trkpt lat="45.69662" lon="6.25598">
        <ele>1483.8</ele>
        <time>2022-01-13T05:29:39Z</time>
      </trkpt>
      <trkpt lat="45.69661" lon="6.25598">
        <ele>1483.8</ele>
        <time>2022-01-13T05:29:40Z</time>
      </trkpt>
      <trkpt lat="45.6966" lon="6.25596">
        <ele>1483.8</ele>
        <time>2022-01-13T05:29:41Z</time>
      </trkpt>
      <trkpt lat="45.69659" lon="6.25595">
        <ele>1485.8</ele>
        <time>2022-01-13T05:29:42Z</time>
      </trkpt>
      <trkpt lat="45.69659" lon="6.25593">
        <ele>1485.8</ele>
        <time>2022-01-13T05:29:43Z</time>
      </trkpt>
      <trkpt lat="45.69658" lon="6.25592">
        <ele>1485.8</ele>
        <time>2022-01-13T05:29:44Z</time>
      </trkpt>
      <trkpt lat="45.69657" lon="6.25591">
        <ele>1485.8</ele>
        <time>2022-01-13T05:29:45Z</time>
      </trkpt>
      <trkpt lat="45.69657" lon="6.2559">
        <ele>1486.8</ele>
        <time>2022-01-13T05:29:46Z</time>
      </trkpt>
      <trkpt lat="45.69656" lon="6.25589">
        <ele>1486.8</ele>
        <time>2022-01-13T05:29:47Z</time>
      </trkpt>
      <trkpt lat="45.69655" lon="6.25588">
        <ele>1486.8</ele>
        <time>2022-01-13T05:29:48Z</time>
      </trkpt>
      <trkpt lat="45.69654" lon="6.25587">
        <ele>1486.8</ele>
        <time>2022-01-13T05:29:49Z</time>
      </trkpt>
      <trkpt lat="45.69653" lon="6.25586">
        <ele>1486.8</ele>
        <time>2022-01-13T05:29:50Z</time>
      </trkpt>
      <trkpt lat="45.69652" lon="6.25586">
        <ele>1486.8</ele>
        <time>2022-01-13T05:29:51Z</time>
      </trkpt>
      <trkpt lat="45.69651" lon="6.25585">
        <ele>1487.7</ele>
        <time>2022-01-13T05:29:52Z</time>
      </trkpt>
      <trkpt lat="45.69651" lon="6.25584">
        <ele>1487.7</ele>
        <time>2022-01-13T05:29:53Z</time>
      </trkpt>
      <trkpt lat="45.6965" lon="6.25583">
        <ele>1488.8</ele>
        <time>2022-01-13T05:29:54Z</time>
      </trkpt>
      <trkpt lat="45.69649" lon="6.25583">
        <ele>1488.8</ele>
        <time>2022-01-13T05:29:55Z</time>
      </trkpt>
      <trkpt lat="45.69648" lon="6.25582">
        <ele>1489.7</ele>
        <time>2022-01-13T05:29:56Z</time>
      </trkpt>
      <trkpt lat="45.69647" lon="6.25581">
        <ele>1489.7</ele>
        <time>2022-01-13T05:29:57Z</time>
      </trkpt>
      <trkpt lat="45.69646" lon="6.25581">
        <ele>1489.7</ele>
        <time>2022-01-13T05:29:58Z</time>
      </trkpt>
      <trkpt lat="45.69645" lon="6.2558">
        <ele>1489.7</ele>
        <time>2022-01-13T05:29:59Z</time>
      </trkpt>
      <trkpt lat="45.69644" lon="6.2558">
        <ele>1490.8</ele>
        <time>2022-01-13T05:30:00Z</time>
      </trkpt>
      <trkpt lat="45.69643" lon="6.2558">
        <ele>1490.8</ele>
        <time>2022-01-13T05:30:01Z</time>
      </trkpt>
      <trkpt lat="45.69642" lon="6.2558">
        <ele>1490.8</ele>
        <time>2022-01-13T05:30:02Z</time>
      </trkpt>
      <trkpt lat="45.69641" lon="6.2558">
        <ele>1490.8</ele>
        <time>2022-01-13T05:30:03Z</time>
      </trkpt>
      <trkpt lat="45.6964" lon="6.25579">
        <ele>1491.7</ele>
        <time>2022-01-13T05:30:04Z</time>
      </trkpt>
      <trkpt lat="45.6964" lon="6.25579">
        <ele>1491.7</ele>
        <time>2022-01-13T05:30:05Z</time>
      </trkpt>
      <trkpt lat="45.69639" lon="6.25579">
        <ele>1491.7</ele>
        <time>2022-01-13T05:30:06Z</time>
      </trkpt>
      <trkpt lat="45.69638" lon="6.25579">
        <ele>1491.7</ele>
        <time>2022-01-13T05:30:07Z</time>
      </trkpt>
      <trkpt lat="45.69637" lon="6.25579">
        <ele>1491.7</ele>
        <time>2022-01-13T05:30:08Z</time>
      </trkpt>
      <trkpt lat="45.69635" lon="6.25578">
        <ele>1491.7</ele>
        <time>2022-01-13T05:30:09Z</time>
      </trkpt>
      <trkpt lat="45.69634" lon="6.25578">
        <ele>1491.7</ele>
        <time>2022-01-13T05:30:10Z</time>
      </trkpt>
      <trkpt lat="45.69633" lon="6.25578">
        <ele>1491.7</ele>
        <time>2022-01-13T05:30:11Z</time>
      </trkpt>
      <trkpt lat="45.69632" lon="6.25578">
        <ele>1492.8</ele>
        <time>2022-01-13T05:30:12Z</time>
      </trkpt>
      <trkpt lat="45.69631" lon="6.25578">
        <ele>1492.8</ele>
        <time>2022-01-13T05:30:13Z</time>
      </trkpt>
      <trkpt lat="45.69631" lon="6.25578">
        <ele>1493.8</ele>
        <time>2022-01-13T05:30:14Z</time>
      </trkpt>
      <trkpt lat="45.69629" lon="6.25578">
        <ele>1493.8</ele>
        <time>2022-01-13T05:30:15Z</time>
      </trkpt>
      <trkpt lat="45.69629" lon="6.25578">
        <ele>1493.8</ele>
        <time>2022-01-13T05:30:16Z</time>
      </trkpt>
      <trkpt lat="45.69628" lon="6.25578">
        <ele>1493.8</ele>
        <time>2022-01-13T05:30:17Z</time>
      </trkpt>
      <trkpt lat="45.69627" lon="6.25577">
        <ele>1493.8</ele>
        <time>2022-01-13T05:30:18Z</time>
      </trkpt>
      <trkpt lat="45.69626" lon="6.25577">
        <ele>1493.8</ele>
        <time>2022-01-13T05:30:19Z</time>
      </trkpt>
      <trkpt lat="45.69625" lon="6.25577">
        <ele>1493.8</ele>
        <time>2022-01-13T05:30:20Z</time>
      </trkpt>
      <trkpt lat="45.69624" lon="6.25577">
        <ele>1493.8</ele>
        <time>2022-01-13T05:30:21Z</time>
      </trkpt>
      <trkpt lat="45.69623" lon="6.25577">
        <ele>1493.8</ele>
        <time>2022-01-13T05:30:22Z</time>
      </trkpt>
      <trkpt lat="45.69622" lon="6.25577">
        <ele>1493.8</ele>
        <time>2022-01-13T05:30:23Z</time>
      </trkpt>
      <trkpt lat="45.69621" lon="6.25576">
        <ele>1495.8</ele>
        <time>2022-01-13T05:30:24Z</time>
      </trkpt>
      <trkpt lat="45.69619" lon="6.25576">
        <ele>1495.8</ele>
        <time>2022-01-13T05:30:25Z</time>
      </trkpt>
      <trkpt lat="45.69618" lon="6.25576">
        <ele>1495.8</ele>
        <time>2022-01-13T05:30:26Z</time>
      </trkpt>
      <trkpt lat="45.69617" lon="6.25576">
        <ele>1495.8</ele>
        <time>2022-01-13T05:30:27Z</time>
      </trkpt>
      <trkpt lat="45.69616" lon="6.25576">
        <ele>1497.8</ele>
        <time>2022-01-13T05:30:28Z</time>
      </trkpt>
      <trkpt lat="45.69615" lon="6.25576">
        <ele>1497.8</ele>
        <time>2022-01-13T05:30:29Z</time>
      </trkpt>
      <trkpt lat="45.69614" lon="6.25576">
        <ele>1497.8</ele>
        <time>2022-01-13T05:30:30Z</time>
      </trkpt>
      <trkpt lat="45.69613" lon="6.25577">
        <ele>1497.8</ele>
        <time>2022-01-13T05:30:31Z</time>
      </trkpt>
      <trkpt lat="45.69612" lon="6.25577">
        <ele>1498.7</ele>
        <time>2022-01-13T05:30:32Z</time>
      </trkpt>
      <trkpt lat="45.69611" lon="6.25577">
        <ele>1498.7</ele>
        <time>2022-01-13T05:30:33Z</time>
      </trkpt>
      <trkpt lat="45.6961" lon="6.25578">
        <ele>1498.7</ele>
        <time>2022-01-13T05:30:34Z</time>
      </trkpt>
      <trkpt lat="45.6961" lon="6.25579">
        <ele>1498.7</ele>
        <time>2022-01-13T05:30:35Z</time>
      </trkpt>
      <trkpt lat="45.69609" lon="6.2558">
        <ele>1499.8</ele>
        <time>2022-01-13T05:30:36Z</time>
      </trkpt>
      <trkpt lat="45.69608" lon="6.25581">
        <ele>1499.8</ele>
        <time>2022-01-13T05:30:37Z</time>
      </trkpt>
      <trkpt lat="45.69608" lon="6.25582">
        <ele>1499.8</ele>
        <time>2022-01-13T05:30:38Z</time>
      </trkpt>
      <trkpt lat="45.69607" lon="6.25583">
        <ele>1499.8</ele>
        <time>2022-01-13T05:30:39Z</time>
      </trkpt>
      <trkpt lat="45.69606" lon="6.25584">
        <ele>1500.7</ele>
        <time>2022-01-13T05:30:40Z</time>
      </trkpt>
      <trkpt lat="45.69606" lon="6.25585">
        <ele>1500.7</ele>
        <time>2022-01-13T05:30:41Z</time>
      </trkpt>
      <trkpt lat="45.69605" lon="6.25586">
        <ele>1500.7</ele>
        <time>2022-01-13T05:30:42Z</time>
      </trkpt>
      <trkpt lat="45.69605" lon="6.25587">
        <ele>1500.7</ele>
        <time>2022-01-13T05:30:43Z</time>
      </trkpt>
      <trkpt lat="45.69605" lon="6.25589">
        <ele>1500.7</ele>
        <time>2022-01-13T05:30:44Z</time>
      </trkpt>
      <trkpt lat="45.69605" lon="6.2559">
        <ele>1500.7</ele>
        <time>2022-01-13T05:30:45Z</time>
      </trkpt>
      <trkpt lat="45.69605" lon="6.25592">
        <ele>1501.8</ele>
        <time>2022-01-13T05:30:46Z</time>
      </trkpt>
      <trkpt lat="45.69605" lon="6.25593">
        <ele>1501.8</ele>
        <time>2022-01-13T05:30:47Z</time>
      </trkpt>
      <trkpt lat="45.69606" lon="6.25594">
        <ele>1501.8</ele>
        <time>2022-01-13T05:30:48Z</time>
      </trkpt>
      <trkpt lat="45.69606" lon="6.25595">
        <ele>1501.8</ele>
        <time>2022-01-13T05:30:49Z</time>
      </trkpt>
      <trkpt lat="45.69607" lon="6.25597">
        <ele>1502.8</ele>
        <time>2022-01-13T05:30:50Z</time>
      </trkpt>
      <trkpt lat="45.69607" lon="6.25598">
        <ele>1502.8</ele>
        <time>2022-01-13T05:30:51Z</time>
      </trkpt>
      <trkpt lat="45.69608" lon="6.25599">
        <ele>1502.8</ele>
        <time>2022-01-13T05:30:52Z</time>
      </trkpt>
      <trkpt lat="45.69608" lon="6.25601">
        <ele>1502.8</ele>
        <time>2022-01-13T05:30:53Z</time>
      </trkpt>
      <trkpt lat="45.69609" lon="6.25602">
        <ele>1502.8</ele>
        <time>2022-01-13T05:30:54Z</time>
      </trkpt>
      <trkpt lat="45.69608" lon="6.25604">
        <ele>1502.8</ele>
        <time>2022-01-13T05:30:55Z</time>
      </trkpt>
      <trkpt lat="45.69609" lon="6.25605">
        <ele>1502.8</ele>
        <time>2022-01-13T05:30:56Z</time>
      </trkpt>
      <trkpt lat="45.69608" lon="6.25607">
        <ele>1502.8</ele>
        <time>2022-01-13T05:30:57Z</time>
      </trkpt>
      <trkpt lat="45.69608" lon="6.25609">
        <ele>1504.8</ele>
        <time>2022-01-13T05:30:58Z</time>
      </trkpt>
      <trkpt lat="45.69608" lon="6.25611">
        <ele>1504.8</ele>
        <time>2022-01-13T05:30:59Z</time>
      </trkpt>
      <trkpt lat="45.69608" lon="6.25612">
        <ele>1504.8</ele>
        <time>2022-01-13T05:31:00Z</time>
      </trkpt>
      <trkpt lat="45.69608" lon="6.25614">
        <ele>1504.8</ele>
        <time>2022-01-13T05:31:01Z</time>
      </trkpt>
      <trkpt lat="45.69607" lon="6.25616">
        <ele>1504.8</ele>
        <time>2022-01-13T05:31:02Z</time>
      </trkpt>
      <trkpt lat="45.69607" lon="6.25617">
        <ele>1504.8</ele>
        <time>2022-01-13T05:31:03Z</time>
      </trkpt>
      <trkpt lat="45.69607" lon="6.25619">
        <ele>1506.8</ele>
        <time>2022-01-13T05:31:04Z</time>
      </trkpt>
      <trkpt lat="45.69607" lon="6.2562">
        <ele>1506.8</ele>
        <time>2022-01-13T05:31:05Z</time>
      </trkpt>
      <trkpt lat="45.69608" lon="6.25621">
        <ele>1506.8</ele>
        <time>2022-01-13T05:31:06Z</time>
      </trkpt>
      <trkpt lat="45.69608" lon="6.25622">
        <ele>1506.8</ele>
        <time>2022-01-13T05:31:07Z</time>
      </trkpt>
      <trkpt lat="45.69608" lon="6.25623">
        <ele>1506.8</ele>
        <time>2022-01-13T05:31:08Z</time>
      </trkpt>
      <trkpt lat="45.69608" lon="6.25625">
        <ele>1506.8</ele>
        <time>2022-01-13T05:31:09Z</time>
      </trkpt>
      <trkpt lat="45.69608" lon="6.25626">
        <ele>1507.7</ele>
        <time>2022-01-13T05:31:10Z</time>
      </trkpt>
      <trkpt lat="45.69608" lon="6.25627">
        <ele>1507.7</ele>
        <time>2022-01-13T05:31:11Z</time>
      </trkpt>
      <trkpt lat="45.69609" lon="6.25629">
        <ele>1508.8</ele>
        <time>2022-01-13T05:31:12Z</time>
      </trkpt>
      <trkpt lat="45.69608" lon="6.2563">
        <ele>1508.8</ele>
        <time>2022-01-13T05:31:13Z</time>
      </trkpt>
      <trkpt lat="45.69608" lon="6.25632">
        <ele>1508.8</ele>
        <time>2022-01-13T05:31:14Z</time>
      </trkpt>
      <trkpt lat="45.69609" lon="6.25633">
        <ele>1508.8</ele>
        <time>2022-01-13T05:31:15Z</time>
      </trkpt>
      <trkpt lat="45.69609" lon="6.25635">
        <ele>1509.8</ele>
        <time>2022-01-13T05:31:16Z</time>
      </trkpt>
      <trkpt lat="45.69609" lon="6.25636">
        <ele>1509.8</ele>
        <time>2022-01-13T05:31:17Z</time>
      </trkpt>
      <trkpt lat="45.69609" lon="6.25638">
        <ele>1509.8</ele>
        <time>2022-01-13T05:31:18Z</time>
      </trkpt>
      <trkpt lat="45.69609" lon="6.25639">
        <ele>1509.8</ele>
        <time>2022-01-13T05:31:19Z</time>
      </trkpt>
      <trkpt lat="45.69609" lon="6.2564">
        <ele>1510.8</ele>
        <time>2022-01-13T05:31:20Z</time>
      </trkpt>
      <trkpt lat="45.69608" lon="6.25642">
        <ele>1510.8</ele>
        <time>2022-01-13T05:31:21Z</time>
      </trkpt>
      <trkpt lat="45.69608" lon="6.25643">
        <ele>1510.8</ele>
        <time>2022-01-13T05:31:22Z</time>
      </trkpt>
      <trkpt lat="45.69607" lon="6.25644">
        <ele>1510.8</ele>
        <time>2022-01-13T05:31:23Z</time>
      </trkpt>
      <trkpt lat="45.69607" lon="6.25646">
        <ele>1510.8</ele>
        <time>2022-01-13T05:31:24Z</time>
      </trkpt>
      <trkpt lat="45.69606" lon="6.25647">
        <ele>1510.8</ele>
        <time>2022-01-13T05:31:25Z</time>
      </trkpt>
      <trkpt lat="45.69606" lon="6.25649">
        <ele>1510.8</ele>
        <time>2022-01-13T05:31:26Z</time>
      </trkpt>
      <trkpt lat="45.69605" lon="6.2565">
        <ele>1510.8</ele>
        <time>2022-01-13T05:31:27Z</time>
      </trkpt>
      <trkpt lat="45.69605" lon="6.25651">
        <ele>1510.8</ele>
        <time>2022-01-13T05:31:28Z</time>
      </trkpt>
      <trkpt lat="45.69604" lon="6.25653">
        <ele>1510.8</ele>
        <time>2022-01-13T05:31:29Z</time>
      </trkpt>
      <trkpt lat="45.69604" lon="6.25655">
        <ele>1510.8</ele>
        <time>2022-01-13T05:31:30Z</time>
      </trkpt>
      <trkpt lat="45.69603" lon="6.25656">
        <ele>1510.8</ele>
        <time>2022-01-13T05:31:31Z</time>
      </trkpt>
      <trkpt lat="45.69603" lon="6.25657">
        <ele>1510.8</ele>
        <time>2022-01-13T05:31:32Z</time>
      </trkpt>
      <trkpt lat="45.69602" lon="6.25658">
        <ele>1510.8</ele>
        <time>2022-01-13T05:31:33Z</time>
      </trkpt>
      <trkpt lat="45.69601" lon="6.2566">
        <ele>1513.8</ele>
        <time>2022-01-13T05:31:34Z</time>
      </trkpt>
      <trkpt lat="45.69601" lon="6.25661">
        <ele>1513.8</ele>
        <time>2022-01-13T05:31:35Z</time>
      </trkpt>
      <trkpt lat="45.696" lon="6.25662">
        <ele>1513.8</ele>
        <time>2022-01-13T05:31:36Z</time>
      </trkpt>
      <trkpt lat="45.696" lon="6.25663">
        <ele>1513.8</ele>
        <time>2022-01-13T05:31:37Z</time>
      </trkpt>
      <trkpt lat="45.69599" lon="6.25664">
        <ele>1514.7</ele>
        <time>2022-01-13T05:31:38Z</time>
      </trkpt>
      <trkpt lat="45.69599" lon="6.25665">
        <ele>1514.7</ele>
        <time>2022-01-13T05:31:39Z</time>
      </trkpt>
      <trkpt lat="45.69599" lon="6.25666">
        <ele>1514.7</ele>
        <time>2022-01-13T05:31:40Z</time>
      </trkpt>
      <trkpt lat="45.69598" lon="6.25667">
        <ele>1514.7</ele>
        <time>2022-01-13T05:31:41Z</time>
      </trkpt>
      <trkpt lat="45.69598" lon="6.25669">
        <ele>1514.7</ele>
        <time>2022-01-13T05:31:42Z</time>
      </trkpt>
      <trkpt lat="45.69597" lon="6.2567">
        <ele>1514.7</ele>
        <time>2022-01-13T05:31:43Z</time>
      </trkpt>
      <trkpt lat="45.69597" lon="6.25671">
        <ele>1515.8</ele>
        <time>2022-01-13T05:31:44Z</time>
      </trkpt>
      <trkpt lat="45.69596" lon="6.25672">
        <ele>1515.8</ele>
        <time>2022-01-13T05:31:45Z</time>
      </trkpt>
      <trkpt lat="45.69595" lon="6.25672">
        <ele>1516.7</ele>
        <time>2022-01-13T05:31:46Z</time>
      </trkpt>
      <trkpt lat="45.69594" lon="6.25672">
        <ele>1516.7</ele>
        <time>2022-01-13T05:31:47Z</time>
      </trkpt>
      <trkpt lat="45.69593" lon="6.25672">
        <ele>1516.7</ele>
        <time>2022-01-13T05:31:48Z</time>
      </trkpt>
      <trkpt lat="45.69592" lon="6.25671">
        <ele>1516.7</ele>
        <time>2022-01-13T05:31:49Z</time>
      </trkpt>
      <trkpt lat="45.69591" lon="6.2567">
        <ele>1517.8</ele>
        <time>2022-01-13T05:31:50Z</time>
      </trkpt>
      <trkpt lat="45.6959" lon="6.25669">
        <ele>1517.8</ele>
        <time>2022-01-13T05:31:51Z</time>
      </trkpt>
      <trkpt lat="45.69589" lon="6.25668">
        <ele>1517.8</ele>
        <time>2022-01-13T05:31:52Z</time>
      </trkpt>
      <trkpt lat="45.69589" lon="6.25667">
        <ele>1517.8</ele>
        <time>2022-01-13T05:31:53Z</time>
      </trkpt>
      <trkpt lat="45.69588" lon="6.25666">
        <ele>1518.8</ele>
        <time>2022-01-13T05:31:54Z</time>
      </trkpt>
      <trkpt lat="45.69587" lon="6.25666">
        <ele>1518.8</ele>
        <time>2022-01-13T05:31:55Z</time>
      </trkpt>
      <trkpt lat="45.69586" lon="6.25665">
        <ele>1518.8</ele>
        <time>2022-01-13T05:31:56Z</time>
      </trkpt>
      <trkpt lat="45.69585" lon="6.25664">
        <ele>1518.8</ele>
        <time>2022-01-13T05:31:57Z</time>
      </trkpt>
      <trkpt lat="45.69584" lon="6.25663">
        <ele>1519.8</ele>
        <time>2022-01-13T05:31:58Z</time>
      </trkpt>
      <trkpt lat="45.69584" lon="6.25662">
        <ele>1519.8</ele>
        <time>2022-01-13T05:31:59Z</time>
      </trkpt>
      <trkpt lat="45.69583" lon="6.25661">
        <ele>1519.8</ele>
        <time>2022-01-13T05:32:00Z</time>
      </trkpt>
      <trkpt lat="45.69582" lon="6.25659">
        <ele>1519.8</ele>
        <time>2022-01-13T05:32:01Z</time>
      </trkpt>
      <trkpt lat="45.69581" lon="6.25658">
        <ele>1519.8</ele>
        <time>2022-01-13T05:32:02Z</time>
      </trkpt>
      <trkpt lat="45.6958" lon="6.25657">
        <ele>1519.8</ele>
        <time>2022-01-13T05:32:03Z</time>
      </trkpt>
      <trkpt lat="45.69579" lon="6.25656">
        <ele>1520.8</ele>
        <time>2022-01-13T05:32:04Z</time>
      </trkpt>
      <trkpt lat="45.69579" lon="6.25655">
        <ele>1520.8</ele>
        <time>2022-01-13T05:32:05Z</time>
      </trkpt>
      <trkpt lat="45.69578" lon="6.25655">
        <ele>1521.7</ele>
        <time>2022-01-13T05:32:06Z</time>
      </trkpt>
      <trkpt lat="45.69577" lon="6.25654">
        <ele>1521.7</ele>
        <time>2022-01-13T05:32:07Z</time>
      </trkpt>
      <trkpt lat="45.69576" lon="6.25653">
        <ele>1521.7</ele>
        <time>2022-01-13T05:32:08Z</time>
      </trkpt>
      <trkpt lat="45.69574" lon="6.25653">
        <ele>1521.7</ele>
        <time>2022-01-13T05:32:09Z</time>
      </trkpt>
      <trkpt lat="45.69574" lon="6.25652">
        <ele>1521.7</ele>
        <time>2022-01-13T05:32:10Z</time>
      </trkpt>
      <trkpt lat="45.69573" lon="6.25651">
        <ele>1521.7</ele>
        <time>2022-01-13T05:32:11Z</time>
      </trkpt>
      <trkpt lat="45.69572" lon="6.25651">
        <ele>1522.8</ele>
        <time>2022-01-13T05:32:12Z</time>
      </trkpt>
      <trkpt lat="45.69571" lon="6.25651">
        <ele>1522.8</ele>
        <time>2022-01-13T05:32:13Z</time>
      </trkpt>
      <trkpt lat="45.69569" lon="6.2565">
        <ele>1522.8</ele>
        <time>2022-01-13T05:32:14Z</time>
      </trkpt>
      <trkpt lat="45.69568" lon="6.2565">
        <ele>1522.8</ele>
        <time>2022-01-13T05:32:15Z</time>
      </trkpt>
      <trkpt lat="45.69567" lon="6.25649">
        <ele>1523.7</ele>
        <time>2022-01-13T05:32:16Z</time>
      </trkpt>
      <trkpt lat="45.69567" lon="6.25649">
        <ele>1523.7</ele>
        <time>2022-01-13T05:32:17Z</time>
      </trkpt>
      <trkpt lat="45.69566" lon="6.25648">
        <ele>1524.8</ele>
        <time>2022-01-13T05:32:18Z</time>
      </trkpt>
      <trkpt lat="45.69565" lon="6.25648">
        <ele>1524.8</ele>
        <time>2022-01-13T05:32:19Z</time>
      </trkpt>
      <trkpt lat="45.69564" lon="6.25648">
        <ele>1524.8</ele>
        <time>2022-01-13T05:32:20Z</time>
      </trkpt>
      <trkpt lat="45.69562" lon="6.25647">
        <ele>1524.8</ele>
        <time>2022-01-13T05:32:21Z</time>
      </trkpt>
      <trkpt lat="45.69561" lon="6.25647">
        <ele>1525.8</ele>
        <time>2022-01-13T05:32:22Z</time>
      </trkpt>
      <trkpt lat="45.69561" lon="6.25646">
        <ele>1525.8</ele>
        <time>2022-01-13T05:32:23Z</time>
      </trkpt>
      <trkpt lat="45.6956" lon="6.25645">
        <ele>1525.8</ele>
        <time>2022-01-13T05:32:24Z</time>
      </trkpt>
      <trkpt lat="45.6956" lon="6.25645">
        <ele>1525.8</ele>
        <time>2022-01-13T05:32:25Z</time>
      </trkpt>
      <trkpt lat="45.69558" lon="6.25645">
        <ele>1526.8</ele>
        <time>2022-01-13T05:32:26Z</time>
      </trkpt>
      <trkpt lat="45.69557" lon="6.25644">
        <ele>1526.8</ele>
        <time>2022-01-13T05:32:27Z</time>
      </trkpt>
      <trkpt lat="45.69556" lon="6.25644">
        <ele>1526.8</ele>
        <time>2022-01-13T05:32:28Z</time>
      </trkpt>
      <trkpt lat="45.69555" lon="6.25644">
        <ele>1526.8</ele>
        <time>2022-01-13T05:32:29Z</time>
      </trkpt>
      <trkpt lat="45.69554" lon="6.25644">
        <ele>1527.8</ele>
        <time>2022-01-13T05:32:30Z</time>
      </trkpt>
      <trkpt lat="45.69553" lon="6.25644">
        <ele>1527.8</ele>
        <time>2022-01-13T05:32:31Z</time>
      </trkpt>
      <trkpt lat="45.69552" lon="6.25644">
        <ele>1527.8</ele>
        <time>2022-01-13T05:32:32Z</time>
      </trkpt>
      <trkpt lat="45.69551" lon="6.25644">
        <ele>1527.8</ele>
        <time>2022-01-13T05:32:33Z</time>
      </trkpt>
      <trkpt lat="45.6955" lon="6.25644">
        <ele>1528.7</ele>
        <time>2022-01-13T05:32:34Z</time>
      </trkpt>
      <trkpt lat="45.69549" lon="6.25644">
        <ele>1528.7</ele>
        <time>2022-01-13T05:32:35Z</time>
      </trkpt>
      <trkpt lat="45.69548" lon="6.25645">
        <ele>1528.7</ele>
        <time>2022-01-13T05:32:36Z</time>
      </trkpt>
      <trkpt lat="45.69548" lon="6.25646">
        <ele>1528.7</ele>
        <time>2022-01-13T05:32:37Z</time>
      </trkpt>
      <trkpt lat="45.69547" lon="6.25647">
        <ele>1528.7</ele>
        <time>2022-01-13T05:32:38Z</time>
      </trkpt>
      <trkpt lat="45.69546" lon="6.25648">
        <ele>1528.7</ele>
        <time>2022-01-13T05:32:39Z</time>
      </trkpt>
      <trkpt lat="45.69545" lon="6.25649">
        <ele>1529.8</ele>
        <time>2022-01-13T05:32:40Z</time>
      </trkpt>
      <trkpt lat="45.69544" lon="6.2565">
        <ele>1529.8</ele>
        <time>2022-01-13T05:32:41Z</time>
      </trkpt>
      <trkpt lat="45.69544" lon="6.25651">
        <ele>1530.7</ele>
        <time>2022-01-13T05:32:42Z</time>
      </trkpt>
      <trkpt lat="45.69542" lon="6.25652">
        <ele>1530.7</ele>
        <time>2022-01-13T05:32:43Z</time>
      </trkpt>
      <trkpt lat="45.69541" lon="6.25653">
        <ele>1530.7</ele>
        <time>2022-01-13T05:32:44Z</time>
      </trkpt>
      <trkpt lat="45.69541" lon="6.25654">
        <ele>1530.7</ele>
        <time>2022-01-13T05:32:45Z</time>
      </trkpt>
      <trkpt lat="45.6954" lon="6.25655">
        <ele>1530.7</ele>
        <time>2022-01-13T05:32:46Z</time>
      </trkpt>
      <trkpt lat="45.69539" lon="6.25656">
        <ele>1530.7</ele>
        <time>2022-01-13T05:32:47Z</time>
      </trkpt>
      <trkpt lat="45.69538" lon="6.25657">
        <ele>1530.7</ele>
        <time>2022-01-13T05:32:48Z</time>
      </trkpt>
      <trkpt lat="45.69538" lon="6.25658">
        <ele>1530.7</ele>
        <time>2022-01-13T05:32:49Z</time>
      </trkpt>
      <trkpt lat="45.69537" lon="6.25659">
        <ele>1531.8</ele>
        <time>2022-01-13T05:32:50Z</time>
      </trkpt>
      <trkpt lat="45.69536" lon="6.2566">
        <ele>1531.8</ele>
        <time>2022-01-13T05:32:51Z</time>
      </trkpt>
      <trkpt lat="45.69535" lon="6.25661">
        <ele>1531.8</ele>
        <time>2022-01-13T05:32:52Z</time>
      </trkpt>
      <trkpt lat="45.69534" lon="6.25662">
        <ele>1531.8</ele>
        <time>2022-01-13T05:32:53Z</time>
      </trkpt>
      <trkpt lat="45.69534" lon="6.25662">
        <ele>1532.7</ele>
        <time>2022-01-13T05:32:54Z</time>
      </trkpt>
      <trkpt lat="45.69533" lon="6.25663">
        <ele>1532.7</ele>
        <time>2022-01-13T05:32:55Z</time>
      </trkpt>
      <trkpt lat="45.69532" lon="6.25665">
        <ele>1532.7</ele>
        <time>2022-01-13T05:32:56Z</time>
      </trkpt>
      <trkpt lat="45.69532" lon="6.25666">
        <ele>1532.7</ele>
        <time>2022-01-13T05:32:57Z</time>
      </trkpt>
      <trkpt lat="45.69532" lon="6.25667">
        <ele>1533.8</ele>
        <time>2022-01-13T05:32:58Z</time>
      </trkpt>
      <trkpt lat="45.69531" lon="6.25669">
        <ele>1533.8</ele>
        <time>2022-01-13T05:32:59Z</time>
      </trkpt>
      <trkpt lat="45.69531" lon="6.2567">
        <ele>1534.8</ele>
        <time>2022-01-13T05:33:00Z</time>
      </trkpt>
      <trkpt lat="45.69531" lon="6.25672">
        <ele>1534.8</ele>
        <time>2022-01-13T05:33:01Z</time>
      </trkpt>
      <trkpt lat="45.6953" lon="6.25674">
        <ele>1535.8</ele>
        <time>2022-01-13T05:33:02Z</time>
      </trkpt>
      <trkpt lat="45.6953" lon="6.25675">
        <ele>1535.8</ele>
        <time>2022-01-13T05:33:03Z</time>
      </trkpt>
      <trkpt lat="45.6953" lon="6.25676">
        <ele>1535.8</ele>
        <time>2022-01-13T05:33:04Z</time>
      </trkpt>
      <trkpt lat="45.69529" lon="6.25678">
        <ele>1535.8</ele>
        <time>2022-01-13T05:33:05Z</time>
      </trkpt>
      <trkpt lat="45.69529" lon="6.25679">
        <ele>1535.8</ele>
        <time>2022-01-13T05:33:06Z</time>
      </trkpt>
      <trkpt lat="45.69528" lon="6.2568">
        <ele>1535.8</ele>
        <time>2022-01-13T05:33:07Z</time>
      </trkpt>
      <trkpt lat="45.69528" lon="6.25682">
        <ele>1536.8</ele>
        <time>2022-01-13T05:33:08Z</time>
      </trkpt>
      <trkpt lat="45.69527" lon="6.25683">
        <ele>1536.8</ele>
        <time>2022-01-13T05:33:09Z</time>
      </trkpt>
      <trkpt lat="45.69527" lon="6.25684">
        <ele>1536.8</ele>
        <time>2022-01-13T05:33:10Z</time>
      </trkpt>
      <trkpt lat="45.69527" lon="6.25686">
        <ele>1536.8</ele>
        <time>2022-01-13T05:33:11Z</time>
      </trkpt>
      <trkpt lat="45.69527" lon="6.25687">
        <ele>1536.8</ele>
        <time>2022-01-13T05:33:12Z</time>
      </trkpt>
      <trkpt lat="45.69526" lon="6.25688">
        <ele>1536.8</ele>
        <time>2022-01-13T05:33:13Z</time>
      </trkpt>
      <trkpt lat="45.69526" lon="6.2569">
        <ele>1536.8</ele>
        <time>2022-01-13T05:33:14Z</time>
      </trkpt>
      <trkpt lat="45.69525" lon="6.25691">
        <ele>1536.8</ele>
        <time>2022-01-13T05:33:15Z</time>
      </trkpt>
      <trkpt lat="45.69525" lon="6.25692">
        <ele>1538.8</ele>
        <time>2022-01-13T05:33:16Z</time>
      </trkpt>
      <trkpt lat="45.69525" lon="6.25693">
        <ele>1538.8</ele>
        <time>2022-01-13T05:33:17Z</time>
      </trkpt>
      <trkpt lat="45.69524" lon="6.25695">
        <ele>1538.8</ele>
        <time>2022-01-13T05:33:18Z</time>
      </trkpt>
      <trkpt lat="45.69524" lon="6.25695">
        <ele>1538.8</ele>
        <time>2022-01-13T05:33:19Z</time>
      </trkpt>
      <trkpt lat="45.69523" lon="6.25697">
        <ele>1539.7</ele>
        <time>2022-01-13T05:33:20Z</time>
      </trkpt>
      <trkpt lat="45.69523" lon="6.25699">
        <ele>1539.7</ele>
        <time>2022-01-13T05:33:21Z</time>
      </trkpt>
      <trkpt lat="45.69522" lon="6.257">
        <ele>1540.8</ele>
        <time>2022-01-13T05:33:22Z</time>
      </trkpt>
      <trkpt lat="45.69522" lon="6.25702">
        <ele>1540.8</ele>
        <time>2022-01-13T05:33:23Z</time>
      </trkpt>
      <trkpt lat="45.69521" lon="6.25703">
        <ele>1540.8</ele>
        <time>2022-01-13T05:33:24Z</time>
      </trkpt>
      <trkpt lat="45.69521" lon="6.25705">
        <ele>1540.8</ele>
        <time>2022-01-13T05:33:25Z</time>
      </trkpt>
      <trkpt lat="45.69521" lon="6.25707">
        <ele>1540.8</ele>
        <time>2022-01-13T05:33:26Z</time>
      </trkpt>
      <trkpt lat="45.6952" lon="6.25708">
        <ele>1540.8</ele>
        <time>2022-01-13T05:33:27Z</time>
      </trkpt>
      <trkpt lat="45.6952" lon="6.2571">
        <ele>1540.8</ele>
        <time>2022-01-13T05:33:28Z</time>
      </trkpt>
      <trkpt lat="45.6952" lon="6.25711">
        <ele>1540.8</ele>
        <time>2022-01-13T05:33:29Z</time>
      </trkpt>
      <trkpt lat="45.69519" lon="6.25713">
        <ele>1541.8</ele>
        <time>2022-01-13T05:33:30Z</time>
      </trkpt>
      <trkpt lat="45.69519" lon="6.25714">
        <ele>1541.8</ele>
        <time>2022-01-13T05:33:31Z</time>
      </trkpt>
      <trkpt lat="45.69518" lon="6.25716">
        <ele>1542.8</ele>
        <time>2022-01-13T05:33:32Z</time>
      </trkpt>
      <trkpt lat="45.69518" lon="6.25717">
        <ele>1542.8</ele>
        <time>2022-01-13T05:33:33Z</time>
      </trkpt>
      <trkpt lat="45.69517" lon="6.25719">
        <ele>1542.8</ele>
        <time>2022-01-13T05:33:34Z</time>
      </trkpt>
      <trkpt lat="45.69517" lon="6.2572">
        <ele>1542.8</ele>
        <time>2022-01-13T05:33:35Z</time>
      </trkpt>
      <trkpt lat="45.69516" lon="6.25721">
        <ele>1542.8</ele>
        <time>2022-01-13T05:33:36Z</time>
      </trkpt>
      <trkpt lat="45.69516" lon="6.25722">
        <ele>1542.8</ele>
        <time>2022-01-13T05:33:37Z</time>
      </trkpt>
      <trkpt lat="45.69515" lon="6.25723">
        <ele>1543.8</ele>
        <time>2022-01-13T05:33:38Z</time>
      </trkpt>
      <trkpt lat="45.69515" lon="6.25725">
        <ele>1543.8</ele>
        <time>2022-01-13T05:33:39Z</time>
      </trkpt>
      <trkpt lat="45.69514" lon="6.25726">
        <ele>1544.7</ele>
        <time>2022-01-13T05:33:40Z</time>
      </trkpt>
      <trkpt lat="45.69514" lon="6.25728">
        <ele>1544.7</ele>
        <time>2022-01-13T05:33:41Z</time>
      </trkpt>
      <trkpt lat="45.69514" lon="6.25729">
        <ele>1544.7</ele>
        <time>2022-01-13T05:33:42Z</time>
      </trkpt>
      <trkpt lat="45.69514" lon="6.2573">
        <ele>1544.7</ele>
        <time>2022-01-13T05:33:43Z</time>
      </trkpt>
      <trkpt lat="45.69514" lon="6.25732">
        <ele>1544.7</ele>
        <time>2022-01-13T05:33:44Z</time>
      </trkpt>
      <trkpt lat="45.69514" lon="6.25733">
        <ele>1544.7</ele>
        <time>2022-01-13T05:33:45Z</time>
      </trkpt>
      <trkpt lat="45.69513" lon="6.25734">
        <ele>1545.8</ele>
        <time>2022-01-13T05:33:46Z</time>
      </trkpt>
      <trkpt lat="45.69513" lon="6.25736">
        <ele>1545.8</ele>
        <time>2022-01-13T05:33:47Z</time>
      </trkpt>
      <trkpt lat="45.69513" lon="6.25737">
        <ele>1545.8</ele>
        <time>2022-01-13T05:33:48Z</time>
      </trkpt>
      <trkpt lat="45.69513" lon="6.25738">
        <ele>1545.8</ele>
        <time>2022-01-13T05:33:49Z</time>
      </trkpt>
      <trkpt lat="45.69513" lon="6.2574">
        <ele>1545.8</ele>
        <time>2022-01-13T05:33:50Z</time>
      </trkpt>
      <trkpt lat="45.69513" lon="6.25741">
        <ele>1545.8</ele>
        <time>2022-01-13T05:33:51Z</time>
      </trkpt>
      <trkpt lat="45.69513" lon="6.25742">
        <ele>1545.8</ele>
        <time>2022-01-13T05:33:52Z</time>
      </trkpt>
      <trkpt lat="45.69513" lon="6.25743">
        <ele>1545.8</ele>
        <time>2022-01-13T05:33:53Z</time>
      </trkpt>
      <trkpt lat="45.69513" lon="6.25745">
        <ele>1547.8</ele>
        <time>2022-01-13T05:33:54Z</time>
      </trkpt>
      <trkpt lat="45.69513" lon="6.25746">
        <ele>1547.8</ele>
        <time>2022-01-13T05:33:55Z</time>
      </trkpt>
      <trkpt lat="45.69514" lon="6.25747">
        <ele>1548.7</ele>
        <time>2022-01-13T05:33:56Z</time>
      </trkpt>
      <trkpt lat="45.69514" lon="6.25748">
        <ele>1548.7</ele>
        <time>2022-01-13T05:33:57Z</time>
      </trkpt>
      <trkpt lat="45.69515" lon="6.25749">
        <ele>1549.8</ele>
        <time>2022-01-13T05:33:58Z</time>
      </trkpt>
      <trkpt lat="45.69515" lon="6.2575">
        <ele>1549.8</ele>
        <time>2022-01-13T05:33:59Z</time>
      </trkpt>
      <trkpt lat="45.69515" lon="6.25751">
        <ele>1549.8</ele>
        <time>2022-01-13T05:34:00Z</time>
      </trkpt>
      <trkpt lat="45.69515" lon="6.25753">
        <ele>1549.8</ele>
        <time>2022-01-13T05:34:01Z</time>
      </trkpt>
      <trkpt lat="45.69515" lon="6.25755">
        <ele>1550.8</ele>
        <time>2022-01-13T05:34:02Z</time>
      </trkpt>
      <trkpt lat="45.69515" lon="6.25756">
        <ele>1550.8</ele>
        <time>2022-01-13T05:34:03Z</time>
      </trkpt>
      <trkpt lat="45.69514" lon="6.25758">
        <ele>1550.8</ele>
        <time>2022-01-13T05:34:04Z</time>
      </trkpt>
      <trkpt lat="45.69514" lon="6.25759">
        <ele>1550.8</ele>
        <time>2022-01-13T05:34:05Z</time>
      </trkpt>
      <trkpt lat="45.69514" lon="6.25761">
        <ele>1551.8</ele>
        <time>2022-01-13T05:34:06Z</time>
      </trkpt>
      <trkpt lat="45.69514" lon="6.25763">
        <ele>1551.8</ele>
        <time>2022-01-13T05:34:07Z</time>
      </trkpt>
      <trkpt lat="45.69514" lon="6.25765">
        <ele>1551.8</ele>
        <time>2022-01-13T05:34:08Z</time>
      </trkpt>
      <trkpt lat="45.69514" lon="6.25766">
        <ele>1551.8</ele>
        <time>2022-01-13T05:34:09Z</time>
      </trkpt>
      <trkpt lat="45.69513" lon="6.25768">
        <ele>1552.8</ele>
        <time>2022-01-13T05:34:10Z</time>
      </trkpt>
      <trkpt lat="45.69513" lon="6.25769">
        <ele>1552.8</ele>
        <time>2022-01-13T05:34:11Z</time>
      </trkpt>
      <trkpt lat="45.69513" lon="6.2577">
        <ele>1552.8</ele>
        <time>2022-01-13T05:34:12Z</time>
      </trkpt>
      <trkpt lat="45.69513" lon="6.25772">
        <ele>1552.8</ele>
        <time>2022-01-13T05:34:13Z</time>
      </trkpt>
      <trkpt lat="45.69513" lon="6.25773">
        <ele>1553.7</ele>
        <time>2022-01-13T05:34:14Z</time>
      </trkpt>
      <trkpt lat="45.69513" lon="6.25774">
        <ele>1553.7</ele>
        <time>2022-01-13T05:34:15Z</time>
      </trkpt>
      <trkpt lat="45.69513" lon="6.25776">
        <ele>1554.8</ele>
        <time>2022-01-13T05:34:16Z</time>
      </trkpt>
      <trkpt lat="45.69513" lon="6.25777">
        <ele>1554.8</ele>
        <time>2022-01-13T05:34:17Z</time>
      </trkpt>
      <trkpt lat="45.69513" lon="6.25779">
        <ele>1554.8</ele>
        <time>2022-01-13T05:34:18Z</time>
      </trkpt>
      <trkpt lat="45.69513" lon="6.2578">
        <ele>1554.8</ele>
        <time>2022-01-13T05:34:19Z</time>
      </trkpt>
      <trkpt lat="45.69513" lon="6.25782">
        <ele>1554.8</ele>
        <time>2022-01-13T05:34:20Z</time>
      </trkpt>
      <trkpt lat="45.69513" lon="6.25783">
        <ele>1554.8</ele>
        <time>2022-01-13T05:34:21Z</time>
      </trkpt>
      <trkpt lat="45.69513" lon="6.25785">
        <ele>1554.8</ele>
        <time>2022-01-13T05:34:22Z</time>
      </trkpt>
      <trkpt lat="45.69513" lon="6.25787">
        <ele>1554.8</ele>
        <time>2022-01-13T05:34:23Z</time>
      </trkpt>
      <trkpt lat="45.69512" lon="6.25788">
        <ele>1555.7</ele>
        <time>2022-01-13T05:34:24Z</time>
      </trkpt>
      <trkpt lat="45.69512" lon="6.25789">
        <ele>1555.7</ele>
        <time>2022-01-13T05:34:25Z</time>
      </trkpt>
      <trkpt lat="45.69512" lon="6.25791">
        <ele>1555.7</ele>
        <time>2022-01-13T05:34:26Z</time>
      </trkpt>
      <trkpt lat="45.69511" lon="6.25792">
        <ele>1555.7</ele>
        <time>2022-01-13T05:34:27Z</time>
      </trkpt>
      <trkpt lat="45.69512" lon="6.25793">
        <ele>1556.8</ele>
        <time>2022-01-13T05:34:28Z</time>
      </trkpt>
      <trkpt lat="45.69511" lon="6.25794">
        <ele>1556.8</ele>
        <time>2022-01-13T05:34:29Z</time>
      </trkpt>
      <trkpt lat="45.69511" lon="6.25796">
        <ele>1556.8</ele>
        <time>2022-01-13T05:34:30Z</time>
      </trkpt>
      <trkpt lat="45.69511" lon="6.25797">
        <ele>1556.8</ele>
        <time>2022-01-13T05:34:31Z</time>
      </trkpt>
      <trkpt lat="45.69511" lon="6.25798">
        <ele>1556.8</ele>
        <time>2022-01-13T05:34:32Z</time>
      </trkpt>
      <trkpt lat="45.6951" lon="6.25799">
        <ele>1556.8</ele>
        <time>2022-01-13T05:34:33Z</time>
      </trkpt>
      <trkpt lat="45.6951" lon="6.258">
        <ele>1556.8</ele>
        <time>2022-01-13T05:34:34Z</time>
      </trkpt>
      <trkpt lat="45.6951" lon="6.25802">
        <ele>1556.8</ele>
        <time>2022-01-13T05:34:35Z</time>
      </trkpt>
      <trkpt lat="45.69509" lon="6.25803">
        <ele>1558.8</ele>
        <time>2022-01-13T05:34:36Z</time>
      </trkpt>
      <trkpt lat="45.69509" lon="6.25805">
        <ele>1558.8</ele>
        <time>2022-01-13T05:34:37Z</time>
      </trkpt>
      <trkpt lat="45.69509" lon="6.25806">
        <ele>1558.8</ele>
        <time>2022-01-13T05:34:38Z</time>
      </trkpt>
      <trkpt lat="45.69508" lon="6.25808">
        <ele>1558.8</ele>
        <time>2022-01-13T05:34:39Z</time>
      </trkpt>
      <trkpt lat="45.69508" lon="6.25809">
        <ele>1559.8</ele>
        <time>2022-01-13T05:34:40Z</time>
      </trkpt>
      <trkpt lat="45.69508" lon="6.2581">
        <ele>1559.8</ele>
        <time>2022-01-13T05:34:41Z</time>
      </trkpt>
      <trkpt lat="45.69508" lon="6.25812">
        <ele>1560.7</ele>
        <time>2022-01-13T05:34:42Z</time>
      </trkpt>
      <trkpt lat="45.69507" lon="6.25813">
        <ele>1560.7</ele>
        <time>2022-01-13T05:34:43Z</time>
      </trkpt>
      <trkpt lat="45.69507" lon="6.25814">
        <ele>1560.7</ele>
        <time>2022-01-13T05:34:44Z</time>
      </trkpt>
      <trkpt lat="45.69507" lon="6.25815">
        <ele>1560.7</ele>
        <time>2022-01-13T05:34:45Z</time>
      </trkpt>
      <trkpt lat="45.69507" lon="6.25816">
        <ele>1561.8</ele>
        <time>2022-01-13T05:34:46Z</time>
      </trkpt>
      <trkpt lat="45.69507" lon="6.25817">
        <ele>1561.8</ele>
        <time>2022-01-13T05:34:47Z</time>
      </trkpt>
      <trkpt lat="45.69507" lon="6.25819">
        <ele>1561.8</ele>
        <time>2022-01-13T05:34:48Z</time>
      </trkpt>
      <trkpt lat="45.69507" lon="6.25821">
        <ele>1561.8</ele>
        <time>2022-01-13T05:34:49Z</time>
      </trkpt>
      <trkpt lat="45.69507" lon="6.25822">
        <ele>1561.8</ele>
        <time>2022-01-13T05:34:50Z</time>
      </trkpt>
      <trkpt lat="45.69508" lon="6.25824">
        <ele>1561.8</ele>
        <time>2022-01-13T05:34:51Z</time>
      </trkpt>
      <trkpt lat="45.69507" lon="6.25825">
        <ele>1562.7</ele>
        <time>2022-01-13T05:34:52Z</time>
      </trkpt>
      <trkpt lat="45.69508" lon="6.25827">
        <ele>1562.7</ele>
        <time>2022-01-13T05:34:53Z</time>
      </trkpt>
      <trkpt lat="45.69508" lon="6.25828">
        <ele>1562.7</ele>
        <time>2022-01-13T05:34:54Z</time>
      </trkpt>
      <trkpt lat="45.69508" lon="6.2583">
        <ele>1562.7</ele>
        <time>2022-01-13T05:34:55Z</time>
      </trkpt>
      <trkpt lat="45.69507" lon="6.25831">
        <ele>1562.7</ele>
        <time>2022-01-13T05:34:56Z</time>
      </trkpt>
      <trkpt lat="45.69507" lon="6.25833">
        <ele>1562.7</ele>
        <time>2022-01-13T05:34:57Z</time>
      </trkpt>
      <trkpt lat="45.69507" lon="6.25834">
        <ele>1563.8</ele>
        <time>2022-01-13T05:34:58Z</time>
      </trkpt>
      <trkpt lat="45.69508" lon="6.25836">
        <ele>1563.8</ele>
        <time>2022-01-13T05:34:59Z</time>
      </trkpt>
      <trkpt lat="45.69507" lon="6.25838">
        <ele>1563.8</ele>
        <time>2022-01-13T05:35:00Z</time>
      </trkpt>
      <trkpt lat="45.69507" lon="6.2584">
        <ele>1563.8</ele>
        <time>2022-01-13T05:35:01Z</time>
      </trkpt>
      <trkpt lat="45.69507" lon="6.25841">
        <ele>1564.7</ele>
        <time>2022-01-13T05:35:02Z</time>
      </trkpt>
      <trkpt lat="45.69507" lon="6.25843">
        <ele>1564.7</ele>
        <time>2022-01-13T05:35:03Z</time>
      </trkpt>
      <trkpt lat="45.69507" lon="6.25844">
        <ele>1564.7</ele>
        <time>2022-01-13T05:35:04Z</time>
      </trkpt>
      <trkpt lat="45.69507" lon="6.25846">
        <ele>1564.7</ele>
        <time>2022-01-13T05:35:05Z</time>
      </trkpt>
      <trkpt lat="45.69507" lon="6.25847">
        <ele>1564.7</ele>
        <time>2022-01-13T05:35:06Z</time>
      </trkpt>
      <trkpt lat="45.69507" lon="6.25849">
        <ele>1564.7</ele>
        <time>2022-01-13T05:35:07Z</time>
      </trkpt>
      <trkpt lat="45.69507" lon="6.2585">
        <ele>1565.8</ele>
        <time>2022-01-13T05:35:08Z</time>
      </trkpt>
      <trkpt lat="45.69507" lon="6.25851">
        <ele>1565.8</ele>
        <time>2022-01-13T05:35:09Z</time>
      </trkpt>
      <trkpt lat="45.69507" lon="6.25853">
        <ele>1565.8</ele>
        <time>2022-01-13T05:35:10Z</time>
      </trkpt>
      <trkpt lat="45.69507" lon="6.25854">
        <ele>1565.8</ele>
        <time>2022-01-13T05:35:11Z</time>
      </trkpt>
      <trkpt lat="45.69507" lon="6.25855">
        <ele>1566.8</ele>
        <time>2022-01-13T05:35:12Z</time>
      </trkpt>
      <trkpt lat="45.69507" lon="6.25857">
        <ele>1566.8</ele>
        <time>2022-01-13T05:35:13Z</time>
      </trkpt>
      <trkpt lat="45.69508" lon="6.25858">
        <ele>1567.8</ele>
        <time>2022-01-13T05:35:14Z</time>
      </trkpt>
      <trkpt lat="45.69508" lon="6.25859">
        <ele>1567.8</ele>
        <time>2022-01-13T05:35:15Z</time>
      </trkpt>
      <trkpt lat="45.69508" lon="6.2586">
        <ele>1567.8</ele>
        <time>2022-01-13T05:35:16Z</time>
      </trkpt>
      <trkpt lat="45.69508" lon="6.25861">
        <ele>1567.8</ele>
        <time>2022-01-13T05:35:17Z</time>
      </trkpt>
      <trkpt lat="45.69508" lon="6.25863">
        <ele>1568.8</ele>
        <time>2022-01-13T05:35:18Z</time>
      </trkpt>
      <trkpt lat="45.69509" lon="6.25864">
        <ele>1568.8</ele>
        <time>2022-01-13T05:35:19Z</time>
      </trkpt>
      <trkpt lat="45.69509" lon="6.25865">
        <ele>1568.8</ele>
        <time>2022-01-13T05:35:20Z</time>
      </trkpt>
      <trkpt lat="45.69508" lon="6.25866">
        <ele>1568.8</ele>
        <time>2022-01-13T05:35:21Z</time>
      </trkpt>
      <trkpt lat="45.69508" lon="6.25867">
        <ele>1569.7</ele>
        <time>2022-01-13T05:35:22Z</time>
      </trkpt>
      <trkpt lat="45.69508" lon="6.25869">
        <ele>1569.7</ele>
        <time>2022-01-13T05:35:23Z</time>
      </trkpt>
      <trkpt lat="45.69508" lon="6.2587">
        <ele>1569.7</ele>
        <time>2022-01-13T05:35:24Z</time>
      </trkpt>
      <trkpt lat="45.69508" lon="6.25871">
        <ele>1569.7</ele>
        <time>2022-01-13T05:35:25Z</time>
      </trkpt>
      <trkpt lat="45.69508" lon="6.25873">
        <ele>1569.7</ele>
        <time>2022-01-13T05:35:26Z</time>
      </trkpt>
      <trkpt lat="45.69508" lon="6.25874">
        <ele>1569.7</ele>
        <time>2022-01-13T05:35:27Z</time>
      </trkpt>
      <trkpt lat="45.69508" lon="6.25875">
        <ele>1570.8</ele>
        <time>2022-01-13T05:35:28Z</time>
      </trkpt>
      <trkpt lat="45.69508" lon="6.25876">
        <ele>1570.8</ele>
        <time>2022-01-13T05:35:29Z</time>
      </trkpt>
      <trkpt lat="45.69508" lon="6.25878">
        <ele>1571.7</ele>
        <time>2022-01-13T05:35:30Z</time>
      </trkpt>
      <trkpt lat="45.69508" lon="6.25879">
        <ele>1571.7</ele>
        <time>2022-01-13T05:35:31Z</time>
      </trkpt>
      <trkpt lat="45.69508" lon="6.2588">
        <ele>1571.7</ele>
        <time>2022-01-13T05:35:32Z</time>
      </trkpt>
      <trkpt lat="45.69508" lon="6.25881">
        <ele>1571.7</ele>
        <time>2022-01-13T05:35:33Z</time>
      </trkpt>
      <trkpt lat="45.69507" lon="6.25883">
        <ele>1572.8</ele>
        <time>2022-01-13T05:35:34Z</time>
      </trkpt>
      <trkpt lat="45.69507" lon="6.25884">
        <ele>1572.8</ele>
        <time>2022-01-13T05:35:35Z</time>
      </trkpt>
      <trkpt lat="45.69507" lon="6.25885">
        <ele>1573.7</ele>
        <time>2022-01-13T05:35:36Z</time>
      </trkpt>
      <trkpt lat="45.69507" lon="6.25886">
        <ele>1573.7</ele>
        <time>2022-01-13T05:35:37Z</time>
      </trkpt>
      <trkpt lat="45.69507" lon="6.25887">
        <ele>1573.7</ele>
        <time>2022-01-13T05:35:38Z</time>
      </trkpt>
      <trkpt lat="45.69507" lon="6.25888">
        <ele>1573.7</ele>
        <time>2022-01-13T05:35:39Z</time>
      </trkpt>
      <trkpt lat="45.69507" lon="6.2589">
        <ele>1574.8</ele>
        <time>2022-01-13T05:35:40Z</time>
      </trkpt>
      <trkpt lat="45.69507" lon="6.25891">
        <ele>1574.8</ele>
        <time>2022-01-13T05:35:41Z</time>
      </trkpt>
      <trkpt lat="45.69507" lon="6.25892">
        <ele>1574.8</ele>
        <time>2022-01-13T05:35:42Z</time>
      </trkpt>
      <trkpt lat="45.69507" lon="6.25893">
        <ele>1574.8</ele>
        <time>2022-01-13T05:35:43Z</time>
      </trkpt>
      <trkpt lat="45.69507" lon="6.25894">
        <ele>1575.8</ele>
        <time>2022-01-13T05:35:44Z</time>
      </trkpt>
      <trkpt lat="45.69507" lon="6.25896">
        <ele>1575.8</ele>
        <time>2022-01-13T05:35:45Z</time>
      </trkpt>
      <trkpt lat="45.69507" lon="6.25897">
        <ele>1576.8</ele>
        <time>2022-01-13T05:35:46Z</time>
      </trkpt>
      <trkpt lat="45.69507" lon="6.25898">
        <ele>1576.8</ele>
        <time>2022-01-13T05:35:47Z</time>
      </trkpt>
      <trkpt lat="45.69507" lon="6.25899">
        <ele>1576.8</ele>
        <time>2022-01-13T05:35:48Z</time>
      </trkpt>
      <trkpt lat="45.69507" lon="6.259">
        <ele>1576.8</ele>
        <time>2022-01-13T05:35:49Z</time>
      </trkpt>
      <trkpt lat="45.69507" lon="6.25901">
        <ele>1576.8</ele>
        <time>2022-01-13T05:35:50Z</time>
      </trkpt>
      <trkpt lat="45.69507" lon="6.25903">
        <ele>1576.8</ele>
        <time>2022-01-13T05:35:51Z</time>
      </trkpt>
      <trkpt lat="45.69507" lon="6.25904">
        <ele>1577.8</ele>
        <time>2022-01-13T05:35:52Z</time>
      </trkpt>
      <trkpt lat="45.69507" lon="6.25904">
        <ele>1577.8</ele>
        <time>2022-01-13T05:35:53Z</time>
      </trkpt>
      <trkpt lat="45.69507" lon="6.25906">
        <ele>1578.7</ele>
        <time>2022-01-13T05:35:54Z</time>
      </trkpt>
      <trkpt lat="45.69507" lon="6.25907">
        <ele>1578.7</ele>
        <time>2022-01-13T05:35:55Z</time>
      </trkpt>
      <trkpt lat="45.69508" lon="6.25907">
        <ele>1578.7</ele>
        <time>2022-01-13T05:35:56Z</time>
      </trkpt>
      <trkpt lat="45.69508" lon="6.25908">
        <ele>1578.7</ele>
        <time>2022-01-13T05:35:57Z</time>
      </trkpt>
      <trkpt lat="45.69508" lon="6.25909">
        <ele>1579.8</ele>
        <time>2022-01-13T05:35:58Z</time>
      </trkpt>
      <trkpt lat="45.69507" lon="6.25911">
        <ele>1579.8</ele>
        <time>2022-01-13T05:35:59Z</time>
      </trkpt>
      <trkpt lat="45.69507" lon="6.25912">
        <ele>1579.8</ele>
        <time>2022-01-13T05:36:00Z</time>
      </trkpt>
      <trkpt lat="45.69507" lon="6.25913">
        <ele>1579.8</ele>
        <time>2022-01-13T05:36:01Z</time>
      </trkpt>
      <trkpt lat="45.69507" lon="6.25914">
        <ele>1580.7</ele>
        <time>2022-01-13T05:36:02Z</time>
      </trkpt>
      <trkpt lat="45.69507" lon="6.25915">
        <ele>1580.7</ele>
        <time>2022-01-13T05:36:03Z</time>
      </trkpt>
      <trkpt lat="45.69506" lon="6.25916">
        <ele>1580.7</ele>
        <time>2022-01-13T05:36:04Z</time>
      </trkpt>
      <trkpt lat="45.69506" lon="6.25918">
        <ele>1580.7</ele>
        <time>2022-01-13T05:36:05Z</time>
      </trkpt>
      <trkpt lat="45.69506" lon="6.25919">
        <ele>1581.8</ele>
        <time>2022-01-13T05:36:06Z</time>
      </trkpt>
      <trkpt lat="45.69506" lon="6.2592">
        <ele>1581.8</ele>
        <time>2022-01-13T05:36:07Z</time>
      </trkpt>
      <trkpt lat="45.69506" lon="6.25921">
        <ele>1581.8</ele>
        <time>2022-01-13T05:36:08Z</time>
      </trkpt>
      <trkpt lat="45.69506" lon="6.25923">
        <ele>1581.8</ele>
        <time>2022-01-13T05:36:09Z</time>
      </trkpt>
      <trkpt lat="45.69506" lon="6.25923">
        <ele>1582.8</ele>
        <time>2022-01-13T05:36:10Z</time>
      </trkpt>
      <trkpt lat="45.69506" lon="6.25924">
        <ele>1582.8</ele>
        <time>2022-01-13T05:36:11Z</time>
      </trkpt>
      <trkpt lat="45.69506" lon="6.25925">
        <ele>1583.8</ele>
        <time>2022-01-13T05:36:12Z</time>
      </trkpt>
      <trkpt lat="45.69506" lon="6.25926">
        <ele>1583.8</ele>
        <time>2022-01-13T05:36:13Z</time>
      </trkpt>
      <trkpt lat="45.69506" lon="6.25927">
        <ele>1584.8</ele>
        <time>2022-01-13T05:36:14Z</time>
      </trkpt>
      <trkpt lat="45.69506" lon="6.25928">
        <ele>1584.8</ele>
        <time>2022-01-13T05:36:15Z</time>
      </trkpt>
      <trkpt lat="45.69506" lon="6.25929">
        <ele>1584.8</ele>
        <time>2022-01-13T05:36:16Z</time>
      </trkpt>
      <trkpt lat="45.69506" lon="6.25931">
        <ele>1584.8</ele>
        <time>2022-01-13T05:36:17Z</time>
      </trkpt>
      <trkpt lat="45.69506" lon="6.25932">
        <ele>1584.8</ele>
        <time>2022-01-13T05:36:18Z</time>
      </trkpt>
      <trkpt lat="45.69506" lon="6.25933">
        <ele>1584.8</ele>
        <time>2022-01-13T05:36:19Z</time>
      </trkpt>
      <trkpt lat="45.69505" lon="6.25933">
        <ele>1585.7</ele>
        <time>2022-01-13T05:36:20Z</time>
      </trkpt>
      <trkpt lat="45.69504" lon="6.25932">
        <ele>1585.7</ele>
        <time>2022-01-13T05:36:21Z</time>
      </trkpt>
      <trkpt lat="45.69503" lon="6.25932">
        <ele>1585.7</ele>
        <time>2022-01-13T05:36:22Z</time>
      </trkpt>
      <trkpt lat="45.69502" lon="6.25932">
        <ele>1585.7</ele>
        <time>2022-01-13T05:36:23Z</time>
      </trkpt>
      <trkpt lat="45.69501" lon="6.25931">
        <ele>1585.7</ele>
        <time>2022-01-13T05:36:24Z</time>
      </trkpt>
      <trkpt lat="45.695" lon="6.25931">
        <ele>1585.7</ele>
        <time>2022-01-13T05:36:25Z</time>
      </trkpt>
      <trkpt lat="45.69499" lon="6.25931">
        <ele>1585.7</ele>
        <time>2022-01-13T05:36:26Z</time>
      </trkpt>
      <trkpt lat="45.69498" lon="6.25931">
        <ele>1585.7</ele>
        <time>2022-01-13T05:36:27Z</time>
      </trkpt>
      <trkpt lat="45.69497" lon="6.2593">
        <ele>1585.7</ele>
        <time>2022-01-13T05:36:28Z</time>
      </trkpt>
      <trkpt lat="45.69497" lon="6.2593">
        <ele>1585.7</ele>
        <time>2022-01-13T05:36:29Z</time>
      </trkpt>
      <trkpt lat="45.69496" lon="6.25929">
        <ele>1588.8</ele>
        <time>2022-01-13T05:36:30Z</time>
      </trkpt>
      <trkpt lat="45.69495" lon="6.25929">
        <ele>1588.8</ele>
        <time>2022-01-13T05:36:31Z</time>
      </trkpt>
      <trkpt lat="45.69494" lon="6.25928">
        <ele>1588.8</ele>
        <time>2022-01-13T05:36:32Z</time>
      </trkpt>
      <trkpt lat="45.69493" lon="6.25928">
        <ele>1588.8</ele>
        <time>2022-01-13T05:36:33Z</time>
      </trkpt>
      <trkpt lat="45.69493" lon="6.25928">
        <ele>1589.7</ele>
        <time>2022-01-13T05:36:34Z</time>
      </trkpt>
      <trkpt lat="45.69492" lon="6.25927">
        <ele>1589.7</ele>
        <time>2022-01-13T05:36:35Z</time>
      </trkpt>
      <trkpt lat="45.69491" lon="6.25927">
        <ele>1589.7</ele>
        <time>2022-01-13T05:36:36Z</time>
      </trkpt>
      <trkpt lat="45.69491" lon="6.25927">
        <ele>1589.7</ele>
        <time>2022-01-13T05:36:37Z</time>
      </trkpt>
      <trkpt lat="45.69489" lon="6.25928">
        <ele>1590.8</ele>
        <time>2022-01-13T05:36:38Z</time>
      </trkpt>
      <trkpt lat="45.69488" lon="6.25928">
        <ele>1590.8</ele>
        <time>2022-01-13T05:36:39Z</time>
      </trkpt>
      <trkpt lat="45.69487" lon="6.25928">
        <ele>1590.8</ele>
        <time>2022-01-13T05:36:40Z</time>
      </trkpt>
      <trkpt lat="45.69486" lon="6.25927">
        <ele>1590.8</ele>
        <time>2022-01-13T05:36:41Z</time>
      </trkpt>
      <trkpt lat="45.69485" lon="6.25927">
        <ele>1591.8</ele>
        <time>2022-01-13T05:36:42Z</time>
      </trkpt>
      <trkpt lat="45.69484" lon="6.25926">
        <ele>1591.8</ele>
        <time>2022-01-13T05:36:43Z</time>
      </trkpt>
      <trkpt lat="45.69484" lon="6.25926">
        <ele>1591.8</ele>
        <time>2022-01-13T05:36:44Z</time>
      </trkpt>
      <trkpt lat="45.69483" lon="6.25926">
        <ele>1591.8</ele>
        <time>2022-01-13T05:36:45Z</time>
      </trkpt>
      <trkpt lat="45.69482" lon="6.25925">
        <ele>1592.8</ele>
        <time>2022-01-13T05:36:46Z</time>
      </trkpt>
      <trkpt lat="45.69482" lon="6.25924">
        <ele>1592.8</ele>
        <time>2022-01-13T05:36:47Z</time>
      </trkpt>
      <trkpt lat="45.69481" lon="6.25924">
        <ele>1592.8</ele>
        <time>2022-01-13T05:36:48Z</time>
      </trkpt>
      <trkpt lat="45.6948" lon="6.25924">
        <ele>1592.8</ele>
        <time>2022-01-13T05:36:49Z</time>
      </trkpt>
      <trkpt lat="45.69479" lon="6.25923">
        <ele>1592.8</ele>
        <time>2022-01-13T05:36:50Z</time>
      </trkpt>
      <trkpt lat="45.69478" lon="6.25922">
        <ele>1592.8</ele>
        <time>2022-01-13T05:36:51Z</time>
      </trkpt>
      <trkpt lat="45.69477" lon="6.25921">
        <ele>1593.8</ele>
        <time>2022-01-13T05:36:52Z</time>
      </trkpt>
      <trkpt lat="45.69476" lon="6.2592">
        <ele>1593.8</ele>
        <time>2022-01-13T05:36:53Z</time>
      </trkpt>
      <trkpt lat="45.69475" lon="6.25919">
        <ele>1593.8</ele>
        <time>2022-01-13T05:36:54Z</time>
      </trkpt>
      <trkpt lat="45.69475" lon="6.25919">
        <ele>1593.8</ele>
        <time>2022-01-13T05:36:55Z</time>
      </trkpt>
      <trkpt lat="45.69474" lon="6.25918">
        <ele>1594.7</ele>
        <time>2022-01-13T05:36:56Z</time>
      </trkpt>
      <trkpt lat="45.69473" lon="6.25918">
        <ele>1594.7</ele>
        <time>2022-01-13T05:36:57Z</time>
      </trkpt>
      <trkpt lat="45.69472" lon="6.25917">
        <ele>1594.7</ele>
        <time>2022-01-13T05:36:58Z</time>
      </trkpt>
      <trkpt lat="45.69471" lon="6.25916">
        <ele>1594.7</ele>
        <time>2022-01-13T05:36:59Z</time>
      </trkpt>
      <trkpt lat="45.6947" lon="6.25916">
        <ele>1594.7</ele>
        <time>2022-01-13T05:37:00Z</time>
      </trkpt>
      <trkpt lat="45.69469" lon="6.25915">
        <ele>1594.7</ele>
        <time>2022-01-13T05:37:01Z</time>
      </trkpt>
      <trkpt lat="45.69468" lon="6.25915">
        <ele>1594.7</ele>
        <time>2022-01-13T05:37:02Z</time>
      </trkpt>
      <trkpt lat="45.69467" lon="6.25914">
        <ele>1594.7</ele>
        <time>2022-01-13T05:37:03Z</time>
      </trkpt>
      <trkpt lat="45.69466" lon="6.25913">
        <ele>1595.8</ele>
        <time>2022-01-13T05:37:04Z</time>
      </trkpt>
      <trkpt lat="45.69466" lon="6.25912">
        <ele>1595.8</ele>
        <time>2022-01-13T05:37:05Z</time>
      </trkpt>
      <trkpt lat="45.69465" lon="6.25912">
        <ele>1595.8</ele>
        <time>2022-01-13T05:37:06Z</time>
      </trkpt>
      <trkpt lat="45.69464" lon="6.2591">
        <ele>1595.8</ele>
        <time>2022-01-13T05:37:07Z</time>
      </trkpt>
      <trkpt lat="45.69463" lon="6.2591">
        <ele>1595.8</ele>
        <time>2022-01-13T05:37:08Z</time>
      </trkpt>
      <trkpt lat="45.69462" lon="6.25909">
        <ele>1595.8</ele>
        <time>2022-01-13T05:37:09Z</time>
      </trkpt>
      <trkpt lat="45.69462" lon="6.25908">
        <ele>1595.8</ele>
        <time>2022-01-13T05:37:10Z</time>
      </trkpt>
      <trkpt lat="45.69461" lon="6.25907">
        <ele>1595.8</ele>
        <time>2022-01-13T05:37:11Z</time>
      </trkpt>
      <trkpt lat="45.6946" lon="6.25906">
        <ele>1596.7</ele>
        <time>2022-01-13T05:37:12Z</time>
      </trkpt>
      <trkpt lat="45.69459" lon="6.25905">
        <ele>1596.7</ele>
        <time>2022-01-13T05:37:13Z</time>
      </trkpt>
      <trkpt lat="45.69458" lon="6.25904">
        <ele>1596.7</ele>
        <time>2022-01-13T05:37:14Z</time>
      </trkpt>
      <trkpt lat="45.69457" lon="6.25903">
        <ele>1596.7</ele>
        <time>2022-01-13T05:37:15Z</time>
      </trkpt>
      <trkpt lat="45.69457" lon="6.25902">
        <ele>1597.8</ele>
        <time>2022-01-13T05:37:16Z</time>
      </trkpt>
      <trkpt lat="45.69457" lon="6.25902">
        <ele>1597.8</ele>
        <time>2022-01-13T05:37:17Z</time>
      </trkpt>
      <trkpt lat="45.69456" lon="6.25903">
        <ele>1597.8</ele>
        <time>2022-01-13T05:37:18Z</time>
      </trkpt>
      <trkpt lat="45.69456" lon="6.25903">
        <ele>1597.8</ele>
        <time>2022-01-13T05:37:19Z</time>
      </trkpt>
      <trkpt lat="45.69456" lon="6.25903">
        <ele>1598.8</ele>
        <time>2022-01-13T05:37:20Z</time>
      </trkpt>
      <trkpt lat="45.69456" lon="6.25904">
        <ele>1598.8</ele>
        <time>2022-01-13T05:37:21Z</time>
      </trkpt>
      <trkpt lat="45.69456" lon="6.25906">
        <ele>1599.8</ele>
        <time>2022-01-13T05:37:22Z</time>
      </trkpt>
      <trkpt lat="45.69456" lon="6.25907">
        <ele>1599.8</ele>
        <time>2022-01-13T05:37:23Z</time>
      </trkpt>
      <trkpt lat="45.69456" lon="6.25908">
        <ele>1599.8</ele>
        <time>2022-01-13T05:37:24Z</time>
      </trkpt>
      <trkpt lat="45.69456" lon="6.2591">
        <ele>1599.8</ele>
        <time>2022-01-13T05:37:25Z</time>
      </trkpt>
      <trkpt lat="45.69456" lon="6.25912">
        <ele>1599.8</ele>
        <time>2022-01-13T05:37:26Z</time>
      </trkpt>
      <trkpt lat="45.69456" lon="6.25914">
        <ele>1599.8</ele>
        <time>2022-01-13T05:37:27Z</time>
      </trkpt>
      <trkpt lat="45.69456" lon="6.25915">
        <ele>1600.8</ele>
        <time>2022-01-13T05:37:28Z</time>
      </trkpt>
      <trkpt lat="45.69455" lon="6.25916">
        <ele>1600.8</ele>
        <time>2022-01-13T05:37:29Z</time>
      </trkpt>
      <trkpt lat="45.69455" lon="6.25918">
        <ele>1600.8</ele>
        <time>2022-01-13T05:37:30Z</time>
      </trkpt>
      <trkpt lat="45.69456" lon="6.2592">
        <ele>1600.8</ele>
        <time>2022-01-13T05:37:31Z</time>
      </trkpt>
      <trkpt lat="45.69456" lon="6.25921">
        <ele>1600.8</ele>
        <time>2022-01-13T05:37:32Z</time>
      </trkpt>
      <trkpt lat="45.69456" lon="6.25922">
        <ele>1600.8</ele>
        <time>2022-01-13T05:37:33Z</time>
      </trkpt>
      <trkpt lat="45.69456" lon="6.25924">
        <ele>1600.8</ele>
        <time>2022-01-13T05:37:34Z</time>
      </trkpt>
      <trkpt lat="45.69456" lon="6.25925">
        <ele>1600.8</ele>
        <time>2022-01-13T05:37:35Z</time>
      </trkpt>
      <trkpt lat="45.69457" lon="6.25927">
        <ele>1600.8</ele>
        <time>2022-01-13T05:37:36Z</time>
      </trkpt>
      <trkpt lat="45.69457" lon="6.25928">
        <ele>1600.8</ele>
        <time>2022-01-13T05:37:37Z</time>
      </trkpt>
      <trkpt lat="45.69457" lon="6.25929">
        <ele>1600.8</ele>
        <time>2022-01-13T05:37:38Z</time>
      </trkpt>
      <trkpt lat="45.69457" lon="6.2593">
        <ele>1600.8</ele>
        <time>2022-01-13T05:37:39Z</time>
      </trkpt>
      <trkpt lat="45.69457" lon="6.25932">
        <ele>1602.8</ele>
        <time>2022-01-13T05:37:40Z</time>
      </trkpt>
      <trkpt lat="45.69457" lon="6.25933">
        <ele>1602.8</ele>
        <time>2022-01-13T05:37:41Z</time>
      </trkpt>
      <trkpt lat="45.69457" lon="6.25934">
        <ele>1603.7</ele>
        <time>2022-01-13T05:37:42Z</time>
      </trkpt>
      <trkpt lat="45.69457" lon="6.25935">
        <ele>1603.7</ele>
        <time>2022-01-13T05:37:43Z</time>
      </trkpt>
      <trkpt lat="45.69457" lon="6.25936">
        <ele>1604.8</ele>
        <time>2022-01-13T05:37:44Z</time>
      </trkpt>
      <trkpt lat="45.69458" lon="6.25938">
        <ele>1604.8</ele>
        <time>2022-01-13T05:37:45Z</time>
      </trkpt>
      <trkpt lat="45.69458" lon="6.25939">
        <ele>1604.8</ele>
        <time>2022-01-13T05:37:46Z</time>
      </trkpt>
      <trkpt lat="45.69458" lon="6.2594">
        <ele>1604.8</ele>
        <time>2022-01-13T05:37:47Z</time>
      </trkpt>
      <trkpt lat="45.69458" lon="6.25942">
        <ele>1604.8</ele>
        <time>2022-01-13T05:37:48Z</time>
      </trkpt>
      <trkpt lat="45.69459" lon="6.25943">
        <ele>1604.8</ele>
        <time>2022-01-13T05:37:49Z</time>
      </trkpt>
      <trkpt lat="45.69459" lon="6.25944">
        <ele>1604.8</ele>
        <time>2022-01-13T05:37:50Z</time>
      </trkpt>
      <trkpt lat="45.6946" lon="6.25945">
        <ele>1604.8</ele>
        <time>2022-01-13T05:37:51Z</time>
      </trkpt>
      <trkpt lat="45.6946" lon="6.25947">
        <ele>1604.8</ele>
        <time>2022-01-13T05:37:52Z</time>
      </trkpt>
      <trkpt lat="45.6946" lon="6.25948">
        <ele>1604.8</ele>
        <time>2022-01-13T05:37:53Z</time>
      </trkpt>
      <trkpt lat="45.69461" lon="6.25949">
        <ele>1607.8</ele>
        <time>2022-01-13T05:37:54Z</time>
      </trkpt>
      <trkpt lat="45.69461" lon="6.2595">
        <ele>1607.8</ele>
        <time>2022-01-13T05:37:55Z</time>
      </trkpt>
      <trkpt lat="45.6946" lon="6.2595">
        <ele>1607.8</ele>
        <time>2022-01-13T05:37:56Z</time>
      </trkpt>
      <trkpt lat="45.6946" lon="6.2595">
        <ele>1607.8</ele>
        <time>2022-01-13T05:37:57Z</time>
      </trkpt>
      <trkpt lat="45.69459" lon="6.2595">
        <ele>1607.8</ele>
        <time>2022-01-13T05:37:58Z</time>
      </trkpt>
      <trkpt lat="45.69458" lon="6.25949">
        <ele>1607.8</ele>
        <time>2022-01-13T05:37:59Z</time>
      </trkpt>
      <trkpt lat="45.69456" lon="6.25949">
        <ele>1607.8</ele>
        <time>2022-01-13T05:38:00Z</time>
      </trkpt>
      <trkpt lat="45.69455" lon="6.25948">
        <ele>1607.8</ele>
        <time>2022-01-13T05:38:01Z</time>
      </trkpt>
      <trkpt lat="45.69454" lon="6.25947">
        <ele>1608.8</ele>
        <time>2022-01-13T05:38:02Z</time>
      </trkpt>
      <trkpt lat="45.69453" lon="6.25946">
        <ele>1608.8</ele>
        <time>2022-01-13T05:38:03Z</time>
      </trkpt>
      <trkpt lat="45.69452" lon="6.25945">
        <ele>1608.8</ele>
        <time>2022-01-13T05:38:04Z</time>
      </trkpt>
      <trkpt lat="45.69451" lon="6.25944">
        <ele>1608.8</ele>
        <time>2022-01-13T05:38:05Z</time>
      </trkpt>
      <trkpt lat="45.6945" lon="6.25944">
        <ele>1608.8</ele>
        <time>2022-01-13T05:38:06Z</time>
      </trkpt>
      <trkpt lat="45.69449" lon="6.25943">
        <ele>1608.8</ele>
        <time>2022-01-13T05:38:07Z</time>
      </trkpt>
      <trkpt lat="45.69448" lon="6.25942">
        <ele>1610.7</ele>
        <time>2022-01-13T05:38:08Z</time>
      </trkpt>
      <trkpt lat="45.69447" lon="6.25942">
        <ele>1610.7</ele>
        <time>2022-01-13T05:38:09Z</time>
      </trkpt>
      <trkpt lat="45.69446" lon="6.25941">
        <ele>1610.7</ele>
        <time>2022-01-13T05:38:10Z</time>
      </trkpt>
      <trkpt lat="45.69445" lon="6.2594">
        <ele>1610.7</ele>
        <time>2022-01-13T05:38:11Z</time>
      </trkpt>
      <trkpt lat="45.69443" lon="6.2594">
        <ele>1610.7</ele>
        <time>2022-01-13T05:38:12Z</time>
      </trkpt>
      <trkpt lat="45.69442" lon="6.25939">
        <ele>1610.7</ele>
        <time>2022-01-13T05:38:13Z</time>
      </trkpt>
      <trkpt lat="45.69442" lon="6.25938">
        <ele>1610.7</ele>
        <time>2022-01-13T05:38:14Z</time>
      </trkpt>
      <trkpt lat="45.69441" lon="6.25937">
        <ele>1610.7</ele>
        <time>2022-01-13T05:38:15Z</time>
      </trkpt>
      <trkpt lat="45.6944" lon="6.25937">
        <ele>1610.7</ele>
        <time>2022-01-13T05:38:16Z</time>
      </trkpt>
      <trkpt lat="45.69439" lon="6.25936">
        <ele>1610.7</ele>
        <time>2022-01-13T05:38:17Z</time>
      </trkpt>
      <trkpt lat="45.69438" lon="6.25935">
        <ele>1611.8</ele>
        <time>2022-01-13T05:38:18Z</time>
      </trkpt>
      <trkpt lat="45.69437" lon="6.25934">
        <ele>1611.8</ele>
        <time>2022-01-13T05:38:19Z</time>
      </trkpt>
      <trkpt lat="45.69436" lon="6.25933">
        <ele>1611.8</ele>
        <time>2022-01-13T05:38:20Z</time>
      </trkpt>
      <trkpt lat="45.69435" lon="6.25932">
        <ele>1611.8</ele>
        <time>2022-01-13T05:38:21Z</time>
      </trkpt>
      <trkpt lat="45.69434" lon="6.25931">
        <ele>1611.8</ele>
        <time>2022-01-13T05:38:22Z</time>
      </trkpt>
      <trkpt lat="45.69433" lon="6.2593">
        <ele>1611.8</ele>
        <time>2022-01-13T05:38:23Z</time>
      </trkpt>
      <trkpt lat="45.69432" lon="6.25929">
        <ele>1612.7</ele>
        <time>2022-01-13T05:38:24Z</time>
      </trkpt>
      <trkpt lat="45.69432" lon="6.25928">
        <ele>1612.7</ele>
        <time>2022-01-13T05:38:25Z</time>
      </trkpt>
      <trkpt lat="45.69431" lon="6.25927">
        <ele>1612.7</ele>
        <time>2022-01-13T05:38:26Z</time>
      </trkpt>
      <trkpt lat="45.6943" lon="6.25926">
        <ele>1612.7</ele>
        <time>2022-01-13T05:38:27Z</time>
      </trkpt>
      <trkpt lat="45.6943" lon="6.25925">
        <ele>1613.8</ele>
        <time>2022-01-13T05:38:28Z</time>
      </trkpt>
      <trkpt lat="45.69429" lon="6.25924">
        <ele>1613.8</ele>
        <time>2022-01-13T05:38:29Z</time>
      </trkpt>
      <trkpt lat="45.69428" lon="6.25923">
        <ele>1614.9</ele>
        <time>2022-01-13T05:38:30Z</time>
      </trkpt>
      <trkpt lat="45.69428" lon="6.25923">
        <ele>1614.9</ele>
        <time>2022-01-13T05:38:31Z</time>
      </trkpt>
      <trkpt lat="45.69427" lon="6.25922">
        <ele>1614.9</ele>
        <time>2022-01-13T05:38:32Z</time>
      </trkpt>
      <trkpt lat="45.69426" lon="6.25921">
        <ele>1614.9</ele>
        <time>2022-01-13T05:38:33Z</time>
      </trkpt>
      <trkpt lat="45.69426" lon="6.2592">
        <ele>1615.8</ele>
        <time>2022-01-13T05:38:34Z</time>
      </trkpt>
      <trkpt lat="45.69425" lon="6.2592">
        <ele>1615.8</ele>
        <time>2022-01-13T05:38:35Z</time>
      </trkpt>
      <trkpt lat="45.69424" lon="6.25919">
        <ele>1615.8</ele>
        <time>2022-01-13T05:38:36Z</time>
      </trkpt>
      <trkpt lat="45.69423" lon="6.25918">
        <ele>1615.8</ele>
        <time>2022-01-13T05:38:37Z</time>
      </trkpt>
      <trkpt lat="45.69423" lon="6.25917">
        <ele>1616.8</ele>
        <time>2022-01-13T05:38:38Z</time>
      </trkpt>
      <trkpt lat="45.69422" lon="6.25916">
        <ele>1616.8</ele>
        <time>2022-01-13T05:38:39Z</time>
      </trkpt>
      <trkpt lat="45.69422" lon="6.25915">
        <ele>1616.8</ele>
        <time>2022-01-13T05:38:40Z</time>
      </trkpt>
      <trkpt lat="45.69422" lon="6.25916">
        <ele>1616.8</ele>
        <time>2022-01-13T05:38:41Z</time>
      </trkpt>
      <trkpt lat="45.69421" lon="6.25916">
        <ele>1617.7</ele>
        <time>2022-01-13T05:38:42Z</time>
      </trkpt>
      <trkpt lat="45.69421" lon="6.25917">
        <ele>1617.7</ele>
        <time>2022-01-13T05:38:43Z</time>
      </trkpt>
      <trkpt lat="45.69421" lon="6.25917">
        <ele>1617.7</ele>
        <time>2022-01-13T05:38:44Z</time>
      </trkpt>
      <trkpt lat="45.69421" lon="6.25919">
        <ele>1617.7</ele>
        <time>2022-01-13T05:38:45Z</time>
      </trkpt>
      <trkpt lat="45.69421" lon="6.2592">
        <ele>1618.8</ele>
        <time>2022-01-13T05:38:46Z</time>
      </trkpt>
      <trkpt lat="45.69421" lon="6.25922">
        <ele>1618.8</ele>
        <time>2022-01-13T05:38:47Z</time>
      </trkpt>
      <trkpt lat="45.69421" lon="6.25924">
        <ele>1618.8</ele>
        <time>2022-01-13T05:38:48Z</time>
      </trkpt>
      <trkpt lat="45.6942" lon="6.25925">
        <ele>1618.8</ele>
        <time>2022-01-13T05:38:49Z</time>
      </trkpt>
      <trkpt lat="45.6942" lon="6.25926">
        <ele>1618.8</ele>
        <time>2022-01-13T05:38:50Z</time>
      </trkpt>
      <trkpt lat="45.6942" lon="6.25928">
        <ele>1618.8</ele>
        <time>2022-01-13T05:38:51Z</time>
      </trkpt>
      <trkpt lat="45.6942" lon="6.2593">
        <ele>1619.7</ele>
        <time>2022-01-13T05:38:52Z</time>
      </trkpt>
      <trkpt lat="45.6942" lon="6.25931">
        <ele>1619.7</ele>
        <time>2022-01-13T05:38:53Z</time>
      </trkpt>
      <trkpt lat="45.6942" lon="6.25932">
        <ele>1619.7</ele>
        <time>2022-01-13T05:38:54Z</time>
      </trkpt>
      <trkpt lat="45.6942" lon="6.25934">
        <ele>1619.7</ele>
        <time>2022-01-13T05:38:55Z</time>
      </trkpt>
      <trkpt lat="45.6942" lon="6.25935">
        <ele>1619.7</ele>
        <time>2022-01-13T05:38:56Z</time>
      </trkpt>
      <trkpt lat="45.6942" lon="6.25937">
        <ele>1619.7</ele>
        <time>2022-01-13T05:38:57Z</time>
      </trkpt>
      <trkpt lat="45.6942" lon="6.25938">
        <ele>1619.7</ele>
        <time>2022-01-13T05:38:58Z</time>
      </trkpt>
      <trkpt lat="45.6942" lon="6.2594">
        <ele>1619.7</ele>
        <time>2022-01-13T05:38:59Z</time>
      </trkpt>
      <trkpt lat="45.6942" lon="6.25941">
        <ele>1619.7</ele>
        <time>2022-01-13T05:39:00Z</time>
      </trkpt>
      <trkpt lat="45.6942" lon="6.25943">
        <ele>1619.7</ele>
        <time>2022-01-13T05:39:01Z</time>
      </trkpt>
      <trkpt lat="45.6942" lon="6.25944">
        <ele>1621.7</ele>
        <time>2022-01-13T05:39:02Z</time>
      </trkpt>
      <trkpt lat="45.69421" lon="6.25946">
        <ele>1621.7</ele>
        <time>2022-01-13T05:39:03Z</time>
      </trkpt>
      <trkpt lat="45.69421" lon="6.25947">
        <ele>1622.8</ele>
        <time>2022-01-13T05:39:04Z</time>
      </trkpt>
      <trkpt lat="45.69421" lon="6.25949">
        <ele>1622.8</ele>
        <time>2022-01-13T05:39:05Z</time>
      </trkpt>
      <trkpt lat="45.69421" lon="6.2595">
        <ele>1622.8</ele>
        <time>2022-01-13T05:39:06Z</time>
      </trkpt>
      <trkpt lat="45.69421" lon="6.25952">
        <ele>1622.8</ele>
        <time>2022-01-13T05:39:07Z</time>
      </trkpt>
      <trkpt lat="45.69422" lon="6.25953">
        <ele>1622.8</ele>
        <time>2022-01-13T05:39:08Z</time>
      </trkpt>
      <trkpt lat="45.69422" lon="6.25954">
        <ele>1622.8</ele>
        <time>2022-01-13T05:39:09Z</time>
      </trkpt>
      <trkpt lat="45.69422" lon="6.25956">
        <ele>1622.8</ele>
        <time>2022-01-13T05:39:10Z</time>
      </trkpt>
      <trkpt lat="45.69423" lon="6.25957">
        <ele>1622.8</ele>
        <time>2022-01-13T05:39:11Z</time>
      </trkpt>
      <trkpt lat="45.69423" lon="6.25958">
        <ele>1622.8</ele>
        <time>2022-01-13T05:39:12Z</time>
      </trkpt>
      <trkpt lat="45.69424" lon="6.25959">
        <ele>1622.8</ele>
        <time>2022-01-13T05:39:13Z</time>
      </trkpt>
      <trkpt lat="45.69424" lon="6.25961">
        <ele>1622.8</ele>
        <time>2022-01-13T05:39:14Z</time>
      </trkpt>
      <trkpt lat="45.69424" lon="6.25962">
        <ele>1622.8</ele>
        <time>2022-01-13T05:39:15Z</time>
      </trkpt>
      <trkpt lat="45.69424" lon="6.25963">
        <ele>1622.8</ele>
        <time>2022-01-13T05:39:16Z</time>
      </trkpt>
      <trkpt lat="45.69425" lon="6.25964">
        <ele>1622.8</ele>
        <time>2022-01-13T05:39:17Z</time>
      </trkpt>
      <trkpt lat="45.69425" lon="6.25965">
        <ele>1625.8</ele>
        <time>2022-01-13T05:39:18Z</time>
      </trkpt>
      <trkpt lat="45.69425" lon="6.25966">
        <ele>1625.8</ele>
        <time>2022-01-13T05:39:19Z</time>
      </trkpt>
      <trkpt lat="45.69426" lon="6.25968">
        <ele>1625.8</ele>
        <time>2022-01-13T05:39:20Z</time>
      </trkpt>
      <trkpt lat="45.69426" lon="6.25969">
        <ele>1625.8</ele>
        <time>2022-01-13T05:39:21Z</time>
      </trkpt>
      <trkpt lat="45.69426" lon="6.2597">
        <ele>1626.7</ele>
        <time>2022-01-13T05:39:22Z</time>
      </trkpt>
      <trkpt lat="45.69427" lon="6.25972">
        <ele>1626.7</ele>
        <time>2022-01-13T05:39:23Z</time>
      </trkpt>
      <trkpt lat="45.69427" lon="6.25973">
        <ele>1626.7</ele>
        <time>2022-01-13T05:39:24Z</time>
      </trkpt>
      <trkpt lat="45.69428" lon="6.25974">
        <ele>1626.7</ele>
        <time>2022-01-13T05:39:25Z</time>
      </trkpt>
      <trkpt lat="45.69427" lon="6.25974">
        <ele>1628.7</ele>
        <time>2022-01-13T05:39:26Z</time>
      </trkpt>
      <trkpt lat="45.69427" lon="6.25974">
        <ele>1628.7</ele>
        <time>2022-01-13T05:39:27Z</time>
      </trkpt>
      <trkpt lat="45.69426" lon="6.25974">
        <ele>1628.7</ele>
        <time>2022-01-13T05:39:28Z</time>
      </trkpt>
      <trkpt lat="45.69425" lon="6.25974">
        <ele>1628.7</ele>
        <time>2022-01-13T05:39:29Z</time>
      </trkpt>
      <trkpt lat="45.69424" lon="6.25974">
        <ele>1628.7</ele>
        <time>2022-01-13T05:39:30Z</time>
      </trkpt>
      <trkpt lat="45.69424" lon="6.25973">
        <ele>1628.7</ele>
        <time>2022-01-13T05:39:31Z</time>
      </trkpt>
      <trkpt lat="45.69423" lon="6.25973">
        <ele>1628.7</ele>
        <time>2022-01-13T05:39:32Z</time>
      </trkpt>
      <trkpt lat="45.69422" lon="6.25972">
        <ele>1628.7</ele>
        <time>2022-01-13T05:39:33Z</time>
      </trkpt>
      <trkpt lat="45.69421" lon="6.25971">
        <ele>1628.7</ele>
        <time>2022-01-13T05:39:34Z</time>
      </trkpt>
      <trkpt lat="45.6942" lon="6.25971">
        <ele>1628.7</ele>
        <time>2022-01-13T05:39:35Z</time>
      </trkpt>
      <trkpt lat="45.69419" lon="6.2597">
        <ele>1629.8</ele>
        <time>2022-01-13T05:39:36Z</time>
      </trkpt>
      <trkpt lat="45.69419" lon="6.25969">
        <ele>1629.8</ele>
        <time>2022-01-13T05:39:37Z</time>
      </trkpt>
      <trkpt lat="45.69418" lon="6.25968">
        <ele>1630.9</ele>
        <time>2022-01-13T05:39:38Z</time>
      </trkpt>
      <trkpt lat="45.69417" lon="6.25967">
        <ele>1630.9</ele>
        <time>2022-01-13T05:39:39Z</time>
      </trkpt>
      <trkpt lat="45.69416" lon="6.25967">
        <ele>1630.9</ele>
        <time>2022-01-13T05:39:40Z</time>
      </trkpt>
      <trkpt lat="45.69415" lon="6.25966">
        <ele>1630.9</ele>
        <time>2022-01-13T05:39:41Z</time>
      </trkpt>
      <trkpt lat="45.69414" lon="6.25965">
        <ele>1631.8</ele>
        <time>2022-01-13T05:39:42Z</time>
      </trkpt>
      <trkpt lat="45.69412" lon="6.25965">
        <ele>1631.8</ele>
        <time>2022-01-13T05:39:43Z</time>
      </trkpt>
      <trkpt lat="45.69411" lon="6.25964">
        <ele>1631.8</ele>
        <time>2022-01-13T05:39:44Z</time>
      </trkpt>
      <trkpt lat="45.6941" lon="6.25963">
        <ele>1631.8</ele>
        <time>2022-01-13T05:39:45Z</time>
      </trkpt>
      <trkpt lat="45.6941" lon="6.25962">
        <ele>1632.8</ele>
        <time>2022-01-13T05:39:46Z</time>
      </trkpt>
      <trkpt lat="45.69408" lon="6.25962">
        <ele>1632.8</ele>
        <time>2022-01-13T05:39:47Z</time>
      </trkpt>
      <trkpt lat="45.69407" lon="6.25961">
        <ele>1632.8</ele>
        <time>2022-01-13T05:39:48Z</time>
      </trkpt>
      <trkpt lat="45.69406" lon="6.25961">
        <ele>1632.8</ele>
        <time>2022-01-13T05:39:49Z</time>
      </trkpt>
      <trkpt lat="45.69406" lon="6.2596">
        <ele>1632.8</ele>
        <time>2022-01-13T05:39:50Z</time>
      </trkpt>
      <trkpt lat="45.69405" lon="6.25959">
        <ele>1632.8</ele>
        <time>2022-01-13T05:39:51Z</time>
      </trkpt>
      <trkpt lat="45.69404" lon="6.25959">
        <ele>1632.8</ele>
        <time>2022-01-13T05:39:52Z</time>
      </trkpt>
      <trkpt lat="45.69403" lon="6.25958">
        <ele>1632.8</ele>
        <time>2022-01-13T05:39:53Z</time>
      </trkpt>
      <trkpt lat="45.69402" lon="6.25957">
        <ele>1633.7</ele>
        <time>2022-01-13T05:39:54Z</time>
      </trkpt>
      <trkpt lat="45.69401" lon="6.25956">
        <ele>1633.7</ele>
        <time>2022-01-13T05:39:55Z</time>
      </trkpt>
      <trkpt lat="45.69401" lon="6.25956">
        <ele>1633.7</ele>
        <time>2022-01-13T05:39:56Z</time>
      </trkpt>
      <trkpt lat="45.694" lon="6.25955">
        <ele>1633.7</ele>
        <time>2022-01-13T05:39:57Z</time>
      </trkpt>
      <trkpt lat="45.69399" lon="6.25954">
        <ele>1633.7</ele>
        <time>2022-01-13T05:39:58Z</time>
      </trkpt>
      <trkpt lat="45.69399" lon="6.25953">
        <ele>1633.7</ele>
        <time>2022-01-13T05:39:59Z</time>
      </trkpt>
      <trkpt lat="45.69398" lon="6.25952">
        <ele>1633.7</ele>
        <time>2022-01-13T05:40:00Z</time>
      </trkpt>
      <trkpt lat="45.69397" lon="6.25951">
        <ele>1633.7</ele>
        <time>2022-01-13T05:40:01Z</time>
      </trkpt>
      <trkpt lat="45.69396" lon="6.2595">
        <ele>1633.7</ele>
        <time>2022-01-13T05:40:02Z</time>
      </trkpt>
      <trkpt lat="45.69396" lon="6.25949">
        <ele>1633.7</ele>
        <time>2022-01-13T05:40:03Z</time>
      </trkpt>
      <trkpt lat="45.69395" lon="6.25949">
        <ele>1635.7</ele>
        <time>2022-01-13T05:40:04Z</time>
      </trkpt>
      <trkpt lat="45.69394" lon="6.25948">
        <ele>1635.7</ele>
        <time>2022-01-13T05:40:05Z</time>
      </trkpt>
      <trkpt lat="45.69393" lon="6.25947">
        <ele>1636.8</ele>
        <time>2022-01-13T05:40:06Z</time>
      </trkpt>
      <trkpt lat="45.69392" lon="6.25947">
        <ele>1636.8</ele>
        <time>2022-01-13T05:40:07Z</time>
      </trkpt>
      <trkpt lat="45.69391" lon="6.25946">
        <ele>1636.8</ele>
        <time>2022-01-13T05:40:08Z</time>
      </trkpt>
      <trkpt lat="45.6939" lon="6.25946">
        <ele>1636.8</ele>
        <time>2022-01-13T05:40:09Z</time>
      </trkpt>
      <trkpt lat="45.69389" lon="6.25946">
        <ele>1637.7</ele>
        <time>2022-01-13T05:40:10Z</time>
      </trkpt>
      <trkpt lat="45.69388" lon="6.25946">
        <ele>1637.7</ele>
        <time>2022-01-13T05:40:11Z</time>
      </trkpt>
      <trkpt lat="45.69388" lon="6.25946">
        <ele>1637.7</ele>
        <time>2022-01-13T05:40:12Z</time>
      </trkpt>
      <trkpt lat="45.69387" lon="6.25946">
        <ele>1637.7</ele>
        <time>2022-01-13T05:40:13Z</time>
      </trkpt>
      <trkpt lat="45.69387" lon="6.25947">
        <ele>1638.8</ele>
        <time>2022-01-13T05:40:14Z</time>
      </trkpt>
      <trkpt lat="45.69387" lon="6.25948">
        <ele>1638.8</ele>
        <time>2022-01-13T05:40:15Z</time>
      </trkpt>
      <trkpt lat="45.69387" lon="6.25949">
        <ele>1638.8</ele>
        <time>2022-01-13T05:40:16Z</time>
      </trkpt>
      <trkpt lat="45.69387" lon="6.2595">
        <ele>1638.8</ele>
        <time>2022-01-13T05:40:17Z</time>
      </trkpt>
      <trkpt lat="45.69388" lon="6.25951">
        <ele>1638.8</ele>
        <time>2022-01-13T05:40:18Z</time>
      </trkpt>
      <trkpt lat="45.69388" lon="6.25952">
        <ele>1638.8</ele>
        <time>2022-01-13T05:40:19Z</time>
      </trkpt>
      <trkpt lat="45.69388" lon="6.25953">
        <ele>1639.8</ele>
        <time>2022-01-13T05:40:20Z</time>
      </trkpt>
      <trkpt lat="45.69388" lon="6.25954">
        <ele>1639.8</ele>
        <time>2022-01-13T05:40:21Z</time>
      </trkpt>
      <trkpt lat="45.69388" lon="6.25956">
        <ele>1639.8</ele>
        <time>2022-01-13T05:40:22Z</time>
      </trkpt>
      <trkpt lat="45.69388" lon="6.25957">
        <ele>1639.8</ele>
        <time>2022-01-13T05:40:23Z</time>
      </trkpt>
      <trkpt lat="45.69388" lon="6.25958">
        <ele>1639.8</ele>
        <time>2022-01-13T05:40:24Z</time>
      </trkpt>
      <trkpt lat="45.69389" lon="6.2596">
        <ele>1639.8</ele>
        <time>2022-01-13T05:40:25Z</time>
      </trkpt>
      <trkpt lat="45.69389" lon="6.2596">
        <ele>1639.8</ele>
        <time>2022-01-13T05:40:26Z</time>
      </trkpt>
      <trkpt lat="45.69389" lon="6.25962">
        <ele>1639.8</ele>
        <time>2022-01-13T05:40:27Z</time>
      </trkpt>
      <trkpt lat="45.6939" lon="6.25963">
        <ele>1642.7</ele>
        <time>2022-01-13T05:40:28Z</time>
      </trkpt>
      <trkpt lat="45.6939" lon="6.25964">
        <ele>1642.7</ele>
        <time>2022-01-13T05:40:29Z</time>
      </trkpt>
      <trkpt lat="45.6939" lon="6.25966">
        <ele>1642.7</ele>
        <time>2022-01-13T05:40:30Z</time>
      </trkpt>
      <trkpt lat="45.6939" lon="6.25967">
        <ele>1642.7</ele>
        <time>2022-01-13T05:40:31Z</time>
      </trkpt>
      <trkpt lat="45.69389" lon="6.25968">
        <ele>1643.8</ele>
        <time>2022-01-13T05:40:32Z</time>
      </trkpt>
      <trkpt lat="45.69389" lon="6.2597">
        <ele>1643.8</ele>
        <time>2022-01-13T05:40:33Z</time>
      </trkpt>
      <trkpt lat="45.69389" lon="6.25971">
        <ele>1643.8</ele>
        <time>2022-01-13T05:40:34Z</time>
      </trkpt>
      <trkpt lat="45.69389" lon="6.25973">
        <ele>1643.8</ele>
        <time>2022-01-13T05:40:35Z</time>
      </trkpt>
      <trkpt lat="45.69389" lon="6.25974">
        <ele>1646.7</ele>
        <time>2022-01-13T05:40:36Z</time>
      </trkpt>
      <trkpt lat="45.69389" lon="6.25976">
        <ele>1646.7</ele>
        <time>2022-01-13T05:40:37Z</time>
      </trkpt>
      <trkpt lat="45.69389" lon="6.25978">
        <ele>1646.7</ele>
        <time>2022-01-13T05:40:38Z</time>
      </trkpt>
      <trkpt lat="45.69389" lon="6.25979">
        <ele>1646.7</ele>
        <time>2022-01-13T05:40:39Z</time>
      </trkpt>
      <trkpt lat="45.69389" lon="6.25981">
        <ele>1646.7</ele>
        <time>2022-01-13T05:40:40Z</time>
      </trkpt>
      <trkpt lat="45.69389" lon="6.25982">
        <ele>1646.7</ele>
        <time>2022-01-13T05:40:41Z</time>
      </trkpt>
      <trkpt lat="45.69389" lon="6.25983">
        <ele>1646.7</ele>
        <time>2022-01-13T05:40:42Z</time>
      </trkpt>
      <trkpt lat="45.69388" lon="6.25985">
        <ele>1646.7</ele>
        <time>2022-01-13T05:40:43Z</time>
      </trkpt>
      <trkpt lat="45.69388" lon="6.25986">
        <ele>1646.7</ele>
        <time>2022-01-13T05:40:44Z</time>
      </trkpt>
      <trkpt lat="45.69388" lon="6.25987">
        <ele>1646.7</ele>
        <time>2022-01-13T05:40:45Z</time>
      </trkpt>
      <trkpt lat="45.69388" lon="6.25988">
        <ele>1647.8</ele>
        <time>2022-01-13T05:40:46Z</time>
      </trkpt>
      <trkpt lat="45.69388" lon="6.25989">
        <ele>1647.8</ele>
        <time>2022-01-13T05:40:47Z</time>
      </trkpt>
      <trkpt lat="45.69388" lon="6.2599">
        <ele>1647.8</ele>
        <time>2022-01-13T05:40:48Z</time>
      </trkpt>
      <trkpt lat="45.69388" lon="6.25991">
        <ele>1647.8</ele>
        <time>2022-01-13T05:40:49Z</time>
      </trkpt>
      <trkpt lat="45.69388" lon="6.25992">
        <ele>1647.8</ele>
        <time>2022-01-13T05:40:50Z</time>
      </trkpt>
      <trkpt lat="45.69388" lon="6.25993">
        <ele>1647.8</ele>
        <time>2022-01-13T05:40:51Z</time>
      </trkpt>
      <trkpt lat="45.69388" lon="6.25994">
        <ele>1648.8</ele>
        <time>2022-01-13T05:40:52Z</time>
      </trkpt>
      <trkpt lat="45.69388" lon="6.25995">
        <ele>1648.8</ele>
        <time>2022-01-13T05:40:53Z</time>
      </trkpt>
      <trkpt lat="45.69388" lon="6.25997">
        <ele>1648.8</ele>
        <time>2022-01-13T05:40:54Z</time>
      </trkpt>
      <trkpt lat="45.69389" lon="6.25998">
        <ele>1648.8</ele>
        <time>2022-01-13T05:40:55Z</time>
      </trkpt>
      <trkpt lat="45.69389" lon="6.25999">
        <ele>1649.8</ele>
        <time>2022-01-13T05:40:56Z</time>
      </trkpt>
      <trkpt lat="45.69389" lon="6.26">
        <ele>1649.8</ele>
        <time>2022-01-13T05:40:57Z</time>
      </trkpt>
      <trkpt lat="45.69389" lon="6.26001">
        <ele>1650.8</ele>
        <time>2022-01-13T05:40:58Z</time>
      </trkpt>
      <trkpt lat="45.69389" lon="6.26002">
        <ele>1650.8</ele>
        <time>2022-01-13T05:40:59Z</time>
      </trkpt>
      <trkpt lat="45.69389" lon="6.26003">
        <ele>1650.8</ele>
        <time>2022-01-13T05:41:00Z</time>
      </trkpt>
      <trkpt lat="45.69389" lon="6.26004">
        <ele>1650.8</ele>
        <time>2022-01-13T05:41:01Z</time>
      </trkpt>
      <trkpt lat="45.69389" lon="6.26004">
        <ele>1651.7</ele>
        <time>2022-01-13T05:41:02Z</time>
      </trkpt>
      <trkpt lat="45.69389" lon="6.26006">
        <ele>1651.7</ele>
        <time>2022-01-13T05:41:03Z</time>
      </trkpt>
      <trkpt lat="45.6939" lon="6.26006">
        <ele>1652.8</ele>
        <time>2022-01-13T05:41:04Z</time>
      </trkpt>
      <trkpt lat="45.6939" lon="6.26008">
        <ele>1652.8</ele>
        <time>2022-01-13T05:41:05Z</time>
      </trkpt>
      <trkpt lat="45.6939" lon="6.26009">
        <ele>1652.8</ele>
        <time>2022-01-13T05:41:06Z</time>
      </trkpt>
      <trkpt lat="45.6939" lon="6.2601">
        <ele>1652.8</ele>
        <time>2022-01-13T05:41:07Z</time>
      </trkpt>
      <trkpt lat="45.6939" lon="6.26011">
        <ele>1653.7</ele>
        <time>2022-01-13T05:41:08Z</time>
      </trkpt>
      <trkpt lat="45.69391" lon="6.26012">
        <ele>1653.7</ele>
        <time>2022-01-13T05:41:09Z</time>
      </trkpt>
      <trkpt lat="45.69391" lon="6.26013">
        <ele>1653.7</ele>
        <time>2022-01-13T05:41:10Z</time>
      </trkpt>
      <trkpt lat="45.69391" lon="6.26014">
        <ele>1653.7</ele>
        <time>2022-01-13T05:41:11Z</time>
      </trkpt>
      <trkpt lat="45.69391" lon="6.26015">
        <ele>1654.8</ele>
        <time>2022-01-13T05:41:12Z</time>
      </trkpt>
      <trkpt lat="45.69392" lon="6.26016">
        <ele>1654.8</ele>
        <time>2022-01-13T05:41:13Z</time>
      </trkpt>
      <trkpt lat="45.69392" lon="6.26017">
        <ele>1655.8</ele>
        <time>2022-01-13T05:41:14Z</time>
      </trkpt>
      <trkpt lat="45.69392" lon="6.26018">
        <ele>1655.8</ele>
        <time>2022-01-13T05:41:15Z</time>
      </trkpt>
      <trkpt lat="45.69392" lon="6.26019">
        <ele>1655.8</ele>
        <time>2022-01-13T05:41:16Z</time>
      </trkpt>
      <trkpt lat="45.69392" lon="6.2602">
        <ele>1655.8</ele>
        <time>2022-01-13T05:41:17Z</time>
      </trkpt>
      <trkpt lat="45.69392" lon="6.26021">
        <ele>1656.8</ele>
        <time>2022-01-13T05:41:18Z</time>
      </trkpt>
      <trkpt lat="45.69392" lon="6.26021">
        <ele>1656.8</ele>
        <time>2022-01-13T05:41:19Z</time>
      </trkpt>
      <trkpt lat="45.69392" lon="6.26021">
        <ele>1656.8</ele>
        <time>2022-01-13T05:41:20Z</time>
      </trkpt>
      <trkpt lat="45.69391" lon="6.26021">
        <ele>1656.8</ele>
        <time>2022-01-13T05:41:21Z</time>
      </trkpt>
      <trkpt lat="45.6939" lon="6.26021">
        <ele>1656.8</ele>
        <time>2022-01-13T05:41:22Z</time>
      </trkpt>
      <trkpt lat="45.69389" lon="6.2602">
        <ele>1656.8</ele>
        <time>2022-01-13T05:41:23Z</time>
      </trkpt>
      <trkpt lat="45.69388" lon="6.2602">
        <ele>1658.7</ele>
        <time>2022-01-13T05:41:24Z</time>
      </trkpt>
      <trkpt lat="45.69387" lon="6.26019">
        <ele>1658.7</ele>
        <time>2022-01-13T05:41:25Z</time>
      </trkpt>
      <trkpt lat="45.69386" lon="6.26019">
        <ele>1658.7</ele>
        <time>2022-01-13T05:41:26Z</time>
      </trkpt>
      <trkpt lat="45.69384" lon="6.26018">
        <ele>1658.7</ele>
        <time>2022-01-13T05:41:27Z</time>
      </trkpt>
      <trkpt lat="45.69383" lon="6.26017">
        <ele>1658.7</ele>
        <time>2022-01-13T05:41:28Z</time>
      </trkpt>
      <trkpt lat="45.69382" lon="6.26016">
        <ele>1658.7</ele>
        <time>2022-01-13T05:41:29Z</time>
      </trkpt>
      <trkpt lat="45.69381" lon="6.26015">
        <ele>1660.7</ele>
        <time>2022-01-13T05:41:30Z</time>
      </trkpt>
      <trkpt lat="45.6938" lon="6.26015">
        <ele>1660.7</ele>
        <time>2022-01-13T05:41:31Z</time>
      </trkpt>
      <trkpt lat="45.69379" lon="6.26014">
        <ele>1660.7</ele>
        <time>2022-01-13T05:41:32Z</time>
      </trkpt>
      <trkpt lat="45.69378" lon="6.26013">
        <ele>1660.7</ele>
        <time>2022-01-13T05:41:33Z</time>
      </trkpt>
      <trkpt lat="45.69377" lon="6.26013">
        <ele>1660.7</ele>
        <time>2022-01-13T05:41:34Z</time>
      </trkpt>
      <trkpt lat="45.69376" lon="6.26012">
        <ele>1660.7</ele>
        <time>2022-01-13T05:41:35Z</time>
      </trkpt>
      <trkpt lat="45.69375" lon="6.26012">
        <ele>1660.7</ele>
        <time>2022-01-13T05:41:36Z</time>
      </trkpt>
      <trkpt lat="45.69374" lon="6.26012">
        <ele>1660.7</ele>
        <time>2022-01-13T05:41:37Z</time>
      </trkpt>
      <trkpt lat="45.69373" lon="6.26012">
        <ele>1661.8</ele>
        <time>2022-01-13T05:41:38Z</time>
      </trkpt>
      <trkpt lat="45.69373" lon="6.26011">
        <ele>1661.8</ele>
        <time>2022-01-13T05:41:39Z</time>
      </trkpt>
      <trkpt lat="45.69372" lon="6.2601">
        <ele>1660.7</ele>
        <time>2022-01-13T05:41:40Z</time>
      </trkpt>
      <trkpt lat="45.69371" lon="6.2601">
        <ele>1660.7</ele>
        <time>2022-01-13T05:41:41Z</time>
      </trkpt>
      <trkpt lat="45.6937" lon="6.2601">
        <ele>1660.7</ele>
        <time>2022-01-13T05:41:42Z</time>
      </trkpt>
      <trkpt lat="45.69369" lon="6.26009">
        <ele>1660.7</ele>
        <time>2022-01-13T05:41:43Z</time>
      </trkpt>
      <trkpt lat="45.69368" lon="6.26008">
        <ele>1661.8</ele>
        <time>2022-01-13T05:41:44Z</time>
      </trkpt>
      <trkpt lat="45.69366" lon="6.26008">
        <ele>1661.8</ele>
        <time>2022-01-13T05:41:45Z</time>
      </trkpt>
      <trkpt lat="45.69365" lon="6.26007">
        <ele>1661.8</ele>
        <time>2022-01-13T05:41:46Z</time>
      </trkpt>
      <trkpt lat="45.69365" lon="6.26006">
        <ele>1661.8</ele>
        <time>2022-01-13T05:41:47Z</time>
      </trkpt>
      <trkpt lat="45.69364" lon="6.26006">
        <ele>1663.8</ele>
        <time>2022-01-13T05:41:48Z</time>
      </trkpt>
      <trkpt lat="45.69363" lon="6.26006">
        <ele>1663.8</ele>
        <time>2022-01-13T05:41:49Z</time>
      </trkpt>
      <trkpt lat="45.69362" lon="6.26005">
        <ele>1663.8</ele>
        <time>2022-01-13T05:41:50Z</time>
      </trkpt>
      <trkpt lat="45.69361" lon="6.26004">
        <ele>1663.8</ele>
        <time>2022-01-13T05:41:51Z</time>
      </trkpt>
      <trkpt lat="45.6936" lon="6.26004">
        <ele>1663.8</ele>
        <time>2022-01-13T05:41:52Z</time>
      </trkpt>
      <trkpt lat="45.69359" lon="6.26003">
        <ele>1663.8</ele>
        <time>2022-01-13T05:41:53Z</time>
      </trkpt>
      <trkpt lat="45.69358" lon="6.26003">
        <ele>1663.8</ele>
        <time>2022-01-13T05:41:54Z</time>
      </trkpt>
      <trkpt lat="45.69357" lon="6.26002">
        <ele>1663.8</ele>
        <time>2022-01-13T05:41:55Z</time>
      </trkpt>
      <trkpt lat="45.69356" lon="6.26002">
        <ele>1663.8</ele>
        <time>2022-01-13T05:41:56Z</time>
      </trkpt>
      <trkpt lat="45.69355" lon="6.26002">
        <ele>1663.8</ele>
        <time>2022-01-13T05:41:57Z</time>
      </trkpt>
      <trkpt lat="45.69354" lon="6.26001">
        <ele>1664.8</ele>
        <time>2022-01-13T05:41:58Z</time>
      </trkpt>
      <trkpt lat="45.69353" lon="6.26001">
        <ele>1664.8</ele>
        <time>2022-01-13T05:41:59Z</time>
      </trkpt>
      <trkpt lat="45.69352" lon="6.26">
        <ele>1664.8</ele>
        <time>2022-01-13T05:42:00Z</time>
      </trkpt>
      <trkpt lat="45.69351" lon="6.25999">
        <ele>1664.8</ele>
        <time>2022-01-13T05:42:01Z</time>
      </trkpt>
      <trkpt lat="45.6935" lon="6.25998">
        <ele>1666.8</ele>
        <time>2022-01-13T05:42:02Z</time>
      </trkpt>
      <trkpt lat="45.69349" lon="6.25997">
        <ele>1666.8</ele>
        <time>2022-01-13T05:42:03Z</time>
      </trkpt>
      <trkpt lat="45.69348" lon="6.25997">
        <ele>1666.8</ele>
        <time>2022-01-13T05:42:04Z</time>
      </trkpt>
      <trkpt lat="45.69347" lon="6.25996">
        <ele>1666.8</ele>
        <time>2022-01-13T05:42:05Z</time>
      </trkpt>
      <trkpt lat="45.69346" lon="6.25996">
        <ele>1666.8</ele>
        <time>2022-01-13T05:42:06Z</time>
      </trkpt>
      <trkpt lat="45.69345" lon="6.25995">
        <ele>1666.8</ele>
        <time>2022-01-13T05:42:07Z</time>
      </trkpt>
      <trkpt lat="45.69343" lon="6.25995">
        <ele>1666.8</ele>
        <time>2022-01-13T05:42:08Z</time>
      </trkpt>
      <trkpt lat="45.69342" lon="6.25994">
        <ele>1666.8</ele>
        <time>2022-01-13T05:42:09Z</time>
      </trkpt>
      <trkpt lat="45.69341" lon="6.25994">
        <ele>1667.7</ele>
        <time>2022-01-13T05:42:10Z</time>
      </trkpt>
      <trkpt lat="45.6934" lon="6.25993">
        <ele>1667.7</ele>
        <time>2022-01-13T05:42:11Z</time>
      </trkpt>
      <trkpt lat="45.69339" lon="6.25992">
        <ele>1667.7</ele>
        <time>2022-01-13T05:42:12Z</time>
      </trkpt>
      <trkpt lat="45.69339" lon="6.25991">
        <ele>1667.7</ele>
        <time>2022-01-13T05:42:13Z</time>
      </trkpt>
      <trkpt lat="45.69338" lon="6.25991">
        <ele>1667.7</ele>
        <time>2022-01-13T05:42:14Z</time>
      </trkpt>
      <trkpt lat="45.69337" lon="6.2599">
        <ele>1667.7</ele>
        <time>2022-01-13T05:42:15Z</time>
      </trkpt>
      <trkpt lat="45.69335" lon="6.2599">
        <ele>1668.8</ele>
        <time>2022-01-13T05:42:16Z</time>
      </trkpt>
      <trkpt lat="45.69334" lon="6.25989">
        <ele>1668.8</ele>
        <time>2022-01-13T05:42:17Z</time>
      </trkpt>
      <trkpt lat="45.69333" lon="6.25989">
        <ele>1668.8</ele>
        <time>2022-01-13T05:42:18Z</time>
      </trkpt>
      <trkpt lat="45.69332" lon="6.25989">
        <ele>1668.8</ele>
        <time>2022-01-13T05:42:19Z</time>
      </trkpt>
      <trkpt lat="45.69331" lon="6.25988">
        <ele>1669.7</ele>
        <time>2022-01-13T05:42:20Z</time>
      </trkpt>
      <trkpt lat="45.69331" lon="6.25987">
        <ele>1669.7</ele>
        <time>2022-01-13T05:42:21Z</time>
      </trkpt>
      <trkpt lat="45.6933" lon="6.25987">
        <ele>1669.7</ele>
        <time>2022-01-13T05:42:22Z</time>
      </trkpt>
      <trkpt lat="45.69329" lon="6.25986">
        <ele>1669.7</ele>
        <time>2022-01-13T05:42:23Z</time>
      </trkpt>
      <trkpt lat="45.69329" lon="6.25986">
        <ele>1670.8</ele>
        <time>2022-01-13T05:42:24Z</time>
      </trkpt>
      <trkpt lat="45.69328" lon="6.25985">
        <ele>1670.8</ele>
        <time>2022-01-13T05:42:25Z</time>
      </trkpt>
      <trkpt lat="45.69327" lon="6.25984">
        <ele>1670.8</ele>
        <time>2022-01-13T05:42:26Z</time>
      </trkpt>
      <trkpt lat="45.69326" lon="6.25984">
        <ele>1670.8</ele>
        <time>2022-01-13T05:42:27Z</time>
      </trkpt>
      <trkpt lat="45.69325" lon="6.25983">
        <ele>1671.8</ele>
        <time>2022-01-13T05:42:28Z</time>
      </trkpt>
      <trkpt lat="45.69325" lon="6.25983">
        <ele>1671.8</ele>
        <time>2022-01-13T05:42:29Z</time>
      </trkpt>
      <trkpt lat="45.69324" lon="6.25982">
        <ele>1671.8</ele>
        <time>2022-01-13T05:42:30Z</time>
      </trkpt>
      <trkpt lat="45.69323" lon="6.25981">
        <ele>1671.8</ele>
        <time>2022-01-13T05:42:31Z</time>
      </trkpt>
      <trkpt lat="45.69323" lon="6.2598">
        <ele>1671.8</ele>
        <time>2022-01-13T05:42:32Z</time>
      </trkpt>
      <trkpt lat="45.69322" lon="6.2598">
        <ele>1671.8</ele>
        <time>2022-01-13T05:42:33Z</time>
      </trkpt>
      <trkpt lat="45.69321" lon="6.25979">
        <ele>1671.8</ele>
        <time>2022-01-13T05:42:34Z</time>
      </trkpt>
      <trkpt lat="45.6932" lon="6.25978">
        <ele>1671.8</ele>
        <time>2022-01-13T05:42:35Z</time>
      </trkpt>
      <trkpt lat="45.6932" lon="6.25977">
        <ele>1674.7</ele>
        <time>2022-01-13T05:42:36Z</time>
      </trkpt>
      <trkpt lat="45.69319" lon="6.25977">
        <ele>1674.7</ele>
        <time>2022-01-13T05:42:37Z</time>
      </trkpt>
      <trkpt lat="45.69319" lon="6.25976">
        <ele>1674.7</ele>
        <time>2022-01-13T05:42:38Z</time>
      </trkpt>
      <trkpt lat="45.69318" lon="6.25976">
        <ele>1674.7</ele>
        <time>2022-01-13T05:42:39Z</time>
      </trkpt>
      <trkpt lat="45.69317" lon="6.25975">
        <ele>1674.7</ele>
        <time>2022-01-13T05:42:40Z</time>
      </trkpt>
      <trkpt lat="45.69316" lon="6.25975">
        <ele>1674.7</ele>
        <time>2022-01-13T05:42:41Z</time>
      </trkpt>
      <trkpt lat="45.69315" lon="6.25974">
        <ele>1674.7</ele>
        <time>2022-01-13T05:42:42Z</time>
      </trkpt>
      <trkpt lat="45.69315" lon="6.25974">
        <ele>1674.7</ele>
        <time>2022-01-13T05:42:43Z</time>
      </trkpt>
      <trkpt lat="45.69314" lon="6.25974">
        <ele>1675.8</ele>
        <time>2022-01-13T05:42:44Z</time>
      </trkpt>
      <trkpt lat="45.69314" lon="6.25973">
        <ele>1675.8</ele>
        <time>2022-01-13T05:42:45Z</time>
      </trkpt>
      <trkpt lat="45.69313" lon="6.25973">
        <ele>1675.8</ele>
        <time>2022-01-13T05:42:46Z</time>
      </trkpt>
      <trkpt lat="45.69312" lon="6.25973">
        <ele>1675.8</ele>
        <time>2022-01-13T05:42:47Z</time>
      </trkpt>
      <trkpt lat="45.69311" lon="6.25972">
        <ele>1675.8</ele>
        <time>2022-01-13T05:42:48Z</time>
      </trkpt>
      <trkpt lat="45.6931" lon="6.25972">
        <ele>1675.8</ele>
        <time>2022-01-13T05:42:49Z</time>
      </trkpt>
      <trkpt lat="45.69309" lon="6.25971">
        <ele>1677.8</ele>
        <time>2022-01-13T05:42:50Z</time>
      </trkpt>
      <trkpt lat="45.69309" lon="6.25971">
        <ele>1677.8</ele>
        <time>2022-01-13T05:42:51Z</time>
      </trkpt>
      <trkpt lat="45.69308" lon="6.2597">
        <ele>1677.8</ele>
        <time>2022-01-13T05:42:52Z</time>
      </trkpt>
      <trkpt lat="45.69307" lon="6.2597">
        <ele>1677.8</ele>
        <time>2022-01-13T05:42:53Z</time>
      </trkpt>
      <trkpt lat="45.69306" lon="6.25969">
        <ele>1678.7</ele>
        <time>2022-01-13T05:42:54Z</time>
      </trkpt>
      <trkpt lat="45.69306" lon="6.25969">
        <ele>1678.7</ele>
        <time>2022-01-13T05:42:55Z</time>
      </trkpt>
      <trkpt lat="45.69305" lon="6.25968">
        <ele>1678.7</ele>
        <time>2022-01-13T05:42:56Z</time>
      </trkpt>
      <trkpt lat="45.69304" lon="6.25968">
        <ele>1678.7</ele>
        <time>2022-01-13T05:42:57Z</time>
      </trkpt>
      <trkpt lat="45.69304" lon="6.25967">
        <ele>1678.7</ele>
        <time>2022-01-13T05:42:58Z</time>
      </trkpt>
      <trkpt lat="45.69303" lon="6.25967">
        <ele>1678.7</ele>
        <time>2022-01-13T05:42:59Z</time>
      </trkpt>
      <trkpt lat="45.69302" lon="6.25966">
        <ele>1680.8</ele>
        <time>2022-01-13T05:43:00Z</time>
      </trkpt>
      <trkpt lat="45.69302" lon="6.25966">
        <ele>1680.8</ele>
        <time>2022-01-13T05:43:01Z</time>
      </trkpt>
      <trkpt lat="45.69301" lon="6.25965">
        <ele>1680.8</ele>
        <time>2022-01-13T05:43:02Z</time>
      </trkpt>
      <trkpt lat="45.693" lon="6.25965">
        <ele>1680.8</ele>
        <time>2022-01-13T05:43:03Z</time>
      </trkpt>
      <trkpt lat="45.693" lon="6.25964">
        <ele>1680.8</ele>
        <time>2022-01-13T05:43:04Z</time>
      </trkpt>
      <trkpt lat="45.69299" lon="6.25964">
        <ele>1680.8</ele>
        <time>2022-01-13T05:43:05Z</time>
      </trkpt>
      <trkpt lat="45.69298" lon="6.25964">
        <ele>1680.8</ele>
        <time>2022-01-13T05:43:06Z</time>
      </trkpt>
      <trkpt lat="45.69298" lon="6.25963">
        <ele>1680.8</ele>
        <time>2022-01-13T05:43:07Z</time>
      </trkpt>
      <trkpt lat="45.69297" lon="6.25963">
        <ele>1681.8</ele>
        <time>2022-01-13T05:43:08Z</time>
      </trkpt>
      <trkpt lat="45.69297" lon="6.25962">
        <ele>1681.8</ele>
        <time>2022-01-13T05:43:09Z</time>
      </trkpt>
      <trkpt lat="45.69296" lon="6.25962">
        <ele>1681.8</ele>
        <time>2022-01-13T05:43:10Z</time>
      </trkpt>
      <trkpt lat="45.69295" lon="6.25961">
        <ele>1681.8</ele>
        <time>2022-01-13T05:43:11Z</time>
      </trkpt>
      <trkpt lat="45.69294" lon="6.25961">
        <ele>1682.8</ele>
        <time>2022-01-13T05:43:12Z</time>
      </trkpt>
      <trkpt lat="45.69295" lon="6.25961">
        <ele>1682.8</ele>
        <time>2022-01-13T05:43:13Z</time>
      </trkpt>
      <trkpt lat="45.69295" lon="6.25961">
        <ele>1682.8</ele>
        <time>2022-01-13T05:43:14Z</time>
      </trkpt>
      <trkpt lat="45.69295" lon="6.25961">
        <ele>1682.8</ele>
        <time>2022-01-13T05:43:15Z</time>
      </trkpt>
      <trkpt lat="45.69295" lon="6.25962">
        <ele>1682.8</ele>
        <time>2022-01-13T05:43:16Z</time>
      </trkpt>
      <trkpt lat="45.69295" lon="6.25963">
        <ele>1682.8</ele>
        <time>2022-01-13T05:43:17Z</time>
      </trkpt>
      <trkpt lat="45.69295" lon="6.25964">
        <ele>1683.7</ele>
        <time>2022-01-13T05:43:18Z</time>
      </trkpt>
      <trkpt lat="45.69295" lon="6.25965">
        <ele>1683.7</ele>
        <time>2022-01-13T05:43:19Z</time>
      </trkpt>
      <trkpt lat="45.69295" lon="6.25966">
        <ele>1683.7</ele>
        <time>2022-01-13T05:43:20Z</time>
      </trkpt>
      <trkpt lat="45.69296" lon="6.25967">
        <ele>1683.7</ele>
        <time>2022-01-13T05:43:21Z</time>
      </trkpt>
      <trkpt lat="45.69296" lon="6.25968">
        <ele>1684.8</ele>
        <time>2022-01-13T05:43:22Z</time>
      </trkpt>
      <trkpt lat="45.69296" lon="6.25969">
        <ele>1684.8</ele>
        <time>2022-01-13T05:43:23Z</time>
      </trkpt>
      <trkpt lat="45.69296" lon="6.2597">
        <ele>1684.8</ele>
        <time>2022-01-13T05:43:24Z</time>
      </trkpt>
      <trkpt lat="45.69296" lon="6.25972">
        <ele>1684.8</ele>
        <time>2022-01-13T05:43:25Z</time>
      </trkpt>
      <trkpt lat="45.69297" lon="6.25973">
        <ele>1684.8</ele>
        <time>2022-01-13T05:43:26Z</time>
      </trkpt>
      <trkpt lat="45.69297" lon="6.25974">
        <ele>1684.8</ele>
        <time>2022-01-13T05:43:27Z</time>
      </trkpt>
      <trkpt lat="45.69297" lon="6.25975">
        <ele>1686.8</ele>
        <time>2022-01-13T05:43:28Z</time>
      </trkpt>
      <trkpt lat="45.69297" lon="6.25977">
        <ele>1686.8</ele>
        <time>2022-01-13T05:43:29Z</time>
      </trkpt>
      <trkpt lat="45.69297" lon="6.25978">
        <ele>1686.8</ele>
        <time>2022-01-13T05:43:30Z</time>
      </trkpt>
      <trkpt lat="45.69297" lon="6.25979">
        <ele>1686.8</ele>
        <time>2022-01-13T05:43:31Z</time>
      </trkpt>
      <trkpt lat="45.69297" lon="6.2598">
        <ele>1686.8</ele>
        <time>2022-01-13T05:43:32Z</time>
      </trkpt>
      <trkpt lat="45.69297" lon="6.25981">
        <ele>1686.8</ele>
        <time>2022-01-13T05:43:33Z</time>
      </trkpt>
      <trkpt lat="45.69297" lon="6.25982">
        <ele>1687.9</ele>
        <time>2022-01-13T05:43:34Z</time>
      </trkpt>
      <trkpt lat="45.69297" lon="6.25984">
        <ele>1687.9</ele>
        <time>2022-01-13T05:43:35Z</time>
      </trkpt>
      <trkpt lat="45.69297" lon="6.25985">
        <ele>1687.9</ele>
        <time>2022-01-13T05:43:36Z</time>
      </trkpt>
      <trkpt lat="45.69296" lon="6.25985">
        <ele>1687.9</ele>
        <time>2022-01-13T05:43:37Z</time>
      </trkpt>
      <trkpt lat="45.69296" lon="6.25986">
        <ele>1687.9</ele>
        <time>2022-01-13T05:43:38Z</time>
      </trkpt>
      <trkpt lat="45.69296" lon="6.25987">
        <ele>1687.9</ele>
        <time>2022-01-13T05:43:39Z</time>
      </trkpt>
      <trkpt lat="45.69296" lon="6.25988">
        <ele>1688.8</ele>
        <time>2022-01-13T05:43:40Z</time>
      </trkpt>
      <trkpt lat="45.69296" lon="6.25989">
        <ele>1688.8</ele>
        <time>2022-01-13T05:43:41Z</time>
      </trkpt>
      <trkpt lat="45.69296" lon="6.25991">
        <ele>1689.8</ele>
        <time>2022-01-13T05:43:42Z</time>
      </trkpt>
      <trkpt lat="45.69296" lon="6.25992">
        <ele>1689.8</ele>
        <time>2022-01-13T05:43:43Z</time>
      </trkpt>
      <trkpt lat="45.69296" lon="6.25993">
        <ele>1689.8</ele>
        <time>2022-01-13T05:43:44Z</time>
      </trkpt>
      <trkpt lat="45.69296" lon="6.25995">
        <ele>1689.8</ele>
        <time>2022-01-13T05:43:45Z</time>
      </trkpt>
      <trkpt lat="45.69296" lon="6.25995">
        <ele>1689.8</ele>
        <time>2022-01-13T05:43:46Z</time>
      </trkpt>
      <trkpt lat="45.69296" lon="6.25997">
        <ele>1689.8</ele>
        <time>2022-01-13T05:43:47Z</time>
      </trkpt>
      <trkpt lat="45.69296" lon="6.25998">
        <ele>1690.7</ele>
        <time>2022-01-13T05:43:48Z</time>
      </trkpt>
      <trkpt lat="45.69296" lon="6.25999">
        <ele>1690.7</ele>
        <time>2022-01-13T05:43:49Z</time>
      </trkpt>
      <trkpt lat="45.69296" lon="6.26001">
        <ele>1690.7</ele>
        <time>2022-01-13T05:43:50Z</time>
      </trkpt>
      <trkpt lat="45.69297" lon="6.26002">
        <ele>1690.7</ele>
        <time>2022-01-13T05:43:51Z</time>
      </trkpt>
      <trkpt lat="45.69297" lon="6.26003">
        <ele>1691.8</ele>
        <time>2022-01-13T05:43:52Z</time>
      </trkpt>
      <trkpt lat="45.69296" lon="6.26004">
        <ele>1691.8</ele>
        <time>2022-01-13T05:43:53Z</time>
      </trkpt>
      <trkpt lat="45.69296" lon="6.26006">
        <ele>1692.7</ele>
        <time>2022-01-13T05:43:54Z</time>
      </trkpt>
      <trkpt lat="45.69296" lon="6.26007">
        <ele>1692.7</ele>
        <time>2022-01-13T05:43:55Z</time>
      </trkpt>
      <trkpt lat="45.69296" lon="6.26008">
        <ele>1692.7</ele>
        <time>2022-01-13T05:43:56Z</time>
      </trkpt>
      <trkpt lat="45.69296" lon="6.2601">
        <ele>1692.7</ele>
        <time>2022-01-13T05:43:57Z</time>
      </trkpt>
      <trkpt lat="45.69297" lon="6.26011">
        <ele>1693.8</ele>
        <time>2022-01-13T05:43:58Z</time>
      </trkpt>
      <trkpt lat="45.69297" lon="6.26012">
        <ele>1693.8</ele>
        <time>2022-01-13T05:43:59Z</time>
      </trkpt>
      <trkpt lat="45.69297" lon="6.26013">
        <ele>1693.8</ele>
        <time>2022-01-13T05:44:00Z</time>
      </trkpt>
      <trkpt lat="45.69297" lon="6.26015">
        <ele>1693.8</ele>
        <time>2022-01-13T05:44:01Z</time>
      </trkpt>
      <trkpt lat="45.69297" lon="6.26016">
        <ele>1693.8</ele>
        <time>2022-01-13T05:44:02Z</time>
      </trkpt>
      <trkpt lat="45.69298" lon="6.26018">
        <ele>1693.8</ele>
        <time>2022-01-13T05:44:03Z</time>
      </trkpt>
      <trkpt lat="45.69298" lon="6.26019">
        <ele>1693.8</ele>
        <time>2022-01-13T05:44:04Z</time>
      </trkpt>
      <trkpt lat="45.69299" lon="6.26019">
        <ele>1693.8</ele>
        <time>2022-01-13T05:44:05Z</time>
      </trkpt>
      <trkpt lat="45.69299" lon="6.26021">
        <ele>1693.8</ele>
        <time>2022-01-13T05:44:06Z</time>
      </trkpt>
      <trkpt lat="45.69299" lon="6.26022">
        <ele>1693.8</ele>
        <time>2022-01-13T05:44:07Z</time>
      </trkpt>
      <trkpt lat="45.69299" lon="6.26023">
        <ele>1694.7</ele>
        <time>2022-01-13T05:44:08Z</time>
      </trkpt>
      <trkpt lat="45.69299" lon="6.26024">
        <ele>1694.7</ele>
        <time>2022-01-13T05:44:09Z</time>
      </trkpt>
      <trkpt lat="45.69299" lon="6.26025">
        <ele>1695.8</ele>
        <time>2022-01-13T05:44:10Z</time>
      </trkpt>
      <trkpt lat="45.69299" lon="6.26027">
        <ele>1695.8</ele>
        <time>2022-01-13T05:44:11Z</time>
      </trkpt>
      <trkpt lat="45.69299" lon="6.26028">
        <ele>1696.8</ele>
        <time>2022-01-13T05:44:12Z</time>
      </trkpt>
      <trkpt lat="45.693" lon="6.26029">
        <ele>1696.8</ele>
        <time>2022-01-13T05:44:13Z</time>
      </trkpt>
      <trkpt lat="45.693" lon="6.2603">
        <ele>1696.8</ele>
        <time>2022-01-13T05:44:14Z</time>
      </trkpt>
      <trkpt lat="45.693" lon="6.26031">
        <ele>1696.8</ele>
        <time>2022-01-13T05:44:15Z</time>
      </trkpt>
      <trkpt lat="45.693" lon="6.26032">
        <ele>1697.8</ele>
        <time>2022-01-13T05:44:16Z</time>
      </trkpt>
      <trkpt lat="45.693" lon="6.26034">
        <ele>1697.8</ele>
        <time>2022-01-13T05:44:17Z</time>
      </trkpt>
      <trkpt lat="45.69301" lon="6.26035">
        <ele>1697.8</ele>
        <time>2022-01-13T05:44:18Z</time>
      </trkpt>
      <trkpt lat="45.69301" lon="6.26036">
        <ele>1697.8</ele>
        <time>2022-01-13T05:44:19Z</time>
      </trkpt>
      <trkpt lat="45.69301" lon="6.26037">
        <ele>1697.8</ele>
        <time>2022-01-13T05:44:20Z</time>
      </trkpt>
      <trkpt lat="45.69301" lon="6.26038">
        <ele>1697.8</ele>
        <time>2022-01-13T05:44:21Z</time>
      </trkpt>
      <trkpt lat="45.69301" lon="6.2604">
        <ele>1697.8</ele>
        <time>2022-01-13T05:44:22Z</time>
      </trkpt>
      <trkpt lat="45.69302" lon="6.26041">
        <ele>1697.8</ele>
        <time>2022-01-13T05:44:23Z</time>
      </trkpt>
      <trkpt lat="45.69302" lon="6.26042">
        <ele>1697.8</ele>
        <time>2022-01-13T05:44:24Z</time>
      </trkpt>
      <trkpt lat="45.69302" lon="6.26042">
        <ele>1697.8</ele>
        <time>2022-01-13T05:44:25Z</time>
      </trkpt>
      <trkpt lat="45.69303" lon="6.26044">
        <ele>1697.8</ele>
        <time>2022-01-13T05:44:26Z</time>
      </trkpt>
      <trkpt lat="45.69303" lon="6.26045">
        <ele>1697.8</ele>
        <time>2022-01-13T05:44:27Z</time>
      </trkpt>
      <trkpt lat="45.69303" lon="6.26046">
        <ele>1699.7</ele>
        <time>2022-01-13T05:44:28Z</time>
      </trkpt>
      <trkpt lat="45.69303" lon="6.26047">
        <ele>1699.7</ele>
        <time>2022-01-13T05:44:29Z</time>
      </trkpt>
      <trkpt lat="45.69304" lon="6.26048">
        <ele>1699.7</ele>
        <time>2022-01-13T05:44:30Z</time>
      </trkpt>
      <trkpt lat="45.69303" lon="6.26048">
        <ele>1699.7</ele>
        <time>2022-01-13T05:44:31Z</time>
      </trkpt>
      <trkpt lat="45.69303" lon="6.26048">
        <ele>1700.8</ele>
        <time>2022-01-13T05:44:32Z</time>
      </trkpt>
      <trkpt lat="45.69302" lon="6.26048">
        <ele>1700.8</ele>
        <time>2022-01-13T05:44:33Z</time>
      </trkpt>
      <trkpt lat="45.69302" lon="6.26048">
        <ele>1700.8</ele>
        <time>2022-01-13T05:44:34Z</time>
      </trkpt>
      <trkpt lat="45.69301" lon="6.26047">
        <ele>1700.8</ele>
        <time>2022-01-13T05:44:35Z</time>
      </trkpt>
      <trkpt lat="45.693" lon="6.26047">
        <ele>1700.8</ele>
        <time>2022-01-13T05:44:36Z</time>
      </trkpt>
      <trkpt lat="45.69299" lon="6.26047">
        <ele>1700.8</ele>
        <time>2022-01-13T05:44:37Z</time>
      </trkpt>
      <trkpt lat="45.69298" lon="6.26046">
        <ele>1700.8</ele>
        <time>2022-01-13T05:44:38Z</time>
      </trkpt>
      <trkpt lat="45.69297" lon="6.26045">
        <ele>1700.8</ele>
        <time>2022-01-13T05:44:39Z</time>
      </trkpt>
      <trkpt lat="45.69297" lon="6.26044">
        <ele>1700.8</ele>
        <time>2022-01-13T05:44:40Z</time>
      </trkpt>
      <trkpt lat="45.69296" lon="6.26043">
        <ele>1700.8</ele>
        <time>2022-01-13T05:44:41Z</time>
      </trkpt>
      <trkpt lat="45.69295" lon="6.26042">
        <ele>1701.7</ele>
        <time>2022-01-13T05:44:42Z</time>
      </trkpt>
      <trkpt lat="45.69294" lon="6.26041">
        <ele>1701.7</ele>
        <time>2022-01-13T05:44:43Z</time>
      </trkpt>
      <trkpt lat="45.69293" lon="6.2604">
        <ele>1701.7</ele>
        <time>2022-01-13T05:44:44Z</time>
      </trkpt>
      <trkpt lat="45.69292" lon="6.26039">
        <ele>1701.7</ele>
        <time>2022-01-13T05:44:45Z</time>
      </trkpt>
      <trkpt lat="45.69291" lon="6.26038">
        <ele>1701.7</ele>
        <time>2022-01-13T05:44:46Z</time>
      </trkpt>
      <trkpt lat="45.69291" lon="6.26037">
        <ele>1701.7</ele>
        <time>2022-01-13T05:44:47Z</time>
      </trkpt>
      <trkpt lat="45.6929" lon="6.26037">
        <ele>1701.7</ele>
        <time>2022-01-13T05:44:48Z</time>
      </trkpt>
      <trkpt lat="45.69289" lon="6.26036">
        <ele>1701.7</ele>
        <time>2022-01-13T05:44:49Z</time>
      </trkpt>
      <trkpt lat="45.69288" lon="6.26035">
        <ele>1703.9</ele>
        <time>2022-01-13T05:44:50Z</time>
      </trkpt>
      <trkpt lat="45.69287" lon="6.26035">
        <ele>1703.9</ele>
        <time>2022-01-13T05:44:51Z</time>
      </trkpt>
      <trkpt lat="45.69286" lon="6.26034">
        <ele>1703.9</ele>
        <time>2022-01-13T05:44:52Z</time>
      </trkpt>
      <trkpt lat="45.69285" lon="6.26033">
        <ele>1703.9</ele>
        <time>2022-01-13T05:44:53Z</time>
      </trkpt>
      <trkpt lat="45.69284" lon="6.26033">
        <ele>1704.8</ele>
        <time>2022-01-13T05:44:54Z</time>
      </trkpt>
      <trkpt lat="45.69283" lon="6.26032">
        <ele>1704.8</ele>
        <time>2022-01-13T05:44:55Z</time>
      </trkpt>
      <trkpt lat="45.69282" lon="6.26031">
        <ele>1705.8</ele>
        <time>2022-01-13T05:44:56Z</time>
      </trkpt>
      <trkpt lat="45.69281" lon="6.2603">
        <ele>1705.8</ele>
        <time>2022-01-13T05:44:57Z</time>
      </trkpt>
      <trkpt lat="45.69281" lon="6.2603">
        <ele>1705.8</ele>
        <time>2022-01-13T05:44:58Z</time>
      </trkpt>
      <trkpt lat="45.69279" lon="6.26029">
        <ele>1705.8</ele>
        <time>2022-01-13T05:44:59Z</time>
      </trkpt>
      <trkpt lat="45.69279" lon="6.26028">
        <ele>1705.8</ele>
        <time>2022-01-13T05:45:00Z</time>
      </trkpt>
      <trkpt lat="45.69278" lon="6.26027">
        <ele>1705.8</ele>
        <time>2022-01-13T05:45:01Z</time>
      </trkpt>
      <trkpt lat="45.69277" lon="6.26026">
        <ele>1705.8</ele>
        <time>2022-01-13T05:45:02Z</time>
      </trkpt>
      <trkpt lat="45.69276" lon="6.26025">
        <ele>1705.8</ele>
        <time>2022-01-13T05:45:03Z</time>
      </trkpt>
      <trkpt lat="45.69275" lon="6.26024">
        <ele>1706.7</ele>
        <time>2022-01-13T05:45:04Z</time>
      </trkpt>
      <trkpt lat="45.69274" lon="6.26023">
        <ele>1706.7</ele>
        <time>2022-01-13T05:45:05Z</time>
      </trkpt>
      <trkpt lat="45.69273" lon="6.26022">
        <ele>1706.7</ele>
        <time>2022-01-13T05:45:06Z</time>
      </trkpt>
      <trkpt lat="45.69273" lon="6.26021">
        <ele>1706.7</ele>
        <time>2022-01-13T05:45:07Z</time>
      </trkpt>
      <trkpt lat="45.69272" lon="6.2602">
        <ele>1707.8</ele>
        <time>2022-01-13T05:45:08Z</time>
      </trkpt>
      <trkpt lat="45.69271" lon="6.26019">
        <ele>1707.8</ele>
        <time>2022-01-13T05:45:09Z</time>
      </trkpt>
      <trkpt lat="45.69271" lon="6.26019">
        <ele>1707.8</ele>
        <time>2022-01-13T05:45:10Z</time>
      </trkpt>
      <trkpt lat="45.69269" lon="6.26018">
        <ele>1707.8</ele>
        <time>2022-01-13T05:45:11Z</time>
      </trkpt>
      <trkpt lat="45.69269" lon="6.26017">
        <ele>1707.8</ele>
        <time>2022-01-13T05:45:12Z</time>
      </trkpt>
      <trkpt lat="45.69268" lon="6.26017">
        <ele>1707.8</ele>
        <time>2022-01-13T05:45:13Z</time>
      </trkpt>
      <trkpt lat="45.69267" lon="6.26016">
        <ele>1708.7</ele>
        <time>2022-01-13T05:45:14Z</time>
      </trkpt>
      <trkpt lat="45.69266" lon="6.26016">
        <ele>1708.7</ele>
        <time>2022-01-13T05:45:15Z</time>
      </trkpt>
      <trkpt lat="45.69265" lon="6.26015">
        <ele>1708.7</ele>
        <time>2022-01-13T05:45:16Z</time>
      </trkpt>
      <trkpt lat="45.69265" lon="6.26014">
        <ele>1708.7</ele>
        <time>2022-01-13T05:45:17Z</time>
      </trkpt>
      <trkpt lat="45.69264" lon="6.26013">
        <ele>1708.7</ele>
        <time>2022-01-13T05:45:18Z</time>
      </trkpt>
      <trkpt lat="45.69262" lon="6.26013">
        <ele>1708.7</ele>
        <time>2022-01-13T05:45:19Z</time>
      </trkpt>
      <trkpt lat="45.69262" lon="6.26012">
        <ele>1708.7</ele>
        <time>2022-01-13T05:45:20Z</time>
      </trkpt>
      <trkpt lat="45.69261" lon="6.26011">
        <ele>1708.7</ele>
        <time>2022-01-13T05:45:21Z</time>
      </trkpt>
      <trkpt lat="45.6926" lon="6.26011">
        <ele>1709.8</ele>
        <time>2022-01-13T05:45:22Z</time>
      </trkpt>
      <trkpt lat="45.6926" lon="6.26011">
        <ele>1709.8</ele>
        <time>2022-01-13T05:45:23Z</time>
      </trkpt>
      <trkpt lat="45.69259" lon="6.26009">
        <ele>1709.8</ele>
        <time>2022-01-13T05:45:24Z</time>
      </trkpt>
      <trkpt lat="45.69258" lon="6.26009">
        <ele>1709.8</ele>
        <time>2022-01-13T05:45:25Z</time>
      </trkpt>
      <trkpt lat="45.69257" lon="6.26008">
        <ele>1709.8</ele>
        <time>2022-01-13T05:45:26Z</time>
      </trkpt>
      <trkpt lat="45.69257" lon="6.26008">
        <ele>1709.8</ele>
        <time>2022-01-13T05:45:27Z</time>
      </trkpt>
      <trkpt lat="45.69256" lon="6.26007">
        <ele>1709.8</ele>
        <time>2022-01-13T05:45:28Z</time>
      </trkpt>
      <trkpt lat="45.69255" lon="6.26007">
        <ele>1709.8</ele>
        <time>2022-01-13T05:45:29Z</time>
      </trkpt>
      <trkpt lat="45.69253" lon="6.26006">
        <ele>1711.8</ele>
        <time>2022-01-13T05:45:30Z</time>
      </trkpt>
      <trkpt lat="45.69253" lon="6.26006">
        <ele>1711.8</ele>
        <time>2022-01-13T05:45:31Z</time>
      </trkpt>
      <trkpt lat="45.69252" lon="6.26005">
        <ele>1711.8</ele>
        <time>2022-01-13T05:45:32Z</time>
      </trkpt>
      <trkpt lat="45.69251" lon="6.26005">
        <ele>1711.8</ele>
        <time>2022-01-13T05:45:33Z</time>
      </trkpt>
      <trkpt lat="45.6925" lon="6.26004">
        <ele>1711.8</ele>
        <time>2022-01-13T05:45:34Z</time>
      </trkpt>
      <trkpt lat="45.69249" lon="6.26003">
        <ele>1711.8</ele>
        <time>2022-01-13T05:45:35Z</time>
      </trkpt>
      <trkpt lat="45.69249" lon="6.26002">
        <ele>1713.8</ele>
        <time>2022-01-13T05:45:36Z</time>
      </trkpt>
      <trkpt lat="45.69248" lon="6.26001">
        <ele>1713.8</ele>
        <time>2022-01-13T05:45:37Z</time>
      </trkpt>
      <trkpt lat="45.69247" lon="6.26001">
        <ele>1713.8</ele>
        <time>2022-01-13T05:45:38Z</time>
      </trkpt>
      <trkpt lat="45.69246" lon="6.26">
        <ele>1713.8</ele>
        <time>2022-01-13T05:45:39Z</time>
      </trkpt>
      <trkpt lat="45.69245" lon="6.25999">
        <ele>1712.8</ele>
        <time>2022-01-13T05:45:40Z</time>
      </trkpt>
      <trkpt lat="45.69244" lon="6.25998">
        <ele>1712.8</ele>
        <time>2022-01-13T05:45:41Z</time>
      </trkpt>
      <trkpt lat="45.69244" lon="6.25997">
        <ele>1713.8</ele>
        <time>2022-01-13T05:45:42Z</time>
      </trkpt>
      <trkpt lat="45.69244" lon="6.25997">
        <ele>1713.8</ele>
        <time>2022-01-13T05:45:43Z</time>
      </trkpt>
      <trkpt lat="45.69243" lon="6.25996">
        <ele>1714.8</ele>
        <time>2022-01-13T05:45:44Z</time>
      </trkpt>
      <trkpt lat="45.69243" lon="6.25996">
        <ele>1714.8</ele>
        <time>2022-01-13T05:45:45Z</time>
      </trkpt>
      <trkpt lat="45.69243" lon="6.25996">
        <ele>1714.8</ele>
        <time>2022-01-13T05:45:46Z</time>
      </trkpt>
      <trkpt lat="45.69243" lon="6.25996">
        <ele>1714.8</ele>
        <time>2022-01-13T05:45:47Z</time>
      </trkpt>
      <trkpt lat="45.69243" lon="6.25997">
        <ele>1715.7</ele>
        <time>2022-01-13T05:45:48Z</time>
      </trkpt>
      <trkpt lat="45.69243" lon="6.25998">
        <ele>1715.7</ele>
        <time>2022-01-13T05:45:49Z</time>
      </trkpt>
      <trkpt lat="45.69243" lon="6.25999">
        <ele>1715.7</ele>
        <time>2022-01-13T05:45:50Z</time>
      </trkpt>
      <trkpt lat="45.69243" lon="6.26">
        <ele>1715.7</ele>
        <time>2022-01-13T05:45:51Z</time>
      </trkpt>
      <trkpt lat="45.69243" lon="6.26002">
        <ele>1716.8</ele>
        <time>2022-01-13T05:45:52Z</time>
      </trkpt>
      <trkpt lat="45.69243" lon="6.26003">
        <ele>1716.8</ele>
        <time>2022-01-13T05:45:53Z</time>
      </trkpt>
      <trkpt lat="45.69243" lon="6.26004">
        <ele>1716.8</ele>
        <time>2022-01-13T05:45:54Z</time>
      </trkpt>
      <trkpt lat="45.69243" lon="6.26005">
        <ele>1716.8</ele>
        <time>2022-01-13T05:45:55Z</time>
      </trkpt>
      <trkpt lat="45.69242" lon="6.26007">
        <ele>1717.7</ele>
        <time>2022-01-13T05:45:56Z</time>
      </trkpt>
      <trkpt lat="45.69242" lon="6.26008">
        <ele>1717.7</ele>
        <time>2022-01-13T05:45:57Z</time>
      </trkpt>
      <trkpt lat="45.69242" lon="6.26009">
        <ele>1717.7</ele>
        <time>2022-01-13T05:45:58Z</time>
      </trkpt>
      <trkpt lat="45.69242" lon="6.2601">
        <ele>1717.7</ele>
        <time>2022-01-13T05:45:59Z</time>
      </trkpt>
      <trkpt lat="45.69242" lon="6.26012">
        <ele>1717.7</ele>
        <time>2022-01-13T05:46:00Z</time>
      </trkpt>
      <trkpt lat="45.69242" lon="6.26013">
        <ele>1717.7</ele>
        <time>2022-01-13T05:46:01Z</time>
      </trkpt>
      <trkpt lat="45.69242" lon="6.26014">
        <ele>1718.8</ele>
        <time>2022-01-13T05:46:02Z</time>
      </trkpt>
      <trkpt lat="45.69242" lon="6.26015">
        <ele>1718.8</ele>
        <time>2022-01-13T05:46:03Z</time>
      </trkpt>
      <trkpt lat="45.69242" lon="6.26017">
        <ele>1718.8</ele>
        <time>2022-01-13T05:46:04Z</time>
      </trkpt>
      <trkpt lat="45.69242" lon="6.26018">
        <ele>1718.8</ele>
        <time>2022-01-13T05:46:05Z</time>
      </trkpt>
      <trkpt lat="45.69242" lon="6.26019">
        <ele>1718.8</ele>
        <time>2022-01-13T05:46:06Z</time>
      </trkpt>
      <trkpt lat="45.69242" lon="6.26019">
        <ele>1718.8</ele>
        <time>2022-01-13T05:46:07Z</time>
      </trkpt>
      <trkpt lat="45.69241" lon="6.26019">
        <ele>1719.7</ele>
        <time>2022-01-13T05:46:08Z</time>
      </trkpt>
      <trkpt lat="45.69241" lon="6.26018">
        <ele>1719.7</ele>
        <time>2022-01-13T05:46:09Z</time>
      </trkpt>
      <trkpt lat="45.6924" lon="6.26018">
        <ele>1719.7</ele>
        <time>2022-01-13T05:46:10Z</time>
      </trkpt>
      <trkpt lat="45.69239" lon="6.26016">
        <ele>1719.7</ele>
        <time>2022-01-13T05:46:11Z</time>
      </trkpt>
      <trkpt lat="45.69239" lon="6.26015">
        <ele>1720.8</ele>
        <time>2022-01-13T05:46:12Z</time>
      </trkpt>
      <trkpt lat="45.69238" lon="6.26014">
        <ele>1720.8</ele>
        <time>2022-01-13T05:46:13Z</time>
      </trkpt>
      <trkpt lat="45.69237" lon="6.26013">
        <ele>1720.8</ele>
        <time>2022-01-13T05:46:14Z</time>
      </trkpt>
      <trkpt lat="45.69236" lon="6.26012">
        <ele>1720.8</ele>
        <time>2022-01-13T05:46:15Z</time>
      </trkpt>
      <trkpt lat="45.69236" lon="6.26011">
        <ele>1720.8</ele>
        <time>2022-01-13T05:46:16Z</time>
      </trkpt>
      <trkpt lat="45.69235" lon="6.2601">
        <ele>1720.8</ele>
        <time>2022-01-13T05:46:17Z</time>
      </trkpt>
      <trkpt lat="45.69235" lon="6.26009">
        <ele>1721.8</ele>
        <time>2022-01-13T05:46:18Z</time>
      </trkpt>
      <trkpt lat="45.69234" lon="6.26008">
        <ele>1721.8</ele>
        <time>2022-01-13T05:46:19Z</time>
      </trkpt>
      <trkpt lat="45.69233" lon="6.26007">
        <ele>1722.8</ele>
        <time>2022-01-13T05:46:20Z</time>
      </trkpt>
      <trkpt lat="45.69233" lon="6.26006">
        <ele>1722.8</ele>
        <time>2022-01-13T05:46:21Z</time>
      </trkpt>
      <trkpt lat="45.69232" lon="6.26005">
        <ele>1722.8</ele>
        <time>2022-01-13T05:46:22Z</time>
      </trkpt>
      <trkpt lat="45.69231" lon="6.26004">
        <ele>1722.8</ele>
        <time>2022-01-13T05:46:23Z</time>
      </trkpt>
      <trkpt lat="45.6923" lon="6.26003">
        <ele>1723.8</ele>
        <time>2022-01-13T05:46:24Z</time>
      </trkpt>
      <trkpt lat="45.69229" lon="6.26002">
        <ele>1723.8</ele>
        <time>2022-01-13T05:46:25Z</time>
      </trkpt>
      <trkpt lat="45.69229" lon="6.26001">
        <ele>1723.8</ele>
        <time>2022-01-13T05:46:26Z</time>
      </trkpt>
      <trkpt lat="45.69229" lon="6.26">
        <ele>1723.8</ele>
        <time>2022-01-13T05:46:27Z</time>
      </trkpt>
      <trkpt lat="45.69228" lon="6.25999">
        <ele>1723.8</ele>
        <time>2022-01-13T05:46:28Z</time>
      </trkpt>
      <trkpt lat="45.69228" lon="6.25999">
        <ele>1723.8</ele>
        <time>2022-01-13T05:46:29Z</time>
      </trkpt>
      <trkpt lat="45.69228" lon="6.25999">
        <ele>1724.7</ele>
        <time>2022-01-13T05:46:30Z</time>
      </trkpt>
      <trkpt lat="45.69228" lon="6.26">
        <ele>1724.7</ele>
        <time>2022-01-13T05:46:31Z</time>
      </trkpt>
      <trkpt lat="45.69228" lon="6.26">
        <ele>1724.7</ele>
        <time>2022-01-13T05:46:32Z</time>
      </trkpt>
      <trkpt lat="45.69228" lon="6.26001">
        <ele>1724.7</ele>
        <time>2022-01-13T05:46:33Z</time>
      </trkpt>
      <trkpt lat="45.69228" lon="6.26002">
        <ele>1724.7</ele>
        <time>2022-01-13T05:46:34Z</time>
      </trkpt>
      <trkpt lat="45.69228" lon="6.26004">
        <ele>1724.7</ele>
        <time>2022-01-13T05:46:35Z</time>
      </trkpt>
      <trkpt lat="45.69229" lon="6.26004">
        <ele>1724.7</ele>
        <time>2022-01-13T05:46:36Z</time>
      </trkpt>
      <trkpt lat="45.69229" lon="6.26006">
        <ele>1724.7</ele>
        <time>2022-01-13T05:46:37Z</time>
      </trkpt>
      <trkpt lat="45.69229" lon="6.26007">
        <ele>1725.8</ele>
        <time>2022-01-13T05:46:38Z</time>
      </trkpt>
      <trkpt lat="45.69229" lon="6.26008">
        <ele>1725.8</ele>
        <time>2022-01-13T05:46:39Z</time>
      </trkpt>
      <trkpt lat="45.69228" lon="6.2601">
        <ele>1725.8</ele>
        <time>2022-01-13T05:46:40Z</time>
      </trkpt>
      <trkpt lat="45.69228" lon="6.26011">
        <ele>1725.8</ele>
        <time>2022-01-13T05:46:41Z</time>
      </trkpt>
      <trkpt lat="45.69229" lon="6.26013">
        <ele>1725.8</ele>
        <time>2022-01-13T05:46:42Z</time>
      </trkpt>
      <trkpt lat="45.69229" lon="6.26014">
        <ele>1725.8</ele>
        <time>2022-01-13T05:46:43Z</time>
      </trkpt>
      <trkpt lat="45.69229" lon="6.26016">
        <ele>1725.8</ele>
        <time>2022-01-13T05:46:44Z</time>
      </trkpt>
      <trkpt lat="45.69229" lon="6.26017">
        <ele>1725.8</ele>
        <time>2022-01-13T05:46:45Z</time>
      </trkpt>
      <trkpt lat="45.69229" lon="6.26018">
        <ele>1725.8</ele>
        <time>2022-01-13T05:46:46Z</time>
      </trkpt>
      <trkpt lat="45.69228" lon="6.26019">
        <ele>1725.8</ele>
        <time>2022-01-13T05:46:47Z</time>
      </trkpt>
      <trkpt lat="45.69228" lon="6.2602">
        <ele>1727.8</ele>
        <time>2022-01-13T05:46:48Z</time>
      </trkpt>
      <trkpt lat="45.69228" lon="6.26021">
        <ele>1727.8</ele>
        <time>2022-01-13T05:46:49Z</time>
      </trkpt>
      <trkpt lat="45.69228" lon="6.26022">
        <ele>1727.8</ele>
        <time>2022-01-13T05:46:50Z</time>
      </trkpt>
      <trkpt lat="45.69227" lon="6.26024">
        <ele>1727.8</ele>
        <time>2022-01-13T05:46:51Z</time>
      </trkpt>
      <trkpt lat="45.69226" lon="6.26024">
        <ele>1727.8</ele>
        <time>2022-01-13T05:46:52Z</time>
      </trkpt>
      <trkpt lat="45.69226" lon="6.26024">
        <ele>1727.8</ele>
        <time>2022-01-13T05:46:53Z</time>
      </trkpt>
      <trkpt lat="45.69226" lon="6.26023">
        <ele>1727.8</ele>
        <time>2022-01-13T05:46:54Z</time>
      </trkpt>
      <trkpt lat="45.69225" lon="6.26022">
        <ele>1727.8</ele>
        <time>2022-01-13T05:46:55Z</time>
      </trkpt>
      <trkpt lat="45.69225" lon="6.26022">
        <ele>1729.8</ele>
        <time>2022-01-13T05:46:56Z</time>
      </trkpt>
      <trkpt lat="45.69224" lon="6.26021">
        <ele>1729.8</ele>
        <time>2022-01-13T05:46:57Z</time>
      </trkpt>
      <trkpt lat="45.69223" lon="6.2602">
        <ele>1729.8</ele>
        <time>2022-01-13T05:46:58Z</time>
      </trkpt>
      <trkpt lat="45.69223" lon="6.26019">
        <ele>1729.8</ele>
        <time>2022-01-13T05:46:59Z</time>
      </trkpt>
      <trkpt lat="45.69222" lon="6.26018">
        <ele>1730.8</ele>
        <time>2022-01-13T05:47:00Z</time>
      </trkpt>
      <trkpt lat="45.69221" lon="6.26017">
        <ele>1730.8</ele>
        <time>2022-01-13T05:47:01Z</time>
      </trkpt>
      <trkpt lat="45.69221" lon="6.26015">
        <ele>1731.7</ele>
        <time>2022-01-13T05:47:02Z</time>
      </trkpt>
      <trkpt lat="45.6922" lon="6.26014">
        <ele>1731.7</ele>
        <time>2022-01-13T05:47:03Z</time>
      </trkpt>
      <trkpt lat="45.6922" lon="6.26014">
        <ele>1731.7</ele>
        <time>2022-01-13T05:47:04Z</time>
      </trkpt>
      <trkpt lat="45.69219" lon="6.26012">
        <ele>1731.7</ele>
        <time>2022-01-13T05:47:05Z</time>
      </trkpt>
      <trkpt lat="45.69218" lon="6.26011">
        <ele>1732.8</ele>
        <time>2022-01-13T05:47:06Z</time>
      </trkpt>
      <trkpt lat="45.69217" lon="6.2601">
        <ele>1732.8</ele>
        <time>2022-01-13T05:47:07Z</time>
      </trkpt>
      <trkpt lat="45.69216" lon="6.26009">
        <ele>1732.8</ele>
        <time>2022-01-13T05:47:08Z</time>
      </trkpt>
      <trkpt lat="45.69216" lon="6.26009">
        <ele>1732.8</ele>
        <time>2022-01-13T05:47:09Z</time>
      </trkpt>
      <trkpt lat="45.69215" lon="6.26007">
        <ele>1733.7</ele>
        <time>2022-01-13T05:47:10Z</time>
      </trkpt>
      <trkpt lat="45.69215" lon="6.26007">
        <ele>1733.7</ele>
        <time>2022-01-13T05:47:11Z</time>
      </trkpt>
      <trkpt lat="45.69214" lon="6.26006">
        <ele>1733.7</ele>
        <time>2022-01-13T05:47:12Z</time>
      </trkpt>
      <trkpt lat="45.69214" lon="6.26005">
        <ele>1733.7</ele>
        <time>2022-01-13T05:47:13Z</time>
      </trkpt>
      <trkpt lat="45.69213" lon="6.26004">
        <ele>1734.8</ele>
        <time>2022-01-13T05:47:14Z</time>
      </trkpt>
      <trkpt lat="45.69213" lon="6.26004">
        <ele>1734.8</ele>
        <time>2022-01-13T05:47:15Z</time>
      </trkpt>
      <trkpt lat="45.69213" lon="6.26004">
        <ele>1734.8</ele>
        <time>2022-01-13T05:47:16Z</time>
      </trkpt>
      <trkpt lat="45.69213" lon="6.26004">
        <ele>1734.8</ele>
        <time>2022-01-13T05:47:17Z</time>
      </trkpt>
      <trkpt lat="45.69213" lon="6.26005">
        <ele>1734.8</ele>
        <time>2022-01-13T05:47:18Z</time>
      </trkpt>
      <trkpt lat="45.69212" lon="6.26006">
        <ele>1734.8</ele>
        <time>2022-01-13T05:47:19Z</time>
      </trkpt>
      <trkpt lat="45.69212" lon="6.26007">
        <ele>1734.8</ele>
        <time>2022-01-13T05:47:20Z</time>
      </trkpt>
      <trkpt lat="45.69213" lon="6.26008">
        <ele>1734.8</ele>
        <time>2022-01-13T05:47:21Z</time>
      </trkpt>
      <trkpt lat="45.69213" lon="6.26009">
        <ele>1735.7</ele>
        <time>2022-01-13T05:47:22Z</time>
      </trkpt>
      <trkpt lat="45.69213" lon="6.26011">
        <ele>1735.7</ele>
        <time>2022-01-13T05:47:23Z</time>
      </trkpt>
      <trkpt lat="45.69213" lon="6.26012">
        <ele>1735.7</ele>
        <time>2022-01-13T05:47:24Z</time>
      </trkpt>
      <trkpt lat="45.69214" lon="6.26013">
        <ele>1735.7</ele>
        <time>2022-01-13T05:47:25Z</time>
      </trkpt>
      <trkpt lat="45.69214" lon="6.26014">
        <ele>1735.7</ele>
        <time>2022-01-13T05:47:26Z</time>
      </trkpt>
      <trkpt lat="45.69213" lon="6.26015">
        <ele>1735.7</ele>
        <time>2022-01-13T05:47:27Z</time>
      </trkpt>
      <trkpt lat="45.69213" lon="6.26017">
        <ele>1736.8</ele>
        <time>2022-01-13T05:47:28Z</time>
      </trkpt>
      <trkpt lat="45.69214" lon="6.26018">
        <ele>1736.8</ele>
        <time>2022-01-13T05:47:29Z</time>
      </trkpt>
      <trkpt lat="45.69214" lon="6.26019">
        <ele>1736.8</ele>
        <time>2022-01-13T05:47:30Z</time>
      </trkpt>
      <trkpt lat="45.69214" lon="6.2602">
        <ele>1736.8</ele>
        <time>2022-01-13T05:47:31Z</time>
      </trkpt>
      <trkpt lat="45.69214" lon="6.26021">
        <ele>1737.8</ele>
        <time>2022-01-13T05:47:32Z</time>
      </trkpt>
      <trkpt lat="45.69214" lon="6.26023">
        <ele>1737.8</ele>
        <time>2022-01-13T05:47:33Z</time>
      </trkpt>
      <trkpt lat="45.69214" lon="6.26025">
        <ele>1737.8</ele>
        <time>2022-01-13T05:47:34Z</time>
      </trkpt>
      <trkpt lat="45.69214" lon="6.26026">
        <ele>1737.8</ele>
        <time>2022-01-13T05:47:35Z</time>
      </trkpt>
      <trkpt lat="45.69214" lon="6.26027">
        <ele>1738.8</ele>
        <time>2022-01-13T05:47:36Z</time>
      </trkpt>
      <trkpt lat="45.69214" lon="6.26028">
        <ele>1738.8</ele>
        <time>2022-01-13T05:47:37Z</time>
      </trkpt>
      <trkpt lat="45.69214" lon="6.26028">
        <ele>1738.8</ele>
        <time>2022-01-13T05:47:38Z</time>
      </trkpt>
      <trkpt lat="45.69213" lon="6.26028">
        <ele>1738.8</ele>
        <time>2022-01-13T05:47:39Z</time>
      </trkpt>
      <trkpt lat="45.69213" lon="6.26028">
        <ele>1738.8</ele>
        <time>2022-01-13T05:47:40Z</time>
      </trkpt>
      <trkpt lat="45.69212" lon="6.26028">
        <ele>1738.8</ele>
        <time>2022-01-13T05:47:41Z</time>
      </trkpt>
      <trkpt lat="45.69212" lon="6.26027">
        <ele>1738.8</ele>
        <time>2022-01-13T05:47:42Z</time>
      </trkpt>
      <trkpt lat="45.69211" lon="6.26026">
        <ele>1739.8</ele>
        <time>2022-01-13T05:47:43Z</time>
      </trkpt>
      <trkpt lat="45.69211" lon="6.26025">
        <ele>1739.8</ele>
        <time>2022-01-13T05:47:44Z</time>
      </trkpt>
      <trkpt lat="45.6921" lon="6.26025">
        <ele>1739.8</ele>
        <time>2022-01-13T05:47:45Z</time>
      </trkpt>
      <trkpt lat="45.69209" lon="6.26023">
        <ele>1739.8</ele>
        <time>2022-01-13T05:47:46Z</time>
      </trkpt>
      <trkpt lat="45.69208" lon="6.26022">
        <ele>1739.8</ele>
        <time>2022-01-13T05:47:47Z</time>
      </trkpt>
      <trkpt lat="45.69208" lon="6.26021">
        <ele>1739.8</ele>
        <time>2022-01-13T05:47:48Z</time>
      </trkpt>
      <trkpt lat="45.69207" lon="6.2602">
        <ele>1739.8</ele>
        <time>2022-01-13T05:47:49Z</time>
      </trkpt>
      <trkpt lat="45.69206" lon="6.26019">
        <ele>1739.8</ele>
        <time>2022-01-13T05:47:50Z</time>
      </trkpt>
      <trkpt lat="45.69205" lon="6.26018">
        <ele>1740.7</ele>
        <time>2022-01-13T05:47:51Z</time>
      </trkpt>
      <trkpt lat="45.69205" lon="6.26017">
        <ele>1740.7</ele>
        <time>2022-01-13T05:47:52Z</time>
      </trkpt>
      <trkpt lat="45.69204" lon="6.26016">
        <ele>1740.7</ele>
        <time>2022-01-13T05:47:53Z</time>
      </trkpt>
      <trkpt lat="45.69203" lon="6.26015">
        <ele>1740.7</ele>
        <time>2022-01-13T05:47:54Z</time>
      </trkpt>
      <trkpt lat="45.69202" lon="6.26014">
        <ele>1740.7</ele>
        <time>2022-01-13T05:47:55Z</time>
      </trkpt>
      <trkpt lat="45.69202" lon="6.26014">
        <ele>1740.7</ele>
        <time>2022-01-13T05:47:56Z</time>
      </trkpt>
      <trkpt lat="45.69201" lon="6.26013">
        <ele>1740.7</ele>
        <time>2022-01-13T05:47:57Z</time>
      </trkpt>
      <trkpt lat="45.69201" lon="6.26012">
        <ele>1740.7</ele>
        <time>2022-01-13T05:47:58Z</time>
      </trkpt>
      <trkpt lat="45.692" lon="6.26012">
        <ele>1743.8</ele>
        <time>2022-01-13T05:47:59Z</time>
      </trkpt>
      <trkpt lat="45.69199" lon="6.26011">
        <ele>1743.8</ele>
        <time>2022-01-13T05:48:00Z</time>
      </trkpt>
      <trkpt lat="45.69199" lon="6.26011">
        <ele>1743.8</ele>
        <time>2022-01-13T05:48:01Z</time>
      </trkpt>
      <trkpt lat="45.69199" lon="6.26011">
        <ele>1743.8</ele>
        <time>2022-01-13T05:48:02Z</time>
      </trkpt>
      <trkpt lat="45.69199" lon="6.26011">
        <ele>1743.8</ele>
        <time>2022-01-13T05:48:03Z</time>
      </trkpt>
      <trkpt lat="45.69199" lon="6.26011">
        <ele>1743.8</ele>
        <time>2022-01-13T05:48:04Z</time>
      </trkpt>
      <trkpt lat="45.69199" lon="6.26012">
        <ele>1743.8</ele>
        <time>2022-01-13T05:48:05Z</time>
      </trkpt>
      <trkpt lat="45.69199" lon="6.26013">
        <ele>1743.8</ele>
        <time>2022-01-13T05:48:06Z</time>
      </trkpt>
      <trkpt lat="45.69199" lon="6.26014">
        <ele>1743.8</ele>
        <time>2022-01-13T05:48:07Z</time>
      </trkpt>
      <trkpt lat="45.69199" lon="6.26015">
        <ele>1743.8</ele>
        <time>2022-01-13T05:48:08Z</time>
      </trkpt>
      <trkpt lat="45.69199" lon="6.26016">
        <ele>1743.8</ele>
        <time>2022-01-13T05:48:09Z</time>
      </trkpt>
      <trkpt lat="45.69199" lon="6.26017">
        <ele>1743.8</ele>
        <time>2022-01-13T05:48:10Z</time>
      </trkpt>
      <trkpt lat="45.692" lon="6.26019">
        <ele>1744.8</ele>
        <time>2022-01-13T05:48:11Z</time>
      </trkpt>
      <trkpt lat="45.692" lon="6.26019">
        <ele>1744.8</ele>
        <time>2022-01-13T05:48:12Z</time>
      </trkpt>
      <trkpt lat="45.692" lon="6.26021">
        <ele>1744.8</ele>
        <time>2022-01-13T05:48:13Z</time>
      </trkpt>
      <trkpt lat="45.692" lon="6.26022">
        <ele>1744.8</ele>
        <time>2022-01-13T05:48:14Z</time>
      </trkpt>
      <trkpt lat="45.692" lon="6.26023">
        <ele>1745.8</ele>
        <time>2022-01-13T05:48:15Z</time>
      </trkpt>
      <trkpt lat="45.692" lon="6.26024">
        <ele>1745.8</ele>
        <time>2022-01-13T05:48:16Z</time>
      </trkpt>
      <trkpt lat="45.692" lon="6.26025">
        <ele>1745.8</ele>
        <time>2022-01-13T05:48:17Z</time>
      </trkpt>
      <trkpt lat="45.69201" lon="6.26026">
        <ele>1745.8</ele>
        <time>2022-01-13T05:48:18Z</time>
      </trkpt>
      <trkpt lat="45.69201" lon="6.26028">
        <ele>1746.8</ele>
        <time>2022-01-13T05:48:19Z</time>
      </trkpt>
      <trkpt lat="45.69201" lon="6.26029">
        <ele>1746.8</ele>
        <time>2022-01-13T05:48:20Z</time>
      </trkpt>
      <trkpt lat="45.69201" lon="6.2603">
        <ele>1747.7</ele>
        <time>2022-01-13T05:48:21Z</time>
      </trkpt>
      <trkpt lat="45.69201" lon="6.26031">
        <ele>1747.7</ele>
        <time>2022-01-13T05:48:22Z</time>
      </trkpt>
      <trkpt lat="45.69201" lon="6.26032">
        <ele>1747.7</ele>
        <time>2022-01-13T05:48:23Z</time>
      </trkpt>
      <trkpt lat="45.692" lon="6.26032">
        <ele>1747.7</ele>
        <time>2022-01-13T05:48:24Z</time>
      </trkpt>
      <trkpt lat="45.692" lon="6.26033">
        <ele>1747.7</ele>
        <time>2022-01-13T05:48:25Z</time>
      </trkpt>
      <trkpt lat="45.692" lon="6.26033">
        <ele>1747.7</ele>
        <time>2022-01-13T05:48:26Z</time>
      </trkpt>
      <trkpt lat="45.692" lon="6.26034">
        <ele>1747.7</ele>
        <time>2022-01-13T05:48:27Z</time>
      </trkpt>
      <trkpt lat="45.692" lon="6.26035">
        <ele>1747.7</ele>
        <time>2022-01-13T05:48:28Z</time>
      </trkpt>
      <trkpt lat="45.692" lon="6.26036">
        <ele>1747.7</ele>
        <time>2022-01-13T05:48:29Z</time>
      </trkpt>
      <trkpt lat="45.692" lon="6.26035">
        <ele>1747.7</ele>
        <time>2022-01-13T05:48:30Z</time>
      </trkpt>
      <trkpt lat="45.69199" lon="6.26035">
        <ele>1748.8</ele>
        <time>2022-01-13T05:48:31Z</time>
      </trkpt>
      <trkpt lat="45.69199" lon="6.26035">
        <ele>1748.8</ele>
        <time>2022-01-13T05:48:32Z</time>
      </trkpt>
      <trkpt lat="45.69198" lon="6.26034">
        <ele>1748.8</ele>
        <time>2022-01-13T05:48:33Z</time>
      </trkpt>
      <trkpt lat="45.69198" lon="6.26034">
        <ele>1748.8</ele>
        <time>2022-01-13T05:48:34Z</time>
      </trkpt>
      <trkpt lat="45.69198" lon="6.26033">
        <ele>1748.8</ele>
        <time>2022-01-13T05:48:35Z</time>
      </trkpt>
      <trkpt lat="45.69197" lon="6.26032">
        <ele>1748.8</ele>
        <time>2022-01-13T05:48:36Z</time>
      </trkpt>
      <trkpt lat="45.69196" lon="6.26031">
        <ele>1749.7</ele>
        <time>2022-01-13T05:48:37Z</time>
      </trkpt>
      <trkpt lat="45.69196" lon="6.2603">
        <ele>1749.7</ele>
        <time>2022-01-13T05:48:38Z</time>
      </trkpt>
      <trkpt lat="45.69195" lon="6.2603">
        <ele>1749.7</ele>
        <time>2022-01-13T05:48:39Z</time>
      </trkpt>
      <trkpt lat="45.69194" lon="6.26029">
        <ele>1749.7</ele>
        <time>2022-01-13T05:48:40Z</time>
      </trkpt>
      <trkpt lat="45.69193" lon="6.26029">
        <ele>1749.7</ele>
        <time>2022-01-13T05:48:41Z</time>
      </trkpt>
      <trkpt lat="45.69192" lon="6.26028">
        <ele>1749.7</ele>
        <time>2022-01-13T05:48:42Z</time>
      </trkpt>
      <trkpt lat="45.69191" lon="6.26027">
        <ele>1750.8</ele>
        <time>2022-01-13T05:48:43Z</time>
      </trkpt>
      <trkpt lat="45.6919" lon="6.26026">
        <ele>1750.8</ele>
        <time>2022-01-13T05:48:44Z</time>
      </trkpt>
      <trkpt lat="45.6919" lon="6.26025">
        <ele>1750.8</ele>
        <time>2022-01-13T05:48:45Z</time>
      </trkpt>
      <trkpt lat="45.69189" lon="6.26025">
        <ele>1750.8</ele>
        <time>2022-01-13T05:48:46Z</time>
      </trkpt>
      <trkpt lat="45.69188" lon="6.26024">
        <ele>1751.7</ele>
        <time>2022-01-13T05:48:47Z</time>
      </trkpt>
      <trkpt lat="45.69187" lon="6.26024">
        <ele>1751.7</ele>
        <time>2022-01-13T05:48:48Z</time>
      </trkpt>
      <trkpt lat="45.69186" lon="6.26023">
        <ele>1751.7</ele>
        <time>2022-01-13T05:48:49Z</time>
      </trkpt>
      <trkpt lat="45.69186" lon="6.26022">
        <ele>1751.7</ele>
        <time>2022-01-13T05:48:50Z</time>
      </trkpt>
      <trkpt lat="45.69185" lon="6.26021">
        <ele>1752.8</ele>
        <time>2022-01-13T05:48:51Z</time>
      </trkpt>
      <trkpt lat="45.69185" lon="6.26021">
        <ele>1752.8</ele>
        <time>2022-01-13T05:48:52Z</time>
      </trkpt>
      <trkpt lat="45.69185" lon="6.26021">
        <ele>1752.8</ele>
        <time>2022-01-13T05:48:53Z</time>
      </trkpt>
      <trkpt lat="45.69184" lon="6.26021">
        <ele>1752.8</ele>
        <time>2022-01-13T05:48:54Z</time>
      </trkpt>
      <trkpt lat="45.69184" lon="6.26021">
        <ele>1753.8</ele>
        <time>2022-01-13T05:48:55Z</time>
      </trkpt>
      <trkpt lat="45.69185" lon="6.26022">
        <ele>1753.8</ele>
        <time>2022-01-13T05:48:56Z</time>
      </trkpt>
      <trkpt lat="45.69185" lon="6.26023">
        <ele>1753.8</ele>
        <time>2022-01-13T05:48:57Z</time>
      </trkpt>
      <trkpt lat="45.69185" lon="6.26024">
        <ele>1753.8</ele>
        <time>2022-01-13T05:48:58Z</time>
      </trkpt>
      <trkpt lat="45.69185" lon="6.26025">
        <ele>1753.8</ele>
        <time>2022-01-13T05:48:59Z</time>
      </trkpt>
      <trkpt lat="45.69185" lon="6.26026">
        <ele>1753.8</ele>
        <time>2022-01-13T05:49:00Z</time>
      </trkpt>
      <trkpt lat="45.69185" lon="6.26027">
        <ele>1754.8</ele>
        <time>2022-01-13T05:49:01Z</time>
      </trkpt>
      <trkpt lat="45.69186" lon="6.26028">
        <ele>1754.8</ele>
        <time>2022-01-13T05:49:02Z</time>
      </trkpt>
      <trkpt lat="45.69186" lon="6.26029">
        <ele>1754.8</ele>
        <time>2022-01-13T05:49:03Z</time>
      </trkpt>
      <trkpt lat="45.69186" lon="6.2603">
        <ele>1754.8</ele>
        <time>2022-01-13T05:49:04Z</time>
      </trkpt>
      <trkpt lat="45.69186" lon="6.26031">
        <ele>1754.8</ele>
        <time>2022-01-13T05:49:05Z</time>
      </trkpt>
      <trkpt lat="45.69187" lon="6.26032">
        <ele>1754.8</ele>
        <time>2022-01-13T05:49:06Z</time>
      </trkpt>
      <trkpt lat="45.69187" lon="6.26034">
        <ele>1754.8</ele>
        <time>2022-01-13T05:49:07Z</time>
      </trkpt>
      <trkpt lat="45.69187" lon="6.26035">
        <ele>1754.8</ele>
        <time>2022-01-13T05:49:08Z</time>
      </trkpt>
      <trkpt lat="45.69187" lon="6.26036">
        <ele>1755.8</ele>
        <time>2022-01-13T05:49:09Z</time>
      </trkpt>
      <trkpt lat="45.69187" lon="6.26038">
        <ele>1755.8</ele>
        <time>2022-01-13T05:49:10Z</time>
      </trkpt>
      <trkpt lat="45.69187" lon="6.26039">
        <ele>1756.7</ele>
        <time>2022-01-13T05:49:11Z</time>
      </trkpt>
      <trkpt lat="45.69187" lon="6.2604">
        <ele>1756.7</ele>
        <time>2022-01-13T05:49:12Z</time>
      </trkpt>
      <trkpt lat="45.69188" lon="6.26041">
        <ele>1756.7</ele>
        <time>2022-01-13T05:49:13Z</time>
      </trkpt>
      <trkpt lat="45.69188" lon="6.26043">
        <ele>1756.7</ele>
        <time>2022-01-13T05:49:14Z</time>
      </trkpt>
      <trkpt lat="45.69188" lon="6.26044">
        <ele>1756.7</ele>
        <time>2022-01-13T05:49:15Z</time>
      </trkpt>
      <trkpt lat="45.69188" lon="6.26045">
        <ele>1756.7</ele>
        <time>2022-01-13T05:49:16Z</time>
      </trkpt>
      <trkpt lat="45.69188" lon="6.26046">
        <ele>1756.7</ele>
        <time>2022-01-13T05:49:17Z</time>
      </trkpt>
      <trkpt lat="45.69188" lon="6.26046">
        <ele>1756.7</ele>
        <time>2022-01-13T05:49:18Z</time>
      </trkpt>
      <trkpt lat="45.69187" lon="6.26046">
        <ele>1758.7</ele>
        <time>2022-01-13T05:49:19Z</time>
      </trkpt>
      <trkpt lat="45.69187" lon="6.26046">
        <ele>1758.7</ele>
        <time>2022-01-13T05:49:20Z</time>
      </trkpt>
      <trkpt lat="45.69187" lon="6.26045">
        <ele>1758.7</ele>
        <time>2022-01-13T05:49:21Z</time>
      </trkpt>
      <trkpt lat="45.69186" lon="6.26045">
        <ele>1758.7</ele>
        <time>2022-01-13T05:49:22Z</time>
      </trkpt>
      <trkpt lat="45.69185" lon="6.26045">
        <ele>1758.7</ele>
        <time>2022-01-13T05:49:23Z</time>
      </trkpt>
      <trkpt lat="45.69185" lon="6.26044">
        <ele>1758.7</ele>
        <time>2022-01-13T05:49:24Z</time>
      </trkpt>
      <trkpt lat="45.69184" lon="6.26044">
        <ele>1759.8</ele>
        <time>2022-01-13T05:49:25Z</time>
      </trkpt>
      <trkpt lat="45.69183" lon="6.26043">
        <ele>1759.8</ele>
        <time>2022-01-13T05:49:26Z</time>
      </trkpt>
      <trkpt lat="45.69182" lon="6.26043">
        <ele>1759.8</ele>
        <time>2022-01-13T05:49:27Z</time>
      </trkpt>
      <trkpt lat="45.69181" lon="6.26042">
        <ele>1759.8</ele>
        <time>2022-01-13T05:49:28Z</time>
      </trkpt>
      <trkpt lat="45.6918" lon="6.26042">
        <ele>1759.8</ele>
        <time>2022-01-13T05:49:29Z</time>
      </trkpt>
      <trkpt lat="45.6918" lon="6.26041">
        <ele>1759.8</ele>
        <time>2022-01-13T05:49:30Z</time>
      </trkpt>
      <trkpt lat="45.69179" lon="6.2604">
        <ele>1759.8</ele>
        <time>2022-01-13T05:49:31Z</time>
      </trkpt>
      <trkpt lat="45.69179" lon="6.2604">
        <ele>1759.8</ele>
        <time>2022-01-13T05:49:32Z</time>
      </trkpt>
      <trkpt lat="45.69178" lon="6.26039">
        <ele>1759.8</ele>
        <time>2022-01-13T05:49:33Z</time>
      </trkpt>
      <trkpt lat="45.69177" lon="6.26038">
        <ele>1759.8</ele>
        <time>2022-01-13T05:49:34Z</time>
      </trkpt>
      <trkpt lat="45.69177" lon="6.26037">
        <ele>1762.8</ele>
        <time>2022-01-13T05:49:35Z</time>
      </trkpt>
      <trkpt lat="45.69176" lon="6.26036">
        <ele>1762.8</ele>
        <time>2022-01-13T05:49:36Z</time>
      </trkpt>
      <trkpt lat="45.69176" lon="6.26035">
        <ele>1762.8</ele>
        <time>2022-01-13T05:49:37Z</time>
      </trkpt>
      <trkpt lat="45.69175" lon="6.26034">
        <ele>1762.8</ele>
        <time>2022-01-13T05:49:38Z</time>
      </trkpt>
      <trkpt lat="45.69174" lon="6.26034">
        <ele>1762.8</ele>
        <time>2022-01-13T05:49:39Z</time>
      </trkpt>
      <trkpt lat="45.69173" lon="6.26033">
        <ele>1762.8</ele>
        <time>2022-01-13T05:49:40Z</time>
      </trkpt>
      <trkpt lat="45.69173" lon="6.26033">
        <ele>1763.7</ele>
        <time>2022-01-13T05:49:41Z</time>
      </trkpt>
      <trkpt lat="45.69172" lon="6.26032">
        <ele>1763.7</ele>
        <time>2022-01-13T05:49:42Z</time>
      </trkpt>
      <trkpt lat="45.69171" lon="6.26032">
        <ele>1763.7</ele>
        <time>2022-01-13T05:49:43Z</time>
      </trkpt>
      <trkpt lat="45.6917" lon="6.26032">
        <ele>1763.7</ele>
        <time>2022-01-13T05:49:44Z</time>
      </trkpt>
      <trkpt lat="45.69169" lon="6.26031">
        <ele>1764.8</ele>
        <time>2022-01-13T05:49:45Z</time>
      </trkpt>
      <trkpt lat="45.69169" lon="6.26031">
        <ele>1764.8</ele>
        <time>2022-01-13T05:49:46Z</time>
      </trkpt>
      <trkpt lat="45.69168" lon="6.26031">
        <ele>1764.8</ele>
        <time>2022-01-13T05:49:47Z</time>
      </trkpt>
      <trkpt lat="45.69168" lon="6.26031">
        <ele>1764.8</ele>
        <time>2022-01-13T05:49:48Z</time>
      </trkpt>
      <trkpt lat="45.69168" lon="6.26031">
        <ele>1764.8</ele>
        <time>2022-01-13T05:49:49Z</time>
      </trkpt>
      <trkpt lat="45.69168" lon="6.26031">
        <ele>1764.8</ele>
        <time>2022-01-13T05:49:50Z</time>
      </trkpt>
      <trkpt lat="45.69168" lon="6.26032">
        <ele>1764.8</ele>
        <time>2022-01-13T05:49:51Z</time>
      </trkpt>
      <trkpt lat="45.69168" lon="6.26033">
        <ele>1764.8</ele>
        <time>2022-01-13T05:49:52Z</time>
      </trkpt>
      <trkpt lat="45.69169" lon="6.26035">
        <ele>1765.7</ele>
        <time>2022-01-13T05:49:53Z</time>
      </trkpt>
      <trkpt lat="45.69169" lon="6.26036">
        <ele>1765.7</ele>
        <time>2022-01-13T05:49:54Z</time>
      </trkpt>
      <trkpt lat="45.69169" lon="6.26038">
        <ele>1765.7</ele>
        <time>2022-01-13T05:49:55Z</time>
      </trkpt>
      <trkpt lat="45.69169" lon="6.26039">
        <ele>1765.7</ele>
        <time>2022-01-13T05:49:56Z</time>
      </trkpt>
      <trkpt lat="45.69169" lon="6.2604">
        <ele>1766.8</ele>
        <time>2022-01-13T05:49:57Z</time>
      </trkpt>
      <trkpt lat="45.6917" lon="6.26042">
        <ele>1766.8</ele>
        <time>2022-01-13T05:49:58Z</time>
      </trkpt>
      <trkpt lat="45.6917" lon="6.26043">
        <ele>1766.8</ele>
        <time>2022-01-13T05:49:59Z</time>
      </trkpt>
      <trkpt lat="45.6917" lon="6.26044">
        <ele>1766.8</ele>
        <time>2022-01-13T05:50:00Z</time>
      </trkpt>
      <trkpt lat="45.6917" lon="6.26046">
        <ele>1766.8</ele>
        <time>2022-01-13T05:50:01Z</time>
      </trkpt>
      <trkpt lat="45.6917" lon="6.26047">
        <ele>1766.8</ele>
        <time>2022-01-13T05:50:02Z</time>
      </trkpt>
      <trkpt lat="45.6917" lon="6.26048">
        <ele>1767.7</ele>
        <time>2022-01-13T05:50:03Z</time>
      </trkpt>
      <trkpt lat="45.6917" lon="6.26049">
        <ele>1767.7</ele>
        <time>2022-01-13T05:50:04Z</time>
      </trkpt>
      <trkpt lat="45.69171" lon="6.2605">
        <ele>1767.7</ele>
        <time>2022-01-13T05:50:05Z</time>
      </trkpt>
      <trkpt lat="45.6917" lon="6.26052">
        <ele>1767.7</ele>
        <time>2022-01-13T05:50:06Z</time>
      </trkpt>
      <trkpt lat="45.69171" lon="6.26053">
        <ele>1768.8</ele>
        <time>2022-01-13T05:50:07Z</time>
      </trkpt>
      <trkpt lat="45.69171" lon="6.26054">
        <ele>1768.8</ele>
        <time>2022-01-13T05:50:08Z</time>
      </trkpt>
      <trkpt lat="45.69171" lon="6.26055">
        <ele>1769.8</ele>
        <time>2022-01-13T05:50:09Z</time>
      </trkpt>
      <trkpt lat="45.69171" lon="6.26056">
        <ele>1769.8</ele>
        <time>2022-01-13T05:50:10Z</time>
      </trkpt>
      <trkpt lat="45.69171" lon="6.26057">
        <ele>1769.8</ele>
        <time>2022-01-13T05:50:11Z</time>
      </trkpt>
      <trkpt lat="45.69171" lon="6.26058">
        <ele>1769.8</ele>
        <time>2022-01-13T05:50:12Z</time>
      </trkpt>
      <trkpt lat="45.6917" lon="6.26059">
        <ele>1769.8</ele>
        <time>2022-01-13T05:50:13Z</time>
      </trkpt>
      <trkpt lat="45.6917" lon="6.2606">
        <ele>1769.8</ele>
        <time>2022-01-13T05:50:14Z</time>
      </trkpt>
      <trkpt lat="45.6917" lon="6.2606">
        <ele>1770.8</ele>
        <time>2022-01-13T05:50:15Z</time>
      </trkpt>
      <trkpt lat="45.6917" lon="6.2606">
        <ele>1770.8</ele>
        <time>2022-01-13T05:50:16Z</time>
      </trkpt>
      <trkpt lat="45.69169" lon="6.2606">
        <ele>1770.8</ele>
        <time>2022-01-13T05:50:17Z</time>
      </trkpt>
      <trkpt lat="45.69169" lon="6.26059">
        <ele>1770.8</ele>
        <time>2022-01-13T05:50:18Z</time>
      </trkpt>
      <trkpt lat="45.69168" lon="6.26058">
        <ele>1771.8</ele>
        <time>2022-01-13T05:50:19Z</time>
      </trkpt>
      <trkpt lat="45.69168" lon="6.26057">
        <ele>1771.8</ele>
        <time>2022-01-13T05:50:20Z</time>
      </trkpt>
      <trkpt lat="45.69167" lon="6.26056">
        <ele>1771.8</ele>
        <time>2022-01-13T05:50:21Z</time>
      </trkpt>
      <trkpt lat="45.69167" lon="6.26056">
        <ele>1771.8</ele>
        <time>2022-01-13T05:50:22Z</time>
      </trkpt>
      <trkpt lat="45.69166" lon="6.26055">
        <ele>1772.7</ele>
        <time>2022-01-13T05:50:23Z</time>
      </trkpt>
      <trkpt lat="45.69166" lon="6.26054">
        <ele>1772.7</ele>
        <time>2022-01-13T05:50:24Z</time>
      </trkpt>
      <trkpt lat="45.69165" lon="6.26053">
        <ele>1772.7</ele>
        <time>2022-01-13T05:50:25Z</time>
      </trkpt>
      <trkpt lat="45.69164" lon="6.26052">
        <ele>1772.7</ele>
        <time>2022-01-13T05:50:26Z</time>
      </trkpt>
      <trkpt lat="45.69163" lon="6.26052">
        <ele>1773.8</ele>
        <time>2022-01-13T05:50:27Z</time>
      </trkpt>
      <trkpt lat="45.69163" lon="6.26051">
        <ele>1773.8</ele>
        <time>2022-01-13T05:50:28Z</time>
      </trkpt>
      <trkpt lat="45.69162" lon="6.2605">
        <ele>1773.8</ele>
        <time>2022-01-13T05:50:29Z</time>
      </trkpt>
      <trkpt lat="45.69161" lon="6.2605">
        <ele>1773.8</ele>
        <time>2022-01-13T05:50:30Z</time>
      </trkpt>
      <trkpt lat="45.6916" lon="6.2605">
        <ele>1773.8</ele>
        <time>2022-01-13T05:50:31Z</time>
      </trkpt>
      <trkpt lat="45.69159" lon="6.26049">
        <ele>1773.8</ele>
        <time>2022-01-13T05:50:32Z</time>
      </trkpt>
      <trkpt lat="45.69159" lon="6.26048">
        <ele>1773.8</ele>
        <time>2022-01-13T05:50:33Z</time>
      </trkpt>
      <trkpt lat="45.69158" lon="6.26048">
        <ele>1773.8</ele>
        <time>2022-01-13T05:50:34Z</time>
      </trkpt>
      <trkpt lat="45.69158" lon="6.26048">
        <ele>1773.8</ele>
        <time>2022-01-13T05:50:35Z</time>
      </trkpt>
      <trkpt lat="45.69158" lon="6.26048">
        <ele>1773.8</ele>
        <time>2022-01-13T05:50:36Z</time>
      </trkpt>
      <trkpt lat="45.69158" lon="6.26049">
        <ele>1775.8</ele>
        <time>2022-01-13T05:50:37Z</time>
      </trkpt>
      <trkpt lat="45.69158" lon="6.2605">
        <ele>1775.8</ele>
        <time>2022-01-13T05:50:38Z</time>
      </trkpt>
      <trkpt lat="45.69158" lon="6.26051">
        <ele>1776.9</ele>
        <time>2022-01-13T05:50:39Z</time>
      </trkpt>
      <trkpt lat="45.69159" lon="6.26052">
        <ele>1776.9</ele>
        <time>2022-01-13T05:50:40Z</time>
      </trkpt>
      <trkpt lat="45.69159" lon="6.26054">
        <ele>1776.9</ele>
        <time>2022-01-13T05:50:41Z</time>
      </trkpt>
      <trkpt lat="45.69159" lon="6.26055">
        <ele>1776.9</ele>
        <time>2022-01-13T05:50:42Z</time>
      </trkpt>
      <trkpt lat="45.6916" lon="6.26056">
        <ele>1776.9</ele>
        <time>2022-01-13T05:50:43Z</time>
      </trkpt>
      <trkpt lat="45.6916" lon="6.26058">
        <ele>1776.9</ele>
        <time>2022-01-13T05:50:44Z</time>
      </trkpt>
      <trkpt lat="45.6916" lon="6.26059">
        <ele>1776.9</ele>
        <time>2022-01-13T05:50:45Z</time>
      </trkpt>
      <trkpt lat="45.6916" lon="6.2606">
        <ele>1776.9</ele>
        <time>2022-01-13T05:50:46Z</time>
      </trkpt>
      <trkpt lat="45.69161" lon="6.26061">
        <ele>1776.9</ele>
        <time>2022-01-13T05:50:47Z</time>
      </trkpt>
      <trkpt lat="45.69161" lon="6.26063">
        <ele>1776.9</ele>
        <time>2022-01-13T05:50:48Z</time>
      </trkpt>
      <trkpt lat="45.69161" lon="6.26064">
        <ele>1776.9</ele>
        <time>2022-01-13T05:50:49Z</time>
      </trkpt>
      <trkpt lat="45.69161" lon="6.26066">
        <ele>1776.9</ele>
        <time>2022-01-13T05:50:50Z</time>
      </trkpt>
      <trkpt lat="45.69161" lon="6.26067">
        <ele>1776.9</ele>
        <time>2022-01-13T05:50:51Z</time>
      </trkpt>
      <trkpt lat="45.69161" lon="6.26069">
        <ele>1776.9</ele>
        <time>2022-01-13T05:50:52Z</time>
      </trkpt>
      <trkpt lat="45.6916" lon="6.2607">
        <ele>1779.7</ele>
        <time>2022-01-13T05:50:53Z</time>
      </trkpt>
      <trkpt lat="45.6916" lon="6.26071">
        <ele>1779.7</ele>
        <time>2022-01-13T05:50:54Z</time>
      </trkpt>
      <trkpt lat="45.69159" lon="6.26071">
        <ele>1779.7</ele>
        <time>2022-01-13T05:50:55Z</time>
      </trkpt>
      <trkpt lat="45.69159" lon="6.26071">
        <ele>1779.7</ele>
        <time>2022-01-13T05:50:56Z</time>
      </trkpt>
      <trkpt lat="45.69159" lon="6.2607">
        <ele>1779.7</ele>
        <time>2022-01-13T05:50:57Z</time>
      </trkpt>
      <trkpt lat="45.69158" lon="6.2607">
        <ele>1779.7</ele>
        <time>2022-01-13T05:50:58Z</time>
      </trkpt>
      <trkpt lat="45.69158" lon="6.26069">
        <ele>1779.7</ele>
        <time>2022-01-13T05:50:59Z</time>
      </trkpt>
      <trkpt lat="45.69157" lon="6.26068">
        <ele>1779.7</ele>
        <time>2022-01-13T05:51:00Z</time>
      </trkpt>
      <trkpt lat="45.69156" lon="6.26068">
        <ele>1779.7</ele>
        <time>2022-01-13T05:51:01Z</time>
      </trkpt>
      <trkpt lat="45.69156" lon="6.26067">
        <ele>1779.7</ele>
        <time>2022-01-13T05:51:02Z</time>
      </trkpt>
      <trkpt lat="45.69155" lon="6.26066">
        <ele>1780.8</ele>
        <time>2022-01-13T05:51:03Z</time>
      </trkpt>
      <trkpt lat="45.69154" lon="6.26065">
        <ele>1780.8</ele>
        <time>2022-01-13T05:51:04Z</time>
      </trkpt>
      <trkpt lat="45.69154" lon="6.26064">
        <ele>1780.8</ele>
        <time>2022-01-13T05:51:05Z</time>
      </trkpt>
      <trkpt lat="45.69153" lon="6.26064">
        <ele>1780.8</ele>
        <time>2022-01-13T05:51:06Z</time>
      </trkpt>
      <trkpt lat="45.69152" lon="6.26063">
        <ele>1781.7</ele>
        <time>2022-01-13T05:51:07Z</time>
      </trkpt>
      <trkpt lat="45.69152" lon="6.26063">
        <ele>1781.7</ele>
        <time>2022-01-13T05:51:08Z</time>
      </trkpt>
      <trkpt lat="45.69152" lon="6.26063">
        <ele>1781.7</ele>
        <time>2022-01-13T05:51:09Z</time>
      </trkpt>
      <trkpt lat="45.69151" lon="6.26063">
        <ele>1781.7</ele>
        <time>2022-01-13T05:51:10Z</time>
      </trkpt>
      <trkpt lat="45.69151" lon="6.26063">
        <ele>1781.7</ele>
        <time>2022-01-13T05:51:11Z</time>
      </trkpt>
      <trkpt lat="45.69151" lon="6.26064">
        <ele>1781.7</ele>
        <time>2022-01-13T05:51:12Z</time>
      </trkpt>
      <trkpt lat="45.69151" lon="6.26065">
        <ele>1781.7</ele>
        <time>2022-01-13T05:51:13Z</time>
      </trkpt>
      <trkpt lat="45.69151" lon="6.26066">
        <ele>1781.7</ele>
        <time>2022-01-13T05:51:14Z</time>
      </trkpt>
      <trkpt lat="45.69151" lon="6.26067">
        <ele>1783.7</ele>
        <time>2022-01-13T05:51:15Z</time>
      </trkpt>
      <trkpt lat="45.69151" lon="6.26068">
        <ele>1783.7</ele>
        <time>2022-01-13T05:51:16Z</time>
      </trkpt>
      <trkpt lat="45.69151" lon="6.26069">
        <ele>1783.7</ele>
        <time>2022-01-13T05:51:17Z</time>
      </trkpt>
      <trkpt lat="45.69151" lon="6.26071">
        <ele>1783.7</ele>
        <time>2022-01-13T05:51:18Z</time>
      </trkpt>
      <trkpt lat="45.69151" lon="6.26072">
        <ele>1783.7</ele>
        <time>2022-01-13T05:51:19Z</time>
      </trkpt>
      <trkpt lat="45.69151" lon="6.26073">
        <ele>1783.7</ele>
        <time>2022-01-13T05:51:20Z</time>
      </trkpt>
      <trkpt lat="45.69151" lon="6.26074">
        <ele>1783.7</ele>
        <time>2022-01-13T05:51:21Z</time>
      </trkpt>
      <trkpt lat="45.69151" lon="6.26076">
        <ele>1783.7</ele>
        <time>2022-01-13T05:51:22Z</time>
      </trkpt>
      <trkpt lat="45.6915" lon="6.26077">
        <ele>1784.8</ele>
        <time>2022-01-13T05:51:23Z</time>
      </trkpt>
      <trkpt lat="45.6915" lon="6.26078">
        <ele>1784.8</ele>
        <time>2022-01-13T05:51:24Z</time>
      </trkpt>
      <trkpt lat="45.6915" lon="6.26079">
        <ele>1784.8</ele>
        <time>2022-01-13T05:51:25Z</time>
      </trkpt>
      <trkpt lat="45.6915" lon="6.2608">
        <ele>1784.8</ele>
        <time>2022-01-13T05:51:26Z</time>
      </trkpt>
      <trkpt lat="45.6915" lon="6.26081">
        <ele>1786.8</ele>
        <time>2022-01-13T05:51:27Z</time>
      </trkpt>
      <trkpt lat="45.6915" lon="6.26082">
        <ele>1786.8</ele>
        <time>2022-01-13T05:51:28Z</time>
      </trkpt>
      <trkpt lat="45.6915" lon="6.26083">
        <ele>1786.8</ele>
        <time>2022-01-13T05:51:29Z</time>
      </trkpt>
      <trkpt lat="45.6915" lon="6.26084">
        <ele>1786.8</ele>
        <time>2022-01-13T05:51:30Z</time>
      </trkpt>
      <trkpt lat="45.6915" lon="6.26085">
        <ele>1787.8</ele>
        <time>2022-01-13T05:51:31Z</time>
      </trkpt>
      <trkpt lat="45.6915" lon="6.26086">
        <ele>1787.8</ele>
        <time>2022-01-13T05:51:32Z</time>
      </trkpt>
      <trkpt lat="45.6915" lon="6.26087">
        <ele>1787.8</ele>
        <time>2022-01-13T05:51:33Z</time>
      </trkpt>
      <trkpt lat="45.6915" lon="6.26088">
        <ele>1787.8</ele>
        <time>2022-01-13T05:51:34Z</time>
      </trkpt>
      <trkpt lat="45.6915" lon="6.26089">
        <ele>1787.8</ele>
        <time>2022-01-13T05:51:35Z</time>
      </trkpt>
      <trkpt lat="45.6915" lon="6.26091">
        <ele>1787.8</ele>
        <time>2022-01-13T05:51:36Z</time>
      </trkpt>
      <trkpt lat="45.6915" lon="6.26092">
        <ele>1788.7</ele>
        <time>2022-01-13T05:51:37Z</time>
      </trkpt>
      <trkpt lat="45.69151" lon="6.26093">
        <ele>1788.7</ele>
        <time>2022-01-13T05:51:38Z</time>
      </trkpt>
      <trkpt lat="45.69151" lon="6.26094">
        <ele>1788.7</ele>
        <time>2022-01-13T05:51:39Z</time>
      </trkpt>
      <trkpt lat="45.69151" lon="6.26095">
        <ele>1788.7</ele>
        <time>2022-01-13T05:51:40Z</time>
      </trkpt>
      <trkpt lat="45.69151" lon="6.26096">
        <ele>1789.8</ele>
        <time>2022-01-13T05:51:41Z</time>
      </trkpt>
      <trkpt lat="45.69151" lon="6.26097">
        <ele>1789.8</ele>
        <time>2022-01-13T05:51:42Z</time>
      </trkpt>
      <trkpt lat="45.69151" lon="6.26098">
        <ele>1789.8</ele>
        <time>2022-01-13T05:51:43Z</time>
      </trkpt>
      <trkpt lat="45.69151" lon="6.26099">
        <ele>1789.8</ele>
        <time>2022-01-13T05:51:44Z</time>
      </trkpt>
      <trkpt lat="45.69151" lon="6.261">
        <ele>1790.7</ele>
        <time>2022-01-13T05:51:45Z</time>
      </trkpt>
      <trkpt lat="45.69151" lon="6.26101">
        <ele>1790.7</ele>
        <time>2022-01-13T05:51:46Z</time>
      </trkpt>
      <trkpt lat="45.69151" lon="6.26102">
        <ele>1790.7</ele>
        <time>2022-01-13T05:51:47Z</time>
      </trkpt>
      <trkpt lat="45.69151" lon="6.26103">
        <ele>1790.7</ele>
        <time>2022-01-13T05:51:48Z</time>
      </trkpt>
      <trkpt lat="45.69151" lon="6.26104">
        <ele>1790.7</ele>
        <time>2022-01-13T05:51:49Z</time>
      </trkpt>
      <trkpt lat="45.69151" lon="6.26104">
        <ele>1790.7</ele>
        <time>2022-01-13T05:51:50Z</time>
      </trkpt>
      <trkpt lat="45.69151" lon="6.26105">
        <ele>1791.8</ele>
        <time>2022-01-13T05:51:51Z</time>
      </trkpt>
      <trkpt lat="45.69151" lon="6.26106">
        <ele>1791.8</ele>
        <time>2022-01-13T05:51:52Z</time>
      </trkpt>
      <trkpt lat="45.69151" lon="6.26106">
        <ele>1792.7</ele>
        <time>2022-01-13T05:51:53Z</time>
      </trkpt>
      <trkpt lat="45.69151" lon="6.26107">
        <ele>1792.7</ele>
        <time>2022-01-13T05:51:54Z</time>
      </trkpt>
      <trkpt lat="45.69151" lon="6.26107">
        <ele>1792.7</ele>
        <time>2022-01-13T05:51:55Z</time>
      </trkpt>
      <trkpt lat="45.69151" lon="6.26107">
        <ele>1792.7</ele>
        <time>2022-01-13T05:51:56Z</time>
      </trkpt>
      <trkpt lat="45.6915" lon="6.26107">
        <ele>1793.8</ele>
        <time>2022-01-13T05:51:57Z</time>
      </trkpt>
      <trkpt lat="45.6915" lon="6.26107">
        <ele>1793.8</ele>
        <time>2022-01-13T05:51:58Z</time>
      </trkpt>
      <trkpt lat="45.69149" lon="6.26106">
        <ele>1793.8</ele>
        <time>2022-01-13T05:51:59Z</time>
      </trkpt>
      <trkpt lat="45.69148" lon="6.26106">
        <ele>1793.8</ele>
        <time>2022-01-13T05:52:00Z</time>
      </trkpt>
      <trkpt lat="45.69148" lon="6.26105">
        <ele>1793.8</ele>
        <time>2022-01-13T05:52:01Z</time>
      </trkpt>
      <trkpt lat="45.69147" lon="6.26105">
        <ele>1793.8</ele>
        <time>2022-01-13T05:52:02Z</time>
      </trkpt>
      <trkpt lat="45.69146" lon="6.26104">
        <ele>1794.8</ele>
        <time>2022-01-13T05:52:03Z</time>
      </trkpt>
      <trkpt lat="45.69146" lon="6.26104">
        <ele>1794.8</ele>
        <time>2022-01-13T05:52:04Z</time>
      </trkpt>
      <trkpt lat="45.69145" lon="6.26104">
        <ele>1794.8</ele>
        <time>2022-01-13T05:52:05Z</time>
      </trkpt>
      <trkpt lat="45.69144" lon="6.26103">
        <ele>1794.8</ele>
        <time>2022-01-13T05:52:06Z</time>
      </trkpt>
      <trkpt lat="45.69143" lon="6.26103">
        <ele>1794.8</ele>
        <time>2022-01-13T05:52:07Z</time>
      </trkpt>
      <trkpt lat="45.69143" lon="6.26102">
        <ele>1794.8</ele>
        <time>2022-01-13T05:52:08Z</time>
      </trkpt>
      <trkpt lat="45.69142" lon="6.26102">
        <ele>1795.8</ele>
        <time>2022-01-13T05:52:09Z</time>
      </trkpt>
      <trkpt lat="45.69141" lon="6.26101">
        <ele>1795.8</ele>
        <time>2022-01-13T05:52:10Z</time>
      </trkpt>
      <trkpt lat="45.69141" lon="6.26101">
        <ele>1795.8</ele>
        <time>2022-01-13T05:52:11Z</time>
      </trkpt>
      <trkpt lat="45.6914" lon="6.261">
        <ele>1795.8</ele>
        <time>2022-01-13T05:52:12Z</time>
      </trkpt>
      <trkpt lat="45.69139" lon="6.261">
        <ele>1796.8</ele>
        <time>2022-01-13T05:52:13Z</time>
      </trkpt>
      <trkpt lat="45.69139" lon="6.26099">
        <ele>1796.8</ele>
        <time>2022-01-13T05:52:14Z</time>
      </trkpt>
      <trkpt lat="45.69138" lon="6.26099">
        <ele>1796.8</ele>
        <time>2022-01-13T05:52:15Z</time>
      </trkpt>
      <trkpt lat="45.69137" lon="6.26099">
        <ele>1796.8</ele>
        <time>2022-01-13T05:52:16Z</time>
      </trkpt>
      <trkpt lat="45.69137" lon="6.26098">
        <ele>1796.8</ele>
        <time>2022-01-13T05:52:17Z</time>
      </trkpt>
      <trkpt lat="45.69136" lon="6.26098">
        <ele>1796.8</ele>
        <time>2022-01-13T05:52:18Z</time>
      </trkpt>
      <trkpt lat="45.69135" lon="6.26097">
        <ele>1798.8</ele>
        <time>2022-01-13T05:52:19Z</time>
      </trkpt>
      <trkpt lat="45.69135" lon="6.26097">
        <ele>1798.8</ele>
        <time>2022-01-13T05:52:20Z</time>
      </trkpt>
      <trkpt lat="45.69135" lon="6.26096">
        <ele>1798.8</ele>
        <time>2022-01-13T05:52:21Z</time>
      </trkpt>
      <trkpt lat="45.69134" lon="6.26096">
        <ele>1798.8</ele>
        <time>2022-01-13T05:52:22Z</time>
      </trkpt>
      <trkpt lat="45.69133" lon="6.26096">
        <ele>1798.8</ele>
        <time>2022-01-13T05:52:23Z</time>
      </trkpt>
      <trkpt lat="45.69132" lon="6.26095">
        <ele>1798.8</ele>
        <time>2022-01-13T05:52:24Z</time>
      </trkpt>
      <trkpt lat="45.69131" lon="6.26095">
        <ele>1799.7</ele>
        <time>2022-01-13T05:52:25Z</time>
      </trkpt>
      <trkpt lat="45.6913" lon="6.26095">
        <ele>1799.7</ele>
        <time>2022-01-13T05:52:26Z</time>
      </trkpt>
      <trkpt lat="45.69129" lon="6.26094">
        <ele>1799.7</ele>
        <time>2022-01-13T05:52:27Z</time>
      </trkpt>
      <trkpt lat="45.69129" lon="6.26094">
        <ele>1799.7</ele>
        <time>2022-01-13T05:52:28Z</time>
      </trkpt>
      <trkpt lat="45.69128" lon="6.26093">
        <ele>1799.7</ele>
        <time>2022-01-13T05:52:29Z</time>
      </trkpt>
      <trkpt lat="45.69128" lon="6.26093">
        <ele>1799.7</ele>
        <time>2022-01-13T05:52:30Z</time>
      </trkpt>
      <trkpt lat="45.69128" lon="6.26093">
        <ele>1800.8</ele>
        <time>2022-01-13T05:52:31Z</time>
      </trkpt>
      <trkpt lat="45.69128" lon="6.26093">
        <ele>1800.8</ele>
        <time>2022-01-13T05:52:32Z</time>
      </trkpt>
      <trkpt lat="45.69128" lon="6.26094">
        <ele>1800.8</ele>
        <time>2022-01-13T05:52:33Z</time>
      </trkpt>
      <trkpt lat="45.69128" lon="6.26094">
        <ele>1800.8</ele>
        <time>2022-01-13T05:52:34Z</time>
      </trkpt>
      <trkpt lat="45.69129" lon="6.26095">
        <ele>1800.8</ele>
        <time>2022-01-13T05:52:35Z</time>
      </trkpt>
      <trkpt lat="45.69129" lon="6.26096">
        <ele>1800.8</ele>
        <time>2022-01-13T05:52:36Z</time>
      </trkpt>
      <trkpt lat="45.69129" lon="6.26097">
        <ele>1801.8</ele>
        <time>2022-01-13T05:52:37Z</time>
      </trkpt>
      <trkpt lat="45.69129" lon="6.26098">
        <ele>1801.8</ele>
        <time>2022-01-13T05:52:38Z</time>
      </trkpt>
      <trkpt lat="45.69129" lon="6.26099">
        <ele>1801.8</ele>
        <time>2022-01-13T05:52:39Z</time>
      </trkpt>
      <trkpt lat="45.69129" lon="6.261">
        <ele>1801.8</ele>
        <time>2022-01-13T05:52:40Z</time>
      </trkpt>
      <trkpt lat="45.6913" lon="6.26101">
        <ele>1802.8</ele>
        <time>2022-01-13T05:52:41Z</time>
      </trkpt>
      <trkpt lat="45.6913" lon="6.26102">
        <ele>1802.8</ele>
        <time>2022-01-13T05:52:42Z</time>
      </trkpt>
      <trkpt lat="45.6913" lon="6.26103">
        <ele>1802.8</ele>
        <time>2022-01-13T05:52:43Z</time>
      </trkpt>
      <trkpt lat="45.6913" lon="6.26104">
        <ele>1802.8</ele>
        <time>2022-01-13T05:52:44Z</time>
      </trkpt>
      <trkpt lat="45.6913" lon="6.26105">
        <ele>1802.8</ele>
        <time>2022-01-13T05:52:45Z</time>
      </trkpt>
      <trkpt lat="45.69131" lon="6.26106">
        <ele>1802.8</ele>
        <time>2022-01-13T05:52:46Z</time>
      </trkpt>
      <trkpt lat="45.69131" lon="6.26107">
        <ele>1803.8</ele>
        <time>2022-01-13T05:52:47Z</time>
      </trkpt>
      <trkpt lat="45.69131" lon="6.26108">
        <ele>1803.8</ele>
        <time>2022-01-13T05:52:48Z</time>
      </trkpt>
      <trkpt lat="45.69132" lon="6.26109">
        <ele>1804.7</ele>
        <time>2022-01-13T05:52:49Z</time>
      </trkpt>
      <trkpt lat="45.69132" lon="6.2611">
        <ele>1804.7</ele>
        <time>2022-01-13T05:52:50Z</time>
      </trkpt>
      <trkpt lat="45.69132" lon="6.26111">
        <ele>1805.8</ele>
        <time>2022-01-13T05:52:51Z</time>
      </trkpt>
      <trkpt lat="45.69132" lon="6.26112">
        <ele>1805.8</ele>
        <time>2022-01-13T05:52:52Z</time>
      </trkpt>
      <trkpt lat="45.69132" lon="6.26112">
        <ele>1805.8</ele>
        <time>2022-01-13T05:52:53Z</time>
      </trkpt>
      <trkpt lat="45.69132" lon="6.26113">
        <ele>1805.8</ele>
        <time>2022-01-13T05:52:54Z</time>
      </trkpt>
      <trkpt lat="45.69133" lon="6.26114">
        <ele>1805.8</ele>
        <time>2022-01-13T05:52:55Z</time>
      </trkpt>
      <trkpt lat="45.69133" lon="6.26115">
        <ele>1805.8</ele>
        <time>2022-01-13T05:52:56Z</time>
      </trkpt>
      <trkpt lat="45.69133" lon="6.26116">
        <ele>1805.8</ele>
        <time>2022-01-13T05:52:57Z</time>
      </trkpt>
      <trkpt lat="45.69133" lon="6.26117">
        <ele>1805.8</ele>
        <time>2022-01-13T05:52:58Z</time>
      </trkpt>
      <trkpt lat="45.69133" lon="6.26118">
        <ele>1805.8</ele>
        <time>2022-01-13T05:52:59Z</time>
      </trkpt>
      <trkpt lat="45.69134" lon="6.26119">
        <ele>1805.8</ele>
        <time>2022-01-13T05:53:00Z</time>
      </trkpt>
      <trkpt lat="45.69134" lon="6.26119">
        <ele>1806.7</ele>
        <time>2022-01-13T05:53:01Z</time>
      </trkpt>
      <trkpt lat="45.69134" lon="6.2612">
        <ele>1806.7</ele>
        <time>2022-01-13T05:53:02Z</time>
      </trkpt>
      <trkpt lat="45.69134" lon="6.26121">
        <ele>1807.8</ele>
        <time>2022-01-13T05:53:03Z</time>
      </trkpt>
      <trkpt lat="45.69134" lon="6.26122">
        <ele>1807.8</ele>
        <time>2022-01-13T05:53:04Z</time>
      </trkpt>
      <trkpt lat="45.69135" lon="6.26123">
        <ele>1808.7</ele>
        <time>2022-01-13T05:53:05Z</time>
      </trkpt>
      <trkpt lat="45.69136" lon="6.26124">
        <ele>1808.7</ele>
        <time>2022-01-13T05:53:06Z</time>
      </trkpt>
      <trkpt lat="45.69136" lon="6.26125">
        <ele>1808.7</ele>
        <time>2022-01-13T05:53:07Z</time>
      </trkpt>
      <trkpt lat="45.69136" lon="6.26125">
        <ele>1808.7</ele>
        <time>2022-01-13T05:53:08Z</time>
      </trkpt>
      <trkpt lat="45.69137" lon="6.26126">
        <ele>1809.8</ele>
        <time>2022-01-13T05:53:09Z</time>
      </trkpt>
      <trkpt lat="45.69137" lon="6.26126">
        <ele>1809.8</ele>
        <time>2022-01-13T05:53:10Z</time>
      </trkpt>
      <trkpt lat="45.69137" lon="6.26127">
        <ele>1809.8</ele>
        <time>2022-01-13T05:53:11Z</time>
      </trkpt>
      <trkpt lat="45.69137" lon="6.26127">
        <ele>1809.8</ele>
        <time>2022-01-13T05:53:12Z</time>
      </trkpt>
      <trkpt lat="45.69138" lon="6.26128">
        <ele>1810.8</ele>
        <time>2022-01-13T05:53:13Z</time>
      </trkpt>
      <trkpt lat="45.69138" lon="6.26129">
        <ele>1810.8</ele>
        <time>2022-01-13T05:53:14Z</time>
      </trkpt>
      <trkpt lat="45.69138" lon="6.26129">
        <ele>1810.8</ele>
        <time>2022-01-13T05:53:15Z</time>
      </trkpt>
      <trkpt lat="45.69139" lon="6.2613">
        <ele>1810.8</ele>
        <time>2022-01-13T05:53:16Z</time>
      </trkpt>
      <trkpt lat="45.69139" lon="6.26131">
        <ele>1810.8</ele>
        <time>2022-01-13T05:53:17Z</time>
      </trkpt>
      <trkpt lat="45.6914" lon="6.26131">
        <ele>1810.8</ele>
        <time>2022-01-13T05:53:18Z</time>
      </trkpt>
      <trkpt lat="45.6914" lon="6.26132">
        <ele>1811.8</ele>
        <time>2022-01-13T05:53:19Z</time>
      </trkpt>
      <trkpt lat="45.6914" lon="6.26133">
        <ele>1811.8</ele>
        <time>2022-01-13T05:53:20Z</time>
      </trkpt>
      <trkpt lat="45.69141" lon="6.26134">
        <ele>1811.8</ele>
        <time>2022-01-13T05:53:21Z</time>
      </trkpt>
      <trkpt lat="45.69141" lon="6.26134">
        <ele>1811.8</ele>
        <time>2022-01-13T05:53:22Z</time>
      </trkpt>
      <trkpt lat="45.69141" lon="6.26135">
        <ele>1811.8</ele>
        <time>2022-01-13T05:53:23Z</time>
      </trkpt>
      <trkpt lat="45.69142" lon="6.26136">
        <ele>1811.8</ele>
        <time>2022-01-13T05:53:24Z</time>
      </trkpt>
      <trkpt lat="45.69142" lon="6.26136">
        <ele>1812.8</ele>
        <time>2022-01-13T05:53:25Z</time>
      </trkpt>
      <trkpt lat="45.69143" lon="6.26137">
        <ele>1812.8</ele>
        <time>2022-01-13T05:53:26Z</time>
      </trkpt>
      <trkpt lat="45.69143" lon="6.26137">
        <ele>1811.8</ele>
        <time>2022-01-13T05:53:27Z</time>
      </trkpt>
      <trkpt lat="45.69143" lon="6.26138">
        <ele>1811.8</ele>
        <time>2022-01-13T05:53:28Z</time>
      </trkpt>
      <trkpt lat="45.69143" lon="6.26138">
        <ele>1812.8</ele>
        <time>2022-01-13T05:53:29Z</time>
      </trkpt>
      <trkpt lat="45.69144" lon="6.26139">
        <ele>1812.8</ele>
        <time>2022-01-13T05:53:30Z</time>
      </trkpt>
      <trkpt lat="45.69144" lon="6.2614">
        <ele>1812.8</ele>
        <time>2022-01-13T05:53:31Z</time>
      </trkpt>
      <trkpt lat="45.69144" lon="6.26141">
        <ele>1812.8</ele>
        <time>2022-01-13T05:53:32Z</time>
      </trkpt>
      <trkpt lat="45.69144" lon="6.26142">
        <ele>1813.7</ele>
        <time>2022-01-13T05:53:33Z</time>
      </trkpt>
      <trkpt lat="45.69145" lon="6.26142">
        <ele>1813.7</ele>
        <time>2022-01-13T05:53:34Z</time>
      </trkpt>
      <trkpt lat="45.69145" lon="6.26143">
        <ele>1813.7</ele>
        <time>2022-01-13T05:53:35Z</time>
      </trkpt>
      <trkpt lat="45.69145" lon="6.26143">
        <ele>1813.7</ele>
        <time>2022-01-13T05:53:36Z</time>
      </trkpt>
      <trkpt lat="45.69145" lon="6.26144">
        <ele>1814.8</ele>
        <time>2022-01-13T05:53:37Z</time>
      </trkpt>
      <trkpt lat="45.69145" lon="6.26145">
        <ele>1814.8</ele>
        <time>2022-01-13T05:53:38Z</time>
      </trkpt>
      <trkpt lat="45.69145" lon="6.26146">
        <ele>1814.8</ele>
        <time>2022-01-13T05:53:39Z</time>
      </trkpt>
      <trkpt lat="45.69145" lon="6.26147">
        <ele>1814.8</ele>
        <time>2022-01-13T05:53:40Z</time>
      </trkpt>
      <trkpt lat="45.69146" lon="6.26147">
        <ele>1815.7</ele>
        <time>2022-01-13T05:53:41Z</time>
      </trkpt>
      <trkpt lat="45.69145" lon="6.26148">
        <ele>1815.7</ele>
        <time>2022-01-13T05:53:42Z</time>
      </trkpt>
      <trkpt lat="45.69145" lon="6.26149">
        <ele>1815.7</ele>
        <time>2022-01-13T05:53:43Z</time>
      </trkpt>
      <trkpt lat="45.69145" lon="6.2615">
        <ele>1815.7</ele>
        <time>2022-01-13T05:53:44Z</time>
      </trkpt>
      <trkpt lat="45.69145" lon="6.26151">
        <ele>1816.8</ele>
        <time>2022-01-13T05:53:45Z</time>
      </trkpt>
      <trkpt lat="45.69145" lon="6.26152">
        <ele>1816.8</ele>
        <time>2022-01-13T05:53:46Z</time>
      </trkpt>
      <trkpt lat="45.69145" lon="6.26154">
        <ele>1817.8</ele>
        <time>2022-01-13T05:53:47Z</time>
      </trkpt>
      <trkpt lat="45.69145" lon="6.26155">
        <ele>1817.8</ele>
        <time>2022-01-13T05:53:48Z</time>
      </trkpt>
      <trkpt lat="45.69146" lon="6.26156">
        <ele>1817.8</ele>
        <time>2022-01-13T05:53:49Z</time>
      </trkpt>
      <trkpt lat="45.69146" lon="6.26157">
        <ele>1817.8</ele>
        <time>2022-01-13T05:53:50Z</time>
      </trkpt>
      <trkpt lat="45.69146" lon="6.26157">
        <ele>1818.8</ele>
        <time>2022-01-13T05:53:51Z</time>
      </trkpt>
      <trkpt lat="45.69146" lon="6.26158">
        <ele>1818.8</ele>
        <time>2022-01-13T05:53:52Z</time>
      </trkpt>
      <trkpt lat="45.69146" lon="6.2616">
        <ele>1818.8</ele>
        <time>2022-01-13T05:53:53Z</time>
      </trkpt>
      <trkpt lat="45.69146" lon="6.26161">
        <ele>1818.8</ele>
        <time>2022-01-13T05:53:54Z</time>
      </trkpt>
      <trkpt lat="45.69147" lon="6.26162">
        <ele>1818.8</ele>
        <time>2022-01-13T05:53:55Z</time>
      </trkpt>
      <trkpt lat="45.69147" lon="6.26163">
        <ele>1818.8</ele>
        <time>2022-01-13T05:53:56Z</time>
      </trkpt>
      <trkpt lat="45.69147" lon="6.26164">
        <ele>1819.8</ele>
        <time>2022-01-13T05:53:57Z</time>
      </trkpt>
      <trkpt lat="45.69147" lon="6.26165">
        <ele>1819.8</ele>
        <time>2022-01-13T05:53:58Z</time>
      </trkpt>
      <trkpt lat="45.69147" lon="6.26165">
        <ele>1819.8</ele>
        <time>2022-01-13T05:53:59Z</time>
      </trkpt>
      <trkpt lat="45.69147" lon="6.26166">
        <ele>1819.8</ele>
        <time>2022-01-13T05:54:00Z</time>
      </trkpt>
      <trkpt lat="45.69147" lon="6.26166">
        <ele>1820.7</ele>
        <time>2022-01-13T05:54:01Z</time>
      </trkpt>
      <trkpt lat="45.69147" lon="6.26166">
        <ele>1820.7</ele>
        <time>2022-01-13T05:54:02Z</time>
      </trkpt>
      <trkpt lat="45.69147" lon="6.26166">
        <ele>1820.7</ele>
        <time>2022-01-13T05:54:03Z</time>
      </trkpt>
      <trkpt lat="45.69146" lon="6.26166">
        <ele>1820.7</ele>
        <time>2022-01-13T05:54:04Z</time>
      </trkpt>
      <trkpt lat="45.69145" lon="6.26166">
        <ele>1821.8</ele>
        <time>2022-01-13T05:54:05Z</time>
      </trkpt>
      <trkpt lat="45.69144" lon="6.26166">
        <ele>1821.8</ele>
        <time>2022-01-13T05:54:06Z</time>
      </trkpt>
      <trkpt lat="45.69143" lon="6.26165">
        <ele>1821.8</ele>
        <time>2022-01-13T05:54:07Z</time>
      </trkpt>
      <trkpt lat="45.69143" lon="6.26165">
        <ele>1821.8</ele>
        <time>2022-01-13T05:54:08Z</time>
      </trkpt>
      <trkpt lat="45.69142" lon="6.26164">
        <ele>1822.7</ele>
        <time>2022-01-13T05:54:09Z</time>
      </trkpt>
      <trkpt lat="45.69141" lon="6.26164">
        <ele>1822.7</ele>
        <time>2022-01-13T05:54:10Z</time>
      </trkpt>
      <trkpt lat="45.6914" lon="6.26164">
        <ele>1822.7</ele>
        <time>2022-01-13T05:54:11Z</time>
      </trkpt>
      <trkpt lat="45.69139" lon="6.26163">
        <ele>1822.7</ele>
        <time>2022-01-13T05:54:12Z</time>
      </trkpt>
      <trkpt lat="45.69139" lon="6.26163">
        <ele>1823.8</ele>
        <time>2022-01-13T05:54:13Z</time>
      </trkpt>
      <trkpt lat="45.69138" lon="6.26163">
        <ele>1823.8</ele>
        <time>2022-01-13T05:54:14Z</time>
      </trkpt>
      <trkpt lat="45.69138" lon="6.26162">
        <ele>1823.8</ele>
        <time>2022-01-13T05:54:15Z</time>
      </trkpt>
      <trkpt lat="45.69138" lon="6.26162">
        <ele>1823.8</ele>
        <time>2022-01-13T05:54:16Z</time>
      </trkpt>
      <trkpt lat="45.69138" lon="6.26161">
        <ele>1823.8</ele>
        <time>2022-01-13T05:54:17Z</time>
      </trkpt>
      <trkpt lat="45.69138" lon="6.26161">
        <ele>1823.8</ele>
        <time>2022-01-13T05:54:18Z</time>
      </trkpt>
      <trkpt lat="45.69138" lon="6.26162">
        <ele>1824.7</ele>
        <time>2022-01-13T05:54:19Z</time>
      </trkpt>
      <trkpt lat="45.69138" lon="6.26162">
        <ele>1824.7</ele>
        <time>2022-01-13T05:54:20Z</time>
      </trkpt>
      <trkpt lat="45.69137" lon="6.26163">
        <ele>1824.7</ele>
        <time>2022-01-13T05:54:21Z</time>
      </trkpt>
      <trkpt lat="45.69138" lon="6.26164">
        <ele>1824.7</ele>
        <time>2022-01-13T05:54:22Z</time>
      </trkpt>
      <trkpt lat="45.69138" lon="6.26166">
        <ele>1824.7</ele>
        <time>2022-01-13T05:54:23Z</time>
      </trkpt>
      <trkpt lat="45.69138" lon="6.26167">
        <ele>1824.7</ele>
        <time>2022-01-13T05:54:24Z</time>
      </trkpt>
      <trkpt lat="45.69138" lon="6.26168">
        <ele>1824.7</ele>
        <time>2022-01-13T05:54:25Z</time>
      </trkpt>
      <trkpt lat="45.69138" lon="6.26169">
        <ele>1824.7</ele>
        <time>2022-01-13T05:54:26Z</time>
      </trkpt>
      <trkpt lat="45.69138" lon="6.2617">
        <ele>1824.7</ele>
        <time>2022-01-13T05:54:27Z</time>
      </trkpt>
      <trkpt lat="45.69138" lon="6.26171">
        <ele>1824.7</ele>
        <time>2022-01-13T05:54:28Z</time>
      </trkpt>
      <trkpt lat="45.69138" lon="6.26172">
        <ele>1825.8</ele>
        <time>2022-01-13T05:54:29Z</time>
      </trkpt>
      <trkpt lat="45.69139" lon="6.26174">
        <ele>1825.8</ele>
        <time>2022-01-13T05:54:30Z</time>
      </trkpt>
      <trkpt lat="45.69139" lon="6.26175">
        <ele>1825.8</ele>
        <time>2022-01-13T05:54:31Z</time>
      </trkpt>
      <trkpt lat="45.69139" lon="6.26176">
        <ele>1825.8</ele>
        <time>2022-01-13T05:54:32Z</time>
      </trkpt>
      <trkpt lat="45.6914" lon="6.26177">
        <ele>1826.8</ele>
        <time>2022-01-13T05:54:33Z</time>
      </trkpt>
      <trkpt lat="45.6914" lon="6.26178">
        <ele>1826.8</ele>
        <time>2022-01-13T05:54:34Z</time>
      </trkpt>
      <trkpt lat="45.6914" lon="6.26179">
        <ele>1827.8</ele>
        <time>2022-01-13T05:54:35Z</time>
      </trkpt>
      <trkpt lat="45.69141" lon="6.2618">
        <ele>1827.8</ele>
        <time>2022-01-13T05:54:36Z</time>
      </trkpt>
      <trkpt lat="45.69141" lon="6.26181">
        <ele>1827.8</ele>
        <time>2022-01-13T05:54:37Z</time>
      </trkpt>
      <trkpt lat="45.69142" lon="6.26182">
        <ele>1827.8</ele>
        <time>2022-01-13T05:54:38Z</time>
      </trkpt>
      <trkpt lat="45.69142" lon="6.26182">
        <ele>1828.8</ele>
        <time>2022-01-13T05:54:39Z</time>
      </trkpt>
      <trkpt lat="45.69143" lon="6.26183">
        <ele>1828.8</ele>
        <time>2022-01-13T05:54:40Z</time>
      </trkpt>
      <trkpt lat="45.69143" lon="6.26184">
        <ele>1828.8</ele>
        <time>2022-01-13T05:54:41Z</time>
      </trkpt>
      <trkpt lat="45.69144" lon="6.26184">
        <ele>1828.8</ele>
        <time>2022-01-13T05:54:42Z</time>
      </trkpt>
      <trkpt lat="45.69144" lon="6.26185">
        <ele>1829.7</ele>
        <time>2022-01-13T05:54:43Z</time>
      </trkpt>
      <trkpt lat="45.69144" lon="6.26186">
        <ele>1829.7</ele>
        <time>2022-01-13T05:54:44Z</time>
      </trkpt>
      <trkpt lat="45.69144" lon="6.26187">
        <ele>1830.8</ele>
        <time>2022-01-13T05:54:45Z</time>
      </trkpt>
      <trkpt lat="45.69145" lon="6.26188">
        <ele>1830.8</ele>
        <time>2022-01-13T05:54:46Z</time>
      </trkpt>
      <trkpt lat="45.69145" lon="6.26188">
        <ele>1830.8</ele>
        <time>2022-01-13T05:54:47Z</time>
      </trkpt>
      <trkpt lat="45.69146" lon="6.26189">
        <ele>1830.8</ele>
        <time>2022-01-13T05:54:48Z</time>
      </trkpt>
      <trkpt lat="45.69146" lon="6.2619">
        <ele>1830.8</ele>
        <time>2022-01-13T05:54:49Z</time>
      </trkpt>
      <trkpt lat="45.69146" lon="6.2619">
        <ele>1830.8</ele>
        <time>2022-01-13T05:54:50Z</time>
      </trkpt>
      <trkpt lat="45.69146" lon="6.26191">
        <ele>1830.8</ele>
        <time>2022-01-13T05:54:51Z</time>
      </trkpt>
      <trkpt lat="45.69146" lon="6.26192">
        <ele>1830.8</ele>
        <time>2022-01-13T05:54:52Z</time>
      </trkpt>
      <trkpt lat="45.69147" lon="6.26193">
        <ele>1830.8</ele>
        <time>2022-01-13T05:54:53Z</time>
      </trkpt>
      <trkpt lat="45.69147" lon="6.26193">
        <ele>1830.8</ele>
        <time>2022-01-13T05:54:54Z</time>
      </trkpt>
      <trkpt lat="45.69147" lon="6.26194">
        <ele>1831.7</ele>
        <time>2022-01-13T05:54:55Z</time>
      </trkpt>
      <trkpt lat="45.69147" lon="6.26194">
        <ele>1831.7</ele>
        <time>2022-01-13T05:54:56Z</time>
      </trkpt>
      <trkpt lat="45.69147" lon="6.26195">
        <ele>1832.8</ele>
        <time>2022-01-13T05:54:57Z</time>
      </trkpt>
      <trkpt lat="45.69148" lon="6.26196">
        <ele>1832.8</ele>
        <time>2022-01-13T05:54:58Z</time>
      </trkpt>
      <trkpt lat="45.69147" lon="6.26196">
        <ele>1832.8</ele>
        <time>2022-01-13T05:54:59Z</time>
      </trkpt>
      <trkpt lat="45.69147" lon="6.26197">
        <ele>1832.8</ele>
        <time>2022-01-13T05:55:00Z</time>
      </trkpt>
      <trkpt lat="45.69147" lon="6.26197">
        <ele>1833.9</ele>
        <time>2022-01-13T05:55:01Z</time>
      </trkpt>
      <trkpt lat="45.69147" lon="6.26197">
        <ele>1833.9</ele>
        <time>2022-01-13T05:55:02Z</time>
      </trkpt>
      <trkpt lat="45.69146" lon="6.26197">
        <ele>1833.9</ele>
        <time>2022-01-13T05:55:03Z</time>
      </trkpt>
      <trkpt lat="45.69146" lon="6.26196">
        <ele>1833.9</ele>
        <time>2022-01-13T05:55:04Z</time>
      </trkpt>
      <trkpt lat="45.69145" lon="6.26196">
        <ele>1834.8</ele>
        <time>2022-01-13T05:55:05Z</time>
      </trkpt>
      <trkpt lat="45.69144" lon="6.26196">
        <ele>1834.8</ele>
        <time>2022-01-13T05:55:06Z</time>
      </trkpt>
      <trkpt lat="45.69144" lon="6.26196">
        <ele>1834.8</ele>
        <time>2022-01-13T05:55:07Z</time>
      </trkpt>
      <trkpt lat="45.69143" lon="6.26196">
        <ele>1834.8</ele>
        <time>2022-01-13T05:55:08Z</time>
      </trkpt>
      <trkpt lat="45.69142" lon="6.26196">
        <ele>1834.8</ele>
        <time>2022-01-13T05:55:09Z</time>
      </trkpt>
      <trkpt lat="45.69141" lon="6.26196">
        <ele>1834.8</ele>
        <time>2022-01-13T05:55:10Z</time>
      </trkpt>
      <trkpt lat="45.69141" lon="6.26196">
        <ele>1835.8</ele>
        <time>2022-01-13T05:55:11Z</time>
      </trkpt>
      <trkpt lat="45.6914" lon="6.26196">
        <ele>1835.8</ele>
        <time>2022-01-13T05:55:12Z</time>
      </trkpt>
      <trkpt lat="45.69139" lon="6.26196">
        <ele>1835.8</ele>
        <time>2022-01-13T05:55:13Z</time>
      </trkpt>
      <trkpt lat="45.69138" lon="6.26196">
        <ele>1835.8</ele>
        <time>2022-01-13T05:55:14Z</time>
      </trkpt>
      <trkpt lat="45.69138" lon="6.26196">
        <ele>1835.8</ele>
        <time>2022-01-13T05:55:15Z</time>
      </trkpt>
      <trkpt lat="45.69137" lon="6.26196">
        <ele>1835.8</ele>
        <time>2022-01-13T05:55:16Z</time>
      </trkpt>
      <trkpt lat="45.69137" lon="6.26196">
        <ele>1835.8</ele>
        <time>2022-01-13T05:55:17Z</time>
      </trkpt>
      <trkpt lat="45.69136" lon="6.26196">
        <ele>1835.8</ele>
        <time>2022-01-13T05:55:18Z</time>
      </trkpt>
      <trkpt lat="45.69136" lon="6.26196">
        <ele>1836.7</ele>
        <time>2022-01-13T05:55:19Z</time>
      </trkpt>
      <trkpt lat="45.69136" lon="6.26196">
        <ele>1836.7</ele>
        <time>2022-01-13T05:55:20Z</time>
      </trkpt>
      <trkpt lat="45.69136" lon="6.26196">
        <ele>1836.7</ele>
        <time>2022-01-13T05:55:21Z</time>
      </trkpt>
      <trkpt lat="45.69136" lon="6.26196">
        <ele>1836.7</ele>
        <time>2022-01-13T05:55:22Z</time>
      </trkpt>
      <trkpt lat="45.69136" lon="6.26196">
        <ele>1837.8</ele>
        <time>2022-01-13T05:55:23Z</time>
      </trkpt>
      <trkpt lat="45.69137" lon="6.26197">
        <ele>1837.8</ele>
        <time>2022-01-13T05:55:24Z</time>
      </trkpt>
      <trkpt lat="45.69137" lon="6.26197">
        <ele>1837.8</ele>
        <time>2022-01-13T05:55:25Z</time>
      </trkpt>
      <trkpt lat="45.69137" lon="6.26197">
        <ele>1837.8</ele>
        <time>2022-01-13T05:55:26Z</time>
      </trkpt>
      <trkpt lat="45.69137" lon="6.26198">
        <ele>1837.8</ele>
        <time>2022-01-13T05:55:27Z</time>
      </trkpt>
      <trkpt lat="45.69138" lon="6.26199">
        <ele>1837.8</ele>
        <time>2022-01-13T05:55:28Z</time>
      </trkpt>
      <trkpt lat="45.69138" lon="6.26199">
        <ele>1838.7</ele>
        <time>2022-01-13T05:55:29Z</time>
      </trkpt>
      <trkpt lat="45.69139" lon="6.262">
        <ele>1838.7</ele>
        <time>2022-01-13T05:55:30Z</time>
      </trkpt>
      <trkpt lat="45.69139" lon="6.26201">
        <ele>1838.7</ele>
        <time>2022-01-13T05:55:31Z</time>
      </trkpt>
      <trkpt lat="45.69139" lon="6.26202">
        <ele>1838.7</ele>
        <time>2022-01-13T05:55:32Z</time>
      </trkpt>
      <trkpt lat="45.69139" lon="6.26203">
        <ele>1839.8</ele>
        <time>2022-01-13T05:55:33Z</time>
      </trkpt>
      <trkpt lat="45.6914" lon="6.26204">
        <ele>1839.8</ele>
        <time>2022-01-13T05:55:34Z</time>
      </trkpt>
      <trkpt lat="45.6914" lon="6.26205">
        <ele>1839.8</ele>
        <time>2022-01-13T05:55:35Z</time>
      </trkpt>
      <trkpt lat="45.6914" lon="6.26206">
        <ele>1839.8</ele>
        <time>2022-01-13T05:55:36Z</time>
      </trkpt>
      <trkpt lat="45.6914" lon="6.26206">
        <ele>1839.8</ele>
        <time>2022-01-13T05:55:37Z</time>
      </trkpt>
      <trkpt lat="45.69141" lon="6.26207">
        <ele>1839.8</ele>
        <time>2022-01-13T05:55:38Z</time>
      </trkpt>
      <trkpt lat="45.69141" lon="6.26208">
        <ele>1840.7</ele>
        <time>2022-01-13T05:55:39Z</time>
      </trkpt>
      <trkpt lat="45.69141" lon="6.26209">
        <ele>1840.7</ele>
        <time>2022-01-13T05:55:40Z</time>
      </trkpt>
      <trkpt lat="45.69141" lon="6.26209">
        <ele>1841.8</ele>
        <time>2022-01-13T05:55:41Z</time>
      </trkpt>
      <trkpt lat="45.69141" lon="6.2621">
        <ele>1841.8</ele>
        <time>2022-01-13T05:55:42Z</time>
      </trkpt>
      <trkpt lat="45.69142" lon="6.26211">
        <ele>1841.8</ele>
        <time>2022-01-13T05:55:43Z</time>
      </trkpt>
      <trkpt lat="45.69142" lon="6.26211">
        <ele>1841.8</ele>
        <time>2022-01-13T05:55:44Z</time>
      </trkpt>
      <trkpt lat="45.69142" lon="6.26212">
        <ele>1842.8</ele>
        <time>2022-01-13T05:55:45Z</time>
      </trkpt>
      <trkpt lat="45.69142" lon="6.26213">
        <ele>1842.8</ele>
        <time>2022-01-13T05:55:46Z</time>
      </trkpt>
      <trkpt lat="45.69143" lon="6.26214">
        <ele>1842.8</ele>
        <time>2022-01-13T05:55:47Z</time>
      </trkpt>
      <trkpt lat="45.69143" lon="6.26215">
        <ele>1842.8</ele>
        <time>2022-01-13T05:55:48Z</time>
      </trkpt>
      <trkpt lat="45.69143" lon="6.26216">
        <ele>1842.8</ele>
        <time>2022-01-13T05:55:49Z</time>
      </trkpt>
      <trkpt lat="45.69143" lon="6.26217">
        <ele>1842.8</ele>
        <time>2022-01-13T05:55:50Z</time>
      </trkpt>
      <trkpt lat="45.69144" lon="6.26217">
        <ele>1842.8</ele>
        <time>2022-01-13T05:55:51Z</time>
      </trkpt>
      <trkpt lat="45.69144" lon="6.26218">
        <ele>1842.8</ele>
        <time>2022-01-13T05:55:52Z</time>
      </trkpt>
      <trkpt lat="45.69144" lon="6.26218">
        <ele>1843.8</ele>
        <time>2022-01-13T05:55:53Z</time>
      </trkpt>
      <trkpt lat="45.69144" lon="6.26219">
        <ele>1843.8</ele>
        <time>2022-01-13T05:55:54Z</time>
      </trkpt>
      <trkpt lat="45.69144" lon="6.2622">
        <ele>1844.8</ele>
        <time>2022-01-13T05:55:55Z</time>
      </trkpt>
      <trkpt lat="45.69144" lon="6.2622">
        <ele>1844.8</ele>
        <time>2022-01-13T05:55:56Z</time>
      </trkpt>
      <trkpt lat="45.69143" lon="6.2622">
        <ele>1845.7</ele>
        <time>2022-01-13T05:55:57Z</time>
      </trkpt>
      <trkpt lat="45.69143" lon="6.2622">
        <ele>1845.7</ele>
        <time>2022-01-13T05:55:58Z</time>
      </trkpt>
      <trkpt lat="45.69142" lon="6.2622">
        <ele>1845.7</ele>
        <time>2022-01-13T05:55:59Z</time>
      </trkpt>
      <trkpt lat="45.69141" lon="6.2622">
        <ele>1845.7</ele>
        <time>2022-01-13T05:56:00Z</time>
      </trkpt>
      <trkpt lat="45.69141" lon="6.26219">
        <ele>1845.7</ele>
        <time>2022-01-13T05:56:01Z</time>
      </trkpt>
      <trkpt lat="45.6914" lon="6.26219">
        <ele>1845.7</ele>
        <time>2022-01-13T05:56:02Z</time>
      </trkpt>
      <trkpt lat="45.69139" lon="6.26219">
        <ele>1845.7</ele>
        <time>2022-01-13T05:56:03Z</time>
      </trkpt>
      <trkpt lat="45.69138" lon="6.26219">
        <ele>1845.7</ele>
        <time>2022-01-13T05:56:04Z</time>
      </trkpt>
      <trkpt lat="45.69138" lon="6.26219">
        <ele>1845.7</ele>
        <time>2022-01-13T05:56:05Z</time>
      </trkpt>
      <trkpt lat="45.69137" lon="6.26219">
        <ele>1845.7</ele>
        <time>2022-01-13T05:56:06Z</time>
      </trkpt>
      <trkpt lat="45.69137" lon="6.26219">
        <ele>1846.8</ele>
        <time>2022-01-13T05:56:07Z</time>
      </trkpt>
      <trkpt lat="45.69136" lon="6.26219">
        <ele>1846.8</ele>
        <time>2022-01-13T05:56:08Z</time>
      </trkpt>
      <trkpt lat="45.69135" lon="6.26218">
        <ele>1846.8</ele>
        <time>2022-01-13T05:56:09Z</time>
      </trkpt>
      <trkpt lat="45.69134" lon="6.26218">
        <ele>1846.8</ele>
        <time>2022-01-13T05:56:10Z</time>
      </trkpt>
      <trkpt lat="45.69134" lon="6.26218">
        <ele>1847.7</ele>
        <time>2022-01-13T05:56:11Z</time>
      </trkpt>
      <trkpt lat="45.69133" lon="6.26218">
        <ele>1847.7</ele>
        <time>2022-01-13T05:56:12Z</time>
      </trkpt>
      <trkpt lat="45.69133" lon="6.26218">
        <ele>1847.7</ele>
        <time>2022-01-13T05:56:13Z</time>
      </trkpt>
      <trkpt lat="45.69132" lon="6.26218">
        <ele>1847.7</ele>
        <time>2022-01-13T05:56:14Z</time>
      </trkpt>
      <trkpt lat="45.69131" lon="6.26218">
        <ele>1847.7</ele>
        <time>2022-01-13T05:56:15Z</time>
      </trkpt>
      <trkpt lat="45.6913" lon="6.26218">
        <ele>1847.7</ele>
        <time>2022-01-13T05:56:16Z</time>
      </trkpt>
      <trkpt lat="45.6913" lon="6.26218">
        <ele>1847.7</ele>
        <time>2022-01-13T05:56:17Z</time>
      </trkpt>
      <trkpt lat="45.69129" lon="6.26217">
        <ele>1847.7</ele>
        <time>2022-01-13T05:56:18Z</time>
      </trkpt>
      <trkpt lat="45.69128" lon="6.26217">
        <ele>1847.7</ele>
        <time>2022-01-13T05:56:19Z</time>
      </trkpt>
      <trkpt lat="45.69128" lon="6.26217">
        <ele>1847.7</ele>
        <time>2022-01-13T05:56:20Z</time>
      </trkpt>
      <trkpt lat="45.69127" lon="6.26217">
        <ele>1850.8</ele>
        <time>2022-01-13T05:56:21Z</time>
      </trkpt>
      <trkpt lat="45.69127" lon="6.26217">
        <ele>1850.8</ele>
        <time>2022-01-13T05:56:22Z</time>
      </trkpt>
      <trkpt lat="45.69126" lon="6.26216">
        <ele>1851.8</ele>
        <time>2022-01-13T05:56:23Z</time>
      </trkpt>
      <trkpt lat="45.69125" lon="6.26216">
        <ele>1851.8</ele>
        <time>2022-01-13T05:56:24Z</time>
      </trkpt>
      <trkpt lat="45.69125" lon="6.26216">
        <ele>1851.8</ele>
        <time>2022-01-13T05:56:25Z</time>
      </trkpt>
      <trkpt lat="45.69125" lon="6.26216">
        <ele>1851.8</ele>
        <time>2022-01-13T05:56:26Z</time>
      </trkpt>
      <trkpt lat="45.69125" lon="6.26216">
        <ele>1851.8</ele>
        <time>2022-01-13T05:56:27Z</time>
      </trkpt>
      <trkpt lat="45.69125" lon="6.26216">
        <ele>1851.8</ele>
        <time>2022-01-13T05:56:28Z</time>
      </trkpt>
      <trkpt lat="45.69125" lon="6.26217">
        <ele>1851.8</ele>
        <time>2022-01-13T05:56:29Z</time>
      </trkpt>
      <trkpt lat="45.69125" lon="6.26217">
        <ele>1851.8</ele>
        <time>2022-01-13T05:56:30Z</time>
      </trkpt>
      <trkpt lat="45.69125" lon="6.26218">
        <ele>1851.8</ele>
        <time>2022-01-13T05:56:31Z</time>
      </trkpt>
      <trkpt lat="45.69126" lon="6.26219">
        <ele>1851.8</ele>
        <time>2022-01-13T05:56:32Z</time>
      </trkpt>
      <trkpt lat="45.69126" lon="6.26219">
        <ele>1851.8</ele>
        <time>2022-01-13T05:56:33Z</time>
      </trkpt>
      <trkpt lat="45.69126" lon="6.2622">
        <ele>1851.8</ele>
        <time>2022-01-13T05:56:34Z</time>
      </trkpt>
      <trkpt lat="45.69126" lon="6.26221">
        <ele>1851.8</ele>
        <time>2022-01-13T05:56:35Z</time>
      </trkpt>
      <trkpt lat="45.69127" lon="6.26222">
        <ele>1851.8</ele>
        <time>2022-01-13T05:56:36Z</time>
      </trkpt>
      <trkpt lat="45.69127" lon="6.26223">
        <ele>1851.8</ele>
        <time>2022-01-13T05:56:37Z</time>
      </trkpt>
      <trkpt lat="45.69127" lon="6.26224">
        <ele>1851.8</ele>
        <time>2022-01-13T05:56:38Z</time>
      </trkpt>
      <trkpt lat="45.69127" lon="6.26225">
        <ele>1851.8</ele>
        <time>2022-01-13T05:56:39Z</time>
      </trkpt>
      <trkpt lat="45.69127" lon="6.26225">
        <ele>1851.8</ele>
        <time>2022-01-13T05:56:40Z</time>
      </trkpt>
      <trkpt lat="45.69128" lon="6.26227">
        <ele>1853.8</ele>
        <time>2022-01-13T05:56:41Z</time>
      </trkpt>
      <trkpt lat="45.69128" lon="6.26227">
        <ele>1853.8</ele>
        <time>2022-01-13T05:56:42Z</time>
      </trkpt>
      <trkpt lat="45.69128" lon="6.26228">
        <ele>1854.7</ele>
        <time>2022-01-13T05:56:43Z</time>
      </trkpt>
      <trkpt lat="45.69128" lon="6.26229">
        <ele>1854.7</ele>
        <time>2022-01-13T05:56:44Z</time>
      </trkpt>
      <trkpt lat="45.69129" lon="6.2623">
        <ele>1856.7</ele>
        <time>2022-01-13T05:56:45Z</time>
      </trkpt>
      <trkpt lat="45.69129" lon="6.26231">
        <ele>1856.7</ele>
        <time>2022-01-13T05:56:46Z</time>
      </trkpt>
      <trkpt lat="45.69129" lon="6.26231">
        <ele>1856.7</ele>
        <time>2022-01-13T05:56:47Z</time>
      </trkpt>
      <trkpt lat="45.6913" lon="6.26232">
        <ele>1856.7</ele>
        <time>2022-01-13T05:56:48Z</time>
      </trkpt>
      <trkpt lat="45.6913" lon="6.26233">
        <ele>1856.7</ele>
        <time>2022-01-13T05:56:49Z</time>
      </trkpt>
      <trkpt lat="45.69131" lon="6.26234">
        <ele>1856.7</ele>
        <time>2022-01-13T05:56:50Z</time>
      </trkpt>
      <trkpt lat="45.69131" lon="6.26234">
        <ele>1856.7</ele>
        <time>2022-01-13T05:56:51Z</time>
      </trkpt>
      <trkpt lat="45.6913" lon="6.26235">
        <ele>1856.7</ele>
        <time>2022-01-13T05:56:52Z</time>
      </trkpt>
      <trkpt lat="45.6913" lon="6.26235">
        <ele>1857.8</ele>
        <time>2022-01-13T05:56:53Z</time>
      </trkpt>
      <trkpt lat="45.6913" lon="6.26235">
        <ele>1857.8</ele>
        <time>2022-01-13T05:56:54Z</time>
      </trkpt>
      <trkpt lat="45.69129" lon="6.26235">
        <ele>1857.8</ele>
        <time>2022-01-13T05:56:55Z</time>
      </trkpt>
      <trkpt lat="45.69128" lon="6.26235">
        <ele>1857.8</ele>
        <time>2022-01-13T05:56:56Z</time>
      </trkpt>
      <trkpt lat="45.69128" lon="6.26234">
        <ele>1857.8</ele>
        <time>2022-01-13T05:56:57Z</time>
      </trkpt>
      <trkpt lat="45.69127" lon="6.26234">
        <ele>1857.8</ele>
        <time>2022-01-13T05:56:58Z</time>
      </trkpt>
      <trkpt lat="45.69126" lon="6.26234">
        <ele>1858.8</ele>
        <time>2022-01-13T05:56:59Z</time>
      </trkpt>
      <trkpt lat="45.69126" lon="6.26234">
        <ele>1858.8</ele>
        <time>2022-01-13T05:57:00Z</time>
      </trkpt>
      <trkpt lat="45.69125" lon="6.26234">
        <ele>1858.8</ele>
        <time>2022-01-13T05:57:01Z</time>
      </trkpt>
      <trkpt lat="45.69124" lon="6.26234">
        <ele>1858.8</ele>
        <time>2022-01-13T05:57:02Z</time>
      </trkpt>
      <trkpt lat="45.69124" lon="6.26234">
        <ele>1859.8</ele>
        <time>2022-01-13T05:57:03Z</time>
      </trkpt>
      <trkpt lat="45.69123" lon="6.26233">
        <ele>1859.8</ele>
        <time>2022-01-13T05:57:04Z</time>
      </trkpt>
      <trkpt lat="45.69122" lon="6.26233">
        <ele>1858.8</ele>
        <time>2022-01-13T05:57:05Z</time>
      </trkpt>
      <trkpt lat="45.69121" lon="6.26233">
        <ele>1858.8</ele>
        <time>2022-01-13T05:57:06Z</time>
      </trkpt>
      <trkpt lat="45.69121" lon="6.26233">
        <ele>1858.8</ele>
        <time>2022-01-13T05:57:07Z</time>
      </trkpt>
      <trkpt lat="45.6912" lon="6.26233">
        <ele>1858.8</ele>
        <time>2022-01-13T05:57:08Z</time>
      </trkpt>
      <trkpt lat="45.69119" lon="6.26233">
        <ele>1859.8</ele>
        <time>2022-01-13T05:57:09Z</time>
      </trkpt>
      <trkpt lat="45.69118" lon="6.26232">
        <ele>1859.8</ele>
        <time>2022-01-13T05:57:10Z</time>
      </trkpt>
      <trkpt lat="45.69118" lon="6.26232">
        <ele>1859.8</ele>
        <time>2022-01-13T05:57:11Z</time>
      </trkpt>
      <trkpt lat="45.69117" lon="6.26232">
        <ele>1859.8</ele>
        <time>2022-01-13T05:57:12Z</time>
      </trkpt>
      <trkpt lat="45.69116" lon="6.26232">
        <ele>1861.7</ele>
        <time>2022-01-13T05:57:13Z</time>
      </trkpt>
      <trkpt lat="45.69115" lon="6.26231">
        <ele>1861.7</ele>
        <time>2022-01-13T05:57:14Z</time>
      </trkpt>
      <trkpt lat="45.69115" lon="6.26231">
        <ele>1861.7</ele>
        <time>2022-01-13T05:57:15Z</time>
      </trkpt>
      <trkpt lat="45.69114" lon="6.26231">
        <ele>1861.7</ele>
        <time>2022-01-13T05:57:16Z</time>
      </trkpt>
      <trkpt lat="45.69113" lon="6.26231">
        <ele>1862.8</ele>
        <time>2022-01-13T05:57:17Z</time>
      </trkpt>
      <trkpt lat="45.69113" lon="6.26231">
        <ele>1862.8</ele>
        <time>2022-01-13T05:57:18Z</time>
      </trkpt>
      <trkpt lat="45.69113" lon="6.2623">
        <ele>1862.8</ele>
        <time>2022-01-13T05:57:19Z</time>
      </trkpt>
      <trkpt lat="45.69113" lon="6.2623">
        <ele>1862.8</ele>
        <time>2022-01-13T05:57:20Z</time>
      </trkpt>
      <trkpt lat="45.69113" lon="6.26231">
        <ele>1862.8</ele>
        <time>2022-01-13T05:57:21Z</time>
      </trkpt>
      <trkpt lat="45.69113" lon="6.26231">
        <ele>1862.8</ele>
        <time>2022-01-13T05:57:22Z</time>
      </trkpt>
      <trkpt lat="45.69113" lon="6.26231">
        <ele>1862.8</ele>
        <time>2022-01-13T05:57:23Z</time>
      </trkpt>
      <trkpt lat="45.69113" lon="6.26231">
        <ele>1862.8</ele>
        <time>2022-01-13T05:57:24Z</time>
      </trkpt>
      <trkpt lat="45.69113" lon="6.26232">
        <ele>1862.8</ele>
        <time>2022-01-13T05:57:25Z</time>
      </trkpt>
      <trkpt lat="45.69113" lon="6.26233">
        <ele>1862.8</ele>
        <time>2022-01-13T05:57:26Z</time>
      </trkpt>
      <trkpt lat="45.69113" lon="6.26233">
        <ele>1863.7</ele>
        <time>2022-01-13T05:57:27Z</time>
      </trkpt>
      <trkpt lat="45.69113" lon="6.26234">
        <ele>1863.7</ele>
        <time>2022-01-13T05:57:28Z</time>
      </trkpt>
      <trkpt lat="45.69114" lon="6.26235">
        <ele>1863.7</ele>
        <time>2022-01-13T05:57:29Z</time>
      </trkpt>
      <trkpt lat="45.69114" lon="6.26236">
        <ele>1863.7</ele>
        <time>2022-01-13T05:57:30Z</time>
      </trkpt>
      <trkpt lat="45.69114" lon="6.26237">
        <ele>1863.7</ele>
        <time>2022-01-13T05:57:31Z</time>
      </trkpt>
      <trkpt lat="45.69114" lon="6.26237">
        <ele>1863.7</ele>
        <time>2022-01-13T05:57:32Z</time>
      </trkpt>
      <trkpt lat="45.69115" lon="6.26239">
        <ele>1863.7</ele>
        <time>2022-01-13T05:57:33Z</time>
      </trkpt>
      <trkpt lat="45.69115" lon="6.26239">
        <ele>1863.7</ele>
        <time>2022-01-13T05:57:34Z</time>
      </trkpt>
      <trkpt lat="45.69115" lon="6.2624">
        <ele>1864.8</ele>
        <time>2022-01-13T05:57:35Z</time>
      </trkpt>
      <trkpt lat="45.69115" lon="6.26241">
        <ele>1864.8</ele>
        <time>2022-01-13T05:57:36Z</time>
      </trkpt>
      <trkpt lat="45.69115" lon="6.26242">
        <ele>1864.8</ele>
        <time>2022-01-13T05:57:37Z</time>
      </trkpt>
      <trkpt lat="45.69115" lon="6.26243">
        <ele>1864.8</ele>
        <time>2022-01-13T05:57:38Z</time>
      </trkpt>
      <trkpt lat="45.69116" lon="6.26244">
        <ele>1865.9</ele>
        <time>2022-01-13T05:57:39Z</time>
      </trkpt>
      <trkpt lat="45.69116" lon="6.26245">
        <ele>1865.9</ele>
        <time>2022-01-13T05:57:40Z</time>
      </trkpt>
      <trkpt lat="45.69116" lon="6.26246">
        <ele>1865.9</ele>
        <time>2022-01-13T05:57:41Z</time>
      </trkpt>
      <trkpt lat="45.69117" lon="6.26246">
        <ele>1865.9</ele>
        <time>2022-01-13T05:57:42Z</time>
      </trkpt>
      <trkpt lat="45.69117" lon="6.26247">
        <ele>1866.8</ele>
        <time>2022-01-13T05:57:43Z</time>
      </trkpt>
      <trkpt lat="45.69117" lon="6.26248">
        <ele>1866.8</ele>
        <time>2022-01-13T05:57:44Z</time>
      </trkpt>
      <trkpt lat="45.69117" lon="6.26249">
        <ele>1866.8</ele>
        <time>2022-01-13T05:57:45Z</time>
      </trkpt>
      <trkpt lat="45.69118" lon="6.26249">
        <ele>1866.8</ele>
        <time>2022-01-13T05:57:46Z</time>
      </trkpt>
      <trkpt lat="45.69118" lon="6.2625">
        <ele>1867.8</ele>
        <time>2022-01-13T05:57:47Z</time>
      </trkpt>
      <trkpt lat="45.69118" lon="6.26251">
        <ele>1867.8</ele>
        <time>2022-01-13T05:57:48Z</time>
      </trkpt>
      <trkpt lat="45.69118" lon="6.26251">
        <ele>1867.8</ele>
        <time>2022-01-13T05:57:49Z</time>
      </trkpt>
      <trkpt lat="45.69118" lon="6.26251">
        <ele>1867.8</ele>
        <time>2022-01-13T05:57:50Z</time>
      </trkpt>
      <trkpt lat="45.69117" lon="6.26251">
        <ele>1867.8</ele>
        <time>2022-01-13T05:57:51Z</time>
      </trkpt>
      <trkpt lat="45.69117" lon="6.26252">
        <ele>1867.8</ele>
        <time>2022-01-13T05:57:52Z</time>
      </trkpt>
      <trkpt lat="45.69116" lon="6.26252">
        <ele>1868.8</ele>
        <time>2022-01-13T05:57:53Z</time>
      </trkpt>
      <trkpt lat="45.69116" lon="6.26251">
        <ele>1868.8</ele>
        <time>2022-01-13T05:57:54Z</time>
      </trkpt>
      <trkpt lat="45.69115" lon="6.26251">
        <ele>1868.8</ele>
        <time>2022-01-13T05:57:55Z</time>
      </trkpt>
      <trkpt lat="45.69114" lon="6.26251">
        <ele>1868.8</ele>
        <time>2022-01-13T05:57:56Z</time>
      </trkpt>
      <trkpt lat="45.69114" lon="6.26251">
        <ele>1868.8</ele>
        <time>2022-01-13T05:57:57Z</time>
      </trkpt>
      <trkpt lat="45.69113" lon="6.26251">
        <ele>1868.8</ele>
        <time>2022-01-13T05:57:58Z</time>
      </trkpt>
      <trkpt lat="45.69112" lon="6.26251">
        <ele>1869.8</ele>
        <time>2022-01-13T05:57:59Z</time>
      </trkpt>
      <trkpt lat="45.69111" lon="6.26251">
        <ele>1869.8</ele>
        <time>2022-01-13T05:58:00Z</time>
      </trkpt>
      <trkpt lat="45.69111" lon="6.26251">
        <ele>1869.8</ele>
        <time>2022-01-13T05:58:01Z</time>
      </trkpt>
      <trkpt lat="45.6911" lon="6.26251">
        <ele>1869.8</ele>
        <time>2022-01-13T05:58:02Z</time>
      </trkpt>
      <trkpt lat="45.69109" lon="6.2625">
        <ele>1870.7</ele>
        <time>2022-01-13T05:58:03Z</time>
      </trkpt>
      <trkpt lat="45.69108" lon="6.2625">
        <ele>1870.7</ele>
        <time>2022-01-13T05:58:04Z</time>
      </trkpt>
      <trkpt lat="45.69108" lon="6.2625">
        <ele>1870.7</ele>
        <time>2022-01-13T05:58:05Z</time>
      </trkpt>
      <trkpt lat="45.69107" lon="6.2625">
        <ele>1870.7</ele>
        <time>2022-01-13T05:58:06Z</time>
      </trkpt>
      <trkpt lat="45.69106" lon="6.2625">
        <ele>1871.8</ele>
        <time>2022-01-13T05:58:07Z</time>
      </trkpt>
      <trkpt lat="45.69106" lon="6.2625">
        <ele>1871.8</ele>
        <time>2022-01-13T05:58:08Z</time>
      </trkpt>
      <trkpt lat="45.69105" lon="6.2625">
        <ele>1871.8</ele>
        <time>2022-01-13T05:58:09Z</time>
      </trkpt>
      <trkpt lat="45.69104" lon="6.2625">
        <ele>1871.8</ele>
        <time>2022-01-13T05:58:10Z</time>
      </trkpt>
      <trkpt lat="45.69103" lon="6.2625">
        <ele>1871.8</ele>
        <time>2022-01-13T05:58:11Z</time>
      </trkpt>
      <trkpt lat="45.69103" lon="6.26249">
        <ele>1871.8</ele>
        <time>2022-01-13T05:58:12Z</time>
      </trkpt>
      <trkpt lat="45.69102" lon="6.26249">
        <ele>1872.7</ele>
        <time>2022-01-13T05:58:13Z</time>
      </trkpt>
      <trkpt lat="45.69102" lon="6.26249">
        <ele>1872.7</ele>
        <time>2022-01-13T05:58:14Z</time>
      </trkpt>
      <trkpt lat="45.69101" lon="6.26248">
        <ele>1872.7</ele>
        <time>2022-01-13T05:58:15Z</time>
      </trkpt>
      <trkpt lat="45.69101" lon="6.26248">
        <ele>1872.7</ele>
        <time>2022-01-13T05:58:16Z</time>
      </trkpt>
      <trkpt lat="45.691" lon="6.26247">
        <ele>1872.7</ele>
        <time>2022-01-13T05:58:17Z</time>
      </trkpt>
      <trkpt lat="45.691" lon="6.26247">
        <ele>1872.7</ele>
        <time>2022-01-13T05:58:18Z</time>
      </trkpt>
      <trkpt lat="45.69099" lon="6.26247">
        <ele>1872.7</ele>
        <time>2022-01-13T05:58:19Z</time>
      </trkpt>
      <trkpt lat="45.69099" lon="6.26247">
        <ele>1872.7</ele>
        <time>2022-01-13T05:58:20Z</time>
      </trkpt>
      <trkpt lat="45.69099" lon="6.26247">
        <ele>1874.8</ele>
        <time>2022-01-13T05:58:21Z</time>
      </trkpt>
      <trkpt lat="45.69099" lon="6.26247">
        <ele>1874.8</ele>
        <time>2022-01-13T05:58:22Z</time>
      </trkpt>
      <trkpt lat="45.69099" lon="6.26248">
        <ele>1874.8</ele>
        <time>2022-01-13T05:58:23Z</time>
      </trkpt>
      <trkpt lat="45.69099" lon="6.26248">
        <ele>1874.8</ele>
        <time>2022-01-13T05:58:24Z</time>
      </trkpt>
      <trkpt lat="45.691" lon="6.26249">
        <ele>1874.8</ele>
        <time>2022-01-13T05:58:25Z</time>
      </trkpt>
      <trkpt lat="45.691" lon="6.2625">
        <ele>1874.8</ele>
        <time>2022-01-13T05:58:26Z</time>
      </trkpt>
      <trkpt lat="45.691" lon="6.26251">
        <ele>1874.8</ele>
        <time>2022-01-13T05:58:27Z</time>
      </trkpt>
      <trkpt lat="45.691" lon="6.26252">
        <ele>1874.8</ele>
        <time>2022-01-13T05:58:28Z</time>
      </trkpt>
      <trkpt lat="45.691" lon="6.26252">
        <ele>1874.8</ele>
        <time>2022-01-13T05:58:29Z</time>
      </trkpt>
      <trkpt lat="45.691" lon="6.26254">
        <ele>1874.8</ele>
        <time>2022-01-13T05:58:30Z</time>
      </trkpt>
      <trkpt lat="45.691" lon="6.26254">
        <ele>1876.8</ele>
        <time>2022-01-13T05:58:31Z</time>
      </trkpt>
      <trkpt lat="45.691" lon="6.26254">
        <ele>1876.8</ele>
        <time>2022-01-13T05:58:32Z</time>
      </trkpt>
      <trkpt lat="45.691" lon="6.26255">
        <ele>1877.7</ele>
        <time>2022-01-13T05:58:33Z</time>
      </trkpt>
      <trkpt lat="45.691" lon="6.26256">
        <ele>1877.7</ele>
        <time>2022-01-13T05:58:34Z</time>
      </trkpt>
      <trkpt lat="45.691" lon="6.26256">
        <ele>1877.7</ele>
        <time>2022-01-13T05:58:35Z</time>
      </trkpt>
      <trkpt lat="45.691" lon="6.26257">
        <ele>1877.7</ele>
        <time>2022-01-13T05:58:36Z</time>
      </trkpt>
      <trkpt lat="45.69101" lon="6.26257">
        <ele>1877.7</ele>
        <time>2022-01-13T05:58:37Z</time>
      </trkpt>
      <trkpt lat="45.69101" lon="6.26258">
        <ele>1877.7</ele>
        <time>2022-01-13T05:58:38Z</time>
      </trkpt>
      <trkpt lat="45.69101" lon="6.26259">
        <ele>1877.7</ele>
        <time>2022-01-13T05:58:39Z</time>
      </trkpt>
      <trkpt lat="45.69101" lon="6.26259">
        <ele>1877.7</ele>
        <time>2022-01-13T05:58:40Z</time>
      </trkpt>
      <trkpt lat="45.69101" lon="6.2626">
        <ele>1878.8</ele>
        <time>2022-01-13T05:58:41Z</time>
      </trkpt>
      <trkpt lat="45.69101" lon="6.26261">
        <ele>1878.8</ele>
        <time>2022-01-13T05:58:42Z</time>
      </trkpt>
      <trkpt lat="45.69102" lon="6.26262">
        <ele>1878.8</ele>
        <time>2022-01-13T05:58:43Z</time>
      </trkpt>
      <trkpt lat="45.69102" lon="6.26263">
        <ele>1878.8</ele>
        <time>2022-01-13T05:58:44Z</time>
      </trkpt>
      <trkpt lat="45.69102" lon="6.26264">
        <ele>1879.7</ele>
        <time>2022-01-13T05:58:45Z</time>
      </trkpt>
      <trkpt lat="45.69102" lon="6.26265">
        <ele>1879.7</ele>
        <time>2022-01-13T05:58:46Z</time>
      </trkpt>
      <trkpt lat="45.69103" lon="6.26266">
        <ele>1879.7</ele>
        <time>2022-01-13T05:58:47Z</time>
      </trkpt>
      <trkpt lat="45.69103" lon="6.26266">
        <ele>1879.7</ele>
        <time>2022-01-13T05:58:48Z</time>
      </trkpt>
      <trkpt lat="45.69103" lon="6.26267">
        <ele>1879.7</ele>
        <time>2022-01-13T05:58:49Z</time>
      </trkpt>
      <trkpt lat="45.69104" lon="6.26268">
        <ele>1879.7</ele>
        <time>2022-01-13T05:58:50Z</time>
      </trkpt>
      <trkpt lat="45.69104" lon="6.26269">
        <ele>1880.8</ele>
        <time>2022-01-13T05:58:51Z</time>
      </trkpt>
      <trkpt lat="45.69104" lon="6.26269">
        <ele>1880.8</ele>
        <time>2022-01-13T05:58:52Z</time>
      </trkpt>
      <trkpt lat="45.69104" lon="6.2627">
        <ele>1881.7</ele>
        <time>2022-01-13T05:58:53Z</time>
      </trkpt>
      <trkpt lat="45.69104" lon="6.2627">
        <ele>1881.7</ele>
        <time>2022-01-13T05:58:54Z</time>
      </trkpt>
      <trkpt lat="45.69104" lon="6.26271">
        <ele>1881.7</ele>
        <time>2022-01-13T05:58:55Z</time>
      </trkpt>
      <trkpt lat="45.69103" lon="6.26271">
        <ele>1881.7</ele>
        <time>2022-01-13T05:58:56Z</time>
      </trkpt>
      <trkpt lat="45.69103" lon="6.26271">
        <ele>1882.8</ele>
        <time>2022-01-13T05:58:57Z</time>
      </trkpt>
      <trkpt lat="45.69102" lon="6.2627">
        <ele>1882.8</ele>
        <time>2022-01-13T05:58:58Z</time>
      </trkpt>
      <trkpt lat="45.69101" lon="6.2627">
        <ele>1882.8</ele>
        <time>2022-01-13T05:58:59Z</time>
      </trkpt>
      <trkpt lat="45.691" lon="6.2627">
        <ele>1882.8</ele>
        <time>2022-01-13T05:59:00Z</time>
      </trkpt>
      <trkpt lat="45.691" lon="6.26269">
        <ele>1882.8</ele>
        <time>2022-01-13T05:59:01Z</time>
      </trkpt>
      <trkpt lat="45.69099" lon="6.26269">
        <ele>1882.8</ele>
        <time>2022-01-13T05:59:02Z</time>
      </trkpt>
      <trkpt lat="45.69099" lon="6.26269">
        <ele>1883.8</ele>
        <time>2022-01-13T05:59:03Z</time>
      </trkpt>
      <trkpt lat="45.69098" lon="6.26268">
        <ele>1883.8</ele>
        <time>2022-01-13T05:59:04Z</time>
      </trkpt>
      <trkpt lat="45.69097" lon="6.26268">
        <ele>1883.8</ele>
        <time>2022-01-13T05:59:05Z</time>
      </trkpt>
      <trkpt lat="45.69097" lon="6.26267">
        <ele>1883.8</ele>
        <time>2022-01-13T05:59:06Z</time>
      </trkpt>
      <trkpt lat="45.69096" lon="6.26267">
        <ele>1884.8</ele>
        <time>2022-01-13T05:59:07Z</time>
      </trkpt>
      <trkpt lat="45.69096" lon="6.26267">
        <ele>1884.8</ele>
        <time>2022-01-13T05:59:08Z</time>
      </trkpt>
      <trkpt lat="45.69095" lon="6.26266">
        <ele>1885.8</ele>
        <time>2022-01-13T05:59:09Z</time>
      </trkpt>
      <trkpt lat="45.69095" lon="6.26266">
        <ele>1885.8</ele>
        <time>2022-01-13T05:59:10Z</time>
      </trkpt>
      <trkpt lat="45.69094" lon="6.26265">
        <ele>1885.8</ele>
        <time>2022-01-13T05:59:11Z</time>
      </trkpt>
      <trkpt lat="45.69093" lon="6.26265">
        <ele>1885.8</ele>
        <time>2022-01-13T05:59:12Z</time>
      </trkpt>
      <trkpt lat="45.69093" lon="6.26265">
        <ele>1885.8</ele>
        <time>2022-01-13T05:59:13Z</time>
      </trkpt>
      <trkpt lat="45.69092" lon="6.26265">
        <ele>1885.8</ele>
        <time>2022-01-13T05:59:14Z</time>
      </trkpt>
      <trkpt lat="45.69092" lon="6.26265">
        <ele>1886.7</ele>
        <time>2022-01-13T05:59:15Z</time>
      </trkpt>
      <trkpt lat="45.69091" lon="6.26264">
        <ele>1886.7</ele>
        <time>2022-01-13T05:59:16Z</time>
      </trkpt>
      <trkpt lat="45.6909" lon="6.26264">
        <ele>1886.7</ele>
        <time>2022-01-13T05:59:17Z</time>
      </trkpt>
      <trkpt lat="45.6909" lon="6.26264">
        <ele>1886.7</ele>
        <time>2022-01-13T05:59:18Z</time>
      </trkpt>
      <trkpt lat="45.69089" lon="6.26263">
        <ele>1886.7</ele>
        <time>2022-01-13T05:59:19Z</time>
      </trkpt>
      <trkpt lat="45.69088" lon="6.26263">
        <ele>1886.7</ele>
        <time>2022-01-13T05:59:20Z</time>
      </trkpt>
      <trkpt lat="45.69087" lon="6.26262">
        <ele>1887.8</ele>
        <time>2022-01-13T05:59:21Z</time>
      </trkpt>
      <trkpt lat="45.69087" lon="6.26262">
        <ele>1887.8</ele>
        <time>2022-01-13T05:59:22Z</time>
      </trkpt>
      <trkpt lat="45.69086" lon="6.26262">
        <ele>1887.8</ele>
        <time>2022-01-13T05:59:23Z</time>
      </trkpt>
      <trkpt lat="45.69086" lon="6.26262">
        <ele>1887.8</ele>
        <time>2022-01-13T05:59:24Z</time>
      </trkpt>
      <trkpt lat="45.69085" lon="6.26262">
        <ele>1888.7</ele>
        <time>2022-01-13T05:59:25Z</time>
      </trkpt>
      <trkpt lat="45.69084" lon="6.26262">
        <ele>1888.7</ele>
        <time>2022-01-13T05:59:26Z</time>
      </trkpt>
      <trkpt lat="45.69084" lon="6.26262">
        <ele>1888.7</ele>
        <time>2022-01-13T05:59:27Z</time>
      </trkpt>
      <trkpt lat="45.69083" lon="6.26262">
        <ele>1888.7</ele>
        <time>2022-01-13T05:59:28Z</time>
      </trkpt>
      <trkpt lat="45.69083" lon="6.26261">
        <ele>1889.8</ele>
        <time>2022-01-13T05:59:29Z</time>
      </trkpt>
      <trkpt lat="45.69082" lon="6.2626">
        <ele>1889.8</ele>
        <time>2022-01-13T05:59:30Z</time>
      </trkpt>
      <trkpt lat="45.69081" lon="6.2626">
        <ele>1890.9</ele>
        <time>2022-01-13T05:59:31Z</time>
      </trkpt>
      <trkpt lat="45.6908" lon="6.2626">
        <ele>1890.9</ele>
        <time>2022-01-13T05:59:32Z</time>
      </trkpt>
      <trkpt lat="45.6908" lon="6.26259">
        <ele>1890.9</ele>
        <time>2022-01-13T05:59:33Z</time>
      </trkpt>
      <trkpt lat="45.69079" lon="6.26259">
        <ele>1890.9</ele>
        <time>2022-01-13T05:59:34Z</time>
      </trkpt>
      <trkpt lat="45.69078" lon="6.26258">
        <ele>1890.9</ele>
        <time>2022-01-13T05:59:35Z</time>
      </trkpt>
      <trkpt lat="45.69078" lon="6.26258">
        <ele>1890.9</ele>
        <time>2022-01-13T05:59:36Z</time>
      </trkpt>
      <trkpt lat="45.69077" lon="6.26258">
        <ele>1891.8</ele>
        <time>2022-01-13T05:59:37Z</time>
      </trkpt>
      <trkpt lat="45.69077" lon="6.26258">
        <ele>1891.8</ele>
        <time>2022-01-13T05:59:38Z</time>
      </trkpt>
      <trkpt lat="45.69076" lon="6.26257">
        <ele>1891.8</ele>
        <time>2022-01-13T05:59:39Z</time>
      </trkpt>
      <trkpt lat="45.69075" lon="6.26257">
        <ele>1891.8</ele>
        <time>2022-01-13T05:59:40Z</time>
      </trkpt>
      <trkpt lat="45.69075" lon="6.26257">
        <ele>1892.8</ele>
        <time>2022-01-13T05:59:41Z</time>
      </trkpt>
      <trkpt lat="45.69075" lon="6.26257">
        <ele>1892.8</ele>
        <time>2022-01-13T05:59:42Z</time>
      </trkpt>
      <trkpt lat="45.69075" lon="6.26257">
        <ele>1892.8</ele>
        <time>2022-01-13T05:59:43Z</time>
      </trkpt>
      <trkpt lat="45.69075" lon="6.26257">
        <ele>1892.8</ele>
        <time>2022-01-13T05:59:44Z</time>
      </trkpt>
      <trkpt lat="45.69075" lon="6.26258">
        <ele>1892.8</ele>
        <time>2022-01-13T05:59:45Z</time>
      </trkpt>
      <trkpt lat="45.69076" lon="6.26259">
        <ele>1892.8</ele>
        <time>2022-01-13T05:59:46Z</time>
      </trkpt>
      <trkpt lat="45.69076" lon="6.2626">
        <ele>1892.8</ele>
        <time>2022-01-13T05:59:47Z</time>
      </trkpt>
      <trkpt lat="45.69076" lon="6.26261">
        <ele>1892.8</ele>
        <time>2022-01-13T05:59:48Z</time>
      </trkpt>
      <trkpt lat="45.69077" lon="6.26262">
        <ele>1893.7</ele>
        <time>2022-01-13T05:59:49Z</time>
      </trkpt>
      <trkpt lat="45.69077" lon="6.26262">
        <ele>1893.7</ele>
        <time>2022-01-13T05:59:50Z</time>
      </trkpt>
      <trkpt lat="45.69077" lon="6.26264">
        <ele>1893.7</ele>
        <time>2022-01-13T05:59:51Z</time>
      </trkpt>
      <trkpt lat="45.69077" lon="6.26265">
        <ele>1893.7</ele>
        <time>2022-01-13T05:59:52Z</time>
      </trkpt>
      <trkpt lat="45.69078" lon="6.26265">
        <ele>1894.8</ele>
        <time>2022-01-13T05:59:53Z</time>
      </trkpt>
      <trkpt lat="45.69078" lon="6.26266">
        <ele>1894.8</ele>
        <time>2022-01-13T05:59:54Z</time>
      </trkpt>
      <trkpt lat="45.69078" lon="6.26267">
        <ele>1894.8</ele>
        <time>2022-01-13T05:59:55Z</time>
      </trkpt>
      <trkpt lat="45.69079" lon="6.26268">
        <ele>1894.8</ele>
        <time>2022-01-13T05:59:56Z</time>
      </trkpt>
      <trkpt lat="45.69079" lon="6.26269">
        <ele>1895.7</ele>
        <time>2022-01-13T05:59:57Z</time>
      </trkpt>
      <trkpt lat="45.69079" lon="6.2627">
        <ele>1895.7</ele>
        <time>2022-01-13T05:59:58Z</time>
      </trkpt>
      <trkpt lat="45.69079" lon="6.2627">
        <ele>1896.8</ele>
        <time>2022-01-13T05:59:59Z</time>
      </trkpt>
      <trkpt lat="45.6908" lon="6.26271">
        <ele>1896.8</ele>
        <time>2022-01-13T06:00:00Z</time>
      </trkpt>
      <trkpt lat="45.6908" lon="6.26272">
        <ele>1896.8</ele>
        <time>2022-01-13T06:00:01Z</time>
      </trkpt>
      <trkpt lat="45.6908" lon="6.26273">
        <ele>1896.8</ele>
        <time>2022-01-13T06:00:02Z</time>
      </trkpt>
      <trkpt lat="45.69081" lon="6.26274">
        <ele>1896.8</ele>
        <time>2022-01-13T06:00:03Z</time>
      </trkpt>
      <trkpt lat="45.69081" lon="6.26275">
        <ele>1896.8</ele>
        <time>2022-01-13T06:00:04Z</time>
      </trkpt>
      <trkpt lat="45.69081" lon="6.26275">
        <ele>1896.8</ele>
        <time>2022-01-13T06:00:05Z</time>
      </trkpt>
      <trkpt lat="45.69082" lon="6.26276">
        <ele>1896.8</ele>
        <time>2022-01-13T06:00:06Z</time>
      </trkpt>
      <trkpt lat="45.69082" lon="6.26277">
        <ele>1897.7</ele>
        <time>2022-01-13T06:00:07Z</time>
      </trkpt>
      <trkpt lat="45.69082" lon="6.26278">
        <ele>1897.7</ele>
        <time>2022-01-13T06:00:08Z</time>
      </trkpt>
      <trkpt lat="45.69082" lon="6.26279">
        <ele>1897.7</ele>
        <time>2022-01-13T06:00:09Z</time>
      </trkpt>
      <trkpt lat="45.69082" lon="6.2628">
        <ele>1897.7</ele>
        <time>2022-01-13T06:00:10Z</time>
      </trkpt>
      <trkpt lat="45.69082" lon="6.26281">
        <ele>1898.8</ele>
        <time>2022-01-13T06:00:11Z</time>
      </trkpt>
      <trkpt lat="45.69082" lon="6.26282">
        <ele>1898.8</ele>
        <time>2022-01-13T06:00:12Z</time>
      </trkpt>
      <trkpt lat="45.69082" lon="6.26283">
        <ele>1898.8</ele>
        <time>2022-01-13T06:00:13Z</time>
      </trkpt>
      <trkpt lat="45.69082" lon="6.26283">
        <ele>1898.8</ele>
        <time>2022-01-13T06:00:14Z</time>
      </trkpt>
      <trkpt lat="45.69083" lon="6.26284">
        <ele>1899.8</ele>
        <time>2022-01-13T06:00:15Z</time>
      </trkpt>
      <trkpt lat="45.69083" lon="6.26285">
        <ele>1899.8</ele>
        <time>2022-01-13T06:00:16Z</time>
      </trkpt>
      <trkpt lat="45.69083" lon="6.26286">
        <ele>1900.8</ele>
        <time>2022-01-13T06:00:17Z</time>
      </trkpt>
      <trkpt lat="45.69083" lon="6.26287">
        <ele>1900.8</ele>
        <time>2022-01-13T06:00:18Z</time>
      </trkpt>
      <trkpt lat="45.69084" lon="6.26288">
        <ele>1900.8</ele>
        <time>2022-01-13T06:00:19Z</time>
      </trkpt>
      <trkpt lat="45.69084" lon="6.26289">
        <ele>1900.8</ele>
        <time>2022-01-13T06:00:20Z</time>
      </trkpt>
      <trkpt lat="45.69083" lon="6.26289">
        <ele>1901.8</ele>
        <time>2022-01-13T06:00:21Z</time>
      </trkpt>
      <trkpt lat="45.69083" lon="6.26289">
        <ele>1901.8</ele>
        <time>2022-01-13T06:00:22Z</time>
      </trkpt>
      <trkpt lat="45.69083" lon="6.26289">
        <ele>1901.8</ele>
        <time>2022-01-13T06:00:23Z</time>
      </trkpt>
      <trkpt lat="45.69082" lon="6.26289">
        <ele>1901.8</ele>
        <time>2022-01-13T06:00:24Z</time>
      </trkpt>
      <trkpt lat="45.69082" lon="6.26288">
        <ele>1901.8</ele>
        <time>2022-01-13T06:00:25Z</time>
      </trkpt>
      <trkpt lat="45.69081" lon="6.26288">
        <ele>1901.8</ele>
        <time>2022-01-13T06:00:26Z</time>
      </trkpt>
      <trkpt lat="45.6908" lon="6.26288">
        <ele>1901.8</ele>
        <time>2022-01-13T06:00:27Z</time>
      </trkpt>
      <trkpt lat="45.6908" lon="6.26287">
        <ele>1901.8</ele>
        <time>2022-01-13T06:00:28Z</time>
      </trkpt>
      <trkpt lat="45.69079" lon="6.26287">
        <ele>1901.8</ele>
        <time>2022-01-13T06:00:29Z</time>
      </trkpt>
      <trkpt lat="45.69078" lon="6.26287">
        <ele>1901.8</ele>
        <time>2022-01-13T06:00:30Z</time>
      </trkpt>
      <trkpt lat="45.69078" lon="6.26287">
        <ele>1901.8</ele>
        <time>2022-01-13T06:00:31Z</time>
      </trkpt>
      <trkpt lat="45.69077" lon="6.26286">
        <ele>1901.8</ele>
        <time>2022-01-13T06:00:32Z</time>
      </trkpt>
      <trkpt lat="45.69076" lon="6.26286">
        <ele>1904.7</ele>
        <time>2022-01-13T06:00:33Z</time>
      </trkpt>
      <trkpt lat="45.69076" lon="6.26286">
        <ele>1904.7</ele>
        <time>2022-01-13T06:00:34Z</time>
      </trkpt>
      <trkpt lat="45.69075" lon="6.26286">
        <ele>1904.7</ele>
        <time>2022-01-13T06:00:35Z</time>
      </trkpt>
      <trkpt lat="45.69074" lon="6.26285">
        <ele>1904.7</ele>
        <time>2022-01-13T06:00:36Z</time>
      </trkpt>
      <trkpt lat="45.69073" lon="6.26285">
        <ele>1904.7</ele>
        <time>2022-01-13T06:00:37Z</time>
      </trkpt>
      <trkpt lat="45.69072" lon="6.26285">
        <ele>1904.7</ele>
        <time>2022-01-13T06:00:38Z</time>
      </trkpt>
      <trkpt lat="45.69071" lon="6.26285">
        <ele>1905.8</ele>
        <time>2022-01-13T06:00:39Z</time>
      </trkpt>
      <trkpt lat="45.69071" lon="6.26285">
        <ele>1905.8</ele>
        <time>2022-01-13T06:00:40Z</time>
      </trkpt>
      <trkpt lat="45.6907" lon="6.26284">
        <ele>1905.8</ele>
        <time>2022-01-13T06:00:41Z</time>
      </trkpt>
      <trkpt lat="45.69069" lon="6.26284">
        <ele>1905.8</ele>
        <time>2022-01-13T06:00:42Z</time>
      </trkpt>
      <trkpt lat="45.69068" lon="6.26284">
        <ele>1906.9</ele>
        <time>2022-01-13T06:00:43Z</time>
      </trkpt>
      <trkpt lat="45.69068" lon="6.26284">
        <ele>1906.9</ele>
        <time>2022-01-13T06:00:44Z</time>
      </trkpt>
      <trkpt lat="45.69067" lon="6.26283">
        <ele>1906.9</ele>
        <time>2022-01-13T06:00:45Z</time>
      </trkpt>
      <trkpt lat="45.69066" lon="6.26283">
        <ele>1906.9</ele>
        <time>2022-01-13T06:00:46Z</time>
      </trkpt>
      <trkpt lat="45.69066" lon="6.26283">
        <ele>1907.8</ele>
        <time>2022-01-13T06:00:47Z</time>
      </trkpt>
      <trkpt lat="45.69065" lon="6.26283">
        <ele>1907.8</ele>
        <time>2022-01-13T06:00:48Z</time>
      </trkpt>
      <trkpt lat="45.69064" lon="6.26283">
        <ele>1907.8</ele>
        <time>2022-01-13T06:00:49Z</time>
      </trkpt>
      <trkpt lat="45.69063" lon="6.26283">
        <ele>1907.8</ele>
        <time>2022-01-13T06:00:50Z</time>
      </trkpt>
      <trkpt lat="45.69062" lon="6.26283">
        <ele>1908.8</ele>
        <time>2022-01-13T06:00:51Z</time>
      </trkpt>
      <trkpt lat="45.69062" lon="6.26283">
        <ele>1908.8</ele>
        <time>2022-01-13T06:00:52Z</time>
      </trkpt>
      <trkpt lat="45.69061" lon="6.26282">
        <ele>1908.8</ele>
        <time>2022-01-13T06:00:53Z</time>
      </trkpt>
      <trkpt lat="45.6906" lon="6.26282">
        <ele>1908.8</ele>
        <time>2022-01-13T06:00:54Z</time>
      </trkpt>
      <trkpt lat="45.69059" lon="6.26282">
        <ele>1909.7</ele>
        <time>2022-01-13T06:00:55Z</time>
      </trkpt>
      <trkpt lat="45.69059" lon="6.26282">
        <ele>1909.7</ele>
        <time>2022-01-13T06:00:56Z</time>
      </trkpt>
      <trkpt lat="45.69058" lon="6.26281">
        <ele>1909.7</ele>
        <time>2022-01-13T06:00:57Z</time>
      </trkpt>
      <trkpt lat="45.69057" lon="6.26281">
        <ele>1909.7</ele>
        <time>2022-01-13T06:00:58Z</time>
      </trkpt>
      <trkpt lat="45.69056" lon="6.26281">
        <ele>1909.7</ele>
        <time>2022-01-13T06:00:59Z</time>
      </trkpt>
      <trkpt lat="45.69056" lon="6.26281">
        <ele>1909.7</ele>
        <time>2022-01-13T06:01:00Z</time>
      </trkpt>
      <trkpt lat="45.69055" lon="6.26281">
        <ele>1909.7</ele>
        <time>2022-01-13T06:01:01Z</time>
      </trkpt>
      <trkpt lat="45.69055" lon="6.26281">
        <ele>1909.7</ele>
        <time>2022-01-13T06:01:02Z</time>
      </trkpt>
      <trkpt lat="45.69054" lon="6.26281">
        <ele>1910.8</ele>
        <time>2022-01-13T06:01:03Z</time>
      </trkpt>
      <trkpt lat="45.69053" lon="6.26281">
        <ele>1910.8</ele>
        <time>2022-01-13T06:01:04Z</time>
      </trkpt>
      <trkpt lat="45.69052" lon="6.26282">
        <ele>1911.7</ele>
        <time>2022-01-13T06:01:05Z</time>
      </trkpt>
      <trkpt lat="45.69052" lon="6.26281">
        <ele>1911.7</ele>
        <time>2022-01-13T06:01:06Z</time>
      </trkpt>
      <trkpt lat="45.69051" lon="6.26281">
        <ele>1911.7</ele>
        <time>2022-01-13T06:01:07Z</time>
      </trkpt>
      <trkpt lat="45.6905" lon="6.26281">
        <ele>1911.7</ele>
        <time>2022-01-13T06:01:08Z</time>
      </trkpt>
      <trkpt lat="45.6905" lon="6.26281">
        <ele>1912.8</ele>
        <time>2022-01-13T06:01:09Z</time>
      </trkpt>
      <trkpt lat="45.69049" lon="6.26281">
        <ele>1912.8</ele>
        <time>2022-01-13T06:01:10Z</time>
      </trkpt>
      <trkpt lat="45.69048" lon="6.26281">
        <ele>1912.8</ele>
        <time>2022-01-13T06:01:11Z</time>
      </trkpt>
      <trkpt lat="45.69047" lon="6.26281">
        <ele>1912.8</ele>
        <time>2022-01-13T06:01:12Z</time>
      </trkpt>
      <trkpt lat="45.69046" lon="6.2628">
        <ele>1912.8</ele>
        <time>2022-01-13T06:01:13Z</time>
      </trkpt>
      <trkpt lat="45.69046" lon="6.2628">
        <ele>1912.8</ele>
        <time>2022-01-13T06:01:14Z</time>
      </trkpt>
      <trkpt lat="45.69045" lon="6.2628">
        <ele>1912.8</ele>
        <time>2022-01-13T06:01:15Z</time>
      </trkpt>
      <trkpt lat="45.69044" lon="6.26279">
        <ele>1912.8</ele>
        <time>2022-01-13T06:01:16Z</time>
      </trkpt>
      <trkpt lat="45.69043" lon="6.26279">
        <ele>1913.7</ele>
        <time>2022-01-13T06:01:17Z</time>
      </trkpt>
      <trkpt lat="45.69043" lon="6.26278">
        <ele>1913.7</ele>
        <time>2022-01-13T06:01:18Z</time>
      </trkpt>
      <trkpt lat="45.69042" lon="6.26278">
        <ele>1913.7</ele>
        <time>2022-01-13T06:01:19Z</time>
      </trkpt>
      <trkpt lat="45.69041" lon="6.26278">
        <ele>1913.7</ele>
        <time>2022-01-13T06:01:20Z</time>
      </trkpt>
      <trkpt lat="45.6904" lon="6.26278">
        <ele>1913.7</ele>
        <time>2022-01-13T06:01:21Z</time>
      </trkpt>
      <trkpt lat="45.6904" lon="6.26278">
        <ele>1913.7</ele>
        <time>2022-01-13T06:01:22Z</time>
      </trkpt>
      <trkpt lat="45.69039" lon="6.26277">
        <ele>1914.8</ele>
        <time>2022-01-13T06:01:23Z</time>
      </trkpt>
      <trkpt lat="45.69038" lon="6.26276">
        <ele>1914.8</ele>
        <time>2022-01-13T06:01:24Z</time>
      </trkpt>
      <trkpt lat="45.69038" lon="6.26276">
        <ele>1914.8</ele>
        <time>2022-01-13T06:01:25Z</time>
      </trkpt>
      <trkpt lat="45.69037" lon="6.26275">
        <ele>1914.8</ele>
        <time>2022-01-13T06:01:26Z</time>
      </trkpt>
      <trkpt lat="45.69036" lon="6.26275">
        <ele>1914.8</ele>
        <time>2022-01-13T06:01:27Z</time>
      </trkpt>
      <trkpt lat="45.69035" lon="6.26274">
        <ele>1914.8</ele>
        <time>2022-01-13T06:01:28Z</time>
      </trkpt>
      <trkpt lat="45.69034" lon="6.26274">
        <ele>1914.8</ele>
        <time>2022-01-13T06:01:29Z</time>
      </trkpt>
      <trkpt lat="45.69034" lon="6.26273">
        <ele>1914.8</ele>
        <time>2022-01-13T06:01:30Z</time>
      </trkpt>
      <trkpt lat="45.69033" lon="6.26272">
        <ele>1917.8</ele>
        <time>2022-01-13T06:01:31Z</time>
      </trkpt>
      <trkpt lat="45.69033" lon="6.26271">
        <ele>1917.8</ele>
        <time>2022-01-13T06:01:32Z</time>
      </trkpt>
      <trkpt lat="45.69032" lon="6.2627">
        <ele>1917.8</ele>
        <time>2022-01-13T06:01:33Z</time>
      </trkpt>
      <trkpt lat="45.69032" lon="6.26269">
        <ele>1917.8</ele>
        <time>2022-01-13T06:01:34Z</time>
      </trkpt>
      <trkpt lat="45.69031" lon="6.26268">
        <ele>1917.8</ele>
        <time>2022-01-13T06:01:35Z</time>
      </trkpt>
      <trkpt lat="45.69031" lon="6.26267">
        <ele>1917.8</ele>
        <time>2022-01-13T06:01:36Z</time>
      </trkpt>
      <trkpt lat="45.6903" lon="6.26266">
        <ele>1918.7</ele>
        <time>2022-01-13T06:01:37Z</time>
      </trkpt>
      <trkpt lat="45.69029" lon="6.26265">
        <ele>1918.7</ele>
        <time>2022-01-13T06:01:38Z</time>
      </trkpt>
      <trkpt lat="45.69029" lon="6.26264">
        <ele>1918.7</ele>
        <time>2022-01-13T06:01:39Z</time>
      </trkpt>
      <trkpt lat="45.69028" lon="6.26263">
        <ele>1918.7</ele>
        <time>2022-01-13T06:01:40Z</time>
      </trkpt>
      <trkpt lat="45.69028" lon="6.26262">
        <ele>1918.7</ele>
        <time>2022-01-13T06:01:41Z</time>
      </trkpt>
      <trkpt lat="45.69028" lon="6.26261">
        <ele>1918.7</ele>
        <time>2022-01-13T06:01:42Z</time>
      </trkpt>
      <trkpt lat="45.69027" lon="6.2626">
        <ele>1919.8</ele>
        <time>2022-01-13T06:01:43Z</time>
      </trkpt>
      <trkpt lat="45.69027" lon="6.2626">
        <ele>1919.8</ele>
        <time>2022-01-13T06:01:44Z</time>
      </trkpt>
      <trkpt lat="45.69027" lon="6.26259">
        <ele>1919.8</ele>
        <time>2022-01-13T06:01:45Z</time>
      </trkpt>
      <trkpt lat="45.69026" lon="6.26258">
        <ele>1919.8</ele>
        <time>2022-01-13T06:01:46Z</time>
      </trkpt>
      <trkpt lat="45.69026" lon="6.26258">
        <ele>1919.8</ele>
        <time>2022-01-13T06:01:47Z</time>
      </trkpt>
      <trkpt lat="45.69025" lon="6.26257">
        <ele>1919.8</ele>
        <time>2022-01-13T06:01:48Z</time>
      </trkpt>
      <trkpt lat="45.69024" lon="6.26256">
        <ele>1920.7</ele>
        <time>2022-01-13T06:01:49Z</time>
      </trkpt>
      <trkpt lat="45.69024" lon="6.26255">
        <ele>1920.7</ele>
        <time>2022-01-13T06:01:50Z</time>
      </trkpt>
      <trkpt lat="45.69023" lon="6.26255">
        <ele>1920.7</ele>
        <time>2022-01-13T06:01:51Z</time>
      </trkpt>
      <trkpt lat="45.69023" lon="6.26254">
        <ele>1920.7</ele>
        <time>2022-01-13T06:01:52Z</time>
      </trkpt>
      <trkpt lat="45.69022" lon="6.26253">
        <ele>1920.7</ele>
        <time>2022-01-13T06:01:53Z</time>
      </trkpt>
      <trkpt lat="45.69022" lon="6.26253">
        <ele>1920.7</ele>
        <time>2022-01-13T06:01:54Z</time>
      </trkpt>
      <trkpt lat="45.69021" lon="6.26252">
        <ele>1921.8</ele>
        <time>2022-01-13T06:01:55Z</time>
      </trkpt>
      <trkpt lat="45.69021" lon="6.26252">
        <ele>1921.8</ele>
        <time>2022-01-13T06:01:56Z</time>
      </trkpt>
      <trkpt lat="45.6902" lon="6.26251">
        <ele>1921.8</ele>
        <time>2022-01-13T06:01:57Z</time>
      </trkpt>
      <trkpt lat="45.69019" lon="6.2625">
        <ele>1921.8</ele>
        <time>2022-01-13T06:01:58Z</time>
      </trkpt>
      <trkpt lat="45.69019" lon="6.26249">
        <ele>1922.9</ele>
        <time>2022-01-13T06:01:59Z</time>
      </trkpt>
      <trkpt lat="45.69018" lon="6.26249">
        <ele>1922.9</ele>
        <time>2022-01-13T06:02:00Z</time>
      </trkpt>
      <trkpt lat="45.69018" lon="6.26248">
        <ele>1922.9</ele>
        <time>2022-01-13T06:02:01Z</time>
      </trkpt>
      <trkpt lat="45.69017" lon="6.26247">
        <ele>1922.9</ele>
        <time>2022-01-13T06:02:02Z</time>
      </trkpt>
      <trkpt lat="45.69017" lon="6.26246">
        <ele>1922.9</ele>
        <time>2022-01-13T06:02:03Z</time>
      </trkpt>
      <trkpt lat="45.69016" lon="6.26246">
        <ele>1922.9</ele>
        <time>2022-01-13T06:02:04Z</time>
      </trkpt>
      <trkpt lat="45.69015" lon="6.26245">
        <ele>1923.8</ele>
        <time>2022-01-13T06:02:05Z</time>
      </trkpt>
      <trkpt lat="45.69015" lon="6.26245">
        <ele>1923.8</ele>
        <time>2022-01-13T06:02:06Z</time>
      </trkpt>
      <trkpt lat="45.69014" lon="6.26244">
        <ele>1923.8</ele>
        <time>2022-01-13T06:02:07Z</time>
      </trkpt>
      <trkpt lat="45.69014" lon="6.26243">
        <ele>1923.8</ele>
        <time>2022-01-13T06:02:08Z</time>
      </trkpt>
      <trkpt lat="45.69013" lon="6.26242">
        <ele>1923.8</ele>
        <time>2022-01-13T06:02:09Z</time>
      </trkpt>
      <trkpt lat="45.69013" lon="6.26241">
        <ele>1923.8</ele>
        <time>2022-01-13T06:02:10Z</time>
      </trkpt>
      <trkpt lat="45.69012" lon="6.26241">
        <ele>1923.8</ele>
        <time>2022-01-13T06:02:11Z</time>
      </trkpt>
      <trkpt lat="45.69011" lon="6.2624">
        <ele>1923.8</ele>
        <time>2022-01-13T06:02:12Z</time>
      </trkpt>
      <trkpt lat="45.69011" lon="6.26239">
        <ele>1923.8</ele>
        <time>2022-01-13T06:02:13Z</time>
      </trkpt>
      <trkpt lat="45.69011" lon="6.26238">
        <ele>1923.8</ele>
        <time>2022-01-13T06:02:14Z</time>
      </trkpt>
      <trkpt lat="45.6901" lon="6.26237">
        <ele>1925.8</ele>
        <time>2022-01-13T06:02:15Z</time>
      </trkpt>
      <trkpt lat="45.6901" lon="6.26237">
        <ele>1925.8</ele>
        <time>2022-01-13T06:02:16Z</time>
      </trkpt>
      <trkpt lat="45.6901" lon="6.26236">
        <ele>1926.8</ele>
        <time>2022-01-13T06:02:17Z</time>
      </trkpt>
      <trkpt lat="45.69009" lon="6.26236">
        <ele>1926.8</ele>
        <time>2022-01-13T06:02:18Z</time>
      </trkpt>
      <trkpt lat="45.69009" lon="6.26237">
        <ele>1926.8</ele>
        <time>2022-01-13T06:02:19Z</time>
      </trkpt>
      <trkpt lat="45.69009" lon="6.26237">
        <ele>1926.8</ele>
        <time>2022-01-13T06:02:20Z</time>
      </trkpt>
      <trkpt lat="45.69009" lon="6.26237">
        <ele>1926.8</ele>
        <time>2022-01-13T06:02:21Z</time>
      </trkpt>
      <trkpt lat="45.69009" lon="6.26238">
        <ele>1926.8</ele>
        <time>2022-01-13T06:02:22Z</time>
      </trkpt>
      <trkpt lat="45.69009" lon="6.26239">
        <ele>1926.8</ele>
        <time>2022-01-13T06:02:23Z</time>
      </trkpt>
      <trkpt lat="45.69008" lon="6.2624">
        <ele>1926.8</ele>
        <time>2022-01-13T06:02:24Z</time>
      </trkpt>
      <trkpt lat="45.69008" lon="6.26241">
        <ele>1927.7</ele>
        <time>2022-01-13T06:02:25Z</time>
      </trkpt>
      <trkpt lat="45.69008" lon="6.26242">
        <ele>1927.7</ele>
        <time>2022-01-13T06:02:26Z</time>
      </trkpt>
      <trkpt lat="45.69008" lon="6.26244">
        <ele>1927.7</ele>
        <time>2022-01-13T06:02:27Z</time>
      </trkpt>
      <trkpt lat="45.69008" lon="6.26245">
        <ele>1927.7</ele>
        <time>2022-01-13T06:02:28Z</time>
      </trkpt>
      <trkpt lat="45.69008" lon="6.26246">
        <ele>1928.8</ele>
        <time>2022-01-13T06:02:29Z</time>
      </trkpt>
      <trkpt lat="45.69008" lon="6.26247">
        <ele>1928.8</ele>
        <time>2022-01-13T06:02:30Z</time>
      </trkpt>
      <trkpt lat="45.69008" lon="6.26249">
        <ele>1928.8</ele>
        <time>2022-01-13T06:02:31Z</time>
      </trkpt>
      <trkpt lat="45.69008" lon="6.2625">
        <ele>1928.8</ele>
        <time>2022-01-13T06:02:32Z</time>
      </trkpt>
      <trkpt lat="45.69008" lon="6.26251">
        <ele>1929.7</ele>
        <time>2022-01-13T06:02:33Z</time>
      </trkpt>
      <trkpt lat="45.69008" lon="6.26252">
        <ele>1929.7</ele>
        <time>2022-01-13T06:02:34Z</time>
      </trkpt>
      <trkpt lat="45.69008" lon="6.26254">
        <ele>1929.7</ele>
        <time>2022-01-13T06:02:35Z</time>
      </trkpt>
      <trkpt lat="45.69008" lon="6.26255">
        <ele>1929.7</ele>
        <time>2022-01-13T06:02:36Z</time>
      </trkpt>
      <trkpt lat="45.69008" lon="6.26256">
        <ele>1929.7</ele>
        <time>2022-01-13T06:02:37Z</time>
      </trkpt>
      <trkpt lat="45.69009" lon="6.26257">
        <ele>1929.7</ele>
        <time>2022-01-13T06:02:38Z</time>
      </trkpt>
      <trkpt lat="45.69008" lon="6.26258">
        <ele>1929.7</ele>
        <time>2022-01-13T06:02:39Z</time>
      </trkpt>
      <trkpt lat="45.69008" lon="6.2626">
        <ele>1929.7</ele>
        <time>2022-01-13T06:02:40Z</time>
      </trkpt>
      <trkpt lat="45.69008" lon="6.26261">
        <ele>1930.8</ele>
        <time>2022-01-13T06:02:41Z</time>
      </trkpt>
      <trkpt lat="45.69008" lon="6.26262">
        <ele>1930.8</ele>
        <time>2022-01-13T06:02:42Z</time>
      </trkpt>
      <trkpt lat="45.69008" lon="6.26263">
        <ele>1930.8</ele>
        <time>2022-01-13T06:02:43Z</time>
      </trkpt>
      <trkpt lat="45.69007" lon="6.26264">
        <ele>1930.8</ele>
        <time>2022-01-13T06:02:44Z</time>
      </trkpt>
      <trkpt lat="45.69007" lon="6.26266">
        <ele>1930.8</ele>
        <time>2022-01-13T06:02:45Z</time>
      </trkpt>
      <trkpt lat="45.69007" lon="6.26267">
        <ele>1930.8</ele>
        <time>2022-01-13T06:02:46Z</time>
      </trkpt>
      <trkpt lat="45.69007" lon="6.26268">
        <ele>1930.8</ele>
        <time>2022-01-13T06:02:47Z</time>
      </trkpt>
      <trkpt lat="45.69006" lon="6.26269">
        <ele>1930.8</ele>
        <time>2022-01-13T06:02:48Z</time>
      </trkpt>
      <trkpt lat="45.69006" lon="6.2627">
        <ele>1930.8</ele>
        <time>2022-01-13T06:02:49Z</time>
      </trkpt>
      <trkpt lat="45.69005" lon="6.26271">
        <ele>1930.8</ele>
        <time>2022-01-13T06:02:50Z</time>
      </trkpt>
      <trkpt lat="45.69005" lon="6.26272">
        <ele>1933.8</ele>
        <time>2022-01-13T06:02:51Z</time>
      </trkpt>
      <trkpt lat="45.69005" lon="6.26273">
        <ele>1933.8</ele>
        <time>2022-01-13T06:02:52Z</time>
      </trkpt>
      <trkpt lat="45.69004" lon="6.26274">
        <ele>1933.8</ele>
        <time>2022-01-13T06:02:53Z</time>
      </trkpt>
      <trkpt lat="45.69004" lon="6.26275">
        <ele>1933.8</ele>
        <time>2022-01-13T06:02:54Z</time>
      </trkpt>
      <trkpt lat="45.69004" lon="6.26276">
        <ele>1933.8</ele>
        <time>2022-01-13T06:02:55Z</time>
      </trkpt>
      <trkpt lat="45.69004" lon="6.26278">
        <ele>1933.8</ele>
        <time>2022-01-13T06:02:56Z</time>
      </trkpt>
      <trkpt lat="45.69004" lon="6.26279">
        <ele>1934.7</ele>
        <time>2022-01-13T06:02:57Z</time>
      </trkpt>
      <trkpt lat="45.69004" lon="6.2628">
        <ele>1934.7</ele>
        <time>2022-01-13T06:02:58Z</time>
      </trkpt>
      <trkpt lat="45.69004" lon="6.26281">
        <ele>1934.7</ele>
        <time>2022-01-13T06:02:59Z</time>
      </trkpt>
      <trkpt lat="45.69004" lon="6.26283">
        <ele>1934.7</ele>
        <time>2022-01-13T06:03:00Z</time>
      </trkpt>
      <trkpt lat="45.69003" lon="6.26284">
        <ele>1935.8</ele>
        <time>2022-01-13T06:03:01Z</time>
      </trkpt>
      <trkpt lat="45.69003" lon="6.26286">
        <ele>1935.8</ele>
        <time>2022-01-13T06:03:02Z</time>
      </trkpt>
      <trkpt lat="45.69004" lon="6.26286">
        <ele>1935.8</ele>
        <time>2022-01-13T06:03:03Z</time>
      </trkpt>
      <trkpt lat="45.69004" lon="6.26288">
        <ele>1935.8</ele>
        <time>2022-01-13T06:03:04Z</time>
      </trkpt>
      <trkpt lat="45.69004" lon="6.26289">
        <ele>1935.8</ele>
        <time>2022-01-13T06:03:05Z</time>
      </trkpt>
      <trkpt lat="45.69004" lon="6.2629">
        <ele>1935.8</ele>
        <time>2022-01-13T06:03:06Z</time>
      </trkpt>
      <trkpt lat="45.69004" lon="6.26291">
        <ele>1935.8</ele>
        <time>2022-01-13T06:03:07Z</time>
      </trkpt>
      <trkpt lat="45.69004" lon="6.26292">
        <ele>1935.8</ele>
        <time>2022-01-13T06:03:08Z</time>
      </trkpt>
      <trkpt lat="45.69004" lon="6.26293">
        <ele>1936.7</ele>
        <time>2022-01-13T06:03:09Z</time>
      </trkpt>
      <trkpt lat="45.69004" lon="6.26294">
        <ele>1936.7</ele>
        <time>2022-01-13T06:03:10Z</time>
      </trkpt>
      <trkpt lat="45.69004" lon="6.26295">
        <ele>1936.7</ele>
        <time>2022-01-13T06:03:11Z</time>
      </trkpt>
      <trkpt lat="45.69004" lon="6.26296">
        <ele>1936.7</ele>
        <time>2022-01-13T06:03:12Z</time>
      </trkpt>
      <trkpt lat="45.69004" lon="6.26298">
        <ele>1936.7</ele>
        <time>2022-01-13T06:03:13Z</time>
      </trkpt>
      <trkpt lat="45.69004" lon="6.26299">
        <ele>1936.7</ele>
        <time>2022-01-13T06:03:14Z</time>
      </trkpt>
      <trkpt lat="45.69004" lon="6.263">
        <ele>1936.7</ele>
        <time>2022-01-13T06:03:15Z</time>
      </trkpt>
      <trkpt lat="45.69004" lon="6.26301">
        <ele>1936.7</ele>
        <time>2022-01-13T06:03:16Z</time>
      </trkpt>
      <trkpt lat="45.69004" lon="6.26302">
        <ele>1938.9</ele>
        <time>2022-01-13T06:03:17Z</time>
      </trkpt>
      <trkpt lat="45.69004" lon="6.26304">
        <ele>1938.9</ele>
        <time>2022-01-13T06:03:18Z</time>
      </trkpt>
      <trkpt lat="45.69004" lon="6.26304">
        <ele>1938.9</ele>
        <time>2022-01-13T06:03:19Z</time>
      </trkpt>
      <trkpt lat="45.69004" lon="6.26305">
        <ele>1938.9</ele>
        <time>2022-01-13T06:03:20Z</time>
      </trkpt>
      <trkpt lat="45.69004" lon="6.26306">
        <ele>1939.8</ele>
        <time>2022-01-13T06:03:21Z</time>
      </trkpt>
      <trkpt lat="45.69004" lon="6.26307">
        <ele>1939.8</ele>
        <time>2022-01-13T06:03:22Z</time>
      </trkpt>
      <trkpt lat="45.69004" lon="6.26308">
        <ele>1939.8</ele>
        <time>2022-01-13T06:03:23Z</time>
      </trkpt>
      <trkpt lat="45.69004" lon="6.26308">
        <ele>1939.8</ele>
        <time>2022-01-13T06:03:24Z</time>
      </trkpt>
      <trkpt lat="45.69004" lon="6.26309">
        <ele>1940.8</ele>
        <time>2022-01-13T06:03:25Z</time>
      </trkpt>
      <trkpt lat="45.69004" lon="6.2631">
        <ele>1940.8</ele>
        <time>2022-01-13T06:03:26Z</time>
      </trkpt>
      <trkpt lat="45.69004" lon="6.26311">
        <ele>1941.8</ele>
        <time>2022-01-13T06:03:27Z</time>
      </trkpt>
      <trkpt lat="45.69004" lon="6.26312">
        <ele>1941.8</ele>
        <time>2022-01-13T06:03:28Z</time>
      </trkpt>
      <trkpt lat="45.69004" lon="6.26313">
        <ele>1941.8</ele>
        <time>2022-01-13T06:03:29Z</time>
      </trkpt>
      <trkpt lat="45.69004" lon="6.26314">
        <ele>1941.8</ele>
        <time>2022-01-13T06:03:30Z</time>
      </trkpt>
      <trkpt lat="45.69003" lon="6.26315">
        <ele>1942.8</ele>
        <time>2022-01-13T06:03:31Z</time>
      </trkpt>
      <trkpt lat="45.69003" lon="6.26316">
        <ele>1942.8</ele>
        <time>2022-01-13T06:03:32Z</time>
      </trkpt>
      <trkpt lat="45.69003" lon="6.26316">
        <ele>1942.8</ele>
        <time>2022-01-13T06:03:33Z</time>
      </trkpt>
      <trkpt lat="45.69002" lon="6.26317">
        <ele>1942.8</ele>
        <time>2022-01-13T06:03:34Z</time>
      </trkpt>
      <trkpt lat="45.69002" lon="6.26318">
        <ele>1942.8</ele>
        <time>2022-01-13T06:03:35Z</time>
      </trkpt>
      <trkpt lat="45.69002" lon="6.26319">
        <ele>1942.8</ele>
        <time>2022-01-13T06:03:36Z</time>
      </trkpt>
      <trkpt lat="45.69002" lon="6.2632">
        <ele>1943.7</ele>
        <time>2022-01-13T06:03:37Z</time>
      </trkpt>
      <trkpt lat="45.69002" lon="6.26321">
        <ele>1943.7</ele>
        <time>2022-01-13T06:03:38Z</time>
      </trkpt>
      <trkpt lat="45.69002" lon="6.26322">
        <ele>1943.7</ele>
        <time>2022-01-13T06:03:39Z</time>
      </trkpt>
      <trkpt lat="45.69001" lon="6.26323">
        <ele>1943.7</ele>
        <time>2022-01-13T06:03:40Z</time>
      </trkpt>
      <trkpt lat="45.69001" lon="6.26324">
        <ele>1944.8</ele>
        <time>2022-01-13T06:03:41Z</time>
      </trkpt>
      <trkpt lat="45.69001" lon="6.26325">
        <ele>1944.8</ele>
        <time>2022-01-13T06:03:42Z</time>
      </trkpt>
      <trkpt lat="45.69001" lon="6.26325">
        <ele>1944.8</ele>
        <time>2022-01-13T06:03:43Z</time>
      </trkpt>
      <trkpt lat="45.69" lon="6.26326">
        <ele>1944.8</ele>
        <time>2022-01-13T06:03:44Z</time>
      </trkpt>
      <trkpt lat="45.69" lon="6.26326">
        <ele>1944.8</ele>
        <time>2022-01-13T06:03:45Z</time>
      </trkpt>
      <trkpt lat="45.69" lon="6.26326">
        <ele>1944.8</ele>
        <time>2022-01-13T06:03:46Z</time>
      </trkpt>
      <trkpt lat="45.69" lon="6.26326">
        <ele>1944.8</ele>
        <time>2022-01-13T06:03:47Z</time>
      </trkpt>
      <trkpt lat="45.69" lon="6.26326">
        <ele>1944.8</ele>
        <time>2022-01-13T06:03:48Z</time>
      </trkpt>
      <trkpt lat="45.69" lon="6.26326">
        <ele>1945.7</ele>
        <time>2022-01-13T06:03:49Z</time>
      </trkpt>
      <trkpt lat="45.69" lon="6.26326">
        <ele>1945.7</ele>
        <time>2022-01-13T06:03:50Z</time>
      </trkpt>
      <trkpt lat="45.69" lon="6.26326">
        <ele>1945.7</ele>
        <time>2022-01-13T06:03:51Z</time>
      </trkpt>
      <trkpt lat="45.69" lon="6.26326">
        <ele>1945.7</ele>
        <time>2022-01-13T06:03:52Z</time>
      </trkpt>
      <trkpt lat="45.69" lon="6.26326">
        <ele>1945.7</ele>
        <time>2022-01-13T06:03:53Z</time>
      </trkpt>
      <trkpt lat="45.69" lon="6.26326">
        <ele>1945.7</ele>
        <time>2022-01-13T06:03:54Z</time>
      </trkpt>
      <trkpt lat="45.69" lon="6.26326">
        <ele>1946.8</ele>
        <time>2022-01-13T06:03:55Z</time>
      </trkpt>
      <trkpt lat="45.69" lon="6.26326">
        <ele>1946.8</ele>
        <time>2022-01-13T06:03:56Z</time>
      </trkpt>
      <trkpt lat="45.69" lon="6.26326">
        <ele>1946.8</ele>
        <time>2022-01-13T06:03:57Z</time>
      </trkpt>
      <trkpt lat="45.69" lon="6.26326">
        <ele>1946.8</ele>
        <time>2022-01-13T06:03:58Z</time>
      </trkpt>
      <trkpt lat="45.69" lon="6.26326">
        <ele>1945.7</ele>
        <time>2022-01-13T06:03:59Z</time>
      </trkpt>
      <trkpt lat="45.69" lon="6.26326">
        <ele>1945.7</ele>
        <time>2022-01-13T06:04:00Z</time>
      </trkpt>
      <trkpt lat="45.69" lon="6.26326">
        <ele>1945.7</ele>
        <time>2022-01-13T06:04:01Z</time>
      </trkpt>
      <trkpt lat="45.69" lon="6.26326">
        <ele>1945.7</ele>
        <time>2022-01-13T06:04:02Z</time>
      </trkpt>
      <trkpt lat="45.69" lon="6.26325">
        <ele>1945.7</ele>
        <time>2022-01-13T06:04:03Z</time>
      </trkpt>
      <trkpt lat="45.68999" lon="6.26324">
        <ele>1945.7</ele>
        <time>2022-01-13T06:04:04Z</time>
      </trkpt>
      <trkpt lat="45.68998" lon="6.26322">
        <ele>1946.8</ele>
        <time>2022-01-13T06:04:05Z</time>
      </trkpt>
      <trkpt lat="45.68997" lon="6.2632">
        <ele>1946.8</ele>
        <time>2022-01-13T06:04:06Z</time>
      </trkpt>
      <trkpt lat="45.68996" lon="6.26318">
        <ele>1946.8</ele>
        <time>2022-01-13T06:04:07Z</time>
      </trkpt>
      <trkpt lat="45.68995" lon="6.26316">
        <ele>1946.8</ele>
        <time>2022-01-13T06:04:08Z</time>
      </trkpt>
      <trkpt lat="45.68994" lon="6.26314">
        <ele>1946.8</ele>
        <time>2022-01-13T06:04:09Z</time>
      </trkpt>
      <trkpt lat="45.68993" lon="6.26312">
        <ele>1946.8</ele>
        <time>2022-01-13T06:04:10Z</time>
      </trkpt>
      <trkpt lat="45.68992" lon="6.2631">
        <ele>1946.8</ele>
        <time>2022-01-13T06:04:11Z</time>
      </trkpt>
      <trkpt lat="45.68991" lon="6.26308">
        <ele>1946.8</ele>
        <time>2022-01-13T06:04:12Z</time>
      </trkpt>
      <trkpt lat="45.6899" lon="6.26307">
        <ele>1946.8</ele>
        <time>2022-01-13T06:04:13Z</time>
      </trkpt>
      <trkpt lat="45.6899" lon="6.26305">
        <ele>1946.8</ele>
        <time>2022-01-13T06:04:14Z</time>
      </trkpt>
      <trkpt lat="45.68989" lon="6.26303">
        <ele>1946.8</ele>
        <time>2022-01-13T06:04:15Z</time>
      </trkpt>
      <trkpt lat="45.68989" lon="6.26302">
        <ele>1946.8</ele>
        <time>2022-01-13T06:04:16Z</time>
      </trkpt>
      <trkpt lat="45.68988" lon="6.263">
        <ele>1946.8</ele>
        <time>2022-01-13T06:04:17Z</time>
      </trkpt>
      <trkpt lat="45.68987" lon="6.26298">
        <ele>1946.8</ele>
        <time>2022-01-13T06:04:18Z</time>
      </trkpt>
      <trkpt lat="45.68986" lon="6.26297">
        <ele>1946.8</ele>
        <time>2022-01-13T06:04:19Z</time>
      </trkpt>
      <trkpt lat="45.68986" lon="6.26295">
        <ele>1946.8</ele>
        <time>2022-01-13T06:04:20Z</time>
      </trkpt>
      <trkpt lat="45.68985" lon="6.26293">
        <ele>1944.8</ele>
        <time>2022-01-13T06:04:21Z</time>
      </trkpt>
      <trkpt lat="45.68984" lon="6.26291">
        <ele>1944.8</ele>
        <time>2022-01-13T06:04:22Z</time>
      </trkpt>
      <trkpt lat="45.68984" lon="6.2629">
        <ele>1945.7</ele>
        <time>2022-01-13T06:04:23Z</time>
      </trkpt>
      <trkpt lat="45.68983" lon="6.26288">
        <ele>1945.7</ele>
        <time>2022-01-13T06:04:24Z</time>
      </trkpt>
      <trkpt lat="45.68983" lon="6.26286">
        <ele>1945.7</ele>
        <time>2022-01-13T06:04:25Z</time>
      </trkpt>
      <trkpt lat="45.68983" lon="6.26285">
        <ele>1945.7</ele>
        <time>2022-01-13T06:04:26Z</time>
      </trkpt>
      <trkpt lat="45.68982" lon="6.26284">
        <ele>1945.7</ele>
        <time>2022-01-13T06:04:27Z</time>
      </trkpt>
      <trkpt lat="45.68981" lon="6.26283">
        <ele>1945.7</ele>
        <time>2022-01-13T06:04:28Z</time>
      </trkpt>
      <trkpt lat="45.6898" lon="6.26282">
        <ele>1946.8</ele>
        <time>2022-01-13T06:04:29Z</time>
      </trkpt>
      <trkpt lat="45.6898" lon="6.26281">
        <ele>1946.8</ele>
        <time>2022-01-13T06:04:30Z</time>
      </trkpt>
      <trkpt lat="45.68979" lon="6.26279">
        <ele>1947.8</ele>
        <time>2022-01-13T06:04:31Z</time>
      </trkpt>
      <trkpt lat="45.68979" lon="6.26278">
        <ele>1947.8</ele>
        <time>2022-01-13T06:04:32Z</time>
      </trkpt>
      <trkpt lat="45.68978" lon="6.26278">
        <ele>1947.8</ele>
        <time>2022-01-13T06:04:33Z</time>
      </trkpt>
      <trkpt lat="45.68978" lon="6.26277">
        <ele>1947.8</ele>
        <time>2022-01-13T06:04:34Z</time>
      </trkpt>
      <trkpt lat="45.68977" lon="6.26276">
        <ele>1947.8</ele>
        <time>2022-01-13T06:04:35Z</time>
      </trkpt>
      <trkpt lat="45.68977" lon="6.26275">
        <ele>1947.8</ele>
        <time>2022-01-13T06:04:36Z</time>
      </trkpt>
      <trkpt lat="45.68976" lon="6.26274">
        <ele>1948.8</ele>
        <time>2022-01-13T06:04:37Z</time>
      </trkpt>
      <trkpt lat="45.68976" lon="6.26273">
        <ele>1948.8</ele>
        <time>2022-01-13T06:04:38Z</time>
      </trkpt>
      <trkpt lat="45.68976" lon="6.26272">
        <ele>1948.8</ele>
        <time>2022-01-13T06:04:39Z</time>
      </trkpt>
      <trkpt lat="45.68975" lon="6.26271">
        <ele>1948.8</ele>
        <time>2022-01-13T06:04:40Z</time>
      </trkpt>
      <trkpt lat="45.68975" lon="6.26271">
        <ele>1948.8</ele>
        <time>2022-01-13T06:04:41Z</time>
      </trkpt>
      <trkpt lat="45.68974" lon="6.2627">
        <ele>1948.8</ele>
        <time>2022-01-13T06:04:42Z</time>
      </trkpt>
      <trkpt lat="45.68974" lon="6.26269">
        <ele>1949.8</ele>
        <time>2022-01-13T06:04:43Z</time>
      </trkpt>
      <trkpt lat="45.68974" lon="6.26269">
        <ele>1949.8</ele>
        <time>2022-01-13T06:04:44Z</time>
      </trkpt>
      <trkpt lat="45.68973" lon="6.26268">
        <ele>1950.7</ele>
        <time>2022-01-13T06:04:45Z</time>
      </trkpt>
      <trkpt lat="45.68973" lon="6.26268">
        <ele>1950.7</ele>
        <time>2022-01-13T06:04:46Z</time>
      </trkpt>
      <trkpt lat="45.68973" lon="6.26267">
        <ele>1950.7</ele>
        <time>2022-01-13T06:04:47Z</time>
      </trkpt>
      <trkpt lat="45.68972" lon="6.26267">
        <ele>1950.7</ele>
        <time>2022-01-13T06:04:48Z</time>
      </trkpt>
      <trkpt lat="45.68972" lon="6.26266">
        <ele>1950.7</ele>
        <time>2022-01-13T06:04:49Z</time>
      </trkpt>
      <trkpt lat="45.68972" lon="6.26266">
        <ele>1950.7</ele>
        <time>2022-01-13T06:04:50Z</time>
      </trkpt>
      <trkpt lat="45.68972" lon="6.26266">
        <ele>1950.7</ele>
        <time>2022-01-13T06:04:51Z</time>
      </trkpt>
      <trkpt lat="45.68972" lon="6.26265">
        <ele>1950.7</ele>
        <time>2022-01-13T06:04:52Z</time>
      </trkpt>
      <trkpt lat="45.68972" lon="6.26264">
        <ele>1951.8</ele>
        <time>2022-01-13T06:04:53Z</time>
      </trkpt>
      <trkpt lat="45.68972" lon="6.26264">
        <ele>1951.8</ele>
        <time>2022-01-13T06:04:54Z</time>
      </trkpt>
      <trkpt lat="45.68972" lon="6.26264">
        <ele>1951.8</ele>
        <time>2022-01-13T06:04:55Z</time>
      </trkpt>
      <trkpt lat="45.68971" lon="6.26264">
        <ele>1951.8</ele>
        <time>2022-01-13T06:04:56Z</time>
      </trkpt>
      <trkpt lat="45.68971" lon="6.26264">
        <ele>1951.8</ele>
        <time>2022-01-13T06:04:57Z</time>
      </trkpt>
      <trkpt lat="45.68971" lon="6.26264">
        <ele>1951.8</ele>
        <time>2022-01-13T06:04:58Z</time>
      </trkpt>
      <trkpt lat="45.6897" lon="6.26264">
        <ele>1952.7</ele>
        <time>2022-01-13T06:04:59Z</time>
      </trkpt>
      <trkpt lat="45.6897" lon="6.26263">
        <ele>1952.7</ele>
        <time>2022-01-13T06:05:00Z</time>
      </trkpt>
      <trkpt lat="45.6897" lon="6.26263">
        <ele>1952.7</ele>
        <time>2022-01-13T06:05:01Z</time>
      </trkpt>
      <trkpt lat="45.68969" lon="6.26262">
        <ele>1952.7</ele>
        <time>2022-01-13T06:05:02Z</time>
      </trkpt>
      <trkpt lat="45.68969" lon="6.26262">
        <ele>1952.7</ele>
        <time>2022-01-13T06:05:03Z</time>
      </trkpt>
      <trkpt lat="45.68968" lon="6.26261">
        <ele>1952.7</ele>
        <time>2022-01-13T06:05:04Z</time>
      </trkpt>
      <trkpt lat="45.68968" lon="6.26261">
        <ele>1953.8</ele>
        <time>2022-01-13T06:05:05Z</time>
      </trkpt>
      <trkpt lat="45.68968" lon="6.2626">
        <ele>1953.8</ele>
        <time>2022-01-13T06:05:06Z</time>
      </trkpt>
      <trkpt lat="45.68967" lon="6.2626">
        <ele>1953.8</ele>
        <time>2022-01-13T06:05:07Z</time>
      </trkpt>
      <trkpt lat="45.68967" lon="6.26259">
        <ele>1953.8</ele>
        <time>2022-01-13T06:05:08Z</time>
      </trkpt>
      <trkpt lat="45.68966" lon="6.26259">
        <ele>1954.7</ele>
        <time>2022-01-13T06:05:09Z</time>
      </trkpt>
      <trkpt lat="45.68966" lon="6.26258">
        <ele>1954.7</ele>
        <time>2022-01-13T06:05:10Z</time>
      </trkpt>
      <trkpt lat="45.68966" lon="6.26258">
        <ele>1954.7</ele>
        <time>2022-01-13T06:05:11Z</time>
      </trkpt>
      <trkpt lat="45.68965" lon="6.26257">
        <ele>1954.7</ele>
        <time>2022-01-13T06:05:12Z</time>
      </trkpt>
      <trkpt lat="45.68965" lon="6.26256">
        <ele>1955.8</ele>
        <time>2022-01-13T06:05:13Z</time>
      </trkpt>
      <trkpt lat="45.68964" lon="6.26255">
        <ele>1955.8</ele>
        <time>2022-01-13T06:05:14Z</time>
      </trkpt>
      <trkpt lat="45.68964" lon="6.26254">
        <ele>1955.8</ele>
        <time>2022-01-13T06:05:15Z</time>
      </trkpt>
      <trkpt lat="45.68964" lon="6.26253">
        <ele>1955.8</ele>
        <time>2022-01-13T06:05:16Z</time>
      </trkpt>
      <trkpt lat="45.68963" lon="6.26252">
        <ele>1955.8</ele>
        <time>2022-01-13T06:05:17Z</time>
      </trkpt>
      <trkpt lat="45.68962" lon="6.26252">
        <ele>1955.8</ele>
        <time>2022-01-13T06:05:18Z</time>
      </trkpt>
      <trkpt lat="45.68962" lon="6.26251">
        <ele>1956.8</ele>
        <time>2022-01-13T06:05:19Z</time>
      </trkpt>
      <trkpt lat="45.68961" lon="6.2625">
        <ele>1956.8</ele>
        <time>2022-01-13T06:05:20Z</time>
      </trkpt>
      <trkpt lat="45.68961" lon="6.26249">
        <ele>1956.8</ele>
        <time>2022-01-13T06:05:21Z</time>
      </trkpt>
      <trkpt lat="45.6896" lon="6.26248">
        <ele>1956.8</ele>
        <time>2022-01-13T06:05:22Z</time>
      </trkpt>
      <trkpt lat="45.68959" lon="6.26247">
        <ele>1956.8</ele>
        <time>2022-01-13T06:05:23Z</time>
      </trkpt>
      <trkpt lat="45.68959" lon="6.26246">
        <ele>1956.8</ele>
        <time>2022-01-13T06:05:24Z</time>
      </trkpt>
      <trkpt lat="45.68958" lon="6.26246">
        <ele>1956.8</ele>
        <time>2022-01-13T06:05:25Z</time>
      </trkpt>
      <trkpt lat="45.68957" lon="6.26245">
        <ele>1956.8</ele>
        <time>2022-01-13T06:05:26Z</time>
      </trkpt>
      <trkpt lat="45.68957" lon="6.26244">
        <ele>1956.8</ele>
        <time>2022-01-13T06:05:27Z</time>
      </trkpt>
      <trkpt lat="45.68956" lon="6.26244">
        <ele>1956.8</ele>
        <time>2022-01-13T06:05:28Z</time>
      </trkpt>
      <trkpt lat="45.68955" lon="6.26243">
        <ele>1956.8</ele>
        <time>2022-01-13T06:05:29Z</time>
      </trkpt>
      <trkpt lat="45.68954" lon="6.26243">
        <ele>1956.8</ele>
        <time>2022-01-13T06:05:30Z</time>
      </trkpt>
      <trkpt lat="45.68954" lon="6.26242">
        <ele>1956.8</ele>
        <time>2022-01-13T06:05:31Z</time>
      </trkpt>
      <trkpt lat="45.68953" lon="6.26242">
        <ele>1956.8</ele>
        <time>2022-01-13T06:05:32Z</time>
      </trkpt>
      <trkpt lat="45.68952" lon="6.26241">
        <ele>1956.8</ele>
        <time>2022-01-13T06:05:33Z</time>
      </trkpt>
      <trkpt lat="45.68952" lon="6.26241">
        <ele>1956.8</ele>
        <time>2022-01-13T06:05:34Z</time>
      </trkpt>
      <trkpt lat="45.68951" lon="6.2624">
        <ele>1956.8</ele>
        <time>2022-01-13T06:05:35Z</time>
      </trkpt>
      <trkpt lat="45.68951" lon="6.2624">
        <ele>1956.8</ele>
        <time>2022-01-13T06:05:36Z</time>
      </trkpt>
      <trkpt lat="45.6895" lon="6.26239">
        <ele>1956.8</ele>
        <time>2022-01-13T06:05:37Z</time>
      </trkpt>
      <trkpt lat="45.6895" lon="6.26239">
        <ele>1956.8</ele>
        <time>2022-01-13T06:05:38Z</time>
      </trkpt>
      <trkpt lat="45.6895" lon="6.26239">
        <ele>1957.8</ele>
        <time>2022-01-13T06:05:39Z</time>
      </trkpt>
      <trkpt lat="45.6895" lon="6.26239">
        <ele>1957.8</ele>
        <time>2022-01-13T06:05:40Z</time>
      </trkpt>
      <trkpt lat="45.6895" lon="6.26239">
        <ele>1958.8</ele>
        <time>2022-01-13T06:05:41Z</time>
      </trkpt>
      <trkpt lat="45.6895" lon="6.26239">
        <ele>1958.8</ele>
        <time>2022-01-13T06:05:42Z</time>
      </trkpt>
      <trkpt lat="45.6895" lon="6.26239">
        <ele>1958.8</ele>
        <time>2022-01-13T06:05:43Z</time>
      </trkpt>
      <trkpt lat="45.6895" lon="6.26239">
        <ele>1958.8</ele>
        <time>2022-01-13T06:05:44Z</time>
      </trkpt>
      <trkpt lat="45.6895" lon="6.26239">
        <ele>1958.8</ele>
        <time>2022-01-13T06:05:45Z</time>
      </trkpt>
      <trkpt lat="45.6895" lon="6.26239">
        <ele>1958.8</ele>
        <time>2022-01-13T06:05:46Z</time>
      </trkpt>
      <trkpt lat="45.6895" lon="6.26239">
        <ele>1958.8</ele>
        <time>2022-01-13T06:05:47Z</time>
      </trkpt>
      <trkpt lat="45.6895" lon="6.26239">
        <ele>1958.8</ele>
        <time>2022-01-13T06:05:48Z</time>
      </trkpt>
      <trkpt lat="45.6895" lon="6.26239">
        <ele>1958.8</ele>
        <time>2022-01-13T06:05:49Z</time>
      </trkpt>
      <trkpt lat="45.6895" lon="6.26239">
        <ele>1958.8</ele>
        <time>2022-01-13T06:05:50Z</time>
      </trkpt>
      <trkpt lat="45.6895" lon="6.26239">
        <ele>1958.8</ele>
        <time>2022-01-13T06:05:51Z</time>
      </trkpt>
      <trkpt lat="45.6895" lon="6.26239">
        <ele>1958.8</ele>
        <time>2022-01-13T06:05:52Z</time>
      </trkpt>
      <trkpt lat="45.6895" lon="6.26239">
        <ele>1958.8</ele>
        <time>2022-01-13T06:05:53Z</time>
      </trkpt>
      <trkpt lat="45.6895" lon="6.26239">
        <ele>1958.8</ele>
        <time>2022-01-13T06:05:54Z</time>
      </trkpt>
      <trkpt lat="45.6895" lon="6.26239">
        <ele>1958.8</ele>
        <time>2022-01-13T06:05:55Z</time>
      </trkpt>
      <trkpt lat="45.6895" lon="6.26239">
        <ele>1958.8</ele>
        <time>2022-01-13T06:05:56Z</time>
      </trkpt>
      <trkpt lat="45.6895" lon="6.26239">
        <ele>1958.8</ele>
        <time>2022-01-13T06:05:57Z</time>
      </trkpt>
      <trkpt lat="45.6895" lon="6.26239">
        <ele>1958.8</ele>
        <time>2022-01-13T06:05:58Z</time>
      </trkpt>
      <trkpt lat="45.6895" lon="6.26239">
        <ele>1958.8</ele>
        <time>2022-01-13T06:05:59Z</time>
      </trkpt>
      <trkpt lat="45.6895" lon="6.26239">
        <ele>1958.8</ele>
        <time>2022-01-13T06:06:00Z</time>
      </trkpt>
      <trkpt lat="45.6895" lon="6.26239">
        <ele>1958.8</ele>
        <time>2022-01-13T06:06:01Z</time>
      </trkpt>
      <trkpt lat="45.6895" lon="6.26239">
        <ele>1958.8</ele>
        <time>2022-01-13T06:06:02Z</time>
      </trkpt>
      <trkpt lat="45.6895" lon="6.26238">
        <ele>1958.8</ele>
        <time>2022-01-13T06:06:03Z</time>
      </trkpt>
      <trkpt lat="45.68949" lon="6.26237">
        <ele>1958.8</ele>
        <time>2022-01-13T06:06:04Z</time>
      </trkpt>
      <trkpt lat="45.68948" lon="6.26235">
        <ele>1958.8</ele>
        <time>2022-01-13T06:06:05Z</time>
      </trkpt>
      <trkpt lat="45.68946" lon="6.26234">
        <ele>1958.8</ele>
        <time>2022-01-13T06:06:06Z</time>
      </trkpt>
      <trkpt lat="45.68945" lon="6.26232">
        <ele>1958.8</ele>
        <time>2022-01-13T06:06:07Z</time>
      </trkpt>
      <trkpt lat="45.68943" lon="6.26231">
        <ele>1958.8</ele>
        <time>2022-01-13T06:06:08Z</time>
      </trkpt>
      <trkpt lat="45.68942" lon="6.26229">
        <ele>1958.8</ele>
        <time>2022-01-13T06:06:09Z</time>
      </trkpt>
      <trkpt lat="45.68941" lon="6.26228">
        <ele>1958.8</ele>
        <time>2022-01-13T06:06:10Z</time>
      </trkpt>
      <trkpt lat="45.68939" lon="6.26226">
        <ele>1958.8</ele>
        <time>2022-01-13T06:06:11Z</time>
      </trkpt>
      <trkpt lat="45.68938" lon="6.26225">
        <ele>1958.8</ele>
        <time>2022-01-13T06:06:12Z</time>
      </trkpt>
      <trkpt lat="45.68937" lon="6.26224">
        <ele>1958.8</ele>
        <time>2022-01-13T06:06:13Z</time>
      </trkpt>
      <trkpt lat="45.68936" lon="6.26223">
        <ele>1958.8</ele>
        <time>2022-01-13T06:06:14Z</time>
      </trkpt>
      <trkpt lat="45.68935" lon="6.26222">
        <ele>1958.8</ele>
        <time>2022-01-13T06:06:15Z</time>
      </trkpt>
      <trkpt lat="45.68934" lon="6.26221">
        <ele>1958.8</ele>
        <time>2022-01-13T06:06:16Z</time>
      </trkpt>
      <trkpt lat="45.68933" lon="6.26219">
        <ele>1958.8</ele>
        <time>2022-01-13T06:06:17Z</time>
      </trkpt>
      <trkpt lat="45.68932" lon="6.26218">
        <ele>1958.8</ele>
        <time>2022-01-13T06:06:18Z</time>
      </trkpt>
      <trkpt lat="45.68931" lon="6.26217">
        <ele>1958.8</ele>
        <time>2022-01-13T06:06:19Z</time>
      </trkpt>
      <trkpt lat="45.6893" lon="6.26217">
        <ele>1958.8</ele>
        <time>2022-01-13T06:06:20Z</time>
      </trkpt>
      <trkpt lat="45.68929" lon="6.26216">
        <ele>1958.8</ele>
        <time>2022-01-13T06:06:21Z</time>
      </trkpt>
      <trkpt lat="45.68929" lon="6.26215">
        <ele>1958.8</ele>
        <time>2022-01-13T06:06:22Z</time>
      </trkpt>
      <trkpt lat="45.68928" lon="6.26214">
        <ele>1960.8</ele>
        <time>2022-01-13T06:06:23Z</time>
      </trkpt>
      <trkpt lat="45.68928" lon="6.26213">
        <ele>1960.8</ele>
        <time>2022-01-13T06:06:24Z</time>
      </trkpt>
      <trkpt lat="45.68927" lon="6.26212">
        <ele>1960.8</ele>
        <time>2022-01-13T06:06:25Z</time>
      </trkpt>
      <trkpt lat="45.68926" lon="6.26211">
        <ele>1960.8</ele>
        <time>2022-01-13T06:06:26Z</time>
      </trkpt>
      <trkpt lat="45.68925" lon="6.2621">
        <ele>1961.7</ele>
        <time>2022-01-13T06:06:27Z</time>
      </trkpt>
      <trkpt lat="45.68925" lon="6.26209">
        <ele>1961.7</ele>
        <time>2022-01-13T06:06:28Z</time>
      </trkpt>
      <trkpt lat="45.68924" lon="6.26209">
        <ele>1961.7</ele>
        <time>2022-01-13T06:06:29Z</time>
      </trkpt>
      <trkpt lat="45.68923" lon="6.26208">
        <ele>1961.7</ele>
        <time>2022-01-13T06:06:30Z</time>
      </trkpt>
      <trkpt lat="45.68922" lon="6.26207">
        <ele>1961.7</ele>
        <time>2022-01-13T06:06:31Z</time>
      </trkpt>
      <trkpt lat="45.68921" lon="6.26206">
        <ele>1961.7</ele>
        <time>2022-01-13T06:06:32Z</time>
      </trkpt>
      <trkpt lat="45.6892" lon="6.26205">
        <ele>1961.7</ele>
        <time>2022-01-13T06:06:33Z</time>
      </trkpt>
      <trkpt lat="45.6892" lon="6.26204">
        <ele>1961.7</ele>
        <time>2022-01-13T06:06:34Z</time>
      </trkpt>
      <trkpt lat="45.68919" lon="6.26203">
        <ele>1963.9</ele>
        <time>2022-01-13T06:06:35Z</time>
      </trkpt>
      <trkpt lat="45.68918" lon="6.26202">
        <ele>1963.9</ele>
        <time>2022-01-13T06:06:36Z</time>
      </trkpt>
      <trkpt lat="45.68917" lon="6.26201">
        <ele>1963.9</ele>
        <time>2022-01-13T06:06:37Z</time>
      </trkpt>
      <trkpt lat="45.68917" lon="6.26201">
        <ele>1963.9</ele>
        <time>2022-01-13T06:06:38Z</time>
      </trkpt>
      <trkpt lat="45.68916" lon="6.262">
        <ele>1963.9</ele>
        <time>2022-01-13T06:06:39Z</time>
      </trkpt>
      <trkpt lat="45.68915" lon="6.26199">
        <ele>1963.9</ele>
        <time>2022-01-13T06:06:40Z</time>
      </trkpt>
      <trkpt lat="45.68914" lon="6.26199">
        <ele>1965.8</ele>
        <time>2022-01-13T06:06:41Z</time>
      </trkpt>
      <trkpt lat="45.68914" lon="6.26198">
        <ele>1965.8</ele>
        <time>2022-01-13T06:06:42Z</time>
      </trkpt>
      <trkpt lat="45.68913" lon="6.26197">
        <ele>1965.8</ele>
        <time>2022-01-13T06:06:43Z</time>
      </trkpt>
      <trkpt lat="45.68913" lon="6.26196">
        <ele>1965.8</ele>
        <time>2022-01-13T06:06:44Z</time>
      </trkpt>
      <trkpt lat="45.68912" lon="6.26196">
        <ele>1966.7</ele>
        <time>2022-01-13T06:06:45Z</time>
      </trkpt>
      <trkpt lat="45.68912" lon="6.26195">
        <ele>1966.7</ele>
        <time>2022-01-13T06:06:46Z</time>
      </trkpt>
      <trkpt lat="45.68911" lon="6.26194">
        <ele>1966.7</ele>
        <time>2022-01-13T06:06:47Z</time>
      </trkpt>
      <trkpt lat="45.68911" lon="6.26194">
        <ele>1966.7</ele>
        <time>2022-01-13T06:06:48Z</time>
      </trkpt>
      <trkpt lat="45.68911" lon="6.26194">
        <ele>1966.7</ele>
        <time>2022-01-13T06:06:49Z</time>
      </trkpt>
      <trkpt lat="45.68911" lon="6.26194">
        <ele>1966.7</ele>
        <time>2022-01-13T06:06:50Z</time>
      </trkpt>
      <trkpt lat="45.68911" lon="6.26194">
        <ele>1966.7</ele>
        <time>2022-01-13T06:06:51Z</time>
      </trkpt>
      <trkpt lat="45.68911" lon="6.26194">
        <ele>1966.7</ele>
        <time>2022-01-13T06:06:52Z</time>
      </trkpt>
      <trkpt lat="45.68911" lon="6.26194">
        <ele>1967.8</ele>
        <time>2022-01-13T06:06:53Z</time>
      </trkpt>
      <trkpt lat="45.68911" lon="6.26194">
        <ele>1967.8</ele>
        <time>2022-01-13T06:06:54Z</time>
      </trkpt>
      <trkpt lat="45.68911" lon="6.26194">
        <ele>1967.8</ele>
        <time>2022-01-13T06:06:55Z</time>
      </trkpt>
      <trkpt lat="45.68911" lon="6.26194">
        <ele>1967.8</ele>
        <time>2022-01-13T06:06:56Z</time>
      </trkpt>
      <trkpt lat="45.68911" lon="6.26194">
        <ele>1967.8</ele>
        <time>2022-01-13T06:06:57Z</time>
      </trkpt>
      <trkpt lat="45.68911" lon="6.26194">
        <ele>1967.8</ele>
        <time>2022-01-13T06:06:58Z</time>
      </trkpt>
      <trkpt lat="45.68911" lon="6.26194">
        <ele>1967.8</ele>
        <time>2022-01-13T06:06:59Z</time>
      </trkpt>
      <trkpt lat="45.68911" lon="6.26194">
        <ele>1967.8</ele>
        <time>2022-01-13T06:07:00Z</time>
      </trkpt>
      <trkpt lat="45.68911" lon="6.26194">
        <ele>1967.8</ele>
        <time>2022-01-13T06:07:01Z</time>
      </trkpt>
      <trkpt lat="45.68911" lon="6.26194">
        <ele>1967.8</ele>
        <time>2022-01-13T06:07:02Z</time>
      </trkpt>
      <trkpt lat="45.68911" lon="6.26194">
        <ele>1967.8</ele>
        <time>2022-01-13T06:07:03Z</time>
      </trkpt>
      <trkpt lat="45.68911" lon="6.26194">
        <ele>1967.8</ele>
        <time>2022-01-13T06:07:04Z</time>
      </trkpt>
      <trkpt lat="45.68911" lon="6.26194">
        <ele>1967.8</ele>
        <time>2022-01-13T06:07:05Z</time>
      </trkpt>
      <trkpt lat="45.68911" lon="6.26194">
        <ele>1967.8</ele>
        <time>2022-01-13T06:07:06Z</time>
      </trkpt>
      <trkpt lat="45.68911" lon="6.26194">
        <ele>1967.8</ele>
        <time>2022-01-13T06:07:07Z</time>
      </trkpt>
      <trkpt lat="45.68911" lon="6.26194">
        <ele>1967.8</ele>
        <time>2022-01-13T06:07:08Z</time>
      </trkpt>
      <trkpt lat="45.68911" lon="6.26194">
        <ele>1967.8</ele>
        <time>2022-01-13T06:07:09Z</time>
      </trkpt>
      <trkpt lat="45.68911" lon="6.26194">
        <ele>1967.8</ele>
        <time>2022-01-13T06:07:10Z</time>
      </trkpt>
      <trkpt lat="45.68911" lon="6.26194">
        <ele>1967.8</ele>
        <time>2022-01-13T06:07:11Z</time>
      </trkpt>
      <trkpt lat="45.68911" lon="6.26193">
        <ele>1967.8</ele>
        <time>2022-01-13T06:07:12Z</time>
      </trkpt>
      <trkpt lat="45.68911" lon="6.26192">
        <ele>1967.8</ele>
        <time>2022-01-13T06:07:13Z</time>
      </trkpt>
      <trkpt lat="45.6891" lon="6.26191">
        <ele>1967.8</ele>
        <time>2022-01-13T06:07:14Z</time>
      </trkpt>
      <trkpt lat="45.68909" lon="6.2619">
        <ele>1967.8</ele>
        <time>2022-01-13T06:07:15Z</time>
      </trkpt>
      <trkpt lat="45.68909" lon="6.26189">
        <ele>1967.8</ele>
        <time>2022-01-13T06:07:16Z</time>
      </trkpt>
      <trkpt lat="45.68908" lon="6.26187">
        <ele>1967.8</ele>
        <time>2022-01-13T06:07:17Z</time>
      </trkpt>
      <trkpt lat="45.68908" lon="6.26186">
        <ele>1967.8</ele>
        <time>2022-01-13T06:07:18Z</time>
      </trkpt>
      <trkpt lat="45.68907" lon="6.26185">
        <ele>1969.8</ele>
        <time>2022-01-13T06:07:19Z</time>
      </trkpt>
      <trkpt lat="45.68907" lon="6.26184">
        <ele>1969.8</ele>
        <time>2022-01-13T06:07:20Z</time>
      </trkpt>
      <trkpt lat="45.68906" lon="6.26182">
        <ele>1969.8</ele>
        <time>2022-01-13T06:07:21Z</time>
      </trkpt>
      <trkpt lat="45.68906" lon="6.26181">
        <ele>1969.8</ele>
        <time>2022-01-13T06:07:22Z</time>
      </trkpt>
      <trkpt lat="45.68905" lon="6.2618">
        <ele>1969.8</ele>
        <time>2022-01-13T06:07:23Z</time>
      </trkpt>
      <trkpt lat="45.68905" lon="6.26179">
        <ele>1969.8</ele>
        <time>2022-01-13T06:07:24Z</time>
      </trkpt>
      <trkpt lat="45.68905" lon="6.26178">
        <ele>1969.8</ele>
        <time>2022-01-13T06:07:25Z</time>
      </trkpt>
      <trkpt lat="45.68905" lon="6.26177">
        <ele>1969.8</ele>
        <time>2022-01-13T06:07:26Z</time>
      </trkpt>
      <trkpt lat="45.68904" lon="6.26176">
        <ele>1969.8</ele>
        <time>2022-01-13T06:07:27Z</time>
      </trkpt>
      <trkpt lat="45.68904" lon="6.26175">
        <ele>1969.8</ele>
        <time>2022-01-13T06:07:28Z</time>
      </trkpt>
      <trkpt lat="45.68904" lon="6.26174">
        <ele>1969.8</ele>
        <time>2022-01-13T06:07:29Z</time>
      </trkpt>
      <trkpt lat="45.68903" lon="6.26173">
        <ele>1969.8</ele>
        <time>2022-01-13T06:07:30Z</time>
      </trkpt>
      <trkpt lat="45.68903" lon="6.26172">
        <ele>1972.8</ele>
        <time>2022-01-13T06:07:31Z</time>
      </trkpt>
      <trkpt lat="45.68903" lon="6.26171">
        <ele>1972.8</ele>
        <time>2022-01-13T06:07:32Z</time>
      </trkpt>
      <trkpt lat="45.68902" lon="6.2617">
        <ele>1973.8</ele>
        <time>2022-01-13T06:07:33Z</time>
      </trkpt>
      <trkpt lat="45.68902" lon="6.26168">
        <ele>1973.8</ele>
        <time>2022-01-13T06:07:34Z</time>
      </trkpt>
      <trkpt lat="45.68901" lon="6.26167">
        <ele>1973.8</ele>
        <time>2022-01-13T06:07:35Z</time>
      </trkpt>
      <trkpt lat="45.68901" lon="6.26166">
        <ele>1973.8</ele>
        <time>2022-01-13T06:07:36Z</time>
      </trkpt>
      <trkpt lat="45.68901" lon="6.26165">
        <ele>1973.8</ele>
        <time>2022-01-13T06:07:37Z</time>
      </trkpt>
      <trkpt lat="45.689" lon="6.26164">
        <ele>1973.8</ele>
        <time>2022-01-13T06:07:38Z</time>
      </trkpt>
      <trkpt lat="45.68899" lon="6.26163">
        <ele>1973.8</ele>
        <time>2022-01-13T06:07:39Z</time>
      </trkpt>
      <trkpt lat="45.68899" lon="6.26162">
        <ele>1973.8</ele>
        <time>2022-01-13T06:07:40Z</time>
      </trkpt>
      <trkpt lat="45.68898" lon="6.26162">
        <ele>1974.8</ele>
        <time>2022-01-13T06:07:41Z</time>
      </trkpt>
      <trkpt lat="45.68897" lon="6.26161">
        <ele>1974.8</ele>
        <time>2022-01-13T06:07:42Z</time>
      </trkpt>
      <trkpt lat="45.68896" lon="6.26159">
        <ele>1975.7</ele>
        <time>2022-01-13T06:07:43Z</time>
      </trkpt>
      <trkpt lat="45.68896" lon="6.26159">
        <ele>1975.7</ele>
        <time>2022-01-13T06:07:44Z</time>
      </trkpt>
      <trkpt lat="45.68895" lon="6.26158">
        <ele>1975.7</ele>
        <time>2022-01-13T06:07:45Z</time>
      </trkpt>
      <trkpt lat="45.68894" lon="6.26157">
        <ele>1975.7</ele>
        <time>2022-01-13T06:07:46Z</time>
      </trkpt>
      <trkpt lat="45.68893" lon="6.26156">
        <ele>1975.7</ele>
        <time>2022-01-13T06:07:47Z</time>
      </trkpt>
      <trkpt lat="45.68892" lon="6.26155">
        <ele>1975.7</ele>
        <time>2022-01-13T06:07:48Z</time>
      </trkpt>
      <trkpt lat="45.68892" lon="6.26155">
        <ele>1976.8</ele>
        <time>2022-01-13T06:07:49Z</time>
      </trkpt>
      <trkpt lat="45.68891" lon="6.26154">
        <ele>1976.8</ele>
        <time>2022-01-13T06:07:50Z</time>
      </trkpt>
      <trkpt lat="45.68889" lon="6.26154">
        <ele>1977.7</ele>
        <time>2022-01-13T06:07:51Z</time>
      </trkpt>
      <trkpt lat="45.68889" lon="6.26154">
        <ele>1977.7</ele>
        <time>2022-01-13T06:07:52Z</time>
      </trkpt>
      <trkpt lat="45.68888" lon="6.26153">
        <ele>1977.7</ele>
        <time>2022-01-13T06:07:53Z</time>
      </trkpt>
      <trkpt lat="45.68887" lon="6.26152">
        <ele>1977.7</ele>
        <time>2022-01-13T06:07:54Z</time>
      </trkpt>
      <trkpt lat="45.68886" lon="6.26152">
        <ele>1978.8</ele>
        <time>2022-01-13T06:07:55Z</time>
      </trkpt>
      <trkpt lat="45.68885" lon="6.26151">
        <ele>1978.8</ele>
        <time>2022-01-13T06:07:56Z</time>
      </trkpt>
      <trkpt lat="45.68885" lon="6.2615">
        <ele>1978.8</ele>
        <time>2022-01-13T06:07:57Z</time>
      </trkpt>
      <trkpt lat="45.68885" lon="6.2615">
        <ele>1978.8</ele>
        <time>2022-01-13T06:07:58Z</time>
      </trkpt>
      <trkpt lat="45.68884" lon="6.26149">
        <ele>1979.9</ele>
        <time>2022-01-13T06:07:59Z</time>
      </trkpt>
      <trkpt lat="45.68884" lon="6.26147">
        <ele>1979.9</ele>
        <time>2022-01-13T06:08:00Z</time>
      </trkpt>
      <trkpt lat="45.68884" lon="6.26146">
        <ele>1979.9</ele>
        <time>2022-01-13T06:08:01Z</time>
      </trkpt>
      <trkpt lat="45.68884" lon="6.26145">
        <ele>1979.9</ele>
        <time>2022-01-13T06:08:02Z</time>
      </trkpt>
      <trkpt lat="45.68884" lon="6.26144">
        <ele>1980.8</ele>
        <time>2022-01-13T06:08:03Z</time>
      </trkpt>
      <trkpt lat="45.68884" lon="6.26143">
        <ele>1980.8</ele>
        <time>2022-01-13T06:08:04Z</time>
      </trkpt>
      <trkpt lat="45.68884" lon="6.26142">
        <ele>1981.8</ele>
        <time>2022-01-13T06:08:05Z</time>
      </trkpt>
      <trkpt lat="45.68883" lon="6.26141">
        <ele>1981.8</ele>
        <time>2022-01-13T06:08:06Z</time>
      </trkpt>
      <trkpt lat="45.68883" lon="6.2614">
        <ele>1981.8</ele>
        <time>2022-01-13T06:08:07Z</time>
      </trkpt>
      <trkpt lat="45.68883" lon="6.26139">
        <ele>1981.8</ele>
        <time>2022-01-13T06:08:08Z</time>
      </trkpt>
      <trkpt lat="45.68883" lon="6.26138">
        <ele>1981.8</ele>
        <time>2022-01-13T06:08:09Z</time>
      </trkpt>
      <trkpt lat="45.68883" lon="6.26137">
        <ele>1981.8</ele>
        <time>2022-01-13T06:08:10Z</time>
      </trkpt>
      <trkpt lat="45.68883" lon="6.26136">
        <ele>1981.8</ele>
        <time>2022-01-13T06:08:11Z</time>
      </trkpt>
      <trkpt lat="45.68883" lon="6.26135">
        <ele>1981.8</ele>
        <time>2022-01-13T06:08:12Z</time>
      </trkpt>
      <trkpt lat="45.68882" lon="6.26134">
        <ele>1982.7</ele>
        <time>2022-01-13T06:08:13Z</time>
      </trkpt>
      <trkpt lat="45.68882" lon="6.26133">
        <ele>1982.7</ele>
        <time>2022-01-13T06:08:14Z</time>
      </trkpt>
      <trkpt lat="45.68882" lon="6.26132">
        <ele>1982.7</ele>
        <time>2022-01-13T06:08:15Z</time>
      </trkpt>
      <trkpt lat="45.68882" lon="6.26131">
        <ele>1982.7</ele>
        <time>2022-01-13T06:08:16Z</time>
      </trkpt>
      <trkpt lat="45.68882" lon="6.2613">
        <ele>1983.8</ele>
        <time>2022-01-13T06:08:17Z</time>
      </trkpt>
      <trkpt lat="45.68882" lon="6.26129">
        <ele>1983.8</ele>
        <time>2022-01-13T06:08:18Z</time>
      </trkpt>
      <trkpt lat="45.68882" lon="6.26128">
        <ele>1983.8</ele>
        <time>2022-01-13T06:08:19Z</time>
      </trkpt>
      <trkpt lat="45.68882" lon="6.26127">
        <ele>1983.8</ele>
        <time>2022-01-13T06:08:20Z</time>
      </trkpt>
      <trkpt lat="45.68882" lon="6.26127">
        <ele>1983.8</ele>
        <time>2022-01-13T06:08:21Z</time>
      </trkpt>
      <trkpt lat="45.68882" lon="6.26127">
        <ele>1983.8</ele>
        <time>2022-01-13T06:08:22Z</time>
      </trkpt>
      <trkpt lat="45.68882" lon="6.26127">
        <ele>1983.8</ele>
        <time>2022-01-13T06:08:23Z</time>
      </trkpt>
      <trkpt lat="45.68882" lon="6.26127">
        <ele>1983.8</ele>
        <time>2022-01-13T06:08:24Z</time>
      </trkpt>
      <trkpt lat="45.68882" lon="6.26127">
        <ele>1983.8</ele>
        <time>2022-01-13T06:08:25Z</time>
      </trkpt>
      <trkpt lat="45.68881" lon="6.26128">
        <ele>1983.8</ele>
        <time>2022-01-13T06:08:26Z</time>
      </trkpt>
      <trkpt lat="45.68881" lon="6.26128">
        <ele>1984.7</ele>
        <time>2022-01-13T06:08:27Z</time>
      </trkpt>
      <trkpt lat="45.68881" lon="6.26129">
        <ele>1984.7</ele>
        <time>2022-01-13T06:08:28Z</time>
      </trkpt>
      <trkpt lat="45.6888" lon="6.26129">
        <ele>1984.7</ele>
        <time>2022-01-13T06:08:29Z</time>
      </trkpt>
      <trkpt lat="45.6888" lon="6.2613">
        <ele>1984.7</ele>
        <time>2022-01-13T06:08:30Z</time>
      </trkpt>
      <trkpt lat="45.6888" lon="6.2613">
        <ele>1984.7</ele>
        <time>2022-01-13T06:08:31Z</time>
      </trkpt>
      <trkpt lat="45.68879" lon="6.26131">
        <ele>1984.7</ele>
        <time>2022-01-13T06:08:32Z</time>
      </trkpt>
      <trkpt lat="45.68879" lon="6.26131">
        <ele>1984.7</ele>
        <time>2022-01-13T06:08:33Z</time>
      </trkpt>
      <trkpt lat="45.68878" lon="6.26131">
        <ele>1984.7</ele>
        <time>2022-01-13T06:08:34Z</time>
      </trkpt>
      <trkpt lat="45.68878" lon="6.26131">
        <ele>1985.8</ele>
        <time>2022-01-13T06:08:35Z</time>
      </trkpt>
      <trkpt lat="45.68877" lon="6.26131">
        <ele>1985.8</ele>
        <time>2022-01-13T06:08:36Z</time>
      </trkpt>
      <trkpt lat="45.68877" lon="6.26131">
        <ele>1985.8</ele>
        <time>2022-01-13T06:08:37Z</time>
      </trkpt>
      <trkpt lat="45.68877" lon="6.2613">
        <ele>1985.8</ele>
        <time>2022-01-13T06:08:38Z</time>
      </trkpt>
      <trkpt lat="45.68877" lon="6.26129">
        <ele>1985.8</ele>
        <time>2022-01-13T06:08:39Z</time>
      </trkpt>
      <trkpt lat="45.68877" lon="6.26129">
        <ele>1985.8</ele>
        <time>2022-01-13T06:08:40Z</time>
      </trkpt>
      <trkpt lat="45.68877" lon="6.26128">
        <ele>1986.7</ele>
        <time>2022-01-13T06:08:41Z</time>
      </trkpt>
      <trkpt lat="45.68877" lon="6.26128">
        <ele>1986.7</ele>
        <time>2022-01-13T06:08:42Z</time>
      </trkpt>
      <trkpt lat="45.68877" lon="6.26127">
        <ele>1986.7</ele>
        <time>2022-01-13T06:08:43Z</time>
      </trkpt>
      <trkpt lat="45.68877" lon="6.26127">
        <ele>1986.7</ele>
        <time>2022-01-13T06:08:44Z</time>
      </trkpt>
      <trkpt lat="45.68877" lon="6.26127">
        <ele>1986.7</ele>
        <time>2022-01-13T06:08:45Z</time>
      </trkpt>
      <trkpt lat="45.68877" lon="6.26127">
        <ele>1986.7</ele>
        <time>2022-01-13T06:08:46Z</time>
      </trkpt>
      <trkpt lat="45.68877" lon="6.26127">
        <ele>1986.7</ele>
        <time>2022-01-13T06:08:47Z</time>
      </trkpt>
      <trkpt lat="45.68877" lon="6.26127">
        <ele>1986.7</ele>
        <time>2022-01-13T06:08:48Z</time>
      </trkpt>
      <trkpt lat="45.68877" lon="6.26127">
        <ele>1987.8</ele>
        <time>2022-01-13T06:08:49Z</time>
      </trkpt>
      <trkpt lat="45.68877" lon="6.26127">
        <ele>1987.8</ele>
        <time>2022-01-13T06:08:50Z</time>
      </trkpt>
      <trkpt lat="45.68877" lon="6.26127">
        <ele>1987.8</ele>
        <time>2022-01-13T06:08:51Z</time>
      </trkpt>
      <trkpt lat="45.68877" lon="6.26127">
        <ele>1987.8</ele>
        <time>2022-01-13T06:08:52Z</time>
      </trkpt>
      <trkpt lat="45.68877" lon="6.26127">
        <ele>1987.8</ele>
        <time>2022-01-13T06:08:53Z</time>
      </trkpt>
      <trkpt lat="45.68877" lon="6.26127">
        <ele>1987.8</ele>
        <time>2022-01-13T06:08:54Z</time>
      </trkpt>
      <trkpt lat="45.68877" lon="6.26127">
        <ele>1987.8</ele>
        <time>2022-01-13T06:08:55Z</time>
      </trkpt>
      <trkpt lat="45.68877" lon="6.26127">
        <ele>1987.8</ele>
        <time>2022-01-13T06:08:56Z</time>
      </trkpt>
      <trkpt lat="45.68877" lon="6.26127">
        <ele>1988.8</ele>
        <time>2022-01-13T06:08:57Z</time>
      </trkpt>
      <trkpt lat="45.68877" lon="6.26127">
        <ele>1988.8</ele>
        <time>2022-01-13T06:08:58Z</time>
      </trkpt>
      <trkpt lat="45.68877" lon="6.26127">
        <ele>1988.8</ele>
        <time>2022-01-13T06:08:59Z</time>
      </trkpt>
      <trkpt lat="45.68877" lon="6.26127">
        <ele>1988.8</ele>
        <time>2022-01-13T06:09:00Z</time>
      </trkpt>
      <trkpt lat="45.68876" lon="6.26127">
        <ele>1989.8</ele>
        <time>2022-01-13T06:09:01Z</time>
      </trkpt>
      <trkpt lat="45.68876" lon="6.26127">
        <ele>1989.8</ele>
        <time>2022-01-13T06:09:02Z</time>
      </trkpt>
      <trkpt lat="45.68876" lon="6.26127">
        <ele>1989.8</ele>
        <time>2022-01-13T06:09:03Z</time>
      </trkpt>
      <trkpt lat="45.68876" lon="6.26126">
        <ele>1989.8</ele>
        <time>2022-01-13T06:09:04Z</time>
      </trkpt>
      <trkpt lat="45.68876" lon="6.26124">
        <ele>1990.8</ele>
        <time>2022-01-13T06:09:05Z</time>
      </trkpt>
      <trkpt lat="45.68875" lon="6.26122">
        <ele>1990.8</ele>
        <time>2022-01-13T06:09:06Z</time>
      </trkpt>
      <trkpt lat="45.68875" lon="6.2612">
        <ele>1990.8</ele>
        <time>2022-01-13T06:09:07Z</time>
      </trkpt>
      <trkpt lat="45.68875" lon="6.26118">
        <ele>1990.8</ele>
        <time>2022-01-13T06:09:08Z</time>
      </trkpt>
      <trkpt lat="45.68874" lon="6.26116">
        <ele>1991.7</ele>
        <time>2022-01-13T06:09:09Z</time>
      </trkpt>
      <trkpt lat="45.68874" lon="6.26115">
        <ele>1991.7</ele>
        <time>2022-01-13T06:09:10Z</time>
      </trkpt>
      <trkpt lat="45.68873" lon="6.26113">
        <ele>1991.7</ele>
        <time>2022-01-13T06:09:11Z</time>
      </trkpt>
      <trkpt lat="45.68872" lon="6.26111">
        <ele>1991.7</ele>
        <time>2022-01-13T06:09:12Z</time>
      </trkpt>
      <trkpt lat="45.68872" lon="6.26109">
        <ele>1992.8</ele>
        <time>2022-01-13T06:09:13Z</time>
      </trkpt>
      <trkpt lat="45.68872" lon="6.26109">
        <ele>1992.8</ele>
        <time>2022-01-13T06:09:14Z</time>
      </trkpt>
      <trkpt lat="45.68871" lon="6.26109">
        <ele>1992.8</ele>
        <time>2022-01-13T06:09:15Z</time>
      </trkpt>
      <trkpt lat="45.68871" lon="6.26108">
        <ele>1992.8</ele>
        <time>2022-01-13T06:09:16Z</time>
      </trkpt>
      <trkpt lat="45.68871" lon="6.26108">
        <ele>1992.8</ele>
        <time>2022-01-13T06:09:17Z</time>
      </trkpt>
      <trkpt lat="45.68871" lon="6.26108">
        <ele>1992.8</ele>
        <time>2022-01-13T06:09:18Z</time>
      </trkpt>
      <trkpt lat="45.68871" lon="6.26108">
        <ele>1992.8</ele>
        <time>2022-01-13T06:09:19Z</time>
      </trkpt>
      <trkpt lat="45.68871" lon="6.26108">
        <ele>1992.8</ele>
        <time>2022-01-13T06:09:20Z</time>
      </trkpt>
      <trkpt lat="45.68871" lon="6.26108">
        <ele>1992.8</ele>
        <time>2022-01-13T06:09:21Z</time>
      </trkpt>
      <trkpt lat="45.68871" lon="6.26108">
        <ele>1992.8</ele>
        <time>2022-01-13T06:09:22Z</time>
      </trkpt>
      <trkpt lat="45.68871" lon="6.26108">
        <ele>1991.7</ele>
        <time>2022-01-13T06:09:23Z</time>
      </trkpt>
      <trkpt lat="45.68871" lon="6.26108">
        <ele>1991.7</ele>
        <time>2022-01-13T06:09:24Z</time>
      </trkpt>
      <trkpt lat="45.68871" lon="6.26108">
        <ele>1991.7</ele>
        <time>2022-01-13T06:09:25Z</time>
      </trkpt>
      <trkpt lat="45.68871" lon="6.26108">
        <ele>1991.7</ele>
        <time>2022-01-13T06:09:26Z</time>
      </trkpt>
      <trkpt lat="45.68871" lon="6.26108">
        <ele>1991.7</ele>
        <time>2022-01-13T06:09:27Z</time>
      </trkpt>
      <trkpt lat="45.68871" lon="6.26108">
        <ele>1991.7</ele>
        <time>2022-01-13T06:09:28Z</time>
      </trkpt>
      <trkpt lat="45.68871" lon="6.26108">
        <ele>1991.7</ele>
        <time>2022-01-13T06:09:29Z</time>
      </trkpt>
      <trkpt lat="45.68871" lon="6.26108">
        <ele>1991.7</ele>
        <time>2022-01-13T06:09:30Z</time>
      </trkpt>
      <trkpt lat="45.68871" lon="6.26108">
        <ele>1991.7</ele>
        <time>2022-01-13T06:09:31Z</time>
      </trkpt>
      <trkpt lat="45.68871" lon="6.26108">
        <ele>1991.7</ele>
        <time>2022-01-13T06:09:32Z</time>
      </trkpt>
      <trkpt lat="45.68871" lon="6.26108">
        <ele>1993.7</ele>
        <time>2022-01-13T06:09:33Z</time>
      </trkpt>
      <trkpt lat="45.68871" lon="6.26108">
        <ele>1993.7</ele>
        <time>2022-01-13T06:09:34Z</time>
      </trkpt>
      <trkpt lat="45.68871" lon="6.26108">
        <ele>1993.7</ele>
        <time>2022-01-13T06:09:35Z</time>
      </trkpt>
      <trkpt lat="45.68871" lon="6.26108">
        <ele>1993.7</ele>
        <time>2022-01-13T06:09:36Z</time>
      </trkpt>
      <trkpt lat="45.68871" lon="6.26108">
        <ele>1993.7</ele>
        <time>2022-01-13T06:09:37Z</time>
      </trkpt>
      <trkpt lat="45.68871" lon="6.26108">
        <ele>1993.7</ele>
        <time>2022-01-13T06:09:38Z</time>
      </trkpt>
      <trkpt lat="45.68871" lon="6.26108">
        <ele>1993.7</ele>
        <time>2022-01-13T06:09:39Z</time>
      </trkpt>
      <trkpt lat="45.68871" lon="6.26108">
        <ele>1993.7</ele>
        <time>2022-01-13T06:09:40Z</time>
      </trkpt>
      <trkpt lat="45.68871" lon="6.26108">
        <ele>1993.7</ele>
        <time>2022-01-13T06:09:41Z</time>
      </trkpt>
      <trkpt lat="45.68871" lon="6.26108">
        <ele>1993.7</ele>
        <time>2022-01-13T06:09:42Z</time>
      </trkpt>
      <trkpt lat="45.68871" lon="6.26108">
        <ele>1993.7</ele>
        <time>2022-01-13T06:09:43Z</time>
      </trkpt>
      <trkpt lat="45.68871" lon="6.26108">
        <ele>1993.7</ele>
        <time>2022-01-13T06:09:44Z</time>
      </trkpt>
      <trkpt lat="45.68871" lon="6.26108">
        <ele>1993.7</ele>
        <time>2022-01-13T06:09:45Z</time>
      </trkpt>
      <trkpt lat="45.68871" lon="6.26108">
        <ele>1993.7</ele>
        <time>2022-01-13T06:09:46Z</time>
      </trkpt>
      <trkpt lat="45.68871" lon="6.26108">
        <ele>1993.7</ele>
        <time>2022-01-13T06:09:47Z</time>
      </trkpt>
      <trkpt lat="45.68871" lon="6.26108">
        <ele>1993.7</ele>
        <time>2022-01-13T06:09:48Z</time>
      </trkpt>
      <trkpt lat="45.68871" lon="6.26108">
        <ele>1993.7</ele>
        <time>2022-01-13T06:09:49Z</time>
      </trkpt>
      <trkpt lat="45.68871" lon="6.26108">
        <ele>1993.7</ele>
        <time>2022-01-13T06:09:50Z</time>
      </trkpt>
      <trkpt lat="45.68871" lon="6.26107">
        <ele>1992.8</ele>
        <time>2022-01-13T06:09:51Z</time>
      </trkpt>
      <trkpt lat="45.68871" lon="6.26107">
        <ele>1992.8</ele>
        <time>2022-01-13T06:09:52Z</time>
      </trkpt>
      <trkpt lat="45.68871" lon="6.26107">
        <ele>1992.8</ele>
        <time>2022-01-13T06:09:53Z</time>
      </trkpt>
      <trkpt lat="45.68871" lon="6.26107">
        <ele>1992.8</ele>
        <time>2022-01-13T06:09:54Z</time>
      </trkpt>
      <trkpt lat="45.68871" lon="6.26107">
        <ele>1992.8</ele>
        <time>2022-01-13T06:09:55Z</time>
      </trkpt>
      <trkpt lat="45.68871" lon="6.26107">
        <ele>1992.8</ele>
        <time>2022-01-13T06:09:56Z</time>
      </trkpt>
      <trkpt lat="45.68871" lon="6.26107">
        <ele>1991.7</ele>
        <time>2022-01-13T06:09:57Z</time>
      </trkpt>
      <trkpt lat="45.68871" lon="6.26107">
        <ele>1991.7</ele>
        <time>2022-01-13T06:09:58Z</time>
      </trkpt>
      <trkpt lat="45.68871" lon="6.26107">
        <ele>1991.7</ele>
        <time>2022-01-13T06:09:59Z</time>
      </trkpt>
      <trkpt lat="45.68871" lon="6.26107">
        <ele>1991.7</ele>
        <time>2022-01-13T06:10:00Z</time>
      </trkpt>
      <trkpt lat="45.68871" lon="6.26107">
        <ele>1991.7</ele>
        <time>2022-01-13T06:10:01Z</time>
      </trkpt>
      <trkpt lat="45.68871" lon="6.26107">
        <ele>1991.7</ele>
        <time>2022-01-13T06:10:02Z</time>
      </trkpt>
      <trkpt lat="45.68871" lon="6.26107">
        <ele>1991.7</ele>
        <time>2022-01-13T06:10:03Z</time>
      </trkpt>
      <trkpt lat="45.68871" lon="6.26107">
        <ele>1991.7</ele>
        <time>2022-01-13T06:10:04Z</time>
      </trkpt>
      <trkpt lat="45.68871" lon="6.26107">
        <ele>1991.7</ele>
        <time>2022-01-13T06:10:05Z</time>
      </trkpt>
      <trkpt lat="45.68871" lon="6.26107">
        <ele>1991.7</ele>
        <time>2022-01-13T06:10:06Z</time>
      </trkpt>
      <trkpt lat="45.68871" lon="6.26107">
        <ele>1991.7</ele>
        <time>2022-01-13T06:10:07Z</time>
      </trkpt>
      <trkpt lat="45.68871" lon="6.26107">
        <ele>1991.7</ele>
        <time>2022-01-13T06:10:08Z</time>
      </trkpt>
      <trkpt lat="45.68871" lon="6.26107">
        <ele>1991.7</ele>
        <time>2022-01-13T06:10:09Z</time>
      </trkpt>
      <trkpt lat="45.68871" lon="6.26107">
        <ele>1991.7</ele>
        <time>2022-01-13T06:10:10Z</time>
      </trkpt>
      <trkpt lat="45.68871" lon="6.26107">
        <ele>1991.7</ele>
        <time>2022-01-13T06:10:11Z</time>
      </trkpt>
      <trkpt lat="45.68871" lon="6.26107">
        <ele>1991.7</ele>
        <time>2022-01-13T06:10:12Z</time>
      </trkpt>
      <trkpt lat="45.68871" lon="6.26107">
        <ele>1991.7</ele>
        <time>2022-01-13T06:10:13Z</time>
      </trkpt>
      <trkpt lat="45.68871" lon="6.26107">
        <ele>1991.7</ele>
        <time>2022-01-13T06:10:14Z</time>
      </trkpt>
      <trkpt lat="45.68871" lon="6.26107">
        <ele>1992.8</ele>
        <time>2022-01-13T06:10:15Z</time>
      </trkpt>
      <trkpt lat="45.68871" lon="6.26107">
        <ele>1992.8</ele>
        <time>2022-01-13T06:10:16Z</time>
      </trkpt>
      <trkpt lat="45.68871" lon="6.26107">
        <ele>1992.8</ele>
        <time>2022-01-13T06:10:17Z</time>
      </trkpt>
      <trkpt lat="45.68871" lon="6.26106">
        <ele>1992.8</ele>
        <time>2022-01-13T06:10:18Z</time>
      </trkpt>
      <trkpt lat="45.68871" lon="6.26106">
        <ele>1992.8</ele>
        <time>2022-01-13T06:10:19Z</time>
      </trkpt>
      <trkpt lat="45.68871" lon="6.26106">
        <ele>1992.8</ele>
        <time>2022-01-13T06:10:20Z</time>
      </trkpt>
      <trkpt lat="45.68871" lon="6.26106">
        <ele>1992.8</ele>
        <time>2022-01-13T06:10:21Z</time>
      </trkpt>
      <trkpt lat="45.68871" lon="6.26106">
        <ele>1992.8</ele>
        <time>2022-01-13T06:10:22Z</time>
      </trkpt>
      <trkpt lat="45.68871" lon="6.26106">
        <ele>1992.8</ele>
        <time>2022-01-13T06:10:23Z</time>
      </trkpt>
      <trkpt lat="45.68871" lon="6.26106">
        <ele>1992.8</ele>
        <time>2022-01-13T06:10:24Z</time>
      </trkpt>
      <trkpt lat="45.68871" lon="6.26106">
        <ele>1992.8</ele>
        <time>2022-01-13T06:10:25Z</time>
      </trkpt>
      <trkpt lat="45.68871" lon="6.26106">
        <ele>1992.8</ele>
        <time>2022-01-13T06:10:26Z</time>
      </trkpt>
      <trkpt lat="45.68871" lon="6.26106">
        <ele>1991.7</ele>
        <time>2022-01-13T06:10:27Z</time>
      </trkpt>
      <trkpt lat="45.68871" lon="6.26106">
        <ele>1991.7</ele>
        <time>2022-01-13T06:10:28Z</time>
      </trkpt>
      <trkpt lat="45.68871" lon="6.26106">
        <ele>1991.7</ele>
        <time>2022-01-13T06:10:29Z</time>
      </trkpt>
      <trkpt lat="45.68871" lon="6.26106">
        <ele>1991.7</ele>
        <time>2022-01-13T06:10:30Z</time>
      </trkpt>
      <trkpt lat="45.68871" lon="6.26106">
        <ele>1991.7</ele>
        <time>2022-01-13T06:10:31Z</time>
      </trkpt>
      <trkpt lat="45.68871" lon="6.26106">
        <ele>1991.7</ele>
        <time>2022-01-13T06:10:32Z</time>
      </trkpt>
      <trkpt lat="45.68871" lon="6.26106">
        <ele>1991.7</ele>
        <time>2022-01-13T06:10:33Z</time>
      </trkpt>
      <trkpt lat="45.68871" lon="6.26106">
        <ele>1991.7</ele>
        <time>2022-01-13T06:10:34Z</time>
      </trkpt>
      <trkpt lat="45.68872" lon="6.26106">
        <ele>1991.7</ele>
        <time>2022-01-13T06:10:35Z</time>
      </trkpt>
      <trkpt lat="45.68872" lon="6.26106">
        <ele>1991.7</ele>
        <time>2022-01-13T06:10:36Z</time>
      </trkpt>
      <trkpt lat="45.68872" lon="6.26106">
        <ele>1991.7</ele>
        <time>2022-01-13T06:10:37Z</time>
      </trkpt>
      <trkpt lat="45.68872" lon="6.26106">
        <ele>1991.7</ele>
        <time>2022-01-13T06:10:38Z</time>
      </trkpt>
      <trkpt lat="45.68872" lon="6.26106">
        <ele>1992.8</ele>
        <time>2022-01-13T06:10:39Z</time>
      </trkpt>
      <trkpt lat="45.68872" lon="6.26106">
        <ele>1992.8</ele>
        <time>2022-01-13T06:10:40Z</time>
      </trkpt>
      <trkpt lat="45.68872" lon="6.26106">
        <ele>1992.8</ele>
        <time>2022-01-13T06:10:41Z</time>
      </trkpt>
      <trkpt lat="45.68872" lon="6.26106">
        <ele>1992.8</ele>
        <time>2022-01-13T06:10:42Z</time>
      </trkpt>
      <trkpt lat="45.68872" lon="6.26106">
        <ele>1992.8</ele>
        <time>2022-01-13T06:10:43Z</time>
      </trkpt>
      <trkpt lat="45.68872" lon="6.26106">
        <ele>1992.8</ele>
        <time>2022-01-13T06:10:44Z</time>
      </trkpt>
      <trkpt lat="45.68872" lon="6.26106">
        <ele>1991.7</ele>
        <time>2022-01-13T06:10:45Z</time>
      </trkpt>
      <trkpt lat="45.68872" lon="6.26106">
        <ele>1991.7</ele>
        <time>2022-01-13T06:10:46Z</time>
      </trkpt>
      <trkpt lat="45.68872" lon="6.26106">
        <ele>1991.7</ele>
        <time>2022-01-13T06:10:47Z</time>
      </trkpt>
      <trkpt lat="45.68872" lon="6.26106">
        <ele>1991.7</ele>
        <time>2022-01-13T06:10:48Z</time>
      </trkpt>
      <trkpt lat="45.68872" lon="6.26106">
        <ele>1991.7</ele>
        <time>2022-01-13T06:10:49Z</time>
      </trkpt>
      <trkpt lat="45.68872" lon="6.26106">
        <ele>1991.7</ele>
        <time>2022-01-13T06:10:50Z</time>
      </trkpt>
      <trkpt lat="45.68872" lon="6.26106">
        <ele>1991.7</ele>
        <time>2022-01-13T06:10:51Z</time>
      </trkpt>
      <trkpt lat="45.68873" lon="6.26106">
        <ele>1991.7</ele>
        <time>2022-01-13T06:10:52Z</time>
      </trkpt>
      <trkpt lat="45.68873" lon="6.26106">
        <ele>1991.7</ele>
        <time>2022-01-13T06:10:53Z</time>
      </trkpt>
      <trkpt lat="45.68873" lon="6.26106">
        <ele>1991.7</ele>
        <time>2022-01-13T06:10:54Z</time>
      </trkpt>
      <trkpt lat="45.68873" lon="6.26106">
        <ele>1992.8</ele>
        <time>2022-01-13T06:10:55Z</time>
      </trkpt>
      <trkpt lat="45.68873" lon="6.26106">
        <ele>1992.8</ele>
        <time>2022-01-13T06:10:56Z</time>
      </trkpt>
      <trkpt lat="45.68873" lon="6.26106">
        <ele>1992.8</ele>
        <time>2022-01-13T06:10:57Z</time>
      </trkpt>
      <trkpt lat="45.68873" lon="6.26106">
        <ele>1992.8</ele>
        <time>2022-01-13T06:10:58Z</time>
      </trkpt>
      <trkpt lat="45.68873" lon="6.26106">
        <ele>1992.8</ele>
        <time>2022-01-13T06:10:59Z</time>
      </trkpt>
      <trkpt lat="45.68873" lon="6.26106">
        <ele>1992.8</ele>
        <time>2022-01-13T06:11:00Z</time>
      </trkpt>
      <trkpt lat="45.68873" lon="6.26106">
        <ele>1992.8</ele>
        <time>2022-01-13T06:11:01Z</time>
      </trkpt>
      <trkpt lat="45.68873" lon="6.26106">
        <ele>1992.8</ele>
        <time>2022-01-13T06:11:02Z</time>
      </trkpt>
      <trkpt lat="45.68873" lon="6.26106">
        <ele>1992.8</ele>
        <time>2022-01-13T06:11:03Z</time>
      </trkpt>
      <trkpt lat="45.68873" lon="6.26106">
        <ele>1992.8</ele>
        <time>2022-01-13T06:11:04Z</time>
      </trkpt>
      <trkpt lat="45.68874" lon="6.26106">
        <ele>1992.8</ele>
        <time>2022-01-13T06:11:05Z</time>
      </trkpt>
      <trkpt lat="45.68874" lon="6.26106">
        <ele>1992.8</ele>
        <time>2022-01-13T06:11:06Z</time>
      </trkpt>
      <trkpt lat="45.68874" lon="6.26106">
        <ele>1992.8</ele>
        <time>2022-01-13T06:11:07Z</time>
      </trkpt>
      <trkpt lat="45.68874" lon="6.26106">
        <ele>1992.8</ele>
        <time>2022-01-13T06:11:08Z</time>
      </trkpt>
      <trkpt lat="45.68874" lon="6.26106">
        <ele>1992.8</ele>
        <time>2022-01-13T06:11:09Z</time>
      </trkpt>
      <trkpt lat="45.68874" lon="6.26106">
        <ele>1992.8</ele>
        <time>2022-01-13T06:11:10Z</time>
      </trkpt>
      <trkpt lat="45.68874" lon="6.26106">
        <ele>1992.8</ele>
        <time>2022-01-13T06:11:11Z</time>
      </trkpt>
      <trkpt lat="45.68874" lon="6.26106">
        <ele>1992.8</ele>
        <time>2022-01-13T06:11:12Z</time>
      </trkpt>
      <trkpt lat="45.68874" lon="6.26106">
        <ele>1992.8</ele>
        <time>2022-01-13T06:11:13Z</time>
      </trkpt>
      <trkpt lat="45.68874" lon="6.26106">
        <ele>1992.8</ele>
        <time>2022-01-13T06:11:14Z</time>
      </trkpt>
      <trkpt lat="45.68874" lon="6.26106">
        <ele>1991.7</ele>
        <time>2022-01-13T06:11:15Z</time>
      </trkpt>
      <trkpt lat="45.68874" lon="6.26106">
        <ele>1991.7</ele>
        <time>2022-01-13T06:11:16Z</time>
      </trkpt>
      <trkpt lat="45.68874" lon="6.26106">
        <ele>1991.7</ele>
        <time>2022-01-13T06:11:17Z</time>
      </trkpt>
      <trkpt lat="45.68874" lon="6.26106">
        <ele>1991.7</ele>
        <time>2022-01-13T06:11:18Z</time>
      </trkpt>
      <trkpt lat="45.68874" lon="6.26106">
        <ele>1992.8</ele>
        <time>2022-01-13T06:11:19Z</time>
      </trkpt>
      <trkpt lat="45.68874" lon="6.26106">
        <ele>1992.8</ele>
        <time>2022-01-13T06:11:20Z</time>
      </trkpt>
      <trkpt lat="45.68874" lon="6.26106">
        <ele>1992.8</ele>
        <time>2022-01-13T06:11:21Z</time>
      </trkpt>
      <trkpt lat="45.68874" lon="6.26106">
        <ele>1992.8</ele>
        <time>2022-01-13T06:11:22Z</time>
      </trkpt>
      <trkpt lat="45.68874" lon="6.26106">
        <ele>1993.7</ele>
        <time>2022-01-13T06:11:23Z</time>
      </trkpt>
      <trkpt lat="45.68874" lon="6.26106">
        <ele>1993.7</ele>
        <time>2022-01-13T06:11:24Z</time>
      </trkpt>
      <trkpt lat="45.68874" lon="6.26106">
        <ele>1993.7</ele>
        <time>2022-01-13T06:11:25Z</time>
      </trkpt>
      <trkpt lat="45.68874" lon="6.26106">
        <ele>1993.7</ele>
        <time>2022-01-13T06:11:26Z</time>
      </trkpt>
      <trkpt lat="45.68874" lon="6.26106">
        <ele>1993.7</ele>
        <time>2022-01-13T06:11:27Z</time>
      </trkpt>
      <trkpt lat="45.68874" lon="6.26106">
        <ele>1993.7</ele>
        <time>2022-01-13T06:11:28Z</time>
      </trkpt>
      <trkpt lat="45.68874" lon="6.26106">
        <ele>1992.8</ele>
        <time>2022-01-13T06:11:29Z</time>
      </trkpt>
      <trkpt lat="45.68874" lon="6.26106">
        <ele>1992.8</ele>
        <time>2022-01-13T06:11:30Z</time>
      </trkpt>
      <trkpt lat="45.68874" lon="6.26106">
        <ele>1992.8</ele>
        <time>2022-01-13T06:11:31Z</time>
      </trkpt>
      <trkpt lat="45.68874" lon="6.26106">
        <ele>1992.8</ele>
        <time>2022-01-13T06:11:32Z</time>
      </trkpt>
      <trkpt lat="45.68874" lon="6.26106">
        <ele>1992.8</ele>
        <time>2022-01-13T06:11:33Z</time>
      </trkpt>
      <trkpt lat="45.68874" lon="6.26106">
        <ele>1992.8</ele>
        <time>2022-01-13T06:11:34Z</time>
      </trkpt>
      <trkpt lat="45.68874" lon="6.26106">
        <ele>1992.8</ele>
        <time>2022-01-13T06:11:35Z</time>
      </trkpt>
      <trkpt lat="45.68874" lon="6.26106">
        <ele>1992.8</ele>
        <time>2022-01-13T06:11:36Z</time>
      </trkpt>
      <trkpt lat="45.68874" lon="6.26106">
        <ele>1992.8</ele>
        <time>2022-01-13T06:11:37Z</time>
      </trkpt>
      <trkpt lat="45.68874" lon="6.26106">
        <ele>1992.8</ele>
        <time>2022-01-13T06:11:38Z</time>
      </trkpt>
      <trkpt lat="45.68874" lon="6.26106">
        <ele>1992.8</ele>
        <time>2022-01-13T06:11:39Z</time>
      </trkpt>
      <trkpt lat="45.68874" lon="6.26106">
        <ele>1992.8</ele>
        <time>2022-01-13T06:11:40Z</time>
      </trkpt>
      <trkpt lat="45.68874" lon="6.26106">
        <ele>1992.8</ele>
        <time>2022-01-13T06:11:41Z</time>
      </trkpt>
      <trkpt lat="45.68874" lon="6.26106">
        <ele>1992.8</ele>
        <time>2022-01-13T06:11:42Z</time>
      </trkpt>
      <trkpt lat="45.68874" lon="6.26106">
        <ele>1991.7</ele>
        <time>2022-01-13T06:11:43Z</time>
      </trkpt>
      <trkpt lat="45.68874" lon="6.26106">
        <ele>1991.7</ele>
        <time>2022-01-13T06:11:44Z</time>
      </trkpt>
      <trkpt lat="45.68874" lon="6.26106">
        <ele>1991.7</ele>
        <time>2022-01-13T06:11:45Z</time>
      </trkpt>
      <trkpt lat="45.68874" lon="6.26106">
        <ele>1991.7</ele>
        <time>2022-01-13T06:11:46Z</time>
      </trkpt>
      <trkpt lat="45.68874" lon="6.26106">
        <ele>1991.7</ele>
        <time>2022-01-13T06:11:47Z</time>
      </trkpt>
      <trkpt lat="45.68874" lon="6.26106">
        <ele>1991.7</ele>
        <time>2022-01-13T06:11:48Z</time>
      </trkpt>
      <trkpt lat="45.68874" lon="6.26106">
        <ele>1991.7</ele>
        <time>2022-01-13T06:11:49Z</time>
      </trkpt>
      <trkpt lat="45.68874" lon="6.26106">
        <ele>1991.7</ele>
        <time>2022-01-13T06:11:50Z</time>
      </trkpt>
      <trkpt lat="45.68874" lon="6.26106">
        <ele>1991.7</ele>
        <time>2022-01-13T06:11:51Z</time>
      </trkpt>
      <trkpt lat="45.68874" lon="6.26106">
        <ele>1991.7</ele>
        <time>2022-01-13T06:11:52Z</time>
      </trkpt>
      <trkpt lat="45.68874" lon="6.26106">
        <ele>1992.8</ele>
        <time>2022-01-13T06:11:53Z</time>
      </trkpt>
      <trkpt lat="45.68874" lon="6.26106">
        <ele>1992.8</ele>
        <time>2022-01-13T06:11:54Z</time>
      </trkpt>
      <trkpt lat="45.68874" lon="6.26106">
        <ele>1992.8</ele>
        <time>2022-01-13T06:11:55Z</time>
      </trkpt>
      <trkpt lat="45.68874" lon="6.26106">
        <ele>1992.8</ele>
        <time>2022-01-13T06:11:56Z</time>
      </trkpt>
      <trkpt lat="45.68874" lon="6.26106">
        <ele>1992.8</ele>
        <time>2022-01-13T06:11:57Z</time>
      </trkpt>
      <trkpt lat="45.68874" lon="6.26106">
        <ele>1992.8</ele>
        <time>2022-01-13T06:11:58Z</time>
      </trkpt>
      <trkpt lat="45.68874" lon="6.26106">
        <ele>1991.7</ele>
        <time>2022-01-13T06:11:59Z</time>
      </trkpt>
      <trkpt lat="45.68874" lon="6.26106">
        <ele>1991.7</ele>
        <time>2022-01-13T06:12:00Z</time>
      </trkpt>
      <trkpt lat="45.68874" lon="6.26106">
        <ele>1991.7</ele>
        <time>2022-01-13T06:12:01Z</time>
      </trkpt>
      <trkpt lat="45.68874" lon="6.26106">
        <ele>1991.7</ele>
        <time>2022-01-13T06:12:02Z</time>
      </trkpt>
      <trkpt lat="45.68874" lon="6.26106">
        <ele>1991.7</ele>
        <time>2022-01-13T06:12:03Z</time>
      </trkpt>
      <trkpt lat="45.68874" lon="6.26106">
        <ele>1991.7</ele>
        <time>2022-01-13T06:12:04Z</time>
      </trkpt>
      <trkpt lat="45.68874" lon="6.26106">
        <ele>1991.7</ele>
        <time>2022-01-13T06:12:05Z</time>
      </trkpt>
      <trkpt lat="45.68874" lon="6.26106">
        <ele>1991.7</ele>
        <time>2022-01-13T06:12:06Z</time>
      </trkpt>
      <trkpt lat="45.68874" lon="6.26106">
        <ele>1991.7</ele>
        <time>2022-01-13T06:12:07Z</time>
      </trkpt>
      <trkpt lat="45.68874" lon="6.26106">
        <ele>1991.7</ele>
        <time>2022-01-13T06:12:08Z</time>
      </trkpt>
      <trkpt lat="45.68874" lon="6.26106">
        <ele>1990.8</ele>
        <time>2022-01-13T06:12:09Z</time>
      </trkpt>
      <trkpt lat="45.68874" lon="6.26106">
        <ele>1990.8</ele>
        <time>2022-01-13T06:12:10Z</time>
      </trkpt>
      <trkpt lat="45.68874" lon="6.26106">
        <ele>1990.8</ele>
        <time>2022-01-13T06:12:11Z</time>
      </trkpt>
      <trkpt lat="45.68874" lon="6.26106">
        <ele>1990.8</ele>
        <time>2022-01-13T06:12:12Z</time>
      </trkpt>
      <trkpt lat="45.68874" lon="6.26106">
        <ele>1991.7</ele>
        <time>2022-01-13T06:12:13Z</time>
      </trkpt>
      <trkpt lat="45.68874" lon="6.26106">
        <ele>1991.7</ele>
        <time>2022-01-13T06:12:14Z</time>
      </trkpt>
      <trkpt lat="45.68874" lon="6.26106">
        <ele>1991.7</ele>
        <time>2022-01-13T06:12:15Z</time>
      </trkpt>
      <trkpt lat="45.68874" lon="6.26106">
        <ele>1991.7</ele>
        <time>2022-01-13T06:12:16Z</time>
      </trkpt>
      <trkpt lat="45.68874" lon="6.26106">
        <ele>1991.7</ele>
        <time>2022-01-13T06:12:17Z</time>
      </trkpt>
      <trkpt lat="45.68874" lon="6.26106">
        <ele>1991.7</ele>
        <time>2022-01-13T06:12:18Z</time>
      </trkpt>
      <trkpt lat="45.68874" lon="6.26106">
        <ele>1991.7</ele>
        <time>2022-01-13T06:12:19Z</time>
      </trkpt>
      <trkpt lat="45.68874" lon="6.26106">
        <ele>1991.7</ele>
        <time>2022-01-13T06:12:20Z</time>
      </trkpt>
      <trkpt lat="45.68874" lon="6.26106">
        <ele>1991.7</ele>
        <time>2022-01-13T06:12:21Z</time>
      </trkpt>
      <trkpt lat="45.68874" lon="6.26106">
        <ele>1991.7</ele>
        <time>2022-01-13T06:12:22Z</time>
      </trkpt>
      <trkpt lat="45.68874" lon="6.26106">
        <ele>1991.7</ele>
        <time>2022-01-13T06:12:23Z</time>
      </trkpt>
      <trkpt lat="45.68874" lon="6.26106">
        <ele>1991.7</ele>
        <time>2022-01-13T06:12:24Z</time>
      </trkpt>
      <trkpt lat="45.68874" lon="6.26106">
        <ele>1991.7</ele>
        <time>2022-01-13T06:12:25Z</time>
      </trkpt>
      <trkpt lat="45.68874" lon="6.26106">
        <ele>1991.7</ele>
        <time>2022-01-13T06:12:26Z</time>
      </trkpt>
      <trkpt lat="45.68874" lon="6.26106">
        <ele>1990.8</ele>
        <time>2022-01-13T06:12:27Z</time>
      </trkpt>
      <trkpt lat="45.68874" lon="6.26106">
        <ele>1990.8</ele>
        <time>2022-01-13T06:12:28Z</time>
      </trkpt>
      <trkpt lat="45.68874" lon="6.26106">
        <ele>1990.8</ele>
        <time>2022-01-13T06:12:29Z</time>
      </trkpt>
      <trkpt lat="45.68874" lon="6.26106">
        <ele>1990.8</ele>
        <time>2022-01-13T06:12:30Z</time>
      </trkpt>
      <trkpt lat="45.68874" lon="6.26106">
        <ele>1990.8</ele>
        <time>2022-01-13T06:12:31Z</time>
      </trkpt>
      <trkpt lat="45.68874" lon="6.26106">
        <ele>1990.8</ele>
        <time>2022-01-13T06:12:32Z</time>
      </trkpt>
      <trkpt lat="45.68874" lon="6.26106">
        <ele>1990.8</ele>
        <time>2022-01-13T06:12:33Z</time>
      </trkpt>
      <trkpt lat="45.68874" lon="6.26106">
        <ele>1990.8</ele>
        <time>2022-01-13T06:12:34Z</time>
      </trkpt>
      <trkpt lat="45.68874" lon="6.26106">
        <ele>1990.8</ele>
        <time>2022-01-13T06:12:35Z</time>
      </trkpt>
      <trkpt lat="45.68874" lon="6.26106">
        <ele>1990.8</ele>
        <time>2022-01-13T06:12:36Z</time>
      </trkpt>
      <trkpt lat="45.68874" lon="6.26106">
        <ele>1991.7</ele>
        <time>2022-01-13T06:12:37Z</time>
      </trkpt>
      <trkpt lat="45.68874" lon="6.26106">
        <ele>1991.7</ele>
        <time>2022-01-13T06:12:38Z</time>
      </trkpt>
      <trkpt lat="45.68874" lon="6.26106">
        <ele>1991.7</ele>
        <time>2022-01-13T06:12:39Z</time>
      </trkpt>
      <trkpt lat="45.68874" lon="6.26106">
        <ele>1991.7</ele>
        <time>2022-01-13T06:12:40Z</time>
      </trkpt>
      <trkpt lat="45.68874" lon="6.26106">
        <ele>1991.7</ele>
        <time>2022-01-13T06:12:41Z</time>
      </trkpt>
      <trkpt lat="45.68874" lon="6.26106">
        <ele>1991.7</ele>
        <time>2022-01-13T06:12:42Z</time>
      </trkpt>
      <trkpt lat="45.68874" lon="6.26106">
        <ele>1991.7</ele>
        <time>2022-01-13T06:12:43Z</time>
      </trkpt>
      <trkpt lat="45.68874" lon="6.26106">
        <ele>1991.7</ele>
        <time>2022-01-13T06:12:44Z</time>
      </trkpt>
      <trkpt lat="45.68874" lon="6.26106">
        <ele>1991.7</ele>
        <time>2022-01-13T06:12:45Z</time>
      </trkpt>
      <trkpt lat="45.68874" lon="6.26106">
        <ele>1991.7</ele>
        <time>2022-01-13T06:12:46Z</time>
      </trkpt>
      <trkpt lat="45.68874" lon="6.26106">
        <ele>1990.8</ele>
        <time>2022-01-13T06:12:47Z</time>
      </trkpt>
      <trkpt lat="45.68874" lon="6.26106">
        <ele>1990.8</ele>
        <time>2022-01-13T06:12:48Z</time>
      </trkpt>
      <trkpt lat="45.68874" lon="6.26106">
        <ele>1990.8</ele>
        <time>2022-01-13T06:12:49Z</time>
      </trkpt>
      <trkpt lat="45.68874" lon="6.26106">
        <ele>1990.8</ele>
        <time>2022-01-13T06:12:50Z</time>
      </trkpt>
      <trkpt lat="45.68874" lon="6.26106">
        <ele>1990.8</ele>
        <time>2022-01-13T06:12:51Z</time>
      </trkpt>
      <trkpt lat="45.68874" lon="6.26106">
        <ele>1990.8</ele>
        <time>2022-01-13T06:12:52Z</time>
      </trkpt>
      <trkpt lat="45.68874" lon="6.26106">
        <ele>1991.7</ele>
        <time>2022-01-13T06:12:53Z</time>
      </trkpt>
      <trkpt lat="45.68874" lon="6.26106">
        <ele>1991.7</ele>
        <time>2022-01-13T06:12:54Z</time>
      </trkpt>
      <trkpt lat="45.68874" lon="6.26106">
        <ele>1991.7</ele>
        <time>2022-01-13T06:12:55Z</time>
      </trkpt>
      <trkpt lat="45.68874" lon="6.26106">
        <ele>1991.7</ele>
        <time>2022-01-13T06:12:56Z</time>
      </trkpt>
      <trkpt lat="45.68874" lon="6.26106">
        <ele>1991.7</ele>
        <time>2022-01-13T06:12:57Z</time>
      </trkpt>
      <trkpt lat="45.68874" lon="6.26106">
        <ele>1991.7</ele>
        <time>2022-01-13T06:12:58Z</time>
      </trkpt>
      <trkpt lat="45.68874" lon="6.26106">
        <ele>1991.7</ele>
        <time>2022-01-13T06:12:59Z</time>
      </trkpt>
      <trkpt lat="45.68874" lon="6.26106">
        <ele>1991.7</ele>
        <time>2022-01-13T06:13:00Z</time>
      </trkpt>
      <trkpt lat="45.68874" lon="6.26106">
        <ele>1992.8</ele>
        <time>2022-01-13T06:13:01Z</time>
      </trkpt>
      <trkpt lat="45.68874" lon="6.26106">
        <ele>1992.8</ele>
        <time>2022-01-13T06:13:02Z</time>
      </trkpt>
      <trkpt lat="45.68874" lon="6.26106">
        <ele>1991.7</ele>
        <time>2022-01-13T06:13:03Z</time>
      </trkpt>
      <trkpt lat="45.68874" lon="6.26106">
        <ele>1991.7</ele>
        <time>2022-01-13T06:13:04Z</time>
      </trkpt>
      <trkpt lat="45.68874" lon="6.26106">
        <ele>1991.7</ele>
        <time>2022-01-13T06:13:05Z</time>
      </trkpt>
      <trkpt lat="45.68874" lon="6.26106">
        <ele>1991.7</ele>
        <time>2022-01-13T06:13:06Z</time>
      </trkpt>
      <trkpt lat="45.68874" lon="6.26106">
        <ele>1991.7</ele>
        <time>2022-01-13T06:13:07Z</time>
      </trkpt>
      <trkpt lat="45.68874" lon="6.26106">
        <ele>1991.7</ele>
        <time>2022-01-13T06:13:08Z</time>
      </trkpt>
      <trkpt lat="45.68874" lon="6.26106">
        <ele>1991.7</ele>
        <time>2022-01-13T06:13:09Z</time>
      </trkpt>
      <trkpt lat="45.68874" lon="6.26106">
        <ele>1991.7</ele>
        <time>2022-01-13T06:13:10Z</time>
      </trkpt>
      <trkpt lat="45.68874" lon="6.26106">
        <ele>1991.7</ele>
        <time>2022-01-13T06:13:11Z</time>
      </trkpt>
      <trkpt lat="45.68874" lon="6.26106">
        <ele>1991.7</ele>
        <time>2022-01-13T06:13:12Z</time>
      </trkpt>
      <trkpt lat="45.68874" lon="6.26106">
        <ele>1991.7</ele>
        <time>2022-01-13T06:13:13Z</time>
      </trkpt>
      <trkpt lat="45.68874" lon="6.26106">
        <ele>1991.7</ele>
        <time>2022-01-13T06:13:14Z</time>
      </trkpt>
      <trkpt lat="45.68874" lon="6.26106">
        <ele>1992.8</ele>
        <time>2022-01-13T06:13:15Z</time>
      </trkpt>
      <trkpt lat="45.68874" lon="6.26106">
        <ele>1992.8</ele>
        <time>2022-01-13T06:13:16Z</time>
      </trkpt>
      <trkpt lat="45.68874" lon="6.26106">
        <ele>1991.7</ele>
        <time>2022-01-13T06:13:17Z</time>
      </trkpt>
      <trkpt lat="45.68874" lon="6.26106">
        <ele>1991.7</ele>
        <time>2022-01-13T06:13:18Z</time>
      </trkpt>
      <trkpt lat="45.68874" lon="6.26106">
        <ele>1991.7</ele>
        <time>2022-01-13T06:13:19Z</time>
      </trkpt>
      <trkpt lat="45.68874" lon="6.26106">
        <ele>1991.7</ele>
        <time>2022-01-13T06:13:20Z</time>
      </trkpt>
      <trkpt lat="45.68874" lon="6.26106">
        <ele>1992.8</ele>
        <time>2022-01-13T06:13:21Z</time>
      </trkpt>
      <trkpt lat="45.68874" lon="6.26106">
        <ele>1992.8</ele>
        <time>2022-01-13T06:13:22Z</time>
      </trkpt>
      <trkpt lat="45.68874" lon="6.26106">
        <ele>1992.8</ele>
        <time>2022-01-13T06:13:23Z</time>
      </trkpt>
      <trkpt lat="45.68874" lon="6.26106">
        <ele>1992.8</ele>
        <time>2022-01-13T06:13:24Z</time>
      </trkpt>
      <trkpt lat="45.68874" lon="6.26106">
        <ele>1992.8</ele>
        <time>2022-01-13T06:13:25Z</time>
      </trkpt>
      <trkpt lat="45.68874" lon="6.26106">
        <ele>1992.8</ele>
        <time>2022-01-13T06:13:26Z</time>
      </trkpt>
      <trkpt lat="45.68874" lon="6.26106">
        <ele>1993.7</ele>
        <time>2022-01-13T06:13:27Z</time>
      </trkpt>
      <trkpt lat="45.68874" lon="6.26106">
        <ele>1993.7</ele>
        <time>2022-01-13T06:13:28Z</time>
      </trkpt>
      <trkpt lat="45.68874" lon="6.26106">
        <ele>1992.8</ele>
        <time>2022-01-13T06:13:29Z</time>
      </trkpt>
      <trkpt lat="45.68874" lon="6.26106">
        <ele>1992.8</ele>
        <time>2022-01-13T06:13:30Z</time>
      </trkpt>
      <trkpt lat="45.68874" lon="6.26106">
        <ele>1991.7</ele>
        <time>2022-01-13T06:13:31Z</time>
      </trkpt>
      <trkpt lat="45.68874" lon="6.26106">
        <ele>1991.7</ele>
        <time>2022-01-13T06:13:32Z</time>
      </trkpt>
      <trkpt lat="45.68874" lon="6.26106">
        <ele>1991.7</ele>
        <time>2022-01-13T06:13:33Z</time>
      </trkpt>
      <trkpt lat="45.68874" lon="6.26106">
        <ele>1991.7</ele>
        <time>2022-01-13T06:13:34Z</time>
      </trkpt>
      <trkpt lat="45.68874" lon="6.26106">
        <ele>1992.8</ele>
        <time>2022-01-13T06:13:35Z</time>
      </trkpt>
      <trkpt lat="45.68874" lon="6.26106">
        <ele>1992.8</ele>
        <time>2022-01-13T06:13:36Z</time>
      </trkpt>
      <trkpt lat="45.68874" lon="6.26106">
        <ele>1992.8</ele>
        <time>2022-01-13T06:13:37Z</time>
      </trkpt>
      <trkpt lat="45.68874" lon="6.26106">
        <ele>1992.8</ele>
        <time>2022-01-13T06:13:38Z</time>
      </trkpt>
      <trkpt lat="45.68874" lon="6.26106">
        <ele>1993.7</ele>
        <time>2022-01-13T06:13:39Z</time>
      </trkpt>
      <trkpt lat="45.68874" lon="6.26106">
        <ele>1993.7</ele>
        <time>2022-01-13T06:13:40Z</time>
      </trkpt>
      <trkpt lat="45.68874" lon="6.26106">
        <ele>1992.8</ele>
        <time>2022-01-13T06:13:41Z</time>
      </trkpt>
      <trkpt lat="45.68874" lon="6.26106">
        <ele>1992.8</ele>
        <time>2022-01-13T06:13:42Z</time>
      </trkpt>
      <trkpt lat="45.68874" lon="6.26106">
        <ele>1992.8</ele>
        <time>2022-01-13T06:13:43Z</time>
      </trkpt>
      <trkpt lat="45.68874" lon="6.26106">
        <ele>1992.8</ele>
        <time>2022-01-13T06:13:44Z</time>
      </trkpt>
      <trkpt lat="45.68874" lon="6.26106">
        <ele>1992.8</ele>
        <time>2022-01-13T06:13:45Z</time>
      </trkpt>
      <trkpt lat="45.68874" lon="6.26106">
        <ele>1992.8</ele>
        <time>2022-01-13T06:13:46Z</time>
      </trkpt>
      <trkpt lat="45.68874" lon="6.26106">
        <ele>1992.8</ele>
        <time>2022-01-13T06:13:47Z</time>
      </trkpt>
      <trkpt lat="45.68874" lon="6.26106">
        <ele>1992.8</ele>
        <time>2022-01-13T06:13:48Z</time>
      </trkpt>
      <trkpt lat="45.68874" lon="6.26106">
        <ele>1992.8</ele>
        <time>2022-01-13T06:13:49Z</time>
      </trkpt>
      <trkpt lat="45.68874" lon="6.26106">
        <ele>1992.8</ele>
        <time>2022-01-13T06:13:50Z</time>
      </trkpt>
      <trkpt lat="45.68874" lon="6.26106">
        <ele>1992.8</ele>
        <time>2022-01-13T06:13:51Z</time>
      </trkpt>
      <trkpt lat="45.68874" lon="6.26106">
        <ele>1992.8</ele>
        <time>2022-01-13T06:13:52Z</time>
      </trkpt>
      <trkpt lat="45.68874" lon="6.26106">
        <ele>1992.8</ele>
        <time>2022-01-13T06:13:53Z</time>
      </trkpt>
      <trkpt lat="45.68874" lon="6.26106">
        <ele>1992.8</ele>
        <time>2022-01-13T06:13:54Z</time>
      </trkpt>
      <trkpt lat="45.68874" lon="6.26106">
        <ele>1992.8</ele>
        <time>2022-01-13T06:13:55Z</time>
      </trkpt>
      <trkpt lat="45.68874" lon="6.26106">
        <ele>1992.8</ele>
        <time>2022-01-13T06:13:56Z</time>
      </trkpt>
      <trkpt lat="45.68874" lon="6.26106">
        <ele>1992.8</ele>
        <time>2022-01-13T06:13:57Z</time>
      </trkpt>
      <trkpt lat="45.68874" lon="6.26106">
        <ele>1992.8</ele>
        <time>2022-01-13T06:13:58Z</time>
      </trkpt>
      <trkpt lat="45.68874" lon="6.26106">
        <ele>1992.8</ele>
        <time>2022-01-13T06:13:59Z</time>
      </trkpt>
      <trkpt lat="45.68874" lon="6.26106">
        <ele>1992.8</ele>
        <time>2022-01-13T06:14:00Z</time>
      </trkpt>
      <trkpt lat="45.68874" lon="6.26106">
        <ele>1992.8</ele>
        <time>2022-01-13T06:14:01Z</time>
      </trkpt>
      <trkpt lat="45.68874" lon="6.26106">
        <ele>1992.8</ele>
        <time>2022-01-13T06:14:02Z</time>
      </trkpt>
      <trkpt lat="45.68874" lon="6.26106">
        <ele>1992.8</ele>
        <time>2022-01-13T06:14:03Z</time>
      </trkpt>
      <trkpt lat="45.68874" lon="6.26106">
        <ele>1992.8</ele>
        <time>2022-01-13T06:14:04Z</time>
      </trkpt>
      <trkpt lat="45.68874" lon="6.26106">
        <ele>1992.8</ele>
        <time>2022-01-13T06:14:05Z</time>
      </trkpt>
      <trkpt lat="45.68874" lon="6.26106">
        <ele>1992.8</ele>
        <time>2022-01-13T06:14:06Z</time>
      </trkpt>
      <trkpt lat="45.68874" lon="6.26106">
        <ele>1992.8</ele>
        <time>2022-01-13T06:14:07Z</time>
      </trkpt>
      <trkpt lat="45.68874" lon="6.26106">
        <ele>1992.8</ele>
        <time>2022-01-13T06:14:08Z</time>
      </trkpt>
      <trkpt lat="45.68874" lon="6.26106">
        <ele>1992.8</ele>
        <time>2022-01-13T06:14:09Z</time>
      </trkpt>
      <trkpt lat="45.68874" lon="6.26106">
        <ele>1992.8</ele>
        <time>2022-01-13T06:14:10Z</time>
      </trkpt>
      <trkpt lat="45.68874" lon="6.26106">
        <ele>1992.8</ele>
        <time>2022-01-13T06:14:11Z</time>
      </trkpt>
      <trkpt lat="45.68874" lon="6.26106">
        <ele>1992.8</ele>
        <time>2022-01-13T06:14:12Z</time>
      </trkpt>
      <trkpt lat="45.68874" lon="6.26106">
        <ele>1992.8</ele>
        <time>2022-01-13T06:14:13Z</time>
      </trkpt>
      <trkpt lat="45.68874" lon="6.26106">
        <ele>1992.8</ele>
        <time>2022-01-13T06:14:14Z</time>
      </trkpt>
      <trkpt lat="45.68874" lon="6.26106">
        <ele>1992.8</ele>
        <time>2022-01-13T06:14:15Z</time>
      </trkpt>
      <trkpt lat="45.68874" lon="6.26106">
        <ele>1992.8</ele>
        <time>2022-01-13T06:14:16Z</time>
      </trkpt>
      <trkpt lat="45.68874" lon="6.26106">
        <ele>1992.8</ele>
        <time>2022-01-13T06:14:17Z</time>
      </trkpt>
      <trkpt lat="45.68874" lon="6.26106">
        <ele>1992.8</ele>
        <time>2022-01-13T06:14:18Z</time>
      </trkpt>
      <trkpt lat="45.68874" lon="6.26106">
        <ele>1992.8</ele>
        <time>2022-01-13T06:14:19Z</time>
      </trkpt>
      <trkpt lat="45.68874" lon="6.26106">
        <ele>1992.8</ele>
        <time>2022-01-13T06:14:20Z</time>
      </trkpt>
      <trkpt lat="45.68874" lon="6.26106">
        <ele>1992.8</ele>
        <time>2022-01-13T06:14:21Z</time>
      </trkpt>
      <trkpt lat="45.68874" lon="6.26106">
        <ele>1992.8</ele>
        <time>2022-01-13T06:14:22Z</time>
      </trkpt>
      <trkpt lat="45.68874" lon="6.26106">
        <ele>1992.8</ele>
        <time>2022-01-13T06:14:23Z</time>
      </trkpt>
      <trkpt lat="45.68874" lon="6.26106">
        <ele>1992.8</ele>
        <time>2022-01-13T06:14:24Z</time>
      </trkpt>
      <trkpt lat="45.68874" lon="6.26106">
        <ele>1992.8</ele>
        <time>2022-01-13T06:14:25Z</time>
      </trkpt>
      <trkpt lat="45.68874" lon="6.26106">
        <ele>1992.8</ele>
        <time>2022-01-13T06:14:26Z</time>
      </trkpt>
      <trkpt lat="45.68874" lon="6.26106">
        <ele>1992.8</ele>
        <time>2022-01-13T06:14:27Z</time>
      </trkpt>
      <trkpt lat="45.68874" lon="6.26106">
        <ele>1992.8</ele>
        <time>2022-01-13T06:14:28Z</time>
      </trkpt>
      <trkpt lat="45.68874" lon="6.26106">
        <ele>1992.8</ele>
        <time>2022-01-13T06:14:29Z</time>
      </trkpt>
      <trkpt lat="45.68874" lon="6.26106">
        <ele>1992.8</ele>
        <time>2022-01-13T06:14:30Z</time>
      </trkpt>
      <trkpt lat="45.68874" lon="6.26106">
        <ele>1992.8</ele>
        <time>2022-01-13T06:14:31Z</time>
      </trkpt>
      <trkpt lat="45.68874" lon="6.26106">
        <ele>1992.8</ele>
        <time>2022-01-13T06:14:32Z</time>
      </trkpt>
      <trkpt lat="45.68874" lon="6.26106">
        <ele>1992.8</ele>
        <time>2022-01-13T06:14:33Z</time>
      </trkpt>
      <trkpt lat="45.68874" lon="6.26106">
        <ele>1992.8</ele>
        <time>2022-01-13T06:14:34Z</time>
      </trkpt>
      <trkpt lat="45.68874" lon="6.26106">
        <ele>1992.8</ele>
        <time>2022-01-13T06:14:35Z</time>
      </trkpt>
      <trkpt lat="45.68874" lon="6.26106">
        <ele>1992.8</ele>
        <time>2022-01-13T06:14:36Z</time>
      </trkpt>
      <trkpt lat="45.68874" lon="6.26106">
        <ele>1992.8</ele>
        <time>2022-01-13T06:14:37Z</time>
      </trkpt>
      <trkpt lat="45.68878" lon="6.26105">
        <ele>1992.8</ele>
        <time>2022-01-13T06:14:38Z</time>
      </trkpt>
      <trkpt lat="45.68878" lon="6.26105">
        <ele>1992.8</ele>
        <time>2022-01-13T06:14:39Z</time>
      </trkpt>
      <trkpt lat="45.68878" lon="6.26105">
        <ele>1992.8</ele>
        <time>2022-01-13T06:14:40Z</time>
      </trkpt>
      <trkpt lat="45.68878" lon="6.26105">
        <ele>1992.8</ele>
        <time>2022-01-13T06:14:41Z</time>
      </trkpt>
      <trkpt lat="45.68878" lon="6.26105">
        <ele>1992.8</ele>
        <time>2022-01-13T06:14:42Z</time>
      </trkpt>
      <trkpt lat="45.68878" lon="6.26105">
        <ele>1992.8</ele>
        <time>2022-01-13T06:14:43Z</time>
      </trkpt>
      <trkpt lat="45.68878" lon="6.26105">
        <ele>1992.8</ele>
        <time>2022-01-13T06:14:44Z</time>
      </trkpt>
      <trkpt lat="45.68878" lon="6.26105">
        <ele>1992.8</ele>
        <time>2022-01-13T06:14:45Z</time>
      </trkpt>
      <trkpt lat="45.68878" lon="6.26105">
        <ele>1992.8</ele>
        <time>2022-01-13T06:14:46Z</time>
      </trkpt>
      <trkpt lat="45.68876" lon="6.26104">
        <ele>1992.8</ele>
        <time>2022-01-13T06:14:47Z</time>
      </trkpt>
      <trkpt lat="45.68874" lon="6.26104">
        <ele>1992.8</ele>
        <time>2022-01-13T06:14:48Z</time>
      </trkpt>
      <trkpt lat="45.68873" lon="6.26103">
        <ele>1992.8</ele>
        <time>2022-01-13T06:14:49Z</time>
      </trkpt>
      <trkpt lat="45.68871" lon="6.26102">
        <ele>1992.8</ele>
        <time>2022-01-13T06:14:50Z</time>
      </trkpt>
      <trkpt lat="45.68869" lon="6.26101">
        <ele>1992.8</ele>
        <time>2022-01-13T06:14:51Z</time>
      </trkpt>
      <trkpt lat="45.68868" lon="6.261">
        <ele>1992.8</ele>
        <time>2022-01-13T06:14:52Z</time>
      </trkpt>
      <trkpt lat="45.68866" lon="6.26099">
        <ele>1992.8</ele>
        <time>2022-01-13T06:14:53Z</time>
      </trkpt>
      <trkpt lat="45.68864" lon="6.26098">
        <ele>1991.7</ele>
        <time>2022-01-13T06:14:54Z</time>
      </trkpt>
      <trkpt lat="45.68862" lon="6.26098">
        <ele>1991.7</ele>
        <time>2022-01-13T06:14:55Z</time>
      </trkpt>
      <trkpt lat="45.6886" lon="6.26098">
        <ele>1991.7</ele>
        <time>2022-01-13T06:14:56Z</time>
      </trkpt>
      <trkpt lat="45.68859" lon="6.26098">
        <ele>1991.7</ele>
        <time>2022-01-13T06:14:57Z</time>
      </trkpt>
      <trkpt lat="45.68857" lon="6.26097">
        <ele>1991.7</ele>
        <time>2022-01-13T06:14:58Z</time>
      </trkpt>
      <trkpt lat="45.68856" lon="6.26096">
        <ele>1991.7</ele>
        <time>2022-01-13T06:14:59Z</time>
      </trkpt>
      <trkpt lat="45.68855" lon="6.26095">
        <ele>1991.7</ele>
        <time>2022-01-13T06:15:00Z</time>
      </trkpt>
      <trkpt lat="45.68854" lon="6.26094">
        <ele>1991.7</ele>
        <time>2022-01-13T06:15:01Z</time>
      </trkpt>
      <trkpt lat="45.68852" lon="6.26093">
        <ele>1991.7</ele>
        <time>2022-01-13T06:15:02Z</time>
      </trkpt>
      <trkpt lat="45.68851" lon="6.26093">
        <ele>1991.7</ele>
        <time>2022-01-13T06:15:03Z</time>
      </trkpt>
      <trkpt lat="45.6885" lon="6.26092">
        <ele>1991.7</ele>
        <time>2022-01-13T06:15:04Z</time>
      </trkpt>
      <trkpt lat="45.68849" lon="6.26092">
        <ele>1991.7</ele>
        <time>2022-01-13T06:15:05Z</time>
      </trkpt>
      <trkpt lat="45.68848" lon="6.26091">
        <ele>1991.7</ele>
        <time>2022-01-13T06:15:06Z</time>
      </trkpt>
      <trkpt lat="45.68847" lon="6.2609">
        <ele>1990.8</ele>
        <time>2022-01-13T06:15:07Z</time>
      </trkpt>
      <trkpt lat="45.68846" lon="6.26089">
        <ele>1990.8</ele>
        <time>2022-01-13T06:15:08Z</time>
      </trkpt>
      <trkpt lat="45.68845" lon="6.26089">
        <ele>1990.8</ele>
        <time>2022-01-13T06:15:09Z</time>
      </trkpt>
      <trkpt lat="45.68843" lon="6.26088">
        <ele>1990.8</ele>
        <time>2022-01-13T06:15:10Z</time>
      </trkpt>
      <trkpt lat="45.68842" lon="6.26087">
        <ele>1990.8</ele>
        <time>2022-01-13T06:15:11Z</time>
      </trkpt>
      <trkpt lat="45.68841" lon="6.26087">
        <ele>1990.8</ele>
        <time>2022-01-13T06:15:12Z</time>
      </trkpt>
      <trkpt lat="45.6884" lon="6.26086">
        <ele>1990.8</ele>
        <time>2022-01-13T06:15:13Z</time>
      </trkpt>
      <trkpt lat="45.68838" lon="6.26085">
        <ele>1990.8</ele>
        <time>2022-01-13T06:15:14Z</time>
      </trkpt>
      <trkpt lat="45.68837" lon="6.26085">
        <ele>1990.8</ele>
        <time>2022-01-13T06:15:15Z</time>
      </trkpt>
      <trkpt lat="45.68836" lon="6.26084">
        <ele>1990.8</ele>
        <time>2022-01-13T06:15:16Z</time>
      </trkpt>
      <trkpt lat="45.68835" lon="6.26084">
        <ele>1989.8</ele>
        <time>2022-01-13T06:15:17Z</time>
      </trkpt>
      <trkpt lat="45.68834" lon="6.26083">
        <ele>1989.8</ele>
        <time>2022-01-13T06:15:18Z</time>
      </trkpt>
      <trkpt lat="45.68833" lon="6.26082">
        <ele>1989.8</ele>
        <time>2022-01-13T06:15:19Z</time>
      </trkpt>
      <trkpt lat="45.68832" lon="6.26081">
        <ele>1989.8</ele>
        <time>2022-01-13T06:15:20Z</time>
      </trkpt>
      <trkpt lat="45.68831" lon="6.2608">
        <ele>1989.8</ele>
        <time>2022-01-13T06:15:21Z</time>
      </trkpt>
      <trkpt lat="45.6883" lon="6.26079">
        <ele>1988.8</ele>
        <time>2022-01-13T06:15:22Z</time>
      </trkpt>
      <trkpt lat="45.6883" lon="6.26079">
        <ele>1988.8</ele>
        <time>2022-01-13T06:15:23Z</time>
      </trkpt>
      <trkpt lat="45.68828" lon="6.26078">
        <ele>1988.8</ele>
        <time>2022-01-13T06:15:24Z</time>
      </trkpt>
      <trkpt lat="45.68828" lon="6.26077">
        <ele>1988.8</ele>
        <time>2022-01-13T06:15:25Z</time>
      </trkpt>
      <trkpt lat="45.68827" lon="6.26076">
        <ele>1988.8</ele>
        <time>2022-01-13T06:15:26Z</time>
      </trkpt>
      <trkpt lat="45.68826" lon="6.26074">
        <ele>1988.8</ele>
        <time>2022-01-13T06:15:27Z</time>
      </trkpt>
      <trkpt lat="45.68825" lon="6.26073">
        <ele>1987.8</ele>
        <time>2022-01-13T06:15:28Z</time>
      </trkpt>
      <trkpt lat="45.68824" lon="6.26073">
        <ele>1987.8</ele>
        <time>2022-01-13T06:15:29Z</time>
      </trkpt>
      <trkpt lat="45.68823" lon="6.26072">
        <ele>1987.8</ele>
        <time>2022-01-13T06:15:30Z</time>
      </trkpt>
      <trkpt lat="45.68822" lon="6.26072">
        <ele>1987.8</ele>
        <time>2022-01-13T06:15:31Z</time>
      </trkpt>
      <trkpt lat="45.68821" lon="6.26072">
        <ele>1987.8</ele>
        <time>2022-01-13T06:15:32Z</time>
      </trkpt>
      <trkpt lat="45.6882" lon="6.26071">
        <ele>1986.7</ele>
        <time>2022-01-13T06:15:33Z</time>
      </trkpt>
      <trkpt lat="45.68819" lon="6.26071">
        <ele>1986.7</ele>
        <time>2022-01-13T06:15:34Z</time>
      </trkpt>
      <trkpt lat="45.68819" lon="6.2607">
        <ele>1986.7</ele>
        <time>2022-01-13T06:15:35Z</time>
      </trkpt>
      <trkpt lat="45.68818" lon="6.2607">
        <ele>1986.7</ele>
        <time>2022-01-13T06:15:36Z</time>
      </trkpt>
      <trkpt lat="45.68818" lon="6.2607">
        <ele>1985.8</ele>
        <time>2022-01-13T06:15:37Z</time>
      </trkpt>
      <trkpt lat="45.68817" lon="6.2607">
        <ele>1985.8</ele>
        <time>2022-01-13T06:15:38Z</time>
      </trkpt>
      <trkpt lat="45.68816" lon="6.26069">
        <ele>1985.8</ele>
        <time>2022-01-13T06:15:39Z</time>
      </trkpt>
      <trkpt lat="45.68816" lon="6.26069">
        <ele>1985.8</ele>
        <time>2022-01-13T06:15:40Z</time>
      </trkpt>
      <trkpt lat="45.68816" lon="6.26069">
        <ele>1985.8</ele>
        <time>2022-01-13T06:15:41Z</time>
      </trkpt>
      <trkpt lat="45.68815" lon="6.26069">
        <ele>1984.7</ele>
        <time>2022-01-13T06:15:42Z</time>
      </trkpt>
      <trkpt lat="45.68815" lon="6.26069">
        <ele>1984.7</ele>
        <time>2022-01-13T06:15:43Z</time>
      </trkpt>
      <trkpt lat="45.68814" lon="6.26069">
        <ele>1984.7</ele>
        <time>2022-01-13T06:15:44Z</time>
      </trkpt>
      <trkpt lat="45.68814" lon="6.26069">
        <ele>1984.7</ele>
        <time>2022-01-13T06:15:45Z</time>
      </trkpt>
      <trkpt lat="45.68813" lon="6.26069">
        <ele>1984.7</ele>
        <time>2022-01-13T06:15:46Z</time>
      </trkpt>
      <trkpt lat="45.68813" lon="6.26069">
        <ele>1983.8</ele>
        <time>2022-01-13T06:15:47Z</time>
      </trkpt>
      <trkpt lat="45.68812" lon="6.26068">
        <ele>1983.8</ele>
        <time>2022-01-13T06:15:48Z</time>
      </trkpt>
      <trkpt lat="45.68812" lon="6.26068">
        <ele>1983.8</ele>
        <time>2022-01-13T06:15:49Z</time>
      </trkpt>
      <trkpt lat="45.68812" lon="6.26068">
        <ele>1983.8</ele>
        <time>2022-01-13T06:15:50Z</time>
      </trkpt>
      <trkpt lat="45.68811" lon="6.26068">
        <ele>1983.8</ele>
        <time>2022-01-13T06:15:51Z</time>
      </trkpt>
      <trkpt lat="45.68811" lon="6.26068">
        <ele>1982.7</ele>
        <time>2022-01-13T06:15:52Z</time>
      </trkpt>
      <trkpt lat="45.68811" lon="6.26068">
        <ele>1982.7</ele>
        <time>2022-01-13T06:15:53Z</time>
      </trkpt>
      <trkpt lat="45.6881" lon="6.26068">
        <ele>1982.7</ele>
        <time>2022-01-13T06:15:54Z</time>
      </trkpt>
      <trkpt lat="45.6881" lon="6.26068">
        <ele>1982.7</ele>
        <time>2022-01-13T06:15:55Z</time>
      </trkpt>
      <trkpt lat="45.68809" lon="6.26067">
        <ele>1982.7</ele>
        <time>2022-01-13T06:15:56Z</time>
      </trkpt>
      <trkpt lat="45.68809" lon="6.26067">
        <ele>1981.8</ele>
        <time>2022-01-13T06:15:57Z</time>
      </trkpt>
      <trkpt lat="45.68809" lon="6.26067">
        <ele>1981.8</ele>
        <time>2022-01-13T06:15:58Z</time>
      </trkpt>
      <trkpt lat="45.68809" lon="6.26067">
        <ele>1981.8</ele>
        <time>2022-01-13T06:15:59Z</time>
      </trkpt>
      <trkpt lat="45.68808" lon="6.26067">
        <ele>1981.8</ele>
        <time>2022-01-13T06:16:00Z</time>
      </trkpt>
      <trkpt lat="45.68808" lon="6.26067">
        <ele>1980.8</ele>
        <time>2022-01-13T06:16:01Z</time>
      </trkpt>
      <trkpt lat="45.68808" lon="6.26067">
        <ele>1980.8</ele>
        <time>2022-01-13T06:16:02Z</time>
      </trkpt>
      <trkpt lat="45.68808" lon="6.26067">
        <ele>1980.8</ele>
        <time>2022-01-13T06:16:03Z</time>
      </trkpt>
      <trkpt lat="45.68808" lon="6.26067">
        <ele>1980.8</ele>
        <time>2022-01-13T06:16:04Z</time>
      </trkpt>
      <trkpt lat="45.68808" lon="6.26067">
        <ele>1980.8</ele>
        <time>2022-01-13T06:16:05Z</time>
      </trkpt>
      <trkpt lat="45.68807" lon="6.26067">
        <ele>1979.9</ele>
        <time>2022-01-13T06:16:06Z</time>
      </trkpt>
      <trkpt lat="45.68807" lon="6.26067">
        <ele>1979.9</ele>
        <time>2022-01-13T06:16:07Z</time>
      </trkpt>
      <trkpt lat="45.68807" lon="6.26067">
        <ele>1979.9</ele>
        <time>2022-01-13T06:16:08Z</time>
      </trkpt>
      <trkpt lat="45.68807" lon="6.26067">
        <ele>1979.9</ele>
        <time>2022-01-13T06:16:09Z</time>
      </trkpt>
      <trkpt lat="45.68807" lon="6.26067">
        <ele>1979.9</ele>
        <time>2022-01-13T06:16:10Z</time>
      </trkpt>
      <trkpt lat="45.68807" lon="6.26067">
        <ele>1978.8</ele>
        <time>2022-01-13T06:16:11Z</time>
      </trkpt>
      <trkpt lat="45.68807" lon="6.26067">
        <ele>1978.8</ele>
        <time>2022-01-13T06:16:12Z</time>
      </trkpt>
      <trkpt lat="45.68807" lon="6.26067">
        <ele>1978.8</ele>
        <time>2022-01-13T06:16:13Z</time>
      </trkpt>
      <trkpt lat="45.68807" lon="6.26067">
        <ele>1978.8</ele>
        <time>2022-01-13T06:16:14Z</time>
      </trkpt>
      <trkpt lat="45.68807" lon="6.26067">
        <ele>1977.7</ele>
        <time>2022-01-13T06:16:15Z</time>
      </trkpt>
      <trkpt lat="45.68807" lon="6.26067">
        <ele>1977.7</ele>
        <time>2022-01-13T06:16:16Z</time>
      </trkpt>
      <trkpt lat="45.68807" lon="6.26067">
        <ele>1977.7</ele>
        <time>2022-01-13T06:16:17Z</time>
      </trkpt>
      <trkpt lat="45.68807" lon="6.26067">
        <ele>1977.7</ele>
        <time>2022-01-13T06:16:18Z</time>
      </trkpt>
      <trkpt lat="45.68807" lon="6.26067">
        <ele>1976.8</ele>
        <time>2022-01-13T06:16:19Z</time>
      </trkpt>
      <trkpt lat="45.68807" lon="6.26067">
        <ele>1976.8</ele>
        <time>2022-01-13T06:16:20Z</time>
      </trkpt>
      <trkpt lat="45.68807" lon="6.26067">
        <ele>1976.8</ele>
        <time>2022-01-13T06:16:21Z</time>
      </trkpt>
      <trkpt lat="45.68807" lon="6.26067">
        <ele>1976.8</ele>
        <time>2022-01-13T06:16:22Z</time>
      </trkpt>
      <trkpt lat="45.68807" lon="6.26067">
        <ele>1975.7</ele>
        <time>2022-01-13T06:16:23Z</time>
      </trkpt>
      <trkpt lat="45.68807" lon="6.26067">
        <ele>1975.7</ele>
        <time>2022-01-13T06:16:24Z</time>
      </trkpt>
      <trkpt lat="45.68807" lon="6.26067">
        <ele>1975.7</ele>
        <time>2022-01-13T06:16:25Z</time>
      </trkpt>
      <trkpt lat="45.68807" lon="6.26067">
        <ele>1975.7</ele>
        <time>2022-01-13T06:16:26Z</time>
      </trkpt>
      <trkpt lat="45.68807" lon="6.26067">
        <ele>1975.7</ele>
        <time>2022-01-13T06:16:27Z</time>
      </trkpt>
      <trkpt lat="45.68807" lon="6.26067">
        <ele>1974.8</ele>
        <time>2022-01-13T06:16:28Z</time>
      </trkpt>
      <trkpt lat="45.68806" lon="6.26067">
        <ele>1974.8</ele>
        <time>2022-01-13T06:16:29Z</time>
      </trkpt>
      <trkpt lat="45.68806" lon="6.26067">
        <ele>1974.8</ele>
        <time>2022-01-13T06:16:30Z</time>
      </trkpt>
      <trkpt lat="45.68806" lon="6.26067">
        <ele>1974.8</ele>
        <time>2022-01-13T06:16:31Z</time>
      </trkpt>
      <trkpt lat="45.68806" lon="6.26067">
        <ele>1974.8</ele>
        <time>2022-01-13T06:16:32Z</time>
      </trkpt>
      <trkpt lat="45.68806" lon="6.26067">
        <ele>1974.8</ele>
        <time>2022-01-13T06:16:33Z</time>
      </trkpt>
      <trkpt lat="45.68806" lon="6.26067">
        <ele>1974.8</ele>
        <time>2022-01-13T06:16:34Z</time>
      </trkpt>
      <trkpt lat="45.68806" lon="6.26067">
        <ele>1974.8</ele>
        <time>2022-01-13T06:16:35Z</time>
      </trkpt>
      <trkpt lat="45.68806" lon="6.26067">
        <ele>1974.8</ele>
        <time>2022-01-13T06:16:36Z</time>
      </trkpt>
      <trkpt lat="45.68806" lon="6.26067">
        <ele>1974.8</ele>
        <time>2022-01-13T06:16:37Z</time>
      </trkpt>
      <trkpt lat="45.68806" lon="6.26067">
        <ele>1974.8</ele>
        <time>2022-01-13T06:16:38Z</time>
      </trkpt>
      <trkpt lat="45.68805" lon="6.26067">
        <ele>1974.8</ele>
        <time>2022-01-13T06:16:39Z</time>
      </trkpt>
      <trkpt lat="45.68805" lon="6.26067">
        <ele>1974.8</ele>
        <time>2022-01-13T06:16:40Z</time>
      </trkpt>
      <trkpt lat="45.68805" lon="6.26067">
        <ele>1974.8</ele>
        <time>2022-01-13T06:16:41Z</time>
      </trkpt>
      <trkpt lat="45.68805" lon="6.26067">
        <ele>1974.8</ele>
        <time>2022-01-13T06:16:42Z</time>
      </trkpt>
      <trkpt lat="45.68805" lon="6.26067">
        <ele>1974.8</ele>
        <time>2022-01-13T06:16:43Z</time>
      </trkpt>
      <trkpt lat="45.68805" lon="6.26067">
        <ele>1974.8</ele>
        <time>2022-01-13T06:16:44Z</time>
      </trkpt>
      <trkpt lat="45.68805" lon="6.26067">
        <ele>1973.8</ele>
        <time>2022-01-13T06:16:45Z</time>
      </trkpt>
      <trkpt lat="45.68805" lon="6.26067">
        <ele>1973.8</ele>
        <time>2022-01-13T06:16:46Z</time>
      </trkpt>
      <trkpt lat="45.68805" lon="6.26067">
        <ele>1973.8</ele>
        <time>2022-01-13T06:16:47Z</time>
      </trkpt>
      <trkpt lat="45.68805" lon="6.26067">
        <ele>1973.8</ele>
        <time>2022-01-13T06:16:48Z</time>
      </trkpt>
      <trkpt lat="45.68805" lon="6.26067">
        <ele>1972.8</ele>
        <time>2022-01-13T06:16:49Z</time>
      </trkpt>
      <trkpt lat="45.68805" lon="6.26067">
        <ele>1972.8</ele>
        <time>2022-01-13T06:16:50Z</time>
      </trkpt>
      <trkpt lat="45.68805" lon="6.26067">
        <ele>1972.8</ele>
        <time>2022-01-13T06:16:51Z</time>
      </trkpt>
      <trkpt lat="45.68805" lon="6.26067">
        <ele>1972.8</ele>
        <time>2022-01-13T06:16:52Z</time>
      </trkpt>
      <trkpt lat="45.68805" lon="6.26067">
        <ele>1972.8</ele>
        <time>2022-01-13T06:16:53Z</time>
      </trkpt>
      <trkpt lat="45.68805" lon="6.26067">
        <ele>1972.8</ele>
        <time>2022-01-13T06:16:54Z</time>
      </trkpt>
      <trkpt lat="45.68805" lon="6.26067">
        <ele>1971.8</ele>
        <time>2022-01-13T06:16:55Z</time>
      </trkpt>
      <trkpt lat="45.68805" lon="6.26067">
        <ele>1971.8</ele>
        <time>2022-01-13T06:16:56Z</time>
      </trkpt>
      <trkpt lat="45.68804" lon="6.26067">
        <ele>1970.7</ele>
        <time>2022-01-13T06:16:57Z</time>
      </trkpt>
      <trkpt lat="45.68804" lon="6.26067">
        <ele>1970.7</ele>
        <time>2022-01-13T06:16:58Z</time>
      </trkpt>
      <trkpt lat="45.68804" lon="6.26067">
        <ele>1970.7</ele>
        <time>2022-01-13T06:16:59Z</time>
      </trkpt>
      <trkpt lat="45.68804" lon="6.26067">
        <ele>1970.7</ele>
        <time>2022-01-13T06:17:00Z</time>
      </trkpt>
      <trkpt lat="45.68804" lon="6.26067">
        <ele>1971.8</ele>
        <time>2022-01-13T06:17:01Z</time>
      </trkpt>
      <trkpt lat="45.68804" lon="6.26067">
        <ele>1971.8</ele>
        <time>2022-01-13T06:17:02Z</time>
      </trkpt>
      <trkpt lat="45.68804" lon="6.26067">
        <ele>1971.8</ele>
        <time>2022-01-13T06:17:03Z</time>
      </trkpt>
      <trkpt lat="45.68804" lon="6.26067">
        <ele>1971.8</ele>
        <time>2022-01-13T06:17:04Z</time>
      </trkpt>
      <trkpt lat="45.68804" lon="6.26067">
        <ele>1971.8</ele>
        <time>2022-01-13T06:17:05Z</time>
      </trkpt>
      <trkpt lat="45.68804" lon="6.26067">
        <ele>1971.8</ele>
        <time>2022-01-13T06:17:06Z</time>
      </trkpt>
      <trkpt lat="45.68803" lon="6.26067">
        <ele>1968.7</ele>
        <time>2022-01-13T06:17:07Z</time>
      </trkpt>
      <trkpt lat="45.68803" lon="6.26068">
        <ele>1968.7</ele>
        <time>2022-01-13T06:17:08Z</time>
      </trkpt>
      <trkpt lat="45.68803" lon="6.26068">
        <ele>1968.7</ele>
        <time>2022-01-13T06:17:09Z</time>
      </trkpt>
      <trkpt lat="45.68803" lon="6.26068">
        <ele>1968.7</ele>
        <time>2022-01-13T06:17:10Z</time>
      </trkpt>
      <trkpt lat="45.68803" lon="6.26068">
        <ele>1968.7</ele>
        <time>2022-01-13T06:17:11Z</time>
      </trkpt>
      <trkpt lat="45.68802" lon="6.26068">
        <ele>1968.7</ele>
        <time>2022-01-13T06:17:12Z</time>
      </trkpt>
      <trkpt lat="45.68802" lon="6.26068">
        <ele>1966.7</ele>
        <time>2022-01-13T06:17:13Z</time>
      </trkpt>
      <trkpt lat="45.68802" lon="6.26068">
        <ele>1966.7</ele>
        <time>2022-01-13T06:17:14Z</time>
      </trkpt>
      <trkpt lat="45.68802" lon="6.26068">
        <ele>1966.7</ele>
        <time>2022-01-13T06:17:15Z</time>
      </trkpt>
      <trkpt lat="45.68802" lon="6.26068">
        <ele>1966.7</ele>
        <time>2022-01-13T06:17:16Z</time>
      </trkpt>
      <trkpt lat="45.68801" lon="6.26069">
        <ele>1966.7</ele>
        <time>2022-01-13T06:17:17Z</time>
      </trkpt>
      <trkpt lat="45.68801" lon="6.26069">
        <ele>1966.7</ele>
        <time>2022-01-13T06:17:18Z</time>
      </trkpt>
      <trkpt lat="45.68799" lon="6.26069">
        <ele>1965.8</ele>
        <time>2022-01-13T06:17:19Z</time>
      </trkpt>
      <trkpt lat="45.68798" lon="6.26068">
        <ele>1965.8</ele>
        <time>2022-01-13T06:17:20Z</time>
      </trkpt>
      <trkpt lat="45.68797" lon="6.26068">
        <ele>1965.8</ele>
        <time>2022-01-13T06:17:21Z</time>
      </trkpt>
      <trkpt lat="45.68796" lon="6.26068">
        <ele>1965.8</ele>
        <time>2022-01-13T06:17:22Z</time>
      </trkpt>
      <trkpt lat="45.68794" lon="6.26068">
        <ele>1965.8</ele>
        <time>2022-01-13T06:17:23Z</time>
      </trkpt>
      <trkpt lat="45.68793" lon="6.26068">
        <ele>1965.8</ele>
        <time>2022-01-13T06:17:24Z</time>
      </trkpt>
      <trkpt lat="45.68792" lon="6.26068">
        <ele>1964.8</ele>
        <time>2022-01-13T06:17:25Z</time>
      </trkpt>
      <trkpt lat="45.6879" lon="6.26068">
        <ele>1964.8</ele>
        <time>2022-01-13T06:17:26Z</time>
      </trkpt>
      <trkpt lat="45.68789" lon="6.26068">
        <ele>1963.9</ele>
        <time>2022-01-13T06:17:27Z</time>
      </trkpt>
      <trkpt lat="45.68788" lon="6.26068">
        <ele>1963.9</ele>
        <time>2022-01-13T06:17:28Z</time>
      </trkpt>
      <trkpt lat="45.68788" lon="6.26068">
        <ele>1963.9</ele>
        <time>2022-01-13T06:17:29Z</time>
      </trkpt>
      <trkpt lat="45.68787" lon="6.26068">
        <ele>1963.9</ele>
        <time>2022-01-13T06:17:30Z</time>
      </trkpt>
      <trkpt lat="45.68786" lon="6.26068">
        <ele>1962.8</ele>
        <time>2022-01-13T06:17:31Z</time>
      </trkpt>
      <trkpt lat="45.68786" lon="6.26068">
        <ele>1962.8</ele>
        <time>2022-01-13T06:17:32Z</time>
      </trkpt>
      <trkpt lat="45.68785" lon="6.26068">
        <ele>1961.7</ele>
        <time>2022-01-13T06:17:33Z</time>
      </trkpt>
      <trkpt lat="45.68785" lon="6.26068">
        <ele>1961.7</ele>
        <time>2022-01-13T06:17:34Z</time>
      </trkpt>
      <trkpt lat="45.68784" lon="6.26068">
        <ele>1960.8</ele>
        <time>2022-01-13T06:17:35Z</time>
      </trkpt>
      <trkpt lat="45.68783" lon="6.26068">
        <ele>1960.8</ele>
        <time>2022-01-13T06:17:36Z</time>
      </trkpt>
      <trkpt lat="45.68782" lon="6.26068">
        <ele>1960.8</ele>
        <time>2022-01-13T06:17:37Z</time>
      </trkpt>
      <trkpt lat="45.68782" lon="6.26067">
        <ele>1960.8</ele>
        <time>2022-01-13T06:17:38Z</time>
      </trkpt>
      <trkpt lat="45.68781" lon="6.26067">
        <ele>1960.8</ele>
        <time>2022-01-13T06:17:39Z</time>
      </trkpt>
      <trkpt lat="45.6878" lon="6.26067">
        <ele>1960.8</ele>
        <time>2022-01-13T06:17:40Z</time>
      </trkpt>
      <trkpt lat="45.6878" lon="6.26067">
        <ele>1960.8</ele>
        <time>2022-01-13T06:17:41Z</time>
      </trkpt>
      <trkpt lat="45.6878" lon="6.26067">
        <ele>1960.8</ele>
        <time>2022-01-13T06:17:42Z</time>
      </trkpt>
      <trkpt lat="45.68779" lon="6.26067">
        <ele>1960.8</ele>
        <time>2022-01-13T06:17:43Z</time>
      </trkpt>
      <trkpt lat="45.68779" lon="6.26067">
        <ele>1960.8</ele>
        <time>2022-01-13T06:17:44Z</time>
      </trkpt>
      <trkpt lat="45.68779" lon="6.26067">
        <ele>1958.8</ele>
        <time>2022-01-13T06:17:45Z</time>
      </trkpt>
      <trkpt lat="45.68778" lon="6.26067">
        <ele>1958.8</ele>
        <time>2022-01-13T06:17:46Z</time>
      </trkpt>
      <trkpt lat="45.68778" lon="6.26067">
        <ele>1958.8</ele>
        <time>2022-01-13T06:17:47Z</time>
      </trkpt>
      <trkpt lat="45.68777" lon="6.26067">
        <ele>1958.8</ele>
        <time>2022-01-13T06:17:48Z</time>
      </trkpt>
      <trkpt lat="45.68777" lon="6.26067">
        <ele>1958.8</ele>
        <time>2022-01-13T06:17:49Z</time>
      </trkpt>
      <trkpt lat="45.68776" lon="6.26066">
        <ele>1958.8</ele>
        <time>2022-01-13T06:17:50Z</time>
      </trkpt>
      <trkpt lat="45.68776" lon="6.26066">
        <ele>1958.8</ele>
        <time>2022-01-13T06:17:51Z</time>
      </trkpt>
      <trkpt lat="45.68775" lon="6.26066">
        <ele>1958.8</ele>
        <time>2022-01-13T06:17:52Z</time>
      </trkpt>
      <trkpt lat="45.68774" lon="6.26065">
        <ele>1957.8</ele>
        <time>2022-01-13T06:17:53Z</time>
      </trkpt>
      <trkpt lat="45.68774" lon="6.26065">
        <ele>1957.8</ele>
        <time>2022-01-13T06:17:54Z</time>
      </trkpt>
      <trkpt lat="45.68773" lon="6.26065">
        <ele>1957.8</ele>
        <time>2022-01-13T06:17:55Z</time>
      </trkpt>
      <trkpt lat="45.68773" lon="6.26064">
        <ele>1957.8</ele>
        <time>2022-01-13T06:17:56Z</time>
      </trkpt>
      <trkpt lat="45.68772" lon="6.26064">
        <ele>1957.8</ele>
        <time>2022-01-13T06:17:57Z</time>
      </trkpt>
      <trkpt lat="45.68772" lon="6.26064">
        <ele>1957.8</ele>
        <time>2022-01-13T06:17:58Z</time>
      </trkpt>
      <trkpt lat="45.68772" lon="6.26064">
        <ele>1958.8</ele>
        <time>2022-01-13T06:17:59Z</time>
      </trkpt>
      <trkpt lat="45.68772" lon="6.26064">
        <ele>1958.8</ele>
        <time>2022-01-13T06:18:00Z</time>
      </trkpt>
      <trkpt lat="45.68773" lon="6.26063">
        <ele>1957.8</ele>
        <time>2022-01-13T06:18:01Z</time>
      </trkpt>
      <trkpt lat="45.68773" lon="6.26063">
        <ele>1957.8</ele>
        <time>2022-01-13T06:18:02Z</time>
      </trkpt>
      <trkpt lat="45.68774" lon="6.26064">
        <ele>1956.8</ele>
        <time>2022-01-13T06:18:03Z</time>
      </trkpt>
      <trkpt lat="45.68774" lon="6.26064">
        <ele>1956.8</ele>
        <time>2022-01-13T06:18:04Z</time>
      </trkpt>
      <trkpt lat="45.68775" lon="6.26064">
        <ele>1957.8</ele>
        <time>2022-01-13T06:18:05Z</time>
      </trkpt>
      <trkpt lat="45.68775" lon="6.26064">
        <ele>1957.8</ele>
        <time>2022-01-13T06:18:06Z</time>
      </trkpt>
      <trkpt lat="45.68775" lon="6.26064">
        <ele>1957.8</ele>
        <time>2022-01-13T06:18:07Z</time>
      </trkpt>
      <trkpt lat="45.68776" lon="6.26064">
        <ele>1957.8</ele>
        <time>2022-01-13T06:18:08Z</time>
      </trkpt>
      <trkpt lat="45.68776" lon="6.26065">
        <ele>1958.8</ele>
        <time>2022-01-13T06:18:09Z</time>
      </trkpt>
      <trkpt lat="45.68776" lon="6.26065">
        <ele>1958.8</ele>
        <time>2022-01-13T06:18:10Z</time>
      </trkpt>
      <trkpt lat="45.68776" lon="6.26065">
        <ele>1958.8</ele>
        <time>2022-01-13T06:18:11Z</time>
      </trkpt>
      <trkpt lat="45.68776" lon="6.26065">
        <ele>1958.8</ele>
        <time>2022-01-13T06:18:12Z</time>
      </trkpt>
      <trkpt lat="45.68776" lon="6.26065">
        <ele>1958.8</ele>
        <time>2022-01-13T06:18:13Z</time>
      </trkpt>
      <trkpt lat="45.68776" lon="6.26065">
        <ele>1958.8</ele>
        <time>2022-01-13T06:18:14Z</time>
      </trkpt>
      <trkpt lat="45.68776" lon="6.26065">
        <ele>1958.8</ele>
        <time>2022-01-13T06:18:15Z</time>
      </trkpt>
      <trkpt lat="45.68776" lon="6.26065">
        <ele>1958.8</ele>
        <time>2022-01-13T06:18:16Z</time>
      </trkpt>
      <trkpt lat="45.68776" lon="6.26065">
        <ele>1958.8</ele>
        <time>2022-01-13T06:18:17Z</time>
      </trkpt>
      <trkpt lat="45.68776" lon="6.26065">
        <ele>1958.8</ele>
        <time>2022-01-13T06:18:18Z</time>
      </trkpt>
      <trkpt lat="45.68776" lon="6.26065">
        <ele>1958.8</ele>
        <time>2022-01-13T06:18:19Z</time>
      </trkpt>
      <trkpt lat="45.68776" lon="6.26065">
        <ele>1958.8</ele>
        <time>2022-01-13T06:18:20Z</time>
      </trkpt>
      <trkpt lat="45.68776" lon="6.26065">
        <ele>1958.8</ele>
        <time>2022-01-13T06:18:21Z</time>
      </trkpt>
      <trkpt lat="45.68776" lon="6.26064">
        <ele>1958.8</ele>
        <time>2022-01-13T06:18:22Z</time>
      </trkpt>
      <trkpt lat="45.68776" lon="6.26064">
        <ele>1958.8</ele>
        <time>2022-01-13T06:18:23Z</time>
      </trkpt>
      <trkpt lat="45.68776" lon="6.26064">
        <ele>1958.8</ele>
        <time>2022-01-13T06:18:24Z</time>
      </trkpt>
      <trkpt lat="45.68776" lon="6.26064">
        <ele>1958.8</ele>
        <time>2022-01-13T06:18:25Z</time>
      </trkpt>
      <trkpt lat="45.68775" lon="6.26064">
        <ele>1958.8</ele>
        <time>2022-01-13T06:18:26Z</time>
      </trkpt>
      <trkpt lat="45.68775" lon="6.26064">
        <ele>1958.8</ele>
        <time>2022-01-13T06:18:27Z</time>
      </trkpt>
      <trkpt lat="45.68775" lon="6.26064">
        <ele>1958.8</ele>
        <time>2022-01-13T06:18:28Z</time>
      </trkpt>
      <trkpt lat="45.68775" lon="6.26064">
        <ele>1958.8</ele>
        <time>2022-01-13T06:18:29Z</time>
      </trkpt>
      <trkpt lat="45.68775" lon="6.26064">
        <ele>1958.8</ele>
        <time>2022-01-13T06:18:30Z</time>
      </trkpt>
      <trkpt lat="45.68775" lon="6.26063">
        <ele>1958.8</ele>
        <time>2022-01-13T06:18:31Z</time>
      </trkpt>
      <trkpt lat="45.68775" lon="6.26063">
        <ele>1958.8</ele>
        <time>2022-01-13T06:18:32Z</time>
      </trkpt>
      <trkpt lat="45.68775" lon="6.26063">
        <ele>1958.8</ele>
        <time>2022-01-13T06:18:33Z</time>
      </trkpt>
      <trkpt lat="45.68775" lon="6.26063">
        <ele>1958.8</ele>
        <time>2022-01-13T06:18:34Z</time>
      </trkpt>
      <trkpt lat="45.68775" lon="6.26063">
        <ele>1958.8</ele>
        <time>2022-01-13T06:18:35Z</time>
      </trkpt>
      <trkpt lat="45.68775" lon="6.26063">
        <ele>1958.8</ele>
        <time>2022-01-13T06:18:36Z</time>
      </trkpt>
      <trkpt lat="45.68775" lon="6.26063">
        <ele>1958.8</ele>
        <time>2022-01-13T06:18:37Z</time>
      </trkpt>
      <trkpt lat="45.68775" lon="6.26063">
        <ele>1958.8</ele>
        <time>2022-01-13T06:18:38Z</time>
      </trkpt>
      <trkpt lat="45.68775" lon="6.26063">
        <ele>1957.8</ele>
        <time>2022-01-13T06:18:39Z</time>
      </trkpt>
      <trkpt lat="45.68775" lon="6.26063">
        <ele>1957.8</ele>
        <time>2022-01-13T06:18:40Z</time>
      </trkpt>
      <trkpt lat="45.68775" lon="6.26063">
        <ele>1958.8</ele>
        <time>2022-01-13T06:18:41Z</time>
      </trkpt>
      <trkpt lat="45.68775" lon="6.26063">
        <ele>1958.8</ele>
        <time>2022-01-13T06:18:42Z</time>
      </trkpt>
      <trkpt lat="45.68775" lon="6.26063">
        <ele>1958.8</ele>
        <time>2022-01-13T06:18:43Z</time>
      </trkpt>
      <trkpt lat="45.68775" lon="6.26063">
        <ele>1958.8</ele>
        <time>2022-01-13T06:18:44Z</time>
      </trkpt>
      <trkpt lat="45.68775" lon="6.26063">
        <ele>1958.8</ele>
        <time>2022-01-13T06:18:45Z</time>
      </trkpt>
      <trkpt lat="45.68775" lon="6.26063">
        <ele>1959.7</ele>
        <time>2022-01-13T06:18:46Z</time>
      </trkpt>
      <trkpt lat="45.68775" lon="6.26063">
        <ele>1958.8</ele>
        <time>2022-01-13T06:18:47Z</time>
      </trkpt>
      <trkpt lat="45.68775" lon="6.26063">
        <ele>1958.8</ele>
        <time>2022-01-13T06:18:48Z</time>
      </trkpt>
      <trkpt lat="45.68775" lon="6.26063">
        <ele>1958.8</ele>
        <time>2022-01-13T06:18:49Z</time>
      </trkpt>
      <trkpt lat="45.68775" lon="6.26063">
        <ele>1958.8</ele>
        <time>2022-01-13T06:18:50Z</time>
      </trkpt>
      <trkpt lat="45.68775" lon="6.26063">
        <ele>1958.8</ele>
        <time>2022-01-13T06:18:51Z</time>
      </trkpt>
      <trkpt lat="45.68775" lon="6.26063">
        <ele>1958.8</ele>
        <time>2022-01-13T06:18:52Z</time>
      </trkpt>
      <trkpt lat="45.68775" lon="6.26063">
        <ele>1958.8</ele>
        <time>2022-01-13T06:18:53Z</time>
      </trkpt>
      <trkpt lat="45.68775" lon="6.26063">
        <ele>1958.8</ele>
        <time>2022-01-13T06:18:54Z</time>
      </trkpt>
      <trkpt lat="45.68775" lon="6.26063">
        <ele>1958.8</ele>
        <time>2022-01-13T06:18:55Z</time>
      </trkpt>
      <trkpt lat="45.68775" lon="6.26063">
        <ele>1958.8</ele>
        <time>2022-01-13T06:18:56Z</time>
      </trkpt>
      <trkpt lat="45.68775" lon="6.26063">
        <ele>1958.8</ele>
        <time>2022-01-13T06:18:57Z</time>
      </trkpt>
      <trkpt lat="45.68775" lon="6.26063">
        <ele>1958.8</ele>
        <time>2022-01-13T06:18:58Z</time>
      </trkpt>
      <trkpt lat="45.68775" lon="6.26063">
        <ele>1957.8</ele>
        <time>2022-01-13T06:18:59Z</time>
      </trkpt>
      <trkpt lat="45.68775" lon="6.26064">
        <ele>1957.8</ele>
        <time>2022-01-13T06:19:00Z</time>
      </trkpt>
      <trkpt lat="45.68775" lon="6.26065">
        <ele>1957.8</ele>
        <time>2022-01-13T06:19:01Z</time>
      </trkpt>
      <trkpt lat="45.68775" lon="6.26065">
        <ele>1957.8</ele>
        <time>2022-01-13T06:19:02Z</time>
      </trkpt>
      <trkpt lat="45.68775" lon="6.26065">
        <ele>1957.8</ele>
        <time>2022-01-13T06:19:03Z</time>
      </trkpt>
      <trkpt lat="45.68775" lon="6.26065">
        <ele>1957.8</ele>
        <time>2022-01-13T06:19:04Z</time>
      </trkpt>
      <trkpt lat="45.68775" lon="6.26065">
        <ele>1957.8</ele>
        <time>2022-01-13T06:19:05Z</time>
      </trkpt>
      <trkpt lat="45.68774" lon="6.26065">
        <ele>1957.8</ele>
        <time>2022-01-13T06:19:06Z</time>
      </trkpt>
      <trkpt lat="45.68774" lon="6.26065">
        <ele>1957.8</ele>
        <time>2022-01-13T06:19:07Z</time>
      </trkpt>
      <trkpt lat="45.68773" lon="6.26065">
        <ele>1957.8</ele>
        <time>2022-01-13T06:19:08Z</time>
      </trkpt>
      <trkpt lat="45.68773" lon="6.26065">
        <ele>1957.8</ele>
        <time>2022-01-13T06:19:09Z</time>
      </trkpt>
      <trkpt lat="45.68772" lon="6.26065">
        <ele>1957.8</ele>
        <time>2022-01-13T06:19:10Z</time>
      </trkpt>
      <trkpt lat="45.68772" lon="6.26065">
        <ele>1957.8</ele>
        <time>2022-01-13T06:19:11Z</time>
      </trkpt>
      <trkpt lat="45.68772" lon="6.26065">
        <ele>1957.8</ele>
        <time>2022-01-13T06:19:12Z</time>
      </trkpt>
      <trkpt lat="45.68772" lon="6.26065">
        <ele>1957.8</ele>
        <time>2022-01-13T06:19:13Z</time>
      </trkpt>
      <trkpt lat="45.68772" lon="6.26065">
        <ele>1957.8</ele>
        <time>2022-01-13T06:19:14Z</time>
      </trkpt>
      <trkpt lat="45.68772" lon="6.26065">
        <ele>1957.8</ele>
        <time>2022-01-13T06:19:15Z</time>
      </trkpt>
      <trkpt lat="45.68772" lon="6.26065">
        <ele>1957.8</ele>
        <time>2022-01-13T06:19:16Z</time>
      </trkpt>
      <trkpt lat="45.68772" lon="6.26065">
        <ele>1957.8</ele>
        <time>2022-01-13T06:19:17Z</time>
      </trkpt>
      <trkpt lat="45.68772" lon="6.26065">
        <ele>1957.8</ele>
        <time>2022-01-13T06:19:18Z</time>
      </trkpt>
      <trkpt lat="45.68772" lon="6.26065">
        <ele>1957.8</ele>
        <time>2022-01-13T06:19:19Z</time>
      </trkpt>
      <trkpt lat="45.68772" lon="6.26065">
        <ele>1957.8</ele>
        <time>2022-01-13T06:19:20Z</time>
      </trkpt>
      <trkpt lat="45.68772" lon="6.26065">
        <ele>1957.8</ele>
        <time>2022-01-13T06:19:21Z</time>
      </trkpt>
      <trkpt lat="45.68772" lon="6.26064">
        <ele>1957.8</ele>
        <time>2022-01-13T06:19:22Z</time>
      </trkpt>
      <trkpt lat="45.68772" lon="6.26064">
        <ele>1957.8</ele>
        <time>2022-01-13T06:19:23Z</time>
      </trkpt>
      <trkpt lat="45.68772" lon="6.26064">
        <ele>1957.8</ele>
        <time>2022-01-13T06:19:24Z</time>
      </trkpt>
      <trkpt lat="45.68772" lon="6.26064">
        <ele>1957.8</ele>
        <time>2022-01-13T06:19:25Z</time>
      </trkpt>
      <trkpt lat="45.68772" lon="6.26064">
        <ele>1957.8</ele>
        <time>2022-01-13T06:19:26Z</time>
      </trkpt>
      <trkpt lat="45.68772" lon="6.26064">
        <ele>1957.8</ele>
        <time>2022-01-13T06:19:27Z</time>
      </trkpt>
      <trkpt lat="45.68772" lon="6.26064">
        <ele>1957.8</ele>
        <time>2022-01-13T06:19:28Z</time>
      </trkpt>
      <trkpt lat="45.68772" lon="6.26064">
        <ele>1957.8</ele>
        <time>2022-01-13T06:19:29Z</time>
      </trkpt>
      <trkpt lat="45.68772" lon="6.26064">
        <ele>1957.8</ele>
        <time>2022-01-13T06:19:30Z</time>
      </trkpt>
      <trkpt lat="45.68772" lon="6.26064">
        <ele>1957.8</ele>
        <time>2022-01-13T06:19:31Z</time>
      </trkpt>
      <trkpt lat="45.68772" lon="6.26064">
        <ele>1957.8</ele>
        <time>2022-01-13T06:19:32Z</time>
      </trkpt>
      <trkpt lat="45.68772" lon="6.26064">
        <ele>1956.8</ele>
        <time>2022-01-13T06:19:33Z</time>
      </trkpt>
      <trkpt lat="45.68772" lon="6.26064">
        <ele>1956.8</ele>
        <time>2022-01-13T06:19:34Z</time>
      </trkpt>
      <trkpt lat="45.68771" lon="6.26063">
        <ele>1956.8</ele>
        <time>2022-01-13T06:19:35Z</time>
      </trkpt>
      <trkpt lat="45.6877" lon="6.26062">
        <ele>1956.8</ele>
        <time>2022-01-13T06:19:36Z</time>
      </trkpt>
      <trkpt lat="45.68769" lon="6.2606">
        <ele>1956.8</ele>
        <time>2022-01-13T06:19:37Z</time>
      </trkpt>
      <trkpt lat="45.68769" lon="6.26059">
        <ele>1956.8</ele>
        <time>2022-01-13T06:19:38Z</time>
      </trkpt>
      <trkpt lat="45.68768" lon="6.26058">
        <ele>1956.8</ele>
        <time>2022-01-13T06:19:39Z</time>
      </trkpt>
      <trkpt lat="45.68767" lon="6.26057">
        <ele>1956.8</ele>
        <time>2022-01-13T06:19:40Z</time>
      </trkpt>
      <trkpt lat="45.68766" lon="6.26055">
        <ele>1956.8</ele>
        <time>2022-01-13T06:19:41Z</time>
      </trkpt>
      <trkpt lat="45.68765" lon="6.26054">
        <ele>1956.8</ele>
        <time>2022-01-13T06:19:42Z</time>
      </trkpt>
      <trkpt lat="45.68764" lon="6.26053">
        <ele>1956.8</ele>
        <time>2022-01-13T06:19:43Z</time>
      </trkpt>
      <trkpt lat="45.68763" lon="6.26052">
        <ele>1956.8</ele>
        <time>2022-01-13T06:19:44Z</time>
      </trkpt>
      <trkpt lat="45.68762" lon="6.26052">
        <ele>1956.8</ele>
        <time>2022-01-13T06:19:45Z</time>
      </trkpt>
      <trkpt lat="45.68762" lon="6.26051">
        <ele>1956.8</ele>
        <time>2022-01-13T06:19:46Z</time>
      </trkpt>
      <trkpt lat="45.68761" lon="6.2605">
        <ele>1956.8</ele>
        <time>2022-01-13T06:19:47Z</time>
      </trkpt>
      <trkpt lat="45.6876" lon="6.26049">
        <ele>1956.8</ele>
        <time>2022-01-13T06:19:48Z</time>
      </trkpt>
      <trkpt lat="45.6876" lon="6.26048">
        <ele>1956.8</ele>
        <time>2022-01-13T06:19:49Z</time>
      </trkpt>
      <trkpt lat="45.68759" lon="6.26048">
        <ele>1956.8</ele>
        <time>2022-01-13T06:19:50Z</time>
      </trkpt>
      <trkpt lat="45.68759" lon="6.26047">
        <ele>1956.8</ele>
        <time>2022-01-13T06:19:51Z</time>
      </trkpt>
      <trkpt lat="45.68758" lon="6.26046">
        <ele>1956.8</ele>
        <time>2022-01-13T06:19:52Z</time>
      </trkpt>
      <trkpt lat="45.68758" lon="6.26045">
        <ele>1956.8</ele>
        <time>2022-01-13T06:19:53Z</time>
      </trkpt>
      <trkpt lat="45.68757" lon="6.26045">
        <ele>1955.8</ele>
        <time>2022-01-13T06:19:54Z</time>
      </trkpt>
      <trkpt lat="45.68756" lon="6.26044">
        <ele>1955.8</ele>
        <time>2022-01-13T06:19:55Z</time>
      </trkpt>
      <trkpt lat="45.68756" lon="6.26043">
        <ele>1955.8</ele>
        <time>2022-01-13T06:19:56Z</time>
      </trkpt>
      <trkpt lat="45.68755" lon="6.26043">
        <ele>1955.8</ele>
        <time>2022-01-13T06:19:57Z</time>
      </trkpt>
      <trkpt lat="45.68754" lon="6.26042">
        <ele>1955.8</ele>
        <time>2022-01-13T06:19:58Z</time>
      </trkpt>
      <trkpt lat="45.68753" lon="6.26042">
        <ele>1955.8</ele>
        <time>2022-01-13T06:19:59Z</time>
      </trkpt>
      <trkpt lat="45.68753" lon="6.26042">
        <ele>1955.8</ele>
        <time>2022-01-13T06:20:00Z</time>
      </trkpt>
      <trkpt lat="45.68752" lon="6.26041">
        <ele>1955.8</ele>
        <time>2022-01-13T06:20:01Z</time>
      </trkpt>
      <trkpt lat="45.68751" lon="6.26041">
        <ele>1954.7</ele>
        <time>2022-01-13T06:20:02Z</time>
      </trkpt>
      <trkpt lat="45.68751" lon="6.26041">
        <ele>1954.7</ele>
        <time>2022-01-13T06:20:03Z</time>
      </trkpt>
      <trkpt lat="45.6875" lon="6.26041">
        <ele>1954.7</ele>
        <time>2022-01-13T06:20:04Z</time>
      </trkpt>
      <trkpt lat="45.6875" lon="6.2604">
        <ele>1954.7</ele>
        <time>2022-01-13T06:20:05Z</time>
      </trkpt>
      <trkpt lat="45.68749" lon="6.2604">
        <ele>1955.8</ele>
        <time>2022-01-13T06:20:06Z</time>
      </trkpt>
      <trkpt lat="45.68749" lon="6.26039">
        <ele>1955.8</ele>
        <time>2022-01-13T06:20:07Z</time>
      </trkpt>
      <trkpt lat="45.68748" lon="6.26039">
        <ele>1955.8</ele>
        <time>2022-01-13T06:20:08Z</time>
      </trkpt>
      <trkpt lat="45.68748" lon="6.26039">
        <ele>1956.8</ele>
        <time>2022-01-13T06:20:09Z</time>
      </trkpt>
      <trkpt lat="45.68747" lon="6.26038">
        <ele>1956.8</ele>
        <time>2022-01-13T06:20:10Z</time>
      </trkpt>
      <trkpt lat="45.68747" lon="6.26038">
        <ele>1956.8</ele>
        <time>2022-01-13T06:20:11Z</time>
      </trkpt>
      <trkpt lat="45.68746" lon="6.26038">
        <ele>1956.8</ele>
        <time>2022-01-13T06:20:12Z</time>
      </trkpt>
      <trkpt lat="45.68746" lon="6.26038">
        <ele>1957.8</ele>
        <time>2022-01-13T06:20:13Z</time>
      </trkpt>
      <trkpt lat="45.68745" lon="6.26037">
        <ele>1957.8</ele>
        <time>2022-01-13T06:20:14Z</time>
      </trkpt>
      <trkpt lat="45.68745" lon="6.26037">
        <ele>1958.8</ele>
        <time>2022-01-13T06:20:15Z</time>
      </trkpt>
      <trkpt lat="45.68744" lon="6.26036">
        <ele>1958.8</ele>
        <time>2022-01-13T06:20:16Z</time>
      </trkpt>
      <trkpt lat="45.68743" lon="6.26036">
        <ele>1958.8</ele>
        <time>2022-01-13T06:20:17Z</time>
      </trkpt>
      <trkpt lat="45.68743" lon="6.26036">
        <ele>1958.8</ele>
        <time>2022-01-13T06:20:18Z</time>
      </trkpt>
      <trkpt lat="45.68742" lon="6.26035">
        <ele>1958.8</ele>
        <time>2022-01-13T06:20:19Z</time>
      </trkpt>
      <trkpt lat="45.68741" lon="6.26035">
        <ele>1959.7</ele>
        <time>2022-01-13T06:20:20Z</time>
      </trkpt>
      <trkpt lat="45.6874" lon="6.26035">
        <ele>1959.7</ele>
        <time>2022-01-13T06:20:21Z</time>
      </trkpt>
      <trkpt lat="45.68739" lon="6.26034">
        <ele>1959.7</ele>
        <time>2022-01-13T06:20:22Z</time>
      </trkpt>
      <trkpt lat="45.68738" lon="6.26034">
        <ele>1960.8</ele>
        <time>2022-01-13T06:20:23Z</time>
      </trkpt>
      <trkpt lat="45.68737" lon="6.26034">
        <ele>1960.8</ele>
        <time>2022-01-13T06:20:24Z</time>
      </trkpt>
      <trkpt lat="45.68736" lon="6.26034">
        <ele>1960.8</ele>
        <time>2022-01-13T06:20:25Z</time>
      </trkpt>
      <trkpt lat="45.68735" lon="6.26034">
        <ele>1960.8</ele>
        <time>2022-01-13T06:20:26Z</time>
      </trkpt>
      <trkpt lat="45.68734" lon="6.26033">
        <ele>1960.8</ele>
        <time>2022-01-13T06:20:27Z</time>
      </trkpt>
      <trkpt lat="45.68733" lon="6.26033">
        <ele>1960.8</ele>
        <time>2022-01-13T06:20:28Z</time>
      </trkpt>
      <trkpt lat="45.68732" lon="6.26033">
        <ele>1960.8</ele>
        <time>2022-01-13T06:20:29Z</time>
      </trkpt>
      <trkpt lat="45.68731" lon="6.26033">
        <ele>1960.8</ele>
        <time>2022-01-13T06:20:30Z</time>
      </trkpt>
      <trkpt lat="45.6873" lon="6.26032">
        <ele>1959.7</ele>
        <time>2022-01-13T06:20:31Z</time>
      </trkpt>
      <trkpt lat="45.68729" lon="6.26032">
        <ele>1959.7</ele>
        <time>2022-01-13T06:20:32Z</time>
      </trkpt>
      <trkpt lat="45.68728" lon="6.26032">
        <ele>1959.7</ele>
        <time>2022-01-13T06:20:33Z</time>
      </trkpt>
      <trkpt lat="45.68728" lon="6.26032">
        <ele>1959.7</ele>
        <time>2022-01-13T06:20:34Z</time>
      </trkpt>
      <trkpt lat="45.68727" lon="6.26032">
        <ele>1959.7</ele>
        <time>2022-01-13T06:20:35Z</time>
      </trkpt>
      <trkpt lat="45.68726" lon="6.26032">
        <ele>1959.7</ele>
        <time>2022-01-13T06:20:36Z</time>
      </trkpt>
      <trkpt lat="45.68725" lon="6.26032">
        <ele>1960.8</ele>
        <time>2022-01-13T06:20:37Z</time>
      </trkpt>
      <trkpt lat="45.68725" lon="6.26031">
        <ele>1960.8</ele>
        <time>2022-01-13T06:20:38Z</time>
      </trkpt>
      <trkpt lat="45.68724" lon="6.26031">
        <ele>1960.8</ele>
        <time>2022-01-13T06:20:39Z</time>
      </trkpt>
      <trkpt lat="45.68723" lon="6.26031">
        <ele>1960.8</ele>
        <time>2022-01-13T06:20:40Z</time>
      </trkpt>
      <trkpt lat="45.68723" lon="6.2603">
        <ele>1960.8</ele>
        <time>2022-01-13T06:20:41Z</time>
      </trkpt>
      <trkpt lat="45.68722" lon="6.2603">
        <ele>1960.8</ele>
        <time>2022-01-13T06:20:42Z</time>
      </trkpt>
      <trkpt lat="45.68722" lon="6.2603">
        <ele>1961.7</ele>
        <time>2022-01-13T06:20:43Z</time>
      </trkpt>
      <trkpt lat="45.68721" lon="6.2603">
        <ele>1961.7</ele>
        <time>2022-01-13T06:20:44Z</time>
      </trkpt>
      <trkpt lat="45.6872" lon="6.2603">
        <ele>1961.7</ele>
        <time>2022-01-13T06:20:45Z</time>
      </trkpt>
      <trkpt lat="45.6872" lon="6.2603">
        <ele>1961.7</ele>
        <time>2022-01-13T06:20:46Z</time>
      </trkpt>
      <trkpt lat="45.68719" lon="6.2603">
        <ele>1961.7</ele>
        <time>2022-01-13T06:20:47Z</time>
      </trkpt>
      <trkpt lat="45.68718" lon="6.2603">
        <ele>1961.7</ele>
        <time>2022-01-13T06:20:48Z</time>
      </trkpt>
      <trkpt lat="45.68718" lon="6.2603">
        <ele>1961.7</ele>
        <time>2022-01-13T06:20:49Z</time>
      </trkpt>
      <trkpt lat="45.68717" lon="6.2603">
        <ele>1961.7</ele>
        <time>2022-01-13T06:20:50Z</time>
      </trkpt>
      <trkpt lat="45.68716" lon="6.2603">
        <ele>1961.7</ele>
        <time>2022-01-13T06:20:51Z</time>
      </trkpt>
      <trkpt lat="45.68716" lon="6.2603">
        <ele>1961.7</ele>
        <time>2022-01-13T06:20:52Z</time>
      </trkpt>
      <trkpt lat="45.68715" lon="6.2603">
        <ele>1961.7</ele>
        <time>2022-01-13T06:20:53Z</time>
      </trkpt>
      <trkpt lat="45.68715" lon="6.2603">
        <ele>1961.7</ele>
        <time>2022-01-13T06:20:54Z</time>
      </trkpt>
      <trkpt lat="45.68714" lon="6.2603">
        <ele>1963.9</ele>
        <time>2022-01-13T06:20:55Z</time>
      </trkpt>
      <trkpt lat="45.68714" lon="6.2603">
        <ele>1963.9</ele>
        <time>2022-01-13T06:20:56Z</time>
      </trkpt>
      <trkpt lat="45.68713" lon="6.2603">
        <ele>1964.8</ele>
        <time>2022-01-13T06:20:57Z</time>
      </trkpt>
      <trkpt lat="45.68713" lon="6.2603">
        <ele>1964.8</ele>
        <time>2022-01-13T06:20:58Z</time>
      </trkpt>
      <trkpt lat="45.68713" lon="6.2603">
        <ele>1964.8</ele>
        <time>2022-01-13T06:20:59Z</time>
      </trkpt>
      <trkpt lat="45.68713" lon="6.2603">
        <ele>1964.8</ele>
        <time>2022-01-13T06:21:00Z</time>
      </trkpt>
      <trkpt lat="45.68712" lon="6.26029">
        <ele>1964.8</ele>
        <time>2022-01-13T06:21:01Z</time>
      </trkpt>
      <trkpt lat="45.68711" lon="6.26029">
        <ele>1964.8</ele>
        <time>2022-01-13T06:21:02Z</time>
      </trkpt>
      <trkpt lat="45.68711" lon="6.26029">
        <ele>1965.8</ele>
        <time>2022-01-13T06:21:03Z</time>
      </trkpt>
      <trkpt lat="45.6871" lon="6.26029">
        <ele>1965.8</ele>
        <time>2022-01-13T06:21:04Z</time>
      </trkpt>
      <trkpt lat="45.6871" lon="6.26029">
        <ele>1965.8</ele>
        <time>2022-01-13T06:21:05Z</time>
      </trkpt>
      <trkpt lat="45.68709" lon="6.26029">
        <ele>1965.8</ele>
        <time>2022-01-13T06:21:06Z</time>
      </trkpt>
      <trkpt lat="45.68708" lon="6.26029">
        <ele>1966.7</ele>
        <time>2022-01-13T06:21:07Z</time>
      </trkpt>
      <trkpt lat="45.68708" lon="6.26029">
        <ele>1966.7</ele>
        <time>2022-01-13T06:21:08Z</time>
      </trkpt>
      <trkpt lat="45.68707" lon="6.26029">
        <ele>1966.7</ele>
        <time>2022-01-13T06:21:09Z</time>
      </trkpt>
      <trkpt lat="45.68707" lon="6.26029">
        <ele>1966.7</ele>
        <time>2022-01-13T06:21:10Z</time>
      </trkpt>
      <trkpt lat="45.68706" lon="6.26029">
        <ele>1967.8</ele>
        <time>2022-01-13T06:21:11Z</time>
      </trkpt>
      <trkpt lat="45.68706" lon="6.26029">
        <ele>1967.8</ele>
        <time>2022-01-13T06:21:12Z</time>
      </trkpt>
      <trkpt lat="45.68705" lon="6.26029">
        <ele>1967.8</ele>
        <time>2022-01-13T06:21:13Z</time>
      </trkpt>
      <trkpt lat="45.68705" lon="6.26029">
        <ele>1967.8</ele>
        <time>2022-01-13T06:21:14Z</time>
      </trkpt>
      <trkpt lat="45.68705" lon="6.26028">
        <ele>1968.7</ele>
        <time>2022-01-13T06:21:15Z</time>
      </trkpt>
      <trkpt lat="45.68704" lon="6.26028">
        <ele>1968.7</ele>
        <time>2022-01-13T06:21:16Z</time>
      </trkpt>
      <trkpt lat="45.68704" lon="6.26028">
        <ele>1967.8</ele>
        <time>2022-01-13T06:21:17Z</time>
      </trkpt>
      <trkpt lat="45.68703" lon="6.26028">
        <ele>1967.8</ele>
        <time>2022-01-13T06:21:18Z</time>
      </trkpt>
      <trkpt lat="45.68702" lon="6.26029">
        <ele>1968.7</ele>
        <time>2022-01-13T06:21:19Z</time>
      </trkpt>
      <trkpt lat="45.68702" lon="6.26029">
        <ele>1968.7</ele>
        <time>2022-01-13T06:21:20Z</time>
      </trkpt>
      <trkpt lat="45.68701" lon="6.26029">
        <ele>1968.7</ele>
        <time>2022-01-13T06:21:21Z</time>
      </trkpt>
      <trkpt lat="45.687" lon="6.26029">
        <ele>1968.7</ele>
        <time>2022-01-13T06:21:22Z</time>
      </trkpt>
      <trkpt lat="45.687" lon="6.26029">
        <ele>1968.7</ele>
        <time>2022-01-13T06:21:23Z</time>
      </trkpt>
      <trkpt lat="45.68699" lon="6.26029">
        <ele>1968.7</ele>
        <time>2022-01-13T06:21:24Z</time>
      </trkpt>
      <trkpt lat="45.68698" lon="6.26029">
        <ele>1968.7</ele>
        <time>2022-01-13T06:21:25Z</time>
      </trkpt>
      <trkpt lat="45.68697" lon="6.26028">
        <ele>1968.7</ele>
        <time>2022-01-13T06:21:26Z</time>
      </trkpt>
      <trkpt lat="45.68697" lon="6.26028">
        <ele>1968.7</ele>
        <time>2022-01-13T06:21:27Z</time>
      </trkpt>
      <trkpt lat="45.68696" lon="6.26028">
        <ele>1968.7</ele>
        <time>2022-01-13T06:21:28Z</time>
      </trkpt>
      <trkpt lat="45.68696" lon="6.26028">
        <ele>1968.7</ele>
        <time>2022-01-13T06:21:29Z</time>
      </trkpt>
      <trkpt lat="45.68695" lon="6.26028">
        <ele>1968.7</ele>
        <time>2022-01-13T06:21:30Z</time>
      </trkpt>
      <trkpt lat="45.68694" lon="6.26028">
        <ele>1968.7</ele>
        <time>2022-01-13T06:21:31Z</time>
      </trkpt>
      <trkpt lat="45.68694" lon="6.26028">
        <ele>1968.7</ele>
        <time>2022-01-13T06:21:32Z</time>
      </trkpt>
      <trkpt lat="45.68694" lon="6.26028">
        <ele>1968.7</ele>
        <time>2022-01-13T06:21:33Z</time>
      </trkpt>
      <trkpt lat="45.68694" lon="6.26029">
        <ele>1968.7</ele>
        <time>2022-01-13T06:21:34Z</time>
      </trkpt>
      <trkpt lat="45.68694" lon="6.26029">
        <ele>1969.8</ele>
        <time>2022-01-13T06:21:35Z</time>
      </trkpt>
      <trkpt lat="45.68694" lon="6.26029">
        <ele>1969.8</ele>
        <time>2022-01-13T06:21:36Z</time>
      </trkpt>
      <trkpt lat="45.68694" lon="6.26029">
        <ele>1969.8</ele>
        <time>2022-01-13T06:21:37Z</time>
      </trkpt>
      <trkpt lat="45.68693" lon="6.26029">
        <ele>1969.8</ele>
        <time>2022-01-13T06:21:38Z</time>
      </trkpt>
      <trkpt lat="45.68692" lon="6.26029">
        <ele>1968.7</ele>
        <time>2022-01-13T06:21:39Z</time>
      </trkpt>
      <trkpt lat="45.68692" lon="6.2603">
        <ele>1968.7</ele>
        <time>2022-01-13T06:21:40Z</time>
      </trkpt>
      <trkpt lat="45.68691" lon="6.2603">
        <ele>1968.7</ele>
        <time>2022-01-13T06:21:41Z</time>
      </trkpt>
      <trkpt lat="45.68691" lon="6.26031">
        <ele>1968.7</ele>
        <time>2022-01-13T06:21:42Z</time>
      </trkpt>
      <trkpt lat="45.6869" lon="6.26031">
        <ele>1968.7</ele>
        <time>2022-01-13T06:21:43Z</time>
      </trkpt>
      <trkpt lat="45.6869" lon="6.26031">
        <ele>1968.7</ele>
        <time>2022-01-13T06:21:44Z</time>
      </trkpt>
      <trkpt lat="45.68689" lon="6.26031">
        <ele>1969.8</ele>
        <time>2022-01-13T06:21:45Z</time>
      </trkpt>
      <trkpt lat="45.68689" lon="6.26031">
        <ele>1969.8</ele>
        <time>2022-01-13T06:21:46Z</time>
      </trkpt>
      <trkpt lat="45.68688" lon="6.26031">
        <ele>1969.8</ele>
        <time>2022-01-13T06:21:47Z</time>
      </trkpt>
      <trkpt lat="45.68688" lon="6.26031">
        <ele>1969.8</ele>
        <time>2022-01-13T06:21:48Z</time>
      </trkpt>
      <trkpt lat="45.68688" lon="6.26031">
        <ele>1970.7</ele>
        <time>2022-01-13T06:21:49Z</time>
      </trkpt>
      <trkpt lat="45.68688" lon="6.26031">
        <ele>1970.7</ele>
        <time>2022-01-13T06:21:50Z</time>
      </trkpt>
      <trkpt lat="45.68688" lon="6.26031">
        <ele>1970.7</ele>
        <time>2022-01-13T06:21:51Z</time>
      </trkpt>
      <trkpt lat="45.68688" lon="6.26031">
        <ele>1970.7</ele>
        <time>2022-01-13T06:21:52Z</time>
      </trkpt>
      <trkpt lat="45.68688" lon="6.26031">
        <ele>1970.7</ele>
        <time>2022-01-13T06:21:53Z</time>
      </trkpt>
      <trkpt lat="45.68688" lon="6.26031">
        <ele>1970.7</ele>
        <time>2022-01-13T06:21:54Z</time>
      </trkpt>
      <trkpt lat="45.68688" lon="6.26031">
        <ele>1970.7</ele>
        <time>2022-01-13T06:21:55Z</time>
      </trkpt>
      <trkpt lat="45.68687" lon="6.26031">
        <ele>1970.7</ele>
        <time>2022-01-13T06:21:56Z</time>
      </trkpt>
      <trkpt lat="45.68687" lon="6.26031">
        <ele>1970.7</ele>
        <time>2022-01-13T06:21:57Z</time>
      </trkpt>
      <trkpt lat="45.68686" lon="6.26031">
        <ele>1970.7</ele>
        <time>2022-01-13T06:21:58Z</time>
      </trkpt>
      <trkpt lat="45.68686" lon="6.26031">
        <ele>1970.7</ele>
        <time>2022-01-13T06:21:59Z</time>
      </trkpt>
      <trkpt lat="45.68685" lon="6.26031">
        <ele>1970.7</ele>
        <time>2022-01-13T06:22:00Z</time>
      </trkpt>
      <trkpt lat="45.68685" lon="6.26031">
        <ele>1970.7</ele>
        <time>2022-01-13T06:22:01Z</time>
      </trkpt>
      <trkpt lat="45.68684" lon="6.26031">
        <ele>1970.7</ele>
        <time>2022-01-13T06:22:02Z</time>
      </trkpt>
      <trkpt lat="45.68684" lon="6.26032">
        <ele>1970.7</ele>
        <time>2022-01-13T06:22:03Z</time>
      </trkpt>
      <trkpt lat="45.68683" lon="6.26032">
        <ele>1970.7</ele>
        <time>2022-01-13T06:22:04Z</time>
      </trkpt>
      <trkpt lat="45.68683" lon="6.26032">
        <ele>1971.8</ele>
        <time>2022-01-13T06:22:05Z</time>
      </trkpt>
      <trkpt lat="45.68682" lon="6.26032">
        <ele>1971.8</ele>
        <time>2022-01-13T06:22:06Z</time>
      </trkpt>
      <trkpt lat="45.68682" lon="6.26032">
        <ele>1971.8</ele>
        <time>2022-01-13T06:22:07Z</time>
      </trkpt>
      <trkpt lat="45.68681" lon="6.26033">
        <ele>1971.8</ele>
        <time>2022-01-13T06:22:08Z</time>
      </trkpt>
      <trkpt lat="45.6868" lon="6.26033">
        <ele>1972.8</ele>
        <time>2022-01-13T06:22:09Z</time>
      </trkpt>
      <trkpt lat="45.6868" lon="6.26033">
        <ele>1972.8</ele>
        <time>2022-01-13T06:22:10Z</time>
      </trkpt>
      <trkpt lat="45.68679" lon="6.26033">
        <ele>1973.8</ele>
        <time>2022-01-13T06:22:11Z</time>
      </trkpt>
      <trkpt lat="45.68679" lon="6.26033">
        <ele>1973.8</ele>
        <time>2022-01-13T06:22:12Z</time>
      </trkpt>
      <trkpt lat="45.68678" lon="6.26034">
        <ele>1973.8</ele>
        <time>2022-01-13T06:22:13Z</time>
      </trkpt>
      <trkpt lat="45.68678" lon="6.26034">
        <ele>1973.8</ele>
        <time>2022-01-13T06:22:14Z</time>
      </trkpt>
      <trkpt lat="45.68677" lon="6.26034">
        <ele>1973.8</ele>
        <time>2022-01-13T06:22:15Z</time>
      </trkpt>
      <trkpt lat="45.68677" lon="6.26034">
        <ele>1973.8</ele>
        <time>2022-01-13T06:22:16Z</time>
      </trkpt>
      <trkpt lat="45.68677" lon="6.26034">
        <ele>1973.8</ele>
        <time>2022-01-13T06:22:17Z</time>
      </trkpt>
      <trkpt lat="45.68676" lon="6.26035">
        <ele>1973.8</ele>
        <time>2022-01-13T06:22:18Z</time>
      </trkpt>
      <trkpt lat="45.68676" lon="6.26035">
        <ele>1973.8</ele>
        <time>2022-01-13T06:22:19Z</time>
      </trkpt>
      <trkpt lat="45.68675" lon="6.26035">
        <ele>1973.8</ele>
        <time>2022-01-13T06:22:20Z</time>
      </trkpt>
      <trkpt lat="45.68674" lon="6.26035">
        <ele>1973.8</ele>
        <time>2022-01-13T06:22:21Z</time>
      </trkpt>
      <trkpt lat="45.68674" lon="6.26034">
        <ele>1973.8</ele>
        <time>2022-01-13T06:22:22Z</time>
      </trkpt>
      <trkpt lat="45.68673" lon="6.26034">
        <ele>1974.8</ele>
        <time>2022-01-13T06:22:23Z</time>
      </trkpt>
      <trkpt lat="45.68672" lon="6.26034">
        <ele>1974.8</ele>
        <time>2022-01-13T06:22:24Z</time>
      </trkpt>
      <trkpt lat="45.68672" lon="6.26033">
        <ele>1975.7</ele>
        <time>2022-01-13T06:22:25Z</time>
      </trkpt>
      <trkpt lat="45.68671" lon="6.26033">
        <ele>1975.7</ele>
        <time>2022-01-13T06:22:26Z</time>
      </trkpt>
      <trkpt lat="45.6867" lon="6.26033">
        <ele>1975.7</ele>
        <time>2022-01-13T06:22:27Z</time>
      </trkpt>
      <trkpt lat="45.6867" lon="6.26032">
        <ele>1975.7</ele>
        <time>2022-01-13T06:22:28Z</time>
      </trkpt>
      <trkpt lat="45.6867" lon="6.26032">
        <ele>1975.7</ele>
        <time>2022-01-13T06:22:29Z</time>
      </trkpt>
      <trkpt lat="45.68669" lon="6.26031">
        <ele>1975.7</ele>
        <time>2022-01-13T06:22:30Z</time>
      </trkpt>
      <trkpt lat="45.68669" lon="6.26031">
        <ele>1975.7</ele>
        <time>2022-01-13T06:22:31Z</time>
      </trkpt>
      <trkpt lat="45.68668" lon="6.2603">
        <ele>1975.7</ele>
        <time>2022-01-13T06:22:32Z</time>
      </trkpt>
      <trkpt lat="45.68668" lon="6.2603">
        <ele>1976.8</ele>
        <time>2022-01-13T06:22:33Z</time>
      </trkpt>
      <trkpt lat="45.68668" lon="6.26029">
        <ele>1976.8</ele>
        <time>2022-01-13T06:22:34Z</time>
      </trkpt>
      <trkpt lat="45.68667" lon="6.26029">
        <ele>1977.7</ele>
        <time>2022-01-13T06:22:35Z</time>
      </trkpt>
      <trkpt lat="45.68667" lon="6.26028">
        <ele>1977.7</ele>
        <time>2022-01-13T06:22:36Z</time>
      </trkpt>
      <trkpt lat="45.68667" lon="6.26028">
        <ele>1977.7</ele>
        <time>2022-01-13T06:22:37Z</time>
      </trkpt>
      <trkpt lat="45.68667" lon="6.26028">
        <ele>1977.7</ele>
        <time>2022-01-13T06:22:38Z</time>
      </trkpt>
      <trkpt lat="45.68666" lon="6.26027">
        <ele>1976.8</ele>
        <time>2022-01-13T06:22:39Z</time>
      </trkpt>
      <trkpt lat="45.68666" lon="6.26027">
        <ele>1976.8</ele>
        <time>2022-01-13T06:22:40Z</time>
      </trkpt>
      <trkpt lat="45.68666" lon="6.26027">
        <ele>1976.8</ele>
        <time>2022-01-13T06:22:41Z</time>
      </trkpt>
      <trkpt lat="45.68666" lon="6.26027">
        <ele>1976.8</ele>
        <time>2022-01-13T06:22:42Z</time>
      </trkpt>
      <trkpt lat="45.68665" lon="6.26026">
        <ele>1976.8</ele>
        <time>2022-01-13T06:22:43Z</time>
      </trkpt>
      <trkpt lat="45.68665" lon="6.26026">
        <ele>1976.8</ele>
        <time>2022-01-13T06:22:44Z</time>
      </trkpt>
      <trkpt lat="45.68665" lon="6.26026">
        <ele>1976.8</ele>
        <time>2022-01-13T06:22:45Z</time>
      </trkpt>
      <trkpt lat="45.68664" lon="6.26026">
        <ele>1976.8</ele>
        <time>2022-01-13T06:22:46Z</time>
      </trkpt>
      <trkpt lat="45.68664" lon="6.26025">
        <ele>1976.8</ele>
        <time>2022-01-13T06:22:47Z</time>
      </trkpt>
      <trkpt lat="45.68663" lon="6.26025">
        <ele>1976.8</ele>
        <time>2022-01-13T06:22:48Z</time>
      </trkpt>
      <trkpt lat="45.68663" lon="6.26025">
        <ele>1977.7</ele>
        <time>2022-01-13T06:22:49Z</time>
      </trkpt>
      <trkpt lat="45.68663" lon="6.26025">
        <ele>1977.7</ele>
        <time>2022-01-13T06:22:50Z</time>
      </trkpt>
      <trkpt lat="45.68662" lon="6.26024">
        <ele>1978.8</ele>
        <time>2022-01-13T06:22:51Z</time>
      </trkpt>
      <trkpt lat="45.68662" lon="6.26024">
        <ele>1978.8</ele>
        <time>2022-01-13T06:22:52Z</time>
      </trkpt>
      <trkpt lat="45.68662" lon="6.26024">
        <ele>1978.8</ele>
        <time>2022-01-13T06:22:53Z</time>
      </trkpt>
      <trkpt lat="45.68661" lon="6.26024">
        <ele>1979.9</ele>
        <time>2022-01-13T06:22:54Z</time>
      </trkpt>
      <trkpt lat="45.68661" lon="6.26024">
        <ele>1979.9</ele>
        <time>2022-01-13T06:22:55Z</time>
      </trkpt>
      <trkpt lat="45.68661" lon="6.26024">
        <ele>1979.9</ele>
        <time>2022-01-13T06:22:56Z</time>
      </trkpt>
      <trkpt lat="45.68661" lon="6.26024">
        <ele>1979.9</ele>
        <time>2022-01-13T06:22:57Z</time>
      </trkpt>
      <trkpt lat="45.68661" lon="6.26024">
        <ele>1979.9</ele>
        <time>2022-01-13T06:22:58Z</time>
      </trkpt>
      <trkpt lat="45.68661" lon="6.26023">
        <ele>1979.9</ele>
        <time>2022-01-13T06:22:59Z</time>
      </trkpt>
      <trkpt lat="45.68661" lon="6.26023">
        <ele>1979.9</ele>
        <time>2022-01-13T06:23:00Z</time>
      </trkpt>
      <trkpt lat="45.68661" lon="6.26023">
        <ele>1979.9</ele>
        <time>2022-01-13T06:23:01Z</time>
      </trkpt>
      <trkpt lat="45.68661" lon="6.26023">
        <ele>1979.9</ele>
        <time>2022-01-13T06:23:02Z</time>
      </trkpt>
      <trkpt lat="45.68661" lon="6.26023">
        <ele>1979.9</ele>
        <time>2022-01-13T06:23:03Z</time>
      </trkpt>
      <trkpt lat="45.68661" lon="6.26023">
        <ele>1979.9</ele>
        <time>2022-01-13T06:23:04Z</time>
      </trkpt>
      <trkpt lat="45.68661" lon="6.26023">
        <ele>1979.9</ele>
        <time>2022-01-13T06:23:05Z</time>
      </trkpt>
      <trkpt lat="45.68661" lon="6.26023">
        <ele>1979.9</ele>
        <time>2022-01-13T06:23:06Z</time>
      </trkpt>
      <trkpt lat="45.68661" lon="6.26023">
        <ele>1979.9</ele>
        <time>2022-01-13T06:23:07Z</time>
      </trkpt>
      <trkpt lat="45.68661" lon="6.26023">
        <ele>1979.9</ele>
        <time>2022-01-13T06:23:08Z</time>
      </trkpt>
      <trkpt lat="45.68661" lon="6.26023">
        <ele>1979.9</ele>
        <time>2022-01-13T06:23:09Z</time>
      </trkpt>
      <trkpt lat="45.68661" lon="6.26023">
        <ele>1979.9</ele>
        <time>2022-01-13T06:23:10Z</time>
      </trkpt>
      <trkpt lat="45.68661" lon="6.26023">
        <ele>1979.9</ele>
        <time>2022-01-13T06:23:11Z</time>
      </trkpt>
      <trkpt lat="45.68661" lon="6.26023">
        <ele>1979.9</ele>
        <time>2022-01-13T06:23:12Z</time>
      </trkpt>
      <trkpt lat="45.68661" lon="6.26023">
        <ele>1979.9</ele>
        <time>2022-01-13T06:23:13Z</time>
      </trkpt>
      <trkpt lat="45.68661" lon="6.26023">
        <ele>1979.9</ele>
        <time>2022-01-13T06:23:14Z</time>
      </trkpt>
      <trkpt lat="45.68661" lon="6.26023">
        <ele>1979.9</ele>
        <time>2022-01-13T06:23:15Z</time>
      </trkpt>
      <trkpt lat="45.68661" lon="6.26023">
        <ele>1979.9</ele>
        <time>2022-01-13T06:23:16Z</time>
      </trkpt>
      <trkpt lat="45.68661" lon="6.26023">
        <ele>1979.9</ele>
        <time>2022-01-13T06:23:17Z</time>
      </trkpt>
      <trkpt lat="45.68661" lon="6.26023">
        <ele>1979.9</ele>
        <time>2022-01-13T06:23:18Z</time>
      </trkpt>
      <trkpt lat="45.68661" lon="6.26023">
        <ele>1978.8</ele>
        <time>2022-01-13T06:23:19Z</time>
      </trkpt>
      <trkpt lat="45.68661" lon="6.26023">
        <ele>1978.8</ele>
        <time>2022-01-13T06:23:20Z</time>
      </trkpt>
      <trkpt lat="45.6866" lon="6.26023">
        <ele>1978.8</ele>
        <time>2022-01-13T06:23:21Z</time>
      </trkpt>
      <trkpt lat="45.6866" lon="6.26023">
        <ele>1978.8</ele>
        <time>2022-01-13T06:23:22Z</time>
      </trkpt>
      <trkpt lat="45.6866" lon="6.26023">
        <ele>1978.8</ele>
        <time>2022-01-13T06:23:23Z</time>
      </trkpt>
      <trkpt lat="45.68659" lon="6.26023">
        <ele>1978.8</ele>
        <time>2022-01-13T06:23:24Z</time>
      </trkpt>
      <trkpt lat="45.68659" lon="6.26023">
        <ele>1978.8</ele>
        <time>2022-01-13T06:23:25Z</time>
      </trkpt>
      <trkpt lat="45.68659" lon="6.26022">
        <ele>1978.8</ele>
        <time>2022-01-13T06:23:26Z</time>
      </trkpt>
      <trkpt lat="45.68658" lon="6.26022">
        <ele>1978.8</ele>
        <time>2022-01-13T06:23:27Z</time>
      </trkpt>
      <trkpt lat="45.68657" lon="6.26022">
        <ele>1978.8</ele>
        <time>2022-01-13T06:23:28Z</time>
      </trkpt>
      <trkpt lat="45.68657" lon="6.26022">
        <ele>1978.8</ele>
        <time>2022-01-13T06:23:29Z</time>
      </trkpt>
      <trkpt lat="45.68656" lon="6.26021">
        <ele>1978.8</ele>
        <time>2022-01-13T06:23:30Z</time>
      </trkpt>
      <trkpt lat="45.68656" lon="6.26021">
        <ele>1978.8</ele>
        <time>2022-01-13T06:23:31Z</time>
      </trkpt>
      <trkpt lat="45.68655" lon="6.26021">
        <ele>1978.8</ele>
        <time>2022-01-13T06:23:32Z</time>
      </trkpt>
      <trkpt lat="45.68655" lon="6.26021">
        <ele>1978.8</ele>
        <time>2022-01-13T06:23:33Z</time>
      </trkpt>
      <trkpt lat="45.68655" lon="6.26021">
        <ele>1978.8</ele>
        <time>2022-01-13T06:23:34Z</time>
      </trkpt>
      <trkpt lat="45.68655" lon="6.26021">
        <ele>1978.8</ele>
        <time>2022-01-13T06:23:35Z</time>
      </trkpt>
      <trkpt lat="45.68655" lon="6.26021">
        <ele>1978.8</ele>
        <time>2022-01-13T06:23:36Z</time>
      </trkpt>
      <trkpt lat="45.68655" lon="6.26021">
        <ele>1978.8</ele>
        <time>2022-01-13T06:23:37Z</time>
      </trkpt>
      <trkpt lat="45.68655" lon="6.26021">
        <ele>1978.8</ele>
        <time>2022-01-13T06:23:38Z</time>
      </trkpt>
      <trkpt lat="45.68654" lon="6.26021">
        <ele>1978.8</ele>
        <time>2022-01-13T06:23:39Z</time>
      </trkpt>
      <trkpt lat="45.68654" lon="6.2602">
        <ele>1978.8</ele>
        <time>2022-01-13T06:23:40Z</time>
      </trkpt>
      <trkpt lat="45.68654" lon="6.2602">
        <ele>1978.8</ele>
        <time>2022-01-13T06:23:41Z</time>
      </trkpt>
      <trkpt lat="45.68654" lon="6.2602">
        <ele>1978.8</ele>
        <time>2022-01-13T06:23:42Z</time>
      </trkpt>
      <trkpt lat="45.68654" lon="6.2602">
        <ele>1978.8</ele>
        <time>2022-01-13T06:23:43Z</time>
      </trkpt>
      <trkpt lat="45.68654" lon="6.2602">
        <ele>1978.8</ele>
        <time>2022-01-13T06:23:44Z</time>
      </trkpt>
      <trkpt lat="45.68654" lon="6.2602">
        <ele>1978.8</ele>
        <time>2022-01-13T06:23:45Z</time>
      </trkpt>
      <trkpt lat="45.68654" lon="6.2602">
        <ele>1978.8</ele>
        <time>2022-01-13T06:23:46Z</time>
      </trkpt>
      <trkpt lat="45.68654" lon="6.2602">
        <ele>1978.8</ele>
        <time>2022-01-13T06:23:47Z</time>
      </trkpt>
      <trkpt lat="45.68654" lon="6.2602">
        <ele>1978.8</ele>
        <time>2022-01-13T06:23:48Z</time>
      </trkpt>
      <trkpt lat="45.68654" lon="6.2602">
        <ele>1978.8</ele>
        <time>2022-01-13T06:23:49Z</time>
      </trkpt>
      <trkpt lat="45.68654" lon="6.2602">
        <ele>1978.8</ele>
        <time>2022-01-13T06:23:50Z</time>
      </trkpt>
      <trkpt lat="45.68654" lon="6.2602">
        <ele>1978.8</ele>
        <time>2022-01-13T06:23:51Z</time>
      </trkpt>
      <trkpt lat="45.68654" lon="6.2602">
        <ele>1978.8</ele>
        <time>2022-01-13T06:23:52Z</time>
      </trkpt>
      <trkpt lat="45.68654" lon="6.2602">
        <ele>1978.8</ele>
        <time>2022-01-13T06:23:53Z</time>
      </trkpt>
      <trkpt lat="45.68654" lon="6.2602">
        <ele>1978.8</ele>
        <time>2022-01-13T06:23:54Z</time>
      </trkpt>
      <trkpt lat="45.68654" lon="6.2602">
        <ele>1978.8</ele>
        <time>2022-01-13T06:23:55Z</time>
      </trkpt>
      <trkpt lat="45.68654" lon="6.2602">
        <ele>1978.8</ele>
        <time>2022-01-13T06:23:56Z</time>
      </trkpt>
      <trkpt lat="45.68654" lon="6.2602">
        <ele>1978.8</ele>
        <time>2022-01-13T06:23:57Z</time>
      </trkpt>
      <trkpt lat="45.68654" lon="6.2602">
        <ele>1978.8</ele>
        <time>2022-01-13T06:23:58Z</time>
      </trkpt>
      <trkpt lat="45.68654" lon="6.2602">
        <ele>1978.8</ele>
        <time>2022-01-13T06:23:59Z</time>
      </trkpt>
      <trkpt lat="45.68654" lon="6.2602">
        <ele>1978.8</ele>
        <time>2022-01-13T06:24:00Z</time>
      </trkpt>
      <trkpt lat="45.68654" lon="6.2602">
        <ele>1978.8</ele>
        <time>2022-01-13T06:24:01Z</time>
      </trkpt>
      <trkpt lat="45.68654" lon="6.2602">
        <ele>1978.8</ele>
        <time>2022-01-13T06:24:02Z</time>
      </trkpt>
      <trkpt lat="45.68653" lon="6.2602">
        <ele>1978.8</ele>
        <time>2022-01-13T06:24:03Z</time>
      </trkpt>
      <trkpt lat="45.68652" lon="6.26021">
        <ele>1978.8</ele>
        <time>2022-01-13T06:24:04Z</time>
      </trkpt>
      <trkpt lat="45.68651" lon="6.26022">
        <ele>1978.8</ele>
        <time>2022-01-13T06:24:05Z</time>
      </trkpt>
      <trkpt lat="45.6865" lon="6.26023">
        <ele>1978.8</ele>
        <time>2022-01-13T06:24:06Z</time>
      </trkpt>
      <trkpt lat="45.68648" lon="6.26023">
        <ele>1978.8</ele>
        <time>2022-01-13T06:24:07Z</time>
      </trkpt>
      <trkpt lat="45.68647" lon="6.26024">
        <ele>1978.8</ele>
        <time>2022-01-13T06:24:08Z</time>
      </trkpt>
      <trkpt lat="45.68646" lon="6.26025">
        <ele>1978.8</ele>
        <time>2022-01-13T06:24:09Z</time>
      </trkpt>
      <trkpt lat="45.68645" lon="6.26026">
        <ele>1978.8</ele>
        <time>2022-01-13T06:24:10Z</time>
      </trkpt>
      <trkpt lat="45.68643" lon="6.26027">
        <ele>1978.8</ele>
        <time>2022-01-13T06:24:11Z</time>
      </trkpt>
      <trkpt lat="45.68642" lon="6.26027">
        <ele>1978.8</ele>
        <time>2022-01-13T06:24:12Z</time>
      </trkpt>
      <trkpt lat="45.6864" lon="6.26028">
        <ele>1978.8</ele>
        <time>2022-01-13T06:24:13Z</time>
      </trkpt>
      <trkpt lat="45.68639" lon="6.26029">
        <ele>1978.8</ele>
        <time>2022-01-13T06:24:14Z</time>
      </trkpt>
      <trkpt lat="45.68638" lon="6.26029">
        <ele>1978.8</ele>
        <time>2022-01-13T06:24:15Z</time>
      </trkpt>
      <trkpt lat="45.68638" lon="6.26029">
        <ele>1978.8</ele>
        <time>2022-01-13T06:24:16Z</time>
      </trkpt>
      <trkpt lat="45.68637" lon="6.2603">
        <ele>1978.8</ele>
        <time>2022-01-13T06:24:17Z</time>
      </trkpt>
      <trkpt lat="45.68636" lon="6.2603">
        <ele>1978.8</ele>
        <time>2022-01-13T06:24:18Z</time>
      </trkpt>
      <trkpt lat="45.68635" lon="6.2603">
        <ele>1978.8</ele>
        <time>2022-01-13T06:24:19Z</time>
      </trkpt>
      <trkpt lat="45.68635" lon="6.2603">
        <ele>1978.8</ele>
        <time>2022-01-13T06:24:20Z</time>
      </trkpt>
      <trkpt lat="45.68634" lon="6.2603">
        <ele>1978.8</ele>
        <time>2022-01-13T06:24:21Z</time>
      </trkpt>
      <trkpt lat="45.68633" lon="6.26029">
        <ele>1978.8</ele>
        <time>2022-01-13T06:24:22Z</time>
      </trkpt>
      <trkpt lat="45.68633" lon="6.26029">
        <ele>1978.8</ele>
        <time>2022-01-13T06:24:23Z</time>
      </trkpt>
      <trkpt lat="45.68632" lon="6.26029">
        <ele>1978.8</ele>
        <time>2022-01-13T06:24:24Z</time>
      </trkpt>
      <trkpt lat="45.68631" lon="6.26029">
        <ele>1978.8</ele>
        <time>2022-01-13T06:24:25Z</time>
      </trkpt>
      <trkpt lat="45.68631" lon="6.26029">
        <ele>1978.8</ele>
        <time>2022-01-13T06:24:26Z</time>
      </trkpt>
      <trkpt lat="45.6863" lon="6.26028">
        <ele>1978.8</ele>
        <time>2022-01-13T06:24:27Z</time>
      </trkpt>
      <trkpt lat="45.68629" lon="6.26028">
        <ele>1978.8</ele>
        <time>2022-01-13T06:24:28Z</time>
      </trkpt>
      <trkpt lat="45.68629" lon="6.26028">
        <ele>1978.8</ele>
        <time>2022-01-13T06:24:29Z</time>
      </trkpt>
      <trkpt lat="45.68628" lon="6.26028">
        <ele>1978.8</ele>
        <time>2022-01-13T06:24:30Z</time>
      </trkpt>
      <trkpt lat="45.68628" lon="6.26028">
        <ele>1978.8</ele>
        <time>2022-01-13T06:24:31Z</time>
      </trkpt>
      <trkpt lat="45.68627" lon="6.26028">
        <ele>1978.8</ele>
        <time>2022-01-13T06:24:32Z</time>
      </trkpt>
      <trkpt lat="45.68626" lon="6.26028">
        <ele>1978.8</ele>
        <time>2022-01-13T06:24:33Z</time>
      </trkpt>
      <trkpt lat="45.68626" lon="6.26028">
        <ele>1978.8</ele>
        <time>2022-01-13T06:24:34Z</time>
      </trkpt>
      <trkpt lat="45.68625" lon="6.26028">
        <ele>1978.8</ele>
        <time>2022-01-13T06:24:35Z</time>
      </trkpt>
      <trkpt lat="45.68624" lon="6.26028">
        <ele>1978.8</ele>
        <time>2022-01-13T06:24:36Z</time>
      </trkpt>
      <trkpt lat="45.68624" lon="6.26027">
        <ele>1978.8</ele>
        <time>2022-01-13T06:24:37Z</time>
      </trkpt>
      <trkpt lat="45.68623" lon="6.26027">
        <ele>1978.8</ele>
        <time>2022-01-13T06:24:38Z</time>
      </trkpt>
      <trkpt lat="45.68623" lon="6.26027">
        <ele>1978.8</ele>
        <time>2022-01-13T06:24:39Z</time>
      </trkpt>
      <trkpt lat="45.68622" lon="6.26027">
        <ele>1978.8</ele>
        <time>2022-01-13T06:24:40Z</time>
      </trkpt>
      <trkpt lat="45.68621" lon="6.26027">
        <ele>1978.8</ele>
        <time>2022-01-13T06:24:41Z</time>
      </trkpt>
      <trkpt lat="45.68621" lon="6.26027">
        <ele>1978.8</ele>
        <time>2022-01-13T06:24:42Z</time>
      </trkpt>
      <trkpt lat="45.6862" lon="6.26027">
        <ele>1978.8</ele>
        <time>2022-01-13T06:24:43Z</time>
      </trkpt>
      <trkpt lat="45.6862" lon="6.26027">
        <ele>1978.8</ele>
        <time>2022-01-13T06:24:44Z</time>
      </trkpt>
      <trkpt lat="45.68619" lon="6.26027">
        <ele>1978.8</ele>
        <time>2022-01-13T06:24:45Z</time>
      </trkpt>
      <trkpt lat="45.68619" lon="6.26027">
        <ele>1978.8</ele>
        <time>2022-01-13T06:24:46Z</time>
      </trkpt>
      <trkpt lat="45.68618" lon="6.26027">
        <ele>1978.8</ele>
        <time>2022-01-13T06:24:47Z</time>
      </trkpt>
      <trkpt lat="45.68618" lon="6.26027">
        <ele>1978.8</ele>
        <time>2022-01-13T06:24:48Z</time>
      </trkpt>
      <trkpt lat="45.68617" lon="6.26026">
        <ele>1979.9</ele>
        <time>2022-01-13T06:24:49Z</time>
      </trkpt>
      <trkpt lat="45.68617" lon="6.26026">
        <ele>1979.9</ele>
        <time>2022-01-13T06:24:50Z</time>
      </trkpt>
      <trkpt lat="45.68616" lon="6.26026">
        <ele>1979.9</ele>
        <time>2022-01-13T06:24:51Z</time>
      </trkpt>
      <trkpt lat="45.68616" lon="6.26026">
        <ele>1979.9</ele>
        <time>2022-01-13T06:24:52Z</time>
      </trkpt>
      <trkpt lat="45.68615" lon="6.26026">
        <ele>1979.9</ele>
        <time>2022-01-13T06:24:53Z</time>
      </trkpt>
      <trkpt lat="45.68614" lon="6.26026">
        <ele>1979.9</ele>
        <time>2022-01-13T06:24:54Z</time>
      </trkpt>
      <trkpt lat="45.68614" lon="6.26026">
        <ele>1979.9</ele>
        <time>2022-01-13T06:24:55Z</time>
      </trkpt>
      <trkpt lat="45.68613" lon="6.26027">
        <ele>1979.9</ele>
        <time>2022-01-13T06:24:56Z</time>
      </trkpt>
      <trkpt lat="45.68613" lon="6.26027">
        <ele>1979.9</ele>
        <time>2022-01-13T06:24:57Z</time>
      </trkpt>
      <trkpt lat="45.68612" lon="6.26027">
        <ele>1980.8</ele>
        <time>2022-01-13T06:24:58Z</time>
      </trkpt>
      <trkpt lat="45.68612" lon="6.26026">
        <ele>1980.8</ele>
        <time>2022-01-13T06:24:59Z</time>
      </trkpt>
      <trkpt lat="45.68612" lon="6.26026">
        <ele>1980.8</ele>
        <time>2022-01-13T06:25:00Z</time>
      </trkpt>
      <trkpt lat="45.68611" lon="6.26026">
        <ele>1980.8</ele>
        <time>2022-01-13T06:25:01Z</time>
      </trkpt>
      <trkpt lat="45.68611" lon="6.26026">
        <ele>1980.8</ele>
        <time>2022-01-13T06:25:02Z</time>
      </trkpt>
      <trkpt lat="45.68611" lon="6.26026">
        <ele>1981.8</ele>
        <time>2022-01-13T06:25:03Z</time>
      </trkpt>
      <trkpt lat="45.6861" lon="6.26025">
        <ele>1981.8</ele>
        <time>2022-01-13T06:25:04Z</time>
      </trkpt>
      <trkpt lat="45.6861" lon="6.26025">
        <ele>1981.8</ele>
        <time>2022-01-13T06:25:05Z</time>
      </trkpt>
      <trkpt lat="45.68609" lon="6.26024">
        <ele>1981.8</ele>
        <time>2022-01-13T06:25:06Z</time>
      </trkpt>
      <trkpt lat="45.68608" lon="6.26024">
        <ele>1982.7</ele>
        <time>2022-01-13T06:25:07Z</time>
      </trkpt>
      <trkpt lat="45.68608" lon="6.26023">
        <ele>1982.7</ele>
        <time>2022-01-13T06:25:08Z</time>
      </trkpt>
      <trkpt lat="45.68607" lon="6.26023">
        <ele>1982.7</ele>
        <time>2022-01-13T06:25:09Z</time>
      </trkpt>
      <trkpt lat="45.68607" lon="6.26022">
        <ele>1982.7</ele>
        <time>2022-01-13T06:25:10Z</time>
      </trkpt>
      <trkpt lat="45.68606" lon="6.26022">
        <ele>1983.8</ele>
        <time>2022-01-13T06:25:11Z</time>
      </trkpt>
      <trkpt lat="45.68606" lon="6.26021">
        <ele>1983.8</ele>
        <time>2022-01-13T06:25:12Z</time>
      </trkpt>
      <trkpt lat="45.68606" lon="6.26021">
        <ele>1983.8</ele>
        <time>2022-01-13T06:25:13Z</time>
      </trkpt>
      <trkpt lat="45.68605" lon="6.26021">
        <ele>1984.7</ele>
        <time>2022-01-13T06:25:14Z</time>
      </trkpt>
      <trkpt lat="45.68604" lon="6.2602">
        <ele>1984.7</ele>
        <time>2022-01-13T06:25:15Z</time>
      </trkpt>
      <trkpt lat="45.68603" lon="6.2602">
        <ele>1984.7</ele>
        <time>2022-01-13T06:25:16Z</time>
      </trkpt>
      <trkpt lat="45.68603" lon="6.26019">
        <ele>1984.7</ele>
        <time>2022-01-13T06:25:17Z</time>
      </trkpt>
      <trkpt lat="45.68602" lon="6.26019">
        <ele>1984.7</ele>
        <time>2022-01-13T06:25:18Z</time>
      </trkpt>
      <trkpt lat="45.68602" lon="6.26019">
        <ele>1984.7</ele>
        <time>2022-01-13T06:25:19Z</time>
      </trkpt>
      <trkpt lat="45.68602" lon="6.26018">
        <ele>1984.7</ele>
        <time>2022-01-13T06:25:20Z</time>
      </trkpt>
      <trkpt lat="45.68601" lon="6.26018">
        <ele>1984.7</ele>
        <time>2022-01-13T06:25:21Z</time>
      </trkpt>
      <trkpt lat="45.68601" lon="6.26018">
        <ele>1985.8</ele>
        <time>2022-01-13T06:25:22Z</time>
      </trkpt>
      <trkpt lat="45.68601" lon="6.26018">
        <ele>1985.8</ele>
        <time>2022-01-13T06:25:23Z</time>
      </trkpt>
      <trkpt lat="45.68601" lon="6.26018">
        <ele>1985.8</ele>
        <time>2022-01-13T06:25:24Z</time>
      </trkpt>
      <trkpt lat="45.68601" lon="6.26018">
        <ele>1985.8</ele>
        <time>2022-01-13T06:25:25Z</time>
      </trkpt>
      <trkpt lat="45.68601" lon="6.26017">
        <ele>1985.8</ele>
        <time>2022-01-13T06:25:26Z</time>
      </trkpt>
      <trkpt lat="45.686" lon="6.26017">
        <ele>1985.8</ele>
        <time>2022-01-13T06:25:27Z</time>
      </trkpt>
      <trkpt lat="45.686" lon="6.26017">
        <ele>1985.8</ele>
        <time>2022-01-13T06:25:28Z</time>
      </trkpt>
      <trkpt lat="45.686" lon="6.26016">
        <ele>1985.8</ele>
        <time>2022-01-13T06:25:29Z</time>
      </trkpt>
      <trkpt lat="45.68599" lon="6.26016">
        <ele>1985.8</ele>
        <time>2022-01-13T06:25:30Z</time>
      </trkpt>
      <trkpt lat="45.68599" lon="6.26015">
        <ele>1985.8</ele>
        <time>2022-01-13T06:25:31Z</time>
      </trkpt>
      <trkpt lat="45.68599" lon="6.26015">
        <ele>1985.8</ele>
        <time>2022-01-13T06:25:32Z</time>
      </trkpt>
      <trkpt lat="45.68598" lon="6.26015">
        <ele>1985.8</ele>
        <time>2022-01-13T06:25:33Z</time>
      </trkpt>
      <trkpt lat="45.68598" lon="6.26014">
        <ele>1986.7</ele>
        <time>2022-01-13T06:25:34Z</time>
      </trkpt>
      <trkpt lat="45.68597" lon="6.26014">
        <ele>1986.7</ele>
        <time>2022-01-13T06:25:35Z</time>
      </trkpt>
      <trkpt lat="45.68597" lon="6.26014">
        <ele>1986.7</ele>
        <time>2022-01-13T06:25:36Z</time>
      </trkpt>
      <trkpt lat="45.68596" lon="6.26013">
        <ele>1986.7</ele>
        <time>2022-01-13T06:25:37Z</time>
      </trkpt>
      <trkpt lat="45.68596" lon="6.26013">
        <ele>1986.7</ele>
        <time>2022-01-13T06:25:38Z</time>
      </trkpt>
      <trkpt lat="45.68595" lon="6.26013">
        <ele>1986.7</ele>
        <time>2022-01-13T06:25:39Z</time>
      </trkpt>
      <trkpt lat="45.68595" lon="6.26012">
        <ele>1986.7</ele>
        <time>2022-01-13T06:25:40Z</time>
      </trkpt>
      <trkpt lat="45.68595" lon="6.26012">
        <ele>1987.8</ele>
        <time>2022-01-13T06:25:41Z</time>
      </trkpt>
      <trkpt lat="45.68594" lon="6.26011">
        <ele>1987.8</ele>
        <time>2022-01-13T06:25:42Z</time>
      </trkpt>
      <trkpt lat="45.68594" lon="6.26011">
        <ele>1987.8</ele>
        <time>2022-01-13T06:25:43Z</time>
      </trkpt>
      <trkpt lat="45.68594" lon="6.26011">
        <ele>1987.8</ele>
        <time>2022-01-13T06:25:44Z</time>
      </trkpt>
      <trkpt lat="45.68593" lon="6.2601">
        <ele>1987.8</ele>
        <time>2022-01-13T06:25:45Z</time>
      </trkpt>
      <trkpt lat="45.68593" lon="6.2601">
        <ele>1987.8</ele>
        <time>2022-01-13T06:25:46Z</time>
      </trkpt>
      <trkpt lat="45.68593" lon="6.2601">
        <ele>1987.8</ele>
        <time>2022-01-13T06:25:47Z</time>
      </trkpt>
      <trkpt lat="45.68593" lon="6.26009">
        <ele>1987.8</ele>
        <time>2022-01-13T06:25:48Z</time>
      </trkpt>
      <trkpt lat="45.68593" lon="6.26009">
        <ele>1987.8</ele>
        <time>2022-01-13T06:25:49Z</time>
      </trkpt>
      <trkpt lat="45.68593" lon="6.26008">
        <ele>1987.8</ele>
        <time>2022-01-13T06:25:50Z</time>
      </trkpt>
      <trkpt lat="45.68593" lon="6.26008">
        <ele>1987.8</ele>
        <time>2022-01-13T06:25:51Z</time>
      </trkpt>
      <trkpt lat="45.68592" lon="6.26008">
        <ele>1987.8</ele>
        <time>2022-01-13T06:25:52Z</time>
      </trkpt>
      <trkpt lat="45.68592" lon="6.26007">
        <ele>1989.8</ele>
        <time>2022-01-13T06:25:53Z</time>
      </trkpt>
      <trkpt lat="45.68592" lon="6.26007">
        <ele>1989.8</ele>
        <time>2022-01-13T06:25:54Z</time>
      </trkpt>
      <trkpt lat="45.68592" lon="6.26007">
        <ele>1989.8</ele>
        <time>2022-01-13T06:25:55Z</time>
      </trkpt>
      <trkpt lat="45.68592" lon="6.26007">
        <ele>1989.8</ele>
        <time>2022-01-13T06:25:56Z</time>
      </trkpt>
      <trkpt lat="45.68592" lon="6.26007">
        <ele>1990.8</ele>
        <time>2022-01-13T06:25:57Z</time>
      </trkpt>
      <trkpt lat="45.68592" lon="6.26007">
        <ele>1990.8</ele>
        <time>2022-01-13T06:25:58Z</time>
      </trkpt>
      <trkpt lat="45.68592" lon="6.26007">
        <ele>1989.8</ele>
        <time>2022-01-13T06:25:59Z</time>
      </trkpt>
      <trkpt lat="45.68592" lon="6.26006">
        <ele>1989.8</ele>
        <time>2022-01-13T06:26:00Z</time>
      </trkpt>
      <trkpt lat="45.68592" lon="6.26006">
        <ele>1990.8</ele>
        <time>2022-01-13T06:26:01Z</time>
      </trkpt>
      <trkpt lat="45.68592" lon="6.26006">
        <ele>1990.8</ele>
        <time>2022-01-13T06:26:02Z</time>
      </trkpt>
      <trkpt lat="45.68592" lon="6.26006">
        <ele>1989.8</ele>
        <time>2022-01-13T06:26:03Z</time>
      </trkpt>
      <trkpt lat="45.68592" lon="6.26006">
        <ele>1989.8</ele>
        <time>2022-01-13T06:26:04Z</time>
      </trkpt>
      <trkpt lat="45.68592" lon="6.26006">
        <ele>1989.8</ele>
        <time>2022-01-13T06:26:05Z</time>
      </trkpt>
      <trkpt lat="45.68592" lon="6.26006">
        <ele>1989.8</ele>
        <time>2022-01-13T06:26:06Z</time>
      </trkpt>
      <trkpt lat="45.68592" lon="6.26006">
        <ele>1989.8</ele>
        <time>2022-01-13T06:26:07Z</time>
      </trkpt>
      <trkpt lat="45.68592" lon="6.26006">
        <ele>1989.8</ele>
        <time>2022-01-13T06:26:08Z</time>
      </trkpt>
      <trkpt lat="45.68592" lon="6.26006">
        <ele>1989.8</ele>
        <time>2022-01-13T06:26:09Z</time>
      </trkpt>
      <trkpt lat="45.68592" lon="6.26006">
        <ele>1989.8</ele>
        <time>2022-01-13T06:26:10Z</time>
      </trkpt>
      <trkpt lat="45.68592" lon="6.26006">
        <ele>1990.8</ele>
        <time>2022-01-13T06:26:11Z</time>
      </trkpt>
      <trkpt lat="45.68592" lon="6.26006">
        <ele>1990.8</ele>
        <time>2022-01-13T06:26:12Z</time>
      </trkpt>
      <trkpt lat="45.68592" lon="6.26006">
        <ele>1990.8</ele>
        <time>2022-01-13T06:26:13Z</time>
      </trkpt>
      <trkpt lat="45.68592" lon="6.26006">
        <ele>1990.8</ele>
        <time>2022-01-13T06:26:14Z</time>
      </trkpt>
      <trkpt lat="45.68592" lon="6.26006">
        <ele>1990.8</ele>
        <time>2022-01-13T06:26:15Z</time>
      </trkpt>
      <trkpt lat="45.68592" lon="6.26006">
        <ele>1990.8</ele>
        <time>2022-01-13T06:26:16Z</time>
      </trkpt>
      <trkpt lat="45.68592" lon="6.26006">
        <ele>1990.8</ele>
        <time>2022-01-13T06:26:17Z</time>
      </trkpt>
      <trkpt lat="45.68592" lon="6.26006">
        <ele>1990.8</ele>
        <time>2022-01-13T06:26:18Z</time>
      </trkpt>
      <trkpt lat="45.68592" lon="6.26006">
        <ele>1990.8</ele>
        <time>2022-01-13T06:26:19Z</time>
      </trkpt>
      <trkpt lat="45.68592" lon="6.26006">
        <ele>1990.8</ele>
        <time>2022-01-13T06:26:20Z</time>
      </trkpt>
      <trkpt lat="45.68592" lon="6.26006">
        <ele>1990.8</ele>
        <time>2022-01-13T06:26:21Z</time>
      </trkpt>
      <trkpt lat="45.68592" lon="6.26006">
        <ele>1990.8</ele>
        <time>2022-01-13T06:26:22Z</time>
      </trkpt>
      <trkpt lat="45.68592" lon="6.26006">
        <ele>1990.8</ele>
        <time>2022-01-13T06:26:23Z</time>
      </trkpt>
      <trkpt lat="45.68592" lon="6.26006">
        <ele>1990.8</ele>
        <time>2022-01-13T06:26:24Z</time>
      </trkpt>
      <trkpt lat="45.68592" lon="6.26006">
        <ele>1990.8</ele>
        <time>2022-01-13T06:26:25Z</time>
      </trkpt>
      <trkpt lat="45.68592" lon="6.26006">
        <ele>1990.8</ele>
        <time>2022-01-13T06:26:26Z</time>
      </trkpt>
      <trkpt lat="45.68592" lon="6.26006">
        <ele>1990.8</ele>
        <time>2022-01-13T06:26:27Z</time>
      </trkpt>
      <trkpt lat="45.68592" lon="6.26006">
        <ele>1990.8</ele>
        <time>2022-01-13T06:26:28Z</time>
      </trkpt>
      <trkpt lat="45.68592" lon="6.26006">
        <ele>1990.8</ele>
        <time>2022-01-13T06:26:29Z</time>
      </trkpt>
      <trkpt lat="45.68592" lon="6.26006">
        <ele>1990.8</ele>
        <time>2022-01-13T06:26:30Z</time>
      </trkpt>
      <trkpt lat="45.68592" lon="6.26006">
        <ele>1990.8</ele>
        <time>2022-01-13T06:26:31Z</time>
      </trkpt>
      <trkpt lat="45.68592" lon="6.26006">
        <ele>1990.8</ele>
        <time>2022-01-13T06:26:32Z</time>
      </trkpt>
      <trkpt lat="45.68592" lon="6.26006">
        <ele>1990.8</ele>
        <time>2022-01-13T06:26:33Z</time>
      </trkpt>
      <trkpt lat="45.68592" lon="6.26006">
        <ele>1990.8</ele>
        <time>2022-01-13T06:26:34Z</time>
      </trkpt>
      <trkpt lat="45.68592" lon="6.26006">
        <ele>1990.8</ele>
        <time>2022-01-13T06:26:35Z</time>
      </trkpt>
      <trkpt lat="45.68592" lon="6.26006">
        <ele>1990.8</ele>
        <time>2022-01-13T06:26:36Z</time>
      </trkpt>
      <trkpt lat="45.68592" lon="6.26006">
        <ele>1990.8</ele>
        <time>2022-01-13T06:26:37Z</time>
      </trkpt>
      <trkpt lat="45.68592" lon="6.26006">
        <ele>1990.8</ele>
        <time>2022-01-13T06:26:38Z</time>
      </trkpt>
      <trkpt lat="45.68592" lon="6.26006">
        <ele>1990.8</ele>
        <time>2022-01-13T06:26:39Z</time>
      </trkpt>
      <trkpt lat="45.68592" lon="6.26006">
        <ele>1990.8</ele>
        <time>2022-01-13T06:26:40Z</time>
      </trkpt>
      <trkpt lat="45.68592" lon="6.26006">
        <ele>1990.8</ele>
        <time>2022-01-13T06:26:41Z</time>
      </trkpt>
      <trkpt lat="45.68592" lon="6.26006">
        <ele>1990.8</ele>
        <time>2022-01-13T06:26:42Z</time>
      </trkpt>
      <trkpt lat="45.68592" lon="6.26006">
        <ele>1990.8</ele>
        <time>2022-01-13T06:26:43Z</time>
      </trkpt>
      <trkpt lat="45.68592" lon="6.26006">
        <ele>1990.8</ele>
        <time>2022-01-13T06:26:44Z</time>
      </trkpt>
      <trkpt lat="45.68592" lon="6.26006">
        <ele>1990.8</ele>
        <time>2022-01-13T06:26:45Z</time>
      </trkpt>
      <trkpt lat="45.68592" lon="6.26006">
        <ele>1990.8</ele>
        <time>2022-01-13T06:26:46Z</time>
      </trkpt>
      <trkpt lat="45.68592" lon="6.26006">
        <ele>1990.8</ele>
        <time>2022-01-13T06:26:47Z</time>
      </trkpt>
      <trkpt lat="45.68592" lon="6.26006">
        <ele>1990.8</ele>
        <time>2022-01-13T06:26:48Z</time>
      </trkpt>
      <trkpt lat="45.68592" lon="6.26006">
        <ele>1990.8</ele>
        <time>2022-01-13T06:26:49Z</time>
      </trkpt>
      <trkpt lat="45.68592" lon="6.26006">
        <ele>1990.8</ele>
        <time>2022-01-13T06:26:50Z</time>
      </trkpt>
      <trkpt lat="45.68592" lon="6.26006">
        <ele>1990.8</ele>
        <time>2022-01-13T06:26:51Z</time>
      </trkpt>
      <trkpt lat="45.68592" lon="6.26006">
        <ele>1990.8</ele>
        <time>2022-01-13T06:26:52Z</time>
      </trkpt>
      <trkpt lat="45.68592" lon="6.26006">
        <ele>1990.8</ele>
        <time>2022-01-13T06:26:53Z</time>
      </trkpt>
      <trkpt lat="45.68592" lon="6.26006">
        <ele>1990.8</ele>
        <time>2022-01-13T06:26:54Z</time>
      </trkpt>
      <trkpt lat="45.68592" lon="6.26006">
        <ele>1990.8</ele>
        <time>2022-01-13T06:26:55Z</time>
      </trkpt>
      <trkpt lat="45.68592" lon="6.26006">
        <ele>1990.8</ele>
        <time>2022-01-13T06:26:56Z</time>
      </trkpt>
      <trkpt lat="45.68592" lon="6.26006">
        <ele>1990.8</ele>
        <time>2022-01-13T06:26:57Z</time>
      </trkpt>
      <trkpt lat="45.68592" lon="6.26006">
        <ele>1990.8</ele>
        <time>2022-01-13T06:26:58Z</time>
      </trkpt>
      <trkpt lat="45.68592" lon="6.26006">
        <ele>1991.7</ele>
        <time>2022-01-13T06:26:59Z</time>
      </trkpt>
      <trkpt lat="45.68592" lon="6.26006">
        <ele>1991.7</ele>
        <time>2022-01-13T06:27:00Z</time>
      </trkpt>
      <trkpt lat="45.68592" lon="6.26006">
        <ele>1991.7</ele>
        <time>2022-01-13T06:27:01Z</time>
      </trkpt>
      <trkpt lat="45.68592" lon="6.26006">
        <ele>1991.7</ele>
        <time>2022-01-13T06:27:02Z</time>
      </trkpt>
      <trkpt lat="45.68592" lon="6.26006">
        <ele>1991.7</ele>
        <time>2022-01-13T06:27:03Z</time>
      </trkpt>
      <trkpt lat="45.68592" lon="6.26006">
        <ele>1991.7</ele>
        <time>2022-01-13T06:27:04Z</time>
      </trkpt>
      <trkpt lat="45.68592" lon="6.26006">
        <ele>1992.8</ele>
        <time>2022-01-13T06:27:05Z</time>
      </trkpt>
      <trkpt lat="45.68592" lon="6.26006">
        <ele>1992.8</ele>
        <time>2022-01-13T06:27:06Z</time>
      </trkpt>
      <trkpt lat="45.68592" lon="6.26006">
        <ele>1992.8</ele>
        <time>2022-01-13T06:27:07Z</time>
      </trkpt>
      <trkpt lat="45.68592" lon="6.26006">
        <ele>1992.8</ele>
        <time>2022-01-13T06:27:08Z</time>
      </trkpt>
      <trkpt lat="45.68591" lon="6.26006">
        <ele>1993.7</ele>
        <time>2022-01-13T06:27:09Z</time>
      </trkpt>
      <trkpt lat="45.6859" lon="6.26005">
        <ele>1993.7</ele>
        <time>2022-01-13T06:27:10Z</time>
      </trkpt>
      <trkpt lat="45.68589" lon="6.26005">
        <ele>1994.8</ele>
        <time>2022-01-13T06:27:11Z</time>
      </trkpt>
      <trkpt lat="45.68587" lon="6.26005">
        <ele>1994.8</ele>
        <time>2022-01-13T06:27:12Z</time>
      </trkpt>
      <trkpt lat="45.68586" lon="6.26004">
        <ele>1994.8</ele>
        <time>2022-01-13T06:27:13Z</time>
      </trkpt>
      <trkpt lat="45.68584" lon="6.26004">
        <ele>1994.8</ele>
        <time>2022-01-13T06:27:14Z</time>
      </trkpt>
      <trkpt lat="45.68583" lon="6.26004">
        <ele>1994.8</ele>
        <time>2022-01-13T06:27:15Z</time>
      </trkpt>
      <trkpt lat="45.68582" lon="6.26003">
        <ele>1994.8</ele>
        <time>2022-01-13T06:27:16Z</time>
      </trkpt>
      <trkpt lat="45.6858" lon="6.26003">
        <ele>1994.8</ele>
        <time>2022-01-13T06:27:17Z</time>
      </trkpt>
      <trkpt lat="45.68579" lon="6.26003">
        <ele>1994.8</ele>
        <time>2022-01-13T06:27:18Z</time>
      </trkpt>
      <trkpt lat="45.68579" lon="6.26002">
        <ele>1995.9</ele>
        <time>2022-01-13T06:27:19Z</time>
      </trkpt>
      <trkpt lat="45.68578" lon="6.26002">
        <ele>1995.9</ele>
        <time>2022-01-13T06:27:20Z</time>
      </trkpt>
      <trkpt lat="45.68578" lon="6.26001">
        <ele>1995.9</ele>
        <time>2022-01-13T06:27:21Z</time>
      </trkpt>
      <trkpt lat="45.68577" lon="6.26001">
        <ele>1995.9</ele>
        <time>2022-01-13T06:27:22Z</time>
      </trkpt>
      <trkpt lat="45.68577" lon="6.26001">
        <ele>1995.9</ele>
        <time>2022-01-13T06:27:23Z</time>
      </trkpt>
      <trkpt lat="45.68577" lon="6.26">
        <ele>1995.9</ele>
        <time>2022-01-13T06:27:24Z</time>
      </trkpt>
      <trkpt lat="45.68576" lon="6.25999">
        <ele>1995.9</ele>
        <time>2022-01-13T06:27:25Z</time>
      </trkpt>
      <trkpt lat="45.68575" lon="6.25999">
        <ele>1995.9</ele>
        <time>2022-01-13T06:27:26Z</time>
      </trkpt>
      <trkpt lat="45.68575" lon="6.25998">
        <ele>1995.9</ele>
        <time>2022-01-13T06:27:27Z</time>
      </trkpt>
      <trkpt lat="45.68575" lon="6.25997">
        <ele>1995.9</ele>
        <time>2022-01-13T06:27:28Z</time>
      </trkpt>
      <trkpt lat="45.68574" lon="6.25996">
        <ele>1997.8</ele>
        <time>2022-01-13T06:27:29Z</time>
      </trkpt>
      <trkpt lat="45.68574" lon="6.25996">
        <ele>1997.8</ele>
        <time>2022-01-13T06:27:30Z</time>
      </trkpt>
      <trkpt lat="45.68573" lon="6.25995">
        <ele>1997.8</ele>
        <time>2022-01-13T06:27:31Z</time>
      </trkpt>
      <trkpt lat="45.68573" lon="6.25994">
        <ele>1997.8</ele>
        <time>2022-01-13T06:27:32Z</time>
      </trkpt>
      <trkpt lat="45.68572" lon="6.25993">
        <ele>1997.8</ele>
        <time>2022-01-13T06:27:33Z</time>
      </trkpt>
      <trkpt lat="45.68572" lon="6.25993">
        <ele>1997.8</ele>
        <time>2022-01-13T06:27:34Z</time>
      </trkpt>
      <trkpt lat="45.68572" lon="6.25992">
        <ele>1998.8</ele>
        <time>2022-01-13T06:27:35Z</time>
      </trkpt>
      <trkpt lat="45.68571" lon="6.25991">
        <ele>1998.8</ele>
        <time>2022-01-13T06:27:36Z</time>
      </trkpt>
      <trkpt lat="45.68571" lon="6.2599">
        <ele>1998.8</ele>
        <time>2022-01-13T06:27:37Z</time>
      </trkpt>
      <trkpt lat="45.6857" lon="6.25989">
        <ele>1998.8</ele>
        <time>2022-01-13T06:27:38Z</time>
      </trkpt>
      <trkpt lat="45.6857" lon="6.25989">
        <ele>1997.8</ele>
        <time>2022-01-13T06:27:39Z</time>
      </trkpt>
      <trkpt lat="45.68569" lon="6.25988">
        <ele>1997.8</ele>
        <time>2022-01-13T06:27:40Z</time>
      </trkpt>
      <trkpt lat="45.68569" lon="6.25987">
        <ele>1997.8</ele>
        <time>2022-01-13T06:27:41Z</time>
      </trkpt>
      <trkpt lat="45.68568" lon="6.25986">
        <ele>1997.8</ele>
        <time>2022-01-13T06:27:42Z</time>
      </trkpt>
      <trkpt lat="45.68568" lon="6.25986">
        <ele>1998.8</ele>
        <time>2022-01-13T06:27:43Z</time>
      </trkpt>
      <trkpt lat="45.68567" lon="6.25985">
        <ele>1998.8</ele>
        <time>2022-01-13T06:27:44Z</time>
      </trkpt>
      <trkpt lat="45.68567" lon="6.25984">
        <ele>1998.8</ele>
        <time>2022-01-13T06:27:45Z</time>
      </trkpt>
      <trkpt lat="45.68566" lon="6.25983">
        <ele>1998.8</ele>
        <time>2022-01-13T06:27:46Z</time>
      </trkpt>
      <trkpt lat="45.68566" lon="6.25982">
        <ele>1998.8</ele>
        <time>2022-01-13T06:27:47Z</time>
      </trkpt>
      <trkpt lat="45.68566" lon="6.25981">
        <ele>1998.8</ele>
        <time>2022-01-13T06:27:48Z</time>
      </trkpt>
      <trkpt lat="45.68566" lon="6.25981">
        <ele>2000.7</ele>
        <time>2022-01-13T06:27:49Z</time>
      </trkpt>
      <trkpt lat="45.68565" lon="6.2598">
        <ele>2000.7</ele>
        <time>2022-01-13T06:27:50Z</time>
      </trkpt>
      <trkpt lat="45.68565" lon="6.25979">
        <ele>2000.7</ele>
        <time>2022-01-13T06:27:51Z</time>
      </trkpt>
      <trkpt lat="45.68565" lon="6.25978">
        <ele>2000.7</ele>
        <time>2022-01-13T06:27:52Z</time>
      </trkpt>
      <trkpt lat="45.68564" lon="6.25977">
        <ele>2000.7</ele>
        <time>2022-01-13T06:27:53Z</time>
      </trkpt>
      <trkpt lat="45.68564" lon="6.25977">
        <ele>2000.7</ele>
        <time>2022-01-13T06:27:54Z</time>
      </trkpt>
      <trkpt lat="45.68564" lon="6.25976">
        <ele>2000.7</ele>
        <time>2022-01-13T06:27:55Z</time>
      </trkpt>
      <trkpt lat="45.68563" lon="6.25975">
        <ele>2000.7</ele>
        <time>2022-01-13T06:27:56Z</time>
      </trkpt>
      <trkpt lat="45.68562" lon="6.25975">
        <ele>2000.7</ele>
        <time>2022-01-13T06:27:57Z</time>
      </trkpt>
      <trkpt lat="45.68562" lon="6.25975">
        <ele>2000.7</ele>
        <time>2022-01-13T06:27:58Z</time>
      </trkpt>
      <trkpt lat="45.68561" lon="6.25974">
        <ele>2000.7</ele>
        <time>2022-01-13T06:27:59Z</time>
      </trkpt>
      <trkpt lat="45.68561" lon="6.25974">
        <ele>2000.7</ele>
        <time>2022-01-13T06:28:00Z</time>
      </trkpt>
      <trkpt lat="45.6856" lon="6.25974">
        <ele>2000.7</ele>
        <time>2022-01-13T06:28:01Z</time>
      </trkpt>
      <trkpt lat="45.68559" lon="6.25974">
        <ele>2000.7</ele>
        <time>2022-01-13T06:28:02Z</time>
      </trkpt>
      <trkpt lat="45.68559" lon="6.25974">
        <ele>2000.7</ele>
        <time>2022-01-13T06:28:03Z</time>
      </trkpt>
      <trkpt lat="45.68558" lon="6.25973">
        <ele>2000.7</ele>
        <time>2022-01-13T06:28:04Z</time>
      </trkpt>
      <trkpt lat="45.68558" lon="6.25973">
        <ele>2001.8</ele>
        <time>2022-01-13T06:28:05Z</time>
      </trkpt>
      <trkpt lat="45.68558" lon="6.25973">
        <ele>2001.8</ele>
        <time>2022-01-13T06:28:06Z</time>
      </trkpt>
      <trkpt lat="45.68558" lon="6.25973">
        <ele>2001.8</ele>
        <time>2022-01-13T06:28:07Z</time>
      </trkpt>
      <trkpt lat="45.68558" lon="6.25973">
        <ele>2001.8</ele>
        <time>2022-01-13T06:28:08Z</time>
      </trkpt>
      <trkpt lat="45.68558" lon="6.25972">
        <ele>2001.8</ele>
        <time>2022-01-13T06:28:09Z</time>
      </trkpt>
      <trkpt lat="45.68558" lon="6.25972">
        <ele>2001.8</ele>
        <time>2022-01-13T06:28:10Z</time>
      </trkpt>
      <trkpt lat="45.68558" lon="6.25971">
        <ele>2001.8</ele>
        <time>2022-01-13T06:28:11Z</time>
      </trkpt>
      <trkpt lat="45.68557" lon="6.25969">
        <ele>2001.8</ele>
        <time>2022-01-13T06:28:12Z</time>
      </trkpt>
      <trkpt lat="45.68557" lon="6.25968">
        <ele>2001.8</ele>
        <time>2022-01-13T06:28:13Z</time>
      </trkpt>
      <trkpt lat="45.68556" lon="6.25967">
        <ele>2001.8</ele>
        <time>2022-01-13T06:28:14Z</time>
      </trkpt>
      <trkpt lat="45.68556" lon="6.25966">
        <ele>2001.8</ele>
        <time>2022-01-13T06:28:15Z</time>
      </trkpt>
      <trkpt lat="45.68556" lon="6.25966">
        <ele>2001.8</ele>
        <time>2022-01-13T06:28:16Z</time>
      </trkpt>
      <trkpt lat="45.68555" lon="6.25965">
        <ele>2001.8</ele>
        <time>2022-01-13T06:28:17Z</time>
      </trkpt>
      <trkpt lat="45.68555" lon="6.25964">
        <ele>2001.8</ele>
        <time>2022-01-13T06:28:18Z</time>
      </trkpt>
      <trkpt lat="45.68554" lon="6.25963">
        <ele>2001.8</ele>
        <time>2022-01-13T06:28:19Z</time>
      </trkpt>
      <trkpt lat="45.68553" lon="6.25962">
        <ele>2001.8</ele>
        <time>2022-01-13T06:28:20Z</time>
      </trkpt>
      <trkpt lat="45.68553" lon="6.25961">
        <ele>2001.8</ele>
        <time>2022-01-13T06:28:21Z</time>
      </trkpt>
      <trkpt lat="45.68552" lon="6.2596">
        <ele>2001.8</ele>
        <time>2022-01-13T06:28:22Z</time>
      </trkpt>
      <trkpt lat="45.68552" lon="6.25959">
        <ele>2000.7</ele>
        <time>2022-01-13T06:28:23Z</time>
      </trkpt>
      <trkpt lat="45.68551" lon="6.25958">
        <ele>2000.7</ele>
        <time>2022-01-13T06:28:24Z</time>
      </trkpt>
      <trkpt lat="45.68551" lon="6.25957">
        <ele>2000.7</ele>
        <time>2022-01-13T06:28:25Z</time>
      </trkpt>
      <trkpt lat="45.6855" lon="6.25956">
        <ele>2000.7</ele>
        <time>2022-01-13T06:28:26Z</time>
      </trkpt>
      <trkpt lat="45.68549" lon="6.25954">
        <ele>2001.8</ele>
        <time>2022-01-13T06:28:27Z</time>
      </trkpt>
      <trkpt lat="45.68549" lon="6.25954">
        <ele>2001.8</ele>
        <time>2022-01-13T06:28:28Z</time>
      </trkpt>
      <trkpt lat="45.68548" lon="6.25953">
        <ele>2001.8</ele>
        <time>2022-01-13T06:28:29Z</time>
      </trkpt>
      <trkpt lat="45.68548" lon="6.25952">
        <ele>2001.8</ele>
        <time>2022-01-13T06:28:30Z</time>
      </trkpt>
      <trkpt lat="45.68547" lon="6.25951">
        <ele>2002.7</ele>
        <time>2022-01-13T06:28:31Z</time>
      </trkpt>
      <trkpt lat="45.68546" lon="6.2595">
        <ele>2002.7</ele>
        <time>2022-01-13T06:28:32Z</time>
      </trkpt>
      <trkpt lat="45.68546" lon="6.25949">
        <ele>2002.7</ele>
        <time>2022-01-13T06:28:33Z</time>
      </trkpt>
      <trkpt lat="45.68545" lon="6.25949">
        <ele>2002.7</ele>
        <time>2022-01-13T06:28:34Z</time>
      </trkpt>
      <trkpt lat="45.68545" lon="6.25948">
        <ele>2002.7</ele>
        <time>2022-01-13T06:28:35Z</time>
      </trkpt>
      <trkpt lat="45.68544" lon="6.25947">
        <ele>2002.7</ele>
        <time>2022-01-13T06:28:36Z</time>
      </trkpt>
      <trkpt lat="45.68544" lon="6.25946">
        <ele>2003.8</ele>
        <time>2022-01-13T06:28:37Z</time>
      </trkpt>
      <trkpt lat="45.68543" lon="6.25945">
        <ele>2003.8</ele>
        <time>2022-01-13T06:28:38Z</time>
      </trkpt>
      <trkpt lat="45.68542" lon="6.25944">
        <ele>2003.8</ele>
        <time>2022-01-13T06:28:39Z</time>
      </trkpt>
      <trkpt lat="45.68542" lon="6.25944">
        <ele>2003.8</ele>
        <time>2022-01-13T06:28:40Z</time>
      </trkpt>
      <trkpt lat="45.68541" lon="6.25943">
        <ele>2003.8</ele>
        <time>2022-01-13T06:28:41Z</time>
      </trkpt>
      <trkpt lat="45.68541" lon="6.25942">
        <ele>2003.8</ele>
        <time>2022-01-13T06:28:42Z</time>
      </trkpt>
      <trkpt lat="45.6854" lon="6.25942">
        <ele>2003.8</ele>
        <time>2022-01-13T06:28:43Z</time>
      </trkpt>
      <trkpt lat="45.68539" lon="6.25941">
        <ele>2003.8</ele>
        <time>2022-01-13T06:28:44Z</time>
      </trkpt>
      <trkpt lat="45.68539" lon="6.2594">
        <ele>2004.8</ele>
        <time>2022-01-13T06:28:45Z</time>
      </trkpt>
      <trkpt lat="45.68538" lon="6.2594">
        <ele>2004.8</ele>
        <time>2022-01-13T06:28:46Z</time>
      </trkpt>
      <trkpt lat="45.68538" lon="6.25939">
        <ele>2004.8</ele>
        <time>2022-01-13T06:28:47Z</time>
      </trkpt>
      <trkpt lat="45.68537" lon="6.25938">
        <ele>2004.8</ele>
        <time>2022-01-13T06:28:48Z</time>
      </trkpt>
      <trkpt lat="45.68537" lon="6.25938">
        <ele>2004.8</ele>
        <time>2022-01-13T06:28:49Z</time>
      </trkpt>
      <trkpt lat="45.68536" lon="6.25937">
        <ele>2004.8</ele>
        <time>2022-01-13T06:28:50Z</time>
      </trkpt>
      <trkpt lat="45.68536" lon="6.25936">
        <ele>2005.8</ele>
        <time>2022-01-13T06:28:51Z</time>
      </trkpt>
      <trkpt lat="45.68535" lon="6.25936">
        <ele>2005.8</ele>
        <time>2022-01-13T06:28:52Z</time>
      </trkpt>
      <trkpt lat="45.68535" lon="6.25935">
        <ele>2005.8</ele>
        <time>2022-01-13T06:28:53Z</time>
      </trkpt>
      <trkpt lat="45.68534" lon="6.25935">
        <ele>2005.8</ele>
        <time>2022-01-13T06:28:54Z</time>
      </trkpt>
      <trkpt lat="45.68534" lon="6.25934">
        <ele>2005.8</ele>
        <time>2022-01-13T06:28:55Z</time>
      </trkpt>
      <trkpt lat="45.68533" lon="6.25934">
        <ele>2005.8</ele>
        <time>2022-01-13T06:28:56Z</time>
      </trkpt>
      <trkpt lat="45.68533" lon="6.25934">
        <ele>2005.8</ele>
        <time>2022-01-13T06:28:57Z</time>
      </trkpt>
      <trkpt lat="45.68532" lon="6.25933">
        <ele>2005.8</ele>
        <time>2022-01-13T06:28:58Z</time>
      </trkpt>
      <trkpt lat="45.68532" lon="6.25933">
        <ele>2005.8</ele>
        <time>2022-01-13T06:28:59Z</time>
      </trkpt>
      <trkpt lat="45.68532" lon="6.25932">
        <ele>2005.8</ele>
        <time>2022-01-13T06:29:00Z</time>
      </trkpt>
      <trkpt lat="45.68531" lon="6.25932">
        <ele>2005.8</ele>
        <time>2022-01-13T06:29:01Z</time>
      </trkpt>
      <trkpt lat="45.68531" lon="6.25931">
        <ele>2005.8</ele>
        <time>2022-01-13T06:29:02Z</time>
      </trkpt>
      <trkpt lat="45.68531" lon="6.25931">
        <ele>2007.7</ele>
        <time>2022-01-13T06:29:03Z</time>
      </trkpt>
      <trkpt lat="45.68531" lon="6.25931">
        <ele>2007.7</ele>
        <time>2022-01-13T06:29:04Z</time>
      </trkpt>
      <trkpt lat="45.6853" lon="6.2593">
        <ele>2007.7</ele>
        <time>2022-01-13T06:29:05Z</time>
      </trkpt>
      <trkpt lat="45.6853" lon="6.2593">
        <ele>2007.7</ele>
        <time>2022-01-13T06:29:06Z</time>
      </trkpt>
      <trkpt lat="45.6853" lon="6.2593">
        <ele>2008.8</ele>
        <time>2022-01-13T06:29:07Z</time>
      </trkpt>
      <trkpt lat="45.68529" lon="6.25929">
        <ele>2008.8</ele>
        <time>2022-01-13T06:29:08Z</time>
      </trkpt>
      <trkpt lat="45.68529" lon="6.25929">
        <ele>2008.8</ele>
        <time>2022-01-13T06:29:09Z</time>
      </trkpt>
      <trkpt lat="45.68529" lon="6.25929">
        <ele>2008.8</ele>
        <time>2022-01-13T06:29:10Z</time>
      </trkpt>
      <trkpt lat="45.68528" lon="6.25928">
        <ele>2009.7</ele>
        <time>2022-01-13T06:29:11Z</time>
      </trkpt>
      <trkpt lat="45.68528" lon="6.25928">
        <ele>2009.7</ele>
        <time>2022-01-13T06:29:12Z</time>
      </trkpt>
      <trkpt lat="45.68528" lon="6.25927">
        <ele>2009.7</ele>
        <time>2022-01-13T06:29:13Z</time>
      </trkpt>
      <trkpt lat="45.68527" lon="6.25927">
        <ele>2009.7</ele>
        <time>2022-01-13T06:29:14Z</time>
      </trkpt>
      <trkpt lat="45.68527" lon="6.25926">
        <ele>2010.8</ele>
        <time>2022-01-13T06:29:15Z</time>
      </trkpt>
      <trkpt lat="45.68527" lon="6.25926">
        <ele>2010.8</ele>
        <time>2022-01-13T06:29:16Z</time>
      </trkpt>
      <trkpt lat="45.68526" lon="6.25926">
        <ele>2010.8</ele>
        <time>2022-01-13T06:29:17Z</time>
      </trkpt>
      <trkpt lat="45.68526" lon="6.25926">
        <ele>2010.8</ele>
        <time>2022-01-13T06:29:18Z</time>
      </trkpt>
      <trkpt lat="45.68526" lon="6.25926">
        <ele>2011.9</ele>
        <time>2022-01-13T06:29:19Z</time>
      </trkpt>
      <trkpt lat="45.68525" lon="6.25925">
        <ele>2011.9</ele>
        <time>2022-01-13T06:29:20Z</time>
      </trkpt>
      <trkpt lat="45.68525" lon="6.25925">
        <ele>2011.9</ele>
        <time>2022-01-13T06:29:21Z</time>
      </trkpt>
      <trkpt lat="45.68525" lon="6.25925">
        <ele>2011.9</ele>
        <time>2022-01-13T06:29:22Z</time>
      </trkpt>
      <trkpt lat="45.68525" lon="6.25925">
        <ele>2012.8</ele>
        <time>2022-01-13T06:29:23Z</time>
      </trkpt>
      <trkpt lat="45.68524" lon="6.25925">
        <ele>2012.8</ele>
        <time>2022-01-13T06:29:24Z</time>
      </trkpt>
      <trkpt lat="45.68524" lon="6.25925">
        <ele>2012.8</ele>
        <time>2022-01-13T06:29:25Z</time>
      </trkpt>
      <trkpt lat="45.68523" lon="6.25925">
        <ele>2012.8</ele>
        <time>2022-01-13T06:29:26Z</time>
      </trkpt>
      <trkpt lat="45.68523" lon="6.25924">
        <ele>2013.8</ele>
        <time>2022-01-13T06:29:27Z</time>
      </trkpt>
      <trkpt lat="45.68522" lon="6.25924">
        <ele>2013.8</ele>
        <time>2022-01-13T06:29:28Z</time>
      </trkpt>
      <trkpt lat="45.68522" lon="6.25924">
        <ele>2014.8</ele>
        <time>2022-01-13T06:29:29Z</time>
      </trkpt>
      <trkpt lat="45.68522" lon="6.25923">
        <ele>2014.8</ele>
        <time>2022-01-13T06:29:30Z</time>
      </trkpt>
      <trkpt lat="45.68521" lon="6.25923">
        <ele>2013.8</ele>
        <time>2022-01-13T06:29:31Z</time>
      </trkpt>
      <trkpt lat="45.68521" lon="6.25922">
        <ele>2013.8</ele>
        <time>2022-01-13T06:29:32Z</time>
      </trkpt>
      <trkpt lat="45.6852" lon="6.25922">
        <ele>2014.8</ele>
        <time>2022-01-13T06:29:33Z</time>
      </trkpt>
      <trkpt lat="45.6852" lon="6.25921">
        <ele>2014.8</ele>
        <time>2022-01-13T06:29:34Z</time>
      </trkpt>
      <trkpt lat="45.68519" lon="6.2592">
        <ele>2014.8</ele>
        <time>2022-01-13T06:29:35Z</time>
      </trkpt>
      <trkpt lat="45.68519" lon="6.25919">
        <ele>2014.8</ele>
        <time>2022-01-13T06:29:36Z</time>
      </trkpt>
      <trkpt lat="45.68518" lon="6.25918">
        <ele>2014.8</ele>
        <time>2022-01-13T06:29:37Z</time>
      </trkpt>
      <trkpt lat="45.68518" lon="6.25917">
        <ele>2014.8</ele>
        <time>2022-01-13T06:29:38Z</time>
      </trkpt>
      <trkpt lat="45.68517" lon="6.25917">
        <ele>2013.8</ele>
        <time>2022-01-13T06:29:39Z</time>
      </trkpt>
      <trkpt lat="45.68517" lon="6.25916">
        <ele>2013.8</ele>
        <time>2022-01-13T06:29:40Z</time>
      </trkpt>
      <trkpt lat="45.68517" lon="6.25915">
        <ele>2014.8</ele>
        <time>2022-01-13T06:29:41Z</time>
      </trkpt>
      <trkpt lat="45.68516" lon="6.25915">
        <ele>2014.8</ele>
        <time>2022-01-13T06:29:42Z</time>
      </trkpt>
      <trkpt lat="45.68516" lon="6.25914">
        <ele>2014.8</ele>
        <time>2022-01-13T06:29:43Z</time>
      </trkpt>
      <trkpt lat="45.68516" lon="6.25913">
        <ele>2014.8</ele>
        <time>2022-01-13T06:29:44Z</time>
      </trkpt>
      <trkpt lat="45.68515" lon="6.25913">
        <ele>2014.8</ele>
        <time>2022-01-13T06:29:45Z</time>
      </trkpt>
      <trkpt lat="45.68515" lon="6.25912">
        <ele>2014.8</ele>
        <time>2022-01-13T06:29:46Z</time>
      </trkpt>
      <trkpt lat="45.68515" lon="6.25912">
        <ele>2015.8</ele>
        <time>2022-01-13T06:29:47Z</time>
      </trkpt>
      <trkpt lat="45.68514" lon="6.25912">
        <ele>2015.8</ele>
        <time>2022-01-13T06:29:48Z</time>
      </trkpt>
      <trkpt lat="45.68514" lon="6.25911">
        <ele>2015.8</ele>
        <time>2022-01-13T06:29:49Z</time>
      </trkpt>
      <trkpt lat="45.68514" lon="6.25911">
        <ele>2015.8</ele>
        <time>2022-01-13T06:29:50Z</time>
      </trkpt>
      <trkpt lat="45.68513" lon="6.2591">
        <ele>2016.7</ele>
        <time>2022-01-13T06:29:51Z</time>
      </trkpt>
      <trkpt lat="45.68513" lon="6.2591">
        <ele>2016.7</ele>
        <time>2022-01-13T06:29:52Z</time>
      </trkpt>
      <trkpt lat="45.68512" lon="6.2591">
        <ele>2016.7</ele>
        <time>2022-01-13T06:29:53Z</time>
      </trkpt>
      <trkpt lat="45.68512" lon="6.25909">
        <ele>2016.7</ele>
        <time>2022-01-13T06:29:54Z</time>
      </trkpt>
      <trkpt lat="45.68512" lon="6.25909">
        <ele>2016.7</ele>
        <time>2022-01-13T06:29:55Z</time>
      </trkpt>
      <trkpt lat="45.68511" lon="6.25909">
        <ele>2016.7</ele>
        <time>2022-01-13T06:29:56Z</time>
      </trkpt>
      <trkpt lat="45.68511" lon="6.25909">
        <ele>2016.7</ele>
        <time>2022-01-13T06:29:57Z</time>
      </trkpt>
      <trkpt lat="45.6851" lon="6.25908">
        <ele>2016.7</ele>
        <time>2022-01-13T06:29:58Z</time>
      </trkpt>
      <trkpt lat="45.6851" lon="6.25909">
        <ele>2016.7</ele>
        <time>2022-01-13T06:29:59Z</time>
      </trkpt>
      <trkpt lat="45.68509" lon="6.25909">
        <ele>2016.7</ele>
        <time>2022-01-13T06:30:00Z</time>
      </trkpt>
      <trkpt lat="45.68509" lon="6.25909">
        <ele>2016.7</ele>
        <time>2022-01-13T06:30:01Z</time>
      </trkpt>
      <trkpt lat="45.68508" lon="6.25909">
        <ele>2016.7</ele>
        <time>2022-01-13T06:30:02Z</time>
      </trkpt>
      <trkpt lat="45.68508" lon="6.25909">
        <ele>2015.8</ele>
        <time>2022-01-13T06:30:03Z</time>
      </trkpt>
      <trkpt lat="45.68508" lon="6.25908">
        <ele>2015.8</ele>
        <time>2022-01-13T06:30:04Z</time>
      </trkpt>
      <trkpt lat="45.68508" lon="6.25908">
        <ele>2015.8</ele>
        <time>2022-01-13T06:30:05Z</time>
      </trkpt>
      <trkpt lat="45.68508" lon="6.25908">
        <ele>2015.8</ele>
        <time>2022-01-13T06:30:06Z</time>
      </trkpt>
      <trkpt lat="45.68507" lon="6.25908">
        <ele>2015.8</ele>
        <time>2022-01-13T06:30:07Z</time>
      </trkpt>
      <trkpt lat="45.68507" lon="6.25908">
        <ele>2015.8</ele>
        <time>2022-01-13T06:30:08Z</time>
      </trkpt>
      <trkpt lat="45.68507" lon="6.25908">
        <ele>2015.8</ele>
        <time>2022-01-13T06:30:09Z</time>
      </trkpt>
      <trkpt lat="45.68507" lon="6.25908">
        <ele>2015.8</ele>
        <time>2022-01-13T06:30:10Z</time>
      </trkpt>
      <trkpt lat="45.68506" lon="6.25908">
        <ele>2014.8</ele>
        <time>2022-01-13T06:30:11Z</time>
      </trkpt>
      <trkpt lat="45.68506" lon="6.25907">
        <ele>2014.8</ele>
        <time>2022-01-13T06:30:12Z</time>
      </trkpt>
      <trkpt lat="45.68506" lon="6.25907">
        <ele>2014.8</ele>
        <time>2022-01-13T06:30:13Z</time>
      </trkpt>
      <trkpt lat="45.68505" lon="6.25907">
        <ele>2014.8</ele>
        <time>2022-01-13T06:30:14Z</time>
      </trkpt>
      <trkpt lat="45.68505" lon="6.25907">
        <ele>2014.8</ele>
        <time>2022-01-13T06:30:15Z</time>
      </trkpt>
      <trkpt lat="45.68504" lon="6.25907">
        <ele>2014.8</ele>
        <time>2022-01-13T06:30:16Z</time>
      </trkpt>
      <trkpt lat="45.68504" lon="6.25907">
        <ele>2014.8</ele>
        <time>2022-01-13T06:30:17Z</time>
      </trkpt>
      <trkpt lat="45.68504" lon="6.25906">
        <ele>2014.8</ele>
        <time>2022-01-13T06:30:18Z</time>
      </trkpt>
      <trkpt lat="45.68503" lon="6.25906">
        <ele>2015.8</ele>
        <time>2022-01-13T06:30:19Z</time>
      </trkpt>
      <trkpt lat="45.68503" lon="6.25906">
        <ele>2015.8</ele>
        <time>2022-01-13T06:30:20Z</time>
      </trkpt>
      <trkpt lat="45.68502" lon="6.25906">
        <ele>2015.8</ele>
        <time>2022-01-13T06:30:21Z</time>
      </trkpt>
      <trkpt lat="45.68501" lon="6.25906">
        <ele>2015.8</ele>
        <time>2022-01-13T06:30:22Z</time>
      </trkpt>
      <trkpt lat="45.68501" lon="6.25906">
        <ele>2015.8</ele>
        <time>2022-01-13T06:30:23Z</time>
      </trkpt>
      <trkpt lat="45.685" lon="6.25906">
        <ele>2015.8</ele>
        <time>2022-01-13T06:30:24Z</time>
      </trkpt>
      <trkpt lat="45.68499" lon="6.25905">
        <ele>2015.8</ele>
        <time>2022-01-13T06:30:25Z</time>
      </trkpt>
      <trkpt lat="45.68499" lon="6.25905">
        <ele>2015.8</ele>
        <time>2022-01-13T06:30:26Z</time>
      </trkpt>
      <trkpt lat="45.68499" lon="6.25904">
        <ele>2015.8</ele>
        <time>2022-01-13T06:30:27Z</time>
      </trkpt>
      <trkpt lat="45.68498" lon="6.25904">
        <ele>2015.8</ele>
        <time>2022-01-13T06:30:28Z</time>
      </trkpt>
      <trkpt lat="45.68498" lon="6.25904">
        <ele>2015.8</ele>
        <time>2022-01-13T06:30:29Z</time>
      </trkpt>
      <trkpt lat="45.68497" lon="6.25904">
        <ele>2015.8</ele>
        <time>2022-01-13T06:30:30Z</time>
      </trkpt>
      <trkpt lat="45.68497" lon="6.25904">
        <ele>2015.8</ele>
        <time>2022-01-13T06:30:31Z</time>
      </trkpt>
      <trkpt lat="45.68497" lon="6.25903">
        <ele>2015.8</ele>
        <time>2022-01-13T06:30:32Z</time>
      </trkpt>
      <trkpt lat="45.68497" lon="6.25903">
        <ele>2015.8</ele>
        <time>2022-01-13T06:30:33Z</time>
      </trkpt>
      <trkpt lat="45.68497" lon="6.25903">
        <ele>2015.8</ele>
        <time>2022-01-13T06:30:34Z</time>
      </trkpt>
      <trkpt lat="45.68497" lon="6.25903">
        <ele>2015.8</ele>
        <time>2022-01-13T06:30:35Z</time>
      </trkpt>
      <trkpt lat="45.68497" lon="6.25903">
        <ele>2015.8</ele>
        <time>2022-01-13T06:30:36Z</time>
      </trkpt>
      <trkpt lat="45.68497" lon="6.25903">
        <ele>2015.8</ele>
        <time>2022-01-13T06:30:37Z</time>
      </trkpt>
      <trkpt lat="45.68497" lon="6.25903">
        <ele>2015.8</ele>
        <time>2022-01-13T06:30:38Z</time>
      </trkpt>
      <trkpt lat="45.68497" lon="6.25903">
        <ele>2015.8</ele>
        <time>2022-01-13T06:30:39Z</time>
      </trkpt>
      <trkpt lat="45.68497" lon="6.25903">
        <ele>2015.8</ele>
        <time>2022-01-13T06:30:40Z</time>
      </trkpt>
      <trkpt lat="45.68497" lon="6.25903">
        <ele>2015.8</ele>
        <time>2022-01-13T06:30:41Z</time>
      </trkpt>
      <trkpt lat="45.68497" lon="6.25903">
        <ele>2015.8</ele>
        <time>2022-01-13T06:30:42Z</time>
      </trkpt>
      <trkpt lat="45.68497" lon="6.25903">
        <ele>2015.8</ele>
        <time>2022-01-13T06:30:43Z</time>
      </trkpt>
      <trkpt lat="45.68497" lon="6.25903">
        <ele>2015.8</ele>
        <time>2022-01-13T06:30:44Z</time>
      </trkpt>
      <trkpt lat="45.68497" lon="6.25903">
        <ele>2015.8</ele>
        <time>2022-01-13T06:30:45Z</time>
      </trkpt>
      <trkpt lat="45.68497" lon="6.25903">
        <ele>2015.8</ele>
        <time>2022-01-13T06:30:46Z</time>
      </trkpt>
      <trkpt lat="45.68497" lon="6.25903">
        <ele>2015.8</ele>
        <time>2022-01-13T06:30:47Z</time>
      </trkpt>
      <trkpt lat="45.68497" lon="6.25903">
        <ele>2015.8</ele>
        <time>2022-01-13T06:30:48Z</time>
      </trkpt>
      <trkpt lat="45.68497" lon="6.25903">
        <ele>2015.8</ele>
        <time>2022-01-13T06:30:49Z</time>
      </trkpt>
      <trkpt lat="45.68497" lon="6.25903">
        <ele>2015.8</ele>
        <time>2022-01-13T06:30:50Z</time>
      </trkpt>
      <trkpt lat="45.68497" lon="6.25903">
        <ele>2015.8</ele>
        <time>2022-01-13T06:30:51Z</time>
      </trkpt>
      <trkpt lat="45.68497" lon="6.25903">
        <ele>2015.8</ele>
        <time>2022-01-13T06:30:52Z</time>
      </trkpt>
      <trkpt lat="45.68497" lon="6.25903">
        <ele>2015.8</ele>
        <time>2022-01-13T06:30:53Z</time>
      </trkpt>
      <trkpt lat="45.68497" lon="6.25903">
        <ele>2015.8</ele>
        <time>2022-01-13T06:30:54Z</time>
      </trkpt>
      <trkpt lat="45.68497" lon="6.25903">
        <ele>2015.8</ele>
        <time>2022-01-13T06:30:55Z</time>
      </trkpt>
      <trkpt lat="45.68497" lon="6.25903">
        <ele>2015.8</ele>
        <time>2022-01-13T06:30:56Z</time>
      </trkpt>
      <trkpt lat="45.68497" lon="6.25903">
        <ele>2015.8</ele>
        <time>2022-01-13T06:30:57Z</time>
      </trkpt>
      <trkpt lat="45.68497" lon="6.25903">
        <ele>2015.8</ele>
        <time>2022-01-13T06:30:58Z</time>
      </trkpt>
      <trkpt lat="45.68497" lon="6.25903">
        <ele>2015.8</ele>
        <time>2022-01-13T06:30:59Z</time>
      </trkpt>
      <trkpt lat="45.68497" lon="6.25903">
        <ele>2015.8</ele>
        <time>2022-01-13T06:31:00Z</time>
      </trkpt>
      <trkpt lat="45.68497" lon="6.25903">
        <ele>2015.8</ele>
        <time>2022-01-13T06:31:01Z</time>
      </trkpt>
      <trkpt lat="45.68497" lon="6.25903">
        <ele>2015.8</ele>
        <time>2022-01-13T06:31:02Z</time>
      </trkpt>
      <trkpt lat="45.68497" lon="6.25903">
        <ele>2015.8</ele>
        <time>2022-01-13T06:31:03Z</time>
      </trkpt>
      <trkpt lat="45.68497" lon="6.25903">
        <ele>2015.8</ele>
        <time>2022-01-13T06:31:04Z</time>
      </trkpt>
      <trkpt lat="45.68497" lon="6.25903">
        <ele>2015.8</ele>
        <time>2022-01-13T06:31:05Z</time>
      </trkpt>
      <trkpt lat="45.68497" lon="6.25903">
        <ele>2015.8</ele>
        <time>2022-01-13T06:31:06Z</time>
      </trkpt>
      <trkpt lat="45.68497" lon="6.25903">
        <ele>2015.8</ele>
        <time>2022-01-13T06:31:07Z</time>
      </trkpt>
      <trkpt lat="45.68497" lon="6.25903">
        <ele>2015.8</ele>
        <time>2022-01-13T06:31:08Z</time>
      </trkpt>
      <trkpt lat="45.68497" lon="6.25903">
        <ele>2015.8</ele>
        <time>2022-01-13T06:31:09Z</time>
      </trkpt>
      <trkpt lat="45.68497" lon="6.25903">
        <ele>2015.8</ele>
        <time>2022-01-13T06:31:10Z</time>
      </trkpt>
      <trkpt lat="45.68496" lon="6.25902">
        <ele>2015.8</ele>
        <time>2022-01-13T06:31:11Z</time>
      </trkpt>
      <trkpt lat="45.68496" lon="6.25902">
        <ele>2015.8</ele>
        <time>2022-01-13T06:31:12Z</time>
      </trkpt>
      <trkpt lat="45.68496" lon="6.25902">
        <ele>2015.8</ele>
        <time>2022-01-13T06:31:13Z</time>
      </trkpt>
      <trkpt lat="45.68495" lon="6.25902">
        <ele>2015.8</ele>
        <time>2022-01-13T06:31:14Z</time>
      </trkpt>
      <trkpt lat="45.68495" lon="6.25901">
        <ele>2014.8</ele>
        <time>2022-01-13T06:31:15Z</time>
      </trkpt>
      <trkpt lat="45.68495" lon="6.25901">
        <ele>2014.8</ele>
        <time>2022-01-13T06:31:16Z</time>
      </trkpt>
      <trkpt lat="45.68494" lon="6.25901">
        <ele>2014.8</ele>
        <time>2022-01-13T06:31:17Z</time>
      </trkpt>
      <trkpt lat="45.68494" lon="6.25901">
        <ele>2014.8</ele>
        <time>2022-01-13T06:31:18Z</time>
      </trkpt>
      <trkpt lat="45.68494" lon="6.25901">
        <ele>2014.8</ele>
        <time>2022-01-13T06:31:19Z</time>
      </trkpt>
      <trkpt lat="45.68494" lon="6.25902">
        <ele>2014.8</ele>
        <time>2022-01-13T06:31:20Z</time>
      </trkpt>
      <trkpt lat="45.68492" lon="6.25901">
        <ele>2014.8</ele>
        <time>2022-01-13T06:31:21Z</time>
      </trkpt>
      <trkpt lat="45.68491" lon="6.25901">
        <ele>2014.8</ele>
        <time>2022-01-13T06:31:22Z</time>
      </trkpt>
      <trkpt lat="45.68489" lon="6.25901">
        <ele>2014.8</ele>
        <time>2022-01-13T06:31:23Z</time>
      </trkpt>
      <trkpt lat="45.68487" lon="6.259">
        <ele>2014.8</ele>
        <time>2022-01-13T06:31:24Z</time>
      </trkpt>
      <trkpt lat="45.68485" lon="6.259">
        <ele>2014.8</ele>
        <time>2022-01-13T06:31:25Z</time>
      </trkpt>
      <trkpt lat="45.68484" lon="6.25899">
        <ele>2013.8</ele>
        <time>2022-01-13T06:31:26Z</time>
      </trkpt>
      <trkpt lat="45.68482" lon="6.25898">
        <ele>2013.8</ele>
        <time>2022-01-13T06:31:27Z</time>
      </trkpt>
      <trkpt lat="45.68481" lon="6.25898">
        <ele>2013.8</ele>
        <time>2022-01-13T06:31:28Z</time>
      </trkpt>
      <trkpt lat="45.68479" lon="6.25897">
        <ele>2013.8</ele>
        <time>2022-01-13T06:31:29Z</time>
      </trkpt>
      <trkpt lat="45.68478" lon="6.25896">
        <ele>2013.8</ele>
        <time>2022-01-13T06:31:30Z</time>
      </trkpt>
      <trkpt lat="45.68477" lon="6.25896">
        <ele>2013.8</ele>
        <time>2022-01-13T06:31:31Z</time>
      </trkpt>
      <trkpt lat="45.68477" lon="6.25896">
        <ele>2013.8</ele>
        <time>2022-01-13T06:31:32Z</time>
      </trkpt>
      <trkpt lat="45.68477" lon="6.25896">
        <ele>2013.8</ele>
        <time>2022-01-13T06:31:33Z</time>
      </trkpt>
      <trkpt lat="45.68476" lon="6.25895">
        <ele>2013.8</ele>
        <time>2022-01-13T06:31:34Z</time>
      </trkpt>
      <trkpt lat="45.68476" lon="6.25895">
        <ele>2013.8</ele>
        <time>2022-01-13T06:31:35Z</time>
      </trkpt>
      <trkpt lat="45.68476" lon="6.25895">
        <ele>2014.8</ele>
        <time>2022-01-13T06:31:36Z</time>
      </trkpt>
      <trkpt lat="45.68476" lon="6.25895">
        <ele>2014.8</ele>
        <time>2022-01-13T06:31:37Z</time>
      </trkpt>
      <trkpt lat="45.68476" lon="6.25895">
        <ele>2014.8</ele>
        <time>2022-01-13T06:31:38Z</time>
      </trkpt>
      <trkpt lat="45.68476" lon="6.25895">
        <ele>2014.8</ele>
        <time>2022-01-13T06:31:39Z</time>
      </trkpt>
      <trkpt lat="45.68476" lon="6.25895">
        <ele>2014.8</ele>
        <time>2022-01-13T06:31:40Z</time>
      </trkpt>
      <trkpt lat="45.68476" lon="6.25895">
        <ele>2014.8</ele>
        <time>2022-01-13T06:31:41Z</time>
      </trkpt>
      <trkpt lat="45.68476" lon="6.25895">
        <ele>2014.8</ele>
        <time>2022-01-13T06:31:42Z</time>
      </trkpt>
      <trkpt lat="45.68476" lon="6.25895">
        <ele>2014.8</ele>
        <time>2022-01-13T06:31:43Z</time>
      </trkpt>
      <trkpt lat="45.68476" lon="6.25895">
        <ele>2014.8</ele>
        <time>2022-01-13T06:31:44Z</time>
      </trkpt>
      <trkpt lat="45.68476" lon="6.25895">
        <ele>2014.8</ele>
        <time>2022-01-13T06:31:45Z</time>
      </trkpt>
      <trkpt lat="45.68476" lon="6.25895">
        <ele>2014.8</ele>
        <time>2022-01-13T06:31:46Z</time>
      </trkpt>
      <trkpt lat="45.68476" lon="6.25895">
        <ele>2014.8</ele>
        <time>2022-01-13T06:31:47Z</time>
      </trkpt>
      <trkpt lat="45.68476" lon="6.25895">
        <ele>2014.8</ele>
        <time>2022-01-13T06:31:48Z</time>
      </trkpt>
      <trkpt lat="45.68476" lon="6.25895">
        <ele>2014.8</ele>
        <time>2022-01-13T06:31:49Z</time>
      </trkpt>
      <trkpt lat="45.68476" lon="6.25895">
        <ele>2014.8</ele>
        <time>2022-01-13T06:31:50Z</time>
      </trkpt>
      <trkpt lat="45.68476" lon="6.25895">
        <ele>2014.8</ele>
        <time>2022-01-13T06:31:51Z</time>
      </trkpt>
      <trkpt lat="45.68476" lon="6.25895">
        <ele>2015.8</ele>
        <time>2022-01-13T06:31:52Z</time>
      </trkpt>
      <trkpt lat="45.68476" lon="6.25895">
        <ele>2015.8</ele>
        <time>2022-01-13T06:31:53Z</time>
      </trkpt>
      <trkpt lat="45.68476" lon="6.25895">
        <ele>2015.8</ele>
        <time>2022-01-13T06:31:54Z</time>
      </trkpt>
      <trkpt lat="45.68476" lon="6.25895">
        <ele>2015.8</ele>
        <time>2022-01-13T06:31:55Z</time>
      </trkpt>
      <trkpt lat="45.68476" lon="6.25895">
        <ele>2015.8</ele>
        <time>2022-01-13T06:31:56Z</time>
      </trkpt>
      <trkpt lat="45.68476" lon="6.25895">
        <ele>2015.8</ele>
        <time>2022-01-13T06:31:57Z</time>
      </trkpt>
      <trkpt lat="45.68476" lon="6.25895">
        <ele>2015.8</ele>
        <time>2022-01-13T06:31:58Z</time>
      </trkpt>
      <trkpt lat="45.68476" lon="6.25895">
        <ele>2015.8</ele>
        <time>2022-01-13T06:31:59Z</time>
      </trkpt>
      <trkpt lat="45.68476" lon="6.25895">
        <ele>2015.8</ele>
        <time>2022-01-13T06:32:00Z</time>
      </trkpt>
      <trkpt lat="45.68476" lon="6.25895">
        <ele>2015.8</ele>
        <time>2022-01-13T06:32:01Z</time>
      </trkpt>
      <trkpt lat="45.68476" lon="6.25895">
        <ele>2015.8</ele>
        <time>2022-01-13T06:32:02Z</time>
      </trkpt>
      <trkpt lat="45.68476" lon="6.25895">
        <ele>2015.8</ele>
        <time>2022-01-13T06:32:03Z</time>
      </trkpt>
      <trkpt lat="45.68476" lon="6.25895">
        <ele>2015.8</ele>
        <time>2022-01-13T06:32:04Z</time>
      </trkpt>
      <trkpt lat="45.68476" lon="6.25895">
        <ele>2015.8</ele>
        <time>2022-01-13T06:32:05Z</time>
      </trkpt>
      <trkpt lat="45.68476" lon="6.25895">
        <ele>2015.8</ele>
        <time>2022-01-13T06:32:06Z</time>
      </trkpt>
      <trkpt lat="45.68476" lon="6.25895">
        <ele>2015.8</ele>
        <time>2022-01-13T06:32:07Z</time>
      </trkpt>
      <trkpt lat="45.68476" lon="6.25895">
        <ele>2014.8</ele>
        <time>2022-01-13T06:32:08Z</time>
      </trkpt>
      <trkpt lat="45.68476" lon="6.25895">
        <ele>2014.8</ele>
        <time>2022-01-13T06:32:09Z</time>
      </trkpt>
      <trkpt lat="45.68476" lon="6.25895">
        <ele>2014.8</ele>
        <time>2022-01-13T06:32:10Z</time>
      </trkpt>
      <trkpt lat="45.68476" lon="6.25895">
        <ele>2014.8</ele>
        <time>2022-01-13T06:32:11Z</time>
      </trkpt>
      <trkpt lat="45.68476" lon="6.25895">
        <ele>2015.8</ele>
        <time>2022-01-13T06:32:12Z</time>
      </trkpt>
      <trkpt lat="45.68476" lon="6.25895">
        <ele>2015.8</ele>
        <time>2022-01-13T06:32:13Z</time>
      </trkpt>
      <trkpt lat="45.68476" lon="6.25895">
        <ele>2015.8</ele>
        <time>2022-01-13T06:32:14Z</time>
      </trkpt>
      <trkpt lat="45.68476" lon="6.25895">
        <ele>2015.8</ele>
        <time>2022-01-13T06:32:15Z</time>
      </trkpt>
      <trkpt lat="45.68476" lon="6.25895">
        <ele>2015.8</ele>
        <time>2022-01-13T06:32:16Z</time>
      </trkpt>
      <trkpt lat="45.68476" lon="6.25895">
        <ele>2015.8</ele>
        <time>2022-01-13T06:32:17Z</time>
      </trkpt>
      <trkpt lat="45.68476" lon="6.25895">
        <ele>2015.8</ele>
        <time>2022-01-13T06:32:18Z</time>
      </trkpt>
      <trkpt lat="45.68476" lon="6.25895">
        <ele>2015.8</ele>
        <time>2022-01-13T06:32:19Z</time>
      </trkpt>
      <trkpt lat="45.68476" lon="6.25895">
        <ele>2015.8</ele>
        <time>2022-01-13T06:32:20Z</time>
      </trkpt>
      <trkpt lat="45.68476" lon="6.25895">
        <ele>2015.8</ele>
        <time>2022-01-13T06:32:21Z</time>
      </trkpt>
      <trkpt lat="45.68476" lon="6.25895">
        <ele>2015.8</ele>
        <time>2022-01-13T06:32:22Z</time>
      </trkpt>
      <trkpt lat="45.68476" lon="6.25895">
        <ele>2015.8</ele>
        <time>2022-01-13T06:32:23Z</time>
      </trkpt>
      <trkpt lat="45.68476" lon="6.25895">
        <ele>2014.8</ele>
        <time>2022-01-13T06:32:24Z</time>
      </trkpt>
      <trkpt lat="45.68476" lon="6.25895">
        <ele>2014.8</ele>
        <time>2022-01-13T06:32:25Z</time>
      </trkpt>
      <trkpt lat="45.68476" lon="6.25895">
        <ele>2014.8</ele>
        <time>2022-01-13T06:32:26Z</time>
      </trkpt>
      <trkpt lat="45.68476" lon="6.25895">
        <ele>2014.8</ele>
        <time>2022-01-13T06:32:27Z</time>
      </trkpt>
      <trkpt lat="45.68476" lon="6.25895">
        <ele>2014.8</ele>
        <time>2022-01-13T06:32:28Z</time>
      </trkpt>
      <trkpt lat="45.68476" lon="6.25895">
        <ele>2014.8</ele>
        <time>2022-01-13T06:32:29Z</time>
      </trkpt>
      <trkpt lat="45.68476" lon="6.25895">
        <ele>2014.8</ele>
        <time>2022-01-13T06:32:30Z</time>
      </trkpt>
      <trkpt lat="45.68476" lon="6.25895">
        <ele>2014.8</ele>
        <time>2022-01-13T06:32:31Z</time>
      </trkpt>
      <trkpt lat="45.68476" lon="6.25895">
        <ele>2013.8</ele>
        <time>2022-01-13T06:32:32Z</time>
      </trkpt>
      <trkpt lat="45.68476" lon="6.25895">
        <ele>2013.8</ele>
        <time>2022-01-13T06:32:33Z</time>
      </trkpt>
      <trkpt lat="45.68476" lon="6.25895">
        <ele>2013.8</ele>
        <time>2022-01-13T06:32:34Z</time>
      </trkpt>
      <trkpt lat="45.68476" lon="6.25895">
        <ele>2013.8</ele>
        <time>2022-01-13T06:32:35Z</time>
      </trkpt>
      <trkpt lat="45.68476" lon="6.25895">
        <ele>2013.8</ele>
        <time>2022-01-13T06:32:36Z</time>
      </trkpt>
      <trkpt lat="45.68476" lon="6.25895">
        <ele>2013.8</ele>
        <time>2022-01-13T06:32:37Z</time>
      </trkpt>
      <trkpt lat="45.68476" lon="6.25895">
        <ele>2013.8</ele>
        <time>2022-01-13T06:32:38Z</time>
      </trkpt>
      <trkpt lat="45.68476" lon="6.25895">
        <ele>2013.8</ele>
        <time>2022-01-13T06:32:39Z</time>
      </trkpt>
      <trkpt lat="45.68476" lon="6.25895">
        <ele>2013.8</ele>
        <time>2022-01-13T06:32:40Z</time>
      </trkpt>
      <trkpt lat="45.68476" lon="6.25895">
        <ele>2013.8</ele>
        <time>2022-01-13T06:32:41Z</time>
      </trkpt>
      <trkpt lat="45.68476" lon="6.25895">
        <ele>2012.8</ele>
        <time>2022-01-13T06:32:42Z</time>
      </trkpt>
      <trkpt lat="45.68476" lon="6.25895">
        <ele>2012.8</ele>
        <time>2022-01-13T06:32:43Z</time>
      </trkpt>
      <trkpt lat="45.68475" lon="6.25894">
        <ele>2012.8</ele>
        <time>2022-01-13T06:32:44Z</time>
      </trkpt>
      <trkpt lat="45.68474" lon="6.25894">
        <ele>2012.8</ele>
        <time>2022-01-13T06:32:45Z</time>
      </trkpt>
      <trkpt lat="45.68473" lon="6.25893">
        <ele>2012.8</ele>
        <time>2022-01-13T06:32:46Z</time>
      </trkpt>
      <trkpt lat="45.68472" lon="6.25892">
        <ele>2012.8</ele>
        <time>2022-01-13T06:32:47Z</time>
      </trkpt>
      <trkpt lat="45.68471" lon="6.25892">
        <ele>2012.8</ele>
        <time>2022-01-13T06:32:48Z</time>
      </trkpt>
      <trkpt lat="45.68471" lon="6.25891">
        <ele>2012.8</ele>
        <time>2022-01-13T06:32:49Z</time>
      </trkpt>
      <trkpt lat="45.6847" lon="6.2589">
        <ele>2016.7</ele>
        <time>2022-01-13T06:32:50Z</time>
      </trkpt>
      <trkpt lat="45.68469" lon="6.2589">
        <ele>2016.7</ele>
        <time>2022-01-13T06:32:51Z</time>
      </trkpt>
      <trkpt lat="45.68468" lon="6.25889">
        <ele>2016.7</ele>
        <time>2022-01-13T06:32:52Z</time>
      </trkpt>
      <trkpt lat="45.68467" lon="6.25889">
        <ele>2016.7</ele>
        <time>2022-01-13T06:32:53Z</time>
      </trkpt>
      <trkpt lat="45.68467" lon="6.25889">
        <ele>2015.8</ele>
        <time>2022-01-13T06:32:54Z</time>
      </trkpt>
      <trkpt lat="45.68466" lon="6.25888">
        <ele>2015.8</ele>
        <time>2022-01-13T06:32:55Z</time>
      </trkpt>
      <trkpt lat="45.68465" lon="6.25888">
        <ele>2015.8</ele>
        <time>2022-01-13T06:32:56Z</time>
      </trkpt>
      <trkpt lat="45.68465" lon="6.25888">
        <ele>2015.8</ele>
        <time>2022-01-13T06:32:57Z</time>
      </trkpt>
      <trkpt lat="45.68464" lon="6.25887">
        <ele>2015.8</ele>
        <time>2022-01-13T06:32:58Z</time>
      </trkpt>
      <trkpt lat="45.68464" lon="6.25887">
        <ele>2015.8</ele>
        <time>2022-01-13T06:32:59Z</time>
      </trkpt>
      <trkpt lat="45.68464" lon="6.25887">
        <ele>2015.8</ele>
        <time>2022-01-13T06:33:00Z</time>
      </trkpt>
      <trkpt lat="45.68464" lon="6.25887">
        <ele>2015.8</ele>
        <time>2022-01-13T06:33:01Z</time>
      </trkpt>
      <trkpt lat="45.68464" lon="6.25887">
        <ele>2016.7</ele>
        <time>2022-01-13T06:33:02Z</time>
      </trkpt>
      <trkpt lat="45.68464" lon="6.25887">
        <ele>2016.7</ele>
        <time>2022-01-13T06:33:03Z</time>
      </trkpt>
      <trkpt lat="45.68464" lon="6.25887">
        <ele>2017.8</ele>
        <time>2022-01-13T06:33:04Z</time>
      </trkpt>
      <trkpt lat="45.68464" lon="6.25887">
        <ele>2017.8</ele>
        <time>2022-01-13T06:33:05Z</time>
      </trkpt>
      <trkpt lat="45.68464" lon="6.25887">
        <ele>2017.8</ele>
        <time>2022-01-13T06:33:06Z</time>
      </trkpt>
      <trkpt lat="45.68464" lon="6.25887">
        <ele>2017.8</ele>
        <time>2022-01-13T06:33:07Z</time>
      </trkpt>
      <trkpt lat="45.68464" lon="6.25887">
        <ele>2017.8</ele>
        <time>2022-01-13T06:33:08Z</time>
      </trkpt>
      <trkpt lat="45.68464" lon="6.25887">
        <ele>2017.8</ele>
        <time>2022-01-13T06:33:09Z</time>
      </trkpt>
      <trkpt lat="45.68464" lon="6.25887">
        <ele>2017.8</ele>
        <time>2022-01-13T06:33:10Z</time>
      </trkpt>
      <trkpt lat="45.68464" lon="6.25887">
        <ele>2017.8</ele>
        <time>2022-01-13T06:33:11Z</time>
      </trkpt>
      <trkpt lat="45.68464" lon="6.25887">
        <ele>2017.8</ele>
        <time>2022-01-13T06:33:12Z</time>
      </trkpt>
      <trkpt lat="45.68464" lon="6.25887">
        <ele>2017.8</ele>
        <time>2022-01-13T06:33:13Z</time>
      </trkpt>
      <trkpt lat="45.68464" lon="6.25887">
        <ele>2017.8</ele>
        <time>2022-01-13T06:33:14Z</time>
      </trkpt>
      <trkpt lat="45.68464" lon="6.25887">
        <ele>2017.8</ele>
        <time>2022-01-13T06:33:15Z</time>
      </trkpt>
      <trkpt lat="45.68464" lon="6.25887">
        <ele>2017.8</ele>
        <time>2022-01-13T06:33:16Z</time>
      </trkpt>
      <trkpt lat="45.68464" lon="6.25887">
        <ele>2017.8</ele>
        <time>2022-01-13T06:33:17Z</time>
      </trkpt>
      <trkpt lat="45.68464" lon="6.25887">
        <ele>2017.8</ele>
        <time>2022-01-13T06:33:18Z</time>
      </trkpt>
      <trkpt lat="45.68464" lon="6.25887">
        <ele>2017.8</ele>
        <time>2022-01-13T06:33:19Z</time>
      </trkpt>
      <trkpt lat="45.68464" lon="6.25887">
        <ele>2018.7</ele>
        <time>2022-01-13T06:33:20Z</time>
      </trkpt>
      <trkpt lat="45.68464" lon="6.25887">
        <ele>2018.7</ele>
        <time>2022-01-13T06:33:21Z</time>
      </trkpt>
      <trkpt lat="45.68464" lon="6.25887">
        <ele>2018.7</ele>
        <time>2022-01-13T06:33:22Z</time>
      </trkpt>
      <trkpt lat="45.68464" lon="6.25887">
        <ele>2018.7</ele>
        <time>2022-01-13T06:33:23Z</time>
      </trkpt>
      <trkpt lat="45.68464" lon="6.25887">
        <ele>2018.7</ele>
        <time>2022-01-13T06:33:24Z</time>
      </trkpt>
      <trkpt lat="45.68464" lon="6.25886">
        <ele>2018.7</ele>
        <time>2022-01-13T06:33:25Z</time>
      </trkpt>
      <trkpt lat="45.68462" lon="6.25886">
        <ele>2019.8</ele>
        <time>2022-01-13T06:33:26Z</time>
      </trkpt>
      <trkpt lat="45.68461" lon="6.25885">
        <ele>2019.8</ele>
        <time>2022-01-13T06:33:27Z</time>
      </trkpt>
      <trkpt lat="45.6846" lon="6.25885">
        <ele>2020.8</ele>
        <time>2022-01-13T06:33:28Z</time>
      </trkpt>
      <trkpt lat="45.68459" lon="6.25884">
        <ele>2020.8</ele>
        <time>2022-01-13T06:33:29Z</time>
      </trkpt>
      <trkpt lat="45.68457" lon="6.25883">
        <ele>2020.8</ele>
        <time>2022-01-13T06:33:30Z</time>
      </trkpt>
      <trkpt lat="45.68456" lon="6.25883">
        <ele>2020.8</ele>
        <time>2022-01-13T06:33:31Z</time>
      </trkpt>
      <trkpt lat="45.68455" lon="6.25883">
        <ele>2021.8</ele>
        <time>2022-01-13T06:33:32Z</time>
      </trkpt>
      <trkpt lat="45.68454" lon="6.25882">
        <ele>2021.8</ele>
        <time>2022-01-13T06:33:33Z</time>
      </trkpt>
      <trkpt lat="45.68452" lon="6.25882">
        <ele>2021.8</ele>
        <time>2022-01-13T06:33:34Z</time>
      </trkpt>
      <trkpt lat="45.68452" lon="6.25882">
        <ele>2021.8</ele>
        <time>2022-01-13T06:33:35Z</time>
      </trkpt>
      <trkpt lat="45.68451" lon="6.25882">
        <ele>2021.8</ele>
        <time>2022-01-13T06:33:36Z</time>
      </trkpt>
      <trkpt lat="45.6845" lon="6.25882">
        <ele>2021.8</ele>
        <time>2022-01-13T06:33:37Z</time>
      </trkpt>
      <trkpt lat="45.6845" lon="6.25881">
        <ele>2022.8</ele>
        <time>2022-01-13T06:33:38Z</time>
      </trkpt>
      <trkpt lat="45.68449" lon="6.25881">
        <ele>2022.8</ele>
        <time>2022-01-13T06:33:39Z</time>
      </trkpt>
      <trkpt lat="45.68449" lon="6.25881">
        <ele>2022.8</ele>
        <time>2022-01-13T06:33:40Z</time>
      </trkpt>
      <trkpt lat="45.68448" lon="6.2588">
        <ele>2022.8</ele>
        <time>2022-01-13T06:33:41Z</time>
      </trkpt>
      <trkpt lat="45.68448" lon="6.2588">
        <ele>2022.8</ele>
        <time>2022-01-13T06:33:42Z</time>
      </trkpt>
      <trkpt lat="45.68447" lon="6.2588">
        <ele>2022.8</ele>
        <time>2022-01-13T06:33:43Z</time>
      </trkpt>
      <trkpt lat="45.68447" lon="6.25879">
        <ele>2023.7</ele>
        <time>2022-01-13T06:33:44Z</time>
      </trkpt>
      <trkpt lat="45.68447" lon="6.25879">
        <ele>2023.7</ele>
        <time>2022-01-13T06:33:45Z</time>
      </trkpt>
      <trkpt lat="45.68447" lon="6.25879">
        <ele>2023.7</ele>
        <time>2022-01-13T06:33:46Z</time>
      </trkpt>
      <trkpt lat="45.68446" lon="6.25879">
        <ele>2023.7</ele>
        <time>2022-01-13T06:33:47Z</time>
      </trkpt>
      <trkpt lat="45.68446" lon="6.25878">
        <ele>2023.7</ele>
        <time>2022-01-13T06:33:48Z</time>
      </trkpt>
      <trkpt lat="45.68446" lon="6.25878">
        <ele>2023.7</ele>
        <time>2022-01-13T06:33:49Z</time>
      </trkpt>
      <trkpt lat="45.68445" lon="6.25878">
        <ele>2023.7</ele>
        <time>2022-01-13T06:33:50Z</time>
      </trkpt>
      <trkpt lat="45.68445" lon="6.25878">
        <ele>2023.7</ele>
        <time>2022-01-13T06:33:51Z</time>
      </trkpt>
      <trkpt lat="45.68445" lon="6.25877">
        <ele>2023.7</ele>
        <time>2022-01-13T06:33:52Z</time>
      </trkpt>
      <trkpt lat="45.68444" lon="6.25877">
        <ele>2023.7</ele>
        <time>2022-01-13T06:33:53Z</time>
      </trkpt>
      <trkpt lat="45.68444" lon="6.25876">
        <ele>2023.7</ele>
        <time>2022-01-13T06:33:54Z</time>
      </trkpt>
      <trkpt lat="45.68443" lon="6.25876">
        <ele>2023.7</ele>
        <time>2022-01-13T06:33:55Z</time>
      </trkpt>
      <trkpt lat="45.68443" lon="6.25875">
        <ele>2023.7</ele>
        <time>2022-01-13T06:33:56Z</time>
      </trkpt>
      <trkpt lat="45.68442" lon="6.25875">
        <ele>2023.7</ele>
        <time>2022-01-13T06:33:57Z</time>
      </trkpt>
      <trkpt lat="45.68442" lon="6.25875">
        <ele>2024.8</ele>
        <time>2022-01-13T06:33:58Z</time>
      </trkpt>
      <trkpt lat="45.68441" lon="6.25874">
        <ele>2024.8</ele>
        <time>2022-01-13T06:33:59Z</time>
      </trkpt>
      <trkpt lat="45.68441" lon="6.25874">
        <ele>2024.8</ele>
        <time>2022-01-13T06:34:00Z</time>
      </trkpt>
      <trkpt lat="45.6844" lon="6.25874">
        <ele>2024.8</ele>
        <time>2022-01-13T06:34:01Z</time>
      </trkpt>
      <trkpt lat="45.6844" lon="6.25874">
        <ele>2025.7</ele>
        <time>2022-01-13T06:34:02Z</time>
      </trkpt>
      <trkpt lat="45.68439" lon="6.25873">
        <ele>2025.7</ele>
        <time>2022-01-13T06:34:03Z</time>
      </trkpt>
      <trkpt lat="45.68439" lon="6.25873">
        <ele>2025.7</ele>
        <time>2022-01-13T06:34:04Z</time>
      </trkpt>
      <trkpt lat="45.68439" lon="6.25873">
        <ele>2025.7</ele>
        <time>2022-01-13T06:34:05Z</time>
      </trkpt>
      <trkpt lat="45.68438" lon="6.25872">
        <ele>2025.7</ele>
        <time>2022-01-13T06:34:06Z</time>
      </trkpt>
      <trkpt lat="45.68438" lon="6.25872">
        <ele>2025.7</ele>
        <time>2022-01-13T06:34:07Z</time>
      </trkpt>
      <trkpt lat="45.68437" lon="6.25872">
        <ele>2025.7</ele>
        <time>2022-01-13T06:34:08Z</time>
      </trkpt>
      <trkpt lat="45.68437" lon="6.25871">
        <ele>2025.7</ele>
        <time>2022-01-13T06:34:09Z</time>
      </trkpt>
      <trkpt lat="45.68437" lon="6.25871">
        <ele>2026.8</ele>
        <time>2022-01-13T06:34:10Z</time>
      </trkpt>
      <trkpt lat="45.68437" lon="6.25871">
        <ele>2026.8</ele>
        <time>2022-01-13T06:34:11Z</time>
      </trkpt>
      <trkpt lat="45.68437" lon="6.25871">
        <ele>2026.8</ele>
        <time>2022-01-13T06:34:12Z</time>
      </trkpt>
      <trkpt lat="45.68437" lon="6.25871">
        <ele>2026.8</ele>
        <time>2022-01-13T06:34:13Z</time>
      </trkpt>
      <trkpt lat="45.68437" lon="6.25871">
        <ele>2026.8</ele>
        <time>2022-01-13T06:34:14Z</time>
      </trkpt>
      <trkpt lat="45.68437" lon="6.25871">
        <ele>2026.8</ele>
        <time>2022-01-13T06:34:15Z</time>
      </trkpt>
      <trkpt lat="45.68437" lon="6.25871">
        <ele>2026.8</ele>
        <time>2022-01-13T06:34:16Z</time>
      </trkpt>
      <trkpt lat="45.68437" lon="6.25871">
        <ele>2026.8</ele>
        <time>2022-01-13T06:34:17Z</time>
      </trkpt>
      <trkpt lat="45.68437" lon="6.25871">
        <ele>2026.8</ele>
        <time>2022-01-13T06:34:18Z</time>
      </trkpt>
      <trkpt lat="45.68437" lon="6.25871">
        <ele>2026.8</ele>
        <time>2022-01-13T06:34:19Z</time>
      </trkpt>
      <trkpt lat="45.68437" lon="6.25871">
        <ele>2026.8</ele>
        <time>2022-01-13T06:34:20Z</time>
      </trkpt>
      <trkpt lat="45.68437" lon="6.25871">
        <ele>2026.8</ele>
        <time>2022-01-13T06:34:21Z</time>
      </trkpt>
      <trkpt lat="45.68437" lon="6.25871">
        <ele>2026.8</ele>
        <time>2022-01-13T06:34:22Z</time>
      </trkpt>
      <trkpt lat="45.68437" lon="6.25871">
        <ele>2026.8</ele>
        <time>2022-01-13T06:34:23Z</time>
      </trkpt>
      <trkpt lat="45.68437" lon="6.25871">
        <ele>2027.7</ele>
        <time>2022-01-13T06:34:24Z</time>
      </trkpt>
      <trkpt lat="45.68437" lon="6.25871">
        <ele>2027.7</ele>
        <time>2022-01-13T06:34:25Z</time>
      </trkpt>
      <trkpt lat="45.68437" lon="6.25871">
        <ele>2027.7</ele>
        <time>2022-01-13T06:34:26Z</time>
      </trkpt>
      <trkpt lat="45.68437" lon="6.25871">
        <ele>2027.7</ele>
        <time>2022-01-13T06:34:27Z</time>
      </trkpt>
      <trkpt lat="45.68437" lon="6.25871">
        <ele>2027.7</ele>
        <time>2022-01-13T06:34:28Z</time>
      </trkpt>
      <trkpt lat="45.68437" lon="6.25871">
        <ele>2027.7</ele>
        <time>2022-01-13T06:34:29Z</time>
      </trkpt>
      <trkpt lat="45.68437" lon="6.25871">
        <ele>2027.7</ele>
        <time>2022-01-13T06:34:30Z</time>
      </trkpt>
      <trkpt lat="45.68437" lon="6.25871">
        <ele>2027.7</ele>
        <time>2022-01-13T06:34:31Z</time>
      </trkpt>
      <trkpt lat="45.68437" lon="6.25871">
        <ele>2027.7</ele>
        <time>2022-01-13T06:34:32Z</time>
      </trkpt>
      <trkpt lat="45.68437" lon="6.25871">
        <ele>2027.7</ele>
        <time>2022-01-13T06:34:33Z</time>
      </trkpt>
      <trkpt lat="45.68437" lon="6.25871">
        <ele>2027.7</ele>
        <time>2022-01-13T06:34:34Z</time>
      </trkpt>
      <trkpt lat="45.68437" lon="6.25871">
        <ele>2027.7</ele>
        <time>2022-01-13T06:34:35Z</time>
      </trkpt>
      <trkpt lat="45.68437" lon="6.25871">
        <ele>2027.7</ele>
        <time>2022-01-13T06:34:36Z</time>
      </trkpt>
      <trkpt lat="45.68437" lon="6.25871">
        <ele>2027.7</ele>
        <time>2022-01-13T06:34:37Z</time>
      </trkpt>
      <trkpt lat="45.68437" lon="6.25871">
        <ele>2028.8</ele>
        <time>2022-01-13T06:34:38Z</time>
      </trkpt>
      <trkpt lat="45.68437" lon="6.25871">
        <ele>2028.8</ele>
        <time>2022-01-13T06:34:39Z</time>
      </trkpt>
      <trkpt lat="45.68437" lon="6.25871">
        <ele>2028.8</ele>
        <time>2022-01-13T06:34:40Z</time>
      </trkpt>
      <trkpt lat="45.68437" lon="6.25871">
        <ele>2028.8</ele>
        <time>2022-01-13T06:34:41Z</time>
      </trkpt>
      <trkpt lat="45.68437" lon="6.25871">
        <ele>2028.8</ele>
        <time>2022-01-13T06:34:42Z</time>
      </trkpt>
      <trkpt lat="45.68437" lon="6.25871">
        <ele>2028.8</ele>
        <time>2022-01-13T06:34:43Z</time>
      </trkpt>
      <trkpt lat="45.68437" lon="6.25871">
        <ele>2029.8</ele>
        <time>2022-01-13T06:34:44Z</time>
      </trkpt>
      <trkpt lat="45.68436" lon="6.2587">
        <ele>2029.8</ele>
        <time>2022-01-13T06:34:45Z</time>
      </trkpt>
      <trkpt lat="45.68435" lon="6.25869">
        <ele>2029.8</ele>
        <time>2022-01-13T06:34:46Z</time>
      </trkpt>
      <trkpt lat="45.68434" lon="6.25868">
        <ele>2029.8</ele>
        <time>2022-01-13T06:34:47Z</time>
      </trkpt>
      <trkpt lat="45.68433" lon="6.25868">
        <ele>2029.8</ele>
        <time>2022-01-13T06:34:48Z</time>
      </trkpt>
      <trkpt lat="45.68431" lon="6.25867">
        <ele>2029.8</ele>
        <time>2022-01-13T06:34:49Z</time>
      </trkpt>
      <trkpt lat="45.6843" lon="6.25866">
        <ele>2029.8</ele>
        <time>2022-01-13T06:34:50Z</time>
      </trkpt>
      <trkpt lat="45.68429" lon="6.25865">
        <ele>2029.8</ele>
        <time>2022-01-13T06:34:51Z</time>
      </trkpt>
      <trkpt lat="45.68428" lon="6.25864">
        <ele>2030.8</ele>
        <time>2022-01-13T06:34:52Z</time>
      </trkpt>
      <trkpt lat="45.68427" lon="6.25863">
        <ele>2030.8</ele>
        <time>2022-01-13T06:34:53Z</time>
      </trkpt>
      <trkpt lat="45.68426" lon="6.25862">
        <ele>2031.8</ele>
        <time>2022-01-13T06:34:54Z</time>
      </trkpt>
      <trkpt lat="45.68425" lon="6.25862">
        <ele>2031.8</ele>
        <time>2022-01-13T06:34:55Z</time>
      </trkpt>
      <trkpt lat="45.68425" lon="6.25861">
        <ele>2031.8</ele>
        <time>2022-01-13T06:34:56Z</time>
      </trkpt>
      <trkpt lat="45.68424" lon="6.25861">
        <ele>2031.8</ele>
        <time>2022-01-13T06:34:57Z</time>
      </trkpt>
      <trkpt lat="45.68424" lon="6.2586">
        <ele>2031.8</ele>
        <time>2022-01-13T06:34:58Z</time>
      </trkpt>
      <trkpt lat="45.68423" lon="6.2586">
        <ele>2031.8</ele>
        <time>2022-01-13T06:34:59Z</time>
      </trkpt>
      <trkpt lat="45.68423" lon="6.25859">
        <ele>2031.8</ele>
        <time>2022-01-13T06:35:00Z</time>
      </trkpt>
      <trkpt lat="45.68423" lon="6.25859">
        <ele>2031.8</ele>
        <time>2022-01-13T06:35:01Z</time>
      </trkpt>
      <trkpt lat="45.68422" lon="6.25858">
        <ele>2032.7</ele>
        <time>2022-01-13T06:35:02Z</time>
      </trkpt>
      <trkpt lat="45.68421" lon="6.25858">
        <ele>2032.7</ele>
        <time>2022-01-13T06:35:03Z</time>
      </trkpt>
      <trkpt lat="45.68421" lon="6.25857">
        <ele>2032.7</ele>
        <time>2022-01-13T06:35:04Z</time>
      </trkpt>
      <trkpt lat="45.68421" lon="6.25857">
        <ele>2032.7</ele>
        <time>2022-01-13T06:35:05Z</time>
      </trkpt>
      <trkpt lat="45.6842" lon="6.25856">
        <ele>2033.8</ele>
        <time>2022-01-13T06:35:06Z</time>
      </trkpt>
      <trkpt lat="45.6842" lon="6.25856">
        <ele>2033.8</ele>
        <time>2022-01-13T06:35:07Z</time>
      </trkpt>
      <trkpt lat="45.68419" lon="6.25856">
        <ele>2032.7</ele>
        <time>2022-01-13T06:35:08Z</time>
      </trkpt>
      <trkpt lat="45.68419" lon="6.25855">
        <ele>2032.7</ele>
        <time>2022-01-13T06:35:09Z</time>
      </trkpt>
      <trkpt lat="45.68418" lon="6.25855">
        <ele>2033.8</ele>
        <time>2022-01-13T06:35:10Z</time>
      </trkpt>
      <trkpt lat="45.68418" lon="6.25855">
        <ele>2033.8</ele>
        <time>2022-01-13T06:35:11Z</time>
      </trkpt>
      <trkpt lat="45.68417" lon="6.25855">
        <ele>2033.8</ele>
        <time>2022-01-13T06:35:12Z</time>
      </trkpt>
      <trkpt lat="45.68417" lon="6.25854">
        <ele>2033.8</ele>
        <time>2022-01-13T06:35:13Z</time>
      </trkpt>
      <trkpt lat="45.68417" lon="6.25854">
        <ele>2033.8</ele>
        <time>2022-01-13T06:35:14Z</time>
      </trkpt>
      <trkpt lat="45.68416" lon="6.25854">
        <ele>2033.8</ele>
        <time>2022-01-13T06:35:15Z</time>
      </trkpt>
      <trkpt lat="45.68416" lon="6.25853">
        <ele>2033.8</ele>
        <time>2022-01-13T06:35:16Z</time>
      </trkpt>
      <trkpt lat="45.68416" lon="6.25853">
        <ele>2033.8</ele>
        <time>2022-01-13T06:35:17Z</time>
      </trkpt>
      <trkpt lat="45.68415" lon="6.25852">
        <ele>2035.8</ele>
        <time>2022-01-13T06:35:18Z</time>
      </trkpt>
      <trkpt lat="45.68415" lon="6.25852">
        <ele>2035.8</ele>
        <time>2022-01-13T06:35:19Z</time>
      </trkpt>
      <trkpt lat="45.68414" lon="6.25851">
        <ele>2035.8</ele>
        <time>2022-01-13T06:35:20Z</time>
      </trkpt>
      <trkpt lat="45.68414" lon="6.25851">
        <ele>2035.8</ele>
        <time>2022-01-13T06:35:21Z</time>
      </trkpt>
      <trkpt lat="45.68414" lon="6.2585">
        <ele>2036.9</ele>
        <time>2022-01-13T06:35:22Z</time>
      </trkpt>
      <trkpt lat="45.68413" lon="6.2585">
        <ele>2036.9</ele>
        <time>2022-01-13T06:35:23Z</time>
      </trkpt>
      <trkpt lat="45.68413" lon="6.2585">
        <ele>2036.9</ele>
        <time>2022-01-13T06:35:24Z</time>
      </trkpt>
      <trkpt lat="45.68413" lon="6.2585">
        <ele>2036.9</ele>
        <time>2022-01-13T06:35:25Z</time>
      </trkpt>
      <trkpt lat="45.68412" lon="6.2585">
        <ele>2036.9</ele>
        <time>2022-01-13T06:35:26Z</time>
      </trkpt>
      <trkpt lat="45.68412" lon="6.2585">
        <ele>2036.9</ele>
        <time>2022-01-13T06:35:27Z</time>
      </trkpt>
      <trkpt lat="45.68411" lon="6.25849">
        <ele>2036.9</ele>
        <time>2022-01-13T06:35:28Z</time>
      </trkpt>
      <trkpt lat="45.68411" lon="6.25849">
        <ele>2036.9</ele>
        <time>2022-01-13T06:35:29Z</time>
      </trkpt>
      <trkpt lat="45.6841" lon="6.2585">
        <ele>2036.9</ele>
        <time>2022-01-13T06:35:30Z</time>
      </trkpt>
      <trkpt lat="45.6841" lon="6.25849">
        <ele>2036.9</ele>
        <time>2022-01-13T06:35:31Z</time>
      </trkpt>
      <trkpt lat="45.68409" lon="6.25849">
        <ele>2037.8</ele>
        <time>2022-01-13T06:35:32Z</time>
      </trkpt>
      <trkpt lat="45.68409" lon="6.25848">
        <ele>2037.8</ele>
        <time>2022-01-13T06:35:33Z</time>
      </trkpt>
      <trkpt lat="45.68408" lon="6.25848">
        <ele>2037.8</ele>
        <time>2022-01-13T06:35:34Z</time>
      </trkpt>
      <trkpt lat="45.68408" lon="6.25848">
        <ele>2037.8</ele>
        <time>2022-01-13T06:35:35Z</time>
      </trkpt>
      <trkpt lat="45.68408" lon="6.25847">
        <ele>2038.8</ele>
        <time>2022-01-13T06:35:36Z</time>
      </trkpt>
      <trkpt lat="45.68407" lon="6.25847">
        <ele>2038.8</ele>
        <time>2022-01-13T06:35:37Z</time>
      </trkpt>
      <trkpt lat="45.68407" lon="6.25846">
        <ele>2038.8</ele>
        <time>2022-01-13T06:35:38Z</time>
      </trkpt>
      <trkpt lat="45.68406" lon="6.25846">
        <ele>2038.8</ele>
        <time>2022-01-13T06:35:39Z</time>
      </trkpt>
      <trkpt lat="45.68406" lon="6.25845">
        <ele>2038.8</ele>
        <time>2022-01-13T06:35:40Z</time>
      </trkpt>
      <trkpt lat="45.68406" lon="6.25845">
        <ele>2038.8</ele>
        <time>2022-01-13T06:35:41Z</time>
      </trkpt>
      <trkpt lat="45.68405" lon="6.25845">
        <ele>2038.8</ele>
        <time>2022-01-13T06:35:42Z</time>
      </trkpt>
      <trkpt lat="45.68405" lon="6.25844">
        <ele>2038.8</ele>
        <time>2022-01-13T06:35:43Z</time>
      </trkpt>
      <trkpt lat="45.68405" lon="6.25844">
        <ele>2038.8</ele>
        <time>2022-01-13T06:35:44Z</time>
      </trkpt>
      <trkpt lat="45.68404" lon="6.25844">
        <ele>2038.8</ele>
        <time>2022-01-13T06:35:45Z</time>
      </trkpt>
      <trkpt lat="45.68404" lon="6.25843">
        <ele>2039.7</ele>
        <time>2022-01-13T06:35:46Z</time>
      </trkpt>
      <trkpt lat="45.68404" lon="6.25843">
        <ele>2039.7</ele>
        <time>2022-01-13T06:35:47Z</time>
      </trkpt>
      <trkpt lat="45.68403" lon="6.25843">
        <ele>2039.7</ele>
        <time>2022-01-13T06:35:48Z</time>
      </trkpt>
      <trkpt lat="45.68403" lon="6.25842">
        <ele>2039.7</ele>
        <time>2022-01-13T06:35:49Z</time>
      </trkpt>
      <trkpt lat="45.68403" lon="6.25842">
        <ele>2039.7</ele>
        <time>2022-01-13T06:35:50Z</time>
      </trkpt>
      <trkpt lat="45.68402" lon="6.25841">
        <ele>2039.7</ele>
        <time>2022-01-13T06:35:51Z</time>
      </trkpt>
      <trkpt lat="45.68402" lon="6.25841">
        <ele>2039.7</ele>
        <time>2022-01-13T06:35:52Z</time>
      </trkpt>
      <trkpt lat="45.68401" lon="6.2584">
        <ele>2039.7</ele>
        <time>2022-01-13T06:35:53Z</time>
      </trkpt>
      <trkpt lat="45.68401" lon="6.2584">
        <ele>2040.8</ele>
        <time>2022-01-13T06:35:54Z</time>
      </trkpt>
      <trkpt lat="45.684" lon="6.2584">
        <ele>2040.8</ele>
        <time>2022-01-13T06:35:55Z</time>
      </trkpt>
      <trkpt lat="45.684" lon="6.2584">
        <ele>2041.7</ele>
        <time>2022-01-13T06:35:56Z</time>
      </trkpt>
      <trkpt lat="45.68399" lon="6.2584">
        <ele>2041.7</ele>
        <time>2022-01-13T06:35:57Z</time>
      </trkpt>
      <trkpt lat="45.68399" lon="6.25839">
        <ele>2041.7</ele>
        <time>2022-01-13T06:35:58Z</time>
      </trkpt>
      <trkpt lat="45.68398" lon="6.25839">
        <ele>2041.7</ele>
        <time>2022-01-13T06:35:59Z</time>
      </trkpt>
      <trkpt lat="45.68398" lon="6.25839">
        <ele>2042.8</ele>
        <time>2022-01-13T06:36:00Z</time>
      </trkpt>
      <trkpt lat="45.68398" lon="6.25838">
        <ele>2042.8</ele>
        <time>2022-01-13T06:36:01Z</time>
      </trkpt>
      <trkpt lat="45.68397" lon="6.25838">
        <ele>2043.7</ele>
        <time>2022-01-13T06:36:02Z</time>
      </trkpt>
      <trkpt lat="45.68397" lon="6.25838">
        <ele>2043.7</ele>
        <time>2022-01-13T06:36:03Z</time>
      </trkpt>
      <trkpt lat="45.68396" lon="6.25838">
        <ele>2043.7</ele>
        <time>2022-01-13T06:36:04Z</time>
      </trkpt>
      <trkpt lat="45.68396" lon="6.25838">
        <ele>2043.7</ele>
        <time>2022-01-13T06:36:05Z</time>
      </trkpt>
      <trkpt lat="45.68396" lon="6.25838">
        <ele>2043.7</ele>
        <time>2022-01-13T06:36:06Z</time>
      </trkpt>
      <trkpt lat="45.68395" lon="6.25837">
        <ele>2043.7</ele>
        <time>2022-01-13T06:36:07Z</time>
      </trkpt>
      <trkpt lat="45.68395" lon="6.25837">
        <ele>2043.7</ele>
        <time>2022-01-13T06:36:08Z</time>
      </trkpt>
      <trkpt lat="45.68395" lon="6.25837">
        <ele>2043.7</ele>
        <time>2022-01-13T06:36:09Z</time>
      </trkpt>
      <trkpt lat="45.68394" lon="6.25837">
        <ele>2043.7</ele>
        <time>2022-01-13T06:36:10Z</time>
      </trkpt>
      <trkpt lat="45.68394" lon="6.25837">
        <ele>2043.7</ele>
        <time>2022-01-13T06:36:11Z</time>
      </trkpt>
      <trkpt lat="45.68393" lon="6.25836">
        <ele>2043.7</ele>
        <time>2022-01-13T06:36:12Z</time>
      </trkpt>
      <trkpt lat="45.68393" lon="6.25836">
        <ele>2043.7</ele>
        <time>2022-01-13T06:36:13Z</time>
      </trkpt>
      <trkpt lat="45.68392" lon="6.25835">
        <ele>2044.8</ele>
        <time>2022-01-13T06:36:14Z</time>
      </trkpt>
      <trkpt lat="45.68392" lon="6.25835">
        <ele>2044.8</ele>
        <time>2022-01-13T06:36:15Z</time>
      </trkpt>
      <trkpt lat="45.68392" lon="6.25834">
        <ele>2044.8</ele>
        <time>2022-01-13T06:36:16Z</time>
      </trkpt>
      <trkpt lat="45.68391" lon="6.25834">
        <ele>2044.8</ele>
        <time>2022-01-13T06:36:17Z</time>
      </trkpt>
      <trkpt lat="45.68391" lon="6.25833">
        <ele>2045.8</ele>
        <time>2022-01-13T06:36:18Z</time>
      </trkpt>
      <trkpt lat="45.68391" lon="6.25832">
        <ele>2045.8</ele>
        <time>2022-01-13T06:36:19Z</time>
      </trkpt>
      <trkpt lat="45.6839" lon="6.25832">
        <ele>2045.8</ele>
        <time>2022-01-13T06:36:20Z</time>
      </trkpt>
      <trkpt lat="45.6839" lon="6.25831">
        <ele>2045.8</ele>
        <time>2022-01-13T06:36:21Z</time>
      </trkpt>
      <trkpt lat="45.6839" lon="6.25831">
        <ele>2045.8</ele>
        <time>2022-01-13T06:36:22Z</time>
      </trkpt>
      <trkpt lat="45.6839" lon="6.2583">
        <ele>2045.8</ele>
        <time>2022-01-13T06:36:23Z</time>
      </trkpt>
      <trkpt lat="45.68389" lon="6.2583">
        <ele>2045.8</ele>
        <time>2022-01-13T06:36:24Z</time>
      </trkpt>
      <trkpt lat="45.68389" lon="6.25829">
        <ele>2045.8</ele>
        <time>2022-01-13T06:36:25Z</time>
      </trkpt>
      <trkpt lat="45.68389" lon="6.25829">
        <ele>2045.8</ele>
        <time>2022-01-13T06:36:26Z</time>
      </trkpt>
      <trkpt lat="45.68389" lon="6.25828">
        <ele>2045.8</ele>
        <time>2022-01-13T06:36:27Z</time>
      </trkpt>
      <trkpt lat="45.68389" lon="6.25826">
        <ele>2045.8</ele>
        <time>2022-01-13T06:36:28Z</time>
      </trkpt>
      <trkpt lat="45.68389" lon="6.25824">
        <ele>2045.8</ele>
        <time>2022-01-13T06:36:29Z</time>
      </trkpt>
      <trkpt lat="45.68389" lon="6.25823">
        <ele>2045.8</ele>
        <time>2022-01-13T06:36:30Z</time>
      </trkpt>
      <trkpt lat="45.68389" lon="6.25823">
        <ele>2045.8</ele>
        <time>2022-01-13T06:36:31Z</time>
      </trkpt>
      <trkpt lat="45.68389" lon="6.25822">
        <ele>2046.8</ele>
        <time>2022-01-13T06:36:32Z</time>
      </trkpt>
      <trkpt lat="45.68388" lon="6.25822">
        <ele>2046.8</ele>
        <time>2022-01-13T06:36:33Z</time>
      </trkpt>
      <trkpt lat="45.68388" lon="6.25821">
        <ele>2046.8</ele>
        <time>2022-01-13T06:36:34Z</time>
      </trkpt>
      <trkpt lat="45.68388" lon="6.25821">
        <ele>2046.8</ele>
        <time>2022-01-13T06:36:35Z</time>
      </trkpt>
      <trkpt lat="45.68388" lon="6.25821">
        <ele>2046.8</ele>
        <time>2022-01-13T06:36:36Z</time>
      </trkpt>
      <trkpt lat="45.68388" lon="6.25821">
        <ele>2046.8</ele>
        <time>2022-01-13T06:36:37Z</time>
      </trkpt>
      <trkpt lat="45.68388" lon="6.25821">
        <ele>2045.8</ele>
        <time>2022-01-13T06:36:38Z</time>
      </trkpt>
      <trkpt lat="45.68388" lon="6.25821">
        <ele>2045.8</ele>
        <time>2022-01-13T06:36:39Z</time>
      </trkpt>
      <trkpt lat="45.68388" lon="6.25821">
        <ele>2045.8</ele>
        <time>2022-01-13T06:36:40Z</time>
      </trkpt>
      <trkpt lat="45.68388" lon="6.25821">
        <ele>2045.8</ele>
        <time>2022-01-13T06:36:41Z</time>
      </trkpt>
      <trkpt lat="45.68388" lon="6.25821">
        <ele>2045.8</ele>
        <time>2022-01-13T06:36:42Z</time>
      </trkpt>
      <trkpt lat="45.68387" lon="6.25821">
        <ele>2045.8</ele>
        <time>2022-01-13T06:36:43Z</time>
      </trkpt>
      <trkpt lat="45.68387" lon="6.25821">
        <ele>2045.8</ele>
        <time>2022-01-13T06:36:44Z</time>
      </trkpt>
      <trkpt lat="45.68388" lon="6.25822">
        <ele>2045.8</ele>
        <time>2022-01-13T06:36:45Z</time>
      </trkpt>
      <trkpt lat="45.68388" lon="6.25822">
        <ele>2045.8</ele>
        <time>2022-01-13T06:36:46Z</time>
      </trkpt>
      <trkpt lat="45.68388" lon="6.25823">
        <ele>2045.8</ele>
        <time>2022-01-13T06:36:47Z</time>
      </trkpt>
      <trkpt lat="45.68388" lon="6.25823">
        <ele>2045.8</ele>
        <time>2022-01-13T06:36:48Z</time>
      </trkpt>
      <trkpt lat="45.68388" lon="6.25824">
        <ele>2045.8</ele>
        <time>2022-01-13T06:36:49Z</time>
      </trkpt>
      <trkpt lat="45.68388" lon="6.25824">
        <ele>2045.8</ele>
        <time>2022-01-13T06:36:50Z</time>
      </trkpt>
      <trkpt lat="45.68388" lon="6.25824">
        <ele>2045.8</ele>
        <time>2022-01-13T06:36:51Z</time>
      </trkpt>
      <trkpt lat="45.68388" lon="6.25824">
        <ele>2046.8</ele>
        <time>2022-01-13T06:36:52Z</time>
      </trkpt>
      <trkpt lat="45.68388" lon="6.25824">
        <ele>2046.8</ele>
        <time>2022-01-13T06:36:53Z</time>
      </trkpt>
      <trkpt lat="45.68388" lon="6.25824">
        <ele>2046.8</ele>
        <time>2022-01-13T06:36:54Z</time>
      </trkpt>
      <trkpt lat="45.68388" lon="6.25824">
        <ele>2046.8</ele>
        <time>2022-01-13T06:36:55Z</time>
      </trkpt>
      <trkpt lat="45.68388" lon="6.25824">
        <ele>2046.8</ele>
        <time>2022-01-13T06:36:56Z</time>
      </trkpt>
      <trkpt lat="45.68388" lon="6.25824">
        <ele>2046.8</ele>
        <time>2022-01-13T06:36:57Z</time>
      </trkpt>
      <trkpt lat="45.68388" lon="6.25824">
        <ele>2046.8</ele>
        <time>2022-01-13T06:36:58Z</time>
      </trkpt>
      <trkpt lat="45.68388" lon="6.25824">
        <ele>2046.8</ele>
        <time>2022-01-13T06:36:59Z</time>
      </trkpt>
      <trkpt lat="45.68388" lon="6.25824">
        <ele>2046.8</ele>
        <time>2022-01-13T06:37:00Z</time>
      </trkpt>
      <trkpt lat="45.68388" lon="6.25824">
        <ele>2046.8</ele>
        <time>2022-01-13T06:37:01Z</time>
      </trkpt>
      <trkpt lat="45.68388" lon="6.25824">
        <ele>2046.8</ele>
        <time>2022-01-13T06:37:02Z</time>
      </trkpt>
      <trkpt lat="45.68388" lon="6.25824">
        <ele>2046.8</ele>
        <time>2022-01-13T06:37:03Z</time>
      </trkpt>
      <trkpt lat="45.68388" lon="6.25824">
        <ele>2046.8</ele>
        <time>2022-01-13T06:37:04Z</time>
      </trkpt>
      <trkpt lat="45.68388" lon="6.25824">
        <ele>2046.8</ele>
        <time>2022-01-13T06:37:05Z</time>
      </trkpt>
      <trkpt lat="45.68388" lon="6.25824">
        <ele>2046.8</ele>
        <time>2022-01-13T06:37:06Z</time>
      </trkpt>
      <trkpt lat="45.68388" lon="6.25824">
        <ele>2046.8</ele>
        <time>2022-01-13T06:37:07Z</time>
      </trkpt>
      <trkpt lat="45.68388" lon="6.25824">
        <ele>2046.8</ele>
        <time>2022-01-13T06:37:08Z</time>
      </trkpt>
      <trkpt lat="45.68388" lon="6.25824">
        <ele>2046.8</ele>
        <time>2022-01-13T06:37:09Z</time>
      </trkpt>
      <trkpt lat="45.68388" lon="6.25824">
        <ele>2046.8</ele>
        <time>2022-01-13T06:37:10Z</time>
      </trkpt>
      <trkpt lat="45.68388" lon="6.25824">
        <ele>2046.8</ele>
        <time>2022-01-13T06:37:11Z</time>
      </trkpt>
      <trkpt lat="45.68388" lon="6.25824">
        <ele>2046.8</ele>
        <time>2022-01-13T06:37:12Z</time>
      </trkpt>
      <trkpt lat="45.68388" lon="6.25824">
        <ele>2046.8</ele>
        <time>2022-01-13T06:37:13Z</time>
      </trkpt>
      <trkpt lat="45.68388" lon="6.25824">
        <ele>2046.8</ele>
        <time>2022-01-13T06:37:14Z</time>
      </trkpt>
      <trkpt lat="45.68388" lon="6.25824">
        <ele>2046.8</ele>
        <time>2022-01-13T06:37:15Z</time>
      </trkpt>
      <trkpt lat="45.68388" lon="6.25824">
        <ele>2046.8</ele>
        <time>2022-01-13T06:37:16Z</time>
      </trkpt>
      <trkpt lat="45.68388" lon="6.25824">
        <ele>2046.8</ele>
        <time>2022-01-13T06:37:17Z</time>
      </trkpt>
      <trkpt lat="45.68388" lon="6.25824">
        <ele>2046.8</ele>
        <time>2022-01-13T06:37:18Z</time>
      </trkpt>
      <trkpt lat="45.68388" lon="6.25824">
        <ele>2046.8</ele>
        <time>2022-01-13T06:37:19Z</time>
      </trkpt>
      <trkpt lat="45.68388" lon="6.25824">
        <ele>2046.8</ele>
        <time>2022-01-13T06:37:20Z</time>
      </trkpt>
      <trkpt lat="45.68388" lon="6.25824">
        <ele>2046.8</ele>
        <time>2022-01-13T06:37:21Z</time>
      </trkpt>
      <trkpt lat="45.68388" lon="6.25824">
        <ele>2046.8</ele>
        <time>2022-01-13T06:37:22Z</time>
      </trkpt>
      <trkpt lat="45.68388" lon="6.25824">
        <ele>2046.8</ele>
        <time>2022-01-13T06:37:23Z</time>
      </trkpt>
      <trkpt lat="45.68388" lon="6.25824">
        <ele>2046.8</ele>
        <time>2022-01-13T06:37:24Z</time>
      </trkpt>
      <trkpt lat="45.68388" lon="6.25824">
        <ele>2046.8</ele>
        <time>2022-01-13T06:37:25Z</time>
      </trkpt>
      <trkpt lat="45.68388" lon="6.25824">
        <ele>2046.8</ele>
        <time>2022-01-13T06:37:26Z</time>
      </trkpt>
      <trkpt lat="45.68388" lon="6.25824">
        <ele>2046.8</ele>
        <time>2022-01-13T06:37:27Z</time>
      </trkpt>
      <trkpt lat="45.68388" lon="6.25824">
        <ele>2046.8</ele>
        <time>2022-01-13T06:37:28Z</time>
      </trkpt>
      <trkpt lat="45.68388" lon="6.25824">
        <ele>2046.8</ele>
        <time>2022-01-13T06:37:29Z</time>
      </trkpt>
      <trkpt lat="45.68388" lon="6.25824">
        <ele>2046.8</ele>
        <time>2022-01-13T06:37:30Z</time>
      </trkpt>
      <trkpt lat="45.68388" lon="6.25824">
        <ele>2046.8</ele>
        <time>2022-01-13T06:37:31Z</time>
      </trkpt>
      <trkpt lat="45.68388" lon="6.25824">
        <ele>2046.8</ele>
        <time>2022-01-13T06:37:32Z</time>
      </trkpt>
      <trkpt lat="45.68388" lon="6.25824">
        <ele>2046.8</ele>
        <time>2022-01-13T06:37:33Z</time>
      </trkpt>
      <trkpt lat="45.68388" lon="6.25824">
        <ele>2046.8</ele>
        <time>2022-01-13T06:37:34Z</time>
      </trkpt>
      <trkpt lat="45.68388" lon="6.25824">
        <ele>2046.8</ele>
        <time>2022-01-13T06:37:35Z</time>
      </trkpt>
      <trkpt lat="45.68388" lon="6.25824">
        <ele>2046.8</ele>
        <time>2022-01-13T06:37:36Z</time>
      </trkpt>
      <trkpt lat="45.68388" lon="6.25824">
        <ele>2046.8</ele>
        <time>2022-01-13T06:37:37Z</time>
      </trkpt>
      <trkpt lat="45.68388" lon="6.25824">
        <ele>2046.8</ele>
        <time>2022-01-13T06:37:38Z</time>
      </trkpt>
      <trkpt lat="45.68388" lon="6.25824">
        <ele>2046.8</ele>
        <time>2022-01-13T06:37:39Z</time>
      </trkpt>
      <trkpt lat="45.68388" lon="6.25824">
        <ele>2046.8</ele>
        <time>2022-01-13T06:37:40Z</time>
      </trkpt>
      <trkpt lat="45.68388" lon="6.25824">
        <ele>2046.8</ele>
        <time>2022-01-13T06:37:41Z</time>
      </trkpt>
      <trkpt lat="45.68388" lon="6.25824">
        <ele>2045.8</ele>
        <time>2022-01-13T06:37:42Z</time>
      </trkpt>
      <trkpt lat="45.68388" lon="6.25824">
        <ele>2045.8</ele>
        <time>2022-01-13T06:37:43Z</time>
      </trkpt>
      <trkpt lat="45.68388" lon="6.25824">
        <ele>2045.8</ele>
        <time>2022-01-13T06:37:44Z</time>
      </trkpt>
      <trkpt lat="45.68388" lon="6.25824">
        <ele>2045.8</ele>
        <time>2022-01-13T06:37:45Z</time>
      </trkpt>
      <trkpt lat="45.68388" lon="6.25824">
        <ele>2045.8</ele>
        <time>2022-01-13T06:37:46Z</time>
      </trkpt>
      <trkpt lat="45.68388" lon="6.25824">
        <ele>2045.8</ele>
        <time>2022-01-13T06:37:47Z</time>
      </trkpt>
      <trkpt lat="45.68388" lon="6.25824">
        <ele>2046.8</ele>
        <time>2022-01-13T06:37:48Z</time>
      </trkpt>
      <trkpt lat="45.68388" lon="6.25824">
        <ele>2046.8</ele>
        <time>2022-01-13T06:37:49Z</time>
      </trkpt>
      <trkpt lat="45.68388" lon="6.25824">
        <ele>2046.8</ele>
        <time>2022-01-13T06:37:50Z</time>
      </trkpt>
      <trkpt lat="45.68388" lon="6.25824">
        <ele>2046.8</ele>
        <time>2022-01-13T06:37:51Z</time>
      </trkpt>
      <trkpt lat="45.68388" lon="6.25824">
        <ele>2046.8</ele>
        <time>2022-01-13T06:37:52Z</time>
      </trkpt>
      <trkpt lat="45.68388" lon="6.25824">
        <ele>2046.8</ele>
        <time>2022-01-13T06:37:53Z</time>
      </trkpt>
      <trkpt lat="45.68388" lon="6.25824">
        <ele>2046.8</ele>
        <time>2022-01-13T06:37:54Z</time>
      </trkpt>
      <trkpt lat="45.68388" lon="6.25824">
        <ele>2046.8</ele>
        <time>2022-01-13T06:37:55Z</time>
      </trkpt>
      <trkpt lat="45.68388" lon="6.25824">
        <ele>2046.8</ele>
        <time>2022-01-13T06:37:56Z</time>
      </trkpt>
      <trkpt lat="45.68389" lon="6.25824">
        <ele>2046.8</ele>
        <time>2022-01-13T06:37:57Z</time>
      </trkpt>
      <trkpt lat="45.68389" lon="6.25824">
        <ele>2046.8</ele>
        <time>2022-01-13T06:37:58Z</time>
      </trkpt>
      <trkpt lat="45.68389" lon="6.25824">
        <ele>2046.8</ele>
        <time>2022-01-13T06:37:59Z</time>
      </trkpt>
      <trkpt lat="45.68389" lon="6.25824">
        <ele>2045.8</ele>
        <time>2022-01-13T06:38:00Z</time>
      </trkpt>
      <trkpt lat="45.68389" lon="6.25824">
        <ele>2045.8</ele>
        <time>2022-01-13T06:38:01Z</time>
      </trkpt>
      <trkpt lat="45.68389" lon="6.25824">
        <ele>2045.8</ele>
        <time>2022-01-13T06:38:02Z</time>
      </trkpt>
      <trkpt lat="45.68389" lon="6.25824">
        <ele>2045.8</ele>
        <time>2022-01-13T06:38:03Z</time>
      </trkpt>
      <trkpt lat="45.68389" lon="6.25824">
        <ele>2045.8</ele>
        <time>2022-01-13T06:38:04Z</time>
      </trkpt>
      <trkpt lat="45.68389" lon="6.25823">
        <ele>2045.8</ele>
        <time>2022-01-13T06:38:05Z</time>
      </trkpt>
      <trkpt lat="45.68389" lon="6.25823">
        <ele>2045.8</ele>
        <time>2022-01-13T06:38:06Z</time>
      </trkpt>
      <trkpt lat="45.68389" lon="6.25823">
        <ele>2045.8</ele>
        <time>2022-01-13T06:38:07Z</time>
      </trkpt>
      <trkpt lat="45.68389" lon="6.25823">
        <ele>2045.8</ele>
        <time>2022-01-13T06:38:08Z</time>
      </trkpt>
      <trkpt lat="45.68389" lon="6.25823">
        <ele>2045.8</ele>
        <time>2022-01-13T06:38:09Z</time>
      </trkpt>
      <trkpt lat="45.68389" lon="6.25823">
        <ele>2045.8</ele>
        <time>2022-01-13T06:38:10Z</time>
      </trkpt>
      <trkpt lat="45.68389" lon="6.25823">
        <ele>2045.8</ele>
        <time>2022-01-13T06:38:11Z</time>
      </trkpt>
      <trkpt lat="45.68389" lon="6.25823">
        <ele>2045.8</ele>
        <time>2022-01-13T06:38:12Z</time>
      </trkpt>
      <trkpt lat="45.68389" lon="6.25823">
        <ele>2045.8</ele>
        <time>2022-01-13T06:38:13Z</time>
      </trkpt>
      <trkpt lat="45.68389" lon="6.25823">
        <ele>2045.8</ele>
        <time>2022-01-13T06:38:14Z</time>
      </trkpt>
      <trkpt lat="45.68389" lon="6.25823">
        <ele>2045.8</ele>
        <time>2022-01-13T06:38:15Z</time>
      </trkpt>
      <trkpt lat="45.68389" lon="6.25823">
        <ele>2045.8</ele>
        <time>2022-01-13T06:38:16Z</time>
      </trkpt>
      <trkpt lat="45.68389" lon="6.25823">
        <ele>2045.8</ele>
        <time>2022-01-13T06:38:17Z</time>
      </trkpt>
      <trkpt lat="45.68389" lon="6.25823">
        <ele>2045.8</ele>
        <time>2022-01-13T06:38:18Z</time>
      </trkpt>
      <trkpt lat="45.68389" lon="6.25823">
        <ele>2045.8</ele>
        <time>2022-01-13T06:38:19Z</time>
      </trkpt>
      <trkpt lat="45.68389" lon="6.25823">
        <ele>2045.8</ele>
        <time>2022-01-13T06:38:20Z</time>
      </trkpt>
      <trkpt lat="45.68389" lon="6.25823">
        <ele>2045.8</ele>
        <time>2022-01-13T06:38:21Z</time>
      </trkpt>
      <trkpt lat="45.68389" lon="6.25823">
        <ele>2046.8</ele>
        <time>2022-01-13T06:38:22Z</time>
      </trkpt>
      <trkpt lat="45.6839" lon="6.25823">
        <ele>2046.8</ele>
        <time>2022-01-13T06:38:23Z</time>
      </trkpt>
      <trkpt lat="45.6839" lon="6.25823">
        <ele>2046.8</ele>
        <time>2022-01-13T06:38:24Z</time>
      </trkpt>
      <trkpt lat="45.6839" lon="6.25823">
        <ele>2046.8</ele>
        <time>2022-01-13T06:38:25Z</time>
      </trkpt>
      <trkpt lat="45.6839" lon="6.25823">
        <ele>2046.8</ele>
        <time>2022-01-13T06:38:26Z</time>
      </trkpt>
      <trkpt lat="45.6839" lon="6.25823">
        <ele>2046.8</ele>
        <time>2022-01-13T06:38:27Z</time>
      </trkpt>
      <trkpt lat="45.6839" lon="6.25823">
        <ele>2046.8</ele>
        <time>2022-01-13T06:38:28Z</time>
      </trkpt>
      <trkpt lat="45.6839" lon="6.25823">
        <ele>2046.8</ele>
        <time>2022-01-13T06:38:29Z</time>
      </trkpt>
      <trkpt lat="45.6839" lon="6.25823">
        <ele>2046.8</ele>
        <time>2022-01-13T06:38:30Z</time>
      </trkpt>
      <trkpt lat="45.6839" lon="6.25823">
        <ele>2046.8</ele>
        <time>2022-01-13T06:38:31Z</time>
      </trkpt>
      <trkpt lat="45.6839" lon="6.25823">
        <ele>2046.8</ele>
        <time>2022-01-13T06:38:32Z</time>
      </trkpt>
      <trkpt lat="45.6839" lon="6.25823">
        <ele>2046.8</ele>
        <time>2022-01-13T06:38:33Z</time>
      </trkpt>
      <trkpt lat="45.6839" lon="6.25823">
        <ele>2046.8</ele>
        <time>2022-01-13T06:38:34Z</time>
      </trkpt>
      <trkpt lat="45.6839" lon="6.25823">
        <ele>2046.8</ele>
        <time>2022-01-13T06:38:35Z</time>
      </trkpt>
      <trkpt lat="45.6839" lon="6.25823">
        <ele>2046.8</ele>
        <time>2022-01-13T06:38:36Z</time>
      </trkpt>
      <trkpt lat="45.6839" lon="6.25823">
        <ele>2046.8</ele>
        <time>2022-01-13T06:38:37Z</time>
      </trkpt>
      <trkpt lat="45.6839" lon="6.25823">
        <ele>2046.8</ele>
        <time>2022-01-13T06:38:38Z</time>
      </trkpt>
      <trkpt lat="45.6839" lon="6.25823">
        <ele>2046.8</ele>
        <time>2022-01-13T06:38:39Z</time>
      </trkpt>
      <trkpt lat="45.6839" lon="6.25823">
        <ele>2045.8</ele>
        <time>2022-01-13T06:38:40Z</time>
      </trkpt>
      <trkpt lat="45.6839" lon="6.25823">
        <ele>2045.8</ele>
        <time>2022-01-13T06:38:41Z</time>
      </trkpt>
      <trkpt lat="45.6839" lon="6.25823">
        <ele>2045.8</ele>
        <time>2022-01-13T06:38:42Z</time>
      </trkpt>
      <trkpt lat="45.6839" lon="6.25823">
        <ele>2045.8</ele>
        <time>2022-01-13T06:38:43Z</time>
      </trkpt>
      <trkpt lat="45.6839" lon="6.25823">
        <ele>2045.8</ele>
        <time>2022-01-13T06:38:44Z</time>
      </trkpt>
      <trkpt lat="45.6839" lon="6.25823">
        <ele>2045.8</ele>
        <time>2022-01-13T06:38:45Z</time>
      </trkpt>
      <trkpt lat="45.6839" lon="6.25823">
        <ele>2045.8</ele>
        <time>2022-01-13T06:38:46Z</time>
      </trkpt>
      <trkpt lat="45.6839" lon="6.25823">
        <ele>2045.8</ele>
        <time>2022-01-13T06:38:47Z</time>
      </trkpt>
      <trkpt lat="45.6839" lon="6.25823">
        <ele>2045.8</ele>
        <time>2022-01-13T06:38:48Z</time>
      </trkpt>
      <trkpt lat="45.6839" lon="6.25823">
        <ele>2045.8</ele>
        <time>2022-01-13T06:38:49Z</time>
      </trkpt>
      <trkpt lat="45.6839" lon="6.25823">
        <ele>2045.8</ele>
        <time>2022-01-13T06:38:50Z</time>
      </trkpt>
      <trkpt lat="45.6839" lon="6.25823">
        <ele>2045.8</ele>
        <time>2022-01-13T06:38:51Z</time>
      </trkpt>
      <trkpt lat="45.6839" lon="6.25823">
        <ele>2045.8</ele>
        <time>2022-01-13T06:38:52Z</time>
      </trkpt>
      <trkpt lat="45.6839" lon="6.25823">
        <ele>2045.8</ele>
        <time>2022-01-13T06:38:53Z</time>
      </trkpt>
      <trkpt lat="45.6839" lon="6.25823">
        <ele>2045.8</ele>
        <time>2022-01-13T06:38:54Z</time>
      </trkpt>
      <trkpt lat="45.6839" lon="6.25823">
        <ele>2045.8</ele>
        <time>2022-01-13T06:38:55Z</time>
      </trkpt>
      <trkpt lat="45.6839" lon="6.25823">
        <ele>2046.8</ele>
        <time>2022-01-13T06:38:56Z</time>
      </trkpt>
      <trkpt lat="45.6839" lon="6.25823">
        <ele>2046.8</ele>
        <time>2022-01-13T06:38:57Z</time>
      </trkpt>
      <trkpt lat="45.6839" lon="6.25823">
        <ele>2046.8</ele>
        <time>2022-01-13T06:38:58Z</time>
      </trkpt>
      <trkpt lat="45.6839" lon="6.25823">
        <ele>2046.8</ele>
        <time>2022-01-13T06:38:59Z</time>
      </trkpt>
      <trkpt lat="45.6839" lon="6.25823">
        <ele>2046.8</ele>
        <time>2022-01-13T06:39:00Z</time>
      </trkpt>
      <trkpt lat="45.6839" lon="6.25823">
        <ele>2046.8</ele>
        <time>2022-01-13T06:39:01Z</time>
      </trkpt>
      <trkpt lat="45.6839" lon="6.25823">
        <ele>2046.8</ele>
        <time>2022-01-13T06:39:02Z</time>
      </trkpt>
      <trkpt lat="45.6839" lon="6.25823">
        <ele>2046.8</ele>
        <time>2022-01-13T06:39:03Z</time>
      </trkpt>
      <trkpt lat="45.6839" lon="6.25823">
        <ele>2046.8</ele>
        <time>2022-01-13T06:39:04Z</time>
      </trkpt>
      <trkpt lat="45.6839" lon="6.25823">
        <ele>2046.8</ele>
        <time>2022-01-13T06:39:05Z</time>
      </trkpt>
      <trkpt lat="45.6839" lon="6.25823">
        <ele>2046.8</ele>
        <time>2022-01-13T06:39:06Z</time>
      </trkpt>
      <trkpt lat="45.6839" lon="6.25823">
        <ele>2046.8</ele>
        <time>2022-01-13T06:39:07Z</time>
      </trkpt>
      <trkpt lat="45.6839" lon="6.25823">
        <ele>2045.8</ele>
        <time>2022-01-13T06:39:08Z</time>
      </trkpt>
      <trkpt lat="45.6839" lon="6.25823">
        <ele>2045.8</ele>
        <time>2022-01-13T06:39:09Z</time>
      </trkpt>
      <trkpt lat="45.6839" lon="6.25823">
        <ele>2045.8</ele>
        <time>2022-01-13T06:39:10Z</time>
      </trkpt>
      <trkpt lat="45.68391" lon="6.25823">
        <ele>2045.8</ele>
        <time>2022-01-13T06:39:11Z</time>
      </trkpt>
      <trkpt lat="45.68391" lon="6.25823">
        <ele>2045.8</ele>
        <time>2022-01-13T06:39:12Z</time>
      </trkpt>
      <trkpt lat="45.68391" lon="6.25823">
        <ele>2045.8</ele>
        <time>2022-01-13T06:39:13Z</time>
      </trkpt>
      <trkpt lat="45.68391" lon="6.25823">
        <ele>2045.8</ele>
        <time>2022-01-13T06:39:14Z</time>
      </trkpt>
      <trkpt lat="45.68391" lon="6.25823">
        <ele>2045.8</ele>
        <time>2022-01-13T06:39:15Z</time>
      </trkpt>
      <trkpt lat="45.68391" lon="6.25823">
        <ele>2045.8</ele>
        <time>2022-01-13T06:39:16Z</time>
      </trkpt>
      <trkpt lat="45.68391" lon="6.25823">
        <ele>2045.8</ele>
        <time>2022-01-13T06:39:17Z</time>
      </trkpt>
      <trkpt lat="45.68391" lon="6.25823">
        <ele>2045.8</ele>
        <time>2022-01-13T06:39:18Z</time>
      </trkpt>
      <trkpt lat="45.68391" lon="6.25823">
        <ele>2045.8</ele>
        <time>2022-01-13T06:39:19Z</time>
      </trkpt>
      <trkpt lat="45.68391" lon="6.25823">
        <ele>2045.8</ele>
        <time>2022-01-13T06:39:20Z</time>
      </trkpt>
      <trkpt lat="45.68391" lon="6.25823">
        <ele>2045.8</ele>
        <time>2022-01-13T06:39:21Z</time>
      </trkpt>
      <trkpt lat="45.68391" lon="6.25823">
        <ele>2045.8</ele>
        <time>2022-01-13T06:39:22Z</time>
      </trkpt>
      <trkpt lat="45.68391" lon="6.25823">
        <ele>2045.8</ele>
        <time>2022-01-13T06:39:23Z</time>
      </trkpt>
      <trkpt lat="45.68391" lon="6.25823">
        <ele>2045.8</ele>
        <time>2022-01-13T06:39:24Z</time>
      </trkpt>
      <trkpt lat="45.68391" lon="6.25823">
        <ele>2045.8</ele>
        <time>2022-01-13T06:39:25Z</time>
      </trkpt>
      <trkpt lat="45.68391" lon="6.25823">
        <ele>2045.8</ele>
        <time>2022-01-13T06:39:26Z</time>
      </trkpt>
      <trkpt lat="45.68391" lon="6.25823">
        <ele>2045.8</ele>
        <time>2022-01-13T06:39:27Z</time>
      </trkpt>
      <trkpt lat="45.68391" lon="6.25823">
        <ele>2044.8</ele>
        <time>2022-01-13T06:39:28Z</time>
      </trkpt>
      <trkpt lat="45.68391" lon="6.25823">
        <ele>2044.8</ele>
        <time>2022-01-13T06:39:29Z</time>
      </trkpt>
      <trkpt lat="45.68391" lon="6.25823">
        <ele>2044.8</ele>
        <time>2022-01-13T06:39:30Z</time>
      </trkpt>
      <trkpt lat="45.68391" lon="6.25823">
        <ele>2044.8</ele>
        <time>2022-01-13T06:39:31Z</time>
      </trkpt>
      <trkpt lat="45.68391" lon="6.25823">
        <ele>2044.8</ele>
        <time>2022-01-13T06:39:32Z</time>
      </trkpt>
      <trkpt lat="45.68391" lon="6.25823">
        <ele>2044.8</ele>
        <time>2022-01-13T06:39:33Z</time>
      </trkpt>
      <trkpt lat="45.68391" lon="6.25823">
        <ele>2044.8</ele>
        <time>2022-01-13T06:39:34Z</time>
      </trkpt>
      <trkpt lat="45.68391" lon="6.25823">
        <ele>2044.8</ele>
        <time>2022-01-13T06:39:35Z</time>
      </trkpt>
      <trkpt lat="45.68391" lon="6.25823">
        <ele>2044.8</ele>
        <time>2022-01-13T06:39:36Z</time>
      </trkpt>
      <trkpt lat="45.68391" lon="6.25823">
        <ele>2044.8</ele>
        <time>2022-01-13T06:39:37Z</time>
      </trkpt>
      <trkpt lat="45.68391" lon="6.25823">
        <ele>2044.8</ele>
        <time>2022-01-13T06:39:38Z</time>
      </trkpt>
      <trkpt lat="45.68391" lon="6.25823">
        <ele>2044.8</ele>
        <time>2022-01-13T06:39:39Z</time>
      </trkpt>
      <trkpt lat="45.68391" lon="6.25823">
        <ele>2044.8</ele>
        <time>2022-01-13T06:39:40Z</time>
      </trkpt>
      <trkpt lat="45.68391" lon="6.25823">
        <ele>2044.8</ele>
        <time>2022-01-13T06:39:41Z</time>
      </trkpt>
      <trkpt lat="45.68391" lon="6.25823">
        <ele>2044.8</ele>
        <time>2022-01-13T06:39:42Z</time>
      </trkpt>
      <trkpt lat="45.68391" lon="6.25823">
        <ele>2044.8</ele>
        <time>2022-01-13T06:39:43Z</time>
      </trkpt>
      <trkpt lat="45.68391" lon="6.25823">
        <ele>2044.8</ele>
        <time>2022-01-13T06:39:44Z</time>
      </trkpt>
      <trkpt lat="45.68391" lon="6.25823">
        <ele>2044.8</ele>
        <time>2022-01-13T06:39:45Z</time>
      </trkpt>
      <trkpt lat="45.68391" lon="6.25823">
        <ele>2044.8</ele>
        <time>2022-01-13T06:39:46Z</time>
      </trkpt>
      <trkpt lat="45.68391" lon="6.25823">
        <ele>2044.8</ele>
        <time>2022-01-13T06:39:47Z</time>
      </trkpt>
      <trkpt lat="45.68391" lon="6.25823">
        <ele>2044.8</ele>
        <time>2022-01-13T06:39:48Z</time>
      </trkpt>
      <trkpt lat="45.68391" lon="6.25823">
        <ele>2044.8</ele>
        <time>2022-01-13T06:39:49Z</time>
      </trkpt>
      <trkpt lat="45.68391" lon="6.25823">
        <ele>2044.8</ele>
        <time>2022-01-13T06:39:50Z</time>
      </trkpt>
      <trkpt lat="45.68391" lon="6.25823">
        <ele>2044.8</ele>
        <time>2022-01-13T06:39:51Z</time>
      </trkpt>
      <trkpt lat="45.68391" lon="6.25823">
        <ele>2044.8</ele>
        <time>2022-01-13T06:39:52Z</time>
      </trkpt>
      <trkpt lat="45.68391" lon="6.25823">
        <ele>2044.8</ele>
        <time>2022-01-13T06:39:53Z</time>
      </trkpt>
      <trkpt lat="45.68391" lon="6.25823">
        <ele>2044.8</ele>
        <time>2022-01-13T06:39:54Z</time>
      </trkpt>
      <trkpt lat="45.68391" lon="6.25823">
        <ele>2044.8</ele>
        <time>2022-01-13T06:39:55Z</time>
      </trkpt>
      <trkpt lat="45.68391" lon="6.25823">
        <ele>2044.8</ele>
        <time>2022-01-13T06:39:56Z</time>
      </trkpt>
      <trkpt lat="45.68391" lon="6.25823">
        <ele>2044.8</ele>
        <time>2022-01-13T06:39:57Z</time>
      </trkpt>
      <trkpt lat="45.68391" lon="6.25823">
        <ele>2044.8</ele>
        <time>2022-01-13T06:39:58Z</time>
      </trkpt>
      <trkpt lat="45.68391" lon="6.25823">
        <ele>2044.8</ele>
        <time>2022-01-13T06:39:59Z</time>
      </trkpt>
      <trkpt lat="45.68391" lon="6.25823">
        <ele>2044.8</ele>
        <time>2022-01-13T06:40:00Z</time>
      </trkpt>
      <trkpt lat="45.68391" lon="6.25823">
        <ele>2044.8</ele>
        <time>2022-01-13T06:40:01Z</time>
      </trkpt>
      <trkpt lat="45.68391" lon="6.25823">
        <ele>2044.8</ele>
        <time>2022-01-13T06:40:02Z</time>
      </trkpt>
      <trkpt lat="45.68391" lon="6.25823">
        <ele>2044.8</ele>
        <time>2022-01-13T06:40:03Z</time>
      </trkpt>
      <trkpt lat="45.68391" lon="6.25823">
        <ele>2044.8</ele>
        <time>2022-01-13T06:40:04Z</time>
      </trkpt>
      <trkpt lat="45.68391" lon="6.25823">
        <ele>2044.8</ele>
        <time>2022-01-13T06:40:05Z</time>
      </trkpt>
      <trkpt lat="45.68391" lon="6.25823">
        <ele>2044.8</ele>
        <time>2022-01-13T06:40:06Z</time>
      </trkpt>
      <trkpt lat="45.68391" lon="6.25823">
        <ele>2044.8</ele>
        <time>2022-01-13T06:40:07Z</time>
      </trkpt>
      <trkpt lat="45.68391" lon="6.25823">
        <ele>2044.8</ele>
        <time>2022-01-13T06:40:08Z</time>
      </trkpt>
      <trkpt lat="45.68391" lon="6.25823">
        <ele>2044.8</ele>
        <time>2022-01-13T06:40:09Z</time>
      </trkpt>
      <trkpt lat="45.68391" lon="6.25823">
        <ele>2044.8</ele>
        <time>2022-01-13T06:40:10Z</time>
      </trkpt>
      <trkpt lat="45.68391" lon="6.25823">
        <ele>2044.8</ele>
        <time>2022-01-13T06:40:11Z</time>
      </trkpt>
      <trkpt lat="45.68391" lon="6.25823">
        <ele>2044.8</ele>
        <time>2022-01-13T06:40:12Z</time>
      </trkpt>
      <trkpt lat="45.68391" lon="6.25823">
        <ele>2044.8</ele>
        <time>2022-01-13T06:40:13Z</time>
      </trkpt>
      <trkpt lat="45.68391" lon="6.25823">
        <ele>2044.8</ele>
        <time>2022-01-13T06:40:14Z</time>
      </trkpt>
      <trkpt lat="45.68391" lon="6.25823">
        <ele>2044.8</ele>
        <time>2022-01-13T06:40:15Z</time>
      </trkpt>
      <trkpt lat="45.68391" lon="6.25823">
        <ele>2044.8</ele>
        <time>2022-01-13T06:40:16Z</time>
      </trkpt>
      <trkpt lat="45.68391" lon="6.25823">
        <ele>2044.8</ele>
        <time>2022-01-13T06:40:17Z</time>
      </trkpt>
      <trkpt lat="45.68391" lon="6.25823">
        <ele>2044.8</ele>
        <time>2022-01-13T06:40:18Z</time>
      </trkpt>
      <trkpt lat="45.68391" lon="6.25823">
        <ele>2044.8</ele>
        <time>2022-01-13T06:40:19Z</time>
      </trkpt>
      <trkpt lat="45.68391" lon="6.25823">
        <ele>2045.8</ele>
        <time>2022-01-13T06:40:20Z</time>
      </trkpt>
      <trkpt lat="45.68391" lon="6.25823">
        <ele>2045.8</ele>
        <time>2022-01-13T06:40:21Z</time>
      </trkpt>
      <trkpt lat="45.68391" lon="6.25823">
        <ele>2045.8</ele>
        <time>2022-01-13T06:40:22Z</time>
      </trkpt>
      <trkpt lat="45.68391" lon="6.25823">
        <ele>2045.8</ele>
        <time>2022-01-13T06:40:23Z</time>
      </trkpt>
      <trkpt lat="45.68391" lon="6.25823">
        <ele>2045.8</ele>
        <time>2022-01-13T06:40:24Z</time>
      </trkpt>
      <trkpt lat="45.68391" lon="6.25823">
        <ele>2045.8</ele>
        <time>2022-01-13T06:40:25Z</time>
      </trkpt>
      <trkpt lat="45.68391" lon="6.25823">
        <ele>2044.8</ele>
        <time>2022-01-13T06:40:26Z</time>
      </trkpt>
      <trkpt lat="45.68391" lon="6.25823">
        <ele>2044.8</ele>
        <time>2022-01-13T06:40:27Z</time>
      </trkpt>
      <trkpt lat="45.68391" lon="6.25823">
        <ele>2044.8</ele>
        <time>2022-01-13T06:40:28Z</time>
      </trkpt>
      <trkpt lat="45.68391" lon="6.25823">
        <ele>2044.8</ele>
        <time>2022-01-13T06:40:29Z</time>
      </trkpt>
      <trkpt lat="45.68391" lon="6.25823">
        <ele>2044.8</ele>
        <time>2022-01-13T06:40:30Z</time>
      </trkpt>
      <trkpt lat="45.68391" lon="6.25823">
        <ele>2044.8</ele>
        <time>2022-01-13T06:40:31Z</time>
      </trkpt>
      <trkpt lat="45.68391" lon="6.25823">
        <ele>2044.8</ele>
        <time>2022-01-13T06:40:32Z</time>
      </trkpt>
      <trkpt lat="45.68391" lon="6.25823">
        <ele>2044.8</ele>
        <time>2022-01-13T06:40:33Z</time>
      </trkpt>
      <trkpt lat="45.68391" lon="6.25823">
        <ele>2044.8</ele>
        <time>2022-01-13T06:40:34Z</time>
      </trkpt>
      <trkpt lat="45.68391" lon="6.25823">
        <ele>2044.8</ele>
        <time>2022-01-13T06:40:35Z</time>
      </trkpt>
      <trkpt lat="45.68391" lon="6.25823">
        <ele>2044.8</ele>
        <time>2022-01-13T06:40:36Z</time>
      </trkpt>
      <trkpt lat="45.68391" lon="6.25823">
        <ele>2044.8</ele>
        <time>2022-01-13T06:40:37Z</time>
      </trkpt>
      <trkpt lat="45.68391" lon="6.25823">
        <ele>2044.8</ele>
        <time>2022-01-13T06:40:38Z</time>
      </trkpt>
      <trkpt lat="45.68391" lon="6.25823">
        <ele>2044.8</ele>
        <time>2022-01-13T06:40:39Z</time>
      </trkpt>
      <trkpt lat="45.68391" lon="6.25823">
        <ele>2044.8</ele>
        <time>2022-01-13T06:40:40Z</time>
      </trkpt>
      <trkpt lat="45.68391" lon="6.25823">
        <ele>2044.8</ele>
        <time>2022-01-13T06:40:41Z</time>
      </trkpt>
      <trkpt lat="45.68391" lon="6.25823">
        <ele>2044.8</ele>
        <time>2022-01-13T06:40:42Z</time>
      </trkpt>
      <trkpt lat="45.68391" lon="6.25823">
        <ele>2044.8</ele>
        <time>2022-01-13T06:40:43Z</time>
      </trkpt>
      <trkpt lat="45.68391" lon="6.25823">
        <ele>2044.8</ele>
        <time>2022-01-13T06:40:44Z</time>
      </trkpt>
      <trkpt lat="45.68391" lon="6.25823">
        <ele>2044.8</ele>
        <time>2022-01-13T06:40:45Z</time>
      </trkpt>
      <trkpt lat="45.68391" lon="6.25823">
        <ele>2044.8</ele>
        <time>2022-01-13T06:40:46Z</time>
      </trkpt>
      <trkpt lat="45.68391" lon="6.25823">
        <ele>2044.8</ele>
        <time>2022-01-13T06:40:47Z</time>
      </trkpt>
      <trkpt lat="45.68391" lon="6.25823">
        <ele>2044.8</ele>
        <time>2022-01-13T06:40:48Z</time>
      </trkpt>
      <trkpt lat="45.68391" lon="6.25823">
        <ele>2044.8</ele>
        <time>2022-01-13T06:40:49Z</time>
      </trkpt>
      <trkpt lat="45.68391" lon="6.25823">
        <ele>2044.8</ele>
        <time>2022-01-13T06:40:50Z</time>
      </trkpt>
      <trkpt lat="45.68391" lon="6.25823">
        <ele>2044.8</ele>
        <time>2022-01-13T06:40:51Z</time>
      </trkpt>
      <trkpt lat="45.68391" lon="6.25823">
        <ele>2044.8</ele>
        <time>2022-01-13T06:40:52Z</time>
      </trkpt>
      <trkpt lat="45.68391" lon="6.25823">
        <ele>2044.8</ele>
        <time>2022-01-13T06:40:53Z</time>
      </trkpt>
      <trkpt lat="45.68391" lon="6.25823">
        <ele>2044.8</ele>
        <time>2022-01-13T06:40:54Z</time>
      </trkpt>
      <trkpt lat="45.68391" lon="6.25823">
        <ele>2044.8</ele>
        <time>2022-01-13T06:40:55Z</time>
      </trkpt>
      <trkpt lat="45.68391" lon="6.25823">
        <ele>2044.8</ele>
        <time>2022-01-13T06:40:56Z</time>
      </trkpt>
      <trkpt lat="45.68391" lon="6.25823">
        <ele>2044.8</ele>
        <time>2022-01-13T06:40:57Z</time>
      </trkpt>
      <trkpt lat="45.68391" lon="6.25823">
        <ele>2045.8</ele>
        <time>2022-01-13T06:40:58Z</time>
      </trkpt>
      <trkpt lat="45.68391" lon="6.25823">
        <ele>2045.8</ele>
        <time>2022-01-13T06:40:59Z</time>
      </trkpt>
      <trkpt lat="45.68391" lon="6.25823">
        <ele>2045.8</ele>
        <time>2022-01-13T06:41:00Z</time>
      </trkpt>
      <trkpt lat="45.68391" lon="6.25823">
        <ele>2045.8</ele>
        <time>2022-01-13T06:41:01Z</time>
      </trkpt>
      <trkpt lat="45.68391" lon="6.25823">
        <ele>2045.8</ele>
        <time>2022-01-13T06:41:02Z</time>
      </trkpt>
      <trkpt lat="45.68391" lon="6.25823">
        <ele>2045.8</ele>
        <time>2022-01-13T06:41:03Z</time>
      </trkpt>
      <trkpt lat="45.68391" lon="6.25823">
        <ele>2045.8</ele>
        <time>2022-01-13T06:41:04Z</time>
      </trkpt>
      <trkpt lat="45.68391" lon="6.25823">
        <ele>2045.8</ele>
        <time>2022-01-13T06:41:05Z</time>
      </trkpt>
      <trkpt lat="45.68391" lon="6.25823">
        <ele>2045.8</ele>
        <time>2022-01-13T06:41:06Z</time>
      </trkpt>
      <trkpt lat="45.68391" lon="6.25823">
        <ele>2045.8</ele>
        <time>2022-01-13T06:41:07Z</time>
      </trkpt>
      <trkpt lat="45.68391" lon="6.25823">
        <ele>2045.8</ele>
        <time>2022-01-13T06:41:08Z</time>
      </trkpt>
      <trkpt lat="45.68391" lon="6.25823">
        <ele>2045.8</ele>
        <time>2022-01-13T06:41:09Z</time>
      </trkpt>
      <trkpt lat="45.68391" lon="6.25823">
        <ele>2045.8</ele>
        <time>2022-01-13T06:41:10Z</time>
      </trkpt>
      <trkpt lat="45.68391" lon="6.25823">
        <ele>2045.8</ele>
        <time>2022-01-13T06:41:11Z</time>
      </trkpt>
      <trkpt lat="45.68391" lon="6.25823">
        <ele>2045.8</ele>
        <time>2022-01-13T06:41:12Z</time>
      </trkpt>
      <trkpt lat="45.68391" lon="6.25823">
        <ele>2045.8</ele>
        <time>2022-01-13T06:41:13Z</time>
      </trkpt>
      <trkpt lat="45.68391" lon="6.25823">
        <ele>2044.8</ele>
        <time>2022-01-13T06:41:14Z</time>
      </trkpt>
      <trkpt lat="45.68391" lon="6.25823">
        <ele>2044.8</ele>
        <time>2022-01-13T06:41:15Z</time>
      </trkpt>
      <trkpt lat="45.68391" lon="6.25823">
        <ele>2044.8</ele>
        <time>2022-01-13T06:41:16Z</time>
      </trkpt>
      <trkpt lat="45.68391" lon="6.25823">
        <ele>2044.8</ele>
        <time>2022-01-13T06:41:17Z</time>
      </trkpt>
      <trkpt lat="45.68391" lon="6.25823">
        <ele>2044.8</ele>
        <time>2022-01-13T06:41:18Z</time>
      </trkpt>
      <trkpt lat="45.68391" lon="6.25823">
        <ele>2044.8</ele>
        <time>2022-01-13T06:41:19Z</time>
      </trkpt>
      <trkpt lat="45.68391" lon="6.25823">
        <ele>2044.8</ele>
        <time>2022-01-13T06:41:20Z</time>
      </trkpt>
      <trkpt lat="45.68391" lon="6.25823">
        <ele>2044.8</ele>
        <time>2022-01-13T06:41:21Z</time>
      </trkpt>
      <trkpt lat="45.68391" lon="6.25823">
        <ele>2044.8</ele>
        <time>2022-01-13T06:41:22Z</time>
      </trkpt>
      <trkpt lat="45.68391" lon="6.25823">
        <ele>2044.8</ele>
        <time>2022-01-13T06:41:23Z</time>
      </trkpt>
      <trkpt lat="45.68391" lon="6.25823">
        <ele>2044.8</ele>
        <time>2022-01-13T06:41:24Z</time>
      </trkpt>
      <trkpt lat="45.68391" lon="6.25823">
        <ele>2044.8</ele>
        <time>2022-01-13T06:41:25Z</time>
      </trkpt>
      <trkpt lat="45.68391" lon="6.25823">
        <ele>2044.8</ele>
        <time>2022-01-13T06:41:26Z</time>
      </trkpt>
      <trkpt lat="45.68391" lon="6.25823">
        <ele>2044.8</ele>
        <time>2022-01-13T06:41:27Z</time>
      </trkpt>
      <trkpt lat="45.68391" lon="6.25823">
        <ele>2045.8</ele>
        <time>2022-01-13T06:41:28Z</time>
      </trkpt>
      <trkpt lat="45.68391" lon="6.25823">
        <ele>2045.8</ele>
        <time>2022-01-13T06:41:29Z</time>
      </trkpt>
      <trkpt lat="45.68391" lon="6.25823">
        <ele>2045.8</ele>
        <time>2022-01-13T06:41:30Z</time>
      </trkpt>
      <trkpt lat="45.68391" lon="6.25823">
        <ele>2045.8</ele>
        <time>2022-01-13T06:41:31Z</time>
      </trkpt>
      <trkpt lat="45.68391" lon="6.25823">
        <ele>2045.8</ele>
        <time>2022-01-13T06:41:32Z</time>
      </trkpt>
      <trkpt lat="45.68391" lon="6.25823">
        <ele>2045.8</ele>
        <time>2022-01-13T06:41:33Z</time>
      </trkpt>
      <trkpt lat="45.68391" lon="6.25823">
        <ele>2044.8</ele>
        <time>2022-01-13T06:41:34Z</time>
      </trkpt>
      <trkpt lat="45.68391" lon="6.25823">
        <ele>2044.8</ele>
        <time>2022-01-13T06:41:35Z</time>
      </trkpt>
      <trkpt lat="45.68391" lon="6.25823">
        <ele>2044.8</ele>
        <time>2022-01-13T06:41:36Z</time>
      </trkpt>
      <trkpt lat="45.68391" lon="6.25823">
        <ele>2044.8</ele>
        <time>2022-01-13T06:41:37Z</time>
      </trkpt>
      <trkpt lat="45.68391" lon="6.25823">
        <ele>2044.8</ele>
        <time>2022-01-13T06:41:38Z</time>
      </trkpt>
      <trkpt lat="45.68391" lon="6.25823">
        <ele>2044.8</ele>
        <time>2022-01-13T06:41:39Z</time>
      </trkpt>
      <trkpt lat="45.68391" lon="6.25823">
        <ele>2044.8</ele>
        <time>2022-01-13T06:41:40Z</time>
      </trkpt>
      <trkpt lat="45.68391" lon="6.25823">
        <ele>2044.8</ele>
        <time>2022-01-13T06:41:41Z</time>
      </trkpt>
      <trkpt lat="45.68391" lon="6.25823">
        <ele>2044.8</ele>
        <time>2022-01-13T06:41:42Z</time>
      </trkpt>
      <trkpt lat="45.68391" lon="6.25823">
        <ele>2044.8</ele>
        <time>2022-01-13T06:41:43Z</time>
      </trkpt>
      <trkpt lat="45.68391" lon="6.25823">
        <ele>2044.8</ele>
        <time>2022-01-13T06:41:44Z</time>
      </trkpt>
      <trkpt lat="45.68391" lon="6.25823">
        <ele>2044.8</ele>
        <time>2022-01-13T06:41:45Z</time>
      </trkpt>
      <trkpt lat="45.68391" lon="6.25823">
        <ele>2044.8</ele>
        <time>2022-01-13T06:41:46Z</time>
      </trkpt>
      <trkpt lat="45.68391" lon="6.25823">
        <ele>2044.8</ele>
        <time>2022-01-13T06:41:47Z</time>
      </trkpt>
      <trkpt lat="45.68391" lon="6.25823">
        <ele>2044.8</ele>
        <time>2022-01-13T06:41:48Z</time>
      </trkpt>
      <trkpt lat="45.68391" lon="6.25823">
        <ele>2044.8</ele>
        <time>2022-01-13T06:41:49Z</time>
      </trkpt>
      <trkpt lat="45.68391" lon="6.25823">
        <ele>2044.8</ele>
        <time>2022-01-13T06:41:50Z</time>
      </trkpt>
      <trkpt lat="45.68391" lon="6.25823">
        <ele>2044.8</ele>
        <time>2022-01-13T06:41:51Z</time>
      </trkpt>
      <trkpt lat="45.68391" lon="6.25823">
        <ele>2044.8</ele>
        <time>2022-01-13T06:41:52Z</time>
      </trkpt>
      <trkpt lat="45.68391" lon="6.25823">
        <ele>2044.8</ele>
        <time>2022-01-13T06:41:53Z</time>
      </trkpt>
      <trkpt lat="45.68391" lon="6.25823">
        <ele>2044.8</ele>
        <time>2022-01-13T06:41:54Z</time>
      </trkpt>
      <trkpt lat="45.68391" lon="6.25823">
        <ele>2044.8</ele>
        <time>2022-01-13T06:41:55Z</time>
      </trkpt>
      <trkpt lat="45.68391" lon="6.25823">
        <ele>2045.8</ele>
        <time>2022-01-13T06:41:56Z</time>
      </trkpt>
      <trkpt lat="45.68391" lon="6.25823">
        <ele>2045.8</ele>
        <time>2022-01-13T06:41:57Z</time>
      </trkpt>
      <trkpt lat="45.68391" lon="6.25823">
        <ele>2045.8</ele>
        <time>2022-01-13T06:41:58Z</time>
      </trkpt>
      <trkpt lat="45.68391" lon="6.25823">
        <ele>2045.8</ele>
        <time>2022-01-13T06:41:59Z</time>
      </trkpt>
      <trkpt lat="45.68391" lon="6.25823">
        <ele>2044.8</ele>
        <time>2022-01-13T06:42:00Z</time>
      </trkpt>
      <trkpt lat="45.68391" lon="6.25823">
        <ele>2044.8</ele>
        <time>2022-01-13T06:42:01Z</time>
      </trkpt>
      <trkpt lat="45.68391" lon="6.25823">
        <ele>2044.8</ele>
        <time>2022-01-13T06:42:02Z</time>
      </trkpt>
      <trkpt lat="45.68391" lon="6.25823">
        <ele>2044.8</ele>
        <time>2022-01-13T06:42:03Z</time>
      </trkpt>
      <trkpt lat="45.68391" lon="6.25823">
        <ele>2044.8</ele>
        <time>2022-01-13T06:42:04Z</time>
      </trkpt>
      <trkpt lat="45.68391" lon="6.25823">
        <ele>2044.8</ele>
        <time>2022-01-13T06:42:05Z</time>
      </trkpt>
      <trkpt lat="45.68391" lon="6.25823">
        <ele>2044.8</ele>
        <time>2022-01-13T06:42:06Z</time>
      </trkpt>
      <trkpt lat="45.68391" lon="6.25823">
        <ele>2044.8</ele>
        <time>2022-01-13T06:42:07Z</time>
      </trkpt>
      <trkpt lat="45.68391" lon="6.25823">
        <ele>2044.8</ele>
        <time>2022-01-13T06:42:08Z</time>
      </trkpt>
      <trkpt lat="45.68391" lon="6.25823">
        <ele>2044.8</ele>
        <time>2022-01-13T06:42:09Z</time>
      </trkpt>
      <trkpt lat="45.68391" lon="6.25823">
        <ele>2044.8</ele>
        <time>2022-01-13T06:42:10Z</time>
      </trkpt>
      <trkpt lat="45.68391" lon="6.25823">
        <ele>2044.8</ele>
        <time>2022-01-13T06:42:11Z</time>
      </trkpt>
      <trkpt lat="45.68391" lon="6.25823">
        <ele>2044.8</ele>
        <time>2022-01-13T06:42:12Z</time>
      </trkpt>
      <trkpt lat="45.68391" lon="6.25823">
        <ele>2044.8</ele>
        <time>2022-01-13T06:42:13Z</time>
      </trkpt>
      <trkpt lat="45.68391" lon="6.25823">
        <ele>2044.8</ele>
        <time>2022-01-13T06:42:14Z</time>
      </trkpt>
      <trkpt lat="45.68391" lon="6.25823">
        <ele>2044.8</ele>
        <time>2022-01-13T06:42:15Z</time>
      </trkpt>
      <trkpt lat="45.68391" lon="6.25823">
        <ele>2044.8</ele>
        <time>2022-01-13T06:42:16Z</time>
      </trkpt>
      <trkpt lat="45.68391" lon="6.25823">
        <ele>2044.8</ele>
        <time>2022-01-13T06:42:17Z</time>
      </trkpt>
      <trkpt lat="45.68391" lon="6.25823">
        <ele>2044.8</ele>
        <time>2022-01-13T06:42:18Z</time>
      </trkpt>
      <trkpt lat="45.68391" lon="6.25823">
        <ele>2044.8</ele>
        <time>2022-01-13T06:42:19Z</time>
      </trkpt>
      <trkpt lat="45.68391" lon="6.25823">
        <ele>2044.8</ele>
        <time>2022-01-13T06:42:20Z</time>
      </trkpt>
      <trkpt lat="45.68391" lon="6.25823">
        <ele>2044.8</ele>
        <time>2022-01-13T06:42:21Z</time>
      </trkpt>
      <trkpt lat="45.68391" lon="6.25823">
        <ele>2044.8</ele>
        <time>2022-01-13T06:42:22Z</time>
      </trkpt>
      <trkpt lat="45.68391" lon="6.25823">
        <ele>2044.8</ele>
        <time>2022-01-13T06:42:23Z</time>
      </trkpt>
      <trkpt lat="45.68391" lon="6.25823">
        <ele>2044.8</ele>
        <time>2022-01-13T06:42:24Z</time>
      </trkpt>
      <trkpt lat="45.68391" lon="6.25823">
        <ele>2044.8</ele>
        <time>2022-01-13T06:42:25Z</time>
      </trkpt>
      <trkpt lat="45.68391" lon="6.25823">
        <ele>2044.8</ele>
        <time>2022-01-13T06:42:26Z</time>
      </trkpt>
      <trkpt lat="45.68391" lon="6.25823">
        <ele>2044.8</ele>
        <time>2022-01-13T06:42:27Z</time>
      </trkpt>
      <trkpt lat="45.68391" lon="6.25823">
        <ele>2044.8</ele>
        <time>2022-01-13T06:42:28Z</time>
      </trkpt>
      <trkpt lat="45.68391" lon="6.25823">
        <ele>2044.8</ele>
        <time>2022-01-13T06:42:29Z</time>
      </trkpt>
      <trkpt lat="45.68391" lon="6.25823">
        <ele>2044.8</ele>
        <time>2022-01-13T06:42:30Z</time>
      </trkpt>
      <trkpt lat="45.68391" lon="6.25823">
        <ele>2044.8</ele>
        <time>2022-01-13T06:42:31Z</time>
      </trkpt>
      <trkpt lat="45.68391" lon="6.25823">
        <ele>2044.8</ele>
        <time>2022-01-13T06:42:32Z</time>
      </trkpt>
      <trkpt lat="45.68391" lon="6.25823">
        <ele>2044.8</ele>
        <time>2022-01-13T06:42:33Z</time>
      </trkpt>
      <trkpt lat="45.68391" lon="6.25823">
        <ele>2044.8</ele>
        <time>2022-01-13T06:42:34Z</time>
      </trkpt>
      <trkpt lat="45.68391" lon="6.25823">
        <ele>2044.8</ele>
        <time>2022-01-13T06:42:35Z</time>
      </trkpt>
      <trkpt lat="45.68391" lon="6.25823">
        <ele>2044.8</ele>
        <time>2022-01-13T06:42:36Z</time>
      </trkpt>
      <trkpt lat="45.68391" lon="6.25823">
        <ele>2044.8</ele>
        <time>2022-01-13T06:42:37Z</time>
      </trkpt>
      <trkpt lat="45.68391" lon="6.25823">
        <ele>2044.8</ele>
        <time>2022-01-13T06:42:38Z</time>
      </trkpt>
      <trkpt lat="45.68391" lon="6.25823">
        <ele>2044.8</ele>
        <time>2022-01-13T06:42:39Z</time>
      </trkpt>
      <trkpt lat="45.68391" lon="6.25823">
        <ele>2044.8</ele>
        <time>2022-01-13T06:42:40Z</time>
      </trkpt>
      <trkpt lat="45.68391" lon="6.25823">
        <ele>2044.8</ele>
        <time>2022-01-13T06:42:41Z</time>
      </trkpt>
      <trkpt lat="45.68391" lon="6.25823">
        <ele>2044.8</ele>
        <time>2022-01-13T06:42:42Z</time>
      </trkpt>
      <trkpt lat="45.68391" lon="6.25823">
        <ele>2044.8</ele>
        <time>2022-01-13T06:42:43Z</time>
      </trkpt>
      <trkpt lat="45.68391" lon="6.25823">
        <ele>2044.8</ele>
        <time>2022-01-13T06:42:44Z</time>
      </trkpt>
      <trkpt lat="45.68391" lon="6.25823">
        <ele>2044.8</ele>
        <time>2022-01-13T06:42:45Z</time>
      </trkpt>
      <trkpt lat="45.68391" lon="6.25823">
        <ele>2044.8</ele>
        <time>2022-01-13T06:42:46Z</time>
      </trkpt>
      <trkpt lat="45.68391" lon="6.25823">
        <ele>2044.8</ele>
        <time>2022-01-13T06:42:47Z</time>
      </trkpt>
      <trkpt lat="45.68391" lon="6.25823">
        <ele>2044.8</ele>
        <time>2022-01-13T06:42:48Z</time>
      </trkpt>
      <trkpt lat="45.68391" lon="6.25823">
        <ele>2044.8</ele>
        <time>2022-01-13T06:42:49Z</time>
      </trkpt>
      <trkpt lat="45.68391" lon="6.25823">
        <ele>2044.8</ele>
        <time>2022-01-13T06:42:50Z</time>
      </trkpt>
      <trkpt lat="45.68391" lon="6.25823">
        <ele>2044.8</ele>
        <time>2022-01-13T06:42:51Z</time>
      </trkpt>
      <trkpt lat="45.68391" lon="6.25823">
        <ele>2044.8</ele>
        <time>2022-01-13T06:42:52Z</time>
      </trkpt>
      <trkpt lat="45.68391" lon="6.25823">
        <ele>2044.8</ele>
        <time>2022-01-13T06:42:53Z</time>
      </trkpt>
      <trkpt lat="45.68391" lon="6.25823">
        <ele>2044.8</ele>
        <time>2022-01-13T06:42:54Z</time>
      </trkpt>
      <trkpt lat="45.68391" lon="6.25823">
        <ele>2044.8</ele>
        <time>2022-01-13T06:42:55Z</time>
      </trkpt>
      <trkpt lat="45.68391" lon="6.25823">
        <ele>2044.8</ele>
        <time>2022-01-13T06:42:56Z</time>
      </trkpt>
      <trkpt lat="45.68391" lon="6.25823">
        <ele>2044.8</ele>
        <time>2022-01-13T06:42:57Z</time>
      </trkpt>
      <trkpt lat="45.68391" lon="6.25823">
        <ele>2044.8</ele>
        <time>2022-01-13T06:42:58Z</time>
      </trkpt>
      <trkpt lat="45.68391" lon="6.25823">
        <ele>2044.8</ele>
        <time>2022-01-13T06:42:59Z</time>
      </trkpt>
      <trkpt lat="45.68391" lon="6.25823">
        <ele>2044.8</ele>
        <time>2022-01-13T06:43:00Z</time>
      </trkpt>
      <trkpt lat="45.68391" lon="6.25823">
        <ele>2044.8</ele>
        <time>2022-01-13T06:43:01Z</time>
      </trkpt>
      <trkpt lat="45.68391" lon="6.25823">
        <ele>2045.8</ele>
        <time>2022-01-13T06:43:02Z</time>
      </trkpt>
      <trkpt lat="45.68391" lon="6.25823">
        <ele>2045.8</ele>
        <time>2022-01-13T06:43:03Z</time>
      </trkpt>
      <trkpt lat="45.68391" lon="6.25823">
        <ele>2045.8</ele>
        <time>2022-01-13T06:43:04Z</time>
      </trkpt>
      <trkpt lat="45.68391" lon="6.25823">
        <ele>2045.8</ele>
        <time>2022-01-13T06:43:05Z</time>
      </trkpt>
      <trkpt lat="45.68391" lon="6.25823">
        <ele>2045.8</ele>
        <time>2022-01-13T06:43:06Z</time>
      </trkpt>
      <trkpt lat="45.68391" lon="6.25823">
        <ele>2045.8</ele>
        <time>2022-01-13T06:43:07Z</time>
      </trkpt>
      <trkpt lat="45.68391" lon="6.25823">
        <ele>2045.8</ele>
        <time>2022-01-13T06:43:08Z</time>
      </trkpt>
      <trkpt lat="45.68391" lon="6.25823">
        <ele>2045.8</ele>
        <time>2022-01-13T06:43:09Z</time>
      </trkpt>
      <trkpt lat="45.68391" lon="6.25823">
        <ele>2045.8</ele>
        <time>2022-01-13T06:43:10Z</time>
      </trkpt>
      <trkpt lat="45.68391" lon="6.25823">
        <ele>2045.8</ele>
        <time>2022-01-13T06:43:11Z</time>
      </trkpt>
      <trkpt lat="45.68391" lon="6.25823">
        <ele>2045.8</ele>
        <time>2022-01-13T06:43:12Z</time>
      </trkpt>
      <trkpt lat="45.68391" lon="6.25823">
        <ele>2045.8</ele>
        <time>2022-01-13T06:43:13Z</time>
      </trkpt>
      <trkpt lat="45.68391" lon="6.25823">
        <ele>2045.8</ele>
        <time>2022-01-13T06:43:14Z</time>
      </trkpt>
      <trkpt lat="45.68391" lon="6.25823">
        <ele>2045.8</ele>
        <time>2022-01-13T06:43:15Z</time>
      </trkpt>
      <trkpt lat="45.68391" lon="6.25823">
        <ele>2045.8</ele>
        <time>2022-01-13T06:43:16Z</time>
      </trkpt>
      <trkpt lat="45.68391" lon="6.25823">
        <ele>2045.8</ele>
        <time>2022-01-13T06:43:17Z</time>
      </trkpt>
      <trkpt lat="45.68391" lon="6.25823">
        <ele>2045.8</ele>
        <time>2022-01-13T06:43:18Z</time>
      </trkpt>
      <trkpt lat="45.68391" lon="6.25823">
        <ele>2045.8</ele>
        <time>2022-01-13T06:43:19Z</time>
      </trkpt>
      <trkpt lat="45.68391" lon="6.25823">
        <ele>2045.8</ele>
        <time>2022-01-13T06:43:20Z</time>
      </trkpt>
      <trkpt lat="45.68391" lon="6.25823">
        <ele>2045.8</ele>
        <time>2022-01-13T06:43:21Z</time>
      </trkpt>
      <trkpt lat="45.68391" lon="6.25823">
        <ele>2045.8</ele>
        <time>2022-01-13T06:43:22Z</time>
      </trkpt>
      <trkpt lat="45.68391" lon="6.25823">
        <ele>2045.8</ele>
        <time>2022-01-13T06:43:23Z</time>
      </trkpt>
      <trkpt lat="45.68391" lon="6.25823">
        <ele>2045.8</ele>
        <time>2022-01-13T06:43:24Z</time>
      </trkpt>
      <trkpt lat="45.68391" lon="6.25823">
        <ele>2045.8</ele>
        <time>2022-01-13T06:43:25Z</time>
      </trkpt>
      <trkpt lat="45.68391" lon="6.25823">
        <ele>2045.8</ele>
        <time>2022-01-13T06:43:26Z</time>
      </trkpt>
      <trkpt lat="45.68391" lon="6.25823">
        <ele>2045.8</ele>
        <time>2022-01-13T06:43:27Z</time>
      </trkpt>
      <trkpt lat="45.68391" lon="6.25823">
        <ele>2045.8</ele>
        <time>2022-01-13T06:43:28Z</time>
      </trkpt>
      <trkpt lat="45.68391" lon="6.25823">
        <ele>2045.8</ele>
        <time>2022-01-13T06:43:29Z</time>
      </trkpt>
      <trkpt lat="45.68391" lon="6.25823">
        <ele>2045.8</ele>
        <time>2022-01-13T06:43:30Z</time>
      </trkpt>
      <trkpt lat="45.68391" lon="6.25823">
        <ele>2045.8</ele>
        <time>2022-01-13T06:43:31Z</time>
      </trkpt>
      <trkpt lat="45.68391" lon="6.25823">
        <ele>2045.8</ele>
        <time>2022-01-13T06:43:32Z</time>
      </trkpt>
      <trkpt lat="45.68391" lon="6.25823">
        <ele>2045.8</ele>
        <time>2022-01-13T06:43:33Z</time>
      </trkpt>
      <trkpt lat="45.68391" lon="6.25823">
        <ele>2044.8</ele>
        <time>2022-01-13T06:43:34Z</time>
      </trkpt>
      <trkpt lat="45.68391" lon="6.25823">
        <ele>2044.8</ele>
        <time>2022-01-13T06:43:35Z</time>
      </trkpt>
      <trkpt lat="45.68391" lon="6.25823">
        <ele>2044.8</ele>
        <time>2022-01-13T06:43:36Z</time>
      </trkpt>
      <trkpt lat="45.68391" lon="6.25823">
        <ele>2044.8</ele>
        <time>2022-01-13T06:43:37Z</time>
      </trkpt>
      <trkpt lat="45.68391" lon="6.25823">
        <ele>2044.8</ele>
        <time>2022-01-13T06:43:38Z</time>
      </trkpt>
      <trkpt lat="45.68391" lon="6.25823">
        <ele>2044.8</ele>
        <time>2022-01-13T06:43:39Z</time>
      </trkpt>
      <trkpt lat="45.68391" lon="6.25823">
        <ele>2044.8</ele>
        <time>2022-01-13T06:43:40Z</time>
      </trkpt>
      <trkpt lat="45.68391" lon="6.25823">
        <ele>2044.8</ele>
        <time>2022-01-13T06:43:41Z</time>
      </trkpt>
      <trkpt lat="45.68391" lon="6.25823">
        <ele>2045.8</ele>
        <time>2022-01-13T06:43:42Z</time>
      </trkpt>
      <trkpt lat="45.68391" lon="6.25823">
        <ele>2045.8</ele>
        <time>2022-01-13T06:43:43Z</time>
      </trkpt>
      <trkpt lat="45.68391" lon="6.25823">
        <ele>2044.8</ele>
        <time>2022-01-13T06:43:44Z</time>
      </trkpt>
      <trkpt lat="45.68391" lon="6.25823">
        <ele>2044.8</ele>
        <time>2022-01-13T06:43:45Z</time>
      </trkpt>
      <trkpt lat="45.68391" lon="6.25823">
        <ele>2044.8</ele>
        <time>2022-01-13T06:43:46Z</time>
      </trkpt>
      <trkpt lat="45.68391" lon="6.25823">
        <ele>2044.8</ele>
        <time>2022-01-13T06:43:47Z</time>
      </trkpt>
      <trkpt lat="45.68391" lon="6.25823">
        <ele>2044.8</ele>
        <time>2022-01-13T06:43:48Z</time>
      </trkpt>
      <trkpt lat="45.68391" lon="6.25823">
        <ele>2044.8</ele>
        <time>2022-01-13T06:43:49Z</time>
      </trkpt>
      <trkpt lat="45.68391" lon="6.25823">
        <ele>2044.8</ele>
        <time>2022-01-13T06:43:50Z</time>
      </trkpt>
      <trkpt lat="45.68391" lon="6.25823">
        <ele>2044.8</ele>
        <time>2022-01-13T06:43:51Z</time>
      </trkpt>
      <trkpt lat="45.68391" lon="6.25823">
        <ele>2044.8</ele>
        <time>2022-01-13T06:43:52Z</time>
      </trkpt>
      <trkpt lat="45.68391" lon="6.25823">
        <ele>2044.8</ele>
        <time>2022-01-13T06:43:53Z</time>
      </trkpt>
      <trkpt lat="45.68391" lon="6.25823">
        <ele>2044.8</ele>
        <time>2022-01-13T06:43:54Z</time>
      </trkpt>
      <trkpt lat="45.68391" lon="6.25823">
        <ele>2044.8</ele>
        <time>2022-01-13T06:43:55Z</time>
      </trkpt>
      <trkpt lat="45.68391" lon="6.25823">
        <ele>2044.8</ele>
        <time>2022-01-13T06:43:56Z</time>
      </trkpt>
      <trkpt lat="45.68391" lon="6.25823">
        <ele>2044.8</ele>
        <time>2022-01-13T06:43:57Z</time>
      </trkpt>
      <trkpt lat="45.68391" lon="6.25823">
        <ele>2044.8</ele>
        <time>2022-01-13T06:43:58Z</time>
      </trkpt>
      <trkpt lat="45.68391" lon="6.25823">
        <ele>2044.8</ele>
        <time>2022-01-13T06:43:59Z</time>
      </trkpt>
      <trkpt lat="45.68391" lon="6.25823">
        <ele>2044.8</ele>
        <time>2022-01-13T06:44:00Z</time>
      </trkpt>
      <trkpt lat="45.68391" lon="6.25823">
        <ele>2044.8</ele>
        <time>2022-01-13T06:44:01Z</time>
      </trkpt>
      <trkpt lat="45.6839" lon="6.25823">
        <ele>2044.8</ele>
        <time>2022-01-13T06:44:02Z</time>
      </trkpt>
      <trkpt lat="45.6839" lon="6.25823">
        <ele>2044.8</ele>
        <time>2022-01-13T06:44:03Z</time>
      </trkpt>
      <trkpt lat="45.6839" lon="6.25823">
        <ele>2044.8</ele>
        <time>2022-01-13T06:44:04Z</time>
      </trkpt>
      <trkpt lat="45.6839" lon="6.25823">
        <ele>2044.8</ele>
        <time>2022-01-13T06:44:05Z</time>
      </trkpt>
      <trkpt lat="45.6839" lon="6.25823">
        <ele>2044.8</ele>
        <time>2022-01-13T06:44:06Z</time>
      </trkpt>
      <trkpt lat="45.6839" lon="6.25823">
        <ele>2044.8</ele>
        <time>2022-01-13T06:44:07Z</time>
      </trkpt>
      <trkpt lat="45.6839" lon="6.25823">
        <ele>2043.7</ele>
        <time>2022-01-13T06:44:08Z</time>
      </trkpt>
      <trkpt lat="45.6839" lon="6.25823">
        <ele>2043.7</ele>
        <time>2022-01-13T06:44:09Z</time>
      </trkpt>
      <trkpt lat="45.6839" lon="6.25823">
        <ele>2043.7</ele>
        <time>2022-01-13T06:44:10Z</time>
      </trkpt>
      <trkpt lat="45.6839" lon="6.25823">
        <ele>2043.7</ele>
        <time>2022-01-13T06:44:11Z</time>
      </trkpt>
      <trkpt lat="45.6839" lon="6.25823">
        <ele>2043.7</ele>
        <time>2022-01-13T06:44:12Z</time>
      </trkpt>
      <trkpt lat="45.6839" lon="6.25823">
        <ele>2043.7</ele>
        <time>2022-01-13T06:44:13Z</time>
      </trkpt>
      <trkpt lat="45.6839" lon="6.25823">
        <ele>2043.7</ele>
        <time>2022-01-13T06:44:14Z</time>
      </trkpt>
      <trkpt lat="45.6839" lon="6.25823">
        <ele>2043.7</ele>
        <time>2022-01-13T06:44:15Z</time>
      </trkpt>
      <trkpt lat="45.6839" lon="6.25823">
        <ele>2043.7</ele>
        <time>2022-01-13T06:44:16Z</time>
      </trkpt>
      <trkpt lat="45.6839" lon="6.25823">
        <ele>2043.7</ele>
        <time>2022-01-13T06:44:17Z</time>
      </trkpt>
      <trkpt lat="45.6839" lon="6.25823">
        <ele>2043.7</ele>
        <time>2022-01-13T06:44:18Z</time>
      </trkpt>
      <trkpt lat="45.6839" lon="6.25823">
        <ele>2043.7</ele>
        <time>2022-01-13T06:44:19Z</time>
      </trkpt>
      <trkpt lat="45.6839" lon="6.25823">
        <ele>2043.7</ele>
        <time>2022-01-13T06:44:20Z</time>
      </trkpt>
      <trkpt lat="45.6839" lon="6.25823">
        <ele>2043.7</ele>
        <time>2022-01-13T06:44:21Z</time>
      </trkpt>
      <trkpt lat="45.6839" lon="6.25823">
        <ele>2043.7</ele>
        <time>2022-01-13T06:44:22Z</time>
      </trkpt>
      <trkpt lat="45.6839" lon="6.25823">
        <ele>2043.7</ele>
        <time>2022-01-13T06:44:23Z</time>
      </trkpt>
      <trkpt lat="45.6839" lon="6.25823">
        <ele>2043.7</ele>
        <time>2022-01-13T06:44:24Z</time>
      </trkpt>
      <trkpt lat="45.6839" lon="6.25823">
        <ele>2043.7</ele>
        <time>2022-01-13T06:44:25Z</time>
      </trkpt>
      <trkpt lat="45.6839" lon="6.25823">
        <ele>2043.7</ele>
        <time>2022-01-13T06:44:26Z</time>
      </trkpt>
      <trkpt lat="45.6839" lon="6.25823">
        <ele>2043.7</ele>
        <time>2022-01-13T06:44:27Z</time>
      </trkpt>
      <trkpt lat="45.68391" lon="6.25823">
        <ele>2043.7</ele>
        <time>2022-01-13T06:44:28Z</time>
      </trkpt>
      <trkpt lat="45.68392" lon="6.25818">
        <ele>2043.7</ele>
        <time>2022-01-13T06:44:29Z</time>
      </trkpt>
      <trkpt lat="45.68393" lon="6.25815">
        <ele>2042.8</ele>
        <time>2022-01-13T06:44:30Z</time>
      </trkpt>
      <trkpt lat="45.68393" lon="6.25814">
        <ele>2042.8</ele>
        <time>2022-01-13T06:44:31Z</time>
      </trkpt>
      <trkpt lat="45.68394" lon="6.25812">
        <ele>2041.7</ele>
        <time>2022-01-13T06:44:32Z</time>
      </trkpt>
      <trkpt lat="45.68395" lon="6.25811">
        <ele>2041.7</ele>
        <time>2022-01-13T06:44:33Z</time>
      </trkpt>
      <trkpt lat="45.68395" lon="6.2581">
        <ele>2041.7</ele>
        <time>2022-01-13T06:44:34Z</time>
      </trkpt>
      <trkpt lat="45.68395" lon="6.25809">
        <ele>2041.7</ele>
        <time>2022-01-13T06:44:35Z</time>
      </trkpt>
      <trkpt lat="45.68395" lon="6.25808">
        <ele>2041.7</ele>
        <time>2022-01-13T06:44:36Z</time>
      </trkpt>
      <trkpt lat="45.68396" lon="6.25807">
        <ele>2041.7</ele>
        <time>2022-01-13T06:44:37Z</time>
      </trkpt>
      <trkpt lat="45.68396" lon="6.25807">
        <ele>2041.7</ele>
        <time>2022-01-13T06:44:38Z</time>
      </trkpt>
      <trkpt lat="45.68395" lon="6.25807">
        <ele>2041.7</ele>
        <time>2022-01-13T06:44:39Z</time>
      </trkpt>
      <trkpt lat="45.68395" lon="6.25807">
        <ele>2041.7</ele>
        <time>2022-01-13T06:44:40Z</time>
      </trkpt>
      <trkpt lat="45.68395" lon="6.25806">
        <ele>2041.7</ele>
        <time>2022-01-13T06:44:41Z</time>
      </trkpt>
      <trkpt lat="45.68396" lon="6.25804">
        <ele>2040.8</ele>
        <time>2022-01-13T06:44:42Z</time>
      </trkpt>
      <trkpt lat="45.68396" lon="6.258">
        <ele>2040.8</ele>
        <time>2022-01-13T06:44:43Z</time>
      </trkpt>
      <trkpt lat="45.68398" lon="6.25796">
        <ele>2040.8</ele>
        <time>2022-01-13T06:44:44Z</time>
      </trkpt>
      <trkpt lat="45.68399" lon="6.25794">
        <ele>2040.8</ele>
        <time>2022-01-13T06:44:45Z</time>
      </trkpt>
      <trkpt lat="45.68401" lon="6.25793">
        <ele>2040.8</ele>
        <time>2022-01-13T06:44:46Z</time>
      </trkpt>
      <trkpt lat="45.68403" lon="6.25794">
        <ele>2040.8</ele>
        <time>2022-01-13T06:44:47Z</time>
      </trkpt>
      <trkpt lat="45.68404" lon="6.25795">
        <ele>2035.8</ele>
        <time>2022-01-13T06:44:48Z</time>
      </trkpt>
      <trkpt lat="45.68406" lon="6.25795">
        <ele>2035.8</ele>
        <time>2022-01-13T06:44:49Z</time>
      </trkpt>
      <trkpt lat="45.68407" lon="6.25795">
        <ele>2033.8</ele>
        <time>2022-01-13T06:44:50Z</time>
      </trkpt>
      <trkpt lat="45.68408" lon="6.25793">
        <ele>2033.8</ele>
        <time>2022-01-13T06:44:51Z</time>
      </trkpt>
      <trkpt lat="45.68408" lon="6.25792">
        <ele>2031.8</ele>
        <time>2022-01-13T06:44:52Z</time>
      </trkpt>
      <trkpt lat="45.68409" lon="6.25792">
        <ele>2031.8</ele>
        <time>2022-01-13T06:44:53Z</time>
      </trkpt>
      <trkpt lat="45.68409" lon="6.25792">
        <ele>2031.8</ele>
        <time>2022-01-13T06:44:54Z</time>
      </trkpt>
      <trkpt lat="45.68409" lon="6.25792">
        <ele>2031.8</ele>
        <time>2022-01-13T06:44:55Z</time>
      </trkpt>
      <trkpt lat="45.68409" lon="6.25792">
        <ele>2031.8</ele>
        <time>2022-01-13T06:44:56Z</time>
      </trkpt>
      <trkpt lat="45.68409" lon="6.25792">
        <ele>2031.8</ele>
        <time>2022-01-13T06:44:57Z</time>
      </trkpt>
      <trkpt lat="45.68409" lon="6.25792">
        <ele>2031.8</ele>
        <time>2022-01-13T06:44:58Z</time>
      </trkpt>
      <trkpt lat="45.68409" lon="6.25792">
        <ele>2031.8</ele>
        <time>2022-01-13T06:44:59Z</time>
      </trkpt>
      <trkpt lat="45.68409" lon="6.25792">
        <ele>2031.8</ele>
        <time>2022-01-13T06:45:00Z</time>
      </trkpt>
      <trkpt lat="45.68409" lon="6.25792">
        <ele>2031.8</ele>
        <time>2022-01-13T06:45:01Z</time>
      </trkpt>
      <trkpt lat="45.68409" lon="6.25792">
        <ele>2031.8</ele>
        <time>2022-01-13T06:45:02Z</time>
      </trkpt>
      <trkpt lat="45.68409" lon="6.25792">
        <ele>2031.8</ele>
        <time>2022-01-13T06:45:03Z</time>
      </trkpt>
      <trkpt lat="45.68409" lon="6.25792">
        <ele>2031.8</ele>
        <time>2022-01-13T06:45:04Z</time>
      </trkpt>
      <trkpt lat="45.68409" lon="6.25792">
        <ele>2031.8</ele>
        <time>2022-01-13T06:45:05Z</time>
      </trkpt>
      <trkpt lat="45.68409" lon="6.25792">
        <ele>2031.8</ele>
        <time>2022-01-13T06:45:06Z</time>
      </trkpt>
      <trkpt lat="45.68409" lon="6.25792">
        <ele>2031.8</ele>
        <time>2022-01-13T06:45:07Z</time>
      </trkpt>
      <trkpt lat="45.68409" lon="6.25792">
        <ele>2031.8</ele>
        <time>2022-01-13T06:45:08Z</time>
      </trkpt>
      <trkpt lat="45.68409" lon="6.25792">
        <ele>2031.8</ele>
        <time>2022-01-13T06:45:09Z</time>
      </trkpt>
      <trkpt lat="45.68409" lon="6.25792">
        <ele>2031.8</ele>
        <time>2022-01-13T06:45:10Z</time>
      </trkpt>
      <trkpt lat="45.68409" lon="6.25792">
        <ele>2031.8</ele>
        <time>2022-01-13T06:45:11Z</time>
      </trkpt>
      <trkpt lat="45.68411" lon="6.25793">
        <ele>2031.8</ele>
        <time>2022-01-13T06:45:12Z</time>
      </trkpt>
      <trkpt lat="45.68412" lon="6.25795">
        <ele>2031.8</ele>
        <time>2022-01-13T06:45:13Z</time>
      </trkpt>
      <trkpt lat="45.68414" lon="6.25795">
        <ele>2026.8</ele>
        <time>2022-01-13T06:45:14Z</time>
      </trkpt>
      <trkpt lat="45.68416" lon="6.25795">
        <ele>2026.8</ele>
        <time>2022-01-13T06:45:15Z</time>
      </trkpt>
      <trkpt lat="45.68419" lon="6.25794">
        <ele>2024.8</ele>
        <time>2022-01-13T06:45:16Z</time>
      </trkpt>
      <trkpt lat="45.68422" lon="6.25796">
        <ele>2024.8</ele>
        <time>2022-01-13T06:45:17Z</time>
      </trkpt>
      <trkpt lat="45.68424" lon="6.258">
        <ele>2021.8</ele>
        <time>2022-01-13T06:45:18Z</time>
      </trkpt>
      <trkpt lat="45.68428" lon="6.25806">
        <ele>2021.8</ele>
        <time>2022-01-13T06:45:19Z</time>
      </trkpt>
      <trkpt lat="45.6843" lon="6.25811">
        <ele>2018.7</ele>
        <time>2022-01-13T06:45:20Z</time>
      </trkpt>
      <trkpt lat="45.68433" lon="6.2582">
        <ele>2018.7</ele>
        <time>2022-01-13T06:45:21Z</time>
      </trkpt>
      <trkpt lat="45.68435" lon="6.25826">
        <ele>2015.8</ele>
        <time>2022-01-13T06:45:22Z</time>
      </trkpt>
      <trkpt lat="45.68439" lon="6.25835">
        <ele>2015.8</ele>
        <time>2022-01-13T06:45:23Z</time>
      </trkpt>
      <trkpt lat="45.68442" lon="6.25842">
        <ele>2012.8</ele>
        <time>2022-01-13T06:45:24Z</time>
      </trkpt>
      <trkpt lat="45.68446" lon="6.25849">
        <ele>2012.8</ele>
        <time>2022-01-13T06:45:25Z</time>
      </trkpt>
      <trkpt lat="45.68449" lon="6.25851">
        <ele>2007.7</ele>
        <time>2022-01-13T06:45:26Z</time>
      </trkpt>
      <trkpt lat="45.68453" lon="6.2585">
        <ele>2007.7</ele>
        <time>2022-01-13T06:45:27Z</time>
      </trkpt>
      <trkpt lat="45.68459" lon="6.2585">
        <ele>2000.7</ele>
        <time>2022-01-13T06:45:28Z</time>
      </trkpt>
      <trkpt lat="45.68464" lon="6.25851">
        <ele>2000.7</ele>
        <time>2022-01-13T06:45:29Z</time>
      </trkpt>
      <trkpt lat="45.6847" lon="6.2585">
        <ele>1992.8</ele>
        <time>2022-01-13T06:45:30Z</time>
      </trkpt>
      <trkpt lat="45.68475" lon="6.25849">
        <ele>1992.8</ele>
        <time>2022-01-13T06:45:31Z</time>
      </trkpt>
      <trkpt lat="45.68483" lon="6.25845">
        <ele>1983.8</ele>
        <time>2022-01-13T06:45:32Z</time>
      </trkpt>
      <trkpt lat="45.68491" lon="6.25843">
        <ele>1983.8</ele>
        <time>2022-01-13T06:45:33Z</time>
      </trkpt>
      <trkpt lat="45.68498" lon="6.25843">
        <ele>1974.8</ele>
        <time>2022-01-13T06:45:34Z</time>
      </trkpt>
      <trkpt lat="45.68503" lon="6.25839">
        <ele>1974.8</ele>
        <time>2022-01-13T06:45:35Z</time>
      </trkpt>
      <trkpt lat="45.68508" lon="6.25835">
        <ele>1965.8</ele>
        <time>2022-01-13T06:45:36Z</time>
      </trkpt>
      <trkpt lat="45.68513" lon="6.25833">
        <ele>1965.8</ele>
        <time>2022-01-13T06:45:37Z</time>
      </trkpt>
      <trkpt lat="45.68518" lon="6.25829">
        <ele>1957.8</ele>
        <time>2022-01-13T06:45:38Z</time>
      </trkpt>
      <trkpt lat="45.68522" lon="6.25826">
        <ele>1957.8</ele>
        <time>2022-01-13T06:45:39Z</time>
      </trkpt>
      <trkpt lat="45.68527" lon="6.25825">
        <ele>1949.8</ele>
        <time>2022-01-13T06:45:40Z</time>
      </trkpt>
      <trkpt lat="45.68531" lon="6.25822">
        <ele>1949.8</ele>
        <time>2022-01-13T06:45:41Z</time>
      </trkpt>
      <trkpt lat="45.68536" lon="6.25819">
        <ele>1942.8</ele>
        <time>2022-01-13T06:45:42Z</time>
      </trkpt>
      <trkpt lat="45.68542" lon="6.25819">
        <ele>1942.8</ele>
        <time>2022-01-13T06:45:43Z</time>
      </trkpt>
      <trkpt lat="45.68547" lon="6.25822">
        <ele>1934.7</ele>
        <time>2022-01-13T06:45:44Z</time>
      </trkpt>
      <trkpt lat="45.68553" lon="6.25825">
        <ele>1934.7</ele>
        <time>2022-01-13T06:45:45Z</time>
      </trkpt>
      <trkpt lat="45.68557" lon="6.25828">
        <ele>1934.7</ele>
        <time>2022-01-13T06:45:46Z</time>
      </trkpt>
      <trkpt lat="45.6856" lon="6.25829">
        <ele>1934.7</ele>
        <time>2022-01-13T06:45:47Z</time>
      </trkpt>
      <trkpt lat="45.6856" lon="6.2583">
        <ele>1934.7</ele>
        <time>2022-01-13T06:45:48Z</time>
      </trkpt>
      <trkpt lat="45.6856" lon="6.25831">
        <ele>1934.7</ele>
        <time>2022-01-13T06:45:49Z</time>
      </trkpt>
      <trkpt lat="45.6856" lon="6.25831">
        <ele>1925.8</ele>
        <time>2022-01-13T06:45:50Z</time>
      </trkpt>
      <trkpt lat="45.68561" lon="6.25831">
        <ele>1925.8</ele>
        <time>2022-01-13T06:45:51Z</time>
      </trkpt>
      <trkpt lat="45.68561" lon="6.2583">
        <ele>1925.8</ele>
        <time>2022-01-13T06:45:52Z</time>
      </trkpt>
      <trkpt lat="45.68561" lon="6.2583">
        <ele>1925.8</ele>
        <time>2022-01-13T06:45:53Z</time>
      </trkpt>
      <trkpt lat="45.68561" lon="6.2583">
        <ele>1924.8</ele>
        <time>2022-01-13T06:45:54Z</time>
      </trkpt>
      <trkpt lat="45.68561" lon="6.2583">
        <ele>1924.8</ele>
        <time>2022-01-13T06:45:55Z</time>
      </trkpt>
      <trkpt lat="45.68561" lon="6.25831">
        <ele>1924.8</ele>
        <time>2022-01-13T06:45:56Z</time>
      </trkpt>
      <trkpt lat="45.68561" lon="6.25831">
        <ele>1924.8</ele>
        <time>2022-01-13T06:45:57Z</time>
      </trkpt>
      <trkpt lat="45.68561" lon="6.25831">
        <ele>1924.8</ele>
        <time>2022-01-13T06:45:58Z</time>
      </trkpt>
      <trkpt lat="45.68561" lon="6.25831">
        <ele>1924.8</ele>
        <time>2022-01-13T06:45:59Z</time>
      </trkpt>
      <trkpt lat="45.68561" lon="6.25831">
        <ele>1924.8</ele>
        <time>2022-01-13T06:46:00Z</time>
      </trkpt>
      <trkpt lat="45.68561" lon="6.25831">
        <ele>1924.8</ele>
        <time>2022-01-13T06:46:01Z</time>
      </trkpt>
      <trkpt lat="45.68561" lon="6.25831">
        <ele>1925.8</ele>
        <time>2022-01-13T06:46:02Z</time>
      </trkpt>
      <trkpt lat="45.68561" lon="6.25831">
        <ele>1925.8</ele>
        <time>2022-01-13T06:46:03Z</time>
      </trkpt>
      <trkpt lat="45.68561" lon="6.25831">
        <ele>1925.8</ele>
        <time>2022-01-13T06:46:04Z</time>
      </trkpt>
      <trkpt lat="45.68561" lon="6.25831">
        <ele>1925.8</ele>
        <time>2022-01-13T06:46:05Z</time>
      </trkpt>
      <trkpt lat="45.68561" lon="6.25831">
        <ele>1925.8</ele>
        <time>2022-01-13T06:46:06Z</time>
      </trkpt>
      <trkpt lat="45.68561" lon="6.25831">
        <ele>1925.8</ele>
        <time>2022-01-13T06:46:07Z</time>
      </trkpt>
      <trkpt lat="45.68561" lon="6.25831">
        <ele>1925.8</ele>
        <time>2022-01-13T06:46:08Z</time>
      </trkpt>
      <trkpt lat="45.68561" lon="6.25831">
        <ele>1925.8</ele>
        <time>2022-01-13T06:46:09Z</time>
      </trkpt>
      <trkpt lat="45.68561" lon="6.25831">
        <ele>1923.8</ele>
        <time>2022-01-13T06:46:10Z</time>
      </trkpt>
      <trkpt lat="45.68561" lon="6.25831">
        <ele>1923.8</ele>
        <time>2022-01-13T06:46:11Z</time>
      </trkpt>
      <trkpt lat="45.68561" lon="6.25831">
        <ele>1923.8</ele>
        <time>2022-01-13T06:46:12Z</time>
      </trkpt>
      <trkpt lat="45.68561" lon="6.25831">
        <ele>1923.8</ele>
        <time>2022-01-13T06:46:13Z</time>
      </trkpt>
      <trkpt lat="45.68561" lon="6.25831">
        <ele>1923.8</ele>
        <time>2022-01-13T06:46:14Z</time>
      </trkpt>
      <trkpt lat="45.68561" lon="6.25831">
        <ele>1923.8</ele>
        <time>2022-01-13T06:46:15Z</time>
      </trkpt>
      <trkpt lat="45.68561" lon="6.25831">
        <ele>1923.8</ele>
        <time>2022-01-13T06:46:16Z</time>
      </trkpt>
      <trkpt lat="45.68561" lon="6.25831">
        <ele>1923.8</ele>
        <time>2022-01-13T06:46:17Z</time>
      </trkpt>
      <trkpt lat="45.68561" lon="6.25831">
        <ele>1923.8</ele>
        <time>2022-01-13T06:46:18Z</time>
      </trkpt>
      <trkpt lat="45.68561" lon="6.25831">
        <ele>1923.8</ele>
        <time>2022-01-13T06:46:19Z</time>
      </trkpt>
      <trkpt lat="45.68561" lon="6.25831">
        <ele>1923.8</ele>
        <time>2022-01-13T06:46:20Z</time>
      </trkpt>
      <trkpt lat="45.68561" lon="6.25831">
        <ele>1923.8</ele>
        <time>2022-01-13T06:46:21Z</time>
      </trkpt>
      <trkpt lat="45.68561" lon="6.25831">
        <ele>1923.8</ele>
        <time>2022-01-13T06:46:22Z</time>
      </trkpt>
      <trkpt lat="45.68561" lon="6.25831">
        <ele>1923.8</ele>
        <time>2022-01-13T06:46:23Z</time>
      </trkpt>
      <trkpt lat="45.68561" lon="6.25831">
        <ele>1923.8</ele>
        <time>2022-01-13T06:46:24Z</time>
      </trkpt>
      <trkpt lat="45.68561" lon="6.25831">
        <ele>1923.8</ele>
        <time>2022-01-13T06:46:25Z</time>
      </trkpt>
      <trkpt lat="45.68561" lon="6.25831">
        <ele>1923.8</ele>
        <time>2022-01-13T06:46:26Z</time>
      </trkpt>
      <trkpt lat="45.68561" lon="6.25831">
        <ele>1923.8</ele>
        <time>2022-01-13T06:46:27Z</time>
      </trkpt>
      <trkpt lat="45.68561" lon="6.25831">
        <ele>1923.8</ele>
        <time>2022-01-13T06:46:28Z</time>
      </trkpt>
      <trkpt lat="45.68561" lon="6.25831">
        <ele>1923.8</ele>
        <time>2022-01-13T06:46:29Z</time>
      </trkpt>
      <trkpt lat="45.68561" lon="6.25831">
        <ele>1923.8</ele>
        <time>2022-01-13T06:46:30Z</time>
      </trkpt>
      <trkpt lat="45.68561" lon="6.25831">
        <ele>1923.8</ele>
        <time>2022-01-13T06:46:31Z</time>
      </trkpt>
      <trkpt lat="45.68561" lon="6.25831">
        <ele>1923.8</ele>
        <time>2022-01-13T06:46:32Z</time>
      </trkpt>
      <trkpt lat="45.68561" lon="6.25831">
        <ele>1923.8</ele>
        <time>2022-01-13T06:46:33Z</time>
      </trkpt>
      <trkpt lat="45.68561" lon="6.25831">
        <ele>1923.8</ele>
        <time>2022-01-13T06:46:34Z</time>
      </trkpt>
      <trkpt lat="45.68561" lon="6.25831">
        <ele>1923.8</ele>
        <time>2022-01-13T06:46:35Z</time>
      </trkpt>
      <trkpt lat="45.68561" lon="6.25831">
        <ele>1923.8</ele>
        <time>2022-01-13T06:46:36Z</time>
      </trkpt>
      <trkpt lat="45.68561" lon="6.25831">
        <ele>1923.8</ele>
        <time>2022-01-13T06:46:37Z</time>
      </trkpt>
      <trkpt lat="45.68561" lon="6.25831">
        <ele>1923.8</ele>
        <time>2022-01-13T06:46:38Z</time>
      </trkpt>
      <trkpt lat="45.68561" lon="6.25831">
        <ele>1923.8</ele>
        <time>2022-01-13T06:46:39Z</time>
      </trkpt>
      <trkpt lat="45.68561" lon="6.25831">
        <ele>1924.8</ele>
        <time>2022-01-13T06:46:40Z</time>
      </trkpt>
      <trkpt lat="45.68561" lon="6.25831">
        <ele>1924.8</ele>
        <time>2022-01-13T06:46:41Z</time>
      </trkpt>
      <trkpt lat="45.68561" lon="6.25831">
        <ele>1923.8</ele>
        <time>2022-01-13T06:46:42Z</time>
      </trkpt>
      <trkpt lat="45.68561" lon="6.25831">
        <ele>1923.8</ele>
        <time>2022-01-13T06:46:43Z</time>
      </trkpt>
      <trkpt lat="45.68559" lon="6.25828">
        <ele>1923.8</ele>
        <time>2022-01-13T06:46:44Z</time>
      </trkpt>
      <trkpt lat="45.68558" lon="6.25826">
        <ele>1923.8</ele>
        <time>2022-01-13T06:46:45Z</time>
      </trkpt>
      <trkpt lat="45.68557" lon="6.25826">
        <ele>1922.9</ele>
        <time>2022-01-13T06:46:46Z</time>
      </trkpt>
      <trkpt lat="45.68556" lon="6.25825">
        <ele>1922.9</ele>
        <time>2022-01-13T06:46:47Z</time>
      </trkpt>
      <trkpt lat="45.68556" lon="6.25824">
        <ele>1922.9</ele>
        <time>2022-01-13T06:46:48Z</time>
      </trkpt>
      <trkpt lat="45.68555" lon="6.25824">
        <ele>1922.9</ele>
        <time>2022-01-13T06:46:49Z</time>
      </trkpt>
      <trkpt lat="45.68555" lon="6.25823">
        <ele>1922.9</ele>
        <time>2022-01-13T06:46:50Z</time>
      </trkpt>
      <trkpt lat="45.68555" lon="6.25823">
        <ele>1922.9</ele>
        <time>2022-01-13T06:46:51Z</time>
      </trkpt>
      <trkpt lat="45.68554" lon="6.25823">
        <ele>1922.9</ele>
        <time>2022-01-13T06:46:52Z</time>
      </trkpt>
      <trkpt lat="45.68554" lon="6.25823">
        <ele>1922.9</ele>
        <time>2022-01-13T06:46:53Z</time>
      </trkpt>
      <trkpt lat="45.68554" lon="6.25823">
        <ele>1921.8</ele>
        <time>2022-01-13T06:46:54Z</time>
      </trkpt>
      <trkpt lat="45.68554" lon="6.25822">
        <ele>1921.8</ele>
        <time>2022-01-13T06:46:55Z</time>
      </trkpt>
      <trkpt lat="45.68554" lon="6.25822">
        <ele>1921.8</ele>
        <time>2022-01-13T06:46:56Z</time>
      </trkpt>
      <trkpt lat="45.68554" lon="6.25822">
        <ele>1921.8</ele>
        <time>2022-01-13T06:46:57Z</time>
      </trkpt>
      <trkpt lat="45.68554" lon="6.25822">
        <ele>1921.8</ele>
        <time>2022-01-13T06:46:58Z</time>
      </trkpt>
      <trkpt lat="45.68554" lon="6.25822">
        <ele>1921.8</ele>
        <time>2022-01-13T06:46:59Z</time>
      </trkpt>
      <trkpt lat="45.68554" lon="6.25822">
        <ele>1921.8</ele>
        <time>2022-01-13T06:47:00Z</time>
      </trkpt>
      <trkpt lat="45.68554" lon="6.25822">
        <ele>1921.8</ele>
        <time>2022-01-13T06:47:01Z</time>
      </trkpt>
      <trkpt lat="45.68554" lon="6.25822">
        <ele>1921.8</ele>
        <time>2022-01-13T06:47:02Z</time>
      </trkpt>
      <trkpt lat="45.68554" lon="6.25822">
        <ele>1921.8</ele>
        <time>2022-01-13T06:47:03Z</time>
      </trkpt>
      <trkpt lat="45.68554" lon="6.25822">
        <ele>1921.8</ele>
        <time>2022-01-13T06:47:04Z</time>
      </trkpt>
      <trkpt lat="45.68554" lon="6.25822">
        <ele>1921.8</ele>
        <time>2022-01-13T06:47:05Z</time>
      </trkpt>
      <trkpt lat="45.68554" lon="6.25822">
        <ele>1921.8</ele>
        <time>2022-01-13T06:47:06Z</time>
      </trkpt>
      <trkpt lat="45.68554" lon="6.25822">
        <ele>1921.8</ele>
        <time>2022-01-13T06:47:07Z</time>
      </trkpt>
      <trkpt lat="45.68554" lon="6.25822">
        <ele>1921.8</ele>
        <time>2022-01-13T06:47:08Z</time>
      </trkpt>
      <trkpt lat="45.68554" lon="6.25822">
        <ele>1921.8</ele>
        <time>2022-01-13T06:47:09Z</time>
      </trkpt>
      <trkpt lat="45.68554" lon="6.25822">
        <ele>1921.8</ele>
        <time>2022-01-13T06:47:10Z</time>
      </trkpt>
      <trkpt lat="45.68554" lon="6.25822">
        <ele>1921.8</ele>
        <time>2022-01-13T06:47:11Z</time>
      </trkpt>
      <trkpt lat="45.68554" lon="6.25822">
        <ele>1921.8</ele>
        <time>2022-01-13T06:47:12Z</time>
      </trkpt>
      <trkpt lat="45.68554" lon="6.25822">
        <ele>1921.8</ele>
        <time>2022-01-13T06:47:13Z</time>
      </trkpt>
      <trkpt lat="45.68554" lon="6.25822">
        <ele>1922.9</ele>
        <time>2022-01-13T06:47:14Z</time>
      </trkpt>
      <trkpt lat="45.68554" lon="6.25822">
        <ele>1922.9</ele>
        <time>2022-01-13T06:47:15Z</time>
      </trkpt>
      <trkpt lat="45.68554" lon="6.25822">
        <ele>1922.9</ele>
        <time>2022-01-13T06:47:16Z</time>
      </trkpt>
      <trkpt lat="45.68554" lon="6.25822">
        <ele>1922.9</ele>
        <time>2022-01-13T06:47:17Z</time>
      </trkpt>
      <trkpt lat="45.68554" lon="6.25822">
        <ele>1922.9</ele>
        <time>2022-01-13T06:47:18Z</time>
      </trkpt>
      <trkpt lat="45.68554" lon="6.25822">
        <ele>1922.9</ele>
        <time>2022-01-13T06:47:19Z</time>
      </trkpt>
      <trkpt lat="45.68554" lon="6.25822">
        <ele>1922.9</ele>
        <time>2022-01-13T06:47:20Z</time>
      </trkpt>
      <trkpt lat="45.68554" lon="6.25822">
        <ele>1922.9</ele>
        <time>2022-01-13T06:47:21Z</time>
      </trkpt>
      <trkpt lat="45.68554" lon="6.25822">
        <ele>1922.9</ele>
        <time>2022-01-13T06:47:22Z</time>
      </trkpt>
      <trkpt lat="45.68553" lon="6.25819">
        <ele>1922.9</ele>
        <time>2022-01-13T06:47:23Z</time>
      </trkpt>
      <trkpt lat="45.68551" lon="6.25816">
        <ele>1919.8</ele>
        <time>2022-01-13T06:47:24Z</time>
      </trkpt>
      <trkpt lat="45.6855" lon="6.25809">
        <ele>1919.8</ele>
        <time>2022-01-13T06:47:25Z</time>
      </trkpt>
      <trkpt lat="45.6855" lon="6.25803">
        <ele>1919.8</ele>
        <time>2022-01-13T06:47:26Z</time>
      </trkpt>
      <trkpt lat="45.68551" lon="6.25798">
        <ele>1919.8</ele>
        <time>2022-01-13T06:47:27Z</time>
      </trkpt>
      <trkpt lat="45.68553" lon="6.25792">
        <ele>1912.8</ele>
        <time>2022-01-13T06:47:28Z</time>
      </trkpt>
      <trkpt lat="45.68555" lon="6.25786">
        <ele>1912.8</ele>
        <time>2022-01-13T06:47:29Z</time>
      </trkpt>
      <trkpt lat="45.68558" lon="6.25781">
        <ele>1904.7</ele>
        <time>2022-01-13T06:47:30Z</time>
      </trkpt>
      <trkpt lat="45.68561" lon="6.25775">
        <ele>1904.7</ele>
        <time>2022-01-13T06:47:31Z</time>
      </trkpt>
      <trkpt lat="45.68565" lon="6.25772">
        <ele>1896.8</ele>
        <time>2022-01-13T06:47:32Z</time>
      </trkpt>
      <trkpt lat="45.68569" lon="6.25769">
        <ele>1896.8</ele>
        <time>2022-01-13T06:47:33Z</time>
      </trkpt>
      <trkpt lat="45.68572" lon="6.25765">
        <ele>1889.8</ele>
        <time>2022-01-13T06:47:34Z</time>
      </trkpt>
      <trkpt lat="45.68576" lon="6.25762">
        <ele>1889.8</ele>
        <time>2022-01-13T06:47:35Z</time>
      </trkpt>
      <trkpt lat="45.6858" lon="6.2576">
        <ele>1884.8</ele>
        <time>2022-01-13T06:47:36Z</time>
      </trkpt>
      <trkpt lat="45.68584" lon="6.25758">
        <ele>1884.8</ele>
        <time>2022-01-13T06:47:37Z</time>
      </trkpt>
      <trkpt lat="45.68586" lon="6.25756">
        <ele>1880.8</ele>
        <time>2022-01-13T06:47:38Z</time>
      </trkpt>
      <trkpt lat="45.68587" lon="6.25753">
        <ele>1880.8</ele>
        <time>2022-01-13T06:47:39Z</time>
      </trkpt>
      <trkpt lat="45.68586" lon="6.25749">
        <ele>1876.8</ele>
        <time>2022-01-13T06:47:40Z</time>
      </trkpt>
      <trkpt lat="45.68586" lon="6.25743">
        <ele>1876.8</ele>
        <time>2022-01-13T06:47:41Z</time>
      </trkpt>
      <trkpt lat="45.68586" lon="6.25733">
        <ele>1871.8</ele>
        <time>2022-01-13T06:47:42Z</time>
      </trkpt>
      <trkpt lat="45.6859" lon="6.25723">
        <ele>1871.8</ele>
        <time>2022-01-13T06:47:43Z</time>
      </trkpt>
      <trkpt lat="45.68595" lon="6.25716">
        <ele>1863.7</ele>
        <time>2022-01-13T06:47:44Z</time>
      </trkpt>
      <trkpt lat="45.68598" lon="6.25707">
        <ele>1863.7</ele>
        <time>2022-01-13T06:47:45Z</time>
      </trkpt>
      <trkpt lat="45.686" lon="6.25699">
        <ele>1855.8</ele>
        <time>2022-01-13T06:47:46Z</time>
      </trkpt>
      <trkpt lat="45.68602" lon="6.25691">
        <ele>1855.8</ele>
        <time>2022-01-13T06:47:47Z</time>
      </trkpt>
      <trkpt lat="45.68606" lon="6.25682">
        <ele>1848.8</ele>
        <time>2022-01-13T06:47:48Z</time>
      </trkpt>
      <trkpt lat="45.68609" lon="6.25674">
        <ele>1848.8</ele>
        <time>2022-01-13T06:47:49Z</time>
      </trkpt>
      <trkpt lat="45.68611" lon="6.25667">
        <ele>1838.7</ele>
        <time>2022-01-13T06:47:50Z</time>
      </trkpt>
      <trkpt lat="45.68614" lon="6.25657">
        <ele>1838.7</ele>
        <time>2022-01-13T06:47:51Z</time>
      </trkpt>
      <trkpt lat="45.68615" lon="6.25644">
        <ele>1829.7</ele>
        <time>2022-01-13T06:47:52Z</time>
      </trkpt>
      <trkpt lat="45.68616" lon="6.25634">
        <ele>1829.7</ele>
        <time>2022-01-13T06:47:53Z</time>
      </trkpt>
      <trkpt lat="45.68618" lon="6.25623">
        <ele>1818.8</ele>
        <time>2022-01-13T06:47:54Z</time>
      </trkpt>
      <trkpt lat="45.6862" lon="6.25611">
        <ele>1818.8</ele>
        <time>2022-01-13T06:47:55Z</time>
      </trkpt>
      <trkpt lat="45.68623" lon="6.25601">
        <ele>1808.7</ele>
        <time>2022-01-13T06:47:56Z</time>
      </trkpt>
      <trkpt lat="45.68626" lon="6.25591">
        <ele>1808.7</ele>
        <time>2022-01-13T06:47:57Z</time>
      </trkpt>
      <trkpt lat="45.6863" lon="6.2558">
        <ele>1800.8</ele>
        <time>2022-01-13T06:47:58Z</time>
      </trkpt>
      <trkpt lat="45.68633" lon="6.25572">
        <ele>1800.8</ele>
        <time>2022-01-13T06:47:59Z</time>
      </trkpt>
      <trkpt lat="45.68637" lon="6.25562">
        <ele>1790.7</ele>
        <time>2022-01-13T06:48:00Z</time>
      </trkpt>
      <trkpt lat="45.68641" lon="6.25551">
        <ele>1790.7</ele>
        <time>2022-01-13T06:48:01Z</time>
      </trkpt>
      <trkpt lat="45.68644" lon="6.25541">
        <ele>1780.8</ele>
        <time>2022-01-13T06:48:02Z</time>
      </trkpt>
      <trkpt lat="45.68648" lon="6.25531">
        <ele>1780.8</ele>
        <time>2022-01-13T06:48:03Z</time>
      </trkpt>
      <trkpt lat="45.68651" lon="6.25519">
        <ele>1771.8</ele>
        <time>2022-01-13T06:48:04Z</time>
      </trkpt>
      <trkpt lat="45.68655" lon="6.25506">
        <ele>1771.8</ele>
        <time>2022-01-13T06:48:05Z</time>
      </trkpt>
      <trkpt lat="45.6866" lon="6.25499">
        <ele>1761.8</ele>
        <time>2022-01-13T06:48:06Z</time>
      </trkpt>
      <trkpt lat="45.68666" lon="6.25493">
        <ele>1761.8</ele>
        <time>2022-01-13T06:48:07Z</time>
      </trkpt>
      <trkpt lat="45.68671" lon="6.25484">
        <ele>1753.8</ele>
        <time>2022-01-13T06:48:08Z</time>
      </trkpt>
      <trkpt lat="45.68676" lon="6.25476">
        <ele>1753.8</ele>
        <time>2022-01-13T06:48:09Z</time>
      </trkpt>
      <trkpt lat="45.6868" lon="6.25467">
        <ele>1743.8</ele>
        <time>2022-01-13T06:48:10Z</time>
      </trkpt>
      <trkpt lat="45.68683" lon="6.25457">
        <ele>1743.8</ele>
        <time>2022-01-13T06:48:11Z</time>
      </trkpt>
      <trkpt lat="45.68686" lon="6.25449">
        <ele>1733.7</ele>
        <time>2022-01-13T06:48:12Z</time>
      </trkpt>
      <trkpt lat="45.68691" lon="6.2544">
        <ele>1733.7</ele>
        <time>2022-01-13T06:48:13Z</time>
      </trkpt>
      <trkpt lat="45.68698" lon="6.25433">
        <ele>1725.8</ele>
        <time>2022-01-13T06:48:14Z</time>
      </trkpt>
      <trkpt lat="45.68703" lon="6.25426">
        <ele>1725.8</ele>
        <time>2022-01-13T06:48:15Z</time>
      </trkpt>
      <trkpt lat="45.68708" lon="6.2542">
        <ele>1716.8</ele>
        <time>2022-01-13T06:48:16Z</time>
      </trkpt>
      <trkpt lat="45.68712" lon="6.25411">
        <ele>1716.8</ele>
        <time>2022-01-13T06:48:17Z</time>
      </trkpt>
      <trkpt lat="45.68714" lon="6.25402">
        <ele>1710.7</ele>
        <time>2022-01-13T06:48:18Z</time>
      </trkpt>
      <trkpt lat="45.68717" lon="6.25393">
        <ele>1710.7</ele>
        <time>2022-01-13T06:48:19Z</time>
      </trkpt>
      <trkpt lat="45.6872" lon="6.25384">
        <ele>1702.8</ele>
        <time>2022-01-13T06:48:20Z</time>
      </trkpt>
      <trkpt lat="45.68722" lon="6.25375">
        <ele>1702.8</ele>
        <time>2022-01-13T06:48:21Z</time>
      </trkpt>
      <trkpt lat="45.68724" lon="6.25365">
        <ele>1702.8</ele>
        <time>2022-01-13T06:48:22Z</time>
      </trkpt>
      <trkpt lat="45.68725" lon="6.25356">
        <ele>1695.8</ele>
        <time>2022-01-13T06:48:23Z</time>
      </trkpt>
      <trkpt lat="45.68729" lon="6.25345">
        <ele>1688.8</ele>
        <time>2022-01-13T06:48:24Z</time>
      </trkpt>
      <trkpt lat="45.68733" lon="6.2534">
        <ele>1688.8</ele>
        <time>2022-01-13T06:48:25Z</time>
      </trkpt>
      <trkpt lat="45.68737" lon="6.25335">
        <ele>1688.8</ele>
        <time>2022-01-13T06:48:26Z</time>
      </trkpt>
      <trkpt lat="45.6874" lon="6.25332">
        <ele>1688.8</ele>
        <time>2022-01-13T06:48:27Z</time>
      </trkpt>
      <trkpt lat="45.68742" lon="6.25331">
        <ele>1688.8</ele>
        <time>2022-01-13T06:48:28Z</time>
      </trkpt>
      <trkpt lat="45.68742" lon="6.25332">
        <ele>1688.8</ele>
        <time>2022-01-13T06:48:29Z</time>
      </trkpt>
      <trkpt lat="45.68742" lon="6.25332">
        <ele>1680.8</ele>
        <time>2022-01-13T06:48:30Z</time>
      </trkpt>
      <trkpt lat="45.68742" lon="6.25332">
        <ele>1680.8</ele>
        <time>2022-01-13T06:48:31Z</time>
      </trkpt>
      <trkpt lat="45.68742" lon="6.25332">
        <ele>1679.8</ele>
        <time>2022-01-13T06:48:32Z</time>
      </trkpt>
      <trkpt lat="45.68742" lon="6.25332">
        <ele>1679.8</ele>
        <time>2022-01-13T06:48:33Z</time>
      </trkpt>
      <trkpt lat="45.68742" lon="6.25332">
        <ele>1679.8</ele>
        <time>2022-01-13T06:48:34Z</time>
      </trkpt>
      <trkpt lat="45.68742" lon="6.25332">
        <ele>1679.8</ele>
        <time>2022-01-13T06:48:35Z</time>
      </trkpt>
      <trkpt lat="45.68742" lon="6.25332">
        <ele>1679.8</ele>
        <time>2022-01-13T06:48:36Z</time>
      </trkpt>
      <trkpt lat="45.68742" lon="6.25332">
        <ele>1679.8</ele>
        <time>2022-01-13T06:48:37Z</time>
      </trkpt>
      <trkpt lat="45.68742" lon="6.25332">
        <ele>1679.8</ele>
        <time>2022-01-13T06:48:38Z</time>
      </trkpt>
      <trkpt lat="45.68742" lon="6.25332">
        <ele>1679.8</ele>
        <time>2022-01-13T06:48:39Z</time>
      </trkpt>
      <trkpt lat="45.68742" lon="6.25332">
        <ele>1679.8</ele>
        <time>2022-01-13T06:48:40Z</time>
      </trkpt>
      <trkpt lat="45.68742" lon="6.25332">
        <ele>1679.8</ele>
        <time>2022-01-13T06:48:41Z</time>
      </trkpt>
      <trkpt lat="45.68742" lon="6.25332">
        <ele>1679.8</ele>
        <time>2022-01-13T06:48:42Z</time>
      </trkpt>
      <trkpt lat="45.68742" lon="6.25332">
        <ele>1679.8</ele>
        <time>2022-01-13T06:48:43Z</time>
      </trkpt>
      <trkpt lat="45.68742" lon="6.25332">
        <ele>1679.8</ele>
        <time>2022-01-13T06:48:44Z</time>
      </trkpt>
      <trkpt lat="45.68742" lon="6.25332">
        <ele>1679.8</ele>
        <time>2022-01-13T06:48:45Z</time>
      </trkpt>
      <trkpt lat="45.68742" lon="6.25332">
        <ele>1679.8</ele>
        <time>2022-01-13T06:48:46Z</time>
      </trkpt>
      <trkpt lat="45.68742" lon="6.25332">
        <ele>1679.8</ele>
        <time>2022-01-13T06:48:47Z</time>
      </trkpt>
      <trkpt lat="45.68742" lon="6.25332">
        <ele>1679.8</ele>
        <time>2022-01-13T06:48:48Z</time>
      </trkpt>
      <trkpt lat="45.68742" lon="6.25332">
        <ele>1679.8</ele>
        <time>2022-01-13T06:48:49Z</time>
      </trkpt>
      <trkpt lat="45.68742" lon="6.25332">
        <ele>1679.8</ele>
        <time>2022-01-13T06:48:50Z</time>
      </trkpt>
      <trkpt lat="45.68742" lon="6.25332">
        <ele>1679.8</ele>
        <time>2022-01-13T06:48:51Z</time>
      </trkpt>
      <trkpt lat="45.68742" lon="6.25332">
        <ele>1679.8</ele>
        <time>2022-01-13T06:48:52Z</time>
      </trkpt>
      <trkpt lat="45.68742" lon="6.25332">
        <ele>1679.8</ele>
        <time>2022-01-13T06:48:53Z</time>
      </trkpt>
      <trkpt lat="45.68742" lon="6.25332">
        <ele>1679.8</ele>
        <time>2022-01-13T06:48:54Z</time>
      </trkpt>
      <trkpt lat="45.68742" lon="6.25332">
        <ele>1679.8</ele>
        <time>2022-01-13T06:48:55Z</time>
      </trkpt>
      <trkpt lat="45.68742" lon="6.25332">
        <ele>1679.8</ele>
        <time>2022-01-13T06:48:56Z</time>
      </trkpt>
      <trkpt lat="45.68742" lon="6.25332">
        <ele>1679.8</ele>
        <time>2022-01-13T06:48:57Z</time>
      </trkpt>
      <trkpt lat="45.68742" lon="6.25332">
        <ele>1680.8</ele>
        <time>2022-01-13T06:48:58Z</time>
      </trkpt>
      <trkpt lat="45.68742" lon="6.25332">
        <ele>1680.8</ele>
        <time>2022-01-13T06:48:59Z</time>
      </trkpt>
      <trkpt lat="45.68742" lon="6.25332">
        <ele>1679.8</ele>
        <time>2022-01-13T06:49:00Z</time>
      </trkpt>
      <trkpt lat="45.68742" lon="6.25332">
        <ele>1679.8</ele>
        <time>2022-01-13T06:49:01Z</time>
      </trkpt>
      <trkpt lat="45.68742" lon="6.25332">
        <ele>1679.8</ele>
        <time>2022-01-13T06:49:02Z</time>
      </trkpt>
      <trkpt lat="45.68742" lon="6.25332">
        <ele>1679.8</ele>
        <time>2022-01-13T06:49:03Z</time>
      </trkpt>
      <trkpt lat="45.68742" lon="6.25332">
        <ele>1679.8</ele>
        <time>2022-01-13T06:49:04Z</time>
      </trkpt>
      <trkpt lat="45.68742" lon="6.25332">
        <ele>1679.8</ele>
        <time>2022-01-13T06:49:05Z</time>
      </trkpt>
      <trkpt lat="45.68742" lon="6.25332">
        <ele>1679.8</ele>
        <time>2022-01-13T06:49:06Z</time>
      </trkpt>
      <trkpt lat="45.68742" lon="6.25332">
        <ele>1679.8</ele>
        <time>2022-01-13T06:49:07Z</time>
      </trkpt>
      <trkpt lat="45.68742" lon="6.25332">
        <ele>1679.8</ele>
        <time>2022-01-13T06:49:08Z</time>
      </trkpt>
      <trkpt lat="45.68742" lon="6.25332">
        <ele>1679.8</ele>
        <time>2022-01-13T06:49:09Z</time>
      </trkpt>
      <trkpt lat="45.68742" lon="6.25332">
        <ele>1679.8</ele>
        <time>2022-01-13T06:49:10Z</time>
      </trkpt>
      <trkpt lat="45.68742" lon="6.25332">
        <ele>1679.8</ele>
        <time>2022-01-13T06:49:11Z</time>
      </trkpt>
      <trkpt lat="45.68742" lon="6.25332">
        <ele>1679.8</ele>
        <time>2022-01-13T06:49:12Z</time>
      </trkpt>
      <trkpt lat="45.68742" lon="6.25332">
        <ele>1679.8</ele>
        <time>2022-01-13T06:49:13Z</time>
      </trkpt>
      <trkpt lat="45.68742" lon="6.25332">
        <ele>1679.8</ele>
        <time>2022-01-13T06:49:14Z</time>
      </trkpt>
      <trkpt lat="45.68742" lon="6.25332">
        <ele>1679.8</ele>
        <time>2022-01-13T06:49:15Z</time>
      </trkpt>
      <trkpt lat="45.68742" lon="6.25332">
        <ele>1677.8</ele>
        <time>2022-01-13T06:49:16Z</time>
      </trkpt>
      <trkpt lat="45.68742" lon="6.25332">
        <ele>1677.8</ele>
        <time>2022-01-13T06:49:17Z</time>
      </trkpt>
      <trkpt lat="45.68742" lon="6.25332">
        <ele>1677.8</ele>
        <time>2022-01-13T06:49:18Z</time>
      </trkpt>
      <trkpt lat="45.68742" lon="6.25332">
        <ele>1677.8</ele>
        <time>2022-01-13T06:49:19Z</time>
      </trkpt>
      <trkpt lat="45.68742" lon="6.25332">
        <ele>1678.7</ele>
        <time>2022-01-13T06:49:20Z</time>
      </trkpt>
      <trkpt lat="45.68742" lon="6.25332">
        <ele>1678.7</ele>
        <time>2022-01-13T06:49:21Z</time>
      </trkpt>
      <trkpt lat="45.68742" lon="6.25332">
        <ele>1677.8</ele>
        <time>2022-01-13T06:49:22Z</time>
      </trkpt>
      <trkpt lat="45.68742" lon="6.25328">
        <ele>1677.8</ele>
        <time>2022-01-13T06:49:23Z</time>
      </trkpt>
      <trkpt lat="45.68741" lon="6.25323">
        <ele>1677.8</ele>
        <time>2022-01-13T06:49:24Z</time>
      </trkpt>
      <trkpt lat="45.6874" lon="6.25318">
        <ele>1677.8</ele>
        <time>2022-01-13T06:49:25Z</time>
      </trkpt>
      <trkpt lat="45.68741" lon="6.25314">
        <ele>1677.8</ele>
        <time>2022-01-13T06:49:26Z</time>
      </trkpt>
      <trkpt lat="45.68741" lon="6.2531">
        <ele>1677.8</ele>
        <time>2022-01-13T06:49:27Z</time>
      </trkpt>
      <trkpt lat="45.68742" lon="6.25304">
        <ele>1677.8</ele>
        <time>2022-01-13T06:49:28Z</time>
      </trkpt>
      <trkpt lat="45.68743" lon="6.25294">
        <ele>1677.8</ele>
        <time>2022-01-13T06:49:29Z</time>
      </trkpt>
      <trkpt lat="45.68745" lon="6.25285">
        <ele>1668.8</ele>
        <time>2022-01-13T06:49:30Z</time>
      </trkpt>
      <trkpt lat="45.68747" lon="6.25276">
        <ele>1668.8</ele>
        <time>2022-01-13T06:49:31Z</time>
      </trkpt>
      <trkpt lat="45.6875" lon="6.25269">
        <ele>1668.8</ele>
        <time>2022-01-13T06:49:32Z</time>
      </trkpt>
      <trkpt lat="45.68754" lon="6.25259">
        <ele>1668.8</ele>
        <time>2022-01-13T06:49:33Z</time>
      </trkpt>
      <trkpt lat="45.68758" lon="6.25251">
        <ele>1661.8</ele>
        <time>2022-01-13T06:49:34Z</time>
      </trkpt>
      <trkpt lat="45.68762" lon="6.25244">
        <ele>1661.8</ele>
        <time>2022-01-13T06:49:35Z</time>
      </trkpt>
      <trkpt lat="45.68766" lon="6.2524">
        <ele>1657.8</ele>
        <time>2022-01-13T06:49:36Z</time>
      </trkpt>
      <trkpt lat="45.68771" lon="6.25234">
        <ele>1657.8</ele>
        <time>2022-01-13T06:49:37Z</time>
      </trkpt>
      <trkpt lat="45.68776" lon="6.2523">
        <ele>1655.8</ele>
        <time>2022-01-13T06:49:38Z</time>
      </trkpt>
      <trkpt lat="45.68782" lon="6.25227">
        <ele>1655.8</ele>
        <time>2022-01-13T06:49:39Z</time>
      </trkpt>
      <trkpt lat="45.68786" lon="6.25225">
        <ele>1652.8</ele>
        <time>2022-01-13T06:49:40Z</time>
      </trkpt>
      <trkpt lat="45.6879" lon="6.25221">
        <ele>1652.8</ele>
        <time>2022-01-13T06:49:41Z</time>
      </trkpt>
      <trkpt lat="45.68796" lon="6.25217">
        <ele>1648.8</ele>
        <time>2022-01-13T06:49:42Z</time>
      </trkpt>
      <trkpt lat="45.68801" lon="6.25214">
        <ele>1648.8</ele>
        <time>2022-01-13T06:49:43Z</time>
      </trkpt>
      <trkpt lat="45.68806" lon="6.2521">
        <ele>1646.7</ele>
        <time>2022-01-13T06:49:44Z</time>
      </trkpt>
      <trkpt lat="45.68812" lon="6.25207">
        <ele>1646.7</ele>
        <time>2022-01-13T06:49:45Z</time>
      </trkpt>
      <trkpt lat="45.68816" lon="6.25205">
        <ele>1645.8</ele>
        <time>2022-01-13T06:49:46Z</time>
      </trkpt>
      <trkpt lat="45.68823" lon="6.25203">
        <ele>1645.8</ele>
        <time>2022-01-13T06:49:47Z</time>
      </trkpt>
      <trkpt lat="45.68828" lon="6.25202">
        <ele>1642.7</ele>
        <time>2022-01-13T06:49:48Z</time>
      </trkpt>
      <trkpt lat="45.68835" lon="6.25201">
        <ele>1642.7</ele>
        <time>2022-01-13T06:49:49Z</time>
      </trkpt>
      <trkpt lat="45.68841" lon="6.25201">
        <ele>1639.8</ele>
        <time>2022-01-13T06:49:50Z</time>
      </trkpt>
      <trkpt lat="45.68847" lon="6.252">
        <ele>1639.8</ele>
        <time>2022-01-13T06:49:51Z</time>
      </trkpt>
      <trkpt lat="45.68854" lon="6.252">
        <ele>1636.8</ele>
        <time>2022-01-13T06:49:52Z</time>
      </trkpt>
      <trkpt lat="45.68859" lon="6.25199">
        <ele>1636.8</ele>
        <time>2022-01-13T06:49:53Z</time>
      </trkpt>
      <trkpt lat="45.68864" lon="6.25199">
        <ele>1633.7</ele>
        <time>2022-01-13T06:49:54Z</time>
      </trkpt>
      <trkpt lat="45.68871" lon="6.252">
        <ele>1633.7</ele>
        <time>2022-01-13T06:49:55Z</time>
      </trkpt>
      <trkpt lat="45.68878" lon="6.25202">
        <ele>1629.8</ele>
        <time>2022-01-13T06:49:56Z</time>
      </trkpt>
      <trkpt lat="45.68884" lon="6.25205">
        <ele>1629.8</ele>
        <time>2022-01-13T06:49:57Z</time>
      </trkpt>
      <trkpt lat="45.68889" lon="6.25208">
        <ele>1626.7</ele>
        <time>2022-01-13T06:49:58Z</time>
      </trkpt>
      <trkpt lat="45.68895" lon="6.2521">
        <ele>1626.7</ele>
        <time>2022-01-13T06:49:59Z</time>
      </trkpt>
      <trkpt lat="45.68903" lon="6.25211">
        <ele>1623.8</ele>
        <time>2022-01-13T06:50:00Z</time>
      </trkpt>
      <trkpt lat="45.68909" lon="6.25211">
        <ele>1623.8</ele>
        <time>2022-01-13T06:50:01Z</time>
      </trkpt>
      <trkpt lat="45.68913" lon="6.25211">
        <ele>1620.8</ele>
        <time>2022-01-13T06:50:02Z</time>
      </trkpt>
      <trkpt lat="45.68921" lon="6.2521">
        <ele>1620.8</ele>
        <time>2022-01-13T06:50:03Z</time>
      </trkpt>
      <trkpt lat="45.68927" lon="6.2521">
        <ele>1618.8</ele>
        <time>2022-01-13T06:50:04Z</time>
      </trkpt>
      <trkpt lat="45.68932" lon="6.2521">
        <ele>1618.8</ele>
        <time>2022-01-13T06:50:05Z</time>
      </trkpt>
      <trkpt lat="45.68938" lon="6.25209">
        <ele>1615.8</ele>
        <time>2022-01-13T06:50:06Z</time>
      </trkpt>
      <trkpt lat="45.68943" lon="6.25209">
        <ele>1615.8</ele>
        <time>2022-01-13T06:50:07Z</time>
      </trkpt>
      <trkpt lat="45.68947" lon="6.2521">
        <ele>1613.8</ele>
        <time>2022-01-13T06:50:08Z</time>
      </trkpt>
      <trkpt lat="45.6895" lon="6.25211">
        <ele>1613.8</ele>
        <time>2022-01-13T06:50:09Z</time>
      </trkpt>
      <trkpt lat="45.68952" lon="6.25211">
        <ele>1611.8</ele>
        <time>2022-01-13T06:50:10Z</time>
      </trkpt>
      <trkpt lat="45.68954" lon="6.2521">
        <ele>1611.8</ele>
        <time>2022-01-13T06:50:11Z</time>
      </trkpt>
      <trkpt lat="45.68955" lon="6.25209">
        <ele>1610.7</ele>
        <time>2022-01-13T06:50:12Z</time>
      </trkpt>
      <trkpt lat="45.68957" lon="6.25208">
        <ele>1610.7</ele>
        <time>2022-01-13T06:50:13Z</time>
      </trkpt>
      <trkpt lat="45.68957" lon="6.25208">
        <ele>1610.7</ele>
        <time>2022-01-13T06:50:14Z</time>
      </trkpt>
      <trkpt lat="45.68958" lon="6.25208">
        <ele>1610.7</ele>
        <time>2022-01-13T06:50:15Z</time>
      </trkpt>
      <trkpt lat="45.68958" lon="6.25208">
        <ele>1610.7</ele>
        <time>2022-01-13T06:50:16Z</time>
      </trkpt>
      <trkpt lat="45.68958" lon="6.25208">
        <ele>1610.7</ele>
        <time>2022-01-13T06:50:17Z</time>
      </trkpt>
      <trkpt lat="45.68959" lon="6.25209">
        <ele>1609.8</ele>
        <time>2022-01-13T06:50:18Z</time>
      </trkpt>
      <trkpt lat="45.68959" lon="6.25209">
        <ele>1609.8</ele>
        <time>2022-01-13T06:50:19Z</time>
      </trkpt>
      <trkpt lat="45.68959" lon="6.25209">
        <ele>1609.8</ele>
        <time>2022-01-13T06:50:20Z</time>
      </trkpt>
      <trkpt lat="45.68959" lon="6.25208">
        <ele>1609.8</ele>
        <time>2022-01-13T06:50:21Z</time>
      </trkpt>
      <trkpt lat="45.68959" lon="6.25208">
        <ele>1609.8</ele>
        <time>2022-01-13T06:50:22Z</time>
      </trkpt>
      <trkpt lat="45.68959" lon="6.25208">
        <ele>1609.8</ele>
        <time>2022-01-13T06:50:23Z</time>
      </trkpt>
      <trkpt lat="45.68959" lon="6.25209">
        <ele>1610.7</ele>
        <time>2022-01-13T06:50:24Z</time>
      </trkpt>
      <trkpt lat="45.68959" lon="6.25209">
        <ele>1610.7</ele>
        <time>2022-01-13T06:50:25Z</time>
      </trkpt>
      <trkpt lat="45.68959" lon="6.25209">
        <ele>1610.7</ele>
        <time>2022-01-13T06:50:26Z</time>
      </trkpt>
      <trkpt lat="45.68959" lon="6.25209">
        <ele>1610.7</ele>
        <time>2022-01-13T06:50:27Z</time>
      </trkpt>
      <trkpt lat="45.68959" lon="6.25209">
        <ele>1610.7</ele>
        <time>2022-01-13T06:50:28Z</time>
      </trkpt>
      <trkpt lat="45.68959" lon="6.25209">
        <ele>1610.7</ele>
        <time>2022-01-13T06:50:29Z</time>
      </trkpt>
      <trkpt lat="45.68959" lon="6.25209">
        <ele>1610.7</ele>
        <time>2022-01-13T06:50:30Z</time>
      </trkpt>
      <trkpt lat="45.68959" lon="6.25209">
        <ele>1610.7</ele>
        <time>2022-01-13T06:50:31Z</time>
      </trkpt>
      <trkpt lat="45.68959" lon="6.25209">
        <ele>1609.8</ele>
        <time>2022-01-13T06:50:32Z</time>
      </trkpt>
      <trkpt lat="45.68959" lon="6.25209">
        <ele>1609.8</ele>
        <time>2022-01-13T06:50:33Z</time>
      </trkpt>
      <trkpt lat="45.68959" lon="6.25209">
        <ele>1609.8</ele>
        <time>2022-01-13T06:50:34Z</time>
      </trkpt>
      <trkpt lat="45.68959" lon="6.25209">
        <ele>1609.8</ele>
        <time>2022-01-13T06:50:35Z</time>
      </trkpt>
      <trkpt lat="45.68959" lon="6.25209">
        <ele>1609.8</ele>
        <time>2022-01-13T06:50:36Z</time>
      </trkpt>
      <trkpt lat="45.68959" lon="6.25209">
        <ele>1609.8</ele>
        <time>2022-01-13T06:50:37Z</time>
      </trkpt>
      <trkpt lat="45.68959" lon="6.25209">
        <ele>1609.8</ele>
        <time>2022-01-13T06:50:38Z</time>
      </trkpt>
      <trkpt lat="45.68959" lon="6.25209">
        <ele>1609.8</ele>
        <time>2022-01-13T06:50:39Z</time>
      </trkpt>
      <trkpt lat="45.68959" lon="6.25209">
        <ele>1609.8</ele>
        <time>2022-01-13T06:50:40Z</time>
      </trkpt>
      <trkpt lat="45.68959" lon="6.25209">
        <ele>1609.8</ele>
        <time>2022-01-13T06:50:41Z</time>
      </trkpt>
      <trkpt lat="45.68959" lon="6.25209">
        <ele>1610.7</ele>
        <time>2022-01-13T06:50:42Z</time>
      </trkpt>
      <trkpt lat="45.68959" lon="6.25209">
        <ele>1610.7</ele>
        <time>2022-01-13T06:50:43Z</time>
      </trkpt>
      <trkpt lat="45.68959" lon="6.25209">
        <ele>1610.7</ele>
        <time>2022-01-13T06:50:44Z</time>
      </trkpt>
      <trkpt lat="45.68959" lon="6.25209">
        <ele>1610.7</ele>
        <time>2022-01-13T06:50:45Z</time>
      </trkpt>
      <trkpt lat="45.68959" lon="6.25209">
        <ele>1610.7</ele>
        <time>2022-01-13T06:50:46Z</time>
      </trkpt>
      <trkpt lat="45.68959" lon="6.25209">
        <ele>1610.7</ele>
        <time>2022-01-13T06:50:47Z</time>
      </trkpt>
      <trkpt lat="45.68959" lon="6.25209">
        <ele>1611.8</ele>
        <time>2022-01-13T06:50:48Z</time>
      </trkpt>
      <trkpt lat="45.68959" lon="6.25209">
        <ele>1611.8</ele>
        <time>2022-01-13T06:50:49Z</time>
      </trkpt>
      <trkpt lat="45.68959" lon="6.25209">
        <ele>1610.7</ele>
        <time>2022-01-13T06:50:50Z</time>
      </trkpt>
      <trkpt lat="45.68959" lon="6.25209">
        <ele>1610.7</ele>
        <time>2022-01-13T06:50:51Z</time>
      </trkpt>
      <trkpt lat="45.68959" lon="6.25209">
        <ele>1609.8</ele>
        <time>2022-01-13T06:50:52Z</time>
      </trkpt>
      <trkpt lat="45.68959" lon="6.25209">
        <ele>1609.8</ele>
        <time>2022-01-13T06:50:53Z</time>
      </trkpt>
      <trkpt lat="45.68959" lon="6.25209">
        <ele>1609.8</ele>
        <time>2022-01-13T06:50:54Z</time>
      </trkpt>
      <trkpt lat="45.68959" lon="6.25209">
        <ele>1609.8</ele>
        <time>2022-01-13T06:50:55Z</time>
      </trkpt>
      <trkpt lat="45.68959" lon="6.25209">
        <ele>1610.7</ele>
        <time>2022-01-13T06:50:56Z</time>
      </trkpt>
      <trkpt lat="45.68959" lon="6.25209">
        <ele>1610.7</ele>
        <time>2022-01-13T06:50:57Z</time>
      </trkpt>
      <trkpt lat="45.68959" lon="6.25209">
        <ele>1610.7</ele>
        <time>2022-01-13T06:50:58Z</time>
      </trkpt>
      <trkpt lat="45.68959" lon="6.25209">
        <ele>1610.7</ele>
        <time>2022-01-13T06:50:59Z</time>
      </trkpt>
      <trkpt lat="45.68959" lon="6.25209">
        <ele>1610.7</ele>
        <time>2022-01-13T06:51:00Z</time>
      </trkpt>
      <trkpt lat="45.68959" lon="6.25209">
        <ele>1610.7</ele>
        <time>2022-01-13T06:51:01Z</time>
      </trkpt>
      <trkpt lat="45.68959" lon="6.25209">
        <ele>1610.7</ele>
        <time>2022-01-13T06:51:02Z</time>
      </trkpt>
      <trkpt lat="45.68959" lon="6.25209">
        <ele>1610.7</ele>
        <time>2022-01-13T06:51:03Z</time>
      </trkpt>
      <trkpt lat="45.68959" lon="6.25209">
        <ele>1609.8</ele>
        <time>2022-01-13T06:51:04Z</time>
      </trkpt>
      <trkpt lat="45.68959" lon="6.25209">
        <ele>1609.8</ele>
        <time>2022-01-13T06:51:05Z</time>
      </trkpt>
      <trkpt lat="45.68959" lon="6.25209">
        <ele>1609.8</ele>
        <time>2022-01-13T06:51:06Z</time>
      </trkpt>
      <trkpt lat="45.68959" lon="6.25209">
        <ele>1609.8</ele>
        <time>2022-01-13T06:51:07Z</time>
      </trkpt>
      <trkpt lat="45.68959" lon="6.25209">
        <ele>1608.8</ele>
        <time>2022-01-13T06:51:08Z</time>
      </trkpt>
      <trkpt lat="45.68959" lon="6.25209">
        <ele>1608.8</ele>
        <time>2022-01-13T06:51:09Z</time>
      </trkpt>
      <trkpt lat="45.68959" lon="6.25209">
        <ele>1608.8</ele>
        <time>2022-01-13T06:51:10Z</time>
      </trkpt>
      <trkpt lat="45.68959" lon="6.25209">
        <ele>1608.8</ele>
        <time>2022-01-13T06:51:11Z</time>
      </trkpt>
      <trkpt lat="45.68959" lon="6.25209">
        <ele>1608.8</ele>
        <time>2022-01-13T06:51:12Z</time>
      </trkpt>
      <trkpt lat="45.68959" lon="6.25209">
        <ele>1608.8</ele>
        <time>2022-01-13T06:51:13Z</time>
      </trkpt>
      <trkpt lat="45.68959" lon="6.25209">
        <ele>1609.8</ele>
        <time>2022-01-13T06:51:14Z</time>
      </trkpt>
      <trkpt lat="45.68959" lon="6.25209">
        <ele>1609.8</ele>
        <time>2022-01-13T06:51:15Z</time>
      </trkpt>
      <trkpt lat="45.68959" lon="6.25209">
        <ele>1609.8</ele>
        <time>2022-01-13T06:51:16Z</time>
      </trkpt>
      <trkpt lat="45.68959" lon="6.25209">
        <ele>1609.8</ele>
        <time>2022-01-13T06:51:17Z</time>
      </trkpt>
      <trkpt lat="45.68959" lon="6.25209">
        <ele>1609.8</ele>
        <time>2022-01-13T06:51:18Z</time>
      </trkpt>
      <trkpt lat="45.68959" lon="6.25209">
        <ele>1609.8</ele>
        <time>2022-01-13T06:51:19Z</time>
      </trkpt>
      <trkpt lat="45.68959" lon="6.25209">
        <ele>1610.7</ele>
        <time>2022-01-13T06:51:20Z</time>
      </trkpt>
      <trkpt lat="45.68959" lon="6.25209">
        <ele>1610.7</ele>
        <time>2022-01-13T06:51:21Z</time>
      </trkpt>
      <trkpt lat="45.68959" lon="6.25209">
        <ele>1610.7</ele>
        <time>2022-01-13T06:51:22Z</time>
      </trkpt>
      <trkpt lat="45.68959" lon="6.25209">
        <ele>1610.7</ele>
        <time>2022-01-13T06:51:23Z</time>
      </trkpt>
      <trkpt lat="45.68959" lon="6.25209">
        <ele>1610.7</ele>
        <time>2022-01-13T06:51:24Z</time>
      </trkpt>
      <trkpt lat="45.68959" lon="6.25209">
        <ele>1610.7</ele>
        <time>2022-01-13T06:51:25Z</time>
      </trkpt>
      <trkpt lat="45.68959" lon="6.25209">
        <ele>1610.7</ele>
        <time>2022-01-13T06:51:26Z</time>
      </trkpt>
      <trkpt lat="45.68959" lon="6.25209">
        <ele>1610.7</ele>
        <time>2022-01-13T06:51:27Z</time>
      </trkpt>
      <trkpt lat="45.68959" lon="6.25209">
        <ele>1610.7</ele>
        <time>2022-01-13T06:51:28Z</time>
      </trkpt>
      <trkpt lat="45.68959" lon="6.25209">
        <ele>1610.7</ele>
        <time>2022-01-13T06:51:29Z</time>
      </trkpt>
      <trkpt lat="45.68959" lon="6.25209">
        <ele>1610.7</ele>
        <time>2022-01-13T06:51:30Z</time>
      </trkpt>
      <trkpt lat="45.68959" lon="6.25209">
        <ele>1610.7</ele>
        <time>2022-01-13T06:51:31Z</time>
      </trkpt>
      <trkpt lat="45.68959" lon="6.25209">
        <ele>1610.7</ele>
        <time>2022-01-13T06:51:32Z</time>
      </trkpt>
      <trkpt lat="45.68959" lon="6.25209">
        <ele>1610.7</ele>
        <time>2022-01-13T06:51:33Z</time>
      </trkpt>
      <trkpt lat="45.68959" lon="6.25209">
        <ele>1610.7</ele>
        <time>2022-01-13T06:51:34Z</time>
      </trkpt>
      <trkpt lat="45.68959" lon="6.25209">
        <ele>1610.7</ele>
        <time>2022-01-13T06:51:35Z</time>
      </trkpt>
      <trkpt lat="45.68959" lon="6.25209">
        <ele>1609.8</ele>
        <time>2022-01-13T06:51:36Z</time>
      </trkpt>
      <trkpt lat="45.68959" lon="6.25209">
        <ele>1609.8</ele>
        <time>2022-01-13T06:51:37Z</time>
      </trkpt>
      <trkpt lat="45.68959" lon="6.2521">
        <ele>1609.8</ele>
        <time>2022-01-13T06:51:38Z</time>
      </trkpt>
      <trkpt lat="45.68959" lon="6.2521">
        <ele>1609.8</ele>
        <time>2022-01-13T06:51:39Z</time>
      </trkpt>
      <trkpt lat="45.68959" lon="6.2521">
        <ele>1609.8</ele>
        <time>2022-01-13T06:51:40Z</time>
      </trkpt>
      <trkpt lat="45.68959" lon="6.2521">
        <ele>1609.8</ele>
        <time>2022-01-13T06:51:41Z</time>
      </trkpt>
      <trkpt lat="45.68959" lon="6.2521">
        <ele>1609.8</ele>
        <time>2022-01-13T06:51:42Z</time>
      </trkpt>
      <trkpt lat="45.68959" lon="6.2521">
        <ele>1609.8</ele>
        <time>2022-01-13T06:51:43Z</time>
      </trkpt>
      <trkpt lat="45.68959" lon="6.2521">
        <ele>1609.8</ele>
        <time>2022-01-13T06:51:44Z</time>
      </trkpt>
      <trkpt lat="45.68959" lon="6.2521">
        <ele>1609.8</ele>
        <time>2022-01-13T06:51:45Z</time>
      </trkpt>
      <trkpt lat="45.68959" lon="6.2521">
        <ele>1609.8</ele>
        <time>2022-01-13T06:51:46Z</time>
      </trkpt>
      <trkpt lat="45.68959" lon="6.2521">
        <ele>1609.8</ele>
        <time>2022-01-13T06:51:47Z</time>
      </trkpt>
      <trkpt lat="45.68959" lon="6.2521">
        <ele>1610.7</ele>
        <time>2022-01-13T06:51:48Z</time>
      </trkpt>
      <trkpt lat="45.68959" lon="6.2521">
        <ele>1610.7</ele>
        <time>2022-01-13T06:51:49Z</time>
      </trkpt>
      <trkpt lat="45.68959" lon="6.2521">
        <ele>1609.8</ele>
        <time>2022-01-13T06:51:50Z</time>
      </trkpt>
      <trkpt lat="45.68959" lon="6.2521">
        <ele>1609.8</ele>
        <time>2022-01-13T06:51:51Z</time>
      </trkpt>
      <trkpt lat="45.68959" lon="6.2521">
        <ele>1610.7</ele>
        <time>2022-01-13T06:51:52Z</time>
      </trkpt>
      <trkpt lat="45.68959" lon="6.2521">
        <ele>1610.7</ele>
        <time>2022-01-13T06:51:53Z</time>
      </trkpt>
      <trkpt lat="45.68959" lon="6.2521">
        <ele>1610.7</ele>
        <time>2022-01-13T06:51:54Z</time>
      </trkpt>
      <trkpt lat="45.68959" lon="6.2521">
        <ele>1610.7</ele>
        <time>2022-01-13T06:51:55Z</time>
      </trkpt>
      <trkpt lat="45.68959" lon="6.2521">
        <ele>1609.8</ele>
        <time>2022-01-13T06:51:56Z</time>
      </trkpt>
      <trkpt lat="45.68959" lon="6.2521">
        <ele>1609.8</ele>
        <time>2022-01-13T06:51:57Z</time>
      </trkpt>
      <trkpt lat="45.68959" lon="6.2521">
        <ele>1609.8</ele>
        <time>2022-01-13T06:51:58Z</time>
      </trkpt>
      <trkpt lat="45.68959" lon="6.2521">
        <ele>1609.8</ele>
        <time>2022-01-13T06:51:59Z</time>
      </trkpt>
      <trkpt lat="45.68959" lon="6.2521">
        <ele>1609.8</ele>
        <time>2022-01-13T06:52:00Z</time>
      </trkpt>
      <trkpt lat="45.68959" lon="6.2521">
        <ele>1609.8</ele>
        <time>2022-01-13T06:52:01Z</time>
      </trkpt>
      <trkpt lat="45.68959" lon="6.2521">
        <ele>1609.8</ele>
        <time>2022-01-13T06:52:02Z</time>
      </trkpt>
      <trkpt lat="45.68959" lon="6.2521">
        <ele>1609.8</ele>
        <time>2022-01-13T06:52:03Z</time>
      </trkpt>
      <trkpt lat="45.68959" lon="6.2521">
        <ele>1609.8</ele>
        <time>2022-01-13T06:52:04Z</time>
      </trkpt>
      <trkpt lat="45.68959" lon="6.2521">
        <ele>1609.8</ele>
        <time>2022-01-13T06:52:05Z</time>
      </trkpt>
      <trkpt lat="45.68959" lon="6.2521">
        <ele>1609.8</ele>
        <time>2022-01-13T06:52:06Z</time>
      </trkpt>
      <trkpt lat="45.68959" lon="6.2521">
        <ele>1609.8</ele>
        <time>2022-01-13T06:52:07Z</time>
      </trkpt>
      <trkpt lat="45.68959" lon="6.2521">
        <ele>1609.8</ele>
        <time>2022-01-13T06:52:08Z</time>
      </trkpt>
      <trkpt lat="45.68959" lon="6.2521">
        <ele>1609.8</ele>
        <time>2022-01-13T06:52:09Z</time>
      </trkpt>
      <trkpt lat="45.68959" lon="6.2521">
        <ele>1609.8</ele>
        <time>2022-01-13T06:52:10Z</time>
      </trkpt>
      <trkpt lat="45.68959" lon="6.2521">
        <ele>1609.8</ele>
        <time>2022-01-13T06:52:11Z</time>
      </trkpt>
      <trkpt lat="45.68959" lon="6.2521">
        <ele>1608.8</ele>
        <time>2022-01-13T06:52:12Z</time>
      </trkpt>
      <trkpt lat="45.68959" lon="6.2521">
        <ele>1608.8</ele>
        <time>2022-01-13T06:52:13Z</time>
      </trkpt>
      <trkpt lat="45.68959" lon="6.2521">
        <ele>1608.8</ele>
        <time>2022-01-13T06:52:14Z</time>
      </trkpt>
      <trkpt lat="45.68959" lon="6.2521">
        <ele>1608.8</ele>
        <time>2022-01-13T06:52:15Z</time>
      </trkpt>
      <trkpt lat="45.68959" lon="6.2521">
        <ele>1608.8</ele>
        <time>2022-01-13T06:52:16Z</time>
      </trkpt>
      <trkpt lat="45.68959" lon="6.2521">
        <ele>1608.8</ele>
        <time>2022-01-13T06:52:17Z</time>
      </trkpt>
      <trkpt lat="45.68959" lon="6.2521">
        <ele>1608.8</ele>
        <time>2022-01-13T06:52:18Z</time>
      </trkpt>
      <trkpt lat="45.68959" lon="6.2521">
        <ele>1608.8</ele>
        <time>2022-01-13T06:52:19Z</time>
      </trkpt>
      <trkpt lat="45.68959" lon="6.2521">
        <ele>1608.8</ele>
        <time>2022-01-13T06:52:20Z</time>
      </trkpt>
      <trkpt lat="45.68959" lon="6.2521">
        <ele>1608.8</ele>
        <time>2022-01-13T06:52:21Z</time>
      </trkpt>
      <trkpt lat="45.68959" lon="6.2521">
        <ele>1608.8</ele>
        <time>2022-01-13T06:52:22Z</time>
      </trkpt>
      <trkpt lat="45.68959" lon="6.2521">
        <ele>1608.8</ele>
        <time>2022-01-13T06:52:23Z</time>
      </trkpt>
      <trkpt lat="45.68959" lon="6.2521">
        <ele>1608.8</ele>
        <time>2022-01-13T06:52:24Z</time>
      </trkpt>
      <trkpt lat="45.68959" lon="6.2521">
        <ele>1608.8</ele>
        <time>2022-01-13T06:52:25Z</time>
      </trkpt>
      <trkpt lat="45.68959" lon="6.2521">
        <ele>1608.8</ele>
        <time>2022-01-13T06:52:26Z</time>
      </trkpt>
      <trkpt lat="45.68959" lon="6.2521">
        <ele>1608.8</ele>
        <time>2022-01-13T06:52:27Z</time>
      </trkpt>
      <trkpt lat="45.68959" lon="6.2521">
        <ele>1608.8</ele>
        <time>2022-01-13T06:52:28Z</time>
      </trkpt>
      <trkpt lat="45.68959" lon="6.2521">
        <ele>1608.8</ele>
        <time>2022-01-13T06:52:29Z</time>
      </trkpt>
      <trkpt lat="45.68959" lon="6.2521">
        <ele>1608.8</ele>
        <time>2022-01-13T06:52:30Z</time>
      </trkpt>
      <trkpt lat="45.68959" lon="6.2521">
        <ele>1608.8</ele>
        <time>2022-01-13T06:52:31Z</time>
      </trkpt>
      <trkpt lat="45.68959" lon="6.2521">
        <ele>1610.7</ele>
        <time>2022-01-13T06:52:32Z</time>
      </trkpt>
      <trkpt lat="45.68959" lon="6.2521">
        <ele>1610.7</ele>
        <time>2022-01-13T06:52:33Z</time>
      </trkpt>
      <trkpt lat="45.68959" lon="6.2521">
        <ele>1610.7</ele>
        <time>2022-01-13T06:52:34Z</time>
      </trkpt>
      <trkpt lat="45.68959" lon="6.2521">
        <ele>1610.7</ele>
        <time>2022-01-13T06:52:35Z</time>
      </trkpt>
      <trkpt lat="45.68959" lon="6.2521">
        <ele>1610.7</ele>
        <time>2022-01-13T06:52:36Z</time>
      </trkpt>
      <trkpt lat="45.68959" lon="6.2521">
        <ele>1610.7</ele>
        <time>2022-01-13T06:52:37Z</time>
      </trkpt>
      <trkpt lat="45.68959" lon="6.2521">
        <ele>1610.7</ele>
        <time>2022-01-13T06:52:38Z</time>
      </trkpt>
      <trkpt lat="45.68959" lon="6.2521">
        <ele>1610.7</ele>
        <time>2022-01-13T06:52:39Z</time>
      </trkpt>
      <trkpt lat="45.68959" lon="6.2521">
        <ele>1610.7</ele>
        <time>2022-01-13T06:52:40Z</time>
      </trkpt>
      <trkpt lat="45.68959" lon="6.2521">
        <ele>1610.7</ele>
        <time>2022-01-13T06:52:41Z</time>
      </trkpt>
      <trkpt lat="45.68959" lon="6.2521">
        <ele>1610.7</ele>
        <time>2022-01-13T06:52:42Z</time>
      </trkpt>
      <trkpt lat="45.68959" lon="6.2521">
        <ele>1610.7</ele>
        <time>2022-01-13T06:52:43Z</time>
      </trkpt>
      <trkpt lat="45.68959" lon="6.25211">
        <ele>1610.7</ele>
        <time>2022-01-13T06:52:44Z</time>
      </trkpt>
      <trkpt lat="45.68958" lon="6.25213">
        <ele>1610.7</ele>
        <time>2022-01-13T06:52:45Z</time>
      </trkpt>
      <trkpt lat="45.68957" lon="6.25214">
        <ele>1611.8</ele>
        <time>2022-01-13T06:52:46Z</time>
      </trkpt>
      <trkpt lat="45.68956" lon="6.25216">
        <ele>1611.8</ele>
        <time>2022-01-13T06:52:47Z</time>
      </trkpt>
      <trkpt lat="45.68955" lon="6.25217">
        <ele>1611.8</ele>
        <time>2022-01-13T06:52:48Z</time>
      </trkpt>
      <trkpt lat="45.68954" lon="6.25219">
        <ele>1611.8</ele>
        <time>2022-01-13T06:52:49Z</time>
      </trkpt>
      <trkpt lat="45.68953" lon="6.25221">
        <ele>1611.8</ele>
        <time>2022-01-13T06:52:50Z</time>
      </trkpt>
      <trkpt lat="45.68952" lon="6.25223">
        <ele>1611.8</ele>
        <time>2022-01-13T06:52:51Z</time>
      </trkpt>
      <trkpt lat="45.68952" lon="6.25224">
        <ele>1612.7</ele>
        <time>2022-01-13T06:52:52Z</time>
      </trkpt>
      <trkpt lat="45.68951" lon="6.25226">
        <ele>1612.7</ele>
        <time>2022-01-13T06:52:53Z</time>
      </trkpt>
      <trkpt lat="45.68951" lon="6.25227">
        <ele>1613.8</ele>
        <time>2022-01-13T06:52:54Z</time>
      </trkpt>
      <trkpt lat="45.6895" lon="6.25228">
        <ele>1613.8</ele>
        <time>2022-01-13T06:52:55Z</time>
      </trkpt>
      <trkpt lat="45.6895" lon="6.25229">
        <ele>1613.8</ele>
        <time>2022-01-13T06:52:56Z</time>
      </trkpt>
      <trkpt lat="45.68949" lon="6.2523">
        <ele>1613.8</ele>
        <time>2022-01-13T06:52:57Z</time>
      </trkpt>
      <trkpt lat="45.68949" lon="6.25231">
        <ele>1613.8</ele>
        <time>2022-01-13T06:52:58Z</time>
      </trkpt>
      <trkpt lat="45.68949" lon="6.25232">
        <ele>1613.8</ele>
        <time>2022-01-13T06:52:59Z</time>
      </trkpt>
      <trkpt lat="45.68949" lon="6.25233">
        <ele>1613.8</ele>
        <time>2022-01-13T06:53:00Z</time>
      </trkpt>
      <trkpt lat="45.68948" lon="6.25233">
        <ele>1613.8</ele>
        <time>2022-01-13T06:53:01Z</time>
      </trkpt>
      <trkpt lat="45.68948" lon="6.25234">
        <ele>1613.8</ele>
        <time>2022-01-13T06:53:02Z</time>
      </trkpt>
      <trkpt lat="45.68948" lon="6.25235">
        <ele>1613.8</ele>
        <time>2022-01-13T06:53:03Z</time>
      </trkpt>
      <trkpt lat="45.68948" lon="6.25236">
        <ele>1613.8</ele>
        <time>2022-01-13T06:53:04Z</time>
      </trkpt>
      <trkpt lat="45.68947" lon="6.25237">
        <ele>1613.8</ele>
        <time>2022-01-13T06:53:05Z</time>
      </trkpt>
      <trkpt lat="45.68947" lon="6.25238">
        <ele>1613.8</ele>
        <time>2022-01-13T06:53:06Z</time>
      </trkpt>
      <trkpt lat="45.68947" lon="6.25239">
        <ele>1613.8</ele>
        <time>2022-01-13T06:53:07Z</time>
      </trkpt>
      <trkpt lat="45.68947" lon="6.2524">
        <ele>1614.9</ele>
        <time>2022-01-13T06:53:08Z</time>
      </trkpt>
      <trkpt lat="45.68947" lon="6.2524">
        <ele>1614.9</ele>
        <time>2022-01-13T06:53:09Z</time>
      </trkpt>
      <trkpt lat="45.68947" lon="6.2524">
        <ele>1614.9</ele>
        <time>2022-01-13T06:53:10Z</time>
      </trkpt>
      <trkpt lat="45.68947" lon="6.2524">
        <ele>1614.9</ele>
        <time>2022-01-13T06:53:11Z</time>
      </trkpt>
      <trkpt lat="45.68947" lon="6.2524">
        <ele>1614.9</ele>
        <time>2022-01-13T06:53:12Z</time>
      </trkpt>
      <trkpt lat="45.68947" lon="6.2524">
        <ele>1614.9</ele>
        <time>2022-01-13T06:53:13Z</time>
      </trkpt>
      <trkpt lat="45.68947" lon="6.2524">
        <ele>1614.9</ele>
        <time>2022-01-13T06:53:14Z</time>
      </trkpt>
      <trkpt lat="45.68947" lon="6.2524">
        <ele>1614.9</ele>
        <time>2022-01-13T06:53:15Z</time>
      </trkpt>
      <trkpt lat="45.68947" lon="6.25241">
        <ele>1614.9</ele>
        <time>2022-01-13T06:53:16Z</time>
      </trkpt>
      <trkpt lat="45.68947" lon="6.25242">
        <ele>1614.9</ele>
        <time>2022-01-13T06:53:17Z</time>
      </trkpt>
      <trkpt lat="45.68947" lon="6.25242">
        <ele>1615.8</ele>
        <time>2022-01-13T06:53:18Z</time>
      </trkpt>
      <trkpt lat="45.68947" lon="6.25243">
        <ele>1615.8</ele>
        <time>2022-01-13T06:53:19Z</time>
      </trkpt>
      <trkpt lat="45.68947" lon="6.25244">
        <ele>1615.8</ele>
        <time>2022-01-13T06:53:20Z</time>
      </trkpt>
      <trkpt lat="45.68947" lon="6.25245">
        <ele>1615.8</ele>
        <time>2022-01-13T06:53:21Z</time>
      </trkpt>
      <trkpt lat="45.68947" lon="6.25246">
        <ele>1615.8</ele>
        <time>2022-01-13T06:53:22Z</time>
      </trkpt>
      <trkpt lat="45.68947" lon="6.25246">
        <ele>1615.8</ele>
        <time>2022-01-13T06:53:23Z</time>
      </trkpt>
      <trkpt lat="45.68947" lon="6.25247">
        <ele>1615.8</ele>
        <time>2022-01-13T06:53:24Z</time>
      </trkpt>
      <trkpt lat="45.68947" lon="6.25248">
        <ele>1615.8</ele>
        <time>2022-01-13T06:53:25Z</time>
      </trkpt>
      <trkpt lat="45.68947" lon="6.25249">
        <ele>1615.8</ele>
        <time>2022-01-13T06:53:26Z</time>
      </trkpt>
      <trkpt lat="45.68947" lon="6.2525">
        <ele>1615.8</ele>
        <time>2022-01-13T06:53:27Z</time>
      </trkpt>
      <trkpt lat="45.68947" lon="6.25251">
        <ele>1615.8</ele>
        <time>2022-01-13T06:53:28Z</time>
      </trkpt>
      <trkpt lat="45.68947" lon="6.25252">
        <ele>1615.8</ele>
        <time>2022-01-13T06:53:29Z</time>
      </trkpt>
      <trkpt lat="45.68947" lon="6.25253">
        <ele>1615.8</ele>
        <time>2022-01-13T06:53:30Z</time>
      </trkpt>
      <trkpt lat="45.68947" lon="6.25254">
        <ele>1615.8</ele>
        <time>2022-01-13T06:53:31Z</time>
      </trkpt>
      <trkpt lat="45.68948" lon="6.25254">
        <ele>1616.8</ele>
        <time>2022-01-13T06:53:32Z</time>
      </trkpt>
      <trkpt lat="45.68948" lon="6.25255">
        <ele>1616.8</ele>
        <time>2022-01-13T06:53:33Z</time>
      </trkpt>
      <trkpt lat="45.68948" lon="6.25255">
        <ele>1617.7</ele>
        <time>2022-01-13T06:53:34Z</time>
      </trkpt>
      <trkpt lat="45.68948" lon="6.25256">
        <ele>1617.7</ele>
        <time>2022-01-13T06:53:35Z</time>
      </trkpt>
      <trkpt lat="45.68949" lon="6.25256">
        <ele>1617.7</ele>
        <time>2022-01-13T06:53:36Z</time>
      </trkpt>
      <trkpt lat="45.68949" lon="6.25256">
        <ele>1617.7</ele>
        <time>2022-01-13T06:53:37Z</time>
      </trkpt>
      <trkpt lat="45.68949" lon="6.25257">
        <ele>1617.7</ele>
        <time>2022-01-13T06:53:38Z</time>
      </trkpt>
      <trkpt lat="45.68949" lon="6.25257">
        <ele>1617.7</ele>
        <time>2022-01-13T06:53:39Z</time>
      </trkpt>
      <trkpt lat="45.68949" lon="6.25257">
        <ele>1618.8</ele>
        <time>2022-01-13T06:53:40Z</time>
      </trkpt>
      <trkpt lat="45.68949" lon="6.25257">
        <ele>1618.8</ele>
        <time>2022-01-13T06:53:41Z</time>
      </trkpt>
      <trkpt lat="45.68949" lon="6.25257">
        <ele>1618.8</ele>
        <time>2022-01-13T06:53:42Z</time>
      </trkpt>
      <trkpt lat="45.68949" lon="6.25257">
        <ele>1618.8</ele>
        <time>2022-01-13T06:53:43Z</time>
      </trkpt>
      <trkpt lat="45.68949" lon="6.25257">
        <ele>1617.7</ele>
        <time>2022-01-13T06:53:44Z</time>
      </trkpt>
      <trkpt lat="45.68949" lon="6.25257">
        <ele>1617.7</ele>
        <time>2022-01-13T06:53:45Z</time>
      </trkpt>
      <trkpt lat="45.68949" lon="6.25257">
        <ele>1617.7</ele>
        <time>2022-01-13T06:53:46Z</time>
      </trkpt>
      <trkpt lat="45.68949" lon="6.25257">
        <ele>1617.7</ele>
        <time>2022-01-13T06:53:47Z</time>
      </trkpt>
      <trkpt lat="45.68949" lon="6.25257">
        <ele>1617.7</ele>
        <time>2022-01-13T06:53:48Z</time>
      </trkpt>
      <trkpt lat="45.68949" lon="6.25257">
        <ele>1617.7</ele>
        <time>2022-01-13T06:53:49Z</time>
      </trkpt>
      <trkpt lat="45.68949" lon="6.25257">
        <ele>1617.7</ele>
        <time>2022-01-13T06:53:50Z</time>
      </trkpt>
      <trkpt lat="45.68949" lon="6.25257">
        <ele>1617.7</ele>
        <time>2022-01-13T06:53:51Z</time>
      </trkpt>
      <trkpt lat="45.68949" lon="6.25257">
        <ele>1617.7</ele>
        <time>2022-01-13T06:53:52Z</time>
      </trkpt>
      <trkpt lat="45.68949" lon="6.25257">
        <ele>1617.7</ele>
        <time>2022-01-13T06:53:53Z</time>
      </trkpt>
      <trkpt lat="45.68949" lon="6.25257">
        <ele>1617.7</ele>
        <time>2022-01-13T06:53:54Z</time>
      </trkpt>
      <trkpt lat="45.68949" lon="6.25257">
        <ele>1617.7</ele>
        <time>2022-01-13T06:53:55Z</time>
      </trkpt>
      <trkpt lat="45.68949" lon="6.25257">
        <ele>1617.7</ele>
        <time>2022-01-13T06:53:56Z</time>
      </trkpt>
      <trkpt lat="45.68949" lon="6.25257">
        <ele>1617.7</ele>
        <time>2022-01-13T06:53:57Z</time>
      </trkpt>
      <trkpt lat="45.68949" lon="6.25257">
        <ele>1617.7</ele>
        <time>2022-01-13T06:53:58Z</time>
      </trkpt>
      <trkpt lat="45.68949" lon="6.25257">
        <ele>1617.7</ele>
        <time>2022-01-13T06:53:59Z</time>
      </trkpt>
      <trkpt lat="45.68949" lon="6.25257">
        <ele>1617.7</ele>
        <time>2022-01-13T06:54:00Z</time>
      </trkpt>
      <trkpt lat="45.68949" lon="6.25257">
        <ele>1617.7</ele>
        <time>2022-01-13T06:54:01Z</time>
      </trkpt>
      <trkpt lat="45.68949" lon="6.25257">
        <ele>1617.7</ele>
        <time>2022-01-13T06:54:02Z</time>
      </trkpt>
      <trkpt lat="45.68949" lon="6.25257">
        <ele>1617.7</ele>
        <time>2022-01-13T06:54:03Z</time>
      </trkpt>
      <trkpt lat="45.68949" lon="6.25257">
        <ele>1617.7</ele>
        <time>2022-01-13T06:54:04Z</time>
      </trkpt>
      <trkpt lat="45.68949" lon="6.25257">
        <ele>1617.7</ele>
        <time>2022-01-13T06:54:05Z</time>
      </trkpt>
      <trkpt lat="45.68949" lon="6.25257">
        <ele>1616.8</ele>
        <time>2022-01-13T06:54:06Z</time>
      </trkpt>
      <trkpt lat="45.68949" lon="6.25257">
        <ele>1616.8</ele>
        <time>2022-01-13T06:54:07Z</time>
      </trkpt>
      <trkpt lat="45.68949" lon="6.25257">
        <ele>1616.8</ele>
        <time>2022-01-13T06:54:08Z</time>
      </trkpt>
      <trkpt lat="45.68949" lon="6.25257">
        <ele>1616.8</ele>
        <time>2022-01-13T06:54:09Z</time>
      </trkpt>
      <trkpt lat="45.68949" lon="6.25258">
        <ele>1616.8</ele>
        <time>2022-01-13T06:54:10Z</time>
      </trkpt>
      <trkpt lat="45.68949" lon="6.25258">
        <ele>1616.8</ele>
        <time>2022-01-13T06:54:11Z</time>
      </trkpt>
      <trkpt lat="45.68948" lon="6.25259">
        <ele>1617.7</ele>
        <time>2022-01-13T06:54:12Z</time>
      </trkpt>
      <trkpt lat="45.68947" lon="6.25261">
        <ele>1617.7</ele>
        <time>2022-01-13T06:54:13Z</time>
      </trkpt>
      <trkpt lat="45.68946" lon="6.25262">
        <ele>1618.8</ele>
        <time>2022-01-13T06:54:14Z</time>
      </trkpt>
      <trkpt lat="45.68945" lon="6.25264">
        <ele>1618.8</ele>
        <time>2022-01-13T06:54:15Z</time>
      </trkpt>
      <trkpt lat="45.68944" lon="6.25266">
        <ele>1619.7</ele>
        <time>2022-01-13T06:54:16Z</time>
      </trkpt>
      <trkpt lat="45.68943" lon="6.25268">
        <ele>1619.7</ele>
        <time>2022-01-13T06:54:17Z</time>
      </trkpt>
      <trkpt lat="45.68941" lon="6.25269">
        <ele>1619.7</ele>
        <time>2022-01-13T06:54:18Z</time>
      </trkpt>
      <trkpt lat="45.6894" lon="6.25271">
        <ele>1619.7</ele>
        <time>2022-01-13T06:54:19Z</time>
      </trkpt>
      <trkpt lat="45.68938" lon="6.25274">
        <ele>1620.8</ele>
        <time>2022-01-13T06:54:20Z</time>
      </trkpt>
      <trkpt lat="45.68937" lon="6.25275">
        <ele>1620.8</ele>
        <time>2022-01-13T06:54:21Z</time>
      </trkpt>
      <trkpt lat="45.68936" lon="6.25276">
        <ele>1620.8</ele>
        <time>2022-01-13T06:54:22Z</time>
      </trkpt>
      <trkpt lat="45.68936" lon="6.25276">
        <ele>1620.8</ele>
        <time>2022-01-13T06:54:23Z</time>
      </trkpt>
      <trkpt lat="45.68935" lon="6.25277">
        <ele>1621.7</ele>
        <time>2022-01-13T06:54:24Z</time>
      </trkpt>
      <trkpt lat="45.68934" lon="6.25278">
        <ele>1621.7</ele>
        <time>2022-01-13T06:54:25Z</time>
      </trkpt>
      <trkpt lat="45.68933" lon="6.25279">
        <ele>1621.7</ele>
        <time>2022-01-13T06:54:26Z</time>
      </trkpt>
      <trkpt lat="45.68932" lon="6.2528">
        <ele>1621.7</ele>
        <time>2022-01-13T06:54:27Z</time>
      </trkpt>
      <trkpt lat="45.68931" lon="6.25281">
        <ele>1622.8</ele>
        <time>2022-01-13T06:54:28Z</time>
      </trkpt>
      <trkpt lat="45.6893" lon="6.25281">
        <ele>1622.8</ele>
        <time>2022-01-13T06:54:29Z</time>
      </trkpt>
      <trkpt lat="45.68929" lon="6.25282">
        <ele>1623.8</ele>
        <time>2022-01-13T06:54:30Z</time>
      </trkpt>
      <trkpt lat="45.68928" lon="6.25282">
        <ele>1623.8</ele>
        <time>2022-01-13T06:54:31Z</time>
      </trkpt>
      <trkpt lat="45.68927" lon="6.25283">
        <ele>1624.8</ele>
        <time>2022-01-13T06:54:32Z</time>
      </trkpt>
      <trkpt lat="45.68926" lon="6.25284">
        <ele>1624.8</ele>
        <time>2022-01-13T06:54:33Z</time>
      </trkpt>
      <trkpt lat="45.68925" lon="6.25284">
        <ele>1624.8</ele>
        <time>2022-01-13T06:54:34Z</time>
      </trkpt>
      <trkpt lat="45.68924" lon="6.25285">
        <ele>1624.8</ele>
        <time>2022-01-13T06:54:35Z</time>
      </trkpt>
      <trkpt lat="45.68923" lon="6.25286">
        <ele>1624.8</ele>
        <time>2022-01-13T06:54:36Z</time>
      </trkpt>
      <trkpt lat="45.68922" lon="6.25286">
        <ele>1624.8</ele>
        <time>2022-01-13T06:54:37Z</time>
      </trkpt>
      <trkpt lat="45.68922" lon="6.25287">
        <ele>1624.8</ele>
        <time>2022-01-13T06:54:38Z</time>
      </trkpt>
      <trkpt lat="45.68921" lon="6.25288">
        <ele>1624.8</ele>
        <time>2022-01-13T06:54:39Z</time>
      </trkpt>
      <trkpt lat="45.68921" lon="6.25289">
        <ele>1627.8</ele>
        <time>2022-01-13T06:54:40Z</time>
      </trkpt>
      <trkpt lat="45.6892" lon="6.2529">
        <ele>1627.8</ele>
        <time>2022-01-13T06:54:41Z</time>
      </trkpt>
      <trkpt lat="45.68919" lon="6.25291">
        <ele>1627.8</ele>
        <time>2022-01-13T06:54:42Z</time>
      </trkpt>
      <trkpt lat="45.68918" lon="6.25292">
        <ele>1627.8</ele>
        <time>2022-01-13T06:54:43Z</time>
      </trkpt>
      <trkpt lat="45.68918" lon="6.25293">
        <ele>1627.8</ele>
        <time>2022-01-13T06:54:44Z</time>
      </trkpt>
      <trkpt lat="45.68917" lon="6.25294">
        <ele>1627.8</ele>
        <time>2022-01-13T06:54:45Z</time>
      </trkpt>
      <trkpt lat="45.68916" lon="6.25295">
        <ele>1628.7</ele>
        <time>2022-01-13T06:54:46Z</time>
      </trkpt>
      <trkpt lat="45.68916" lon="6.25296">
        <ele>1628.7</ele>
        <time>2022-01-13T06:54:47Z</time>
      </trkpt>
      <trkpt lat="45.68915" lon="6.25296">
        <ele>1628.7</ele>
        <time>2022-01-13T06:54:48Z</time>
      </trkpt>
      <trkpt lat="45.68914" lon="6.25297">
        <ele>1628.7</ele>
        <time>2022-01-13T06:54:49Z</time>
      </trkpt>
      <trkpt lat="45.68913" lon="6.25297">
        <ele>1629.8</ele>
        <time>2022-01-13T06:54:50Z</time>
      </trkpt>
      <trkpt lat="45.68912" lon="6.25298">
        <ele>1629.8</ele>
        <time>2022-01-13T06:54:51Z</time>
      </trkpt>
      <trkpt lat="45.68911" lon="6.25299">
        <ele>1629.8</ele>
        <time>2022-01-13T06:54:52Z</time>
      </trkpt>
      <trkpt lat="45.6891" lon="6.25299">
        <ele>1629.8</ele>
        <time>2022-01-13T06:54:53Z</time>
      </trkpt>
      <trkpt lat="45.68909" lon="6.253">
        <ele>1630.9</ele>
        <time>2022-01-13T06:54:54Z</time>
      </trkpt>
      <trkpt lat="45.68908" lon="6.253">
        <ele>1630.9</ele>
        <time>2022-01-13T06:54:55Z</time>
      </trkpt>
      <trkpt lat="45.68906" lon="6.25301">
        <ele>1630.9</ele>
        <time>2022-01-13T06:54:56Z</time>
      </trkpt>
      <trkpt lat="45.68906" lon="6.25302">
        <ele>1630.9</ele>
        <time>2022-01-13T06:54:57Z</time>
      </trkpt>
      <trkpt lat="45.68904" lon="6.25302">
        <ele>1630.9</ele>
        <time>2022-01-13T06:54:58Z</time>
      </trkpt>
      <trkpt lat="45.68904" lon="6.25303">
        <ele>1630.9</ele>
        <time>2022-01-13T06:54:59Z</time>
      </trkpt>
      <trkpt lat="45.68903" lon="6.25304">
        <ele>1630.9</ele>
        <time>2022-01-13T06:55:00Z</time>
      </trkpt>
      <trkpt lat="45.68902" lon="6.25305">
        <ele>1630.9</ele>
        <time>2022-01-13T06:55:01Z</time>
      </trkpt>
      <trkpt lat="45.68901" lon="6.25305">
        <ele>1630.9</ele>
        <time>2022-01-13T06:55:02Z</time>
      </trkpt>
      <trkpt lat="45.689" lon="6.25306">
        <ele>1630.9</ele>
        <time>2022-01-13T06:55:03Z</time>
      </trkpt>
      <trkpt lat="45.689" lon="6.25307">
        <ele>1630.9</ele>
        <time>2022-01-13T06:55:04Z</time>
      </trkpt>
      <trkpt lat="45.68899" lon="6.25308">
        <ele>1630.9</ele>
        <time>2022-01-13T06:55:05Z</time>
      </trkpt>
      <trkpt lat="45.68898" lon="6.2531">
        <ele>1630.9</ele>
        <time>2022-01-13T06:55:06Z</time>
      </trkpt>
      <trkpt lat="45.68897" lon="6.25311">
        <ele>1630.9</ele>
        <time>2022-01-13T06:55:07Z</time>
      </trkpt>
      <trkpt lat="45.68896" lon="6.25312">
        <ele>1630.9</ele>
        <time>2022-01-13T06:55:08Z</time>
      </trkpt>
      <trkpt lat="45.68895" lon="6.25313">
        <ele>1630.9</ele>
        <time>2022-01-13T06:55:09Z</time>
      </trkpt>
      <trkpt lat="45.68894" lon="6.25314">
        <ele>1630.9</ele>
        <time>2022-01-13T06:55:10Z</time>
      </trkpt>
      <trkpt lat="45.68893" lon="6.25316">
        <ele>1630.9</ele>
        <time>2022-01-13T06:55:11Z</time>
      </trkpt>
      <trkpt lat="45.68892" lon="6.25317">
        <ele>1631.8</ele>
        <time>2022-01-13T06:55:12Z</time>
      </trkpt>
      <trkpt lat="45.68892" lon="6.25318">
        <ele>1631.8</ele>
        <time>2022-01-13T06:55:13Z</time>
      </trkpt>
      <trkpt lat="45.68891" lon="6.2532">
        <ele>1630.9</ele>
        <time>2022-01-13T06:55:14Z</time>
      </trkpt>
      <trkpt lat="45.6889" lon="6.25322">
        <ele>1630.9</ele>
        <time>2022-01-13T06:55:15Z</time>
      </trkpt>
      <trkpt lat="45.68889" lon="6.25324">
        <ele>1630.9</ele>
        <time>2022-01-13T06:55:16Z</time>
      </trkpt>
      <trkpt lat="45.68888" lon="6.25325">
        <ele>1630.9</ele>
        <time>2022-01-13T06:55:17Z</time>
      </trkpt>
      <trkpt lat="45.68888" lon="6.25327">
        <ele>1630.9</ele>
        <time>2022-01-13T06:55:18Z</time>
      </trkpt>
      <trkpt lat="45.68887" lon="6.25328">
        <ele>1630.9</ele>
        <time>2022-01-13T06:55:19Z</time>
      </trkpt>
      <trkpt lat="45.68887" lon="6.2533">
        <ele>1630.9</ele>
        <time>2022-01-13T06:55:20Z</time>
      </trkpt>
      <trkpt lat="45.68887" lon="6.25332">
        <ele>1630.9</ele>
        <time>2022-01-13T06:55:21Z</time>
      </trkpt>
      <trkpt lat="45.68887" lon="6.25333">
        <ele>1630.9</ele>
        <time>2022-01-13T06:55:22Z</time>
      </trkpt>
      <trkpt lat="45.68887" lon="6.25335">
        <ele>1630.9</ele>
        <time>2022-01-13T06:55:23Z</time>
      </trkpt>
      <trkpt lat="45.68887" lon="6.25337">
        <ele>1630.9</ele>
        <time>2022-01-13T06:55:24Z</time>
      </trkpt>
      <trkpt lat="45.68887" lon="6.25338">
        <ele>1630.9</ele>
        <time>2022-01-13T06:55:25Z</time>
      </trkpt>
      <trkpt lat="45.68888" lon="6.25339">
        <ele>1630.9</ele>
        <time>2022-01-13T06:55:26Z</time>
      </trkpt>
      <trkpt lat="45.68888" lon="6.2534">
        <ele>1630.9</ele>
        <time>2022-01-13T06:55:27Z</time>
      </trkpt>
      <trkpt lat="45.68889" lon="6.25342">
        <ele>1630.9</ele>
        <time>2022-01-13T06:55:28Z</time>
      </trkpt>
      <trkpt lat="45.6889" lon="6.25343">
        <ele>1630.9</ele>
        <time>2022-01-13T06:55:29Z</time>
      </trkpt>
      <trkpt lat="45.6889" lon="6.25344">
        <ele>1632.8</ele>
        <time>2022-01-13T06:55:30Z</time>
      </trkpt>
      <trkpt lat="45.68891" lon="6.25345">
        <ele>1632.8</ele>
        <time>2022-01-13T06:55:31Z</time>
      </trkpt>
      <trkpt lat="45.68892" lon="6.25346">
        <ele>1632.8</ele>
        <time>2022-01-13T06:55:32Z</time>
      </trkpt>
      <trkpt lat="45.68893" lon="6.25347">
        <ele>1632.8</ele>
        <time>2022-01-13T06:55:33Z</time>
      </trkpt>
      <trkpt lat="45.68894" lon="6.25349">
        <ele>1630.9</ele>
        <time>2022-01-13T06:55:34Z</time>
      </trkpt>
      <trkpt lat="45.68895" lon="6.2535">
        <ele>1630.9</ele>
        <time>2022-01-13T06:55:35Z</time>
      </trkpt>
      <trkpt lat="45.68895" lon="6.25351">
        <ele>1630.9</ele>
        <time>2022-01-13T06:55:36Z</time>
      </trkpt>
      <trkpt lat="45.68896" lon="6.25352">
        <ele>1631.8</ele>
        <time>2022-01-13T06:55:37Z</time>
      </trkpt>
      <trkpt lat="45.68896" lon="6.25352">
        <ele>1631.8</ele>
        <time>2022-01-13T06:55:38Z</time>
      </trkpt>
      <trkpt lat="45.68896" lon="6.25353">
        <ele>1631.8</ele>
        <time>2022-01-13T06:55:39Z</time>
      </trkpt>
      <trkpt lat="45.68896" lon="6.25353">
        <ele>1631.8</ele>
        <time>2022-01-13T06:55:40Z</time>
      </trkpt>
      <trkpt lat="45.68896" lon="6.25353">
        <ele>1631.8</ele>
        <time>2022-01-13T06:55:41Z</time>
      </trkpt>
      <trkpt lat="45.68896" lon="6.25353">
        <ele>1631.8</ele>
        <time>2022-01-13T06:55:42Z</time>
      </trkpt>
      <trkpt lat="45.68897" lon="6.25353">
        <ele>1631.8</ele>
        <time>2022-01-13T06:55:43Z</time>
      </trkpt>
      <trkpt lat="45.68897" lon="6.25353">
        <ele>1631.8</ele>
        <time>2022-01-13T06:55:44Z</time>
      </trkpt>
      <trkpt lat="45.68897" lon="6.25353">
        <ele>1631.8</ele>
        <time>2022-01-13T06:55:45Z</time>
      </trkpt>
      <trkpt lat="45.68897" lon="6.25353">
        <ele>1631.8</ele>
        <time>2022-01-13T06:55:46Z</time>
      </trkpt>
      <trkpt lat="45.68897" lon="6.25353">
        <ele>1631.8</ele>
        <time>2022-01-13T06:55:47Z</time>
      </trkpt>
      <trkpt lat="45.68897" lon="6.25353">
        <ele>1631.8</ele>
        <time>2022-01-13T06:55:48Z</time>
      </trkpt>
      <trkpt lat="45.68897" lon="6.25353">
        <ele>1631.8</ele>
        <time>2022-01-13T06:55:49Z</time>
      </trkpt>
      <trkpt lat="45.68897" lon="6.25353">
        <ele>1631.8</ele>
        <time>2022-01-13T06:55:50Z</time>
      </trkpt>
      <trkpt lat="45.68897" lon="6.25353">
        <ele>1631.8</ele>
        <time>2022-01-13T06:55:51Z</time>
      </trkpt>
      <trkpt lat="45.68897" lon="6.25353">
        <ele>1631.8</ele>
        <time>2022-01-13T06:55:52Z</time>
      </trkpt>
      <trkpt lat="45.68897" lon="6.25353">
        <ele>1631.8</ele>
        <time>2022-01-13T06:55:53Z</time>
      </trkpt>
      <trkpt lat="45.68897" lon="6.25353">
        <ele>1631.8</ele>
        <time>2022-01-13T06:55:54Z</time>
      </trkpt>
      <trkpt lat="45.68898" lon="6.25355">
        <ele>1631.8</ele>
        <time>2022-01-13T06:55:55Z</time>
      </trkpt>
      <trkpt lat="45.68899" lon="6.25357">
        <ele>1631.8</ele>
        <time>2022-01-13T06:55:56Z</time>
      </trkpt>
      <trkpt lat="45.68899" lon="6.25358">
        <ele>1631.8</ele>
        <time>2022-01-13T06:55:57Z</time>
      </trkpt>
      <trkpt lat="45.689" lon="6.2536">
        <ele>1631.8</ele>
        <time>2022-01-13T06:55:58Z</time>
      </trkpt>
      <trkpt lat="45.68901" lon="6.25362">
        <ele>1631.8</ele>
        <time>2022-01-13T06:55:59Z</time>
      </trkpt>
      <trkpt lat="45.68902" lon="6.25363">
        <ele>1631.8</ele>
        <time>2022-01-13T06:56:00Z</time>
      </trkpt>
      <trkpt lat="45.68903" lon="6.25365">
        <ele>1631.8</ele>
        <time>2022-01-13T06:56:01Z</time>
      </trkpt>
      <trkpt lat="45.68904" lon="6.25366">
        <ele>1631.8</ele>
        <time>2022-01-13T06:56:02Z</time>
      </trkpt>
      <trkpt lat="45.68905" lon="6.25368">
        <ele>1631.8</ele>
        <time>2022-01-13T06:56:03Z</time>
      </trkpt>
      <trkpt lat="45.68905" lon="6.25369">
        <ele>1631.8</ele>
        <time>2022-01-13T06:56:04Z</time>
      </trkpt>
      <trkpt lat="45.68906" lon="6.2537">
        <ele>1631.8</ele>
        <time>2022-01-13T06:56:05Z</time>
      </trkpt>
      <trkpt lat="45.68906" lon="6.25371">
        <ele>1631.8</ele>
        <time>2022-01-13T06:56:06Z</time>
      </trkpt>
      <trkpt lat="45.68907" lon="6.25373">
        <ele>1631.8</ele>
        <time>2022-01-13T06:56:07Z</time>
      </trkpt>
      <trkpt lat="45.68907" lon="6.25374">
        <ele>1631.8</ele>
        <time>2022-01-13T06:56:08Z</time>
      </trkpt>
      <trkpt lat="45.68908" lon="6.25376">
        <ele>1631.8</ele>
        <time>2022-01-13T06:56:09Z</time>
      </trkpt>
      <trkpt lat="45.68908" lon="6.25377">
        <ele>1631.8</ele>
        <time>2022-01-13T06:56:10Z</time>
      </trkpt>
      <trkpt lat="45.68908" lon="6.25379">
        <ele>1631.8</ele>
        <time>2022-01-13T06:56:11Z</time>
      </trkpt>
      <trkpt lat="45.68908" lon="6.2538">
        <ele>1631.8</ele>
        <time>2022-01-13T06:56:12Z</time>
      </trkpt>
      <trkpt lat="45.68908" lon="6.25382">
        <ele>1631.8</ele>
        <time>2022-01-13T06:56:13Z</time>
      </trkpt>
      <trkpt lat="45.68909" lon="6.25383">
        <ele>1632.8</ele>
        <time>2022-01-13T06:56:14Z</time>
      </trkpt>
      <trkpt lat="45.68909" lon="6.25385">
        <ele>1632.8</ele>
        <time>2022-01-13T06:56:15Z</time>
      </trkpt>
      <trkpt lat="45.68909" lon="6.25387">
        <ele>1632.8</ele>
        <time>2022-01-13T06:56:16Z</time>
      </trkpt>
      <trkpt lat="45.68909" lon="6.25389">
        <ele>1632.8</ele>
        <time>2022-01-13T06:56:17Z</time>
      </trkpt>
      <trkpt lat="45.68909" lon="6.25391">
        <ele>1632.8</ele>
        <time>2022-01-13T06:56:18Z</time>
      </trkpt>
      <trkpt lat="45.6891" lon="6.25393">
        <ele>1632.8</ele>
        <time>2022-01-13T06:56:19Z</time>
      </trkpt>
      <trkpt lat="45.6891" lon="6.25394">
        <ele>1632.8</ele>
        <time>2022-01-13T06:56:20Z</time>
      </trkpt>
      <trkpt lat="45.68911" lon="6.25395">
        <ele>1632.8</ele>
        <time>2022-01-13T06:56:21Z</time>
      </trkpt>
      <trkpt lat="45.68911" lon="6.25396">
        <ele>1632.8</ele>
        <time>2022-01-13T06:56:22Z</time>
      </trkpt>
      <trkpt lat="45.68912" lon="6.25398">
        <ele>1632.8</ele>
        <time>2022-01-13T06:56:23Z</time>
      </trkpt>
      <trkpt lat="45.68913" lon="6.25399">
        <ele>1632.8</ele>
        <time>2022-01-13T06:56:24Z</time>
      </trkpt>
      <trkpt lat="45.68914" lon="6.254">
        <ele>1632.8</ele>
        <time>2022-01-13T06:56:25Z</time>
      </trkpt>
      <trkpt lat="45.68915" lon="6.25401">
        <ele>1632.8</ele>
        <time>2022-01-13T06:56:26Z</time>
      </trkpt>
      <trkpt lat="45.68916" lon="6.25402">
        <ele>1632.8</ele>
        <time>2022-01-13T06:56:27Z</time>
      </trkpt>
      <trkpt lat="45.68917" lon="6.25403">
        <ele>1632.8</ele>
        <time>2022-01-13T06:56:28Z</time>
      </trkpt>
      <trkpt lat="45.68917" lon="6.25405">
        <ele>1632.8</ele>
        <time>2022-01-13T06:56:29Z</time>
      </trkpt>
      <trkpt lat="45.68919" lon="6.25406">
        <ele>1633.7</ele>
        <time>2022-01-13T06:56:30Z</time>
      </trkpt>
      <trkpt lat="45.6892" lon="6.25407">
        <ele>1633.7</ele>
        <time>2022-01-13T06:56:31Z</time>
      </trkpt>
      <trkpt lat="45.68921" lon="6.25408">
        <ele>1633.7</ele>
        <time>2022-01-13T06:56:32Z</time>
      </trkpt>
      <trkpt lat="45.68922" lon="6.25409">
        <ele>1633.7</ele>
        <time>2022-01-13T06:56:33Z</time>
      </trkpt>
      <trkpt lat="45.68922" lon="6.25409">
        <ele>1633.7</ele>
        <time>2022-01-13T06:56:34Z</time>
      </trkpt>
      <trkpt lat="45.68923" lon="6.2541">
        <ele>1633.7</ele>
        <time>2022-01-13T06:56:35Z</time>
      </trkpt>
      <trkpt lat="45.68924" lon="6.2541">
        <ele>1633.7</ele>
        <time>2022-01-13T06:56:36Z</time>
      </trkpt>
      <trkpt lat="45.68925" lon="6.2541">
        <ele>1634.8</ele>
        <time>2022-01-13T06:56:37Z</time>
      </trkpt>
      <trkpt lat="45.68926" lon="6.2541">
        <ele>1634.8</ele>
        <time>2022-01-13T06:56:38Z</time>
      </trkpt>
      <trkpt lat="45.68926" lon="6.25411">
        <ele>1634.8</ele>
        <time>2022-01-13T06:56:39Z</time>
      </trkpt>
      <trkpt lat="45.68927" lon="6.25411">
        <ele>1634.8</ele>
        <time>2022-01-13T06:56:40Z</time>
      </trkpt>
      <trkpt lat="45.68928" lon="6.25411">
        <ele>1634.8</ele>
        <time>2022-01-13T06:56:41Z</time>
      </trkpt>
      <trkpt lat="45.68929" lon="6.25411">
        <ele>1635.7</ele>
        <time>2022-01-13T06:56:42Z</time>
      </trkpt>
      <trkpt lat="45.6893" lon="6.25412">
        <ele>1635.7</ele>
        <time>2022-01-13T06:56:43Z</time>
      </trkpt>
      <trkpt lat="45.68931" lon="6.25412">
        <ele>1635.7</ele>
        <time>2022-01-13T06:56:44Z</time>
      </trkpt>
      <trkpt lat="45.68932" lon="6.25412">
        <ele>1635.7</ele>
        <time>2022-01-13T06:56:45Z</time>
      </trkpt>
      <trkpt lat="45.68933" lon="6.25413">
        <ele>1635.7</ele>
        <time>2022-01-13T06:56:46Z</time>
      </trkpt>
      <trkpt lat="45.68933" lon="6.25413">
        <ele>1635.7</ele>
        <time>2022-01-13T06:56:47Z</time>
      </trkpt>
      <trkpt lat="45.68934" lon="6.25413">
        <ele>1636.8</ele>
        <time>2022-01-13T06:56:48Z</time>
      </trkpt>
      <trkpt lat="45.68935" lon="6.25414">
        <ele>1636.8</ele>
        <time>2022-01-13T06:56:49Z</time>
      </trkpt>
      <trkpt lat="45.68936" lon="6.25414">
        <ele>1636.8</ele>
        <time>2022-01-13T06:56:50Z</time>
      </trkpt>
      <trkpt lat="45.68937" lon="6.25415">
        <ele>1637.7</ele>
        <time>2022-01-13T06:56:51Z</time>
      </trkpt>
      <trkpt lat="45.68938" lon="6.25416">
        <ele>1637.7</ele>
        <time>2022-01-13T06:56:52Z</time>
      </trkpt>
      <trkpt lat="45.68939" lon="6.25416">
        <ele>1637.7</ele>
        <time>2022-01-13T06:56:53Z</time>
      </trkpt>
      <trkpt lat="45.6894" lon="6.25416">
        <ele>1638.8</ele>
        <time>2022-01-13T06:56:54Z</time>
      </trkpt>
      <trkpt lat="45.68941" lon="6.25417">
        <ele>1638.8</ele>
        <time>2022-01-13T06:56:55Z</time>
      </trkpt>
      <trkpt lat="45.68941" lon="6.25417">
        <ele>1638.8</ele>
        <time>2022-01-13T06:56:56Z</time>
      </trkpt>
      <trkpt lat="45.68942" lon="6.25418">
        <ele>1638.8</ele>
        <time>2022-01-13T06:56:57Z</time>
      </trkpt>
      <trkpt lat="45.68943" lon="6.25419">
        <ele>1639.8</ele>
        <time>2022-01-13T06:56:58Z</time>
      </trkpt>
      <trkpt lat="45.68943" lon="6.2542">
        <ele>1639.8</ele>
        <time>2022-01-13T06:56:59Z</time>
      </trkpt>
      <trkpt lat="45.68944" lon="6.2542">
        <ele>1639.8</ele>
        <time>2022-01-13T06:57:00Z</time>
      </trkpt>
      <trkpt lat="45.68945" lon="6.25421">
        <ele>1639.8</ele>
        <time>2022-01-13T06:57:01Z</time>
      </trkpt>
      <trkpt lat="45.68945" lon="6.25422">
        <ele>1640.8</ele>
        <time>2022-01-13T06:57:02Z</time>
      </trkpt>
      <trkpt lat="45.68946" lon="6.25422">
        <ele>1640.8</ele>
        <time>2022-01-13T06:57:03Z</time>
      </trkpt>
      <trkpt lat="45.68947" lon="6.25423">
        <ele>1640.8</ele>
        <time>2022-01-13T06:57:04Z</time>
      </trkpt>
      <trkpt lat="45.68948" lon="6.25424">
        <ele>1640.8</ele>
        <time>2022-01-13T06:57:05Z</time>
      </trkpt>
      <trkpt lat="45.68948" lon="6.25425">
        <ele>1641.8</ele>
        <time>2022-01-13T06:57:06Z</time>
      </trkpt>
      <trkpt lat="45.68949" lon="6.25425">
        <ele>1641.8</ele>
        <time>2022-01-13T06:57:07Z</time>
      </trkpt>
      <trkpt lat="45.6895" lon="6.25427">
        <ele>1642.7</ele>
        <time>2022-01-13T06:57:08Z</time>
      </trkpt>
      <trkpt lat="45.6895" lon="6.25428">
        <ele>1642.7</ele>
        <time>2022-01-13T06:57:09Z</time>
      </trkpt>
      <trkpt lat="45.68951" lon="6.25429">
        <ele>1643.8</ele>
        <time>2022-01-13T06:57:10Z</time>
      </trkpt>
      <trkpt lat="45.68951" lon="6.2543">
        <ele>1643.8</ele>
        <time>2022-01-13T06:57:11Z</time>
      </trkpt>
      <trkpt lat="45.68952" lon="6.25431">
        <ele>1643.8</ele>
        <time>2022-01-13T06:57:12Z</time>
      </trkpt>
      <trkpt lat="45.68953" lon="6.25432">
        <ele>1644.7</ele>
        <time>2022-01-13T06:57:13Z</time>
      </trkpt>
      <trkpt lat="45.68953" lon="6.25434">
        <ele>1644.7</ele>
        <time>2022-01-13T06:57:14Z</time>
      </trkpt>
      <trkpt lat="45.68954" lon="6.25435">
        <ele>1644.7</ele>
        <time>2022-01-13T06:57:15Z</time>
      </trkpt>
      <trkpt lat="45.68954" lon="6.25436">
        <ele>1645.8</ele>
        <time>2022-01-13T06:57:16Z</time>
      </trkpt>
      <trkpt lat="45.68954" lon="6.25437">
        <ele>1645.8</ele>
        <time>2022-01-13T06:57:17Z</time>
      </trkpt>
      <trkpt lat="45.68955" lon="6.25439">
        <ele>1645.8</ele>
        <time>2022-01-13T06:57:18Z</time>
      </trkpt>
      <trkpt lat="45.68955" lon="6.2544">
        <ele>1645.8</ele>
        <time>2022-01-13T06:57:19Z</time>
      </trkpt>
      <trkpt lat="45.68955" lon="6.25441">
        <ele>1645.8</ele>
        <time>2022-01-13T06:57:20Z</time>
      </trkpt>
      <trkpt lat="45.68956" lon="6.25442">
        <ele>1645.8</ele>
        <time>2022-01-13T06:57:21Z</time>
      </trkpt>
      <trkpt lat="45.68956" lon="6.25443">
        <ele>1645.8</ele>
        <time>2022-01-13T06:57:22Z</time>
      </trkpt>
      <trkpt lat="45.68957" lon="6.25444">
        <ele>1645.8</ele>
        <time>2022-01-13T06:57:23Z</time>
      </trkpt>
      <trkpt lat="45.68957" lon="6.25444">
        <ele>1646.7</ele>
        <time>2022-01-13T06:57:24Z</time>
      </trkpt>
      <trkpt lat="45.68958" lon="6.25445">
        <ele>1646.7</ele>
        <time>2022-01-13T06:57:25Z</time>
      </trkpt>
      <trkpt lat="45.68958" lon="6.25446">
        <ele>1646.7</ele>
        <time>2022-01-13T06:57:26Z</time>
      </trkpt>
      <trkpt lat="45.68959" lon="6.25447">
        <ele>1646.7</ele>
        <time>2022-01-13T06:57:27Z</time>
      </trkpt>
      <trkpt lat="45.68959" lon="6.25448">
        <ele>1646.7</ele>
        <time>2022-01-13T06:57:28Z</time>
      </trkpt>
      <trkpt lat="45.6896" lon="6.25448">
        <ele>1646.7</ele>
        <time>2022-01-13T06:57:29Z</time>
      </trkpt>
      <trkpt lat="45.6896" lon="6.25449">
        <ele>1646.7</ele>
        <time>2022-01-13T06:57:30Z</time>
      </trkpt>
      <trkpt lat="45.6896" lon="6.25449">
        <ele>1646.7</ele>
        <time>2022-01-13T06:57:31Z</time>
      </trkpt>
      <trkpt lat="45.6896" lon="6.25449">
        <ele>1646.7</ele>
        <time>2022-01-13T06:57:32Z</time>
      </trkpt>
      <trkpt lat="45.6896" lon="6.25449">
        <ele>1646.7</ele>
        <time>2022-01-13T06:57:33Z</time>
      </trkpt>
      <trkpt lat="45.6896" lon="6.25449">
        <ele>1646.7</ele>
        <time>2022-01-13T06:57:34Z</time>
      </trkpt>
      <trkpt lat="45.6896" lon="6.25449">
        <ele>1646.7</ele>
        <time>2022-01-13T06:57:35Z</time>
      </trkpt>
      <trkpt lat="45.68961" lon="6.25448">
        <ele>1646.7</ele>
        <time>2022-01-13T06:57:36Z</time>
      </trkpt>
      <trkpt lat="45.68961" lon="6.25448">
        <ele>1646.7</ele>
        <time>2022-01-13T06:57:37Z</time>
      </trkpt>
      <trkpt lat="45.68961" lon="6.25448">
        <ele>1647.8</ele>
        <time>2022-01-13T06:57:38Z</time>
      </trkpt>
      <trkpt lat="45.68961" lon="6.25447">
        <ele>1647.8</ele>
        <time>2022-01-13T06:57:39Z</time>
      </trkpt>
      <trkpt lat="45.68961" lon="6.25448">
        <ele>1647.8</ele>
        <time>2022-01-13T06:57:40Z</time>
      </trkpt>
      <trkpt lat="45.68961" lon="6.25447">
        <ele>1647.8</ele>
        <time>2022-01-13T06:57:41Z</time>
      </trkpt>
      <trkpt lat="45.68961" lon="6.25448">
        <ele>1647.8</ele>
        <time>2022-01-13T06:57:42Z</time>
      </trkpt>
      <trkpt lat="45.68961" lon="6.25448">
        <ele>1647.8</ele>
        <time>2022-01-13T06:57:43Z</time>
      </trkpt>
      <trkpt lat="45.68961" lon="6.25448">
        <ele>1647.8</ele>
        <time>2022-01-13T06:57:44Z</time>
      </trkpt>
      <trkpt lat="45.68961" lon="6.25448">
        <ele>1647.8</ele>
        <time>2022-01-13T06:57:45Z</time>
      </trkpt>
      <trkpt lat="45.68961" lon="6.25448">
        <ele>1647.8</ele>
        <time>2022-01-13T06:57:46Z</time>
      </trkpt>
      <trkpt lat="45.68961" lon="6.25448">
        <ele>1647.8</ele>
        <time>2022-01-13T06:57:47Z</time>
      </trkpt>
      <trkpt lat="45.68961" lon="6.25448">
        <ele>1647.8</ele>
        <time>2022-01-13T06:57:48Z</time>
      </trkpt>
      <trkpt lat="45.68961" lon="6.25448">
        <ele>1647.8</ele>
        <time>2022-01-13T06:57:49Z</time>
      </trkpt>
      <trkpt lat="45.68961" lon="6.25448">
        <ele>1647.8</ele>
        <time>2022-01-13T06:57:50Z</time>
      </trkpt>
      <trkpt lat="45.68961" lon="6.25448">
        <ele>1647.8</ele>
        <time>2022-01-13T06:57:51Z</time>
      </trkpt>
      <trkpt lat="45.68961" lon="6.25448">
        <ele>1647.8</ele>
        <time>2022-01-13T06:57:52Z</time>
      </trkpt>
      <trkpt lat="45.68961" lon="6.25448">
        <ele>1647.8</ele>
        <time>2022-01-13T06:57:53Z</time>
      </trkpt>
      <trkpt lat="45.68961" lon="6.25448">
        <ele>1647.8</ele>
        <time>2022-01-13T06:57:54Z</time>
      </trkpt>
      <trkpt lat="45.68961" lon="6.25448">
        <ele>1647.8</ele>
        <time>2022-01-13T06:57:55Z</time>
      </trkpt>
      <trkpt lat="45.68961" lon="6.25448">
        <ele>1647.8</ele>
        <time>2022-01-13T06:57:56Z</time>
      </trkpt>
      <trkpt lat="45.68961" lon="6.25448">
        <ele>1647.8</ele>
        <time>2022-01-13T06:57:57Z</time>
      </trkpt>
      <trkpt lat="45.68961" lon="6.25448">
        <ele>1646.7</ele>
        <time>2022-01-13T06:57:58Z</time>
      </trkpt>
      <trkpt lat="45.68961" lon="6.25448">
        <ele>1646.7</ele>
        <time>2022-01-13T06:57:59Z</time>
      </trkpt>
      <trkpt lat="45.68961" lon="6.25448">
        <ele>1646.7</ele>
        <time>2022-01-13T06:58:00Z</time>
      </trkpt>
      <trkpt lat="45.68961" lon="6.25448">
        <ele>1646.7</ele>
        <time>2022-01-13T06:58:01Z</time>
      </trkpt>
      <trkpt lat="45.68961" lon="6.25448">
        <ele>1646.7</ele>
        <time>2022-01-13T06:58:02Z</time>
      </trkpt>
      <trkpt lat="45.68961" lon="6.25448">
        <ele>1646.7</ele>
        <time>2022-01-13T06:58:03Z</time>
      </trkpt>
      <trkpt lat="45.68961" lon="6.25448">
        <ele>1647.8</ele>
        <time>2022-01-13T06:58:04Z</time>
      </trkpt>
      <trkpt lat="45.68961" lon="6.25448">
        <ele>1647.8</ele>
        <time>2022-01-13T06:58:05Z</time>
      </trkpt>
      <trkpt lat="45.68961" lon="6.25448">
        <ele>1647.8</ele>
        <time>2022-01-13T06:58:06Z</time>
      </trkpt>
      <trkpt lat="45.68961" lon="6.25448">
        <ele>1647.8</ele>
        <time>2022-01-13T06:58:07Z</time>
      </trkpt>
      <trkpt lat="45.68961" lon="6.25448">
        <ele>1647.8</ele>
        <time>2022-01-13T06:58:08Z</time>
      </trkpt>
      <trkpt lat="45.68961" lon="6.25448">
        <ele>1647.8</ele>
        <time>2022-01-13T06:58:09Z</time>
      </trkpt>
      <trkpt lat="45.68961" lon="6.25448">
        <ele>1647.8</ele>
        <time>2022-01-13T06:58:10Z</time>
      </trkpt>
      <trkpt lat="45.68961" lon="6.25448">
        <ele>1647.8</ele>
        <time>2022-01-13T06:58:11Z</time>
      </trkpt>
      <trkpt lat="45.68961" lon="6.25448">
        <ele>1647.8</ele>
        <time>2022-01-13T06:58:12Z</time>
      </trkpt>
      <trkpt lat="45.68961" lon="6.25448">
        <ele>1647.8</ele>
        <time>2022-01-13T06:58:13Z</time>
      </trkpt>
      <trkpt lat="45.68961" lon="6.25448">
        <ele>1647.8</ele>
        <time>2022-01-13T06:58:14Z</time>
      </trkpt>
      <trkpt lat="45.68961" lon="6.25448">
        <ele>1647.8</ele>
        <time>2022-01-13T06:58:15Z</time>
      </trkpt>
      <trkpt lat="45.68961" lon="6.25448">
        <ele>1647.8</ele>
        <time>2022-01-13T06:58:16Z</time>
      </trkpt>
      <trkpt lat="45.68961" lon="6.25448">
        <ele>1647.8</ele>
        <time>2022-01-13T06:58:17Z</time>
      </trkpt>
      <trkpt lat="45.68961" lon="6.25449">
        <ele>1646.7</ele>
        <time>2022-01-13T06:58:18Z</time>
      </trkpt>
      <trkpt lat="45.68961" lon="6.25449">
        <ele>1646.7</ele>
        <time>2022-01-13T06:58:19Z</time>
      </trkpt>
      <trkpt lat="45.68961" lon="6.25449">
        <ele>1646.7</ele>
        <time>2022-01-13T06:58:20Z</time>
      </trkpt>
      <trkpt lat="45.68961" lon="6.25449">
        <ele>1646.7</ele>
        <time>2022-01-13T06:58:21Z</time>
      </trkpt>
      <trkpt lat="45.68961" lon="6.25449">
        <ele>1646.7</ele>
        <time>2022-01-13T06:58:22Z</time>
      </trkpt>
      <trkpt lat="45.68961" lon="6.25449">
        <ele>1646.7</ele>
        <time>2022-01-13T06:58:23Z</time>
      </trkpt>
      <trkpt lat="45.68961" lon="6.25449">
        <ele>1646.7</ele>
        <time>2022-01-13T06:58:24Z</time>
      </trkpt>
      <trkpt lat="45.68961" lon="6.25449">
        <ele>1646.7</ele>
        <time>2022-01-13T06:58:25Z</time>
      </trkpt>
      <trkpt lat="45.68961" lon="6.25449">
        <ele>1646.7</ele>
        <time>2022-01-13T06:58:26Z</time>
      </trkpt>
      <trkpt lat="45.68961" lon="6.25449">
        <ele>1646.7</ele>
        <time>2022-01-13T06:58:27Z</time>
      </trkpt>
      <trkpt lat="45.68961" lon="6.25449">
        <ele>1646.7</ele>
        <time>2022-01-13T06:58:28Z</time>
      </trkpt>
      <trkpt lat="45.68961" lon="6.25449">
        <ele>1646.7</ele>
        <time>2022-01-13T06:58:29Z</time>
      </trkpt>
      <trkpt lat="45.68961" lon="6.25449">
        <ele>1645.8</ele>
        <time>2022-01-13T06:58:30Z</time>
      </trkpt>
      <trkpt lat="45.68961" lon="6.25449">
        <ele>1645.8</ele>
        <time>2022-01-13T06:58:31Z</time>
      </trkpt>
      <trkpt lat="45.68961" lon="6.25449">
        <ele>1645.8</ele>
        <time>2022-01-13T06:58:32Z</time>
      </trkpt>
      <trkpt lat="45.68961" lon="6.25449">
        <ele>1645.8</ele>
        <time>2022-01-13T06:58:33Z</time>
      </trkpt>
      <trkpt lat="45.68961" lon="6.25449">
        <ele>1646.7</ele>
        <time>2022-01-13T06:58:34Z</time>
      </trkpt>
      <trkpt lat="45.68961" lon="6.25449">
        <ele>1646.7</ele>
        <time>2022-01-13T06:58:35Z</time>
      </trkpt>
      <trkpt lat="45.68961" lon="6.25449">
        <ele>1646.7</ele>
        <time>2022-01-13T06:58:36Z</time>
      </trkpt>
      <trkpt lat="45.68961" lon="6.25449">
        <ele>1646.7</ele>
        <time>2022-01-13T06:58:37Z</time>
      </trkpt>
      <trkpt lat="45.68961" lon="6.25449">
        <ele>1646.7</ele>
        <time>2022-01-13T06:58:38Z</time>
      </trkpt>
      <trkpt lat="45.68961" lon="6.25449">
        <ele>1646.7</ele>
        <time>2022-01-13T06:58:39Z</time>
      </trkpt>
      <trkpt lat="45.68961" lon="6.25449">
        <ele>1646.7</ele>
        <time>2022-01-13T06:58:40Z</time>
      </trkpt>
      <trkpt lat="45.68961" lon="6.25449">
        <ele>1646.7</ele>
        <time>2022-01-13T06:58:41Z</time>
      </trkpt>
      <trkpt lat="45.68961" lon="6.25449">
        <ele>1646.7</ele>
        <time>2022-01-13T06:58:42Z</time>
      </trkpt>
      <trkpt lat="45.68961" lon="6.25449">
        <ele>1646.7</ele>
        <time>2022-01-13T06:58:43Z</time>
      </trkpt>
      <trkpt lat="45.68964" lon="6.25448">
        <ele>1646.7</ele>
        <time>2022-01-13T06:58:44Z</time>
      </trkpt>
      <trkpt lat="45.68967" lon="6.25448">
        <ele>1646.7</ele>
        <time>2022-01-13T06:58:45Z</time>
      </trkpt>
      <trkpt lat="45.68971" lon="6.25447">
        <ele>1646.7</ele>
        <time>2022-01-13T06:58:46Z</time>
      </trkpt>
      <trkpt lat="45.68974" lon="6.25446">
        <ele>1646.7</ele>
        <time>2022-01-13T06:58:47Z</time>
      </trkpt>
      <trkpt lat="45.68978" lon="6.25445">
        <ele>1645.8</ele>
        <time>2022-01-13T06:58:48Z</time>
      </trkpt>
      <trkpt lat="45.68981" lon="6.25444">
        <ele>1645.8</ele>
        <time>2022-01-13T06:58:49Z</time>
      </trkpt>
      <trkpt lat="45.68984" lon="6.25442">
        <ele>1645.8</ele>
        <time>2022-01-13T06:58:50Z</time>
      </trkpt>
      <trkpt lat="45.68988" lon="6.25441">
        <ele>1645.8</ele>
        <time>2022-01-13T06:58:51Z</time>
      </trkpt>
      <trkpt lat="45.68993" lon="6.2544">
        <ele>1644.7</ele>
        <time>2022-01-13T06:58:52Z</time>
      </trkpt>
      <trkpt lat="45.68998" lon="6.2544">
        <ele>1644.7</ele>
        <time>2022-01-13T06:58:53Z</time>
      </trkpt>
      <trkpt lat="45.69002" lon="6.25439">
        <ele>1644.7</ele>
        <time>2022-01-13T06:58:54Z</time>
      </trkpt>
      <trkpt lat="45.69007" lon="6.25439">
        <ele>1644.7</ele>
        <time>2022-01-13T06:58:55Z</time>
      </trkpt>
      <trkpt lat="45.69012" lon="6.25439">
        <ele>1643.8</ele>
        <time>2022-01-13T06:58:56Z</time>
      </trkpt>
      <trkpt lat="45.69016" lon="6.25438">
        <ele>1643.8</ele>
        <time>2022-01-13T06:58:57Z</time>
      </trkpt>
      <trkpt lat="45.6902" lon="6.25437">
        <ele>1643.8</ele>
        <time>2022-01-13T06:58:58Z</time>
      </trkpt>
      <trkpt lat="45.69025" lon="6.25437">
        <ele>1643.8</ele>
        <time>2022-01-13T06:58:59Z</time>
      </trkpt>
      <trkpt lat="45.6903" lon="6.25437">
        <ele>1642.7</ele>
        <time>2022-01-13T06:59:00Z</time>
      </trkpt>
      <trkpt lat="45.69034" lon="6.25437">
        <ele>1642.7</ele>
        <time>2022-01-13T06:59:01Z</time>
      </trkpt>
      <trkpt lat="45.69039" lon="6.25437">
        <ele>1642.7</ele>
        <time>2022-01-13T06:59:02Z</time>
      </trkpt>
      <trkpt lat="45.69044" lon="6.25437">
        <ele>1642.7</ele>
        <time>2022-01-13T06:59:03Z</time>
      </trkpt>
      <trkpt lat="45.69048" lon="6.25436">
        <ele>1641.8</ele>
        <time>2022-01-13T06:59:04Z</time>
      </trkpt>
      <trkpt lat="45.69053" lon="6.25435">
        <ele>1641.8</ele>
        <time>2022-01-13T06:59:05Z</time>
      </trkpt>
      <trkpt lat="45.69058" lon="6.25434">
        <ele>1641.8</ele>
        <time>2022-01-13T06:59:06Z</time>
      </trkpt>
      <trkpt lat="45.69063" lon="6.25433">
        <ele>1641.8</ele>
        <time>2022-01-13T06:59:07Z</time>
      </trkpt>
      <trkpt lat="45.69067" lon="6.25432">
        <ele>1640.8</ele>
        <time>2022-01-13T06:59:08Z</time>
      </trkpt>
      <trkpt lat="45.69071" lon="6.25431">
        <ele>1640.8</ele>
        <time>2022-01-13T06:59:09Z</time>
      </trkpt>
      <trkpt lat="45.69074" lon="6.25431">
        <ele>1640.8</ele>
        <time>2022-01-13T06:59:10Z</time>
      </trkpt>
      <trkpt lat="45.69077" lon="6.25431">
        <ele>1640.8</ele>
        <time>2022-01-13T06:59:11Z</time>
      </trkpt>
      <trkpt lat="45.6908" lon="6.2543">
        <ele>1640.8</ele>
        <time>2022-01-13T06:59:12Z</time>
      </trkpt>
      <trkpt lat="45.69082" lon="6.2543">
        <ele>1640.8</ele>
        <time>2022-01-13T06:59:13Z</time>
      </trkpt>
      <trkpt lat="45.69085" lon="6.25429">
        <ele>1640.8</ele>
        <time>2022-01-13T06:59:14Z</time>
      </trkpt>
      <trkpt lat="45.69087" lon="6.25429">
        <ele>1640.8</ele>
        <time>2022-01-13T06:59:15Z</time>
      </trkpt>
      <trkpt lat="45.69089" lon="6.25428">
        <ele>1640.8</ele>
        <time>2022-01-13T06:59:16Z</time>
      </trkpt>
      <trkpt lat="45.69092" lon="6.25428">
        <ele>1640.8</ele>
        <time>2022-01-13T06:59:17Z</time>
      </trkpt>
      <trkpt lat="45.69094" lon="6.25427">
        <ele>1640.8</ele>
        <time>2022-01-13T06:59:18Z</time>
      </trkpt>
      <trkpt lat="45.69097" lon="6.25426">
        <ele>1640.8</ele>
        <time>2022-01-13T06:59:19Z</time>
      </trkpt>
      <trkpt lat="45.69101" lon="6.25426">
        <ele>1640.8</ele>
        <time>2022-01-13T06:59:20Z</time>
      </trkpt>
      <trkpt lat="45.69104" lon="6.25425">
        <ele>1639.8</ele>
        <time>2022-01-13T06:59:21Z</time>
      </trkpt>
      <trkpt lat="45.69108" lon="6.25424">
        <ele>1639.8</ele>
        <time>2022-01-13T06:59:22Z</time>
      </trkpt>
      <trkpt lat="45.69111" lon="6.25423">
        <ele>1639.8</ele>
        <time>2022-01-13T06:59:23Z</time>
      </trkpt>
      <trkpt lat="45.69115" lon="6.25423">
        <ele>1638.8</ele>
        <time>2022-01-13T06:59:24Z</time>
      </trkpt>
      <trkpt lat="45.69119" lon="6.25422">
        <ele>1638.8</ele>
        <time>2022-01-13T06:59:25Z</time>
      </trkpt>
      <trkpt lat="45.69123" lon="6.25422">
        <ele>1637.7</ele>
        <time>2022-01-13T06:59:26Z</time>
      </trkpt>
      <trkpt lat="45.69127" lon="6.25421">
        <ele>1636.8</ele>
        <time>2022-01-13T06:59:27Z</time>
      </trkpt>
      <trkpt lat="45.69131" lon="6.25421">
        <ele>1636.8</ele>
        <time>2022-01-13T06:59:28Z</time>
      </trkpt>
      <trkpt lat="45.69135" lon="6.2542">
        <ele>1635.7</ele>
        <time>2022-01-13T06:59:29Z</time>
      </trkpt>
      <trkpt lat="45.69139" lon="6.25419">
        <ele>1634.8</ele>
        <time>2022-01-13T06:59:30Z</time>
      </trkpt>
      <trkpt lat="45.69143" lon="6.25416">
        <ele>1634.8</ele>
        <time>2022-01-13T06:59:31Z</time>
      </trkpt>
      <trkpt lat="45.69148" lon="6.25413">
        <ele>1633.7</ele>
        <time>2022-01-13T06:59:32Z</time>
      </trkpt>
      <trkpt lat="45.69153" lon="6.25411">
        <ele>1632.8</ele>
        <time>2022-01-13T06:59:33Z</time>
      </trkpt>
      <trkpt lat="45.69159" lon="6.25408">
        <ele>1631.8</ele>
        <time>2022-01-13T06:59:34Z</time>
      </trkpt>
      <trkpt lat="45.69164" lon="6.25405">
        <ele>1631.8</ele>
        <time>2022-01-13T06:59:35Z</time>
      </trkpt>
      <trkpt lat="45.6917" lon="6.25404">
        <ele>1630.9</ele>
        <time>2022-01-13T06:59:36Z</time>
      </trkpt>
      <trkpt lat="45.69175" lon="6.25403">
        <ele>1629.8</ele>
        <time>2022-01-13T06:59:37Z</time>
      </trkpt>
      <trkpt lat="45.69181" lon="6.25403">
        <ele>1628.7</ele>
        <time>2022-01-13T06:59:38Z</time>
      </trkpt>
      <trkpt lat="45.69186" lon="6.25403">
        <ele>1628.7</ele>
        <time>2022-01-13T06:59:39Z</time>
      </trkpt>
      <trkpt lat="45.69191" lon="6.25402">
        <ele>1627.8</ele>
        <time>2022-01-13T06:59:40Z</time>
      </trkpt>
      <trkpt lat="45.69196" lon="6.25402">
        <ele>1626.7</ele>
        <time>2022-01-13T06:59:41Z</time>
      </trkpt>
      <trkpt lat="45.692" lon="6.25402">
        <ele>1625.8</ele>
        <time>2022-01-13T06:59:42Z</time>
      </trkpt>
      <trkpt lat="45.69204" lon="6.25401">
        <ele>1624.8</ele>
        <time>2022-01-13T06:59:43Z</time>
      </trkpt>
      <trkpt lat="45.69208" lon="6.254">
        <ele>1623.8</ele>
        <time>2022-01-13T06:59:44Z</time>
      </trkpt>
      <trkpt lat="45.69212" lon="6.25399">
        <ele>1622.8</ele>
        <time>2022-01-13T06:59:45Z</time>
      </trkpt>
      <trkpt lat="45.69216" lon="6.25398">
        <ele>1622.8</ele>
        <time>2022-01-13T06:59:46Z</time>
      </trkpt>
      <trkpt lat="45.6922" lon="6.25397">
        <ele>1621.7</ele>
        <time>2022-01-13T06:59:47Z</time>
      </trkpt>
      <trkpt lat="45.69224" lon="6.25396">
        <ele>1620.8</ele>
        <time>2022-01-13T06:59:48Z</time>
      </trkpt>
      <trkpt lat="45.69228" lon="6.25396">
        <ele>1619.7</ele>
        <time>2022-01-13T06:59:49Z</time>
      </trkpt>
      <trkpt lat="45.69231" lon="6.25395">
        <ele>1619.7</ele>
        <time>2022-01-13T06:59:50Z</time>
      </trkpt>
      <trkpt lat="45.69235" lon="6.25394">
        <ele>1619.7</ele>
        <time>2022-01-13T06:59:51Z</time>
      </trkpt>
      <trkpt lat="45.69238" lon="6.25393">
        <ele>1619.7</ele>
        <time>2022-01-13T06:59:52Z</time>
      </trkpt>
      <trkpt lat="45.6924" lon="6.25393">
        <ele>1619.7</ele>
        <time>2022-01-13T06:59:53Z</time>
      </trkpt>
      <trkpt lat="45.69243" lon="6.25392">
        <ele>1614.9</ele>
        <time>2022-01-13T06:59:54Z</time>
      </trkpt>
      <trkpt lat="45.69246" lon="6.25391">
        <ele>1614.9</ele>
        <time>2022-01-13T06:59:55Z</time>
      </trkpt>
      <trkpt lat="45.69249" lon="6.25391">
        <ele>1613.8</ele>
        <time>2022-01-13T06:59:56Z</time>
      </trkpt>
      <trkpt lat="45.69252" lon="6.2539">
        <ele>1613.8</ele>
        <time>2022-01-13T06:59:57Z</time>
      </trkpt>
      <trkpt lat="45.69255" lon="6.25389">
        <ele>1612.7</ele>
        <time>2022-01-13T06:59:58Z</time>
      </trkpt>
      <trkpt lat="45.69258" lon="6.25388">
        <ele>1612.7</ele>
        <time>2022-01-13T06:59:59Z</time>
      </trkpt>
      <trkpt lat="45.69261" lon="6.25386">
        <ele>1611.8</ele>
        <time>2022-01-13T07:00:00Z</time>
      </trkpt>
      <trkpt lat="45.69264" lon="6.25386">
        <ele>1611.8</ele>
        <time>2022-01-13T07:00:01Z</time>
      </trkpt>
      <trkpt lat="45.69267" lon="6.25386">
        <ele>1611.8</ele>
        <time>2022-01-13T07:00:02Z</time>
      </trkpt>
      <trkpt lat="45.69269" lon="6.25385">
        <ele>1610.7</ele>
        <time>2022-01-13T07:00:03Z</time>
      </trkpt>
      <trkpt lat="45.69271" lon="6.25385">
        <ele>1609.8</ele>
        <time>2022-01-13T07:00:04Z</time>
      </trkpt>
      <trkpt lat="45.69272" lon="6.25385">
        <ele>1609.8</ele>
        <time>2022-01-13T07:00:05Z</time>
      </trkpt>
      <trkpt lat="45.69273" lon="6.25385">
        <ele>1609.8</ele>
        <time>2022-01-13T07:00:06Z</time>
      </trkpt>
      <trkpt lat="45.69274" lon="6.25385">
        <ele>1609.8</ele>
        <time>2022-01-13T07:00:07Z</time>
      </trkpt>
      <trkpt lat="45.69275" lon="6.25385">
        <ele>1609.8</ele>
        <time>2022-01-13T07:00:08Z</time>
      </trkpt>
      <trkpt lat="45.69275" lon="6.25385">
        <ele>1609.8</ele>
        <time>2022-01-13T07:00:09Z</time>
      </trkpt>
      <trkpt lat="45.69275" lon="6.25385">
        <ele>1609.8</ele>
        <time>2022-01-13T07:00:10Z</time>
      </trkpt>
      <trkpt lat="45.69275" lon="6.25385">
        <ele>1609.8</ele>
        <time>2022-01-13T07:00:11Z</time>
      </trkpt>
      <trkpt lat="45.69275" lon="6.25385">
        <ele>1609.8</ele>
        <time>2022-01-13T07:00:12Z</time>
      </trkpt>
      <trkpt lat="45.69275" lon="6.25385">
        <ele>1609.8</ele>
        <time>2022-01-13T07:00:13Z</time>
      </trkpt>
      <trkpt lat="45.69275" lon="6.25385">
        <ele>1609.8</ele>
        <time>2022-01-13T07:00:14Z</time>
      </trkpt>
      <trkpt lat="45.69275" lon="6.25385">
        <ele>1609.8</ele>
        <time>2022-01-13T07:00:15Z</time>
      </trkpt>
      <trkpt lat="45.69275" lon="6.25385">
        <ele>1608.8</ele>
        <time>2022-01-13T07:00:16Z</time>
      </trkpt>
      <trkpt lat="45.69276" lon="6.25385">
        <ele>1608.8</ele>
        <time>2022-01-13T07:00:17Z</time>
      </trkpt>
      <trkpt lat="45.69276" lon="6.25385">
        <ele>1607.8</ele>
        <time>2022-01-13T07:00:18Z</time>
      </trkpt>
      <trkpt lat="45.69277" lon="6.25384">
        <ele>1607.8</ele>
        <time>2022-01-13T07:00:19Z</time>
      </trkpt>
      <trkpt lat="45.69278" lon="6.25384">
        <ele>1607.8</ele>
        <time>2022-01-13T07:00:20Z</time>
      </trkpt>
      <trkpt lat="45.69279" lon="6.25383">
        <ele>1607.8</ele>
        <time>2022-01-13T07:00:21Z</time>
      </trkpt>
      <trkpt lat="45.69282" lon="6.25383">
        <ele>1607.8</ele>
        <time>2022-01-13T07:00:22Z</time>
      </trkpt>
      <trkpt lat="45.69284" lon="6.25382">
        <ele>1607.8</ele>
        <time>2022-01-13T07:00:23Z</time>
      </trkpt>
      <trkpt lat="45.69288" lon="6.25382">
        <ele>1606.8</ele>
        <time>2022-01-13T07:00:24Z</time>
      </trkpt>
      <trkpt lat="45.69291" lon="6.25382">
        <ele>1606.8</ele>
        <time>2022-01-13T07:00:25Z</time>
      </trkpt>
      <trkpt lat="45.69295" lon="6.25383">
        <ele>1606.8</ele>
        <time>2022-01-13T07:00:26Z</time>
      </trkpt>
      <trkpt lat="45.69298" lon="6.25384">
        <ele>1606.8</ele>
        <time>2022-01-13T07:00:27Z</time>
      </trkpt>
      <trkpt lat="45.69302" lon="6.25386">
        <ele>1605.7</ele>
        <time>2022-01-13T07:00:28Z</time>
      </trkpt>
      <trkpt lat="45.69306" lon="6.25388">
        <ele>1605.7</ele>
        <time>2022-01-13T07:00:29Z</time>
      </trkpt>
      <trkpt lat="45.6931" lon="6.25392">
        <ele>1605.7</ele>
        <time>2022-01-13T07:00:30Z</time>
      </trkpt>
      <trkpt lat="45.69314" lon="6.25397">
        <ele>1605.7</ele>
        <time>2022-01-13T07:00:31Z</time>
      </trkpt>
      <trkpt lat="45.69317" lon="6.25403">
        <ele>1605.7</ele>
        <time>2022-01-13T07:00:32Z</time>
      </trkpt>
      <trkpt lat="45.69321" lon="6.2541">
        <ele>1605.7</ele>
        <time>2022-01-13T07:00:33Z</time>
      </trkpt>
      <trkpt lat="45.69326" lon="6.25416">
        <ele>1599.8</ele>
        <time>2022-01-13T07:00:34Z</time>
      </trkpt>
      <trkpt lat="45.69331" lon="6.25421">
        <ele>1599.8</ele>
        <time>2022-01-13T07:00:35Z</time>
      </trkpt>
      <trkpt lat="45.69337" lon="6.25425">
        <ele>1594.7</ele>
        <time>2022-01-13T07:00:36Z</time>
      </trkpt>
      <trkpt lat="45.69343" lon="6.25429">
        <ele>1594.7</ele>
        <time>2022-01-13T07:00:37Z</time>
      </trkpt>
      <trkpt lat="45.69349" lon="6.25433">
        <ele>1589.7</ele>
        <time>2022-01-13T07:00:38Z</time>
      </trkpt>
      <trkpt lat="45.69355" lon="6.25436">
        <ele>1589.7</ele>
        <time>2022-01-13T07:00:39Z</time>
      </trkpt>
      <trkpt lat="45.69362" lon="6.25439">
        <ele>1583.8</ele>
        <time>2022-01-13T07:00:40Z</time>
      </trkpt>
      <trkpt lat="45.69368" lon="6.25442">
        <ele>1583.8</ele>
        <time>2022-01-13T07:00:41Z</time>
      </trkpt>
      <trkpt lat="45.69374" lon="6.25444">
        <ele>1577.8</ele>
        <time>2022-01-13T07:00:42Z</time>
      </trkpt>
      <trkpt lat="45.6938" lon="6.25447">
        <ele>1577.8</ele>
        <time>2022-01-13T07:00:43Z</time>
      </trkpt>
      <trkpt lat="45.69386" lon="6.2545">
        <ele>1571.7</ele>
        <time>2022-01-13T07:00:44Z</time>
      </trkpt>
      <trkpt lat="45.69393" lon="6.25453">
        <ele>1571.7</ele>
        <time>2022-01-13T07:00:45Z</time>
      </trkpt>
      <trkpt lat="45.694" lon="6.25457">
        <ele>1566.8</ele>
        <time>2022-01-13T07:00:46Z</time>
      </trkpt>
      <trkpt lat="45.69405" lon="6.2546">
        <ele>1566.8</ele>
        <time>2022-01-13T07:00:47Z</time>
      </trkpt>
      <trkpt lat="45.69412" lon="6.25464">
        <ele>1559.8</ele>
        <time>2022-01-13T07:00:48Z</time>
      </trkpt>
      <trkpt lat="45.69418" lon="6.25468">
        <ele>1559.8</ele>
        <time>2022-01-13T07:00:49Z</time>
      </trkpt>
      <trkpt lat="45.69424" lon="6.25473">
        <ele>1555.7</ele>
        <time>2022-01-13T07:00:50Z</time>
      </trkpt>
      <trkpt lat="45.6943" lon="6.25479">
        <ele>1555.7</ele>
        <time>2022-01-13T07:00:51Z</time>
      </trkpt>
      <trkpt lat="45.69435" lon="6.25486">
        <ele>1555.7</ele>
        <time>2022-01-13T07:00:52Z</time>
      </trkpt>
      <trkpt lat="45.69439" lon="6.25493">
        <ele>1555.7</ele>
        <time>2022-01-13T07:00:53Z</time>
      </trkpt>
      <trkpt lat="45.6944" lon="6.25497">
        <ele>1548.7</ele>
        <time>2022-01-13T07:00:54Z</time>
      </trkpt>
      <trkpt lat="45.6944" lon="6.25499">
        <ele>1548.7</ele>
        <time>2022-01-13T07:00:55Z</time>
      </trkpt>
      <trkpt lat="45.6944" lon="6.255">
        <ele>1546.7</ele>
        <time>2022-01-13T07:00:56Z</time>
      </trkpt>
      <trkpt lat="45.69441" lon="6.25501">
        <ele>1546.7</ele>
        <time>2022-01-13T07:00:57Z</time>
      </trkpt>
      <trkpt lat="45.69441" lon="6.25501">
        <ele>1546.7</ele>
        <time>2022-01-13T07:00:58Z</time>
      </trkpt>
      <trkpt lat="45.69441" lon="6.25501">
        <ele>1546.7</ele>
        <time>2022-01-13T07:00:59Z</time>
      </trkpt>
      <trkpt lat="45.69441" lon="6.255">
        <ele>1545.8</ele>
        <time>2022-01-13T07:01:00Z</time>
      </trkpt>
      <trkpt lat="45.69441" lon="6.25501">
        <ele>1545.8</ele>
        <time>2022-01-13T07:01:01Z</time>
      </trkpt>
      <trkpt lat="45.69442" lon="6.25501">
        <ele>1543.8</ele>
        <time>2022-01-13T07:01:02Z</time>
      </trkpt>
      <trkpt lat="45.69445" lon="6.25503">
        <ele>1543.8</ele>
        <time>2022-01-13T07:01:03Z</time>
      </trkpt>
      <trkpt lat="45.69447" lon="6.25506">
        <ele>1542.8</ele>
        <time>2022-01-13T07:01:04Z</time>
      </trkpt>
      <trkpt lat="45.6945" lon="6.25511">
        <ele>1542.8</ele>
        <time>2022-01-13T07:01:05Z</time>
      </trkpt>
      <trkpt lat="45.69452" lon="6.25516">
        <ele>1542.8</ele>
        <time>2022-01-13T07:01:06Z</time>
      </trkpt>
      <trkpt lat="45.69455" lon="6.25521">
        <ele>1542.8</ele>
        <time>2022-01-13T07:01:07Z</time>
      </trkpt>
      <trkpt lat="45.69457" lon="6.25527">
        <ele>1539.7</ele>
        <time>2022-01-13T07:01:08Z</time>
      </trkpt>
      <trkpt lat="45.69461" lon="6.25532">
        <ele>1539.7</ele>
        <time>2022-01-13T07:01:09Z</time>
      </trkpt>
      <trkpt lat="45.69465" lon="6.25536">
        <ele>1537.7</ele>
        <time>2022-01-13T07:01:10Z</time>
      </trkpt>
      <trkpt lat="45.69469" lon="6.2554">
        <ele>1537.7</ele>
        <time>2022-01-13T07:01:11Z</time>
      </trkpt>
      <trkpt lat="45.69473" lon="6.25543">
        <ele>1535.8</ele>
        <time>2022-01-13T07:01:12Z</time>
      </trkpt>
      <trkpt lat="45.69478" lon="6.25544">
        <ele>1535.8</ele>
        <time>2022-01-13T07:01:13Z</time>
      </trkpt>
      <trkpt lat="45.69482" lon="6.25546">
        <ele>1530.7</ele>
        <time>2022-01-13T07:01:14Z</time>
      </trkpt>
      <trkpt lat="45.69487" lon="6.25549">
        <ele>1530.7</ele>
        <time>2022-01-13T07:01:15Z</time>
      </trkpt>
      <trkpt lat="45.69491" lon="6.25553">
        <ele>1529.8</ele>
        <time>2022-01-13T07:01:16Z</time>
      </trkpt>
      <trkpt lat="45.69494" lon="6.25558">
        <ele>1529.8</ele>
        <time>2022-01-13T07:01:17Z</time>
      </trkpt>
      <trkpt lat="45.69499" lon="6.25561">
        <ele>1527.8</ele>
        <time>2022-01-13T07:01:18Z</time>
      </trkpt>
      <trkpt lat="45.69503" lon="6.25564">
        <ele>1527.8</ele>
        <time>2022-01-13T07:01:19Z</time>
      </trkpt>
      <trkpt lat="45.69508" lon="6.25567">
        <ele>1525.8</ele>
        <time>2022-01-13T07:01:20Z</time>
      </trkpt>
      <trkpt lat="45.69513" lon="6.2557">
        <ele>1525.8</ele>
        <time>2022-01-13T07:01:21Z</time>
      </trkpt>
      <trkpt lat="45.69519" lon="6.25573">
        <ele>1522.8</ele>
        <time>2022-01-13T07:01:22Z</time>
      </trkpt>
      <trkpt lat="45.69524" lon="6.25578">
        <ele>1522.8</ele>
        <time>2022-01-13T07:01:23Z</time>
      </trkpt>
      <trkpt lat="45.6953" lon="6.25583">
        <ele>1521.7</ele>
        <time>2022-01-13T07:01:24Z</time>
      </trkpt>
      <trkpt lat="45.69536" lon="6.25588">
        <ele>1521.7</ele>
        <time>2022-01-13T07:01:25Z</time>
      </trkpt>
      <trkpt lat="45.69541" lon="6.25593">
        <ele>1519.8</ele>
        <time>2022-01-13T07:01:26Z</time>
      </trkpt>
      <trkpt lat="45.69546" lon="6.25598">
        <ele>1519.8</ele>
        <time>2022-01-13T07:01:27Z</time>
      </trkpt>
      <trkpt lat="45.69551" lon="6.25603">
        <ele>1517.8</ele>
        <time>2022-01-13T07:01:28Z</time>
      </trkpt>
      <trkpt lat="45.69556" lon="6.25606">
        <ele>1517.8</ele>
        <time>2022-01-13T07:01:29Z</time>
      </trkpt>
      <trkpt lat="45.69561" lon="6.25609">
        <ele>1516.7</ele>
        <time>2022-01-13T07:01:30Z</time>
      </trkpt>
      <trkpt lat="45.69565" lon="6.25611">
        <ele>1516.7</ele>
        <time>2022-01-13T07:01:31Z</time>
      </trkpt>
      <trkpt lat="45.69568" lon="6.25611">
        <ele>1516.7</ele>
        <time>2022-01-13T07:01:32Z</time>
      </trkpt>
      <trkpt lat="45.69572" lon="6.25612">
        <ele>1516.7</ele>
        <time>2022-01-13T07:01:33Z</time>
      </trkpt>
      <trkpt lat="45.69575" lon="6.25613">
        <ele>1516.7</ele>
        <time>2022-01-13T07:01:34Z</time>
      </trkpt>
      <trkpt lat="45.69577" lon="6.25613">
        <ele>1516.7</ele>
        <time>2022-01-13T07:01:35Z</time>
      </trkpt>
      <trkpt lat="45.6958" lon="6.25615">
        <ele>1514.7</ele>
        <time>2022-01-13T07:01:36Z</time>
      </trkpt>
      <trkpt lat="45.69582" lon="6.25616">
        <ele>1514.7</ele>
        <time>2022-01-13T07:01:37Z</time>
      </trkpt>
      <trkpt lat="45.69584" lon="6.25618">
        <ele>1514.7</ele>
        <time>2022-01-13T07:01:38Z</time>
      </trkpt>
      <trkpt lat="45.69587" lon="6.2562">
        <ele>1514.7</ele>
        <time>2022-01-13T07:01:39Z</time>
      </trkpt>
      <trkpt lat="45.6959" lon="6.25623">
        <ele>1512.7</ele>
        <time>2022-01-13T07:01:40Z</time>
      </trkpt>
      <trkpt lat="45.69593" lon="6.25627">
        <ele>1512.7</ele>
        <time>2022-01-13T07:01:41Z</time>
      </trkpt>
      <trkpt lat="45.69596" lon="6.25631">
        <ele>1512.7</ele>
        <time>2022-01-13T07:01:42Z</time>
      </trkpt>
      <trkpt lat="45.69599" lon="6.25635">
        <ele>1512.7</ele>
        <time>2022-01-13T07:01:43Z</time>
      </trkpt>
      <trkpt lat="45.69601" lon="6.25639">
        <ele>1510.8</ele>
        <time>2022-01-13T07:01:44Z</time>
      </trkpt>
      <trkpt lat="45.69603" lon="6.25642">
        <ele>1510.8</ele>
        <time>2022-01-13T07:01:45Z</time>
      </trkpt>
      <trkpt lat="45.69606" lon="6.25646">
        <ele>1509.8</ele>
        <time>2022-01-13T07:01:46Z</time>
      </trkpt>
      <trkpt lat="45.69608" lon="6.2565">
        <ele>1509.8</ele>
        <time>2022-01-13T07:01:47Z</time>
      </trkpt>
      <trkpt lat="45.69612" lon="6.25655">
        <ele>1508.8</ele>
        <time>2022-01-13T07:01:48Z</time>
      </trkpt>
      <trkpt lat="45.69616" lon="6.25661">
        <ele>1508.8</ele>
        <time>2022-01-13T07:01:49Z</time>
      </trkpt>
      <trkpt lat="45.69621" lon="6.25667">
        <ele>1508.8</ele>
        <time>2022-01-13T07:01:50Z</time>
      </trkpt>
      <trkpt lat="45.69625" lon="6.25673">
        <ele>1508.8</ele>
        <time>2022-01-13T07:01:51Z</time>
      </trkpt>
      <trkpt lat="45.6963" lon="6.25677">
        <ele>1508.8</ele>
        <time>2022-01-13T07:01:52Z</time>
      </trkpt>
      <trkpt lat="45.69633" lon="6.2568">
        <ele>1508.8</ele>
        <time>2022-01-13T07:01:53Z</time>
      </trkpt>
      <trkpt lat="45.69636" lon="6.25683">
        <ele>1505.7</ele>
        <time>2022-01-13T07:01:54Z</time>
      </trkpt>
      <trkpt lat="45.69639" lon="6.25686">
        <ele>1505.7</ele>
        <time>2022-01-13T07:01:55Z</time>
      </trkpt>
      <trkpt lat="45.69642" lon="6.25689">
        <ele>1504.8</ele>
        <time>2022-01-13T07:01:56Z</time>
      </trkpt>
      <trkpt lat="45.69644" lon="6.25692">
        <ele>1504.8</ele>
        <time>2022-01-13T07:01:57Z</time>
      </trkpt>
      <trkpt lat="45.69647" lon="6.25696">
        <ele>1503.7</ele>
        <time>2022-01-13T07:01:58Z</time>
      </trkpt>
      <trkpt lat="45.69651" lon="6.257">
        <ele>1503.7</ele>
        <time>2022-01-13T07:01:59Z</time>
      </trkpt>
      <trkpt lat="45.69656" lon="6.25702">
        <ele>1498.7</ele>
        <time>2022-01-13T07:02:00Z</time>
      </trkpt>
      <trkpt lat="45.69662" lon="6.25702">
        <ele>1498.7</ele>
        <time>2022-01-13T07:02:01Z</time>
      </trkpt>
      <trkpt lat="45.69669" lon="6.25702">
        <ele>1494.8</ele>
        <time>2022-01-13T07:02:02Z</time>
      </trkpt>
      <trkpt lat="45.69676" lon="6.25703">
        <ele>1494.8</ele>
        <time>2022-01-13T07:02:03Z</time>
      </trkpt>
      <trkpt lat="45.69683" lon="6.25706">
        <ele>1489.7</ele>
        <time>2022-01-13T07:02:04Z</time>
      </trkpt>
      <trkpt lat="45.69689" lon="6.2571">
        <ele>1489.7</ele>
        <time>2022-01-13T07:02:05Z</time>
      </trkpt>
      <trkpt lat="45.69694" lon="6.25716">
        <ele>1486.8</ele>
        <time>2022-01-13T07:02:06Z</time>
      </trkpt>
      <trkpt lat="45.69699" lon="6.25723">
        <ele>1486.8</ele>
        <time>2022-01-13T07:02:07Z</time>
      </trkpt>
      <trkpt lat="45.69704" lon="6.2573">
        <ele>1483.8</ele>
        <time>2022-01-13T07:02:08Z</time>
      </trkpt>
      <trkpt lat="45.69709" lon="6.25736">
        <ele>1483.8</ele>
        <time>2022-01-13T07:02:09Z</time>
      </trkpt>
      <trkpt lat="45.69715" lon="6.25742">
        <ele>1480.7</ele>
        <time>2022-01-13T07:02:10Z</time>
      </trkpt>
      <trkpt lat="45.69722" lon="6.25746">
        <ele>1480.7</ele>
        <time>2022-01-13T07:02:11Z</time>
      </trkpt>
      <trkpt lat="45.69728" lon="6.2575">
        <ele>1476.8</ele>
        <time>2022-01-13T07:02:12Z</time>
      </trkpt>
      <trkpt lat="45.69735" lon="6.25753">
        <ele>1476.8</ele>
        <time>2022-01-13T07:02:13Z</time>
      </trkpt>
      <trkpt lat="45.69741" lon="6.25756">
        <ele>1475.7</ele>
        <time>2022-01-13T07:02:14Z</time>
      </trkpt>
      <trkpt lat="45.69747" lon="6.25759">
        <ele>1475.7</ele>
        <time>2022-01-13T07:02:15Z</time>
      </trkpt>
      <trkpt lat="45.69753" lon="6.25763">
        <ele>1472.8</ele>
        <time>2022-01-13T07:02:16Z</time>
      </trkpt>
      <trkpt lat="45.69759" lon="6.25766">
        <ele>1472.8</ele>
        <time>2022-01-13T07:02:17Z</time>
      </trkpt>
      <trkpt lat="45.69764" lon="6.25769">
        <ele>1470.8</ele>
        <time>2022-01-13T07:02:18Z</time>
      </trkpt>
      <trkpt lat="45.69769" lon="6.25773">
        <ele>1470.8</ele>
        <time>2022-01-13T07:02:19Z</time>
      </trkpt>
      <trkpt lat="45.69774" lon="6.25777">
        <ele>1469.8</ele>
        <time>2022-01-13T07:02:20Z</time>
      </trkpt>
      <trkpt lat="45.69778" lon="6.25781">
        <ele>1469.8</ele>
        <time>2022-01-13T07:02:21Z</time>
      </trkpt>
      <trkpt lat="45.69782" lon="6.25784">
        <ele>1467.8</ele>
        <time>2022-01-13T07:02:22Z</time>
      </trkpt>
      <trkpt lat="45.69785" lon="6.25787">
        <ele>1467.8</ele>
        <time>2022-01-13T07:02:23Z</time>
      </trkpt>
      <trkpt lat="45.69789" lon="6.2579">
        <ele>1466.7</ele>
        <time>2022-01-13T07:02:24Z</time>
      </trkpt>
      <trkpt lat="45.69793" lon="6.25791">
        <ele>1466.7</ele>
        <time>2022-01-13T07:02:25Z</time>
      </trkpt>
      <trkpt lat="45.69797" lon="6.25791">
        <ele>1464.7</ele>
        <time>2022-01-13T07:02:26Z</time>
      </trkpt>
      <trkpt lat="45.69803" lon="6.25791">
        <ele>1464.7</ele>
        <time>2022-01-13T07:02:27Z</time>
      </trkpt>
      <trkpt lat="45.69809" lon="6.2579">
        <ele>1461.8</ele>
        <time>2022-01-13T07:02:28Z</time>
      </trkpt>
      <trkpt lat="45.69816" lon="6.2579">
        <ele>1461.8</ele>
        <time>2022-01-13T07:02:29Z</time>
      </trkpt>
      <trkpt lat="45.69822" lon="6.25791">
        <ele>1458.8</ele>
        <time>2022-01-13T07:02:30Z</time>
      </trkpt>
      <trkpt lat="45.69828" lon="6.25794">
        <ele>1458.8</ele>
        <time>2022-01-13T07:02:31Z</time>
      </trkpt>
      <trkpt lat="45.69832" lon="6.25798">
        <ele>1456.8</ele>
        <time>2022-01-13T07:02:32Z</time>
      </trkpt>
      <trkpt lat="45.69835" lon="6.25803">
        <ele>1456.8</ele>
        <time>2022-01-13T07:02:33Z</time>
      </trkpt>
      <trkpt lat="45.69836" lon="6.25807">
        <ele>1456.8</ele>
        <time>2022-01-13T07:02:34Z</time>
      </trkpt>
      <trkpt lat="45.69839" lon="6.25811">
        <ele>1456.8</ele>
        <time>2022-01-13T07:02:35Z</time>
      </trkpt>
      <trkpt lat="45.69842" lon="6.25813">
        <ele>1456.8</ele>
        <time>2022-01-13T07:02:36Z</time>
      </trkpt>
      <trkpt lat="45.69846" lon="6.25813">
        <ele>1456.8</ele>
        <time>2022-01-13T07:02:37Z</time>
      </trkpt>
      <trkpt lat="45.6985" lon="6.25811">
        <ele>1449.8</ele>
        <time>2022-01-13T07:02:38Z</time>
      </trkpt>
      <trkpt lat="45.69854" lon="6.25809">
        <ele>1449.8</ele>
        <time>2022-01-13T07:02:39Z</time>
      </trkpt>
      <trkpt lat="45.69858" lon="6.25807">
        <ele>1446.8</ele>
        <time>2022-01-13T07:02:40Z</time>
      </trkpt>
      <trkpt lat="45.69863" lon="6.25806">
        <ele>1446.8</ele>
        <time>2022-01-13T07:02:41Z</time>
      </trkpt>
      <trkpt lat="45.69869" lon="6.25804">
        <ele>1441.7</ele>
        <time>2022-01-13T07:02:42Z</time>
      </trkpt>
      <trkpt lat="45.69874" lon="6.25799">
        <ele>1441.7</ele>
        <time>2022-01-13T07:02:43Z</time>
      </trkpt>
      <trkpt lat="45.69879" lon="6.25794">
        <ele>1435.8</ele>
        <time>2022-01-13T07:02:44Z</time>
      </trkpt>
      <trkpt lat="45.69884" lon="6.25792">
        <ele>1435.8</ele>
        <time>2022-01-13T07:02:45Z</time>
      </trkpt>
      <trkpt lat="45.69888" lon="6.25791">
        <ele>1430.7</ele>
        <time>2022-01-13T07:02:46Z</time>
      </trkpt>
      <trkpt lat="45.69891" lon="6.25791">
        <ele>1430.7</ele>
        <time>2022-01-13T07:02:47Z</time>
      </trkpt>
      <trkpt lat="45.69895" lon="6.25791">
        <ele>1426.8</ele>
        <time>2022-01-13T07:02:48Z</time>
      </trkpt>
      <trkpt lat="45.69899" lon="6.25791">
        <ele>1426.8</ele>
        <time>2022-01-13T07:02:49Z</time>
      </trkpt>
      <trkpt lat="45.69902" lon="6.2579">
        <ele>1423.7</ele>
        <time>2022-01-13T07:02:50Z</time>
      </trkpt>
      <trkpt lat="45.69905" lon="6.2579">
        <ele>1423.7</ele>
        <time>2022-01-13T07:02:51Z</time>
      </trkpt>
      <trkpt lat="45.69908" lon="6.25789">
        <ele>1423.7</ele>
        <time>2022-01-13T07:02:52Z</time>
      </trkpt>
      <trkpt lat="45.69911" lon="6.25788">
        <ele>1423.7</ele>
        <time>2022-01-13T07:02:53Z</time>
      </trkpt>
      <trkpt lat="45.69914" lon="6.25789">
        <ele>1423.7</ele>
        <time>2022-01-13T07:02:54Z</time>
      </trkpt>
      <trkpt lat="45.69915" lon="6.25791">
        <ele>1423.7</ele>
        <time>2022-01-13T07:02:55Z</time>
      </trkpt>
      <trkpt lat="45.69917" lon="6.25793">
        <ele>1418.7</ele>
        <time>2022-01-13T07:02:56Z</time>
      </trkpt>
      <trkpt lat="45.69919" lon="6.25796">
        <ele>1418.7</ele>
        <time>2022-01-13T07:02:57Z</time>
      </trkpt>
      <trkpt lat="45.69922" lon="6.25799">
        <ele>1416.7</ele>
        <time>2022-01-13T07:02:58Z</time>
      </trkpt>
      <trkpt lat="45.69923" lon="6.25801">
        <ele>1416.7</ele>
        <time>2022-01-13T07:02:59Z</time>
      </trkpt>
      <trkpt lat="45.69924" lon="6.25803">
        <ele>1415.8</ele>
        <time>2022-01-13T07:03:00Z</time>
      </trkpt>
      <trkpt lat="45.69925" lon="6.25804">
        <ele>1415.8</ele>
        <time>2022-01-13T07:03:01Z</time>
      </trkpt>
      <trkpt lat="45.69925" lon="6.25804">
        <ele>1414.7</ele>
        <time>2022-01-13T07:03:02Z</time>
      </trkpt>
      <trkpt lat="45.69925" lon="6.25804">
        <ele>1414.7</ele>
        <time>2022-01-13T07:03:03Z</time>
      </trkpt>
      <trkpt lat="45.69925" lon="6.25805">
        <ele>1414.7</ele>
        <time>2022-01-13T07:03:04Z</time>
      </trkpt>
      <trkpt lat="45.69925" lon="6.25804">
        <ele>1414.7</ele>
        <time>2022-01-13T07:03:05Z</time>
      </trkpt>
      <trkpt lat="45.69925" lon="6.25804">
        <ele>1414.7</ele>
        <time>2022-01-13T07:03:06Z</time>
      </trkpt>
      <trkpt lat="45.69925" lon="6.25804">
        <ele>1414.7</ele>
        <time>2022-01-13T07:03:07Z</time>
      </trkpt>
      <trkpt lat="45.69926" lon="6.25804">
        <ele>1413.8</ele>
        <time>2022-01-13T07:03:08Z</time>
      </trkpt>
      <trkpt lat="45.69926" lon="6.25804">
        <ele>1413.8</ele>
        <time>2022-01-13T07:03:09Z</time>
      </trkpt>
      <trkpt lat="45.69927" lon="6.25804">
        <ele>1413.8</ele>
        <time>2022-01-13T07:03:10Z</time>
      </trkpt>
      <trkpt lat="45.69928" lon="6.25805">
        <ele>1413.8</ele>
        <time>2022-01-13T07:03:11Z</time>
      </trkpt>
      <trkpt lat="45.6993" lon="6.25805">
        <ele>1412.8</ele>
        <time>2022-01-13T07:03:12Z</time>
      </trkpt>
      <trkpt lat="45.69932" lon="6.25806">
        <ele>1412.8</ele>
        <time>2022-01-13T07:03:13Z</time>
      </trkpt>
      <trkpt lat="45.69935" lon="6.25808">
        <ele>1409.7</ele>
        <time>2022-01-13T07:03:14Z</time>
      </trkpt>
      <trkpt lat="45.69939" lon="6.25809">
        <ele>1409.7</ele>
        <time>2022-01-13T07:03:15Z</time>
      </trkpt>
      <trkpt lat="45.69942" lon="6.25808">
        <ele>1407.7</ele>
        <time>2022-01-13T07:03:16Z</time>
      </trkpt>
      <trkpt lat="45.69946" lon="6.25809">
        <ele>1407.7</ele>
        <time>2022-01-13T07:03:17Z</time>
      </trkpt>
      <trkpt lat="45.6995" lon="6.2581">
        <ele>1403.8</ele>
        <time>2022-01-13T07:03:18Z</time>
      </trkpt>
      <trkpt lat="45.69954" lon="6.25809">
        <ele>1403.8</ele>
        <time>2022-01-13T07:03:19Z</time>
      </trkpt>
      <trkpt lat="45.69957" lon="6.25805">
        <ele>1400.7</ele>
        <time>2022-01-13T07:03:20Z</time>
      </trkpt>
      <trkpt lat="45.69961" lon="6.25801">
        <ele>1400.7</ele>
        <time>2022-01-13T07:03:21Z</time>
      </trkpt>
      <trkpt lat="45.69963" lon="6.25795">
        <ele>1398.7</ele>
        <time>2022-01-13T07:03:22Z</time>
      </trkpt>
      <trkpt lat="45.69963" lon="6.25789">
        <ele>1398.7</ele>
        <time>2022-01-13T07:03:23Z</time>
      </trkpt>
      <trkpt lat="45.69964" lon="6.25785">
        <ele>1395.8</ele>
        <time>2022-01-13T07:03:24Z</time>
      </trkpt>
      <trkpt lat="45.69964" lon="6.25782">
        <ele>1395.8</ele>
        <time>2022-01-13T07:03:25Z</time>
      </trkpt>
      <trkpt lat="45.69964" lon="6.2578">
        <ele>1394.8</ele>
        <time>2022-01-13T07:03:26Z</time>
      </trkpt>
      <trkpt lat="45.69965" lon="6.25779">
        <ele>1394.8</ele>
        <time>2022-01-13T07:03:27Z</time>
      </trkpt>
      <trkpt lat="45.69965" lon="6.25779">
        <ele>1393.7</ele>
        <time>2022-01-13T07:03:28Z</time>
      </trkpt>
      <trkpt lat="45.69966" lon="6.25779">
        <ele>1393.7</ele>
        <time>2022-01-13T07:03:29Z</time>
      </trkpt>
      <trkpt lat="45.69967" lon="6.25779">
        <ele>1393.7</ele>
        <time>2022-01-13T07:03:30Z</time>
      </trkpt>
      <trkpt lat="45.69967" lon="6.25778">
        <ele>1393.7</ele>
        <time>2022-01-13T07:03:31Z</time>
      </trkpt>
      <trkpt lat="45.69968" lon="6.25778">
        <ele>1392.8</ele>
        <time>2022-01-13T07:03:32Z</time>
      </trkpt>
      <trkpt lat="45.69968" lon="6.25778">
        <ele>1392.8</ele>
        <time>2022-01-13T07:03:33Z</time>
      </trkpt>
      <trkpt lat="45.69968" lon="6.25777">
        <ele>1392.8</ele>
        <time>2022-01-13T07:03:34Z</time>
      </trkpt>
      <trkpt lat="45.69968" lon="6.25777">
        <ele>1392.8</ele>
        <time>2022-01-13T07:03:35Z</time>
      </trkpt>
      <trkpt lat="45.69968" lon="6.25777">
        <ele>1392.8</ele>
        <time>2022-01-13T07:03:36Z</time>
      </trkpt>
      <trkpt lat="45.69968" lon="6.25776">
        <ele>1392.8</ele>
        <time>2022-01-13T07:03:37Z</time>
      </trkpt>
      <trkpt lat="45.69968" lon="6.25776">
        <ele>1392.8</ele>
        <time>2022-01-13T07:03:38Z</time>
      </trkpt>
      <trkpt lat="45.69968" lon="6.25775">
        <ele>1392.8</ele>
        <time>2022-01-13T07:03:39Z</time>
      </trkpt>
      <trkpt lat="45.69968" lon="6.25774">
        <ele>1392.8</ele>
        <time>2022-01-13T07:03:40Z</time>
      </trkpt>
      <trkpt lat="45.69968" lon="6.25773">
        <ele>1392.8</ele>
        <time>2022-01-13T07:03:41Z</time>
      </trkpt>
      <trkpt lat="45.69968" lon="6.25772">
        <ele>1392.8</ele>
        <time>2022-01-13T07:03:42Z</time>
      </trkpt>
      <trkpt lat="45.69968" lon="6.25771">
        <ele>1392.8</ele>
        <time>2022-01-13T07:03:43Z</time>
      </trkpt>
      <trkpt lat="45.69968" lon="6.2577">
        <ele>1392.8</ele>
        <time>2022-01-13T07:03:44Z</time>
      </trkpt>
      <trkpt lat="45.69969" lon="6.2577">
        <ele>1392.8</ele>
        <time>2022-01-13T07:03:45Z</time>
      </trkpt>
      <trkpt lat="45.69969" lon="6.2577">
        <ele>1392.8</ele>
        <time>2022-01-13T07:03:46Z</time>
      </trkpt>
      <trkpt lat="45.6997" lon="6.2577">
        <ele>1392.8</ele>
        <time>2022-01-13T07:03:47Z</time>
      </trkpt>
      <trkpt lat="45.6997" lon="6.25769">
        <ele>1392.8</ele>
        <time>2022-01-13T07:03:48Z</time>
      </trkpt>
      <trkpt lat="45.6997" lon="6.25769">
        <ele>1392.8</ele>
        <time>2022-01-13T07:03:49Z</time>
      </trkpt>
      <trkpt lat="45.69971" lon="6.25769">
        <ele>1393.7</ele>
        <time>2022-01-13T07:03:50Z</time>
      </trkpt>
      <trkpt lat="45.69971" lon="6.25769">
        <ele>1393.7</ele>
        <time>2022-01-13T07:03:51Z</time>
      </trkpt>
      <trkpt lat="45.69972" lon="6.25769">
        <ele>1393.7</ele>
        <time>2022-01-13T07:03:52Z</time>
      </trkpt>
      <trkpt lat="45.69972" lon="6.25769">
        <ele>1393.7</ele>
        <time>2022-01-13T07:03:53Z</time>
      </trkpt>
      <trkpt lat="45.69972" lon="6.25768">
        <ele>1393.7</ele>
        <time>2022-01-13T07:03:54Z</time>
      </trkpt>
      <trkpt lat="45.69972" lon="6.25768">
        <ele>1393.7</ele>
        <time>2022-01-13T07:03:55Z</time>
      </trkpt>
      <trkpt lat="45.69973" lon="6.25768">
        <ele>1393.7</ele>
        <time>2022-01-13T07:03:56Z</time>
      </trkpt>
      <trkpt lat="45.69974" lon="6.25767">
        <ele>1393.7</ele>
        <time>2022-01-13T07:03:57Z</time>
      </trkpt>
      <trkpt lat="45.69974" lon="6.25767">
        <ele>1393.7</ele>
        <time>2022-01-13T07:03:58Z</time>
      </trkpt>
      <trkpt lat="45.69975" lon="6.25766">
        <ele>1393.7</ele>
        <time>2022-01-13T07:03:59Z</time>
      </trkpt>
      <trkpt lat="45.69975" lon="6.25766">
        <ele>1393.7</ele>
        <time>2022-01-13T07:04:00Z</time>
      </trkpt>
      <trkpt lat="45.69976" lon="6.25766">
        <ele>1393.7</ele>
        <time>2022-01-13T07:04:01Z</time>
      </trkpt>
      <trkpt lat="45.69977" lon="6.25766">
        <ele>1393.7</ele>
        <time>2022-01-13T07:04:02Z</time>
      </trkpt>
      <trkpt lat="45.69978" lon="6.25766">
        <ele>1393.7</ele>
        <time>2022-01-13T07:04:03Z</time>
      </trkpt>
      <trkpt lat="45.69979" lon="6.25766">
        <ele>1393.7</ele>
        <time>2022-01-13T07:04:04Z</time>
      </trkpt>
      <trkpt lat="45.6998" lon="6.25766">
        <ele>1393.7</ele>
        <time>2022-01-13T07:04:05Z</time>
      </trkpt>
      <trkpt lat="45.69982" lon="6.25766">
        <ele>1393.7</ele>
        <time>2022-01-13T07:04:06Z</time>
      </trkpt>
      <trkpt lat="45.69983" lon="6.25766">
        <ele>1393.7</ele>
        <time>2022-01-13T07:04:07Z</time>
      </trkpt>
      <trkpt lat="45.69984" lon="6.25766">
        <ele>1393.7</ele>
        <time>2022-01-13T07:04:08Z</time>
      </trkpt>
      <trkpt lat="45.69986" lon="6.25767">
        <ele>1393.7</ele>
        <time>2022-01-13T07:04:09Z</time>
      </trkpt>
      <trkpt lat="45.69987" lon="6.25767">
        <ele>1393.7</ele>
        <time>2022-01-13T07:04:10Z</time>
      </trkpt>
      <trkpt lat="45.69988" lon="6.25767">
        <ele>1393.7</ele>
        <time>2022-01-13T07:04:11Z</time>
      </trkpt>
      <trkpt lat="45.69989" lon="6.25767">
        <ele>1394.8</ele>
        <time>2022-01-13T07:04:12Z</time>
      </trkpt>
      <trkpt lat="45.69991" lon="6.25767">
        <ele>1394.8</ele>
        <time>2022-01-13T07:04:13Z</time>
      </trkpt>
      <trkpt lat="45.69992" lon="6.25768">
        <ele>1394.8</ele>
        <time>2022-01-13T07:04:14Z</time>
      </trkpt>
      <trkpt lat="45.69993" lon="6.25768">
        <ele>1394.8</ele>
        <time>2022-01-13T07:04:15Z</time>
      </trkpt>
      <trkpt lat="45.69995" lon="6.25768">
        <ele>1394.8</ele>
        <time>2022-01-13T07:04:16Z</time>
      </trkpt>
      <trkpt lat="45.69997" lon="6.25768">
        <ele>1394.8</ele>
        <time>2022-01-13T07:04:17Z</time>
      </trkpt>
      <trkpt lat="45.69998" lon="6.25768">
        <ele>1394.8</ele>
        <time>2022-01-13T07:04:18Z</time>
      </trkpt>
      <trkpt lat="45.69999" lon="6.25768">
        <ele>1394.8</ele>
        <time>2022-01-13T07:04:19Z</time>
      </trkpt>
      <trkpt lat="45.70001" lon="6.25767">
        <ele>1394.8</ele>
        <time>2022-01-13T07:04:20Z</time>
      </trkpt>
      <trkpt lat="45.70002" lon="6.25767">
        <ele>1394.8</ele>
        <time>2022-01-13T07:04:21Z</time>
      </trkpt>
      <trkpt lat="45.70003" lon="6.25767">
        <ele>1393.7</ele>
        <time>2022-01-13T07:04:22Z</time>
      </trkpt>
      <trkpt lat="45.70003" lon="6.25767">
        <ele>1393.7</ele>
        <time>2022-01-13T07:04:23Z</time>
      </trkpt>
      <trkpt lat="45.70004" lon="6.25767">
        <ele>1393.7</ele>
        <time>2022-01-13T07:04:24Z</time>
      </trkpt>
      <trkpt lat="45.70005" lon="6.25768">
        <ele>1393.7</ele>
        <time>2022-01-13T07:04:25Z</time>
      </trkpt>
      <trkpt lat="45.70008" lon="6.25768">
        <ele>1392.8</ele>
        <time>2022-01-13T07:04:26Z</time>
      </trkpt>
      <trkpt lat="45.7001" lon="6.25769">
        <ele>1392.8</ele>
        <time>2022-01-13T07:04:27Z</time>
      </trkpt>
      <trkpt lat="45.70014" lon="6.2577">
        <ele>1391.7</ele>
        <time>2022-01-13T07:04:28Z</time>
      </trkpt>
      <trkpt lat="45.70017" lon="6.25771">
        <ele>1391.7</ele>
        <time>2022-01-13T07:04:29Z</time>
      </trkpt>
      <trkpt lat="45.70021" lon="6.25773">
        <ele>1391.7</ele>
        <time>2022-01-13T07:04:30Z</time>
      </trkpt>
      <trkpt lat="45.70025" lon="6.25775">
        <ele>1391.7</ele>
        <time>2022-01-13T07:04:31Z</time>
      </trkpt>
      <trkpt lat="45.70029" lon="6.25778">
        <ele>1391.7</ele>
        <time>2022-01-13T07:04:32Z</time>
      </trkpt>
      <trkpt lat="45.70032" lon="6.2578">
        <ele>1391.7</ele>
        <time>2022-01-13T07:04:33Z</time>
      </trkpt>
      <trkpt lat="45.70036" lon="6.25783">
        <ele>1389.8</ele>
        <time>2022-01-13T07:04:34Z</time>
      </trkpt>
      <trkpt lat="45.70042" lon="6.25787">
        <ele>1389.8</ele>
        <time>2022-01-13T07:04:35Z</time>
      </trkpt>
      <trkpt lat="45.70045" lon="6.25789">
        <ele>1389.8</ele>
        <time>2022-01-13T07:04:36Z</time>
      </trkpt>
      <trkpt lat="45.7005" lon="6.25793">
        <ele>1389.8</ele>
        <time>2022-01-13T07:04:37Z</time>
      </trkpt>
      <trkpt lat="45.70055" lon="6.25796">
        <ele>1389.8</ele>
        <time>2022-01-13T07:04:38Z</time>
      </trkpt>
      <trkpt lat="45.70059" lon="6.25798">
        <ele>1389.8</ele>
        <time>2022-01-13T07:04:39Z</time>
      </trkpt>
      <trkpt lat="45.70064" lon="6.25801">
        <ele>1386.7</ele>
        <time>2022-01-13T07:04:40Z</time>
      </trkpt>
      <trkpt lat="45.70067" lon="6.25803">
        <ele>1386.7</ele>
        <time>2022-01-13T07:04:41Z</time>
      </trkpt>
      <trkpt lat="45.7007" lon="6.25805">
        <ele>1384.7</ele>
        <time>2022-01-13T07:04:42Z</time>
      </trkpt>
      <trkpt lat="45.70074" lon="6.2581">
        <ele>1384.7</ele>
        <time>2022-01-13T07:04:43Z</time>
      </trkpt>
      <trkpt lat="45.70077" lon="6.25816">
        <ele>1382.7</ele>
        <time>2022-01-13T07:04:44Z</time>
      </trkpt>
      <trkpt lat="45.7008" lon="6.25822">
        <ele>1382.7</ele>
        <time>2022-01-13T07:04:45Z</time>
      </trkpt>
      <trkpt lat="45.70085" lon="6.25832">
        <ele>1378.8</ele>
        <time>2022-01-13T07:04:46Z</time>
      </trkpt>
      <trkpt lat="45.7009" lon="6.25841">
        <ele>1378.8</ele>
        <time>2022-01-13T07:04:47Z</time>
      </trkpt>
      <trkpt lat="45.70095" lon="6.2585">
        <ele>1375.7</ele>
        <time>2022-01-13T07:04:48Z</time>
      </trkpt>
      <trkpt lat="45.70101" lon="6.2586">
        <ele>1375.7</ele>
        <time>2022-01-13T07:04:49Z</time>
      </trkpt>
      <trkpt lat="45.70107" lon="6.2587">
        <ele>1372.8</ele>
        <time>2022-01-13T07:04:50Z</time>
      </trkpt>
      <trkpt lat="45.70112" lon="6.25878">
        <ele>1372.8</ele>
        <time>2022-01-13T07:04:51Z</time>
      </trkpt>
      <trkpt lat="45.70119" lon="6.25889">
        <ele>1369.8</ele>
        <time>2022-01-13T07:04:52Z</time>
      </trkpt>
      <trkpt lat="45.70125" lon="6.25897">
        <ele>1369.8</ele>
        <time>2022-01-13T07:04:53Z</time>
      </trkpt>
      <trkpt lat="45.70132" lon="6.25903">
        <ele>1365.8</ele>
        <time>2022-01-13T07:04:54Z</time>
      </trkpt>
      <trkpt lat="45.70139" lon="6.25907">
        <ele>1365.8</ele>
        <time>2022-01-13T07:04:55Z</time>
      </trkpt>
      <trkpt lat="45.70147" lon="6.25911">
        <ele>1361.7</ele>
        <time>2022-01-13T07:04:56Z</time>
      </trkpt>
      <trkpt lat="45.70154" lon="6.25914">
        <ele>1361.7</ele>
        <time>2022-01-13T07:04:57Z</time>
      </trkpt>
      <trkpt lat="45.70161" lon="6.25916">
        <ele>1357.7</ele>
        <time>2022-01-13T07:04:58Z</time>
      </trkpt>
      <trkpt lat="45.70167" lon="6.25918">
        <ele>1357.7</ele>
        <time>2022-01-13T07:04:59Z</time>
      </trkpt>
      <trkpt lat="45.70175" lon="6.2592">
        <ele>1354.7</ele>
        <time>2022-01-13T07:05:00Z</time>
      </trkpt>
      <trkpt lat="45.70184" lon="6.25922">
        <ele>1354.7</ele>
        <time>2022-01-13T07:05:01Z</time>
      </trkpt>
      <trkpt lat="45.70191" lon="6.25924">
        <ele>1351.8</ele>
        <time>2022-01-13T07:05:02Z</time>
      </trkpt>
      <trkpt lat="45.70199" lon="6.25925">
        <ele>1351.8</ele>
        <time>2022-01-13T07:05:03Z</time>
      </trkpt>
      <trkpt lat="45.70206" lon="6.25928">
        <ele>1348.8</ele>
        <time>2022-01-13T07:05:04Z</time>
      </trkpt>
      <trkpt lat="45.70213" lon="6.25931">
        <ele>1348.8</ele>
        <time>2022-01-13T07:05:05Z</time>
      </trkpt>
      <trkpt lat="45.7022" lon="6.25934">
        <ele>1345.7</ele>
        <time>2022-01-13T07:05:06Z</time>
      </trkpt>
      <trkpt lat="45.70226" lon="6.25939">
        <ele>1345.7</ele>
        <time>2022-01-13T07:05:07Z</time>
      </trkpt>
      <trkpt lat="45.70229" lon="6.25945">
        <ele>1341.7</ele>
        <time>2022-01-13T07:05:08Z</time>
      </trkpt>
      <trkpt lat="45.7023" lon="6.25954">
        <ele>1341.7</ele>
        <time>2022-01-13T07:05:09Z</time>
      </trkpt>
      <trkpt lat="45.70227" lon="6.25959">
        <ele>1338.7</ele>
        <time>2022-01-13T07:05:10Z</time>
      </trkpt>
      <trkpt lat="45.70222" lon="6.25963">
        <ele>1338.7</ele>
        <time>2022-01-13T07:05:11Z</time>
      </trkpt>
      <trkpt lat="45.70217" lon="6.25965">
        <ele>1335.8</ele>
        <time>2022-01-13T07:05:12Z</time>
      </trkpt>
      <trkpt lat="45.7021" lon="6.25968">
        <ele>1335.8</ele>
        <time>2022-01-13T07:05:13Z</time>
      </trkpt>
      <trkpt lat="45.70203" lon="6.25975">
        <ele>1332.8</ele>
        <time>2022-01-13T07:05:14Z</time>
      </trkpt>
      <trkpt lat="45.70201" lon="6.25981">
        <ele>1332.8</ele>
        <time>2022-01-13T07:05:15Z</time>
      </trkpt>
      <trkpt lat="45.70201" lon="6.25987">
        <ele>1329.7</ele>
        <time>2022-01-13T07:05:16Z</time>
      </trkpt>
      <trkpt lat="45.70204" lon="6.25992">
        <ele>1329.7</ele>
        <time>2022-01-13T07:05:17Z</time>
      </trkpt>
      <trkpt lat="45.70208" lon="6.25998">
        <ele>1326.8</ele>
        <time>2022-01-13T07:05:18Z</time>
      </trkpt>
      <trkpt lat="45.70214" lon="6.26005">
        <ele>1326.8</ele>
        <time>2022-01-13T07:05:19Z</time>
      </trkpt>
      <trkpt lat="45.70219" lon="6.2601">
        <ele>1321.8</ele>
        <time>2022-01-13T07:05:20Z</time>
      </trkpt>
      <trkpt lat="45.70225" lon="6.26015">
        <ele>1321.8</ele>
        <time>2022-01-13T07:05:21Z</time>
      </trkpt>
      <trkpt lat="45.70231" lon="6.26021">
        <ele>1318.7</ele>
        <time>2022-01-13T07:05:22Z</time>
      </trkpt>
      <trkpt lat="45.70238" lon="6.26026">
        <ele>1318.7</ele>
        <time>2022-01-13T07:05:23Z</time>
      </trkpt>
      <trkpt lat="45.70246" lon="6.26032">
        <ele>1315.8</ele>
        <time>2022-01-13T07:05:24Z</time>
      </trkpt>
      <trkpt lat="45.70253" lon="6.26036">
        <ele>1315.8</ele>
        <time>2022-01-13T07:05:25Z</time>
      </trkpt>
      <trkpt lat="45.70259" lon="6.26039">
        <ele>1312.8</ele>
        <time>2022-01-13T07:05:26Z</time>
      </trkpt>
      <trkpt lat="45.70268" lon="6.26043">
        <ele>1312.8</ele>
        <time>2022-01-13T07:05:27Z</time>
      </trkpt>
      <trkpt lat="45.70273" lon="6.26046">
        <ele>1310.8</ele>
        <time>2022-01-13T07:05:28Z</time>
      </trkpt>
      <trkpt lat="45.70281" lon="6.26048">
        <ele>1310.8</ele>
        <time>2022-01-13T07:05:29Z</time>
      </trkpt>
      <trkpt lat="45.70289" lon="6.26053">
        <ele>1307.8</ele>
        <time>2022-01-13T07:05:30Z</time>
      </trkpt>
      <trkpt lat="45.70296" lon="6.26058">
        <ele>1307.8</ele>
        <time>2022-01-13T07:05:31Z</time>
      </trkpt>
      <trkpt lat="45.70302" lon="6.26064">
        <ele>1307.8</ele>
        <time>2022-01-13T07:05:32Z</time>
      </trkpt>
      <trkpt lat="45.70308" lon="6.2607">
        <ele>1307.8</ele>
        <time>2022-01-13T07:05:33Z</time>
      </trkpt>
      <trkpt lat="45.70313" lon="6.26075">
        <ele>1300.8</ele>
        <time>2022-01-13T07:05:34Z</time>
      </trkpt>
      <trkpt lat="45.7032" lon="6.2608">
        <ele>1300.8</ele>
        <time>2022-01-13T07:05:35Z</time>
      </trkpt>
      <trkpt lat="45.70328" lon="6.26087">
        <ele>1297.7</ele>
        <time>2022-01-13T07:05:36Z</time>
      </trkpt>
      <trkpt lat="45.70334" lon="6.26092">
        <ele>1297.7</ele>
        <time>2022-01-13T07:05:37Z</time>
      </trkpt>
      <trkpt lat="45.70341" lon="6.26097">
        <ele>1297.7</ele>
        <time>2022-01-13T07:05:38Z</time>
      </trkpt>
      <trkpt lat="45.70348" lon="6.26103">
        <ele>1297.7</ele>
        <time>2022-01-13T07:05:39Z</time>
      </trkpt>
      <trkpt lat="45.70354" lon="6.26109">
        <ele>1297.7</ele>
        <time>2022-01-13T07:05:40Z</time>
      </trkpt>
      <trkpt lat="45.7036" lon="6.26115">
        <ele>1297.7</ele>
        <time>2022-01-13T07:05:41Z</time>
      </trkpt>
      <trkpt lat="45.70366" lon="6.26123">
        <ele>1287.8</ele>
        <time>2022-01-13T07:05:42Z</time>
      </trkpt>
      <trkpt lat="45.70373" lon="6.26129">
        <ele>1287.8</ele>
        <time>2022-01-13T07:05:43Z</time>
      </trkpt>
      <trkpt lat="45.70378" lon="6.26134">
        <ele>1284.7</ele>
        <time>2022-01-13T07:05:44Z</time>
      </trkpt>
      <trkpt lat="45.70386" lon="6.26139">
        <ele>1284.7</ele>
        <time>2022-01-13T07:05:45Z</time>
      </trkpt>
      <trkpt lat="45.70393" lon="6.26142">
        <ele>1281.7</ele>
        <time>2022-01-13T07:05:46Z</time>
      </trkpt>
      <trkpt lat="45.70399" lon="6.26144">
        <ele>1281.7</ele>
        <time>2022-01-13T07:05:47Z</time>
      </trkpt>
      <trkpt lat="45.70407" lon="6.26145">
        <ele>1278.8</ele>
        <time>2022-01-13T07:05:48Z</time>
      </trkpt>
      <trkpt lat="45.70414" lon="6.26147">
        <ele>1278.8</ele>
        <time>2022-01-13T07:05:49Z</time>
      </trkpt>
      <trkpt lat="45.70422" lon="6.2615">
        <ele>1274.8</ele>
        <time>2022-01-13T07:05:50Z</time>
      </trkpt>
      <trkpt lat="45.70429" lon="6.26153">
        <ele>1274.8</ele>
        <time>2022-01-13T07:05:51Z</time>
      </trkpt>
      <trkpt lat="45.70435" lon="6.26156">
        <ele>1270.7</ele>
        <time>2022-01-13T07:05:52Z</time>
      </trkpt>
      <trkpt lat="45.70442" lon="6.26159">
        <ele>1270.7</ele>
        <time>2022-01-13T07:05:53Z</time>
      </trkpt>
      <trkpt lat="45.7045" lon="6.26162">
        <ele>1267.8</ele>
        <time>2022-01-13T07:05:54Z</time>
      </trkpt>
      <trkpt lat="45.70456" lon="6.26163">
        <ele>1267.8</ele>
        <time>2022-01-13T07:05:55Z</time>
      </trkpt>
      <trkpt lat="45.70463" lon="6.26167">
        <ele>1263.7</ele>
        <time>2022-01-13T07:05:56Z</time>
      </trkpt>
      <trkpt lat="45.70466" lon="6.26174">
        <ele>1263.7</ele>
        <time>2022-01-13T07:05:57Z</time>
      </trkpt>
      <trkpt lat="45.70467" lon="6.26182">
        <ele>1259.8</ele>
        <time>2022-01-13T07:05:58Z</time>
      </trkpt>
      <trkpt lat="45.70464" lon="6.26187">
        <ele>1259.8</ele>
        <time>2022-01-13T07:05:59Z</time>
      </trkpt>
      <trkpt lat="45.70459" lon="6.26191">
        <ele>1256.7</ele>
        <time>2022-01-13T07:06:00Z</time>
      </trkpt>
      <trkpt lat="45.70453" lon="6.26194">
        <ele>1256.7</ele>
        <time>2022-01-13T07:06:01Z</time>
      </trkpt>
      <trkpt lat="45.70442" lon="6.262">
        <ele>1253.8</ele>
        <time>2022-01-13T07:06:02Z</time>
      </trkpt>
      <trkpt lat="45.70435" lon="6.26204">
        <ele>1253.8</ele>
        <time>2022-01-13T07:06:03Z</time>
      </trkpt>
      <trkpt lat="45.70426" lon="6.2621">
        <ele>1249.8</ele>
        <time>2022-01-13T07:06:04Z</time>
      </trkpt>
      <trkpt lat="45.70421" lon="6.26215">
        <ele>1249.8</ele>
        <time>2022-01-13T07:06:05Z</time>
      </trkpt>
      <trkpt lat="45.70418" lon="6.26221">
        <ele>1246.8</ele>
        <time>2022-01-13T07:06:06Z</time>
      </trkpt>
      <trkpt lat="45.70417" lon="6.26228">
        <ele>1246.8</ele>
        <time>2022-01-13T07:06:07Z</time>
      </trkpt>
      <trkpt lat="45.70418" lon="6.26232">
        <ele>1245.7</ele>
        <time>2022-01-13T07:06:08Z</time>
      </trkpt>
      <trkpt lat="45.70422" lon="6.26235">
        <ele>1245.7</ele>
        <time>2022-01-13T07:06:09Z</time>
      </trkpt>
      <trkpt lat="45.70427" lon="6.26236">
        <ele>1241.8</ele>
        <time>2022-01-13T07:06:10Z</time>
      </trkpt>
      <trkpt lat="45.70433" lon="6.26237">
        <ele>1241.8</ele>
        <time>2022-01-13T07:06:11Z</time>
      </trkpt>
      <trkpt lat="45.70439" lon="6.26239">
        <ele>1238.7</ele>
        <time>2022-01-13T07:06:12Z</time>
      </trkpt>
      <trkpt lat="45.70446" lon="6.26243">
        <ele>1238.7</ele>
        <time>2022-01-13T07:06:13Z</time>
      </trkpt>
      <trkpt lat="45.70453" lon="6.26249">
        <ele>1234.8</ele>
        <time>2022-01-13T07:06:14Z</time>
      </trkpt>
      <trkpt lat="45.70459" lon="6.26257">
        <ele>1234.8</ele>
        <time>2022-01-13T07:06:15Z</time>
      </trkpt>
      <trkpt lat="45.70464" lon="6.26266">
        <ele>1230.8</ele>
        <time>2022-01-13T07:06:16Z</time>
      </trkpt>
      <trkpt lat="45.70469" lon="6.26273">
        <ele>1230.8</ele>
        <time>2022-01-13T07:06:17Z</time>
      </trkpt>
      <trkpt lat="45.70474" lon="6.26277">
        <ele>1227.7</ele>
        <time>2022-01-13T07:06:18Z</time>
      </trkpt>
      <trkpt lat="45.70482" lon="6.26283">
        <ele>1227.7</ele>
        <time>2022-01-13T07:06:19Z</time>
      </trkpt>
      <trkpt lat="45.7049" lon="6.26288">
        <ele>1223.8</ele>
        <time>2022-01-13T07:06:20Z</time>
      </trkpt>
      <trkpt lat="45.70497" lon="6.26294">
        <ele>1223.8</ele>
        <time>2022-01-13T07:06:21Z</time>
      </trkpt>
      <trkpt lat="45.70504" lon="6.26301">
        <ele>1220.7</ele>
        <time>2022-01-13T07:06:22Z</time>
      </trkpt>
      <trkpt lat="45.7051" lon="6.26309">
        <ele>1220.7</ele>
        <time>2022-01-13T07:06:23Z</time>
      </trkpt>
      <trkpt lat="45.70515" lon="6.26316">
        <ele>1217.8</ele>
        <time>2022-01-13T07:06:24Z</time>
      </trkpt>
      <trkpt lat="45.70522" lon="6.26328">
        <ele>1217.8</ele>
        <time>2022-01-13T07:06:25Z</time>
      </trkpt>
      <trkpt lat="45.70527" lon="6.26338">
        <ele>1213.7</ele>
        <time>2022-01-13T07:06:26Z</time>
      </trkpt>
      <trkpt lat="45.70531" lon="6.26346">
        <ele>1213.7</ele>
        <time>2022-01-13T07:06:27Z</time>
      </trkpt>
      <trkpt lat="45.70534" lon="6.26355">
        <ele>1208.7</ele>
        <time>2022-01-13T07:06:28Z</time>
      </trkpt>
      <trkpt lat="45.70538" lon="6.26364">
        <ele>1208.7</ele>
        <time>2022-01-13T07:06:29Z</time>
      </trkpt>
      <trkpt lat="45.70541" lon="6.26373">
        <ele>1208.7</ele>
        <time>2022-01-13T07:06:30Z</time>
      </trkpt>
      <trkpt lat="45.70545" lon="6.26381">
        <ele>1208.7</ele>
        <time>2022-01-13T07:06:31Z</time>
      </trkpt>
      <trkpt lat="45.70549" lon="6.26389">
        <ele>1208.7</ele>
        <time>2022-01-13T07:06:32Z</time>
      </trkpt>
      <trkpt lat="45.70554" lon="6.26397">
        <ele>1208.7</ele>
        <time>2022-01-13T07:06:33Z</time>
      </trkpt>
      <trkpt lat="45.70558" lon="6.26404">
        <ele>1199.7</ele>
        <time>2022-01-13T07:06:34Z</time>
      </trkpt>
      <trkpt lat="45.70562" lon="6.26412">
        <ele>1199.7</ele>
        <time>2022-01-13T07:06:35Z</time>
      </trkpt>
      <trkpt lat="45.70566" lon="6.2642">
        <ele>1196.8</ele>
        <time>2022-01-13T07:06:36Z</time>
      </trkpt>
      <trkpt lat="45.70569" lon="6.26429">
        <ele>1196.8</ele>
        <time>2022-01-13T07:06:37Z</time>
      </trkpt>
      <trkpt lat="45.70572" lon="6.26438">
        <ele>1192.7</ele>
        <time>2022-01-13T07:06:38Z</time>
      </trkpt>
      <trkpt lat="45.70575" lon="6.26448">
        <ele>1192.7</ele>
        <time>2022-01-13T07:06:39Z</time>
      </trkpt>
      <trkpt lat="45.70576" lon="6.26458">
        <ele>1192.7</ele>
        <time>2022-01-13T07:06:40Z</time>
      </trkpt>
      <trkpt lat="45.70578" lon="6.26468">
        <ele>1192.7</ele>
        <time>2022-01-13T07:06:41Z</time>
      </trkpt>
      <trkpt lat="45.7058" lon="6.26478">
        <ele>1185.8</ele>
        <time>2022-01-13T07:06:42Z</time>
      </trkpt>
      <trkpt lat="45.70581" lon="6.26487">
        <ele>1185.8</ele>
        <time>2022-01-13T07:06:43Z</time>
      </trkpt>
      <trkpt lat="45.70583" lon="6.26496">
        <ele>1182.8</ele>
        <time>2022-01-13T07:06:44Z</time>
      </trkpt>
      <trkpt lat="45.70584" lon="6.26504">
        <ele>1182.8</ele>
        <time>2022-01-13T07:06:45Z</time>
      </trkpt>
      <trkpt lat="45.70586" lon="6.26512">
        <ele>1180.8</ele>
        <time>2022-01-13T07:06:46Z</time>
      </trkpt>
      <trkpt lat="45.70588" lon="6.2652">
        <ele>1180.8</ele>
        <time>2022-01-13T07:06:47Z</time>
      </trkpt>
      <trkpt lat="45.70589" lon="6.26529">
        <ele>1176.8</ele>
        <time>2022-01-13T07:06:48Z</time>
      </trkpt>
      <trkpt lat="45.70591" lon="6.26539">
        <ele>1176.8</ele>
        <time>2022-01-13T07:06:49Z</time>
      </trkpt>
      <trkpt lat="45.70592" lon="6.26548">
        <ele>1173.8</ele>
        <time>2022-01-13T07:06:50Z</time>
      </trkpt>
      <trkpt lat="45.70595" lon="6.26557">
        <ele>1173.8</ele>
        <time>2022-01-13T07:06:51Z</time>
      </trkpt>
      <trkpt lat="45.70597" lon="6.26566">
        <ele>1170.8</ele>
        <time>2022-01-13T07:06:52Z</time>
      </trkpt>
      <trkpt lat="45.706" lon="6.26575">
        <ele>1170.8</ele>
        <time>2022-01-13T07:06:53Z</time>
      </trkpt>
      <trkpt lat="45.70604" lon="6.26584">
        <ele>1168.8</ele>
        <time>2022-01-13T07:06:54Z</time>
      </trkpt>
      <trkpt lat="45.70607" lon="6.26593">
        <ele>1168.8</ele>
        <time>2022-01-13T07:06:55Z</time>
      </trkpt>
      <trkpt lat="45.7061" lon="6.26602">
        <ele>1164.8</ele>
        <time>2022-01-13T07:06:56Z</time>
      </trkpt>
      <trkpt lat="45.70614" lon="6.2661">
        <ele>1164.8</ele>
        <time>2022-01-13T07:06:57Z</time>
      </trkpt>
      <trkpt lat="45.70619" lon="6.26619">
        <ele>1160.8</ele>
        <time>2022-01-13T07:06:58Z</time>
      </trkpt>
      <trkpt lat="45.70622" lon="6.26627">
        <ele>1160.8</ele>
        <time>2022-01-13T07:06:59Z</time>
      </trkpt>
      <trkpt lat="45.70626" lon="6.26635">
        <ele>1158.7</ele>
        <time>2022-01-13T07:07:00Z</time>
      </trkpt>
      <trkpt lat="45.7063" lon="6.26642">
        <ele>1158.7</ele>
        <time>2022-01-13T07:07:01Z</time>
      </trkpt>
      <trkpt lat="45.70634" lon="6.26647">
        <ele>1155.8</ele>
        <time>2022-01-13T07:07:02Z</time>
      </trkpt>
      <trkpt lat="45.70639" lon="6.26652">
        <ele>1155.8</ele>
        <time>2022-01-13T07:07:03Z</time>
      </trkpt>
      <trkpt lat="45.70645" lon="6.26656">
        <ele>1152.8</ele>
        <time>2022-01-13T07:07:04Z</time>
      </trkpt>
      <trkpt lat="45.70651" lon="6.26663">
        <ele>1152.8</ele>
        <time>2022-01-13T07:07:05Z</time>
      </trkpt>
      <trkpt lat="45.70656" lon="6.2667">
        <ele>1150.8</ele>
        <time>2022-01-13T07:07:06Z</time>
      </trkpt>
      <trkpt lat="45.70661" lon="6.26679">
        <ele>1150.8</ele>
        <time>2022-01-13T07:07:07Z</time>
      </trkpt>
      <trkpt lat="45.70665" lon="6.26688">
        <ele>1148.8</ele>
        <time>2022-01-13T07:07:08Z</time>
      </trkpt>
      <trkpt lat="45.70669" lon="6.26698">
        <ele>1148.8</ele>
        <time>2022-01-13T07:07:09Z</time>
      </trkpt>
      <trkpt lat="45.70673" lon="6.26708">
        <ele>1145.8</ele>
        <time>2022-01-13T07:07:10Z</time>
      </trkpt>
      <trkpt lat="45.70677" lon="6.26718">
        <ele>1145.8</ele>
        <time>2022-01-13T07:07:11Z</time>
      </trkpt>
      <trkpt lat="45.70681" lon="6.26727">
        <ele>1143.8</ele>
        <time>2022-01-13T07:07:12Z</time>
      </trkpt>
      <trkpt lat="45.70686" lon="6.26736">
        <ele>1143.8</ele>
        <time>2022-01-13T07:07:13Z</time>
      </trkpt>
      <trkpt lat="45.70692" lon="6.26744">
        <ele>1141.8</ele>
        <time>2022-01-13T07:07:14Z</time>
      </trkpt>
      <trkpt lat="45.70699" lon="6.26751">
        <ele>1141.8</ele>
        <time>2022-01-13T07:07:15Z</time>
      </trkpt>
      <trkpt lat="45.70707" lon="6.26757">
        <ele>1137.8</ele>
        <time>2022-01-13T07:07:16Z</time>
      </trkpt>
      <trkpt lat="45.70714" lon="6.26763">
        <ele>1137.8</ele>
        <time>2022-01-13T07:07:17Z</time>
      </trkpt>
      <trkpt lat="45.70721" lon="6.26769">
        <ele>1134.8</ele>
        <time>2022-01-13T07:07:18Z</time>
      </trkpt>
      <trkpt lat="45.70728" lon="6.26775">
        <ele>1134.8</ele>
        <time>2022-01-13T07:07:19Z</time>
      </trkpt>
      <trkpt lat="45.70734" lon="6.26784">
        <ele>1131.7</ele>
        <time>2022-01-13T07:07:20Z</time>
      </trkpt>
      <trkpt lat="45.70739" lon="6.26794">
        <ele>1131.7</ele>
        <time>2022-01-13T07:07:21Z</time>
      </trkpt>
      <trkpt lat="45.70743" lon="6.26805">
        <ele>1128.8</ele>
        <time>2022-01-13T07:07:22Z</time>
      </trkpt>
      <trkpt lat="45.70747" lon="6.26816">
        <ele>1128.8</ele>
        <time>2022-01-13T07:07:23Z</time>
      </trkpt>
      <trkpt lat="45.70751" lon="6.26827">
        <ele>1126.7</ele>
        <time>2022-01-13T07:07:24Z</time>
      </trkpt>
      <trkpt lat="45.70755" lon="6.26837">
        <ele>1126.7</ele>
        <time>2022-01-13T07:07:25Z</time>
      </trkpt>
      <trkpt lat="45.7076" lon="6.26847">
        <ele>1125.8</ele>
        <time>2022-01-13T07:07:26Z</time>
      </trkpt>
      <trkpt lat="45.70765" lon="6.26855">
        <ele>1125.8</ele>
        <time>2022-01-13T07:07:27Z</time>
      </trkpt>
      <trkpt lat="45.70771" lon="6.26864">
        <ele>1123.8</ele>
        <time>2022-01-13T07:07:28Z</time>
      </trkpt>
      <trkpt lat="45.70775" lon="6.26872">
        <ele>1123.8</ele>
        <time>2022-01-13T07:07:29Z</time>
      </trkpt>
      <trkpt lat="45.7078" lon="6.26881">
        <ele>1121.8</ele>
        <time>2022-01-13T07:07:30Z</time>
      </trkpt>
      <trkpt lat="45.70785" lon="6.2689">
        <ele>1121.8</ele>
        <time>2022-01-13T07:07:31Z</time>
      </trkpt>
      <trkpt lat="45.70791" lon="6.26897">
        <ele>1120.8</ele>
        <time>2022-01-13T07:07:32Z</time>
      </trkpt>
      <trkpt lat="45.70797" lon="6.26905">
        <ele>1120.8</ele>
        <time>2022-01-13T07:07:33Z</time>
      </trkpt>
      <trkpt lat="45.70803" lon="6.26912">
        <ele>1120.8</ele>
        <time>2022-01-13T07:07:34Z</time>
      </trkpt>
      <trkpt lat="45.70809" lon="6.26921">
        <ele>1120.8</ele>
        <time>2022-01-13T07:07:35Z</time>
      </trkpt>
      <trkpt lat="45.70816" lon="6.26929">
        <ele>1120.8</ele>
        <time>2022-01-13T07:07:36Z</time>
      </trkpt>
      <trkpt lat="45.70823" lon="6.26937">
        <ele>1120.8</ele>
        <time>2022-01-13T07:07:37Z</time>
      </trkpt>
      <trkpt lat="45.7083" lon="6.26944">
        <ele>1112.8</ele>
        <time>2022-01-13T07:07:38Z</time>
      </trkpt>
      <trkpt lat="45.70837" lon="6.26952">
        <ele>1112.8</ele>
        <time>2022-01-13T07:07:39Z</time>
      </trkpt>
      <trkpt lat="45.70844" lon="6.26957">
        <ele>1112.8</ele>
        <time>2022-01-13T07:07:40Z</time>
      </trkpt>
      <trkpt lat="45.70852" lon="6.26961">
        <ele>1112.8</ele>
        <time>2022-01-13T07:07:41Z</time>
      </trkpt>
      <trkpt lat="45.7086" lon="6.26963">
        <ele>1112.8</ele>
        <time>2022-01-13T07:07:42Z</time>
      </trkpt>
      <trkpt lat="45.70868" lon="6.26965">
        <ele>1112.8</ele>
        <time>2022-01-13T07:07:43Z</time>
      </trkpt>
      <trkpt lat="45.70876" lon="6.26967">
        <ele>1106.7</ele>
        <time>2022-01-13T07:07:44Z</time>
      </trkpt>
      <trkpt lat="45.70883" lon="6.26968">
        <ele>1106.7</ele>
        <time>2022-01-13T07:07:45Z</time>
      </trkpt>
      <trkpt lat="45.70889" lon="6.26969">
        <ele>1106.7</ele>
        <time>2022-01-13T07:07:46Z</time>
      </trkpt>
      <trkpt lat="45.70895" lon="6.2697">
        <ele>1106.7</ele>
        <time>2022-01-13T07:07:47Z</time>
      </trkpt>
      <trkpt lat="45.70901" lon="6.26972">
        <ele>1104.8</ele>
        <time>2022-01-13T07:07:48Z</time>
      </trkpt>
      <trkpt lat="45.70907" lon="6.26974">
        <ele>1104.8</ele>
        <time>2022-01-13T07:07:49Z</time>
      </trkpt>
      <trkpt lat="45.70912" lon="6.26977">
        <ele>1103.8</ele>
        <time>2022-01-13T07:07:50Z</time>
      </trkpt>
      <trkpt lat="45.70918" lon="6.2698">
        <ele>1103.8</ele>
        <time>2022-01-13T07:07:51Z</time>
      </trkpt>
      <trkpt lat="45.70923" lon="6.26984">
        <ele>1102.8</ele>
        <time>2022-01-13T07:07:52Z</time>
      </trkpt>
      <trkpt lat="45.70928" lon="6.26988">
        <ele>1102.8</ele>
        <time>2022-01-13T07:07:53Z</time>
      </trkpt>
      <trkpt lat="45.70933" lon="6.26993">
        <ele>1102.8</ele>
        <time>2022-01-13T07:07:54Z</time>
      </trkpt>
      <trkpt lat="45.70938" lon="6.26997">
        <ele>1102.8</ele>
        <time>2022-01-13T07:07:55Z</time>
      </trkpt>
      <trkpt lat="45.70943" lon="6.27002">
        <ele>1101.7</ele>
        <time>2022-01-13T07:07:56Z</time>
      </trkpt>
      <trkpt lat="45.70948" lon="6.27007">
        <ele>1101.7</ele>
        <time>2022-01-13T07:07:57Z</time>
      </trkpt>
      <trkpt lat="45.70954" lon="6.27012">
        <ele>1099.7</ele>
        <time>2022-01-13T07:07:58Z</time>
      </trkpt>
      <trkpt lat="45.7096" lon="6.27017">
        <ele>1099.7</ele>
        <time>2022-01-13T07:07:59Z</time>
      </trkpt>
      <trkpt lat="45.70966" lon="6.27023">
        <ele>1097.8</ele>
        <time>2022-01-13T07:08:00Z</time>
      </trkpt>
      <trkpt lat="45.70972" lon="6.27028">
        <ele>1097.8</ele>
        <time>2022-01-13T07:08:01Z</time>
      </trkpt>
      <trkpt lat="45.70979" lon="6.27034">
        <ele>1094.7</ele>
        <time>2022-01-13T07:08:02Z</time>
      </trkpt>
      <trkpt lat="45.70986" lon="6.2704">
        <ele>1094.7</ele>
        <time>2022-01-13T07:08:03Z</time>
      </trkpt>
      <trkpt lat="45.70993" lon="6.27045">
        <ele>1092.7</ele>
        <time>2022-01-13T07:08:04Z</time>
      </trkpt>
      <trkpt lat="45.71" lon="6.27051">
        <ele>1092.7</ele>
        <time>2022-01-13T07:08:05Z</time>
      </trkpt>
      <trkpt lat="45.71008" lon="6.27056">
        <ele>1089.8</ele>
        <time>2022-01-13T07:08:06Z</time>
      </trkpt>
      <trkpt lat="45.71015" lon="6.27061">
        <ele>1089.8</ele>
        <time>2022-01-13T07:08:07Z</time>
      </trkpt>
      <trkpt lat="45.71022" lon="6.27066">
        <ele>1086.8</ele>
        <time>2022-01-13T07:08:08Z</time>
      </trkpt>
      <trkpt lat="45.7103" lon="6.27071">
        <ele>1086.8</ele>
        <time>2022-01-13T07:08:09Z</time>
      </trkpt>
      <trkpt lat="45.71038" lon="6.27076">
        <ele>1084.8</ele>
        <time>2022-01-13T07:08:10Z</time>
      </trkpt>
      <trkpt lat="45.71045" lon="6.27081">
        <ele>1084.8</ele>
        <time>2022-01-13T07:08:11Z</time>
      </trkpt>
      <trkpt lat="45.71053" lon="6.27086">
        <ele>1082.8</ele>
        <time>2022-01-13T07:08:12Z</time>
      </trkpt>
      <trkpt lat="45.71061" lon="6.2709">
        <ele>1082.8</ele>
        <time>2022-01-13T07:08:13Z</time>
      </trkpt>
      <trkpt lat="45.71069" lon="6.27094">
        <ele>1079.8</ele>
        <time>2022-01-13T07:08:14Z</time>
      </trkpt>
      <trkpt lat="45.71077" lon="6.27098">
        <ele>1079.8</ele>
        <time>2022-01-13T07:08:15Z</time>
      </trkpt>
      <trkpt lat="45.71085" lon="6.27102">
        <ele>1077.8</ele>
        <time>2022-01-13T07:08:16Z</time>
      </trkpt>
      <trkpt lat="45.71094" lon="6.27106">
        <ele>1077.8</ele>
        <time>2022-01-13T07:08:17Z</time>
      </trkpt>
      <trkpt lat="45.71102" lon="6.2711">
        <ele>1075.8</ele>
        <time>2022-01-13T07:08:18Z</time>
      </trkpt>
      <trkpt lat="45.71111" lon="6.27114">
        <ele>1075.8</ele>
        <time>2022-01-13T07:08:19Z</time>
      </trkpt>
      <trkpt lat="45.7112" lon="6.27117">
        <ele>1072.8</ele>
        <time>2022-01-13T07:08:20Z</time>
      </trkpt>
      <trkpt lat="45.71129" lon="6.27119">
        <ele>1072.8</ele>
        <time>2022-01-13T07:08:21Z</time>
      </trkpt>
      <trkpt lat="45.71138" lon="6.27121">
        <ele>1068.8</ele>
        <time>2022-01-13T07:08:22Z</time>
      </trkpt>
      <trkpt lat="45.71147" lon="6.27123">
        <ele>1068.8</ele>
        <time>2022-01-13T07:08:23Z</time>
      </trkpt>
      <trkpt lat="45.71157" lon="6.27125">
        <ele>1065.7</ele>
        <time>2022-01-13T07:08:24Z</time>
      </trkpt>
      <trkpt lat="45.71166" lon="6.27129">
        <ele>1065.7</ele>
        <time>2022-01-13T07:08:25Z</time>
      </trkpt>
      <trkpt lat="45.71175" lon="6.27132">
        <ele>1061.8</ele>
        <time>2022-01-13T07:08:26Z</time>
      </trkpt>
      <trkpt lat="45.71184" lon="6.27136">
        <ele>1061.8</ele>
        <time>2022-01-13T07:08:27Z</time>
      </trkpt>
      <trkpt lat="45.71192" lon="6.2714">
        <ele>1058.7</ele>
        <time>2022-01-13T07:08:28Z</time>
      </trkpt>
      <trkpt lat="45.71201" lon="6.27143">
        <ele>1058.7</ele>
        <time>2022-01-13T07:08:29Z</time>
      </trkpt>
      <trkpt lat="45.7121" lon="6.27145">
        <ele>1057.8</ele>
        <time>2022-01-13T07:08:30Z</time>
      </trkpt>
      <trkpt lat="45.7122" lon="6.27146">
        <ele>1057.8</ele>
        <time>2022-01-13T07:08:31Z</time>
      </trkpt>
      <trkpt lat="45.71229" lon="6.27149">
        <ele>1052.8</ele>
        <time>2022-01-13T07:08:32Z</time>
      </trkpt>
      <trkpt lat="45.71238" lon="6.27153">
        <ele>1052.8</ele>
        <time>2022-01-13T07:08:33Z</time>
      </trkpt>
      <trkpt lat="45.71246" lon="6.27158">
        <ele>1049.7</ele>
        <time>2022-01-13T07:08:34Z</time>
      </trkpt>
      <trkpt lat="45.71254" lon="6.27163">
        <ele>1049.7</ele>
        <time>2022-01-13T07:08:35Z</time>
      </trkpt>
      <trkpt lat="45.71263" lon="6.2717">
        <ele>1049.7</ele>
        <time>2022-01-13T07:08:36Z</time>
      </trkpt>
      <trkpt lat="45.71271" lon="6.27177">
        <ele>1049.7</ele>
        <time>2022-01-13T07:08:37Z</time>
      </trkpt>
      <trkpt lat="45.71278" lon="6.27184">
        <ele>1049.7</ele>
        <time>2022-01-13T07:08:38Z</time>
      </trkpt>
      <trkpt lat="45.71286" lon="6.27191">
        <ele>1049.7</ele>
        <time>2022-01-13T07:08:39Z</time>
      </trkpt>
      <trkpt lat="45.71294" lon="6.27199">
        <ele>1041.8</ele>
        <time>2022-01-13T07:08:40Z</time>
      </trkpt>
      <trkpt lat="45.71301" lon="6.27207">
        <ele>1041.8</ele>
        <time>2022-01-13T07:08:41Z</time>
      </trkpt>
      <trkpt lat="45.71308" lon="6.27215">
        <ele>1041.8</ele>
        <time>2022-01-13T07:08:42Z</time>
      </trkpt>
      <trkpt lat="45.71314" lon="6.27224">
        <ele>1041.8</ele>
        <time>2022-01-13T07:08:43Z</time>
      </trkpt>
      <trkpt lat="45.7132" lon="6.27234">
        <ele>1041.8</ele>
        <time>2022-01-13T07:08:44Z</time>
      </trkpt>
      <trkpt lat="45.71325" lon="6.27245">
        <ele>1041.8</ele>
        <time>2022-01-13T07:08:45Z</time>
      </trkpt>
      <trkpt lat="45.7133" lon="6.27256">
        <ele>1032.8</ele>
        <time>2022-01-13T07:08:46Z</time>
      </trkpt>
      <trkpt lat="45.71335" lon="6.27267">
        <ele>1032.8</ele>
        <time>2022-01-13T07:08:47Z</time>
      </trkpt>
      <trkpt lat="45.71339" lon="6.27279">
        <ele>1029.8</ele>
        <time>2022-01-13T07:08:48Z</time>
      </trkpt>
      <trkpt lat="45.71341" lon="6.27291">
        <ele>1029.8</ele>
        <time>2022-01-13T07:08:49Z</time>
      </trkpt>
      <trkpt lat="45.71343" lon="6.27304">
        <ele>1027.8</ele>
        <time>2022-01-13T07:08:50Z</time>
      </trkpt>
      <trkpt lat="45.71345" lon="6.27316">
        <ele>1027.8</ele>
        <time>2022-01-13T07:08:51Z</time>
      </trkpt>
      <trkpt lat="45.71346" lon="6.27329">
        <ele>1024.8</ele>
        <time>2022-01-13T07:08:52Z</time>
      </trkpt>
      <trkpt lat="45.71347" lon="6.27342">
        <ele>1024.8</ele>
        <time>2022-01-13T07:08:53Z</time>
      </trkpt>
      <trkpt lat="45.71346" lon="6.27354">
        <ele>1021.7</ele>
        <time>2022-01-13T07:08:54Z</time>
      </trkpt>
      <trkpt lat="45.71344" lon="6.27365">
        <ele>1021.7</ele>
        <time>2022-01-13T07:08:55Z</time>
      </trkpt>
      <trkpt lat="45.71342" lon="6.27377">
        <ele>1018.8</ele>
        <time>2022-01-13T07:08:56Z</time>
      </trkpt>
      <trkpt lat="45.71341" lon="6.27388">
        <ele>1018.8</ele>
        <time>2022-01-13T07:08:57Z</time>
      </trkpt>
      <trkpt lat="45.71339" lon="6.274">
        <ele>1015.8</ele>
        <time>2022-01-13T07:08:58Z</time>
      </trkpt>
      <trkpt lat="45.71337" lon="6.27411">
        <ele>1015.8</ele>
        <time>2022-01-13T07:08:59Z</time>
      </trkpt>
      <trkpt lat="45.71336" lon="6.27423">
        <ele>1014.8</ele>
        <time>2022-01-13T07:09:00Z</time>
      </trkpt>
      <trkpt lat="45.71335" lon="6.27434">
        <ele>1014.8</ele>
        <time>2022-01-13T07:09:01Z</time>
      </trkpt>
      <trkpt lat="45.71334" lon="6.27445">
        <ele>1012.7</ele>
        <time>2022-01-13T07:09:02Z</time>
      </trkpt>
      <trkpt lat="45.71334" lon="6.27457">
        <ele>1012.7</ele>
        <time>2022-01-13T07:09:03Z</time>
      </trkpt>
      <trkpt lat="45.71334" lon="6.27467">
        <ele>1009.8</ele>
        <time>2022-01-13T07:09:04Z</time>
      </trkpt>
      <trkpt lat="45.71335" lon="6.27477">
        <ele>1009.8</ele>
        <time>2022-01-13T07:09:05Z</time>
      </trkpt>
      <trkpt lat="45.71337" lon="6.27484">
        <ele>1007.8</ele>
        <time>2022-01-13T07:09:06Z</time>
      </trkpt>
      <trkpt lat="45.7134" lon="6.27488">
        <ele>1007.8</ele>
        <time>2022-01-13T07:09:07Z</time>
      </trkpt>
      <trkpt lat="45.71343" lon="6.27489">
        <ele>1006.8</ele>
        <time>2022-01-13T07:09:08Z</time>
      </trkpt>
      <trkpt lat="45.71344" lon="6.27488">
        <ele>1006.8</ele>
        <time>2022-01-13T07:09:09Z</time>
      </trkpt>
      <trkpt lat="45.71345" lon="6.27487">
        <ele>1005.7</ele>
        <time>2022-01-13T07:09:10Z</time>
      </trkpt>
      <trkpt lat="45.71345" lon="6.27487">
        <ele>1005.7</ele>
        <time>2022-01-13T07:09:11Z</time>
      </trkpt>
      <trkpt lat="45.71345" lon="6.27487">
        <ele>1005.7</ele>
        <time>2022-01-13T07:09:12Z</time>
      </trkpt>
      <trkpt lat="45.71345" lon="6.27487">
        <ele>1005.7</ele>
        <time>2022-01-13T07:09:13Z</time>
      </trkpt>
      <trkpt lat="45.71345" lon="6.27487">
        <ele>1005.7</ele>
        <time>2022-01-13T07:09:14Z</time>
      </trkpt>
      <trkpt lat="45.71345" lon="6.27487">
        <ele>1005.7</ele>
        <time>2022-01-13T07:09:15Z</time>
      </trkpt>
      <trkpt lat="45.71345" lon="6.27487">
        <ele>1005.7</ele>
        <time>2022-01-13T07:09:16Z</time>
      </trkpt>
      <trkpt lat="45.71345" lon="6.27488">
        <ele>1005.7</ele>
        <time>2022-01-13T07:09:17Z</time>
      </trkpt>
      <trkpt lat="45.71345" lon="6.27488">
        <ele>1006.8</ele>
        <time>2022-01-13T07:09:18Z</time>
      </trkpt>
      <trkpt lat="45.71345" lon="6.27488">
        <ele>1006.8</ele>
        <time>2022-01-13T07:09:19Z</time>
      </trkpt>
      <trkpt lat="45.71345" lon="6.27488">
        <ele>1005.7</ele>
        <time>2022-01-13T07:09:20Z</time>
      </trkpt>
      <trkpt lat="45.71345" lon="6.27488">
        <ele>1005.7</ele>
        <time>2022-01-13T07:09:21Z</time>
      </trkpt>
      <trkpt lat="45.71345" lon="6.27488">
        <ele>1005.7</ele>
        <time>2022-01-13T07:09:22Z</time>
      </trkpt>
      <trkpt lat="45.71345" lon="6.27489">
        <ele>1005.7</ele>
        <time>2022-01-13T07:09:23Z</time>
      </trkpt>
      <trkpt lat="45.71345" lon="6.27489">
        <ele>1004.8</ele>
        <time>2022-01-13T07:09:24Z</time>
      </trkpt>
      <trkpt lat="45.71345" lon="6.27489">
        <ele>1004.8</ele>
        <time>2022-01-13T07:09:25Z</time>
      </trkpt>
      <trkpt lat="45.71345" lon="6.27489">
        <ele>1004.8</ele>
        <time>2022-01-13T07:09:26Z</time>
      </trkpt>
      <trkpt lat="45.71345" lon="6.27489">
        <ele>1004.8</ele>
        <time>2022-01-13T07:09:27Z</time>
      </trkpt>
      <trkpt lat="45.71345" lon="6.27489">
        <ele>1004.8</ele>
        <time>2022-01-13T07:09:28Z</time>
      </trkpt>
      <trkpt lat="45.71345" lon="6.2749">
        <ele>1004.8</ele>
        <time>2022-01-13T07:09:29Z</time>
      </trkpt>
      <trkpt lat="45.71345" lon="6.2749">
        <ele>1004.8</ele>
        <time>2022-01-13T07:09:30Z</time>
      </trkpt>
      <trkpt lat="45.71345" lon="6.2749">
        <ele>1004.8</ele>
        <time>2022-01-13T07:09:31Z</time>
      </trkpt>
      <trkpt lat="45.71345" lon="6.2749">
        <ele>1004.8</ele>
        <time>2022-01-13T07:09:32Z</time>
      </trkpt>
      <trkpt lat="45.71345" lon="6.2749">
        <ele>1004.8</ele>
        <time>2022-01-13T07:09:33Z</time>
      </trkpt>
      <trkpt lat="45.71345" lon="6.2749">
        <ele>1004.8</ele>
        <time>2022-01-13T07:09:34Z</time>
      </trkpt>
      <trkpt lat="45.71345" lon="6.27491">
        <ele>1004.8</ele>
        <time>2022-01-13T07:09:35Z</time>
      </trkpt>
      <trkpt lat="45.71345" lon="6.27491">
        <ele>1004.8</ele>
        <time>2022-01-13T07:09:36Z</time>
      </trkpt>
      <trkpt lat="45.71345" lon="6.27491">
        <ele>1004.8</ele>
        <time>2022-01-13T07:09:37Z</time>
      </trkpt>
      <trkpt lat="45.71345" lon="6.27491">
        <ele>1004.8</ele>
        <time>2022-01-13T07:09:38Z</time>
      </trkpt>
      <trkpt lat="45.71345" lon="6.27491">
        <ele>1004.8</ele>
        <time>2022-01-13T07:09:39Z</time>
      </trkpt>
      <trkpt lat="45.71345" lon="6.27491">
        <ele>1004.8</ele>
        <time>2022-01-13T07:09:40Z</time>
      </trkpt>
      <trkpt lat="45.71345" lon="6.27491">
        <ele>1004.8</ele>
        <time>2022-01-13T07:09:41Z</time>
      </trkpt>
      <trkpt lat="45.71345" lon="6.27492">
        <ele>1004.8</ele>
        <time>2022-01-13T07:09:42Z</time>
      </trkpt>
      <trkpt lat="45.71345" lon="6.27492">
        <ele>1004.8</ele>
        <time>2022-01-13T07:09:43Z</time>
      </trkpt>
      <trkpt lat="45.71346" lon="6.27492">
        <ele>1004.8</ele>
        <time>2022-01-13T07:09:44Z</time>
      </trkpt>
      <trkpt lat="45.71346" lon="6.27492">
        <ele>1004.8</ele>
        <time>2022-01-13T07:09:45Z</time>
      </trkpt>
      <trkpt lat="45.71346" lon="6.27492">
        <ele>1004.8</ele>
        <time>2022-01-13T07:09:46Z</time>
      </trkpt>
      <trkpt lat="45.71346" lon="6.27492">
        <ele>1004.8</ele>
        <time>2022-01-13T07:09:47Z</time>
      </trkpt>
      <trkpt lat="45.71346" lon="6.27493">
        <ele>1004.8</ele>
        <time>2022-01-13T07:09:48Z</time>
      </trkpt>
      <trkpt lat="45.71346" lon="6.27493">
        <ele>1004.8</ele>
        <time>2022-01-13T07:09:49Z</time>
      </trkpt>
      <trkpt lat="45.71346" lon="6.27493">
        <ele>1004.8</ele>
        <time>2022-01-13T07:09:50Z</time>
      </trkpt>
      <trkpt lat="45.71346" lon="6.27493">
        <ele>1004.8</ele>
        <time>2022-01-13T07:09:51Z</time>
      </trkpt>
      <trkpt lat="45.71346" lon="6.27493">
        <ele>1004.8</ele>
        <time>2022-01-13T07:09:52Z</time>
      </trkpt>
      <trkpt lat="45.71346" lon="6.27493">
        <ele>1004.8</ele>
        <time>2022-01-13T07:09:53Z</time>
      </trkpt>
      <trkpt lat="45.71346" lon="6.27494">
        <ele>1005.7</ele>
        <time>2022-01-13T07:09:54Z</time>
      </trkpt>
      <trkpt lat="45.71346" lon="6.27494">
        <ele>1005.7</ele>
        <time>2022-01-13T07:09:55Z</time>
      </trkpt>
      <trkpt lat="45.71346" lon="6.27494">
        <ele>1005.7</ele>
        <time>2022-01-13T07:09:56Z</time>
      </trkpt>
      <trkpt lat="45.71346" lon="6.27494">
        <ele>1005.7</ele>
        <time>2022-01-13T07:09:57Z</time>
      </trkpt>
      <trkpt lat="45.71346" lon="6.27494">
        <ele>1005.7</ele>
        <time>2022-01-13T07:09:58Z</time>
      </trkpt>
      <trkpt lat="45.71346" lon="6.27494">
        <ele>1005.7</ele>
        <time>2022-01-13T07:09:59Z</time>
      </trkpt>
      <trkpt lat="45.71346" lon="6.27494">
        <ele>1005.7</ele>
        <time>2022-01-13T07:10:00Z</time>
      </trkpt>
      <trkpt lat="45.71346" lon="6.27495">
        <ele>1005.7</ele>
        <time>2022-01-13T07:10:01Z</time>
      </trkpt>
      <trkpt lat="45.71346" lon="6.27495">
        <ele>1005.7</ele>
        <time>2022-01-13T07:10:02Z</time>
      </trkpt>
      <trkpt lat="45.71346" lon="6.27495">
        <ele>1005.7</ele>
        <time>2022-01-13T07:10:03Z</time>
      </trkpt>
      <trkpt lat="45.71346" lon="6.27495">
        <ele>1005.7</ele>
        <time>2022-01-13T07:10:04Z</time>
      </trkpt>
      <trkpt lat="45.71346" lon="6.27495">
        <ele>1005.7</ele>
        <time>2022-01-13T07:10:05Z</time>
      </trkpt>
      <trkpt lat="45.71346" lon="6.27495">
        <ele>1005.7</ele>
        <time>2022-01-13T07:10:06Z</time>
      </trkpt>
      <trkpt lat="45.71346" lon="6.27496">
        <ele>1005.7</ele>
        <time>2022-01-13T07:10:07Z</time>
      </trkpt>
      <trkpt lat="45.71346" lon="6.27496">
        <ele>1005.7</ele>
        <time>2022-01-13T07:10:08Z</time>
      </trkpt>
      <trkpt lat="45.71346" lon="6.27496">
        <ele>1005.7</ele>
        <time>2022-01-13T07:10:09Z</time>
      </trkpt>
      <trkpt lat="45.71346" lon="6.27496">
        <ele>1005.7</ele>
        <time>2022-01-13T07:10:10Z</time>
      </trkpt>
      <trkpt lat="45.71346" lon="6.27496">
        <ele>1005.7</ele>
        <time>2022-01-13T07:10:11Z</time>
      </trkpt>
      <trkpt lat="45.71346" lon="6.27496">
        <ele>1005.7</ele>
        <time>2022-01-13T07:10:12Z</time>
      </trkpt>
      <trkpt lat="45.71346" lon="6.27497">
        <ele>1005.7</ele>
        <time>2022-01-13T07:10:13Z</time>
      </trkpt>
      <trkpt lat="45.71346" lon="6.27497">
        <ele>1005.7</ele>
        <time>2022-01-13T07:10:14Z</time>
      </trkpt>
      <trkpt lat="45.71346" lon="6.27497">
        <ele>1005.7</ele>
        <time>2022-01-13T07:10:15Z</time>
      </trkpt>
      <trkpt lat="45.71346" lon="6.27497">
        <ele>1004.8</ele>
        <time>2022-01-13T07:10:16Z</time>
      </trkpt>
      <trkpt lat="45.71346" lon="6.27497">
        <ele>1004.8</ele>
        <time>2022-01-13T07:10:17Z</time>
      </trkpt>
      <trkpt lat="45.71346" lon="6.27497">
        <ele>1004.8</ele>
        <time>2022-01-13T07:10:18Z</time>
      </trkpt>
      <trkpt lat="45.71346" lon="6.27497">
        <ele>1004.8</ele>
        <time>2022-01-13T07:10:19Z</time>
      </trkpt>
      <trkpt lat="45.71346" lon="6.27498">
        <ele>1004.8</ele>
        <time>2022-01-13T07:10:20Z</time>
      </trkpt>
      <trkpt lat="45.71346" lon="6.27498">
        <ele>1004.8</ele>
        <time>2022-01-13T07:10:21Z</time>
      </trkpt>
      <trkpt lat="45.71346" lon="6.27498">
        <ele>1003.7</ele>
        <time>2022-01-13T07:10:22Z</time>
      </trkpt>
      <trkpt lat="45.71346" lon="6.27498">
        <ele>1003.7</ele>
        <time>2022-01-13T07:10:23Z</time>
      </trkpt>
      <trkpt lat="45.71346" lon="6.27498">
        <ele>1003.7</ele>
        <time>2022-01-13T07:10:24Z</time>
      </trkpt>
      <trkpt lat="45.71346" lon="6.27498">
        <ele>1003.7</ele>
        <time>2022-01-13T07:10:25Z</time>
      </trkpt>
      <trkpt lat="45.71346" lon="6.27499">
        <ele>1003.7</ele>
        <time>2022-01-13T07:10:26Z</time>
      </trkpt>
      <trkpt lat="45.71346" lon="6.27499">
        <ele>1003.7</ele>
        <time>2022-01-13T07:10:27Z</time>
      </trkpt>
      <trkpt lat="45.71346" lon="6.27499">
        <ele>1003.7</ele>
        <time>2022-01-13T07:10:28Z</time>
      </trkpt>
      <trkpt lat="45.71346" lon="6.27499">
        <ele>1003.7</ele>
        <time>2022-01-13T07:10:29Z</time>
      </trkpt>
      <trkpt lat="45.71346" lon="6.27499">
        <ele>1003.7</ele>
        <time>2022-01-13T07:10:30Z</time>
      </trkpt>
      <trkpt lat="45.71346" lon="6.27499">
        <ele>1003.7</ele>
        <time>2022-01-13T07:10:31Z</time>
      </trkpt>
      <trkpt lat="45.71346" lon="6.275">
        <ele>1003.7</ele>
        <time>2022-01-13T07:10:32Z</time>
      </trkpt>
      <trkpt lat="45.71346" lon="6.275">
        <ele>1003.7</ele>
        <time>2022-01-13T07:10:33Z</time>
      </trkpt>
      <trkpt lat="45.71346" lon="6.275">
        <ele>1003.7</ele>
        <time>2022-01-13T07:10:34Z</time>
      </trkpt>
      <trkpt lat="45.71346" lon="6.275">
        <ele>1003.7</ele>
        <time>2022-01-13T07:10:35Z</time>
      </trkpt>
      <trkpt lat="45.71346" lon="6.275">
        <ele>1004.8</ele>
        <time>2022-01-13T07:10:36Z</time>
      </trkpt>
      <trkpt lat="45.71346" lon="6.275">
        <ele>1004.8</ele>
        <time>2022-01-13T07:10:37Z</time>
      </trkpt>
      <trkpt lat="45.71346" lon="6.27501">
        <ele>1004.8</ele>
        <time>2022-01-13T07:10:38Z</time>
      </trkpt>
      <trkpt lat="45.71346" lon="6.27501">
        <ele>1004.8</ele>
        <time>2022-01-13T07:10:39Z</time>
      </trkpt>
      <trkpt lat="45.71346" lon="6.27501">
        <ele>1004.8</ele>
        <time>2022-01-13T07:10:40Z</time>
      </trkpt>
      <trkpt lat="45.71346" lon="6.27501">
        <ele>1004.8</ele>
        <time>2022-01-13T07:10:41Z</time>
      </trkpt>
      <trkpt lat="45.71346" lon="6.27501">
        <ele>1004.8</ele>
        <time>2022-01-13T07:10:42Z</time>
      </trkpt>
      <trkpt lat="45.71346" lon="6.27501">
        <ele>1004.8</ele>
        <time>2022-01-13T07:10:43Z</time>
      </trkpt>
      <trkpt lat="45.71346" lon="6.27501">
        <ele>1004.8</ele>
        <time>2022-01-13T07:10:44Z</time>
      </trkpt>
      <trkpt lat="45.71346" lon="6.27502">
        <ele>1004.8</ele>
        <time>2022-01-13T07:10:45Z</time>
      </trkpt>
      <trkpt lat="45.71346" lon="6.27502">
        <ele>1004.8</ele>
        <time>2022-01-13T07:10:46Z</time>
      </trkpt>
      <trkpt lat="45.71346" lon="6.27502">
        <ele>1004.8</ele>
        <time>2022-01-13T07:10:47Z</time>
      </trkpt>
      <trkpt lat="45.71346" lon="6.27502">
        <ele>1004.8</ele>
        <time>2022-01-13T07:10:48Z</time>
      </trkpt>
      <trkpt lat="45.71346" lon="6.27502">
        <ele>1004.8</ele>
        <time>2022-01-13T07:10:49Z</time>
      </trkpt>
      <trkpt lat="45.71346" lon="6.27502">
        <ele>1004.8</ele>
        <time>2022-01-13T07:10:50Z</time>
      </trkpt>
      <trkpt lat="45.71346" lon="6.27503">
        <ele>1004.8</ele>
        <time>2022-01-13T07:10:51Z</time>
      </trkpt>
      <trkpt lat="45.71346" lon="6.27503">
        <ele>1004.8</ele>
        <time>2022-01-13T07:10:52Z</time>
      </trkpt>
      <trkpt lat="45.71346" lon="6.27503">
        <ele>1004.8</ele>
        <time>2022-01-13T07:10:53Z</time>
      </trkpt>
      <trkpt lat="45.71346" lon="6.27503">
        <ele>1004.8</ele>
        <time>2022-01-13T07:10:54Z</time>
      </trkpt>
      <trkpt lat="45.71346" lon="6.27503">
        <ele>1004.8</ele>
        <time>2022-01-13T07:10:55Z</time>
      </trkpt>
      <trkpt lat="45.71346" lon="6.27503">
        <ele>1004.8</ele>
        <time>2022-01-13T07:10:56Z</time>
      </trkpt>
      <trkpt lat="45.71346" lon="6.27504">
        <ele>1004.8</ele>
        <time>2022-01-13T07:10:57Z</time>
      </trkpt>
      <trkpt lat="45.71346" lon="6.27504">
        <ele>1005.7</ele>
        <time>2022-01-13T07:10:58Z</time>
      </trkpt>
      <trkpt lat="45.71346" lon="6.27504">
        <ele>1005.7</ele>
        <time>2022-01-13T07:10:59Z</time>
      </trkpt>
      <trkpt lat="45.71346" lon="6.27504">
        <ele>1004.8</ele>
        <time>2022-01-13T07:11:00Z</time>
      </trkpt>
      <trkpt lat="45.71347" lon="6.27504">
        <ele>1004.8</ele>
        <time>2022-01-13T07:11:01Z</time>
      </trkpt>
      <trkpt lat="45.71347" lon="6.27504">
        <ele>1004.8</ele>
        <time>2022-01-13T07:11:02Z</time>
      </trkpt>
      <trkpt lat="45.71347" lon="6.27504">
        <ele>1004.8</ele>
        <time>2022-01-13T07:11:03Z</time>
      </trkpt>
      <trkpt lat="45.71347" lon="6.27505">
        <ele>1004.8</ele>
        <time>2022-01-13T07:11:04Z</time>
      </trkpt>
      <trkpt lat="45.71347" lon="6.27505">
        <ele>1004.8</ele>
        <time>2022-01-13T07:11:05Z</time>
      </trkpt>
      <trkpt lat="45.71347" lon="6.27505">
        <ele>1004.8</ele>
        <time>2022-01-13T07:11:06Z</time>
      </trkpt>
      <trkpt lat="45.71347" lon="6.27505">
        <ele>1004.8</ele>
        <time>2022-01-13T07:11:07Z</time>
      </trkpt>
      <trkpt lat="45.71347" lon="6.27505">
        <ele>1004.8</ele>
        <time>2022-01-13T07:11:08Z</time>
      </trkpt>
      <trkpt lat="45.71347" lon="6.27505">
        <ele>1004.8</ele>
        <time>2022-01-13T07:11:09Z</time>
      </trkpt>
      <trkpt lat="45.71347" lon="6.27506">
        <ele>1004.8</ele>
        <time>2022-01-13T07:11:10Z</time>
      </trkpt>
      <trkpt lat="45.71347" lon="6.27506">
        <ele>1004.8</ele>
        <time>2022-01-13T07:11:11Z</time>
      </trkpt>
      <trkpt lat="45.71347" lon="6.27506">
        <ele>1004.8</ele>
        <time>2022-01-13T07:11:12Z</time>
      </trkpt>
      <trkpt lat="45.71347" lon="6.27506">
        <ele>1004.8</ele>
        <time>2022-01-13T07:11:13Z</time>
      </trkpt>
      <trkpt lat="45.71347" lon="6.27506">
        <ele>1004.8</ele>
        <time>2022-01-13T07:11:14Z</time>
      </trkpt>
      <trkpt lat="45.71347" lon="6.27506">
        <ele>1004.8</ele>
        <time>2022-01-13T07:11:15Z</time>
      </trkpt>
      <trkpt lat="45.71347" lon="6.27507">
        <ele>1004.8</ele>
        <time>2022-01-13T07:11:16Z</time>
      </trkpt>
      <trkpt lat="45.71347" lon="6.27507">
        <ele>1004.8</ele>
        <time>2022-01-13T07:11:17Z</time>
      </trkpt>
      <trkpt lat="45.71347" lon="6.27507">
        <ele>1004.8</ele>
        <time>2022-01-13T07:11:18Z</time>
      </trkpt>
      <trkpt lat="45.71347" lon="6.27507">
        <ele>1004.8</ele>
        <time>2022-01-13T07:11:19Z</time>
      </trkpt>
      <trkpt lat="45.71347" lon="6.27507">
        <ele>1004.8</ele>
        <time>2022-01-13T07:11:20Z</time>
      </trkpt>
      <trkpt lat="45.71347" lon="6.27507">
        <ele>1004.8</ele>
        <time>2022-01-13T07:11:21Z</time>
      </trkpt>
      <trkpt lat="45.71347" lon="6.27507">
        <ele>1004.8</ele>
        <time>2022-01-13T07:11:22Z</time>
      </trkpt>
      <trkpt lat="45.71347" lon="6.27508">
        <ele>1004.8</ele>
        <time>2022-01-13T07:11:23Z</time>
      </trkpt>
      <trkpt lat="45.71347" lon="6.27508">
        <ele>1004.8</ele>
        <time>2022-01-13T07:11:24Z</time>
      </trkpt>
      <trkpt lat="45.71347" lon="6.27508">
        <ele>1004.8</ele>
        <time>2022-01-13T07:11:25Z</time>
      </trkpt>
      <trkpt lat="45.71347" lon="6.27508">
        <ele>1004.8</ele>
        <time>2022-01-13T07:11:26Z</time>
      </trkpt>
      <trkpt lat="45.71347" lon="6.27508">
        <ele>1004.8</ele>
        <time>2022-01-13T07:11:27Z</time>
      </trkpt>
      <trkpt lat="45.71347" lon="6.27508">
        <ele>1004.8</ele>
        <time>2022-01-13T07:11:28Z</time>
      </trkpt>
      <trkpt lat="45.71347" lon="6.27509">
        <ele>1004.8</ele>
        <time>2022-01-13T07:11:29Z</time>
      </trkpt>
      <trkpt lat="45.71347" lon="6.27509">
        <ele>1004.8</ele>
        <time>2022-01-13T07:11:30Z</time>
      </trkpt>
      <trkpt lat="45.71347" lon="6.27509">
        <ele>1004.8</ele>
        <time>2022-01-13T07:11:31Z</time>
      </trkpt>
      <trkpt lat="45.71347" lon="6.27509">
        <ele>1004.8</ele>
        <time>2022-01-13T07:11:32Z</time>
      </trkpt>
      <trkpt lat="45.71347" lon="6.27509">
        <ele>1004.8</ele>
        <time>2022-01-13T07:11:33Z</time>
      </trkpt>
      <trkpt lat="45.71347" lon="6.27509">
        <ele>1004.8</ele>
        <time>2022-01-13T07:11:34Z</time>
      </trkpt>
      <trkpt lat="45.71347" lon="6.2751">
        <ele>1004.8</ele>
        <time>2022-01-13T07:11:35Z</time>
      </trkpt>
      <trkpt lat="45.71347" lon="6.2751">
        <ele>1004.8</ele>
        <time>2022-01-13T07:11:36Z</time>
      </trkpt>
      <trkpt lat="45.71347" lon="6.2751">
        <ele>1004.8</ele>
        <time>2022-01-13T07:11:37Z</time>
      </trkpt>
      <trkpt lat="45.71347" lon="6.2751">
        <ele>1004.8</ele>
        <time>2022-01-13T07:11:38Z</time>
      </trkpt>
      <trkpt lat="45.71347" lon="6.2751">
        <ele>1004.8</ele>
        <time>2022-01-13T07:11:39Z</time>
      </trkpt>
      <trkpt lat="45.71347" lon="6.2751">
        <ele>1004.8</ele>
        <time>2022-01-13T07:11:40Z</time>
      </trkpt>
      <trkpt lat="45.71347" lon="6.27511">
        <ele>1004.8</ele>
        <time>2022-01-13T07:11:41Z</time>
      </trkpt>
      <trkpt lat="45.71347" lon="6.27511">
        <ele>1004.8</ele>
        <time>2022-01-13T07:11:42Z</time>
      </trkpt>
      <trkpt lat="45.71347" lon="6.27511">
        <ele>1004.8</ele>
        <time>2022-01-13T07:11:43Z</time>
      </trkpt>
      <trkpt lat="45.71347" lon="6.27511">
        <ele>1004.8</ele>
        <time>2022-01-13T07:11:44Z</time>
      </trkpt>
      <trkpt lat="45.71347" lon="6.27511">
        <ele>1004.8</ele>
        <time>2022-01-13T07:11:45Z</time>
      </trkpt>
      <trkpt lat="45.71347" lon="6.27511">
        <ele>1004.8</ele>
        <time>2022-01-13T07:11:46Z</time>
      </trkpt>
      <trkpt lat="45.71347" lon="6.27511">
        <ele>1004.8</ele>
        <time>2022-01-13T07:11:47Z</time>
      </trkpt>
      <trkpt lat="45.71347" lon="6.27512">
        <ele>1004.8</ele>
        <time>2022-01-13T07:11:48Z</time>
      </trkpt>
      <trkpt lat="45.71347" lon="6.27512">
        <ele>1004.8</ele>
        <time>2022-01-13T07:11:49Z</time>
      </trkpt>
      <trkpt lat="45.71347" lon="6.27512">
        <ele>1004.8</ele>
        <time>2022-01-13T07:11:50Z</time>
      </trkpt>
      <trkpt lat="45.71347" lon="6.27512">
        <ele>1004.8</ele>
        <time>2022-01-13T07:11:51Z</time>
      </trkpt>
      <trkpt lat="45.71347" lon="6.27512">
        <ele>1004.8</ele>
        <time>2022-01-13T07:11:52Z</time>
      </trkpt>
      <trkpt lat="45.71347" lon="6.27512">
        <ele>1004.8</ele>
        <time>2022-01-13T07:11:53Z</time>
      </trkpt>
      <trkpt lat="45.71347" lon="6.27513">
        <ele>1004.8</ele>
        <time>2022-01-13T07:11:54Z</time>
      </trkpt>
      <trkpt lat="45.71347" lon="6.27513">
        <ele>1004.8</ele>
        <time>2022-01-13T07:11:55Z</time>
      </trkpt>
      <trkpt lat="45.71347" lon="6.27513">
        <ele>1004.8</ele>
        <time>2022-01-13T07:11:56Z</time>
      </trkpt>
      <trkpt lat="45.71347" lon="6.27513">
        <ele>1004.8</ele>
        <time>2022-01-13T07:11:57Z</time>
      </trkpt>
      <trkpt lat="45.71347" lon="6.27513">
        <ele>1004.8</ele>
        <time>2022-01-13T07:11:58Z</time>
      </trkpt>
      <trkpt lat="45.71347" lon="6.27513">
        <ele>1004.8</ele>
        <time>2022-01-13T07:11:59Z</time>
      </trkpt>
      <trkpt lat="45.71347" lon="6.27514">
        <ele>1004.8</ele>
        <time>2022-01-13T07:12:00Z</time>
      </trkpt>
      <trkpt lat="45.71347" lon="6.27514">
        <ele>1004.8</ele>
        <time>2022-01-13T07:12:01Z</time>
      </trkpt>
      <trkpt lat="45.71347" lon="6.27514">
        <ele>1004.8</ele>
        <time>2022-01-13T07:12:02Z</time>
      </trkpt>
      <trkpt lat="45.71347" lon="6.27514">
        <ele>1004.8</ele>
        <time>2022-01-13T07:12:03Z</time>
      </trkpt>
      <trkpt lat="45.71347" lon="6.27514">
        <ele>1004.8</ele>
        <time>2022-01-13T07:12:04Z</time>
      </trkpt>
      <trkpt lat="45.71347" lon="6.27514">
        <ele>1004.8</ele>
        <time>2022-01-13T07:12:05Z</time>
      </trkpt>
      <trkpt lat="45.71347" lon="6.27514">
        <ele>1004.8</ele>
        <time>2022-01-13T07:12:06Z</time>
      </trkpt>
      <trkpt lat="45.71347" lon="6.27515">
        <ele>1004.8</ele>
        <time>2022-01-13T07:12:07Z</time>
      </trkpt>
      <trkpt lat="45.71347" lon="6.27515">
        <ele>1004.8</ele>
        <time>2022-01-13T07:12:08Z</time>
      </trkpt>
      <trkpt lat="45.71347" lon="6.27515">
        <ele>1004.8</ele>
        <time>2022-01-13T07:12:09Z</time>
      </trkpt>
      <trkpt lat="45.71347" lon="6.27515">
        <ele>1004.8</ele>
        <time>2022-01-13T07:12:10Z</time>
      </trkpt>
      <trkpt lat="45.71347" lon="6.27515">
        <ele>1004.8</ele>
        <time>2022-01-13T07:12:11Z</time>
      </trkpt>
      <trkpt lat="45.71347" lon="6.27515">
        <ele>1004.8</ele>
        <time>2022-01-13T07:12:12Z</time>
      </trkpt>
      <trkpt lat="45.71347" lon="6.27516">
        <ele>1004.8</ele>
        <time>2022-01-13T07:12:13Z</time>
      </trkpt>
      <trkpt lat="45.71347" lon="6.27516">
        <ele>1004.8</ele>
        <time>2022-01-13T07:12:14Z</time>
      </trkpt>
      <trkpt lat="45.71347" lon="6.27516">
        <ele>1004.8</ele>
        <time>2022-01-13T07:12:15Z</time>
      </trkpt>
      <trkpt lat="45.71347" lon="6.27516">
        <ele>1004.8</ele>
        <time>2022-01-13T07:12:16Z</time>
      </trkpt>
      <trkpt lat="45.71347" lon="6.27516">
        <ele>1004.8</ele>
        <time>2022-01-13T07:12:17Z</time>
      </trkpt>
      <trkpt lat="45.71348" lon="6.27516">
        <ele>1004.8</ele>
        <time>2022-01-13T07:12:18Z</time>
      </trkpt>
      <trkpt lat="45.71348" lon="6.27517">
        <ele>1004.8</ele>
        <time>2022-01-13T07:12:19Z</time>
      </trkpt>
      <trkpt lat="45.71348" lon="6.27517">
        <ele>1004.8</ele>
        <time>2022-01-13T07:12:20Z</time>
      </trkpt>
      <trkpt lat="45.71348" lon="6.27517">
        <ele>1004.8</ele>
        <time>2022-01-13T07:12:21Z</time>
      </trkpt>
      <trkpt lat="45.71348" lon="6.27517">
        <ele>1004.8</ele>
        <time>2022-01-13T07:12:22Z</time>
      </trkpt>
      <trkpt lat="45.71348" lon="6.27517">
        <ele>1004.8</ele>
        <time>2022-01-13T07:12:23Z</time>
      </trkpt>
      <trkpt lat="45.71348" lon="6.27517">
        <ele>1003.7</ele>
        <time>2022-01-13T07:12:24Z</time>
      </trkpt>
      <trkpt lat="45.71348" lon="6.27517">
        <ele>1003.7</ele>
        <time>2022-01-13T07:12:25Z</time>
      </trkpt>
      <trkpt lat="45.71348" lon="6.27518">
        <ele>1003.7</ele>
        <time>2022-01-13T07:12:26Z</time>
      </trkpt>
      <trkpt lat="45.71348" lon="6.27518">
        <ele>1003.7</ele>
        <time>2022-01-13T07:12:27Z</time>
      </trkpt>
      <trkpt lat="45.71348" lon="6.27518">
        <ele>1003.7</ele>
        <time>2022-01-13T07:12:28Z</time>
      </trkpt>
      <trkpt lat="45.71348" lon="6.27518">
        <ele>1003.7</ele>
        <time>2022-01-13T07:12:29Z</time>
      </trkpt>
      <trkpt lat="45.71348" lon="6.27518">
        <ele>1003.7</ele>
        <time>2022-01-13T07:12:30Z</time>
      </trkpt>
      <trkpt lat="45.71348" lon="6.27518">
        <ele>1003.7</ele>
        <time>2022-01-13T07:12:31Z</time>
      </trkpt>
      <trkpt lat="45.71348" lon="6.27519">
        <ele>1004.8</ele>
        <time>2022-01-13T07:12:32Z</time>
      </trkpt>
      <trkpt lat="45.71348" lon="6.27519">
        <ele>1004.8</ele>
        <time>2022-01-13T07:12:33Z</time>
      </trkpt>
      <trkpt lat="45.71348" lon="6.27519">
        <ele>1005.7</ele>
        <time>2022-01-13T07:12:34Z</time>
      </trkpt>
      <trkpt lat="45.71348" lon="6.27519">
        <ele>1005.7</ele>
        <time>2022-01-13T07:12:35Z</time>
      </trkpt>
      <trkpt lat="45.71348" lon="6.27519">
        <ele>1005.7</ele>
        <time>2022-01-13T07:12:36Z</time>
      </trkpt>
      <trkpt lat="45.71348" lon="6.27519">
        <ele>1005.7</ele>
        <time>2022-01-13T07:12:37Z</time>
      </trkpt>
      <trkpt lat="45.71348" lon="6.2752">
        <ele>1005.7</ele>
        <time>2022-01-13T07:12:38Z</time>
      </trkpt>
      <trkpt lat="45.71348" lon="6.2752">
        <ele>1005.7</ele>
        <time>2022-01-13T07:12:39Z</time>
      </trkpt>
      <trkpt lat="45.71348" lon="6.2752">
        <ele>1004.8</ele>
        <time>2022-01-13T07:12:40Z</time>
      </trkpt>
      <trkpt lat="45.71348" lon="6.2752">
        <ele>1004.8</ele>
        <time>2022-01-13T07:12:41Z</time>
      </trkpt>
      <trkpt lat="45.71348" lon="6.2752">
        <ele>1004.8</ele>
        <time>2022-01-13T07:12:42Z</time>
      </trkpt>
      <trkpt lat="45.71348" lon="6.2752">
        <ele>1004.8</ele>
        <time>2022-01-13T07:12:43Z</time>
      </trkpt>
      <trkpt lat="45.71348" lon="6.27521">
        <ele>1004.8</ele>
        <time>2022-01-13T07:12:44Z</time>
      </trkpt>
      <trkpt lat="45.71348" lon="6.27521">
        <ele>1004.8</ele>
        <time>2022-01-13T07:12:45Z</time>
      </trkpt>
      <trkpt lat="45.71348" lon="6.27521">
        <ele>1000.8</ele>
        <time>2022-01-13T07:12:46Z</time>
      </trkpt>
      <trkpt lat="45.71348" lon="6.27521">
        <ele>1000.8</ele>
        <time>2022-01-13T07:12:47Z</time>
      </trkpt>
      <trkpt lat="45.71348" lon="6.27521">
        <ele>1000.8</ele>
        <time>2022-01-13T07:12:48Z</time>
      </trkpt>
      <trkpt lat="45.71348" lon="6.27521">
        <ele>1000.8</ele>
        <time>2022-01-13T07:12:49Z</time>
      </trkpt>
      <trkpt lat="45.71348" lon="6.27521">
        <ele>999.8</ele>
        <time>2022-01-13T07:12:50Z</time>
      </trkpt>
      <trkpt lat="45.71348" lon="6.27522">
        <ele>999.8</ele>
        <time>2022-01-13T07:12:51Z</time>
      </trkpt>
      <trkpt lat="45.71348" lon="6.27522">
        <ele>999.8</ele>
        <time>2022-01-13T07:12:52Z</time>
      </trkpt>
      <trkpt lat="45.71348" lon="6.27522">
        <ele>999.8</ele>
        <time>2022-01-13T07:12:53Z</time>
      </trkpt>
      <trkpt lat="45.71348" lon="6.27522">
        <ele>999.8</ele>
        <time>2022-01-13T07:12:54Z</time>
      </trkpt>
      <trkpt lat="45.71348" lon="6.27522">
        <ele>999.8</ele>
        <time>2022-01-13T07:12:55Z</time>
      </trkpt>
      <trkpt lat="45.71348" lon="6.27522">
        <ele>999.8</ele>
        <time>2022-01-13T07:12:56Z</time>
      </trkpt>
      <trkpt lat="45.71348" lon="6.27523">
        <ele>999.8</ele>
        <time>2022-01-13T07:12:57Z</time>
      </trkpt>
      <trkpt lat="45.71348" lon="6.27523">
        <ele>999.8</ele>
        <time>2022-01-13T07:12:58Z</time>
      </trkpt>
      <trkpt lat="45.71348" lon="6.27523">
        <ele>999.8</ele>
        <time>2022-01-13T07:12:59Z</time>
      </trkpt>
      <trkpt lat="45.71348" lon="6.27523">
        <ele>999.8</ele>
        <time>2022-01-13T07:13:00Z</time>
      </trkpt>
      <trkpt lat="45.7135" lon="6.27532">
        <ele>999.8</ele>
        <time>2022-01-13T07:13:01Z</time>
      </trkpt>
      <trkpt lat="45.71351" lon="6.2754">
        <ele>999.8</ele>
        <time>2022-01-13T07:13:02Z</time>
      </trkpt>
      <trkpt lat="45.71353" lon="6.27549">
        <ele>999.8</ele>
        <time>2022-01-13T07:13:03Z</time>
      </trkpt>
      <trkpt lat="45.71355" lon="6.27558">
        <ele>998.8</ele>
        <time>2022-01-13T07:13:04Z</time>
      </trkpt>
      <trkpt lat="45.71357" lon="6.27567">
        <ele>998.8</ele>
        <time>2022-01-13T07:13:05Z</time>
      </trkpt>
      <trkpt lat="45.71359" lon="6.27576">
        <ele>998.8</ele>
        <time>2022-01-13T07:13:06Z</time>
      </trkpt>
      <trkpt lat="45.71361" lon="6.27585">
        <ele>998.8</ele>
        <time>2022-01-13T07:13:07Z</time>
      </trkpt>
      <trkpt lat="45.71363" lon="6.27595">
        <ele>997.8</ele>
        <time>2022-01-13T07:13:08Z</time>
      </trkpt>
      <trkpt lat="45.71366" lon="6.27605">
        <ele>997.8</ele>
        <time>2022-01-13T07:13:09Z</time>
      </trkpt>
      <trkpt lat="45.71369" lon="6.27617">
        <ele>997.8</ele>
        <time>2022-01-13T07:13:10Z</time>
      </trkpt>
      <trkpt lat="45.71373" lon="6.27628">
        <ele>997.8</ele>
        <time>2022-01-13T07:13:11Z</time>
      </trkpt>
      <trkpt lat="45.71376" lon="6.27641">
        <ele>997.8</ele>
        <time>2022-01-13T07:13:12Z</time>
      </trkpt>
      <trkpt lat="45.7138" lon="6.27653">
        <ele>997.8</ele>
        <time>2022-01-13T07:13:13Z</time>
      </trkpt>
      <trkpt lat="45.71385" lon="6.27666">
        <ele>992.7</ele>
        <time>2022-01-13T07:13:14Z</time>
      </trkpt>
      <trkpt lat="45.7139" lon="6.27679">
        <ele>992.7</ele>
        <time>2022-01-13T07:13:15Z</time>
      </trkpt>
      <trkpt lat="45.71394" lon="6.27692">
        <ele>990.8</ele>
        <time>2022-01-13T07:13:16Z</time>
      </trkpt>
      <trkpt lat="45.71399" lon="6.27705">
        <ele>990.8</ele>
        <time>2022-01-13T07:13:17Z</time>
      </trkpt>
      <trkpt lat="45.71404" lon="6.27718">
        <ele>988.8</ele>
        <time>2022-01-13T07:13:18Z</time>
      </trkpt>
      <trkpt lat="45.71409" lon="6.27732">
        <ele>988.8</ele>
        <time>2022-01-13T07:13:19Z</time>
      </trkpt>
      <trkpt lat="45.71413" lon="6.27746">
        <ele>986.8</ele>
        <time>2022-01-13T07:13:20Z</time>
      </trkpt>
      <trkpt lat="45.71417" lon="6.27761">
        <ele>986.8</ele>
        <time>2022-01-13T07:13:21Z</time>
      </trkpt>
      <trkpt lat="45.7142" lon="6.27777">
        <ele>984.8</ele>
        <time>2022-01-13T07:13:22Z</time>
      </trkpt>
      <trkpt lat="45.71424" lon="6.27793">
        <ele>984.8</ele>
        <time>2022-01-13T07:13:23Z</time>
      </trkpt>
      <trkpt lat="45.71427" lon="6.27809">
        <ele>981.8</ele>
        <time>2022-01-13T07:13:24Z</time>
      </trkpt>
      <trkpt lat="45.71431" lon="6.27826">
        <ele>981.8</ele>
        <time>2022-01-13T07:13:25Z</time>
      </trkpt>
      <trkpt lat="45.71435" lon="6.27843">
        <ele>979.8</ele>
        <time>2022-01-13T07:13:26Z</time>
      </trkpt>
      <trkpt lat="45.71439" lon="6.2786">
        <ele>979.8</ele>
        <time>2022-01-13T07:13:27Z</time>
      </trkpt>
      <trkpt lat="45.71443" lon="6.27878">
        <ele>976.7</ele>
        <time>2022-01-13T07:13:28Z</time>
      </trkpt>
      <trkpt lat="45.71447" lon="6.27896">
        <ele>976.7</ele>
        <time>2022-01-13T07:13:29Z</time>
      </trkpt>
      <trkpt lat="45.7145" lon="6.27914">
        <ele>974.8</ele>
        <time>2022-01-13T07:13:30Z</time>
      </trkpt>
      <trkpt lat="45.71452" lon="6.27932">
        <ele>974.8</ele>
        <time>2022-01-13T07:13:31Z</time>
      </trkpt>
      <trkpt lat="45.71454" lon="6.2795">
        <ele>970.8</ele>
        <time>2022-01-13T07:13:32Z</time>
      </trkpt>
      <trkpt lat="45.71456" lon="6.27969">
        <ele>970.8</ele>
        <time>2022-01-13T07:13:33Z</time>
      </trkpt>
      <trkpt lat="45.71458" lon="6.27987">
        <ele>965.8</ele>
        <time>2022-01-13T07:13:34Z</time>
      </trkpt>
      <trkpt lat="45.71459" lon="6.28006">
        <ele>965.8</ele>
        <time>2022-01-13T07:13:35Z</time>
      </trkpt>
      <trkpt lat="45.71461" lon="6.28025">
        <ele>960.7</ele>
        <time>2022-01-13T07:13:36Z</time>
      </trkpt>
      <trkpt lat="45.71464" lon="6.28043">
        <ele>960.7</ele>
        <time>2022-01-13T07:13:37Z</time>
      </trkpt>
      <trkpt lat="45.71466" lon="6.28062">
        <ele>956.8</ele>
        <time>2022-01-13T07:13:38Z</time>
      </trkpt>
      <trkpt lat="45.71469" lon="6.2808">
        <ele>956.8</ele>
        <time>2022-01-13T07:13:39Z</time>
      </trkpt>
      <trkpt lat="45.71473" lon="6.28099">
        <ele>951.8</ele>
        <time>2022-01-13T07:13:40Z</time>
      </trkpt>
      <trkpt lat="45.71477" lon="6.28117">
        <ele>951.8</ele>
        <time>2022-01-13T07:13:41Z</time>
      </trkpt>
      <trkpt lat="45.7148" lon="6.28137">
        <ele>948.7</ele>
        <time>2022-01-13T07:13:42Z</time>
      </trkpt>
      <trkpt lat="45.71483" lon="6.28156">
        <ele>948.7</ele>
        <time>2022-01-13T07:13:43Z</time>
      </trkpt>
      <trkpt lat="45.71485" lon="6.28171">
        <ele>948.7</ele>
        <time>2022-01-13T07:13:44Z</time>
      </trkpt>
      <trkpt lat="45.71489" lon="6.28192">
        <ele>948.7</ele>
        <time>2022-01-13T07:13:45Z</time>
      </trkpt>
      <trkpt lat="45.71493" lon="6.2821">
        <ele>948.7</ele>
        <time>2022-01-13T07:13:46Z</time>
      </trkpt>
      <trkpt lat="45.71496" lon="6.28227">
        <ele>948.7</ele>
        <time>2022-01-13T07:13:47Z</time>
      </trkpt>
      <trkpt lat="45.71498" lon="6.28243">
        <ele>938.8</ele>
        <time>2022-01-13T07:13:48Z</time>
      </trkpt>
      <trkpt lat="45.71499" lon="6.28259">
        <ele>938.8</ele>
        <time>2022-01-13T07:13:49Z</time>
      </trkpt>
      <trkpt lat="45.71498" lon="6.28274">
        <ele>936.8</ele>
        <time>2022-01-13T07:13:50Z</time>
      </trkpt>
      <trkpt lat="45.71497" lon="6.28287">
        <ele>936.8</ele>
        <time>2022-01-13T07:13:51Z</time>
      </trkpt>
      <trkpt lat="45.71493" lon="6.28297">
        <ele>934.8</ele>
        <time>2022-01-13T07:13:52Z</time>
      </trkpt>
      <trkpt lat="45.71486" lon="6.28307">
        <ele>934.8</ele>
        <time>2022-01-13T07:13:53Z</time>
      </trkpt>
      <trkpt lat="45.71478" lon="6.28315">
        <ele>932.7</ele>
        <time>2022-01-13T07:13:54Z</time>
      </trkpt>
      <trkpt lat="45.71468" lon="6.28324">
        <ele>932.7</ele>
        <time>2022-01-13T07:13:55Z</time>
      </trkpt>
      <trkpt lat="45.7146" lon="6.2833">
        <ele>930.7</ele>
        <time>2022-01-13T07:13:56Z</time>
      </trkpt>
      <trkpt lat="45.7145" lon="6.28338">
        <ele>930.7</ele>
        <time>2022-01-13T07:13:57Z</time>
      </trkpt>
      <trkpt lat="45.7144" lon="6.28348">
        <ele>928.7</ele>
        <time>2022-01-13T07:13:58Z</time>
      </trkpt>
      <trkpt lat="45.7143" lon="6.28358">
        <ele>928.7</ele>
        <time>2022-01-13T07:13:59Z</time>
      </trkpt>
      <trkpt lat="45.71422" lon="6.28368">
        <ele>926.8</ele>
        <time>2022-01-13T07:14:00Z</time>
      </trkpt>
      <trkpt lat="45.71413" lon="6.2838">
        <ele>926.8</ele>
        <time>2022-01-13T07:14:01Z</time>
      </trkpt>
      <trkpt lat="45.71408" lon="6.2839">
        <ele>924.8</ele>
        <time>2022-01-13T07:14:02Z</time>
      </trkpt>
      <trkpt lat="45.71404" lon="6.284">
        <ele>924.8</ele>
        <time>2022-01-13T07:14:03Z</time>
      </trkpt>
      <trkpt lat="45.71403" lon="6.2841">
        <ele>922.8</ele>
        <time>2022-01-13T07:14:04Z</time>
      </trkpt>
      <trkpt lat="45.71406" lon="6.28419">
        <ele>922.8</ele>
        <time>2022-01-13T07:14:05Z</time>
      </trkpt>
      <trkpt lat="45.71411" lon="6.28432">
        <ele>921.7</ele>
        <time>2022-01-13T07:14:06Z</time>
      </trkpt>
      <trkpt lat="45.71419" lon="6.28444">
        <ele>921.7</ele>
        <time>2022-01-13T07:14:07Z</time>
      </trkpt>
      <trkpt lat="45.71427" lon="6.28456">
        <ele>918.8</ele>
        <time>2022-01-13T07:14:08Z</time>
      </trkpt>
      <trkpt lat="45.71434" lon="6.28469">
        <ele>918.8</ele>
        <time>2022-01-13T07:14:09Z</time>
      </trkpt>
      <trkpt lat="45.71442" lon="6.28483">
        <ele>916.7</ele>
        <time>2022-01-13T07:14:10Z</time>
      </trkpt>
      <trkpt lat="45.71451" lon="6.28497">
        <ele>916.7</ele>
        <time>2022-01-13T07:14:11Z</time>
      </trkpt>
      <trkpt lat="45.7146" lon="6.28511">
        <ele>916.7</ele>
        <time>2022-01-13T07:14:12Z</time>
      </trkpt>
      <trkpt lat="45.7147" lon="6.28525">
        <ele>916.7</ele>
        <time>2022-01-13T07:14:13Z</time>
      </trkpt>
      <trkpt lat="45.71482" lon="6.28539">
        <ele>916.7</ele>
        <time>2022-01-13T07:14:14Z</time>
      </trkpt>
      <trkpt lat="45.71493" lon="6.28553">
        <ele>916.7</ele>
        <time>2022-01-13T07:14:15Z</time>
      </trkpt>
      <trkpt lat="45.71504" lon="6.28566">
        <ele>908.8</ele>
        <time>2022-01-13T07:14:16Z</time>
      </trkpt>
      <trkpt lat="45.71514" lon="6.28579">
        <ele>908.8</ele>
        <time>2022-01-13T07:14:17Z</time>
      </trkpt>
      <trkpt lat="45.71523" lon="6.2859">
        <ele>905.7</ele>
        <time>2022-01-13T07:14:18Z</time>
      </trkpt>
      <trkpt lat="45.71531" lon="6.28603">
        <ele>905.7</ele>
        <time>2022-01-13T07:14:19Z</time>
      </trkpt>
      <trkpt lat="45.71539" lon="6.28616">
        <ele>903.7</ele>
        <time>2022-01-13T07:14:20Z</time>
      </trkpt>
      <trkpt lat="45.71544" lon="6.28629">
        <ele>903.7</ele>
        <time>2022-01-13T07:14:21Z</time>
      </trkpt>
      <trkpt lat="45.71547" lon="6.28642">
        <ele>900.7</ele>
        <time>2022-01-13T07:14:22Z</time>
      </trkpt>
      <trkpt lat="45.71547" lon="6.28655">
        <ele>900.7</ele>
        <time>2022-01-13T07:14:23Z</time>
      </trkpt>
      <trkpt lat="45.71545" lon="6.28671">
        <ele>898.7</ele>
        <time>2022-01-13T07:14:24Z</time>
      </trkpt>
      <trkpt lat="45.71542" lon="6.28685">
        <ele>898.7</ele>
        <time>2022-01-13T07:14:25Z</time>
      </trkpt>
      <trkpt lat="45.71536" lon="6.28701">
        <ele>895.8</ele>
        <time>2022-01-13T07:14:26Z</time>
      </trkpt>
      <trkpt lat="45.7153" lon="6.28715">
        <ele>895.8</ele>
        <time>2022-01-13T07:14:27Z</time>
      </trkpt>
      <trkpt lat="45.71522" lon="6.28729">
        <ele>892.8</ele>
        <time>2022-01-13T07:14:28Z</time>
      </trkpt>
      <trkpt lat="45.71513" lon="6.28744">
        <ele>892.8</ele>
        <time>2022-01-13T07:14:29Z</time>
      </trkpt>
      <trkpt lat="45.71503" lon="6.28759">
        <ele>888.8</ele>
        <time>2022-01-13T07:14:30Z</time>
      </trkpt>
      <trkpt lat="45.71494" lon="6.28774">
        <ele>888.8</ele>
        <time>2022-01-13T07:14:31Z</time>
      </trkpt>
      <trkpt lat="45.71486" lon="6.2879">
        <ele>885.8</ele>
        <time>2022-01-13T07:14:32Z</time>
      </trkpt>
      <trkpt lat="45.71478" lon="6.28807">
        <ele>885.8</ele>
        <time>2022-01-13T07:14:33Z</time>
      </trkpt>
      <trkpt lat="45.7147" lon="6.28824">
        <ele>883.8</ele>
        <time>2022-01-13T07:14:34Z</time>
      </trkpt>
      <trkpt lat="45.71461" lon="6.2884">
        <ele>883.8</ele>
        <time>2022-01-13T07:14:35Z</time>
      </trkpt>
      <trkpt lat="45.71452" lon="6.28855">
        <ele>880.7</ele>
        <time>2022-01-13T07:14:36Z</time>
      </trkpt>
      <trkpt lat="45.71442" lon="6.2887">
        <ele>880.7</ele>
        <time>2022-01-13T07:14:37Z</time>
      </trkpt>
      <trkpt lat="45.7143" lon="6.28882">
        <ele>878.7</ele>
        <time>2022-01-13T07:14:38Z</time>
      </trkpt>
      <trkpt lat="45.71418" lon="6.28893">
        <ele>878.7</ele>
        <time>2022-01-13T07:14:39Z</time>
      </trkpt>
      <trkpt lat="45.71408" lon="6.28903">
        <ele>876.8</ele>
        <time>2022-01-13T07:14:40Z</time>
      </trkpt>
      <trkpt lat="45.71399" lon="6.28916">
        <ele>876.8</ele>
        <time>2022-01-13T07:14:41Z</time>
      </trkpt>
      <trkpt lat="45.71392" lon="6.28928">
        <ele>873.7</ele>
        <time>2022-01-13T07:14:42Z</time>
      </trkpt>
      <trkpt lat="45.71386" lon="6.28942">
        <ele>873.7</ele>
        <time>2022-01-13T07:14:43Z</time>
      </trkpt>
      <trkpt lat="45.7138" lon="6.28957">
        <ele>871.7</ele>
        <time>2022-01-13T07:14:44Z</time>
      </trkpt>
      <trkpt lat="45.71375" lon="6.2897">
        <ele>871.7</ele>
        <time>2022-01-13T07:14:45Z</time>
      </trkpt>
      <trkpt lat="45.71372" lon="6.28982">
        <ele>871.7</ele>
        <time>2022-01-13T07:14:46Z</time>
      </trkpt>
      <trkpt lat="45.71368" lon="6.28999">
        <ele>871.7</ele>
        <time>2022-01-13T07:14:47Z</time>
      </trkpt>
      <trkpt lat="45.71367" lon="6.29012">
        <ele>871.7</ele>
        <time>2022-01-13T07:14:48Z</time>
      </trkpt>
      <trkpt lat="45.71368" lon="6.29026">
        <ele>871.7</ele>
        <time>2022-01-13T07:14:49Z</time>
      </trkpt>
      <trkpt lat="45.71371" lon="6.2904">
        <ele>863.8</ele>
        <time>2022-01-13T07:14:50Z</time>
      </trkpt>
      <trkpt lat="45.71376" lon="6.29054">
        <ele>863.8</ele>
        <time>2022-01-13T07:14:51Z</time>
      </trkpt>
      <trkpt lat="45.71382" lon="6.29067">
        <ele>860.8</ele>
        <time>2022-01-13T07:14:52Z</time>
      </trkpt>
      <trkpt lat="45.71389" lon="6.29081">
        <ele>860.8</ele>
        <time>2022-01-13T07:14:53Z</time>
      </trkpt>
      <trkpt lat="45.71394" lon="6.29096">
        <ele>858.8</ele>
        <time>2022-01-13T07:14:54Z</time>
      </trkpt>
      <trkpt lat="45.71399" lon="6.29109">
        <ele>858.8</ele>
        <time>2022-01-13T07:14:55Z</time>
      </trkpt>
      <trkpt lat="45.71403" lon="6.2912">
        <ele>855.7</ele>
        <time>2022-01-13T07:14:56Z</time>
      </trkpt>
      <trkpt lat="45.71408" lon="6.2913">
        <ele>855.7</ele>
        <time>2022-01-13T07:14:57Z</time>
      </trkpt>
      <trkpt lat="45.71412" lon="6.29139">
        <ele>854.8</ele>
        <time>2022-01-13T07:14:58Z</time>
      </trkpt>
      <trkpt lat="45.71416" lon="6.29143">
        <ele>854.8</ele>
        <time>2022-01-13T07:14:59Z</time>
      </trkpt>
      <trkpt lat="45.71421" lon="6.29144">
        <ele>852.8</ele>
        <time>2022-01-13T07:15:00Z</time>
      </trkpt>
      <trkpt lat="45.71424" lon="6.29141">
        <ele>852.8</ele>
        <time>2022-01-13T07:15:01Z</time>
      </trkpt>
      <trkpt lat="45.71427" lon="6.29135">
        <ele>852.8</ele>
        <time>2022-01-13T07:15:02Z</time>
      </trkpt>
      <trkpt lat="45.71426" lon="6.29126">
        <ele>852.8</ele>
        <time>2022-01-13T07:15:03Z</time>
      </trkpt>
      <trkpt lat="45.71424" lon="6.29117">
        <ele>850.7</ele>
        <time>2022-01-13T07:15:04Z</time>
      </trkpt>
      <trkpt lat="45.7142" lon="6.29105">
        <ele>850.7</ele>
        <time>2022-01-13T07:15:05Z</time>
      </trkpt>
      <trkpt lat="45.71417" lon="6.29092">
        <ele>849.8</ele>
        <time>2022-01-13T07:15:06Z</time>
      </trkpt>
      <trkpt lat="45.71413" lon="6.29077">
        <ele>849.8</ele>
        <time>2022-01-13T07:15:07Z</time>
      </trkpt>
      <trkpt lat="45.7141" lon="6.29062">
        <ele>847.8</ele>
        <time>2022-01-13T07:15:08Z</time>
      </trkpt>
      <trkpt lat="45.71406" lon="6.29045">
        <ele>847.8</ele>
        <time>2022-01-13T07:15:09Z</time>
      </trkpt>
      <trkpt lat="45.71405" lon="6.29029">
        <ele>845.8</ele>
        <time>2022-01-13T07:15:10Z</time>
      </trkpt>
      <trkpt lat="45.71406" lon="6.29014">
        <ele>845.8</ele>
        <time>2022-01-13T07:15:11Z</time>
      </trkpt>
      <trkpt lat="45.71409" lon="6.28999">
        <ele>843.7</ele>
        <time>2022-01-13T07:15:12Z</time>
      </trkpt>
      <trkpt lat="45.71416" lon="6.28987">
        <ele>843.7</ele>
        <time>2022-01-13T07:15:13Z</time>
      </trkpt>
      <trkpt lat="45.71425" lon="6.28976">
        <ele>843.7</ele>
        <time>2022-01-13T07:15:14Z</time>
      </trkpt>
      <trkpt lat="45.71436" lon="6.28968">
        <ele>843.7</ele>
        <time>2022-01-13T07:15:15Z</time>
      </trkpt>
      <trkpt lat="45.71448" lon="6.28959">
        <ele>843.7</ele>
        <time>2022-01-13T07:15:16Z</time>
      </trkpt>
      <trkpt lat="45.7146" lon="6.28951">
        <ele>843.7</ele>
        <time>2022-01-13T07:15:17Z</time>
      </trkpt>
      <trkpt lat="45.71473" lon="6.28944">
        <ele>837.8</ele>
        <time>2022-01-13T07:15:18Z</time>
      </trkpt>
      <trkpt lat="45.71485" lon="6.28939">
        <ele>837.8</ele>
        <time>2022-01-13T07:15:19Z</time>
      </trkpt>
      <trkpt lat="45.71498" lon="6.28935">
        <ele>834.7</ele>
        <time>2022-01-13T07:15:20Z</time>
      </trkpt>
      <trkpt lat="45.7151" lon="6.2893">
        <ele>834.7</ele>
        <time>2022-01-13T07:15:21Z</time>
      </trkpt>
      <trkpt lat="45.71519" lon="6.28925">
        <ele>832.7</ele>
        <time>2022-01-13T07:15:22Z</time>
      </trkpt>
      <trkpt lat="45.71532" lon="6.28915">
        <ele>832.7</ele>
        <time>2022-01-13T07:15:23Z</time>
      </trkpt>
      <trkpt lat="45.71542" lon="6.28904">
        <ele>829.8</ele>
        <time>2022-01-13T07:15:24Z</time>
      </trkpt>
      <trkpt lat="45.71553" lon="6.2889">
        <ele>829.8</ele>
        <time>2022-01-13T07:15:25Z</time>
      </trkpt>
      <trkpt lat="45.71564" lon="6.28877">
        <ele>827.7</ele>
        <time>2022-01-13T07:15:26Z</time>
      </trkpt>
      <trkpt lat="45.71577" lon="6.28863">
        <ele>827.7</ele>
        <time>2022-01-13T07:15:27Z</time>
      </trkpt>
      <trkpt lat="45.7159" lon="6.28849">
        <ele>823.7</ele>
        <time>2022-01-13T07:15:28Z</time>
      </trkpt>
      <trkpt lat="45.71602" lon="6.28836">
        <ele>823.7</ele>
        <time>2022-01-13T07:15:29Z</time>
      </trkpt>
      <trkpt lat="45.71615" lon="6.28823">
        <ele>820.8</ele>
        <time>2022-01-13T07:15:30Z</time>
      </trkpt>
      <trkpt lat="45.71629" lon="6.28811">
        <ele>820.8</ele>
        <time>2022-01-13T07:15:31Z</time>
      </trkpt>
      <trkpt lat="45.71642" lon="6.288">
        <ele>816.7</ele>
        <time>2022-01-13T07:15:32Z</time>
      </trkpt>
      <trkpt lat="45.71656" lon="6.2879">
        <ele>816.7</ele>
        <time>2022-01-13T07:15:33Z</time>
      </trkpt>
      <trkpt lat="45.71668" lon="6.28781">
        <ele>813.8</ele>
        <time>2022-01-13T07:15:34Z</time>
      </trkpt>
      <trkpt lat="45.71679" lon="6.28774">
        <ele>813.8</ele>
        <time>2022-01-13T07:15:35Z</time>
      </trkpt>
      <trkpt lat="45.7169" lon="6.28764">
        <ele>810.8</ele>
        <time>2022-01-13T07:15:36Z</time>
      </trkpt>
      <trkpt lat="45.71701" lon="6.28754">
        <ele>810.8</ele>
        <time>2022-01-13T07:15:37Z</time>
      </trkpt>
      <trkpt lat="45.71712" lon="6.28742">
        <ele>808.8</ele>
        <time>2022-01-13T07:15:38Z</time>
      </trkpt>
      <trkpt lat="45.71723" lon="6.28731">
        <ele>808.8</ele>
        <time>2022-01-13T07:15:39Z</time>
      </trkpt>
      <trkpt lat="45.71734" lon="6.28719">
        <ele>805.7</ele>
        <time>2022-01-13T07:15:40Z</time>
      </trkpt>
      <trkpt lat="45.71743" lon="6.28708">
        <ele>805.7</ele>
        <time>2022-01-13T07:15:41Z</time>
      </trkpt>
      <trkpt lat="45.7175" lon="6.28694">
        <ele>802.7</ele>
        <time>2022-01-13T07:15:42Z</time>
      </trkpt>
      <trkpt lat="45.71755" lon="6.28681">
        <ele>802.7</ele>
        <time>2022-01-13T07:15:43Z</time>
      </trkpt>
      <trkpt lat="45.71759" lon="6.28668">
        <ele>800.7</ele>
        <time>2022-01-13T07:15:44Z</time>
      </trkpt>
      <trkpt lat="45.71761" lon="6.28653">
        <ele>800.7</ele>
        <time>2022-01-13T07:15:45Z</time>
      </trkpt>
      <trkpt lat="45.71761" lon="6.28638">
        <ele>798.7</ele>
        <time>2022-01-13T07:15:46Z</time>
      </trkpt>
      <trkpt lat="45.71759" lon="6.28622">
        <ele>798.7</ele>
        <time>2022-01-13T07:15:47Z</time>
      </trkpt>
      <trkpt lat="45.71756" lon="6.28606">
        <ele>798.7</ele>
        <time>2022-01-13T07:15:48Z</time>
      </trkpt>
      <trkpt lat="45.7175" lon="6.28592">
        <ele>798.7</ele>
        <time>2022-01-13T07:15:49Z</time>
      </trkpt>
      <trkpt lat="45.71741" lon="6.28579">
        <ele>791.7</ele>
        <time>2022-01-13T07:15:50Z</time>
      </trkpt>
      <trkpt lat="45.71732" lon="6.28566">
        <ele>791.7</ele>
        <time>2022-01-13T07:15:51Z</time>
      </trkpt>
      <trkpt lat="45.71723" lon="6.28555">
        <ele>788.8</ele>
        <time>2022-01-13T07:15:52Z</time>
      </trkpt>
      <trkpt lat="45.71717" lon="6.28545">
        <ele>788.8</ele>
        <time>2022-01-13T07:15:53Z</time>
      </trkpt>
      <trkpt lat="45.71712" lon="6.28536">
        <ele>786.7</ele>
        <time>2022-01-13T07:15:54Z</time>
      </trkpt>
      <trkpt lat="45.7171" lon="6.28527">
        <ele>786.7</ele>
        <time>2022-01-13T07:15:55Z</time>
      </trkpt>
      <trkpt lat="45.71711" lon="6.28521">
        <ele>785.8</ele>
        <time>2022-01-13T07:15:56Z</time>
      </trkpt>
      <trkpt lat="45.71715" lon="6.28517">
        <ele>785.8</ele>
        <time>2022-01-13T07:15:57Z</time>
      </trkpt>
      <trkpt lat="45.71718" lon="6.28517">
        <ele>783.8</ele>
        <time>2022-01-13T07:15:58Z</time>
      </trkpt>
      <trkpt lat="45.71727" lon="6.28528">
        <ele>783.8</ele>
        <time>2022-01-13T07:15:59Z</time>
      </trkpt>
      <trkpt lat="45.71732" lon="6.28536">
        <ele>783.8</ele>
        <time>2022-01-13T07:16:00Z</time>
      </trkpt>
      <trkpt lat="45.71737" lon="6.28544">
        <ele>783.8</ele>
        <time>2022-01-13T07:16:01Z</time>
      </trkpt>
      <trkpt lat="45.71742" lon="6.28552">
        <ele>786.7</ele>
        <time>2022-01-13T07:16:02Z</time>
      </trkpt>
      <trkpt lat="45.71747" lon="6.2856">
        <ele>786.7</ele>
        <time>2022-01-13T07:16:03Z</time>
      </trkpt>
      <trkpt lat="45.71752" lon="6.28568">
        <ele>787.8</ele>
        <time>2022-01-13T07:16:04Z</time>
      </trkpt>
      <trkpt lat="45.71761" lon="6.2858">
        <ele>787.8</ele>
        <time>2022-01-13T07:16:05Z</time>
      </trkpt>
      <trkpt lat="45.7177" lon="6.28594">
        <ele>787.8</ele>
        <time>2022-01-13T07:16:06Z</time>
      </trkpt>
      <trkpt lat="45.7178" lon="6.28608">
        <ele>787.8</ele>
        <time>2022-01-13T07:16:07Z</time>
      </trkpt>
      <trkpt lat="45.71791" lon="6.28623">
        <ele>786.7</ele>
        <time>2022-01-13T07:16:08Z</time>
      </trkpt>
      <trkpt lat="45.718" lon="6.28638">
        <ele>786.7</ele>
        <time>2022-01-13T07:16:09Z</time>
      </trkpt>
      <trkpt lat="45.71808" lon="6.28654">
        <ele>785.8</ele>
        <time>2022-01-13T07:16:10Z</time>
      </trkpt>
      <trkpt lat="45.71815" lon="6.28673">
        <ele>784.7</ele>
        <time>2022-01-13T07:16:11Z</time>
      </trkpt>
      <trkpt lat="45.71819" lon="6.28693">
        <ele>784.7</ele>
        <time>2022-01-13T07:16:12Z</time>
      </trkpt>
      <trkpt lat="45.7182" lon="6.28712">
        <ele>783.8</ele>
        <time>2022-01-13T07:16:13Z</time>
      </trkpt>
      <trkpt lat="45.71818" lon="6.28732">
        <ele>782.7</ele>
        <time>2022-01-13T07:16:14Z</time>
      </trkpt>
      <trkpt lat="45.71813" lon="6.28754">
        <ele>782.7</ele>
        <time>2022-01-13T07:16:15Z</time>
      </trkpt>
      <trkpt lat="45.71809" lon="6.28769">
        <ele>781.8</ele>
        <time>2022-01-13T07:16:16Z</time>
      </trkpt>
      <trkpt lat="45.71804" lon="6.28787">
        <ele>781.8</ele>
        <time>2022-01-13T07:16:17Z</time>
      </trkpt>
      <trkpt lat="45.71799" lon="6.28804">
        <ele>780.8</ele>
        <time>2022-01-13T07:16:18Z</time>
      </trkpt>
      <trkpt lat="45.71796" lon="6.28821">
        <ele>780.8</ele>
        <time>2022-01-13T07:16:19Z</time>
      </trkpt>
      <trkpt lat="45.71791" lon="6.28838">
        <ele>779.8</ele>
        <time>2022-01-13T07:16:20Z</time>
      </trkpt>
      <trkpt lat="45.71786" lon="6.28855">
        <ele>778.8</ele>
        <time>2022-01-13T07:16:21Z</time>
      </trkpt>
      <trkpt lat="45.7178" lon="6.28872">
        <ele>778.8</ele>
        <time>2022-01-13T07:16:22Z</time>
      </trkpt>
      <trkpt lat="45.71773" lon="6.28888">
        <ele>777.7</ele>
        <time>2022-01-13T07:16:23Z</time>
      </trkpt>
      <trkpt lat="45.71765" lon="6.28903">
        <ele>777.7</ele>
        <time>2022-01-13T07:16:24Z</time>
      </trkpt>
      <trkpt lat="45.71757" lon="6.28917">
        <ele>776.8</ele>
        <time>2022-01-13T07:16:25Z</time>
      </trkpt>
      <trkpt lat="45.71752" lon="6.28929">
        <ele>776.8</ele>
        <time>2022-01-13T07:16:26Z</time>
      </trkpt>
      <trkpt lat="45.71747" lon="6.28942">
        <ele>775.7</ele>
        <time>2022-01-13T07:16:27Z</time>
      </trkpt>
      <trkpt lat="45.71745" lon="6.28956">
        <ele>774.8</ele>
        <time>2022-01-13T07:16:28Z</time>
      </trkpt>
      <trkpt lat="45.71745" lon="6.28971">
        <ele>774.8</ele>
        <time>2022-01-13T07:16:29Z</time>
      </trkpt>
      <trkpt lat="45.71745" lon="6.28988">
        <ele>773.7</ele>
        <time>2022-01-13T07:16:30Z</time>
      </trkpt>
      <trkpt lat="45.71747" lon="6.29007">
        <ele>773.7</ele>
        <time>2022-01-13T07:16:31Z</time>
      </trkpt>
      <trkpt lat="45.71747" lon="6.29026">
        <ele>773.7</ele>
        <time>2022-01-13T07:16:32Z</time>
      </trkpt>
      <trkpt lat="45.71744" lon="6.29046">
        <ele>773.7</ele>
        <time>2022-01-13T07:16:33Z</time>
      </trkpt>
      <trkpt lat="45.71741" lon="6.29065">
        <ele>773.7</ele>
        <time>2022-01-13T07:16:34Z</time>
      </trkpt>
      <trkpt lat="45.71735" lon="6.29082">
        <ele>773.7</ele>
        <time>2022-01-13T07:16:35Z</time>
      </trkpt>
      <trkpt lat="45.71728" lon="6.291">
        <ele>772.8</ele>
        <time>2022-01-13T07:16:36Z</time>
      </trkpt>
      <trkpt lat="45.71718" lon="6.29118">
        <ele>772.8</ele>
        <time>2022-01-13T07:16:37Z</time>
      </trkpt>
      <trkpt lat="45.71709" lon="6.29135">
        <ele>772.8</ele>
        <time>2022-01-13T07:16:38Z</time>
      </trkpt>
      <trkpt lat="45.717" lon="6.29153">
        <ele>772.8</ele>
        <time>2022-01-13T07:16:39Z</time>
      </trkpt>
      <trkpt lat="45.71692" lon="6.29171">
        <ele>771.8</ele>
        <time>2022-01-13T07:16:40Z</time>
      </trkpt>
      <trkpt lat="45.71685" lon="6.29189">
        <ele>771.8</ele>
        <time>2022-01-13T07:16:41Z</time>
      </trkpt>
      <trkpt lat="45.71678" lon="6.29207">
        <ele>771.8</ele>
        <time>2022-01-13T07:16:42Z</time>
      </trkpt>
      <trkpt lat="45.71673" lon="6.29226">
        <ele>770.7</ele>
        <time>2022-01-13T07:16:43Z</time>
      </trkpt>
      <trkpt lat="45.71666" lon="6.2925">
        <ele>769.8</ele>
        <time>2022-01-13T07:16:44Z</time>
      </trkpt>
      <trkpt lat="45.71661" lon="6.2927">
        <ele>768.7</ele>
        <time>2022-01-13T07:16:45Z</time>
      </trkpt>
      <trkpt lat="45.71658" lon="6.29284">
        <ele>767.8</ele>
        <time>2022-01-13T07:16:46Z</time>
      </trkpt>
      <trkpt lat="45.71654" lon="6.293">
        <ele>767.8</ele>
        <time>2022-01-13T07:16:47Z</time>
      </trkpt>
      <trkpt lat="45.71652" lon="6.29316">
        <ele>767.8</ele>
        <time>2022-01-13T07:16:48Z</time>
      </trkpt>
      <trkpt lat="45.71651" lon="6.29331">
        <ele>767.8</ele>
        <time>2022-01-13T07:16:49Z</time>
      </trkpt>
      <trkpt lat="45.71653" lon="6.29345">
        <ele>767.8</ele>
        <time>2022-01-13T07:16:50Z</time>
      </trkpt>
      <trkpt lat="45.71656" lon="6.29358">
        <ele>759.7</ele>
        <time>2022-01-13T07:16:51Z</time>
      </trkpt>
      <trkpt lat="45.71661" lon="6.29372">
        <ele>757.7</ele>
        <time>2022-01-13T07:16:52Z</time>
      </trkpt>
      <trkpt lat="45.71666" lon="6.29386">
        <ele>755.8</ele>
        <time>2022-01-13T07:16:53Z</time>
      </trkpt>
      <trkpt lat="45.71669" lon="6.29399">
        <ele>753.8</ele>
        <time>2022-01-13T07:16:54Z</time>
      </trkpt>
      <trkpt lat="45.71671" lon="6.29413">
        <ele>752.7</ele>
        <time>2022-01-13T07:16:55Z</time>
      </trkpt>
      <trkpt lat="45.71669" lon="6.29425">
        <ele>750.7</ele>
        <time>2022-01-13T07:16:56Z</time>
      </trkpt>
      <trkpt lat="45.71664" lon="6.29436">
        <ele>748.8</ele>
        <time>2022-01-13T07:16:57Z</time>
      </trkpt>
      <trkpt lat="45.71658" lon="6.29445">
        <ele>746.8</ele>
        <time>2022-01-13T07:16:58Z</time>
      </trkpt>
      <trkpt lat="45.71652" lon="6.29453">
        <ele>745.7</ele>
        <time>2022-01-13T07:16:59Z</time>
      </trkpt>
      <trkpt lat="45.71647" lon="6.29463">
        <ele>743.7</ele>
        <time>2022-01-13T07:17:00Z</time>
      </trkpt>
      <trkpt lat="45.71645" lon="6.29472">
        <ele>741.7</ele>
        <time>2022-01-13T07:17:01Z</time>
      </trkpt>
      <trkpt lat="45.71645" lon="6.2948">
        <ele>739.8</ele>
        <time>2022-01-13T07:17:02Z</time>
      </trkpt>
      <trkpt lat="45.71648" lon="6.29486">
        <ele>738.7</ele>
        <time>2022-01-13T07:17:03Z</time>
      </trkpt>
      <trkpt lat="45.71653" lon="6.29488">
        <ele>736.7</ele>
        <time>2022-01-13T07:17:04Z</time>
      </trkpt>
      <trkpt lat="45.7166" lon="6.29487">
        <ele>734.7</ele>
        <time>2022-01-13T07:17:05Z</time>
      </trkpt>
      <trkpt lat="45.71668" lon="6.29482">
        <ele>733.8</ele>
        <time>2022-01-13T07:17:06Z</time>
      </trkpt>
      <trkpt lat="45.71677" lon="6.29477">
        <ele>731.8</ele>
        <time>2022-01-13T07:17:07Z</time>
      </trkpt>
      <trkpt lat="45.71686" lon="6.2947">
        <ele>729.7</ele>
        <time>2022-01-13T07:17:08Z</time>
      </trkpt>
      <trkpt lat="45.71695" lon="6.29464">
        <ele>728.8</ele>
        <time>2022-01-13T07:17:09Z</time>
      </trkpt>
      <trkpt lat="45.71705" lon="6.29457">
        <ele>727.7</ele>
        <time>2022-01-13T07:17:10Z</time>
      </trkpt>
      <trkpt lat="45.71715" lon="6.29449">
        <ele>725.7</ele>
        <time>2022-01-13T07:17:11Z</time>
      </trkpt>
      <trkpt lat="45.71723" lon="6.2944">
        <ele>724.8</ele>
        <time>2022-01-13T07:17:12Z</time>
      </trkpt>
      <trkpt lat="45.7173" lon="6.29429">
        <ele>723.8</ele>
        <time>2022-01-13T07:17:13Z</time>
      </trkpt>
      <trkpt lat="45.71735" lon="6.29416">
        <ele>722.8</ele>
        <time>2022-01-13T07:17:14Z</time>
      </trkpt>
      <trkpt lat="45.71739" lon="6.29402">
        <ele>720.7</ele>
        <time>2022-01-13T07:17:15Z</time>
      </trkpt>
      <trkpt lat="45.71744" lon="6.29388">
        <ele>719.8</ele>
        <time>2022-01-13T07:17:16Z</time>
      </trkpt>
      <trkpt lat="45.71749" lon="6.29374">
        <ele>718.7</ele>
        <time>2022-01-13T07:17:17Z</time>
      </trkpt>
      <trkpt lat="45.71757" lon="6.2936">
        <ele>717.8</ele>
        <time>2022-01-13T07:17:18Z</time>
      </trkpt>
      <trkpt lat="45.71766" lon="6.29347">
        <ele>716.7</ele>
        <time>2022-01-13T07:17:19Z</time>
      </trkpt>
      <trkpt lat="45.71776" lon="6.29335">
        <ele>714.8</ele>
        <time>2022-01-13T07:17:20Z</time>
      </trkpt>
      <trkpt lat="45.71786" lon="6.29323">
        <ele>713.7</ele>
        <time>2022-01-13T07:17:21Z</time>
      </trkpt>
      <trkpt lat="45.71795" lon="6.29313">
        <ele>711.7</ele>
        <time>2022-01-13T07:17:22Z</time>
      </trkpt>
      <trkpt lat="45.71805" lon="6.29305">
        <ele>710.8</ele>
        <time>2022-01-13T07:17:23Z</time>
      </trkpt>
      <trkpt lat="45.71814" lon="6.29299">
        <ele>708.8</ele>
        <time>2022-01-13T07:17:24Z</time>
      </trkpt>
      <trkpt lat="45.71822" lon="6.29292">
        <ele>707.8</ele>
        <time>2022-01-13T07:17:25Z</time>
      </trkpt>
      <trkpt lat="45.71828" lon="6.29283">
        <ele>706.8</ele>
        <time>2022-01-13T07:17:26Z</time>
      </trkpt>
      <trkpt lat="45.71833" lon="6.29272">
        <ele>704.7</ele>
        <time>2022-01-13T07:17:27Z</time>
      </trkpt>
      <trkpt lat="45.71836" lon="6.2926">
        <ele>703.8</ele>
        <time>2022-01-13T07:17:28Z</time>
      </trkpt>
      <trkpt lat="45.71839" lon="6.29245">
        <ele>702.7</ele>
        <time>2022-01-13T07:17:29Z</time>
      </trkpt>
      <trkpt lat="45.71841" lon="6.29231">
        <ele>700.7</ele>
        <time>2022-01-13T07:17:30Z</time>
      </trkpt>
      <trkpt lat="45.71846" lon="6.29216">
        <ele>699.8</ele>
        <time>2022-01-13T07:17:31Z</time>
      </trkpt>
      <trkpt lat="45.71851" lon="6.29204">
        <ele>697.7</ele>
        <time>2022-01-13T07:17:32Z</time>
      </trkpt>
      <trkpt lat="45.71859" lon="6.29194">
        <ele>697.7</ele>
        <time>2022-01-13T07:17:33Z</time>
      </trkpt>
      <trkpt lat="45.71868" lon="6.29187">
        <ele>695.7</ele>
        <time>2022-01-13T07:17:34Z</time>
      </trkpt>
      <trkpt lat="45.71878" lon="6.29182">
        <ele>695.7</ele>
        <time>2022-01-13T07:17:35Z</time>
      </trkpt>
      <trkpt lat="45.71889" lon="6.2918">
        <ele>693.7</ele>
        <time>2022-01-13T07:17:36Z</time>
      </trkpt>
      <trkpt lat="45.71901" lon="6.29179">
        <ele>693.7</ele>
        <time>2022-01-13T07:17:37Z</time>
      </trkpt>
      <trkpt lat="45.71913" lon="6.2918">
        <ele>691.8</ele>
        <time>2022-01-13T07:17:38Z</time>
      </trkpt>
      <trkpt lat="45.71926" lon="6.29183">
        <ele>691.8</ele>
        <time>2022-01-13T07:17:39Z</time>
      </trkpt>
      <trkpt lat="45.71938" lon="6.29189">
        <ele>689.8</ele>
        <time>2022-01-13T07:17:40Z</time>
      </trkpt>
      <trkpt lat="45.71949" lon="6.29197">
        <ele>689.8</ele>
        <time>2022-01-13T07:17:41Z</time>
      </trkpt>
      <trkpt lat="45.7196" lon="6.29207">
        <ele>686.7</ele>
        <time>2022-01-13T07:17:42Z</time>
      </trkpt>
      <trkpt lat="45.7197" lon="6.29215">
        <ele>686.7</ele>
        <time>2022-01-13T07:17:43Z</time>
      </trkpt>
      <trkpt lat="45.71979" lon="6.29223">
        <ele>686.7</ele>
        <time>2022-01-13T07:17:44Z</time>
      </trkpt>
      <trkpt lat="45.71988" lon="6.29229">
        <ele>686.7</ele>
        <time>2022-01-13T07:17:45Z</time>
      </trkpt>
      <trkpt lat="45.71997" lon="6.2923">
        <ele>686.7</ele>
        <time>2022-01-13T07:17:46Z</time>
      </trkpt>
      <trkpt lat="45.72006" lon="6.29227">
        <ele>686.7</ele>
        <time>2022-01-13T07:17:47Z</time>
      </trkpt>
      <trkpt lat="45.72011" lon="6.29222">
        <ele>681.7</ele>
        <time>2022-01-13T07:17:48Z</time>
      </trkpt>
      <trkpt lat="45.72017" lon="6.29214">
        <ele>681.7</ele>
        <time>2022-01-13T07:17:49Z</time>
      </trkpt>
      <trkpt lat="45.72023" lon="6.29202">
        <ele>681.7</ele>
        <time>2022-01-13T07:17:50Z</time>
      </trkpt>
      <trkpt lat="45.72026" lon="6.29189">
        <ele>681.7</ele>
        <time>2022-01-13T07:17:51Z</time>
      </trkpt>
      <trkpt lat="45.72027" lon="6.29176">
        <ele>681.7</ele>
        <time>2022-01-13T07:17:52Z</time>
      </trkpt>
      <trkpt lat="45.72025" lon="6.29162">
        <ele>681.7</ele>
        <time>2022-01-13T07:17:53Z</time>
      </trkpt>
      <trkpt lat="45.72021" lon="6.29147">
        <ele>681.7</ele>
        <time>2022-01-13T07:17:54Z</time>
      </trkpt>
      <trkpt lat="45.72017" lon="6.29131">
        <ele>676.8</ele>
        <time>2022-01-13T07:17:55Z</time>
      </trkpt>
      <trkpt lat="45.72015" lon="6.29116">
        <ele>676.8</ele>
        <time>2022-01-13T07:17:56Z</time>
      </trkpt>
      <trkpt lat="45.72015" lon="6.29103">
        <ele>674.8</ele>
        <time>2022-01-13T07:17:57Z</time>
      </trkpt>
      <trkpt lat="45.72016" lon="6.29087">
        <ele>674.8</ele>
        <time>2022-01-13T07:17:58Z</time>
      </trkpt>
      <trkpt lat="45.72023" lon="6.29072">
        <ele>672.7</ele>
        <time>2022-01-13T07:17:59Z</time>
      </trkpt>
      <trkpt lat="45.72032" lon="6.29061">
        <ele>672.7</ele>
        <time>2022-01-13T07:18:00Z</time>
      </trkpt>
      <trkpt lat="45.72041" lon="6.29053">
        <ele>670.7</ele>
        <time>2022-01-13T07:18:01Z</time>
      </trkpt>
      <trkpt lat="45.72053" lon="6.29044">
        <ele>670.7</ele>
        <time>2022-01-13T07:18:02Z</time>
      </trkpt>
      <trkpt lat="45.72066" lon="6.29033">
        <ele>667.8</ele>
        <time>2022-01-13T07:18:03Z</time>
      </trkpt>
      <trkpt lat="45.72074" lon="6.29026">
        <ele>667.8</ele>
        <time>2022-01-13T07:18:04Z</time>
      </trkpt>
      <trkpt lat="45.72085" lon="6.29016">
        <ele>665.7</ele>
        <time>2022-01-13T07:18:05Z</time>
      </trkpt>
      <trkpt lat="45.72091" lon="6.29011">
        <ele>665.7</ele>
        <time>2022-01-13T07:18:06Z</time>
      </trkpt>
      <trkpt lat="45.72099" lon="6.29007">
        <ele>663.7</ele>
        <time>2022-01-13T07:18:07Z</time>
      </trkpt>
      <trkpt lat="45.72105" lon="6.29006">
        <ele>663.7</ele>
        <time>2022-01-13T07:18:08Z</time>
      </trkpt>
      <trkpt lat="45.7211" lon="6.29011">
        <ele>662.8</ele>
        <time>2022-01-13T07:18:09Z</time>
      </trkpt>
      <trkpt lat="45.72112" lon="6.2902">
        <ele>662.8</ele>
        <time>2022-01-13T07:18:10Z</time>
      </trkpt>
      <trkpt lat="45.7211" lon="6.2903">
        <ele>661.7</ele>
        <time>2022-01-13T07:18:11Z</time>
      </trkpt>
      <trkpt lat="45.72107" lon="6.29043">
        <ele>661.7</ele>
        <time>2022-01-13T07:18:12Z</time>
      </trkpt>
      <trkpt lat="45.72102" lon="6.29057">
        <ele>659.7</ele>
        <time>2022-01-13T07:18:13Z</time>
      </trkpt>
      <trkpt lat="45.72097" lon="6.29073">
        <ele>659.7</ele>
        <time>2022-01-13T07:18:14Z</time>
      </trkpt>
      <trkpt lat="45.72095" lon="6.29085">
        <ele>658.8</ele>
        <time>2022-01-13T07:18:15Z</time>
      </trkpt>
      <trkpt lat="45.72095" lon="6.291">
        <ele>658.8</ele>
        <time>2022-01-13T07:18:16Z</time>
      </trkpt>
      <trkpt lat="45.72099" lon="6.29117">
        <ele>656.7</ele>
        <time>2022-01-13T07:18:17Z</time>
      </trkpt>
      <trkpt lat="45.72105" lon="6.29127">
        <ele>656.7</ele>
        <time>2022-01-13T07:18:18Z</time>
      </trkpt>
      <trkpt lat="45.72113" lon="6.29139">
        <ele>654.7</ele>
        <time>2022-01-13T07:18:19Z</time>
      </trkpt>
      <trkpt lat="45.72122" lon="6.29149">
        <ele>654.7</ele>
        <time>2022-01-13T07:18:20Z</time>
      </trkpt>
      <trkpt lat="45.72132" lon="6.2916">
        <ele>652.7</ele>
        <time>2022-01-13T07:18:21Z</time>
      </trkpt>
      <trkpt lat="45.72141" lon="6.2917">
        <ele>652.7</ele>
        <time>2022-01-13T07:18:22Z</time>
      </trkpt>
      <trkpt lat="45.72151" lon="6.29184">
        <ele>649.7</ele>
        <time>2022-01-13T07:18:23Z</time>
      </trkpt>
      <trkpt lat="45.72157" lon="6.29197">
        <ele>649.7</ele>
        <time>2022-01-13T07:18:24Z</time>
      </trkpt>
      <trkpt lat="45.7216" lon="6.29209">
        <ele>647.7</ele>
        <time>2022-01-13T07:18:25Z</time>
      </trkpt>
      <trkpt lat="45.72163" lon="6.29226">
        <ele>647.7</ele>
        <time>2022-01-13T07:18:26Z</time>
      </trkpt>
      <trkpt lat="45.72165" lon="6.29247">
        <ele>645.7</ele>
        <time>2022-01-13T07:18:27Z</time>
      </trkpt>
      <trkpt lat="45.72166" lon="6.29266">
        <ele>645.7</ele>
        <time>2022-01-13T07:18:28Z</time>
      </trkpt>
      <trkpt lat="45.72166" lon="6.29285">
        <ele>644.8</ele>
        <time>2022-01-13T07:18:29Z</time>
      </trkpt>
      <trkpt lat="45.72164" lon="6.29305">
        <ele>644.8</ele>
        <time>2022-01-13T07:18:30Z</time>
      </trkpt>
      <trkpt lat="45.72162" lon="6.29325">
        <ele>641.8</ele>
        <time>2022-01-13T07:18:31Z</time>
      </trkpt>
      <trkpt lat="45.72159" lon="6.29345">
        <ele>641.8</ele>
        <time>2022-01-13T07:18:32Z</time>
      </trkpt>
      <trkpt lat="45.72156" lon="6.29364">
        <ele>640.7</ele>
        <time>2022-01-13T07:18:33Z</time>
      </trkpt>
      <trkpt lat="45.72154" lon="6.2938">
        <ele>640.7</ele>
        <time>2022-01-13T07:18:34Z</time>
      </trkpt>
      <trkpt lat="45.72151" lon="6.29394">
        <ele>637.8</ele>
        <time>2022-01-13T07:18:35Z</time>
      </trkpt>
      <trkpt lat="45.72146" lon="6.29407">
        <ele>637.8</ele>
        <time>2022-01-13T07:18:36Z</time>
      </trkpt>
      <trkpt lat="45.7214" lon="6.29417">
        <ele>636.7</ele>
        <time>2022-01-13T07:18:37Z</time>
      </trkpt>
      <trkpt lat="45.72136" lon="6.29424">
        <ele>636.7</ele>
        <time>2022-01-13T07:18:38Z</time>
      </trkpt>
      <trkpt lat="45.7213" lon="6.29436">
        <ele>635.8</ele>
        <time>2022-01-13T07:18:39Z</time>
      </trkpt>
      <trkpt lat="45.72129" lon="6.29444">
        <ele>635.8</ele>
        <time>2022-01-13T07:18:40Z</time>
      </trkpt>
      <trkpt lat="45.72129" lon="6.29455">
        <ele>633.8</ele>
        <time>2022-01-13T07:18:41Z</time>
      </trkpt>
      <trkpt lat="45.72132" lon="6.29461">
        <ele>633.8</ele>
        <time>2022-01-13T07:18:42Z</time>
      </trkpt>
      <trkpt lat="45.72137" lon="6.29467">
        <ele>632.8</ele>
        <time>2022-01-13T07:18:43Z</time>
      </trkpt>
      <trkpt lat="45.72145" lon="6.2947">
        <ele>632.8</ele>
        <time>2022-01-13T07:18:44Z</time>
      </trkpt>
      <trkpt lat="45.72154" lon="6.29471">
        <ele>631.7</ele>
        <time>2022-01-13T07:18:45Z</time>
      </trkpt>
      <trkpt lat="45.72165" lon="6.2947">
        <ele>631.7</ele>
        <time>2022-01-13T07:18:46Z</time>
      </trkpt>
      <trkpt lat="45.72176" lon="6.29466">
        <ele>631.7</ele>
        <time>2022-01-13T07:18:47Z</time>
      </trkpt>
      <trkpt lat="45.72189" lon="6.29461">
        <ele>631.7</ele>
        <time>2022-01-13T07:18:48Z</time>
      </trkpt>
      <trkpt lat="45.72202" lon="6.29454">
        <ele>631.7</ele>
        <time>2022-01-13T07:18:49Z</time>
      </trkpt>
      <trkpt lat="45.72216" lon="6.29447">
        <ele>631.7</ele>
        <time>2022-01-13T07:18:50Z</time>
      </trkpt>
      <trkpt lat="45.7223" lon="6.2944">
        <ele>626.8</ele>
        <time>2022-01-13T07:18:51Z</time>
      </trkpt>
      <trkpt lat="45.72245" lon="6.29432">
        <ele>626.8</ele>
        <time>2022-01-13T07:18:52Z</time>
      </trkpt>
      <trkpt lat="45.72259" lon="6.29423">
        <ele>625.8</ele>
        <time>2022-01-13T07:18:53Z</time>
      </trkpt>
      <trkpt lat="45.72273" lon="6.29413">
        <ele>625.8</ele>
        <time>2022-01-13T07:18:54Z</time>
      </trkpt>
      <trkpt lat="45.72291" lon="6.29401">
        <ele>625.8</ele>
        <time>2022-01-13T07:18:55Z</time>
      </trkpt>
      <trkpt lat="45.72303" lon="6.29392">
        <ele>625.8</ele>
        <time>2022-01-13T07:18:56Z</time>
      </trkpt>
      <trkpt lat="45.72318" lon="6.29382">
        <ele>625.8</ele>
        <time>2022-01-13T07:18:57Z</time>
      </trkpt>
      <trkpt lat="45.72332" lon="6.29372">
        <ele>625.8</ele>
        <time>2022-01-13T07:18:58Z</time>
      </trkpt>
      <trkpt lat="45.72347" lon="6.29363">
        <ele>619.8</ele>
        <time>2022-01-13T07:18:59Z</time>
      </trkpt>
      <trkpt lat="45.72364" lon="6.29351">
        <ele>619.8</ele>
        <time>2022-01-13T07:19:00Z</time>
      </trkpt>
      <trkpt lat="45.72379" lon="6.29343">
        <ele>617.8</ele>
        <time>2022-01-13T07:19:01Z</time>
      </trkpt>
      <trkpt lat="45.72391" lon="6.29338">
        <ele>617.8</ele>
        <time>2022-01-13T07:19:02Z</time>
      </trkpt>
      <trkpt lat="45.72405" lon="6.29331">
        <ele>614.8</ele>
        <time>2022-01-13T07:19:03Z</time>
      </trkpt>
      <trkpt lat="45.72419" lon="6.29325">
        <ele>614.8</ele>
        <time>2022-01-13T07:19:04Z</time>
      </trkpt>
      <trkpt lat="45.72431" lon="6.2932">
        <ele>611.7</ele>
        <time>2022-01-13T07:19:05Z</time>
      </trkpt>
      <trkpt lat="45.72442" lon="6.29316">
        <ele>611.7</ele>
        <time>2022-01-13T07:19:06Z</time>
      </trkpt>
      <trkpt lat="45.72453" lon="6.29315">
        <ele>609.8</ele>
        <time>2022-01-13T07:19:07Z</time>
      </trkpt>
      <trkpt lat="45.72465" lon="6.29317">
        <ele>609.8</ele>
        <time>2022-01-13T07:19:08Z</time>
      </trkpt>
      <trkpt lat="45.72472" lon="6.2932">
        <ele>607.8</ele>
        <time>2022-01-13T07:19:09Z</time>
      </trkpt>
      <trkpt lat="45.72482" lon="6.29326">
        <ele>607.8</ele>
        <time>2022-01-13T07:19:10Z</time>
      </trkpt>
      <trkpt lat="45.72491" lon="6.29335">
        <ele>606.7</ele>
        <time>2022-01-13T07:19:11Z</time>
      </trkpt>
      <trkpt lat="45.72499" lon="6.29345">
        <ele>606.7</ele>
        <time>2022-01-13T07:19:12Z</time>
      </trkpt>
      <trkpt lat="45.72507" lon="6.29361">
        <ele>605.8</ele>
        <time>2022-01-13T07:19:13Z</time>
      </trkpt>
      <trkpt lat="45.72513" lon="6.29376">
        <ele>605.8</ele>
        <time>2022-01-13T07:19:14Z</time>
      </trkpt>
      <trkpt lat="45.7252" lon="6.29396">
        <ele>603.8</ele>
        <time>2022-01-13T07:19:15Z</time>
      </trkpt>
      <trkpt lat="45.72524" lon="6.29413">
        <ele>603.8</ele>
        <time>2022-01-13T07:19:16Z</time>
      </trkpt>
      <trkpt lat="45.72527" lon="6.29426">
        <ele>601.8</ele>
        <time>2022-01-13T07:19:17Z</time>
      </trkpt>
      <trkpt lat="45.7253" lon="6.29442">
        <ele>601.8</ele>
        <time>2022-01-13T07:19:18Z</time>
      </trkpt>
      <trkpt lat="45.7253" lon="6.29456">
        <ele>599.7</ele>
        <time>2022-01-13T07:19:19Z</time>
      </trkpt>
      <trkpt lat="45.72528" lon="6.29468">
        <ele>599.7</ele>
        <time>2022-01-13T07:19:20Z</time>
      </trkpt>
      <trkpt lat="45.72523" lon="6.29478">
        <ele>598.8</ele>
        <time>2022-01-13T07:19:21Z</time>
      </trkpt>
      <trkpt lat="45.72516" lon="6.29488">
        <ele>598.8</ele>
        <time>2022-01-13T07:19:22Z</time>
      </trkpt>
      <trkpt lat="45.72508" lon="6.29497">
        <ele>596.8</ele>
        <time>2022-01-13T07:19:23Z</time>
      </trkpt>
      <trkpt lat="45.72501" lon="6.29508">
        <ele>596.8</ele>
        <time>2022-01-13T07:19:24Z</time>
      </trkpt>
      <trkpt lat="45.72494" lon="6.29521">
        <ele>595.7</ele>
        <time>2022-01-13T07:19:25Z</time>
      </trkpt>
      <trkpt lat="45.72488" lon="6.29533">
        <ele>595.7</ele>
        <time>2022-01-13T07:19:26Z</time>
      </trkpt>
      <trkpt lat="45.7248" lon="6.29543">
        <ele>593.8</ele>
        <time>2022-01-13T07:19:27Z</time>
      </trkpt>
      <trkpt lat="45.72472" lon="6.29552">
        <ele>593.8</ele>
        <time>2022-01-13T07:19:28Z</time>
      </trkpt>
      <trkpt lat="45.72463" lon="6.2956">
        <ele>591.8</ele>
        <time>2022-01-13T07:19:29Z</time>
      </trkpt>
      <trkpt lat="45.72455" lon="6.29568">
        <ele>591.8</ele>
        <time>2022-01-13T07:19:30Z</time>
      </trkpt>
      <trkpt lat="45.7245" lon="6.29577">
        <ele>590.7</ele>
        <time>2022-01-13T07:19:31Z</time>
      </trkpt>
      <trkpt lat="45.72448" lon="6.29588">
        <ele>590.7</ele>
        <time>2022-01-13T07:19:32Z</time>
      </trkpt>
      <trkpt lat="45.72449" lon="6.29599">
        <ele>589.8</ele>
        <time>2022-01-13T07:19:33Z</time>
      </trkpt>
      <trkpt lat="45.72454" lon="6.2961">
        <ele>589.8</ele>
        <time>2022-01-13T07:19:34Z</time>
      </trkpt>
      <trkpt lat="45.72462" lon="6.2962">
        <ele>587.8</ele>
        <time>2022-01-13T07:19:35Z</time>
      </trkpt>
      <trkpt lat="45.72471" lon="6.29629">
        <ele>587.8</ele>
        <time>2022-01-13T07:19:36Z</time>
      </trkpt>
      <trkpt lat="45.72481" lon="6.29639">
        <ele>586.7</ele>
        <time>2022-01-13T07:19:37Z</time>
      </trkpt>
      <trkpt lat="45.72492" lon="6.29648">
        <ele>586.7</ele>
        <time>2022-01-13T07:19:38Z</time>
      </trkpt>
      <trkpt lat="45.72503" lon="6.29658">
        <ele>585.8</ele>
        <time>2022-01-13T07:19:39Z</time>
      </trkpt>
      <trkpt lat="45.72513" lon="6.29668">
        <ele>585.8</ele>
        <time>2022-01-13T07:19:40Z</time>
      </trkpt>
      <trkpt lat="45.72523" lon="6.2968">
        <ele>583.7</ele>
        <time>2022-01-13T07:19:41Z</time>
      </trkpt>
      <trkpt lat="45.72532" lon="6.29692">
        <ele>583.7</ele>
        <time>2022-01-13T07:19:42Z</time>
      </trkpt>
      <trkpt lat="45.7254" lon="6.29705">
        <ele>581.7</ele>
        <time>2022-01-13T07:19:43Z</time>
      </trkpt>
      <trkpt lat="45.72548" lon="6.29717">
        <ele>581.7</ele>
        <time>2022-01-13T07:19:44Z</time>
      </trkpt>
      <trkpt lat="45.72555" lon="6.29729">
        <ele>578.8</ele>
        <time>2022-01-13T07:19:45Z</time>
      </trkpt>
      <trkpt lat="45.7256" lon="6.29742">
        <ele>578.8</ele>
        <time>2022-01-13T07:19:46Z</time>
      </trkpt>
      <trkpt lat="45.72564" lon="6.29755">
        <ele>575.8</ele>
        <time>2022-01-13T07:19:47Z</time>
      </trkpt>
      <trkpt lat="45.72567" lon="6.29768">
        <ele>575.8</ele>
        <time>2022-01-13T07:19:48Z</time>
      </trkpt>
      <trkpt lat="45.7257" lon="6.2978">
        <ele>574.7</ele>
        <time>2022-01-13T07:19:49Z</time>
      </trkpt>
      <trkpt lat="45.72572" lon="6.29792">
        <ele>574.7</ele>
        <time>2022-01-13T07:19:50Z</time>
      </trkpt>
      <trkpt lat="45.72574" lon="6.29804">
        <ele>573.8</ele>
        <time>2022-01-13T07:19:51Z</time>
      </trkpt>
      <trkpt lat="45.72577" lon="6.29816">
        <ele>573.8</ele>
        <time>2022-01-13T07:19:52Z</time>
      </trkpt>
      <trkpt lat="45.7258" lon="6.2983">
        <ele>573.8</ele>
        <time>2022-01-13T07:19:53Z</time>
      </trkpt>
      <trkpt lat="45.72582" lon="6.29845">
        <ele>573.8</ele>
        <time>2022-01-13T07:19:54Z</time>
      </trkpt>
      <trkpt lat="45.72585" lon="6.29858">
        <ele>573.8</ele>
        <time>2022-01-13T07:19:55Z</time>
      </trkpt>
      <trkpt lat="45.72588" lon="6.29872">
        <ele>573.8</ele>
        <time>2022-01-13T07:19:56Z</time>
      </trkpt>
      <trkpt lat="45.72589" lon="6.29886">
        <ele>573.8</ele>
        <time>2022-01-13T07:19:57Z</time>
      </trkpt>
      <trkpt lat="45.7259" lon="6.29899">
        <ele>573.8</ele>
        <time>2022-01-13T07:19:58Z</time>
      </trkpt>
      <trkpt lat="45.72589" lon="6.29911">
        <ele>569.8</ele>
        <time>2022-01-13T07:19:59Z</time>
      </trkpt>
      <trkpt lat="45.72587" lon="6.29922">
        <ele>569.8</ele>
        <time>2022-01-13T07:20:00Z</time>
      </trkpt>
      <trkpt lat="45.72586" lon="6.2993">
        <ele>569.8</ele>
        <time>2022-01-13T07:20:01Z</time>
      </trkpt>
      <trkpt lat="45.72585" lon="6.29936">
        <ele>569.8</ele>
        <time>2022-01-13T07:20:02Z</time>
      </trkpt>
      <trkpt lat="45.72585" lon="6.29938">
        <ele>568.8</ele>
        <time>2022-01-13T07:20:03Z</time>
      </trkpt>
      <trkpt lat="45.72585" lon="6.29941">
        <ele>568.8</ele>
        <time>2022-01-13T07:20:04Z</time>
      </trkpt>
      <trkpt lat="45.72586" lon="6.29946">
        <ele>568.8</ele>
        <time>2022-01-13T07:20:05Z</time>
      </trkpt>
      <trkpt lat="45.72587" lon="6.2995">
        <ele>568.8</ele>
        <time>2022-01-13T07:20:06Z</time>
      </trkpt>
      <trkpt lat="45.72589" lon="6.29954">
        <ele>568.8</ele>
        <time>2022-01-13T07:20:07Z</time>
      </trkpt>
      <trkpt lat="45.72593" lon="6.29958">
        <ele>568.8</ele>
        <time>2022-01-13T07:20:08Z</time>
      </trkpt>
      <trkpt lat="45.72597" lon="6.29961">
        <ele>568.8</ele>
        <time>2022-01-13T07:20:09Z</time>
      </trkpt>
      <trkpt lat="45.72602" lon="6.29963">
        <ele>568.8</ele>
        <time>2022-01-13T07:20:10Z</time>
      </trkpt>
      <trkpt lat="45.72607" lon="6.29965">
        <ele>568.8</ele>
        <time>2022-01-13T07:20:11Z</time>
      </trkpt>
      <trkpt lat="45.72612" lon="6.29965">
        <ele>568.8</ele>
        <time>2022-01-13T07:20:12Z</time>
      </trkpt>
      <trkpt lat="45.72618" lon="6.29964">
        <ele>568.8</ele>
        <time>2022-01-13T07:20:13Z</time>
      </trkpt>
      <trkpt lat="45.72623" lon="6.29964">
        <ele>568.8</ele>
        <time>2022-01-13T07:20:14Z</time>
      </trkpt>
      <trkpt lat="45.72626" lon="6.29965">
        <ele>567.7</ele>
        <time>2022-01-13T07:20:15Z</time>
      </trkpt>
      <trkpt lat="45.7263" lon="6.29966">
        <ele>567.7</ele>
        <time>2022-01-13T07:20:16Z</time>
      </trkpt>
      <trkpt lat="45.72634" lon="6.29969">
        <ele>567.7</ele>
        <time>2022-01-13T07:20:17Z</time>
      </trkpt>
      <trkpt lat="45.72637" lon="6.29971">
        <ele>567.7</ele>
        <time>2022-01-13T07:20:18Z</time>
      </trkpt>
      <trkpt lat="45.72639" lon="6.29978">
        <ele>566.8</ele>
        <time>2022-01-13T07:20:19Z</time>
      </trkpt>
      <trkpt lat="45.72641" lon="6.29986">
        <ele>566.8</ele>
        <time>2022-01-13T07:20:20Z</time>
      </trkpt>
      <trkpt lat="45.72643" lon="6.29995">
        <ele>565.7</ele>
        <time>2022-01-13T07:20:21Z</time>
      </trkpt>
      <trkpt lat="45.72643" lon="6.30005">
        <ele>565.7</ele>
        <time>2022-01-13T07:20:22Z</time>
      </trkpt>
      <trkpt lat="45.72642" lon="6.30015">
        <ele>565.7</ele>
        <time>2022-01-13T07:20:23Z</time>
      </trkpt>
      <trkpt lat="45.7264" lon="6.30025">
        <ele>565.7</ele>
        <time>2022-01-13T07:20:24Z</time>
      </trkpt>
      <trkpt lat="45.72636" lon="6.30036">
        <ele>565.7</ele>
        <time>2022-01-13T07:20:25Z</time>
      </trkpt>
      <trkpt lat="45.72631" lon="6.30048">
        <ele>565.7</ele>
        <time>2022-01-13T07:20:26Z</time>
      </trkpt>
      <trkpt lat="45.72626" lon="6.30061">
        <ele>560.8</ele>
        <time>2022-01-13T07:20:27Z</time>
      </trkpt>
      <trkpt lat="45.72622" lon="6.30075">
        <ele>560.8</ele>
        <time>2022-01-13T07:20:28Z</time>
      </trkpt>
      <trkpt lat="45.72618" lon="6.30089">
        <ele>559.8</ele>
        <time>2022-01-13T07:20:29Z</time>
      </trkpt>
      <trkpt lat="45.72615" lon="6.30104">
        <ele>559.8</ele>
        <time>2022-01-13T07:20:30Z</time>
      </trkpt>
      <trkpt lat="45.72613" lon="6.3012">
        <ele>558.7</ele>
        <time>2022-01-13T07:20:31Z</time>
      </trkpt>
      <trkpt lat="45.72613" lon="6.30135">
        <ele>558.7</ele>
        <time>2022-01-13T07:20:32Z</time>
      </trkpt>
      <trkpt lat="45.72614" lon="6.30152">
        <ele>556.7</ele>
        <time>2022-01-13T07:20:33Z</time>
      </trkpt>
      <trkpt lat="45.72616" lon="6.30168">
        <ele>556.7</ele>
        <time>2022-01-13T07:20:34Z</time>
      </trkpt>
      <trkpt lat="45.72619" lon="6.30185">
        <ele>554.7</ele>
        <time>2022-01-13T07:20:35Z</time>
      </trkpt>
      <trkpt lat="45.72621" lon="6.30201">
        <ele>554.7</ele>
        <time>2022-01-13T07:20:36Z</time>
      </trkpt>
      <trkpt lat="45.72623" lon="6.30216">
        <ele>552.8</ele>
        <time>2022-01-13T07:20:37Z</time>
      </trkpt>
      <trkpt lat="45.72623" lon="6.30231">
        <ele>552.8</ele>
        <time>2022-01-13T07:20:38Z</time>
      </trkpt>
      <trkpt lat="45.7262" lon="6.30244">
        <ele>549.7</ele>
        <time>2022-01-13T07:20:39Z</time>
      </trkpt>
      <trkpt lat="45.72616" lon="6.30257">
        <ele>549.7</ele>
        <time>2022-01-13T07:20:40Z</time>
      </trkpt>
      <trkpt lat="45.72608" lon="6.30274">
        <ele>547.7</ele>
        <time>2022-01-13T07:20:41Z</time>
      </trkpt>
      <trkpt lat="45.72599" lon="6.30289">
        <ele>547.7</ele>
        <time>2022-01-13T07:20:42Z</time>
      </trkpt>
      <trkpt lat="45.72593" lon="6.30301">
        <ele>544.8</ele>
        <time>2022-01-13T07:20:43Z</time>
      </trkpt>
      <trkpt lat="45.72582" lon="6.30319">
        <ele>544.8</ele>
        <time>2022-01-13T07:20:44Z</time>
      </trkpt>
      <trkpt lat="45.72575" lon="6.30332">
        <ele>542.7</ele>
        <time>2022-01-13T07:20:45Z</time>
      </trkpt>
      <trkpt lat="45.72565" lon="6.30346">
        <ele>542.7</ele>
        <time>2022-01-13T07:20:46Z</time>
      </trkpt>
      <trkpt lat="45.72554" lon="6.30359">
        <ele>538.7</ele>
        <time>2022-01-13T07:20:47Z</time>
      </trkpt>
      <trkpt lat="45.72544" lon="6.3037">
        <ele>538.7</ele>
        <time>2022-01-13T07:20:48Z</time>
      </trkpt>
      <trkpt lat="45.72532" lon="6.30379">
        <ele>535.7</ele>
        <time>2022-01-13T07:20:49Z</time>
      </trkpt>
      <trkpt lat="45.72521" lon="6.30385">
        <ele>535.7</ele>
        <time>2022-01-13T07:20:50Z</time>
      </trkpt>
      <trkpt lat="45.72511" lon="6.30388">
        <ele>533.7</ele>
        <time>2022-01-13T07:20:51Z</time>
      </trkpt>
      <trkpt lat="45.72502" lon="6.30393">
        <ele>533.7</ele>
        <time>2022-01-13T07:20:52Z</time>
      </trkpt>
      <trkpt lat="45.72494" lon="6.30398">
        <ele>531.7</ele>
        <time>2022-01-13T07:20:53Z</time>
      </trkpt>
      <trkpt lat="45.72488" lon="6.30404">
        <ele>531.7</ele>
        <time>2022-01-13T07:20:54Z</time>
      </trkpt>
      <trkpt lat="45.72484" lon="6.30414">
        <ele>529.7</ele>
        <time>2022-01-13T07:20:55Z</time>
      </trkpt>
      <trkpt lat="45.72484" lon="6.3042">
        <ele>529.7</ele>
        <time>2022-01-13T07:20:56Z</time>
      </trkpt>
      <trkpt lat="45.72486" lon="6.30428">
        <ele>528.8</ele>
        <time>2022-01-13T07:20:57Z</time>
      </trkpt>
      <trkpt lat="45.72491" lon="6.30436">
        <ele>528.8</ele>
        <time>2022-01-13T07:20:58Z</time>
      </trkpt>
      <trkpt lat="45.72497" lon="6.30443">
        <ele>528.8</ele>
        <time>2022-01-13T07:20:59Z</time>
      </trkpt>
      <trkpt lat="45.72505" lon="6.30449">
        <ele>528.8</ele>
        <time>2022-01-13T07:21:00Z</time>
      </trkpt>
      <trkpt lat="45.72515" lon="6.30451">
        <ele>528.8</ele>
        <time>2022-01-13T07:21:01Z</time>
      </trkpt>
      <trkpt lat="45.72525" lon="6.3045">
        <ele>528.8</ele>
        <time>2022-01-13T07:21:02Z</time>
      </trkpt>
      <trkpt lat="45.72539" lon="6.30447">
        <ele>523.8</ele>
        <time>2022-01-13T07:21:03Z</time>
      </trkpt>
      <trkpt lat="45.72549" lon="6.30443">
        <ele>523.8</ele>
        <time>2022-01-13T07:21:04Z</time>
      </trkpt>
      <trkpt lat="45.72562" lon="6.30438">
        <ele>520.8</ele>
        <time>2022-01-13T07:21:05Z</time>
      </trkpt>
      <trkpt lat="45.72577" lon="6.30432">
        <ele>520.8</ele>
        <time>2022-01-13T07:21:06Z</time>
      </trkpt>
      <trkpt lat="45.72588" lon="6.3043">
        <ele>517.7</ele>
        <time>2022-01-13T07:21:07Z</time>
      </trkpt>
      <trkpt lat="45.72602" lon="6.30428">
        <ele>517.7</ele>
        <time>2022-01-13T07:21:08Z</time>
      </trkpt>
      <trkpt lat="45.72617" lon="6.30427">
        <ele>514.8</ele>
        <time>2022-01-13T07:21:09Z</time>
      </trkpt>
      <trkpt lat="45.72633" lon="6.30427">
        <ele>514.8</ele>
        <time>2022-01-13T07:21:10Z</time>
      </trkpt>
      <trkpt lat="45.72648" lon="6.30426">
        <ele>510.7</ele>
        <time>2022-01-13T07:21:11Z</time>
      </trkpt>
      <trkpt lat="45.72664" lon="6.30426">
        <ele>510.7</ele>
        <time>2022-01-13T07:21:12Z</time>
      </trkpt>
      <trkpt lat="45.7268" lon="6.30426">
        <ele>507.8</ele>
        <time>2022-01-13T07:21:13Z</time>
      </trkpt>
      <trkpt lat="45.72695" lon="6.30425">
        <ele>507.8</ele>
        <time>2022-01-13T07:21:14Z</time>
      </trkpt>
      <trkpt lat="45.7271" lon="6.30423">
        <ele>504.8</ele>
        <time>2022-01-13T07:21:15Z</time>
      </trkpt>
      <trkpt lat="45.72722" lon="6.30418">
        <ele>504.8</ele>
        <time>2022-01-13T07:21:16Z</time>
      </trkpt>
      <trkpt lat="45.72735" lon="6.3041">
        <ele>501.7</ele>
        <time>2022-01-13T07:21:17Z</time>
      </trkpt>
      <trkpt lat="45.72747" lon="6.30399">
        <ele>501.7</ele>
        <time>2022-01-13T07:21:18Z</time>
      </trkpt>
      <trkpt lat="45.7276" lon="6.3039">
        <ele>499.7</ele>
        <time>2022-01-13T07:21:19Z</time>
      </trkpt>
      <trkpt lat="45.72774" lon="6.30379">
        <ele>499.7</ele>
        <time>2022-01-13T07:21:20Z</time>
      </trkpt>
      <trkpt lat="45.7279" lon="6.30368">
        <ele>496.8</ele>
        <time>2022-01-13T07:21:21Z</time>
      </trkpt>
      <trkpt lat="45.72807" lon="6.30358">
        <ele>496.8</ele>
        <time>2022-01-13T07:21:22Z</time>
      </trkpt>
      <trkpt lat="45.72825" lon="6.30347">
        <ele>492.7</ele>
        <time>2022-01-13T07:21:23Z</time>
      </trkpt>
      <trkpt lat="45.72842" lon="6.30336">
        <ele>492.7</ele>
        <time>2022-01-13T07:21:24Z</time>
      </trkpt>
      <trkpt lat="45.72859" lon="6.30325">
        <ele>492.7</ele>
        <time>2022-01-13T07:21:25Z</time>
      </trkpt>
      <trkpt lat="45.72877" lon="6.30314">
        <ele>492.7</ele>
        <time>2022-01-13T07:21:26Z</time>
      </trkpt>
      <trkpt lat="45.72896" lon="6.30302">
        <ele>484.8</ele>
        <time>2022-01-13T07:21:27Z</time>
      </trkpt>
      <trkpt lat="45.72915" lon="6.3029">
        <ele>484.8</ele>
        <time>2022-01-13T07:21:28Z</time>
      </trkpt>
      <trkpt lat="45.72932" lon="6.30277">
        <ele>479.8</ele>
        <time>2022-01-13T07:21:29Z</time>
      </trkpt>
      <trkpt lat="45.7295" lon="6.30264">
        <ele>479.8</ele>
        <time>2022-01-13T07:21:30Z</time>
      </trkpt>
      <trkpt lat="45.72968" lon="6.30252">
        <ele>474.7</ele>
        <time>2022-01-13T07:21:31Z</time>
      </trkpt>
      <trkpt lat="45.72985" lon="6.30239">
        <ele>474.7</ele>
        <time>2022-01-13T07:21:32Z</time>
      </trkpt>
      <trkpt lat="45.73" lon="6.30227">
        <ele>469.7</ele>
        <time>2022-01-13T07:21:33Z</time>
      </trkpt>
      <trkpt lat="45.73015" lon="6.30217">
        <ele>469.7</ele>
        <time>2022-01-13T07:21:34Z</time>
      </trkpt>
      <trkpt lat="45.73028" lon="6.30207">
        <ele>465.7</ele>
        <time>2022-01-13T07:21:35Z</time>
      </trkpt>
      <trkpt lat="45.73041" lon="6.30198">
        <ele>465.7</ele>
        <time>2022-01-13T07:21:36Z</time>
      </trkpt>
      <trkpt lat="45.73052" lon="6.30189">
        <ele>461.8</ele>
        <time>2022-01-13T07:21:37Z</time>
      </trkpt>
      <trkpt lat="45.73063" lon="6.3018">
        <ele>461.8</ele>
        <time>2022-01-13T07:21:38Z</time>
      </trkpt>
      <trkpt lat="45.73073" lon="6.30168">
        <ele>458.7</ele>
        <time>2022-01-13T07:21:39Z</time>
      </trkpt>
      <trkpt lat="45.73082" lon="6.30155">
        <ele>458.7</ele>
        <time>2022-01-13T07:21:40Z</time>
      </trkpt>
      <trkpt lat="45.73091" lon="6.30144">
        <ele>455.8</ele>
        <time>2022-01-13T07:21:41Z</time>
      </trkpt>
      <trkpt lat="45.73101" lon="6.30133">
        <ele>455.8</ele>
        <time>2022-01-13T07:21:42Z</time>
      </trkpt>
      <trkpt lat="45.7311" lon="6.30124">
        <ele>452.8</ele>
        <time>2022-01-13T07:21:43Z</time>
      </trkpt>
      <trkpt lat="45.73119" lon="6.30117">
        <ele>452.8</ele>
        <time>2022-01-13T07:21:44Z</time>
      </trkpt>
      <trkpt lat="45.73128" lon="6.3011">
        <ele>449.7</ele>
        <time>2022-01-13T07:21:45Z</time>
      </trkpt>
      <trkpt lat="45.73136" lon="6.30101">
        <ele>449.7</ele>
        <time>2022-01-13T07:21:46Z</time>
      </trkpt>
      <trkpt lat="45.73142" lon="6.30093">
        <ele>447.8</ele>
        <time>2022-01-13T07:21:47Z</time>
      </trkpt>
      <trkpt lat="45.73146" lon="6.30082">
        <ele>447.8</ele>
        <time>2022-01-13T07:21:48Z</time>
      </trkpt>
      <trkpt lat="45.73148" lon="6.3007">
        <ele>445.8</ele>
        <time>2022-01-13T07:21:49Z</time>
      </trkpt>
      <trkpt lat="45.73148" lon="6.30057">
        <ele>445.8</ele>
        <time>2022-01-13T07:21:50Z</time>
      </trkpt>
      <trkpt lat="45.73148" lon="6.30043">
        <ele>443.8</ele>
        <time>2022-01-13T07:21:51Z</time>
      </trkpt>
      <trkpt lat="45.73147" lon="6.30028">
        <ele>443.8</ele>
        <time>2022-01-13T07:21:52Z</time>
      </trkpt>
      <trkpt lat="45.73147" lon="6.30013">
        <ele>440.7</ele>
        <time>2022-01-13T07:21:53Z</time>
      </trkpt>
      <trkpt lat="45.73149" lon="6.29997">
        <ele>440.7</ele>
        <time>2022-01-13T07:21:54Z</time>
      </trkpt>
      <trkpt lat="45.73153" lon="6.29984">
        <ele>438.8</ele>
        <time>2022-01-13T07:21:55Z</time>
      </trkpt>
      <trkpt lat="45.73158" lon="6.29971">
        <ele>438.8</ele>
        <time>2022-01-13T07:21:56Z</time>
      </trkpt>
      <trkpt lat="45.73165" lon="6.29961">
        <ele>435.7</ele>
        <time>2022-01-13T07:21:57Z</time>
      </trkpt>
      <trkpt lat="45.73172" lon="6.2995">
        <ele>435.7</ele>
        <time>2022-01-13T07:21:58Z</time>
      </trkpt>
      <trkpt lat="45.7318" lon="6.2994">
        <ele>432.8</ele>
        <time>2022-01-13T07:21:59Z</time>
      </trkpt>
      <trkpt lat="45.73188" lon="6.29928">
        <ele>432.8</ele>
        <time>2022-01-13T07:22:00Z</time>
      </trkpt>
      <trkpt lat="45.73197" lon="6.29917">
        <ele>432.8</ele>
        <time>2022-01-13T07:22:01Z</time>
      </trkpt>
      <trkpt lat="45.73205" lon="6.29908">
        <ele>432.8</ele>
        <time>2022-01-13T07:22:02Z</time>
      </trkpt>
      <trkpt lat="45.73213" lon="6.299">
        <ele>432.8</ele>
        <time>2022-01-13T07:22:03Z</time>
      </trkpt>
      <trkpt lat="45.73221" lon="6.29895">
        <ele>432.8</ele>
        <time>2022-01-13T07:22:04Z</time>
      </trkpt>
      <trkpt lat="45.73228" lon="6.29892">
        <ele>425.8</ele>
        <time>2022-01-13T07:22:05Z</time>
      </trkpt>
      <trkpt lat="45.73236" lon="6.2989">
        <ele>425.8</ele>
        <time>2022-01-13T07:22:06Z</time>
      </trkpt>
      <trkpt lat="45.73242" lon="6.29891">
        <ele>423.8</ele>
        <time>2022-01-13T07:22:07Z</time>
      </trkpt>
      <trkpt lat="45.73251" lon="6.29894">
        <ele>423.8</ele>
        <time>2022-01-13T07:22:08Z</time>
      </trkpt>
      <trkpt lat="45.7326" lon="6.29899">
        <ele>420.8</ele>
        <time>2022-01-13T07:22:09Z</time>
      </trkpt>
      <trkpt lat="45.7327" lon="6.29904">
        <ele>420.8</ele>
        <time>2022-01-13T07:22:10Z</time>
      </trkpt>
      <trkpt lat="45.73281" lon="6.2991">
        <ele>418.8</ele>
        <time>2022-01-13T07:22:11Z</time>
      </trkpt>
      <trkpt lat="45.73292" lon="6.29917">
        <ele>418.8</ele>
        <time>2022-01-13T07:22:12Z</time>
      </trkpt>
      <trkpt lat="45.73303" lon="6.29923">
        <ele>415.8</ele>
        <time>2022-01-13T07:22:13Z</time>
      </trkpt>
      <trkpt lat="45.73313" lon="6.29931">
        <ele>415.8</ele>
        <time>2022-01-13T07:22:14Z</time>
      </trkpt>
      <trkpt lat="45.73324" lon="6.2994">
        <ele>412.7</ele>
        <time>2022-01-13T07:22:15Z</time>
      </trkpt>
      <trkpt lat="45.73333" lon="6.29949">
        <ele>412.7</ele>
        <time>2022-01-13T07:22:16Z</time>
      </trkpt>
      <trkpt lat="45.73341" lon="6.29959">
        <ele>408.7</ele>
        <time>2022-01-13T07:22:17Z</time>
      </trkpt>
      <trkpt lat="45.73348" lon="6.2997">
        <ele>408.7</ele>
        <time>2022-01-13T07:22:18Z</time>
      </trkpt>
      <trkpt lat="45.73354" lon="6.29981">
        <ele>406.8</ele>
        <time>2022-01-13T07:22:19Z</time>
      </trkpt>
      <trkpt lat="45.73359" lon="6.29991">
        <ele>406.8</ele>
        <time>2022-01-13T07:22:20Z</time>
      </trkpt>
      <trkpt lat="45.73366" lon="6.30001">
        <ele>404.8</ele>
        <time>2022-01-13T07:22:21Z</time>
      </trkpt>
      <trkpt lat="45.73374" lon="6.30008">
        <ele>404.8</ele>
        <time>2022-01-13T07:22:22Z</time>
      </trkpt>
      <trkpt lat="45.73382" lon="6.30015">
        <ele>404.8</ele>
        <time>2022-01-13T07:22:23Z</time>
      </trkpt>
      <trkpt lat="45.7339" lon="6.3002">
        <ele>404.8</ele>
        <time>2022-01-13T07:22:24Z</time>
      </trkpt>
      <trkpt lat="45.734" lon="6.30026">
        <ele>404.8</ele>
        <time>2022-01-13T07:22:25Z</time>
      </trkpt>
      <trkpt lat="45.7341" lon="6.30032">
        <ele>404.8</ele>
        <time>2022-01-13T07:22:26Z</time>
      </trkpt>
      <trkpt lat="45.73421" lon="6.30036">
        <ele>397.8</ele>
        <time>2022-01-13T07:22:27Z</time>
      </trkpt>
      <trkpt lat="45.73431" lon="6.30041">
        <ele>397.8</ele>
        <time>2022-01-13T07:22:28Z</time>
      </trkpt>
      <trkpt lat="45.7344" lon="6.30046">
        <ele>394.7</ele>
        <time>2022-01-13T07:22:29Z</time>
      </trkpt>
      <trkpt lat="45.73448" lon="6.30051">
        <ele>394.7</ele>
        <time>2022-01-13T07:22:30Z</time>
      </trkpt>
      <trkpt lat="45.73456" lon="6.30057">
        <ele>392.7</ele>
        <time>2022-01-13T07:22:31Z</time>
      </trkpt>
      <trkpt lat="45.73465" lon="6.30061">
        <ele>392.7</ele>
        <time>2022-01-13T07:22:32Z</time>
      </trkpt>
      <trkpt lat="45.73474" lon="6.30064">
        <ele>389.7</ele>
        <time>2022-01-13T07:22:33Z</time>
      </trkpt>
      <trkpt lat="45.73483" lon="6.30063">
        <ele>389.7</ele>
        <time>2022-01-13T07:22:34Z</time>
      </trkpt>
      <trkpt lat="45.73491" lon="6.3006">
        <ele>387.7</ele>
        <time>2022-01-13T07:22:35Z</time>
      </trkpt>
      <trkpt lat="45.73499" lon="6.30053">
        <ele>387.7</ele>
        <time>2022-01-13T07:22:36Z</time>
      </trkpt>
      <trkpt lat="45.73507" lon="6.30044">
        <ele>385.7</ele>
        <time>2022-01-13T07:22:37Z</time>
      </trkpt>
      <trkpt lat="45.73515" lon="6.30034">
        <ele>385.7</ele>
        <time>2022-01-13T07:22:38Z</time>
      </trkpt>
      <trkpt lat="45.73523" lon="6.30024">
        <ele>382.8</ele>
        <time>2022-01-13T07:22:39Z</time>
      </trkpt>
      <trkpt lat="45.73533" lon="6.30015">
        <ele>382.8</ele>
        <time>2022-01-13T07:22:40Z</time>
      </trkpt>
      <trkpt lat="45.73543" lon="6.30009">
        <ele>380.7</ele>
        <time>2022-01-13T07:22:41Z</time>
      </trkpt>
      <trkpt lat="45.73554" lon="6.30005">
        <ele>380.7</ele>
        <time>2022-01-13T07:22:42Z</time>
      </trkpt>
      <trkpt lat="45.73565" lon="6.30003">
        <ele>377.8</ele>
        <time>2022-01-13T07:22:43Z</time>
      </trkpt>
      <trkpt lat="45.73577" lon="6.30003">
        <ele>377.8</ele>
        <time>2022-01-13T07:22:44Z</time>
      </trkpt>
      <trkpt lat="45.73589" lon="6.30003">
        <ele>375.8</ele>
        <time>2022-01-13T07:22:45Z</time>
      </trkpt>
      <trkpt lat="45.73601" lon="6.30004">
        <ele>375.8</ele>
        <time>2022-01-13T07:22:46Z</time>
      </trkpt>
      <trkpt lat="45.73613" lon="6.30006">
        <ele>373.7</ele>
        <time>2022-01-13T07:22:47Z</time>
      </trkpt>
      <trkpt lat="45.73623" lon="6.30007">
        <ele>373.7</ele>
        <time>2022-01-13T07:22:48Z</time>
      </trkpt>
      <trkpt lat="45.73632" lon="6.30007">
        <ele>370.8</ele>
        <time>2022-01-13T07:22:49Z</time>
      </trkpt>
      <trkpt lat="45.7364" lon="6.30009">
        <ele>370.8</ele>
        <time>2022-01-13T07:22:50Z</time>
      </trkpt>
      <trkpt lat="45.73649" lon="6.3001">
        <ele>369.7</ele>
        <time>2022-01-13T07:22:51Z</time>
      </trkpt>
      <trkpt lat="45.73657" lon="6.30012">
        <ele>369.7</ele>
        <time>2022-01-13T07:22:52Z</time>
      </trkpt>
      <trkpt lat="45.73666" lon="6.30014">
        <ele>367.7</ele>
        <time>2022-01-13T07:22:53Z</time>
      </trkpt>
      <trkpt lat="45.73674" lon="6.30018">
        <ele>367.7</ele>
        <time>2022-01-13T07:22:54Z</time>
      </trkpt>
      <trkpt lat="45.73682" lon="6.30022">
        <ele>366.8</ele>
        <time>2022-01-13T07:22:55Z</time>
      </trkpt>
      <trkpt lat="45.7369" lon="6.30029">
        <ele>366.8</ele>
        <time>2022-01-13T07:22:56Z</time>
      </trkpt>
      <trkpt lat="45.73699" lon="6.30034">
        <ele>365.8</ele>
        <time>2022-01-13T07:22:57Z</time>
      </trkpt>
      <trkpt lat="45.73709" lon="6.30038">
        <ele>365.8</ele>
        <time>2022-01-13T07:22:58Z</time>
      </trkpt>
      <trkpt lat="45.73718" lon="6.3004">
        <ele>365.8</ele>
        <time>2022-01-13T07:22:59Z</time>
      </trkpt>
      <trkpt lat="45.73728" lon="6.3004">
        <ele>365.8</ele>
        <time>2022-01-13T07:23:00Z</time>
      </trkpt>
      <trkpt lat="45.73738" lon="6.30037">
        <ele>365.8</ele>
        <time>2022-01-13T07:23:01Z</time>
      </trkpt>
      <trkpt lat="45.73748" lon="6.30032">
        <ele>365.8</ele>
        <time>2022-01-13T07:23:02Z</time>
      </trkpt>
      <trkpt lat="45.73758" lon="6.30022">
        <ele>365.8</ele>
        <time>2022-01-13T07:23:03Z</time>
      </trkpt>
      <trkpt lat="45.73768" lon="6.30013">
        <ele>365.8</ele>
        <time>2022-01-13T07:23:04Z</time>
      </trkpt>
      <trkpt lat="45.73777" lon="6.30003">
        <ele>365.8</ele>
        <time>2022-01-13T07:23:05Z</time>
      </trkpt>
      <trkpt lat="45.73786" lon="6.29994">
        <ele>365.8</ele>
        <time>2022-01-13T07:23:06Z</time>
      </trkpt>
      <trkpt lat="45.73795" lon="6.29985">
        <ele>368.8</ele>
        <time>2022-01-13T07:23:07Z</time>
      </trkpt>
      <trkpt lat="45.73804" lon="6.29976">
        <ele>368.8</ele>
        <time>2022-01-13T07:23:08Z</time>
      </trkpt>
      <trkpt lat="45.73814" lon="6.29967">
        <ele>370.8</ele>
        <time>2022-01-13T07:23:09Z</time>
      </trkpt>
      <trkpt lat="45.73824" lon="6.29958">
        <ele>370.8</ele>
        <time>2022-01-13T07:23:10Z</time>
      </trkpt>
      <trkpt lat="45.73836" lon="6.29949">
        <ele>371.7</ele>
        <time>2022-01-13T07:23:11Z</time>
      </trkpt>
      <trkpt lat="45.73847" lon="6.2994">
        <ele>371.7</ele>
        <time>2022-01-13T07:23:12Z</time>
      </trkpt>
      <trkpt lat="45.73859" lon="6.29931">
        <ele>373.7</ele>
        <time>2022-01-13T07:23:13Z</time>
      </trkpt>
      <trkpt lat="45.7387" lon="6.29921">
        <ele>373.7</ele>
        <time>2022-01-13T07:23:14Z</time>
      </trkpt>
      <trkpt lat="45.73881" lon="6.29911">
        <ele>375.8</ele>
        <time>2022-01-13T07:23:15Z</time>
      </trkpt>
      <trkpt lat="45.73891" lon="6.29901">
        <ele>375.8</ele>
        <time>2022-01-13T07:23:16Z</time>
      </trkpt>
      <trkpt lat="45.739" lon="6.2989">
        <ele>377.8</ele>
        <time>2022-01-13T07:23:17Z</time>
      </trkpt>
      <trkpt lat="45.7391" lon="6.2988">
        <ele>377.8</ele>
        <time>2022-01-13T07:23:18Z</time>
      </trkpt>
      <trkpt lat="45.73919" lon="6.29869">
        <ele>377.8</ele>
        <time>2022-01-13T07:23:19Z</time>
      </trkpt>
      <trkpt lat="45.73928" lon="6.29857">
        <ele>377.8</ele>
        <time>2022-01-13T07:23:20Z</time>
      </trkpt>
      <trkpt lat="45.73938" lon="6.29846">
        <ele>379.8</ele>
        <time>2022-01-13T07:23:21Z</time>
      </trkpt>
      <trkpt lat="45.73947" lon="6.29835">
        <ele>379.8</ele>
        <time>2022-01-13T07:23:22Z</time>
      </trkpt>
      <trkpt lat="45.73956" lon="6.29826">
        <ele>380.7</ele>
        <time>2022-01-13T07:23:23Z</time>
      </trkpt>
      <trkpt lat="45.73965" lon="6.29817">
        <ele>380.7</ele>
        <time>2022-01-13T07:23:24Z</time>
      </trkpt>
      <trkpt lat="45.73974" lon="6.29808">
        <ele>381.8</ele>
        <time>2022-01-13T07:23:25Z</time>
      </trkpt>
      <trkpt lat="45.73983" lon="6.29801">
        <ele>381.8</ele>
        <time>2022-01-13T07:23:26Z</time>
      </trkpt>
      <trkpt lat="45.73993" lon="6.29795">
        <ele>382.8</ele>
        <time>2022-01-13T07:23:27Z</time>
      </trkpt>
      <trkpt lat="45.74003" lon="6.29789">
        <ele>382.8</ele>
        <time>2022-01-13T07:23:28Z</time>
      </trkpt>
      <trkpt lat="45.74013" lon="6.29786">
        <ele>382.8</ele>
        <time>2022-01-13T07:23:29Z</time>
      </trkpt>
      <trkpt lat="45.74024" lon="6.2978">
        <ele>382.8</ele>
        <time>2022-01-13T07:23:30Z</time>
      </trkpt>
      <trkpt lat="45.74035" lon="6.29773">
        <ele>382.8</ele>
        <time>2022-01-13T07:23:31Z</time>
      </trkpt>
      <trkpt lat="45.74045" lon="6.29764">
        <ele>382.8</ele>
        <time>2022-01-13T07:23:32Z</time>
      </trkpt>
      <trkpt lat="45.74057" lon="6.29755">
        <ele>381.8</ele>
        <time>2022-01-13T07:23:33Z</time>
      </trkpt>
      <trkpt lat="45.74068" lon="6.29746">
        <ele>381.8</ele>
        <time>2022-01-13T07:23:34Z</time>
      </trkpt>
      <trkpt lat="45.7408" lon="6.29738">
        <ele>381.8</ele>
        <time>2022-01-13T07:23:35Z</time>
      </trkpt>
      <trkpt lat="45.74092" lon="6.2973">
        <ele>381.8</ele>
        <time>2022-01-13T07:23:36Z</time>
      </trkpt>
      <trkpt lat="45.74104" lon="6.29723">
        <ele>381.8</ele>
        <time>2022-01-13T07:23:37Z</time>
      </trkpt>
      <trkpt lat="45.74116" lon="6.29717">
        <ele>381.8</ele>
        <time>2022-01-13T07:23:38Z</time>
      </trkpt>
      <trkpt lat="45.74127" lon="6.2971">
        <ele>378.7</ele>
        <time>2022-01-13T07:23:39Z</time>
      </trkpt>
      <trkpt lat="45.74137" lon="6.29705">
        <ele>378.7</ele>
        <time>2022-01-13T07:23:40Z</time>
      </trkpt>
      <trkpt lat="45.74147" lon="6.297">
        <ele>378.7</ele>
        <time>2022-01-13T07:23:41Z</time>
      </trkpt>
      <trkpt lat="45.74154" lon="6.29696">
        <ele>378.7</ele>
        <time>2022-01-13T07:23:42Z</time>
      </trkpt>
      <trkpt lat="45.74161" lon="6.29691">
        <ele>377.8</ele>
        <time>2022-01-13T07:23:43Z</time>
      </trkpt>
      <trkpt lat="45.74166" lon="6.29688">
        <ele>377.8</ele>
        <time>2022-01-13T07:23:44Z</time>
      </trkpt>
      <trkpt lat="45.74169" lon="6.29686">
        <ele>377.8</ele>
        <time>2022-01-13T07:23:45Z</time>
      </trkpt>
      <trkpt lat="45.74171" lon="6.29684">
        <ele>377.8</ele>
        <time>2022-01-13T07:23:46Z</time>
      </trkpt>
      <trkpt lat="45.74172" lon="6.29683">
        <ele>377.8</ele>
        <time>2022-01-13T07:23:47Z</time>
      </trkpt>
      <trkpt lat="45.74173" lon="6.29682">
        <ele>377.8</ele>
        <time>2022-01-13T07:23:48Z</time>
      </trkpt>
      <trkpt lat="45.74174" lon="6.29681">
        <ele>377.8</ele>
        <time>2022-01-13T07:23:49Z</time>
      </trkpt>
      <trkpt lat="45.74174" lon="6.29681">
        <ele>377.8</ele>
        <time>2022-01-13T07:23:50Z</time>
      </trkpt>
      <trkpt lat="45.74175" lon="6.2968">
        <ele>379.8</ele>
        <time>2022-01-13T07:23:51Z</time>
      </trkpt>
      <trkpt lat="45.74175" lon="6.29679">
        <ele>379.8</ele>
        <time>2022-01-13T07:23:52Z</time>
      </trkpt>
      <trkpt lat="45.74175" lon="6.29679">
        <ele>380.7</ele>
        <time>2022-01-13T07:23:53Z</time>
      </trkpt>
      <trkpt lat="45.74175" lon="6.29679">
        <ele>380.7</ele>
        <time>2022-01-13T07:23:54Z</time>
      </trkpt>
      <trkpt lat="45.74175" lon="6.29679">
        <ele>380.7</ele>
        <time>2022-01-13T07:23:55Z</time>
      </trkpt>
      <trkpt lat="45.74175" lon="6.29678">
        <ele>380.7</ele>
        <time>2022-01-13T07:23:56Z</time>
      </trkpt>
      <trkpt lat="45.74176" lon="6.29676">
        <ele>382.8</ele>
        <time>2022-01-13T07:23:57Z</time>
      </trkpt>
      <trkpt lat="45.74178" lon="6.29673">
        <ele>382.8</ele>
        <time>2022-01-13T07:23:58Z</time>
      </trkpt>
      <trkpt lat="45.74179" lon="6.29667">
        <ele>382.8</ele>
        <time>2022-01-13T07:23:59Z</time>
      </trkpt>
      <trkpt lat="45.7418" lon="6.29659">
        <ele>382.8</ele>
        <time>2022-01-13T07:24:00Z</time>
      </trkpt>
      <trkpt lat="45.7418" lon="6.29649">
        <ele>382.8</ele>
        <time>2022-01-13T07:24:01Z</time>
      </trkpt>
      <trkpt lat="45.74181" lon="6.29638">
        <ele>382.8</ele>
        <time>2022-01-13T07:24:02Z</time>
      </trkpt>
      <trkpt lat="45.74181" lon="6.29625">
        <ele>379.8</ele>
        <time>2022-01-13T07:24:03Z</time>
      </trkpt>
      <trkpt lat="45.74181" lon="6.29611">
        <ele>379.8</ele>
        <time>2022-01-13T07:24:04Z</time>
      </trkpt>
      <trkpt lat="45.74182" lon="6.29593">
        <ele>378.7</ele>
        <time>2022-01-13T07:24:05Z</time>
      </trkpt>
      <trkpt lat="45.74182" lon="6.29579">
        <ele>378.7</ele>
        <time>2022-01-13T07:24:06Z</time>
      </trkpt>
      <trkpt lat="45.74183" lon="6.29558">
        <ele>378.7</ele>
        <time>2022-01-13T07:24:07Z</time>
      </trkpt>
      <trkpt lat="45.74184" lon="6.29541">
        <ele>378.7</ele>
        <time>2022-01-13T07:24:08Z</time>
      </trkpt>
      <trkpt lat="45.74184" lon="6.29524">
        <ele>378.7</ele>
        <time>2022-01-13T07:24:09Z</time>
      </trkpt>
      <trkpt lat="45.74183" lon="6.29508">
        <ele>378.7</ele>
        <time>2022-01-13T07:24:10Z</time>
      </trkpt>
      <trkpt lat="45.74181" lon="6.29495">
        <ele>373.7</ele>
        <time>2022-01-13T07:24:11Z</time>
      </trkpt>
      <trkpt lat="45.74178" lon="6.29479">
        <ele>373.7</ele>
        <time>2022-01-13T07:24:12Z</time>
      </trkpt>
      <trkpt lat="45.74174" lon="6.2946">
        <ele>371.7</ele>
        <time>2022-01-13T07:24:13Z</time>
      </trkpt>
      <trkpt lat="45.74172" lon="6.29443">
        <ele>371.7</ele>
        <time>2022-01-13T07:24:14Z</time>
      </trkpt>
      <trkpt lat="45.74172" lon="6.2943">
        <ele>370.8</ele>
        <time>2022-01-13T07:24:15Z</time>
      </trkpt>
      <trkpt lat="45.74173" lon="6.29411">
        <ele>370.8</ele>
        <time>2022-01-13T07:24:16Z</time>
      </trkpt>
      <trkpt lat="45.74176" lon="6.29399">
        <ele>368.8</ele>
        <time>2022-01-13T07:24:17Z</time>
      </trkpt>
      <trkpt lat="45.74182" lon="6.29385">
        <ele>368.8</ele>
        <time>2022-01-13T07:24:18Z</time>
      </trkpt>
      <trkpt lat="45.74189" lon="6.29375">
        <ele>366.8</ele>
        <time>2022-01-13T07:24:19Z</time>
      </trkpt>
      <trkpt lat="45.74198" lon="6.29369">
        <ele>366.8</ele>
        <time>2022-01-13T07:24:20Z</time>
      </trkpt>
      <trkpt lat="45.7421" lon="6.29369">
        <ele>364.7</ele>
        <time>2022-01-13T07:24:21Z</time>
      </trkpt>
      <trkpt lat="45.7422" lon="6.29371">
        <ele>364.7</ele>
        <time>2022-01-13T07:24:22Z</time>
      </trkpt>
      <trkpt lat="45.7423" lon="6.29378">
        <ele>362.7</ele>
        <time>2022-01-13T07:24:23Z</time>
      </trkpt>
      <trkpt lat="45.74239" lon="6.29389">
        <ele>362.7</ele>
        <time>2022-01-13T07:24:24Z</time>
      </trkpt>
      <trkpt lat="45.74247" lon="6.29402">
        <ele>361.8</ele>
        <time>2022-01-13T07:24:25Z</time>
      </trkpt>
      <trkpt lat="45.74256" lon="6.29415">
        <ele>361.8</ele>
        <time>2022-01-13T07:24:26Z</time>
      </trkpt>
      <trkpt lat="45.74263" lon="6.29431">
        <ele>359.8</ele>
        <time>2022-01-13T07:24:27Z</time>
      </trkpt>
      <trkpt lat="45.7427" lon="6.29447">
        <ele>359.8</ele>
        <time>2022-01-13T07:24:28Z</time>
      </trkpt>
      <trkpt lat="45.74277" lon="6.29464">
        <ele>357.7</ele>
        <time>2022-01-13T07:24:29Z</time>
      </trkpt>
      <trkpt lat="45.74284" lon="6.29479">
        <ele>357.7</ele>
        <time>2022-01-13T07:24:30Z</time>
      </trkpt>
      <trkpt lat="45.74293" lon="6.29493">
        <ele>356.8</ele>
        <time>2022-01-13T07:24:31Z</time>
      </trkpt>
      <trkpt lat="45.74303" lon="6.29504">
        <ele>356.8</ele>
        <time>2022-01-13T07:24:32Z</time>
      </trkpt>
      <trkpt lat="45.74314" lon="6.29513">
        <ele>354.8</ele>
        <time>2022-01-13T07:24:33Z</time>
      </trkpt>
      <trkpt lat="45.74326" lon="6.2952">
        <ele>354.8</ele>
        <time>2022-01-13T07:24:34Z</time>
      </trkpt>
      <trkpt lat="45.74338" lon="6.29527">
        <ele>352.8</ele>
        <time>2022-01-13T07:24:35Z</time>
      </trkpt>
      <trkpt lat="45.74349" lon="6.29534">
        <ele>352.8</ele>
        <time>2022-01-13T07:24:36Z</time>
      </trkpt>
      <trkpt lat="45.74359" lon="6.29541">
        <ele>352.8</ele>
        <time>2022-01-13T07:24:37Z</time>
      </trkpt>
      <trkpt lat="45.74368" lon="6.2955">
        <ele>352.8</ele>
        <time>2022-01-13T07:24:38Z</time>
      </trkpt>
      <trkpt lat="45.74376" lon="6.29559">
        <ele>352.8</ele>
        <time>2022-01-13T07:24:39Z</time>
      </trkpt>
      <trkpt lat="45.74384" lon="6.29569">
        <ele>352.8</ele>
        <time>2022-01-13T07:24:40Z</time>
      </trkpt>
      <trkpt lat="45.74392" lon="6.29578">
        <ele>346.7</ele>
        <time>2022-01-13T07:24:41Z</time>
      </trkpt>
      <trkpt lat="45.74399" lon="6.29589">
        <ele>346.7</ele>
        <time>2022-01-13T07:24:42Z</time>
      </trkpt>
      <trkpt lat="45.74406" lon="6.29598">
        <ele>344.7</ele>
        <time>2022-01-13T07:24:43Z</time>
      </trkpt>
      <trkpt lat="45.74413" lon="6.29607">
        <ele>344.7</ele>
        <time>2022-01-13T07:24:44Z</time>
      </trkpt>
      <trkpt lat="45.7442" lon="6.29615">
        <ele>342.8</ele>
        <time>2022-01-13T07:24:45Z</time>
      </trkpt>
      <trkpt lat="45.74425" lon="6.29622">
        <ele>342.8</ele>
        <time>2022-01-13T07:24:46Z</time>
      </trkpt>
      <trkpt lat="45.74432" lon="6.2963">
        <ele>341.8</ele>
        <time>2022-01-13T07:24:47Z</time>
      </trkpt>
      <trkpt lat="45.7444" lon="6.29638">
        <ele>341.8</ele>
        <time>2022-01-13T07:24:48Z</time>
      </trkpt>
      <trkpt lat="45.74447" lon="6.29642">
        <ele>340.8</ele>
        <time>2022-01-13T07:24:49Z</time>
      </trkpt>
      <trkpt lat="45.74455" lon="6.29646">
        <ele>340.8</ele>
        <time>2022-01-13T07:24:50Z</time>
      </trkpt>
      <trkpt lat="45.7446" lon="6.29646">
        <ele>339.7</ele>
        <time>2022-01-13T07:24:51Z</time>
      </trkpt>
      <trkpt lat="45.74466" lon="6.29644">
        <ele>339.7</ele>
        <time>2022-01-13T07:24:52Z</time>
      </trkpt>
      <trkpt lat="45.74472" lon="6.29639">
        <ele>338.8</ele>
        <time>2022-01-13T07:24:53Z</time>
      </trkpt>
      <trkpt lat="45.74476" lon="6.29631">
        <ele>338.8</ele>
        <time>2022-01-13T07:24:54Z</time>
      </trkpt>
      <trkpt lat="45.7448" lon="6.29622">
        <ele>338.8</ele>
        <time>2022-01-13T07:24:55Z</time>
      </trkpt>
      <trkpt lat="45.74484" lon="6.29613">
        <ele>338.8</ele>
        <time>2022-01-13T07:24:56Z</time>
      </trkpt>
      <trkpt lat="45.74487" lon="6.29604">
        <ele>336.8</ele>
        <time>2022-01-13T07:24:57Z</time>
      </trkpt>
      <trkpt lat="45.74491" lon="6.29595">
        <ele>336.8</ele>
        <time>2022-01-13T07:24:58Z</time>
      </trkpt>
      <trkpt lat="45.74495" lon="6.29586">
        <ele>335.7</ele>
        <time>2022-01-13T07:24:59Z</time>
      </trkpt>
      <trkpt lat="45.745" lon="6.29577">
        <ele>335.7</ele>
        <time>2022-01-13T07:25:00Z</time>
      </trkpt>
      <trkpt lat="45.74504" lon="6.29568">
        <ele>335.7</ele>
        <time>2022-01-13T07:25:01Z</time>
      </trkpt>
      <trkpt lat="45.74509" lon="6.29561">
        <ele>335.7</ele>
        <time>2022-01-13T07:25:02Z</time>
      </trkpt>
      <trkpt lat="45.74515" lon="6.29554">
        <ele>335.7</ele>
        <time>2022-01-13T07:25:03Z</time>
      </trkpt>
      <trkpt lat="45.7452" lon="6.29548">
        <ele>335.7</ele>
        <time>2022-01-13T07:25:04Z</time>
      </trkpt>
      <trkpt lat="45.74525" lon="6.29544">
        <ele>333.8</ele>
        <time>2022-01-13T07:25:05Z</time>
      </trkpt>
      <trkpt lat="45.74529" lon="6.29539">
        <ele>333.8</ele>
        <time>2022-01-13T07:25:06Z</time>
      </trkpt>
      <trkpt lat="45.74534" lon="6.29536">
        <ele>333.8</ele>
        <time>2022-01-13T07:25:07Z</time>
      </trkpt>
      <trkpt lat="45.74538" lon="6.29531">
        <ele>333.8</ele>
        <time>2022-01-13T07:25:08Z</time>
      </trkpt>
      <trkpt lat="45.74544" lon="6.29527">
        <ele>333.8</ele>
        <time>2022-01-13T07:25:09Z</time>
      </trkpt>
      <trkpt lat="45.74548" lon="6.29524">
        <ele>333.8</ele>
        <time>2022-01-13T07:25:10Z</time>
      </trkpt>
      <trkpt lat="45.74554" lon="6.2952">
        <ele>333.8</ele>
        <time>2022-01-13T07:25:11Z</time>
      </trkpt>
      <trkpt lat="45.7456" lon="6.29517">
        <ele>333.8</ele>
        <time>2022-01-13T07:25:12Z</time>
      </trkpt>
      <trkpt lat="45.74565" lon="6.29514">
        <ele>332.7</ele>
        <time>2022-01-13T07:25:13Z</time>
      </trkpt>
      <trkpt lat="45.74571" lon="6.29512">
        <ele>332.7</ele>
        <time>2022-01-13T07:25:14Z</time>
      </trkpt>
      <trkpt lat="45.74576" lon="6.29511">
        <ele>332.7</ele>
        <time>2022-01-13T07:25:15Z</time>
      </trkpt>
      <trkpt lat="45.74583" lon="6.2951">
        <ele>332.7</ele>
        <time>2022-01-13T07:25:16Z</time>
      </trkpt>
      <trkpt lat="45.74587" lon="6.2951">
        <ele>332.7</ele>
        <time>2022-01-13T07:25:17Z</time>
      </trkpt>
      <trkpt lat="45.74591" lon="6.29511">
        <ele>332.7</ele>
        <time>2022-01-13T07:25:18Z</time>
      </trkpt>
      <trkpt lat="45.74593" lon="6.29511">
        <ele>332.7</ele>
        <time>2022-01-13T07:25:19Z</time>
      </trkpt>
      <trkpt lat="45.74595" lon="6.29511">
        <ele>332.7</ele>
        <time>2022-01-13T07:25:20Z</time>
      </trkpt>
    </trkseg>
  </trk>
</gpx>